<?xml version='1.0' encoding='UTF-8'?><gpx version="1.1" creator="JPX - https://github.com/jenetics/jpx" xmlns="http://www.topografix.com/GPX/1/1"><trk><trkseg><trkpt lat="44.692027975932895" lon="12.182524739024778"><ele>1.9999999999999998</ele><time>2026-04-12T08:08:34Z</time></trkpt><trkpt lat="44.6919643412283" lon="12.182477967712702"><ele>2.0</ele><time>2026-04-12T08:08:41Z</time></trkpt><trkpt lat="44.69190313326956" lon="12.18243548604656"><ele>2.0</ele><time>2026-04-12T08:08:49Z</time></trkpt><trkpt lat="44.69184572536289" lon="12.182348108654981"><ele>2.0</ele><time>2026-04-12T08:09:44Z</time></trkpt><trkpt lat="44.6918019411883" lon="12.182265745171309"><ele>1.9999999999999998</ele><time>2026-04-12T08:09:47Z</time></trkpt><trkpt lat="44.69174153875537" lon="12.1821646893946"><ele>2.0</ele><time>2026-04-12T08:09:50Z</time></trkpt><trkpt lat="44.69169894784704" lon="12.182095869760577"><ele>1.8333333333333333</ele><time>2026-04-12T08:09:52Z</time></trkpt><trkpt lat="44.69165144760794" lon="12.181985311502071"><ele>1.6666666666666665</ele><time>2026-04-12T08:09:55Z</time></trkpt><trkpt lat="44.69160234618931" lon="12.181871696818117"><ele>1.5</ele><time>2026-04-12T08:09:58Z</time></trkpt><trkpt lat="44.691572959024974" lon="12.181790922812775"><ele>1.3333333333333333</ele><time>2026-04-12T08:10:00Z</time></trkpt><trkpt lat="44.691531030731795" lon="12.181680037335386"><ele>1.1666666666666665</ele><time>2026-04-12T08:10:03Z</time></trkpt><trkpt lat="44.69149136464438" lon="12.181572032389402"><ele>1.0</ele><time>2026-04-12T08:10:06Z</time></trkpt><trkpt lat="44.6914620993515" lon="12.18147534132652"><ele>0.8333333333333333</ele><time>2026-04-12T08:10:09Z</time></trkpt><trkpt lat="44.691427516802634" lon="12.18138129974898"><ele>0.6666666666666666</ele><time>2026-04-12T08:10:12Z</time></trkpt><trkpt lat="44.69139065333308" lon="12.181267380917626"><ele>0.5</ele><time>2026-04-12T08:10:15Z</time></trkpt><trkpt lat="44.69134836970899" lon="12.181159140868314"><ele>0.3333333333333333</ele><time>2026-04-12T08:10:18Z</time></trkpt><trkpt lat="44.691322108771615" lon="12.181071356510206"><ele>0.16666666666666666</ele><time>2026-04-12T08:10:20Z</time></trkpt><trkpt lat="44.69128946408463" lon="12.180983298149794"><ele>0.0</ele><time>2026-04-12T08:10:22Z</time></trkpt><trkpt lat="44.69125455974301" lon="12.180894481450808"><ele>0.0</ele><time>2026-04-12T08:10:24Z</time></trkpt><trkpt lat="44.69122974737496" lon="12.180766825275075"><ele>0.0</ele><time>2026-04-12T08:10:27Z</time></trkpt><trkpt lat="44.691172652469405" lon="12.180665381979328"><ele>0.0</ele><time>2026-04-12T08:10:30Z</time></trkpt><trkpt lat="44.69114434569286" lon="12.18057757060976"><ele>0.0</ele><time>2026-04-12T08:10:34Z</time></trkpt><trkpt lat="44.69110953171685" lon="12.180489657748007"><ele>0.0</ele><time>2026-04-12T08:10:57Z</time></trkpt><trkpt lat="44.6910587784098" lon="12.180434580059588"><ele>0.0</ele><time>2026-04-12T08:11:01Z</time></trkpt><trkpt lat="44.6909717620103" lon="12.180435771630872"><ele>0.0</ele><time>2026-04-12T08:11:05Z</time></trkpt><trkpt lat="44.69090535556444" lon="12.180499067662387"><ele>0.0</ele><time>2026-04-12T08:11:08Z</time></trkpt><trkpt lat="44.69084151820598" lon="12.180573726942443"><ele>0.0</ele><time>2026-04-12T08:11:11Z</time></trkpt><trkpt lat="44.690784694260024" lon="12.180647304227017"><ele>0.0</ele><time>2026-04-12T08:11:14Z</time></trkpt><trkpt lat="44.69073071110947" lon="12.180562712165221"><ele>0.0</ele><time>2026-04-12T08:11:34Z</time></trkpt><trkpt lat="44.690666702905496" lon="12.180559170315899"><ele>0.0</ele><time>2026-04-12T08:11:37Z</time></trkpt><trkpt lat="44.69065167613733" lon="12.18064770174513"><ele>0.0</ele><time>2026-04-12T08:11:43Z</time></trkpt><trkpt lat="44.69061890078865" lon="12.180728169337037"><ele>0.0</ele><time>2026-04-12T08:11:49Z</time></trkpt><trkpt lat="44.690639250589946" lon="12.1806439466802"><ele>0.0</ele><time>2026-04-12T08:11:57Z</time></trkpt><trkpt lat="44.69065778873019" lon="12.180538012236509"><ele>0.0</ele><time>2026-04-12T08:12:01Z</time></trkpt><trkpt lat="44.69067682791806" lon="12.180425031421262"><ele>0.0</ele><time>2026-04-12T08:12:05Z</time></trkpt><trkpt lat="44.69069301338831" lon="12.180335755361426"><ele>0.0</ele><time>2026-04-12T08:12:08Z</time></trkpt><trkpt lat="44.69070918992234" lon="12.180238395718009"><ele>0.0</ele><time>2026-04-12T08:12:11Z</time></trkpt><trkpt lat="44.690727579868806" lon="12.180139093815777"><ele>0.0</ele><time>2026-04-12T08:12:14Z</time></trkpt><trkpt lat="44.69074603378445" lon="12.180043953407896"><ele>0.0</ele><time>2026-04-12T08:12:17Z</time></trkpt><trkpt lat="44.69076688120845" lon="12.179947742055399"><ele>0.0</ele><time>2026-04-12T08:12:20Z</time></trkpt><trkpt lat="44.6907867958858" lon="12.179853821467471"><ele>0.0</ele><time>2026-04-12T08:12:23Z</time></trkpt><trkpt lat="44.69080533228768" lon="12.179745786432923"><ele>0.0</ele><time>2026-04-12T08:12:26Z</time></trkpt><trkpt lat="44.690825644344066" lon="12.179643357125569"><ele>0.0</ele><time>2026-04-12T08:12:29Z</time></trkpt><trkpt lat="44.690850735866064" lon="12.179534016855532"><ele>0.0</ele><time>2026-04-12T08:12:32Z</time></trkpt><trkpt lat="44.69087648768504" lon="12.179421308747266"><ele>-0.3333333333333333</ele><time>2026-04-12T08:12:35Z</time></trkpt><trkpt lat="44.69090979767533" lon="12.179319524795211"><ele>-0.6666666666666666</ele><time>2026-04-12T08:12:38Z</time></trkpt><trkpt lat="44.69096088836806" lon="12.17922860074244"><ele>-1.0</ele><time>2026-04-12T08:12:41Z</time></trkpt><trkpt lat="44.691015327760226" lon="12.179144854024953"><ele>-1.3333333333333333</ele><time>2026-04-12T08:12:44Z</time></trkpt><trkpt lat="44.69105689932717" lon="12.179046173746864"><ele>-1.6666666666666665</ele><time>2026-04-12T08:12:47Z</time></trkpt><trkpt lat="44.691096075178564" lon="12.178973583373457"><ele>-2.0</ele><time>2026-04-12T08:12:50Z</time></trkpt><trkpt lat="44.69111592014127" lon="12.178880373371436"><ele>-2.1666666666666665</ele><time>2026-04-12T08:12:54Z</time></trkpt><trkpt lat="44.691083438125645" lon="12.178798434890497"><ele>-2.333333333333333</ele><time>2026-04-12T08:12:58Z</time></trkpt><trkpt lat="44.691047007705514" lon="12.178712459922496"><ele>-2.5</ele><time>2026-04-12T08:13:01Z</time></trkpt><trkpt lat="44.69100710141308" lon="12.17861488765542"><ele>-2.6666666666666665</ele><time>2026-04-12T08:13:04Z</time></trkpt><trkpt lat="44.69096825533718" lon="12.178531209738784"><ele>-2.8333333333333335</ele><time>2026-04-12T08:13:07Z</time></trkpt><trkpt lat="44.690919547408434" lon="12.178432763280947"><ele>-3.0</ele><time>2026-04-12T08:13:10Z</time></trkpt><trkpt lat="44.69087758059741" lon="12.178333282704575"><ele>-2.9999999999999996</ele><time>2026-04-12T08:13:13Z</time></trkpt><trkpt lat="44.69084097776009" lon="12.178250041502784"><ele>-3.0</ele><time>2026-04-12T08:13:16Z</time></trkpt><trkpt lat="44.6907992331484" lon="12.178165296830421"><ele>-3.0</ele><time>2026-04-12T08:13:20Z</time></trkpt><trkpt lat="44.69075600291545" lon="12.178065811448237"><ele>-3.0</ele><time>2026-04-12T08:13:24Z</time></trkpt><trkpt lat="44.690725735701236" lon="12.177988076929388"><ele>-3.0</ele><time>2026-04-12T08:13:28Z</time></trkpt><trkpt lat="44.69068687008242" lon="12.177916065701329"><ele>-2.9999999999999996</ele><time>2026-04-12T08:13:33Z</time></trkpt><trkpt lat="44.69062167149104" lon="12.17795333400568"><ele>-3.0</ele><time>2026-04-12T08:13:37Z</time></trkpt><trkpt lat="44.69056672056024" lon="12.178001602514318"><ele>-3.1666666666666665</ele><time>2026-04-12T08:13:40Z</time></trkpt><trkpt lat="44.69050287737778" lon="12.178011580966286"><ele>-3.333333333333333</ele><time>2026-04-12T08:13:43Z</time></trkpt><trkpt lat="44.69042436312603" lon="12.177943614424274"><ele>-3.5</ele><time>2026-04-12T08:13:46Z</time></trkpt><trkpt lat="44.69037071591119" lon="12.177893385865561"><ele>-3.6666666666666665</ele><time>2026-04-12T08:13:48Z</time></trkpt><trkpt lat="44.69030446291481" lon="12.17782489320431"><ele>-3.833333333333333</ele><time>2026-04-12T08:13:51Z</time></trkpt><trkpt lat="44.69023791960797" lon="12.177741003659843"><ele>-4.0</ele><time>2026-04-12T08:13:54Z</time></trkpt><trkpt lat="44.69016669950648" lon="12.177663191748499"><ele>-3.9999999999999996</ele><time>2026-04-12T08:13:57Z</time></trkpt><trkpt lat="44.69009665884945" lon="12.177602173395975"><ele>-4.0</ele><time>2026-04-12T08:14:00Z</time></trkpt><trkpt lat="44.690023919585016" lon="12.177525196894052"><ele>-4.0</ele><time>2026-04-12T08:14:03Z</time></trkpt><trkpt lat="44.689951538314084" lon="12.177455037970109"><ele>-4.0</ele><time>2026-04-12T08:14:06Z</time></trkpt><trkpt lat="44.6898814557121" lon="12.177388523609675"><ele>-3.9999999999999996</ele><time>2026-04-12T08:14:09Z</time></trkpt><trkpt lat="44.68981394902143" lon="12.17732361732685"><ele>-4.0</ele><time>2026-04-12T08:14:12Z</time></trkpt><trkpt lat="44.68973894286399" lon="12.177255109094123"><ele>-3.9999999999999996</ele><time>2026-04-12T08:14:15Z</time></trkpt><trkpt lat="44.68966829888859" lon="12.177171556462469"><ele>-4.0</ele><time>2026-04-12T08:14:18Z</time></trkpt><trkpt lat="44.68958095104528" lon="12.17712980019654"><ele>-4.0</ele><time>2026-04-12T08:14:21Z</time></trkpt><trkpt lat="44.68952291971353" lon="12.177046817343609"><ele>-4.0</ele><time>2026-04-12T08:14:24Z</time></trkpt><trkpt lat="44.689454766096155" lon="12.177000962730144"><ele>-3.9999999999999996</ele><time>2026-04-12T08:14:27Z</time></trkpt><trkpt lat="44.689404608988994" lon="12.176939623824596"><ele>-4.0</ele><time>2026-04-12T08:14:30Z</time></trkpt><trkpt lat="44.68934420653223" lon="12.176875706996817"><ele>-3.833333333333333</ele><time>2026-04-12T08:14:33Z</time></trkpt><trkpt lat="44.68927678763948" lon="12.176801905954635"><ele>-3.6666666666666665</ele><time>2026-04-12T08:14:36Z</time></trkpt><trkpt lat="44.68920517735447" lon="12.17672144044119"><ele>-3.5</ele><time>2026-04-12T08:14:39Z</time></trkpt><trkpt lat="44.689131666300675" lon="12.176649907114058"><ele>-3.333333333333333</ele><time>2026-04-12T08:14:42Z</time></trkpt><trkpt lat="44.68905493655199" lon="12.176560041999945"><ele>-3.1666666666666665</ele><time>2026-04-12T08:14:45Z</time></trkpt><trkpt lat="44.68899400949643" lon="12.176499019861247"><ele>-3.0</ele><time>2026-04-12T08:14:47Z</time></trkpt><trkpt lat="44.68893581142376" lon="12.176435617246554"><ele>-2.9999999999999996</ele><time>2026-04-12T08:14:49Z</time></trkpt><trkpt lat="44.688875577400616" lon="12.176385434729793"><ele>-3.0</ele><time>2026-04-12T08:14:51Z</time></trkpt><trkpt lat="44.6888169145468" lon="12.176336515317564"><ele>-3.0</ele><time>2026-04-12T08:14:53Z</time></trkpt><trkpt lat="44.6887597651288" lon="12.176287823804925"><ele>-3.0</ele><time>2026-04-12T08:14:55Z</time></trkpt><trkpt lat="44.688702314493504" lon="12.176230894336433"><ele>-3.0</ele><time>2026-04-12T08:14:57Z</time></trkpt><trkpt lat="44.688642577871356" lon="12.176172396078824"><ele>-2.9999999999999996</ele><time>2026-04-12T08:14:59Z</time></trkpt><trkpt lat="44.68855972546908" lon="12.176090924421693"><ele>-3.0</ele><time>2026-04-12T08:15:02Z</time></trkpt><trkpt lat="44.68847758917019" lon="12.176026663070333"><ele>-3.0</ele><time>2026-04-12T08:15:05Z</time></trkpt><trkpt lat="44.68840871433726" lon="12.175967339392358"><ele>-3.0</ele><time>2026-04-12T08:15:08Z</time></trkpt><trkpt lat="44.688323316469734" lon="12.17591679959173"><ele>-3.0</ele><time>2026-04-12T08:15:11Z</time></trkpt><trkpt lat="44.688266770476474" lon="12.175868411501748"><ele>-3.0</ele><time>2026-04-12T08:15:13Z</time></trkpt><trkpt lat="44.68820846802621" lon="12.175834940619586"><ele>-3.0</ele><time>2026-04-12T08:15:15Z</time></trkpt><trkpt lat="44.688143884608806" lon="12.175795446623848"><ele>-3.0</ele><time>2026-04-12T08:15:18Z</time></trkpt><trkpt lat="44.68807767763474" lon="12.175728740391595"><ele>-3.1428571428571423</ele><time>2026-04-12T08:15:21Z</time></trkpt><trkpt lat="44.68801549931316" lon="12.17567329441147"><ele>-3.2857142857142856</ele><time>2026-04-12T08:15:25Z</time></trkpt><trkpt lat="44.68793906800808" lon="12.175628570321086"><ele>-3.4285714285714284</ele><time>2026-04-12T08:15:28Z</time></trkpt><trkpt lat="44.68787088632641" lon="12.175583072522038"><ele>-3.571428571428571</ele><time>2026-04-12T08:15:31Z</time></trkpt><trkpt lat="44.68780714795606" lon="12.175538498885054"><ele>-3.714285714285714</ele><time>2026-04-12T08:15:34Z</time></trkpt><trkpt lat="44.687745585805025" lon="12.1755015473105"><ele>-3.8571428571428568</ele><time>2026-04-12T08:15:37Z</time></trkpt><trkpt lat="44.68767992224292" lon="12.175454632983799"><ele>-4.0</ele><time>2026-04-12T08:15:40Z</time></trkpt><trkpt lat="44.68760460804594" lon="12.17540403873233"><ele>-3.6666666666666665</ele><time>2026-04-12T08:15:43Z</time></trkpt><trkpt lat="44.687527382871544" lon="12.17535912093626"><ele>-3.333333333333333</ele><time>2026-04-12T08:15:46Z</time></trkpt><trkpt lat="44.68745507923277" lon="12.175317549622445"><ele>-3.0</ele><time>2026-04-12T08:15:49Z</time></trkpt><trkpt lat="44.68738363395289" lon="12.17527699904621"><ele>-2.6666666666666665</ele><time>2026-04-12T08:15:52Z</time></trkpt><trkpt lat="44.68731473626553" lon="12.175231142951697"><ele>-2.333333333333333</ele><time>2026-04-12T08:15:55Z</time></trkpt><trkpt lat="44.68724294088837" lon="12.175184906116435"><ele>-2.0</ele><time>2026-04-12T08:15:58Z</time></trkpt><trkpt lat="44.68716983470413" lon="12.175139619275354"><ele>-1.9999999999999998</ele><time>2026-04-12T08:16:01Z</time></trkpt><trkpt lat="44.687094970142184" lon="12.17509156076725"><ele>-2.0</ele><time>2026-04-12T08:16:04Z</time></trkpt><trkpt lat="44.687018254411804" lon="12.175040692299204"><ele>-2.0</ele><time>2026-04-12T08:16:07Z</time></trkpt><trkpt lat="44.686940291184456" lon="12.174988858990865"><ele>-2.0</ele><time>2026-04-12T08:16:10Z</time></trkpt><trkpt lat="44.68686890255864" lon="12.174942822286914"><ele>-1.9999999999999998</ele><time>2026-04-12T08:16:13Z</time></trkpt><trkpt lat="44.686797677028636" lon="12.174895561282485"><ele>-2.0</ele><time>2026-04-12T08:16:16Z</time></trkpt><trkpt lat="44.686728032943954" lon="12.174848888252864"><ele>-1.8333333333333333</ele><time>2026-04-12T08:16:19Z</time></trkpt><trkpt lat="44.68665121847737" lon="12.174805760922423"><ele>-1.6666666666666665</ele><time>2026-04-12T08:16:22Z</time></trkpt><trkpt lat="44.6865749787927" lon="12.174757389049917"><ele>-1.5</ele><time>2026-04-12T08:16:25Z</time></trkpt><trkpt lat="44.68650001938521" lon="12.174708604883133"><ele>-1.3333333333333333</ele><time>2026-04-12T08:16:28Z</time></trkpt><trkpt lat="44.68641919050785" lon="12.174664109729367"><ele>-1.1666666666666665</ele><time>2026-04-12T08:16:31Z</time></trkpt><trkpt lat="44.68634238495999" lon="12.174612097712433"><ele>-1.0</ele><time>2026-04-12T08:16:34Z</time></trkpt><trkpt lat="44.68626492095562" lon="12.17456227366685"><ele>-0.9999999999999999</ele><time>2026-04-12T08:16:37Z</time></trkpt><trkpt lat="44.68620351657846" lon="12.17452473752557"><ele>-1.0</ele><time>2026-04-12T08:16:39Z</time></trkpt><trkpt lat="44.6861221806579" lon="12.174474137917127"><ele>-1.0</ele><time>2026-04-12T08:16:42Z</time></trkpt><trkpt lat="44.6860433110151" lon="12.174417175154742"><ele>-1.0</ele><time>2026-04-12T08:16:45Z</time></trkpt><trkpt lat="44.68596540728485" lon="12.17435768718096"><ele>-0.9999999999999999</ele><time>2026-04-12T08:16:48Z</time></trkpt><trkpt lat="44.68588554657018" lon="12.174316075546768"><ele>-1.0</ele><time>2026-04-12T08:16:51Z</time></trkpt><trkpt lat="44.68579990206749" lon="12.174273054655815"><ele>-1.1666666666666665</ele><time>2026-04-12T08:16:54Z</time></trkpt><trkpt lat="44.68571518850993" lon="12.174241823602761"><ele>-1.3333333333333333</ele><time>2026-04-12T08:16:57Z</time></trkpt><trkpt lat="44.68563248238221" lon="12.174214870250973"><ele>-1.5</ele><time>2026-04-12T08:17:00Z</time></trkpt><trkpt lat="44.685544670402905" lon="12.174193163465644"><ele>-1.6666666666666665</ele><time>2026-04-12T08:17:03Z</time></trkpt><trkpt lat="44.68546045570425" lon="12.174175408752859"><ele>-1.8333333333333333</ele><time>2026-04-12T08:17:06Z</time></trkpt><trkpt lat="44.685371392235744" lon="12.174156989975675"><ele>-2.0</ele><time>2026-04-12T08:17:09Z</time></trkpt><trkpt lat="44.6852892700433" lon="12.174150667557972"><ele>-1.9999999999999998</ele><time>2026-04-12T08:17:12Z</time></trkpt><trkpt lat="44.685206007268576" lon="12.174148148693249"><ele>-2.0</ele><time>2026-04-12T08:17:15Z</time></trkpt><trkpt lat="44.685142422095595" lon="12.174154547998201"><ele>-2.0</ele><time>2026-04-12T08:17:18Z</time></trkpt><trkpt lat="44.68506423002348" lon="12.174143381584416"><ele>-2.0</ele><time>2026-04-12T08:17:21Z</time></trkpt><trkpt lat="44.68499400893249" lon="12.174165199975347"><ele>-1.9999999999999998</ele><time>2026-04-12T08:17:24Z</time></trkpt><trkpt lat="44.684915026686674" lon="12.174177131205527"><ele>-2.0</ele><time>2026-04-12T08:17:27Z</time></trkpt><trkpt lat="44.6848338714562" lon="12.174186048654132"><ele>-1.9999999999999998</ele><time>2026-04-12T08:17:30Z</time></trkpt><trkpt lat="44.68475818789643" lon="12.174203997761484"><ele>-2.0</ele><time>2026-04-12T08:17:33Z</time></trkpt><trkpt lat="44.684681435181425" lon="12.17421312170349"><ele>-2.0</ele><time>2026-04-12T08:17:36Z</time></trkpt><trkpt lat="44.68459914961396" lon="12.17422992984588"><ele>-2.0</ele><time>2026-04-12T08:17:39Z</time></trkpt><trkpt lat="44.68451969820332" lon="12.174244776133715"><ele>-1.9999999999999998</ele><time>2026-04-12T08:17:42Z</time></trkpt><trkpt lat="44.68443527416723" lon="12.174250759091656"><ele>-2.0</ele><time>2026-04-12T08:17:45Z</time></trkpt><trkpt lat="44.68436608906822" lon="12.174257370834221"><ele>-1.9999999999999998</ele><time>2026-04-12T08:17:48Z</time></trkpt><trkpt lat="44.684283394641625" lon="12.174274621801942"><ele>-2.0</ele><time>2026-04-12T08:17:51Z</time></trkpt><trkpt lat="44.68419887329641" lon="12.174297188926797"><ele>-2.0</ele><time>2026-04-12T08:17:54Z</time></trkpt><trkpt lat="44.68412088400624" lon="12.174318429713335"><ele>-2.0</ele><time>2026-04-12T08:17:57Z</time></trkpt><trkpt lat="44.684047606277545" lon="12.174336745066038"><ele>-1.9999999999999998</ele><time>2026-04-12T08:18:00Z</time></trkpt><trkpt lat="44.68396658603588" lon="12.17435983581758"><ele>-2.0</ele><time>2026-04-12T08:18:03Z</time></trkpt><trkpt lat="44.68388763306243" lon="12.17438351706485"><ele>-1.9999999999999998</ele><time>2026-04-12T08:18:06Z</time></trkpt><trkpt lat="44.68380559666106" lon="12.174415798949543"><ele>-2.0</ele><time>2026-04-12T08:18:09Z</time></trkpt><trkpt lat="44.68372856879586" lon="12.174446952625766"><ele>-2.0</ele><time>2026-04-12T08:18:12Z</time></trkpt><trkpt lat="44.68364489669584" lon="12.174473588473974"><ele>-2.0</ele><time>2026-04-12T08:18:15Z</time></trkpt><trkpt lat="44.68356887078011" lon="12.174514436950437"><ele>-1.9999999999999998</ele><time>2026-04-12T08:18:18Z</time></trkpt><trkpt lat="44.68349129511678" lon="12.174552977231796"><ele>-2.0</ele><time>2026-04-12T08:18:21Z</time></trkpt><trkpt lat="44.68341679579022" lon="12.174582594802215"><ele>-1.9999999999999998</ele><time>2026-04-12T08:18:24Z</time></trkpt><trkpt lat="44.683341163719945" lon="12.174631431710361"><ele>-2.0</ele><time>2026-04-12T08:18:27Z</time></trkpt><trkpt lat="44.683253769579515" lon="12.174679079951503"><ele>-2.0</ele><time>2026-04-12T08:18:30Z</time></trkpt><trkpt lat="44.68317344682667" lon="12.17472022965398"><ele>-2.0</ele><time>2026-04-12T08:18:33Z</time></trkpt><trkpt lat="44.683088463098635" lon="12.17475668063178"><ele>-1.9999999999999998</ele><time>2026-04-12T08:18:36Z</time></trkpt><trkpt lat="44.68300436844844" lon="12.174796908752489"><ele>-2.0</ele><time>2026-04-12T08:18:39Z</time></trkpt><trkpt lat="44.68291907206765" lon="12.174840333393151"><ele>-1.6666666666666665</ele><time>2026-04-12T08:18:42Z</time></trkpt><trkpt lat="44.68283495920908" lon="12.174887352232682"><ele>-1.3333333333333333</ele><time>2026-04-12T08:18:45Z</time></trkpt><trkpt lat="44.68275038902074" lon="12.17493385532961"><ele>-1.0</ele><time>2026-04-12T08:18:48Z</time></trkpt><trkpt lat="44.68266664101576" lon="12.17497488329518"><ele>-0.6666666666666666</ele><time>2026-04-12T08:18:51Z</time></trkpt><trkpt lat="44.682582249082856" lon="12.175020854080625"><ele>-0.3333333333333333</ele><time>2026-04-12T08:18:54Z</time></trkpt><trkpt lat="44.682502814469814" lon="12.175074396772542"><ele>0.0</ele><time>2026-04-12T08:18:57Z</time></trkpt><trkpt lat="44.68242343687642" lon="12.175124144843924"><ele>-0.6666666666666666</ele><time>2026-04-12T08:19:00Z</time></trkpt><trkpt lat="44.6823572044311" lon="12.175190587264748"><ele>-1.3333333333333333</ele><time>2026-04-12T08:19:03Z</time></trkpt><trkpt lat="44.68228227457398" lon="12.175249092099145"><ele>-2.0</ele><time>2026-04-12T08:19:06Z</time></trkpt><trkpt lat="44.68221022464633" lon="12.175300701964073"><ele>-2.6666666666666665</ele><time>2026-04-12T08:19:09Z</time></trkpt><trkpt lat="44.68214045523018" lon="12.175351773364246"><ele>-3.333333333333333</ele><time>2026-04-12T08:19:12Z</time></trkpt><trkpt lat="44.682059109306344" lon="12.175391140059382"><ele>-4.0</ele><time>2026-04-12T08:19:15Z</time></trkpt><trkpt lat="44.68196966202208" lon="12.175443102116084"><ele>-3.8571428571428568</ele><time>2026-04-12T08:19:18Z</time></trkpt><trkpt lat="44.68189503615433" lon="12.17548288394478"><ele>-3.714285714285714</ele><time>2026-04-12T08:19:21Z</time></trkpt><trkpt lat="44.68183332979535" lon="12.175505330693985"><ele>-3.571428571428571</ele><time>2026-04-12T08:19:23Z</time></trkpt><trkpt lat="44.681758967348294" lon="12.175549730757059"><ele>-3.4285714285714284</ele><time>2026-04-12T08:19:26Z</time></trkpt><trkpt lat="44.68169508469186" lon="12.175566738880761"><ele>-3.2857142857142856</ele><time>2026-04-12T08:19:28Z</time></trkpt><trkpt lat="44.6816148437187" lon="12.1755985676235"><ele>-3.1428571428571423</ele><time>2026-04-12T08:19:31Z</time></trkpt><trkpt lat="44.681555408911166" lon="12.175633479596922"><ele>-3.0</ele><time>2026-04-12T08:19:33Z</time></trkpt><trkpt lat="44.68147396574711" lon="12.175650213615821"><ele>-2.9999999999999996</ele><time>2026-04-12T08:19:36Z</time></trkpt><trkpt lat="44.6813852393444" lon="12.175686555924656"><ele>-3.0</ele><time>2026-04-12T08:19:39Z</time></trkpt><trkpt lat="44.681323713352036" lon="12.175712600448804"><ele>-3.0</ele><time>2026-04-12T08:19:41Z</time></trkpt><trkpt lat="44.681261327340906" lon="12.175737165719475"><ele>-3.0</ele><time>2026-04-12T08:19:43Z</time></trkpt><trkpt lat="44.68119572808188" lon="12.175767102852992"><ele>-3.0</ele><time>2026-04-12T08:19:45Z</time></trkpt><trkpt lat="44.68113104542954" lon="12.175798403027517"><ele>-2.9999999999999996</ele><time>2026-04-12T08:19:47Z</time></trkpt><trkpt lat="44.68106848025101" lon="12.175827806397061"><ele>-3.0</ele><time>2026-04-12T08:19:49Z</time></trkpt><trkpt lat="44.68098450919452" lon="12.175859992169723"><ele>-2.9999999999999996</ele><time>2026-04-12T08:19:52Z</time></trkpt><trkpt lat="44.68092257767421" lon="12.175895461694763"><ele>-3.0</ele><time>2026-04-12T08:19:54Z</time></trkpt><trkpt lat="44.68086346069749" lon="12.17592903298841"><ele>-3.0</ele><time>2026-04-12T08:19:56Z</time></trkpt><trkpt lat="44.68078261249515" lon="12.175945871179856"><ele>-3.0</ele><time>2026-04-12T08:19:59Z</time></trkpt><trkpt lat="44.68071056435332" lon="12.175975257526781"><ele>-3.0</ele><time>2026-04-12T08:20:01Z</time></trkpt><trkpt lat="44.68064816758665" lon="12.175998385043181"><ele>-2.9999999999999996</ele><time>2026-04-12T08:20:03Z</time></trkpt><trkpt lat="44.680585884291716" lon="12.17602997354377"><ele>-3.0</ele><time>2026-04-12T08:20:06Z</time></trkpt><trkpt lat="44.68051654139884" lon="12.176064416391863"><ele>-3.0</ele><time>2026-04-12T08:20:09Z</time></trkpt><trkpt lat="44.68044372839481" lon="12.176100538492436"><ele>-3.0</ele><time>2026-04-12T08:20:12Z</time></trkpt><trkpt lat="44.680358923060595" lon="12.176133129988099"><ele>-3.0</ele><time>2026-04-12T08:20:15Z</time></trkpt><trkpt lat="44.680276852776856" lon="12.176162555575937"><ele>-3.0</ele><time>2026-04-12T08:20:18Z</time></trkpt><trkpt lat="44.68019625844197" lon="12.17620159657137"><ele>-3.0</ele><time>2026-04-12T08:20:21Z</time></trkpt><trkpt lat="44.68012267314821" lon="12.17623693188424"><ele>-3.0</ele><time>2026-04-12T08:20:24Z</time></trkpt><trkpt lat="44.68003943119633" lon="12.176273629194117"><ele>-3.0</ele><time>2026-04-12T08:20:27Z</time></trkpt><trkpt lat="44.67995117495522" lon="12.176316294320914"><ele>-3.0</ele><time>2026-04-12T08:20:30Z</time></trkpt><trkpt lat="44.67986427317216" lon="12.176351739518037"><ele>-3.0</ele><time>2026-04-12T08:20:33Z</time></trkpt><trkpt lat="44.67980160235863" lon="12.176381739082116"><ele>-3.0</ele><time>2026-04-12T08:20:35Z</time></trkpt><trkpt lat="44.67974029367349" lon="12.1764103551818"><ele>-3.0</ele><time>2026-04-12T08:20:37Z</time></trkpt><trkpt lat="44.67966463586596" lon="12.17644424850054"><ele>-3.0</ele><time>2026-04-12T08:20:40Z</time></trkpt><trkpt lat="44.67960464362052" lon="12.176487586355366"><ele>-3.0</ele><time>2026-04-12T08:20:44Z</time></trkpt><trkpt lat="44.679535969469775" lon="12.176500373671146"><ele>-3.0</ele><time>2026-04-12T08:20:58Z</time></trkpt><trkpt lat="44.67946027142176" lon="12.176543147089173"><ele>-3.0</ele><time>2026-04-12T08:21:36Z</time></trkpt><trkpt lat="44.6793913023355" lon="12.176561150697363"><ele>-3.0</ele><time>2026-04-12T08:21:39Z</time></trkpt><trkpt lat="44.679309658696" lon="12.176578754372054"><ele>-3.0</ele><time>2026-04-12T08:21:42Z</time></trkpt><trkpt lat="44.67922327699499" lon="12.176623597344442"><ele>-3.0</ele><time>2026-04-12T08:21:45Z</time></trkpt><trkpt lat="44.67916262334203" lon="12.176654970948176"><ele>-2.6666666666666665</ele><time>2026-04-12T08:21:47Z</time></trkpt><trkpt lat="44.679100940233624" lon="12.176681694634036"><ele>-2.3333333333333335</ele><time>2026-04-12T08:21:49Z</time></trkpt><trkpt lat="44.67903926834666" lon="12.1767069522331"><ele>-2.0</ele><time>2026-04-12T08:21:51Z</time></trkpt><trkpt lat="44.67897149377598" lon="12.17674458097646"><ele>-1.6666666666666665</ele><time>2026-04-12T08:21:53Z</time></trkpt><trkpt lat="44.67887161887983" lon="12.176789026619186"><ele>-1.3333333333333333</ele><time>2026-04-12T08:21:56Z</time></trkpt><trkpt lat="44.678803243842246" lon="12.176818220311741"><ele>-1.0</ele><time>2026-04-12T08:21:58Z</time></trkpt><trkpt lat="44.678729176852805" lon="12.176846763155494"><ele>-1.0</ele><time>2026-04-12T08:22:00Z</time></trkpt><trkpt lat="44.67865877961146" lon="12.176885592246482"><ele>-0.9999999999999999</ele><time>2026-04-12T08:22:02Z</time></trkpt><trkpt lat="44.67858865293266" lon="12.176905856113304"><ele>-1.0</ele><time>2026-04-12T08:22:04Z</time></trkpt><trkpt lat="44.67852229744934" lon="12.176945514501288"><ele>-1.0</ele><time>2026-04-12T08:22:06Z</time></trkpt><trkpt lat="44.67844479016981" lon="12.176970272476856"><ele>-0.9999999999999999</ele><time>2026-04-12T08:22:08Z</time></trkpt><trkpt lat="44.678377287159165" lon="12.177008659472445"><ele>-1.0</ele><time>2026-04-12T08:22:10Z</time></trkpt><trkpt lat="44.67830398605138" lon="12.177038317036892"><ele>-1.0</ele><time>2026-04-12T08:22:12Z</time></trkpt><trkpt lat="44.678229257951365" lon="12.177060050183037"><ele>-1.1666666666666665</ele><time>2026-04-12T08:22:14Z</time></trkpt><trkpt lat="44.67815030484472" lon="12.17708828909713"><ele>-1.3333333333333333</ele><time>2026-04-12T08:22:16Z</time></trkpt><trkpt lat="44.678081716986206" lon="12.177131679567813"><ele>-1.5</ele><time>2026-04-12T08:22:18Z</time></trkpt><trkpt lat="44.67799321114577" lon="12.17716224560787"><ele>-1.6666666666666665</ele><time>2026-04-12T08:22:20Z</time></trkpt><trkpt lat="44.677923977240944" lon="12.177191673593695"><ele>-1.8333333333333333</ele><time>2026-04-12T08:22:22Z</time></trkpt><trkpt lat="44.67783416401641" lon="12.177212091601364"><ele>-2.0</ele><time>2026-04-12T08:22:24Z</time></trkpt><trkpt lat="44.6777671719864" lon="12.177247365333653"><ele>-1.9999999999999998</ele><time>2026-04-12T08:22:26Z</time></trkpt><trkpt lat="44.67769569561903" lon="12.177296847360081"><ele>-2.0</ele><time>2026-04-12T08:22:28Z</time></trkpt><trkpt lat="44.67761968525662" lon="12.177322408757266"><ele>-2.0</ele><time>2026-04-12T08:22:30Z</time></trkpt><trkpt lat="44.677543483704596" lon="12.177351801826147"><ele>-2.0</ele><time>2026-04-12T08:22:32Z</time></trkpt><trkpt lat="44.677475870259755" lon="12.177378231066276"><ele>-1.9999999999999998</ele><time>2026-04-12T08:22:34Z</time></trkpt><trkpt lat="44.677408322565654" lon="12.177406537057767"><ele>-2.0</ele><time>2026-04-12T08:22:36Z</time></trkpt><trkpt lat="44.677317015198554" lon="12.17745374280862"><ele>-2.0</ele><time>2026-04-12T08:22:39Z</time></trkpt><trkpt lat="44.677251318944876" lon="12.177478944036105"><ele>-1.9999999999999998</ele><time>2026-04-12T08:22:41Z</time></trkpt><trkpt lat="44.67718980041829" lon="12.17750061984761"><ele>-2.0</ele><time>2026-04-12T08:22:43Z</time></trkpt><trkpt lat="44.67710625157606" lon="12.17753888352287"><ele>-2.0</ele><time>2026-04-12T08:24:18Z</time></trkpt><trkpt lat="44.6770308824482" lon="12.17756833552696"><ele>-1.9999999999999998</ele><time>2026-04-12T08:24:21Z</time></trkpt><trkpt lat="44.67695562930558" lon="12.177603786011359"><ele>-2.0</ele><time>2026-04-12T08:24:24Z</time></trkpt><trkpt lat="44.67689395528943" lon="12.177635309617276"><ele>-2.0</ele><time>2026-04-12T08:24:26Z</time></trkpt><trkpt lat="44.67682950050076" lon="12.17766309281282"><ele>-1.857142857142857</ele><time>2026-04-12T08:24:28Z</time></trkpt><trkpt lat="44.676755560586415" lon="12.17769650185708"><ele>-1.714285714285714</ele><time>2026-04-12T08:24:30Z</time></trkpt><trkpt lat="44.67668057459585" lon="12.177732058513735"><ele>-1.5714285714285714</ele><time>2026-04-12T08:24:32Z</time></trkpt><trkpt lat="44.676605429619144" lon="12.177753601216226"><ele>-1.4285714285714284</ele><time>2026-04-12T08:24:34Z</time></trkpt><trkpt lat="44.67653673591379" lon="12.177790071560354"><ele>-1.2857142857142856</ele><time>2026-04-12T08:24:36Z</time></trkpt><trkpt lat="44.67647076957007" lon="12.17783082044632"><ele>-1.1428571428571428</ele><time>2026-04-12T08:24:38Z</time></trkpt><trkpt lat="44.676404710891816" lon="12.177838691918891"><ele>-1.0</ele><time>2026-04-12T08:24:40Z</time></trkpt><trkpt lat="44.67634224712789" lon="12.17786569209252"><ele>-0.9999999999999999</ele><time>2026-04-12T08:24:42Z</time></trkpt><trkpt lat="44.676280543229865" lon="12.177891587914342"><ele>-1.0</ele><time>2026-04-12T08:24:44Z</time></trkpt><trkpt lat="44.67619361588684" lon="12.177933352198458"><ele>-1.0</ele><time>2026-04-12T08:24:47Z</time></trkpt><trkpt lat="44.67612913945407" lon="12.17795789625481"><ele>-1.0</ele><time>2026-04-12T08:24:49Z</time></trkpt><trkpt lat="44.6760358866886" lon="12.178003096692745"><ele>-0.9999999999999999</ele><time>2026-04-12T08:24:52Z</time></trkpt><trkpt lat="44.67597410183625" lon="12.178038454677967"><ele>-1.0</ele><time>2026-04-12T08:24:54Z</time></trkpt><trkpt lat="44.675906184924386" lon="12.178060938633022"><ele>-1.1428571428571428</ele><time>2026-04-12T08:24:56Z</time></trkpt><trkpt lat="44.67584451122877" lon="12.178091819664681"><ele>-1.2857142857142856</ele><time>2026-04-12T08:24:58Z</time></trkpt><trkpt lat="44.675773560332836" lon="12.178122999722486"><ele>-1.4285714285714284</ele><time>2026-04-12T08:25:00Z</time></trkpt><trkpt lat="44.67570947453462" lon="12.178145870600606"><ele>-1.5714285714285714</ele><time>2026-04-12T08:25:02Z</time></trkpt><trkpt lat="44.67563974560591" lon="12.17817563695699"><ele>-1.714285714285714</ele><time>2026-04-12T08:25:04Z</time></trkpt><trkpt lat="44.675573181652275" lon="12.178197974164155"><ele>-1.857142857142857</ele><time>2026-04-12T08:25:06Z</time></trkpt><trkpt lat="44.67550676530678" lon="12.178226925291323"><ele>-2.0</ele><time>2026-04-12T08:25:08Z</time></trkpt><trkpt lat="44.67544065502035" lon="12.17825762120836"><ele>-1.7142857142857142</ele><time>2026-04-12T08:25:10Z</time></trkpt><trkpt lat="44.675370811686896" lon="12.178282365895624"><ele>-1.4285714285714284</ele><time>2026-04-12T08:25:12Z</time></trkpt><trkpt lat="44.67529862722659" lon="12.17831711324367"><ele>-1.1428571428571428</ele><time>2026-04-12T08:25:14Z</time></trkpt><trkpt lat="44.67522733486275" lon="12.178344145538059"><ele>-0.8571428571428571</ele><time>2026-04-12T08:25:16Z</time></trkpt><trkpt lat="44.67515758043183" lon="12.17837263005268"><ele>-0.5714285714285714</ele><time>2026-04-12T08:25:18Z</time></trkpt><trkpt lat="44.6750823640233" lon="12.178412795437625"><ele>-0.2857142857142857</ele><time>2026-04-12T08:25:20Z</time></trkpt><trkpt lat="44.6750124539384" lon="12.178447699730734"><ele>0.0</ele><time>2026-04-12T08:25:22Z</time></trkpt><trkpt lat="44.67493938816431" lon="12.178479472817704"><ele>0.0</ele><time>2026-04-12T08:25:24Z</time></trkpt><trkpt lat="44.67486865416284" lon="12.178504886998095"><ele>0.0</ele><time>2026-04-12T08:25:26Z</time></trkpt><trkpt lat="44.67479608349333" lon="12.178534835195839"><ele>0.0</ele><time>2026-04-12T08:25:28Z</time></trkpt><trkpt lat="44.67472231749782" lon="12.178550008195902"><ele>0.0</ele><time>2026-04-12T08:25:30Z</time></trkpt><trkpt lat="44.67464405074393" lon="12.178579375315206"><ele>0.0</ele><time>2026-04-12T08:25:32Z</time></trkpt><trkpt lat="44.67456504395101" lon="12.178588706120962"><ele>0.0</ele><time>2026-04-12T08:25:34Z</time></trkpt><trkpt lat="44.67448561942684" lon="12.178596144459707"><ele>-0.3333333333333333</ele><time>2026-04-12T08:25:36Z</time></trkpt><trkpt lat="44.674405159070226" lon="12.17860696320634"><ele>-0.6666666666666666</ele><time>2026-04-12T08:25:38Z</time></trkpt><trkpt lat="44.674317625904386" lon="12.178611872057802"><ele>-1.0</ele><time>2026-04-12T08:25:40Z</time></trkpt><trkpt lat="44.674241925137615" lon="12.178624747404118"><ele>-1.3333333333333333</ele><time>2026-04-12T08:25:42Z</time></trkpt><trkpt lat="44.67416425903233" lon="12.178626338165053"><ele>-1.6666666666666665</ele><time>2026-04-12T08:25:44Z</time></trkpt><trkpt lat="44.67408279894623" lon="12.178625166928818"><ele>-2.0</ele><time>2026-04-12T08:25:46Z</time></trkpt><trkpt lat="44.67400531927857" lon="12.178622174114013"><ele>-1.9999999999999998</ele><time>2026-04-12T08:25:48Z</time></trkpt><trkpt lat="44.673925140131075" lon="12.178613800399559"><ele>-2.0</ele><time>2026-04-12T08:25:50Z</time></trkpt><trkpt lat="44.673845775206985" lon="12.17860528033457"><ele>-2.0</ele><time>2026-04-12T08:25:52Z</time></trkpt><trkpt lat="44.673768175147416" lon="12.178595718695423"><ele>-2.0</ele><time>2026-04-12T08:25:54Z</time></trkpt><trkpt lat="44.673683414787945" lon="12.178581296944461"><ele>-1.9999999999999998</ele><time>2026-04-12T08:25:56Z</time></trkpt><trkpt lat="44.67359911144304" lon="12.178576884205823"><ele>-2.0</ele><time>2026-04-12T08:25:58Z</time></trkpt><trkpt lat="44.67351423993959" lon="12.17855932067491"><ele>-2.1666666666666665</ele><time>2026-04-12T08:26:00Z</time></trkpt><trkpt lat="44.67343854659502" lon="12.178557912375112"><ele>-2.333333333333333</ele><time>2026-04-12T08:26:02Z</time></trkpt><trkpt lat="44.67336142655236" lon="12.178546226362869"><ele>-2.5</ele><time>2026-04-12T08:26:04Z</time></trkpt><trkpt lat="44.673280787118635" lon="12.178537936660629"><ele>-2.6666666666666665</ele><time>2026-04-12T08:26:06Z</time></trkpt><trkpt lat="44.673202059644616" lon="12.178528714590112"><ele>-2.8333333333333335</ele><time>2026-04-12T08:26:08Z</time></trkpt><trkpt lat="44.67312302333126" lon="12.178517301787972"><ele>-3.0</ele><time>2026-04-12T08:26:10Z</time></trkpt><trkpt lat="44.67304615757232" lon="12.178498456019508"><ele>-2.9999999999999996</ele><time>2026-04-12T08:26:12Z</time></trkpt><trkpt lat="44.67297963768309" lon="12.178477277654247"><ele>-3.0</ele><time>2026-04-12T08:26:14Z</time></trkpt><trkpt lat="44.67291920441033" lon="12.178434283659582"><ele>-3.0</ele><time>2026-04-12T08:26:16Z</time></trkpt><trkpt lat="44.67282695297693" lon="12.17840413449547"><ele>-3.0</ele><time>2026-04-12T08:26:19Z</time></trkpt><trkpt lat="44.6727579024975" lon="12.178363810778892"><ele>-3.0</ele><time>2026-04-12T08:26:21Z</time></trkpt><trkpt lat="44.6726960091941" lon="12.178338849435939"><ele>-2.9999999999999996</ele><time>2026-04-12T08:26:23Z</time></trkpt><trkpt lat="44.67263101146508" lon="12.17831032610249"><ele>-3.0</ele><time>2026-04-12T08:26:25Z</time></trkpt><trkpt lat="44.672572090972366" lon="12.178272413481597"><ele>-2.8571428571428568</ele><time>2026-04-12T08:26:27Z</time></trkpt><trkpt lat="44.672493148633116" lon="12.178223843287766"><ele>-2.7142857142857144</ele><time>2026-04-12T08:26:30Z</time></trkpt><trkpt lat="44.67244196479472" lon="12.178159883336662"><ele>-2.571428571428571</ele><time>2026-04-12T08:26:32Z</time></trkpt><trkpt lat="44.67237033575986" lon="12.17810389442447"><ele>-2.4285714285714284</ele><time>2026-04-12T08:26:34Z</time></trkpt><trkpt lat="44.672315057502274" lon="12.178061241651179"><ele>-2.2857142857142856</ele><time>2026-04-12T08:26:36Z</time></trkpt><trkpt lat="44.672255553846945" lon="12.178010726786729"><ele>-2.142857142857143</ele><time>2026-04-12T08:26:38Z</time></trkpt><trkpt lat="44.67219139878094" lon="12.17796335032169"><ele>-2.0</ele><time>2026-04-12T08:26:40Z</time></trkpt><trkpt lat="44.672134183786206" lon="12.177897941897832"><ele>-2.0</ele><time>2026-04-12T08:26:42Z</time></trkpt><trkpt lat="44.6720775307502" lon="12.177843164329877"><ele>-1.9999999999999998</ele><time>2026-04-12T08:26:44Z</time></trkpt><trkpt lat="44.672012806665435" lon="12.17778904562651"><ele>-2.0</ele><time>2026-04-12T08:26:46Z</time></trkpt><trkpt lat="44.67194836523965" lon="12.177735083685487"><ele>-2.0</ele><time>2026-04-12T08:26:48Z</time></trkpt><trkpt lat="44.671890147067195" lon="12.177684277710942"><ele>-1.9999999999999998</ele><time>2026-04-12T08:26:50Z</time></trkpt><trkpt lat="44.67183367700343" lon="12.177639881387657"><ele>-2.0</ele><time>2026-04-12T08:26:52Z</time></trkpt><trkpt lat="44.67176818634405" lon="12.177566747358119"><ele>-2.0</ele><time>2026-04-12T08:26:55Z</time></trkpt><trkpt lat="44.67170697621637" lon="12.177523895342132"><ele>-1.857142857142857</ele><time>2026-04-12T08:26:57Z</time></trkpt><trkpt lat="44.671645666912575" lon="12.177474849405144"><ele>-1.714285714285714</ele><time>2026-04-12T08:26:59Z</time></trkpt><trkpt lat="44.67157668403906" lon="12.177398177687591"><ele>-1.5714285714285714</ele><time>2026-04-12T08:27:02Z</time></trkpt><trkpt lat="44.67152268529557" lon="12.177349932154899"><ele>-1.4285714285714284</ele><time>2026-04-12T08:27:04Z</time></trkpt><trkpt lat="44.67146575826153" lon="12.177302650201197"><ele>-1.2857142857142856</ele><time>2026-04-12T08:27:06Z</time></trkpt><trkpt lat="44.67141000114722" lon="12.177247832240628"><ele>-1.1428571428571428</ele><time>2026-04-12T08:27:08Z</time></trkpt><trkpt lat="44.671350263977295" lon="12.177194908120041"><ele>-1.0</ele><time>2026-04-12T08:27:10Z</time></trkpt><trkpt lat="44.67129069883258" lon="12.177141809714897"><ele>-1.0</ele><time>2026-04-12T08:27:12Z</time></trkpt><trkpt lat="44.671230972016815" lon="12.177087918639488"><ele>-0.9999999999999999</ele><time>2026-04-12T08:27:14Z</time></trkpt><trkpt lat="44.67117076542023" lon="12.177033390568742"><ele>-1.0</ele><time>2026-04-12T08:27:16Z</time></trkpt><trkpt lat="44.67111151501441" lon="12.176974921164462"><ele>-1.0</ele><time>2026-04-12T08:27:18Z</time></trkpt><trkpt lat="44.67104917895307" lon="12.176920317131135"><ele>-0.9999999999999999</ele><time>2026-04-12T08:27:20Z</time></trkpt><trkpt lat="44.67099167817191" lon="12.176870101473545"><ele>-1.0</ele><time>2026-04-12T08:27:22Z</time></trkpt><trkpt lat="44.670932998912235" lon="12.176820331956597"><ele>-1.0</ele><time>2026-04-12T08:27:24Z</time></trkpt><trkpt lat="44.67085808644685" lon="12.176727983717386"><ele>-1.0</ele><time>2026-04-12T08:27:27Z</time></trkpt><trkpt lat="44.67078759908261" lon="12.176668585569221"><ele>-0.9999999999999999</ele><time>2026-04-12T08:27:29Z</time></trkpt><trkpt lat="44.67070828942509" lon="12.176620130970264"><ele>-1.0</ele><time>2026-04-12T08:27:32Z</time></trkpt><trkpt lat="44.6706484722971" lon="12.176582473968962"><ele>-1.0</ele><time>2026-04-12T08:27:34Z</time></trkpt><trkpt lat="44.67058431962502" lon="12.176549221455922"><ele>-0.9999999999999999</ele><time>2026-04-12T08:27:36Z</time></trkpt><trkpt lat="44.67052336489454" lon="12.17652482060423"><ele>-1.0</ele><time>2026-04-12T08:27:38Z</time></trkpt><trkpt lat="44.670462585281804" lon="12.176496887913459"><ele>-1.0</ele><time>2026-04-12T08:27:40Z</time></trkpt><trkpt lat="44.67037500325814" lon="12.176486725851271"><ele>-1.0</ele><time>2026-04-12T08:27:43Z</time></trkpt><trkpt lat="44.670309616428575" lon="12.176472189380089"><ele>-0.9999999999999999</ele><time>2026-04-12T08:27:45Z</time></trkpt><trkpt lat="44.67024459931967" lon="12.17647314921674"><ele>-1.0</ele><time>2026-04-12T08:27:47Z</time></trkpt><trkpt lat="44.67017654286062" lon="12.176474214044905"><ele>-1.0</ele><time>2026-04-12T08:27:49Z</time></trkpt><trkpt lat="44.67010644821174" lon="12.176482938572644"><ele>-0.9999999999999999</ele><time>2026-04-12T08:27:51Z</time></trkpt><trkpt lat="44.67004186431396" lon="12.176499888896638"><ele>-1.0</ele><time>2026-04-12T08:27:53Z</time></trkpt><trkpt lat="44.669975302673045" lon="12.176515931857729"><ele>-1.0</ele><time>2026-04-12T08:27:55Z</time></trkpt><trkpt lat="44.66990263993753" lon="12.176531048594246"><ele>-0.9999999999999999</ele><time>2026-04-12T08:27:57Z</time></trkpt><trkpt lat="44.66982964287206" lon="12.17654738798671"><ele>-1.0</ele><time>2026-04-12T08:27:59Z</time></trkpt><trkpt lat="44.6697562863118" lon="12.176569087835736"><ele>-1.0</ele><time>2026-04-12T08:28:01Z</time></trkpt><trkpt lat="44.66968179204082" lon="12.176581551760153"><ele>-1.0</ele><time>2026-04-12T08:28:03Z</time></trkpt><trkpt lat="44.66960443339036" lon="12.176597435977264"><ele>-0.9999999999999999</ele><time>2026-04-12T08:28:05Z</time></trkpt><trkpt lat="44.66952485670098" lon="12.176623476177259"><ele>-1.0</ele><time>2026-04-12T08:28:07Z</time></trkpt><trkpt lat="44.66945473345509" lon="12.176636900804365"><ele>-1.1428571428571428</ele><time>2026-04-12T08:28:09Z</time></trkpt><trkpt lat="44.66938571091292" lon="12.176660634248229"><ele>-1.2857142857142856</ele><time>2026-04-12T08:28:11Z</time></trkpt><trkpt lat="44.669310970223485" lon="12.176674763612862"><ele>-1.4285714285714284</ele><time>2026-04-12T08:28:13Z</time></trkpt><trkpt lat="44.66924460544938" lon="12.176687517640541"><ele>-1.5714285714285714</ele><time>2026-04-12T08:28:15Z</time></trkpt><trkpt lat="44.669170504406104" lon="12.176708823585487"><ele>-1.714285714285714</ele><time>2026-04-12T08:28:17Z</time></trkpt><trkpt lat="44.669095235745424" lon="12.176726364306962"><ele>-1.857142857142857</ele><time>2026-04-12T08:28:19Z</time></trkpt><trkpt lat="44.669019497542564" lon="12.17675470637769"><ele>-2.0</ele><time>2026-04-12T08:28:21Z</time></trkpt><trkpt lat="44.66893252193191" lon="12.17676658644448"><ele>-1.9999999999999998</ele><time>2026-04-12T08:28:23Z</time></trkpt><trkpt lat="44.66885175080765" lon="12.17678721495838"><ele>-2.0</ele><time>2026-04-12T08:28:25Z</time></trkpt><trkpt lat="44.668759458207475" lon="12.176800624001645"><ele>-2.0</ele><time>2026-04-12T08:28:27Z</time></trkpt><trkpt lat="44.668682815006235" lon="12.17682532521851"><ele>-2.0</ele><time>2026-04-12T08:28:29Z</time></trkpt><trkpt lat="44.66859726636651" lon="12.176840798562951"><ele>-1.9999999999999998</ele><time>2026-04-12T08:28:31Z</time></trkpt><trkpt lat="44.66851649775052" lon="12.176857445305039"><ele>-2.0</ele><time>2026-04-12T08:28:33Z</time></trkpt><trkpt lat="44.66843520857151" lon="12.176879058986614"><ele>-2.1666666666666665</ele><time>2026-04-12T08:28:35Z</time></trkpt><trkpt lat="44.66835213606108" lon="12.17689833352885"><ele>-2.333333333333333</ele><time>2026-04-12T08:28:37Z</time></trkpt><trkpt lat="44.66826617634149" lon="12.176922119705107"><ele>-2.5</ele><time>2026-04-12T08:28:39Z</time></trkpt><trkpt lat="44.66818157884704" lon="12.176940507861943"><ele>-2.6666666666666665</ele><time>2026-04-12T08:28:41Z</time></trkpt><trkpt lat="44.668096917505906" lon="12.176961861419295"><ele>-2.8333333333333335</ele><time>2026-04-12T08:28:43Z</time></trkpt><trkpt lat="44.668013807390736" lon="12.1769809476019"><ele>-3.0</ele><time>2026-04-12T08:28:45Z</time></trkpt><trkpt lat="44.667930619919204" lon="12.176999132923303"><ele>-3.0</ele><time>2026-04-12T08:28:47Z</time></trkpt><trkpt lat="44.66785025450906" lon="12.177013750381912"><ele>-3.0</ele><time>2026-04-12T08:28:49Z</time></trkpt><trkpt lat="44.667776935042575" lon="12.177033133206718"><ele>-3.0</ele><time>2026-04-12T08:28:51Z</time></trkpt><trkpt lat="44.66770239413625" lon="12.177053198009979"><ele>-3.0</ele><time>2026-04-12T08:28:53Z</time></trkpt><trkpt lat="44.66760339351661" lon="12.177077993922822"><ele>-3.0</ele><time>2026-04-12T08:28:56Z</time></trkpt><trkpt lat="44.66752966329696" lon="12.177097926813262"><ele>-3.0</ele><time>2026-04-12T08:28:58Z</time></trkpt><trkpt lat="44.667457192965216" lon="12.1771121057501"><ele>-2.8333333333333335</ele><time>2026-04-12T08:29:00Z</time></trkpt><trkpt lat="44.66738877575268" lon="12.1771398286758"><ele>-2.6666666666666665</ele><time>2026-04-12T08:29:02Z</time></trkpt><trkpt lat="44.667308819970614" lon="12.17715394004547"><ele>-2.5</ele><time>2026-04-12T08:29:04Z</time></trkpt><trkpt lat="44.667229781659515" lon="12.177175858762949"><ele>-2.333333333333333</ele><time>2026-04-12T08:29:06Z</time></trkpt><trkpt lat="44.66714794397357" lon="12.177192971706965"><ele>-2.1666666666666665</ele><time>2026-04-12T08:29:08Z</time></trkpt><trkpt lat="44.66706708628018" lon="12.177213328692728"><ele>-2.0</ele><time>2026-04-12T08:29:10Z</time></trkpt><trkpt lat="44.6669877684234" lon="12.177223406314923"><ele>-2.1666666666666665</ele><time>2026-04-12T08:29:12Z</time></trkpt><trkpt lat="44.66691162567969" lon="12.177246607872279"><ele>-2.333333333333333</ele><time>2026-04-12T08:29:14Z</time></trkpt><trkpt lat="44.666835012251" lon="12.177270752080961"><ele>-2.5</ele><time>2026-04-12T08:29:16Z</time></trkpt><trkpt lat="44.66675839925905" lon="12.177294509971844"><ele>-2.6666666666666665</ele><time>2026-04-12T08:29:18Z</time></trkpt><trkpt lat="44.66667902270571" lon="12.177323420707397"><ele>-2.8333333333333335</ele><time>2026-04-12T08:29:20Z</time></trkpt><trkpt lat="44.66660177549696" lon="12.177353933730586"><ele>-3.0</ele><time>2026-04-12T08:29:22Z</time></trkpt><trkpt lat="44.66652676210407" lon="12.17739100220015"><ele>-3.0</ele><time>2026-04-12T08:29:24Z</time></trkpt><trkpt lat="44.66645923193877" lon="12.177435032733378"><ele>-3.0</ele><time>2026-04-12T08:29:26Z</time></trkpt><trkpt lat="44.666382711846204" lon="12.177481837613158"><ele>-3.0</ele><time>2026-04-12T08:29:28Z</time></trkpt><trkpt lat="44.66631262925165" lon="12.177539376135517"><ele>-3.0</ele><time>2026-04-12T08:29:30Z</time></trkpt><trkpt lat="44.66624763339924" lon="12.177593355785376"><ele>-3.0</ele><time>2026-04-12T08:29:32Z</time></trkpt><trkpt lat="44.666174829850675" lon="12.177649314229837"><ele>-3.0</ele><time>2026-04-12T08:29:34Z</time></trkpt><trkpt lat="44.66610279875203" lon="12.177701303161864"><ele>-2.8</ele><time>2026-04-12T08:29:36Z</time></trkpt><trkpt lat="44.666016735173415" lon="12.177771645643405"><ele>-2.5999999999999996</ele><time>2026-04-12T08:29:38Z</time></trkpt><trkpt lat="44.665918058901326" lon="12.177848015337794"><ele>-2.4000000000000004</ele><time>2026-04-12T08:29:40Z</time></trkpt><trkpt lat="44.665825961451254" lon="12.177919724450282"><ele>-2.2</ele><time>2026-04-12T08:29:42Z</time></trkpt><trkpt lat="44.665732383424384" lon="12.177994766280452"><ele>-2.0</ele><time>2026-04-12T08:29:44Z</time></trkpt><trkpt lat="44.66564231435168" lon="12.178068047637685"><ele>-2.0</ele><time>2026-04-12T08:29:46Z</time></trkpt><trkpt lat="44.66554562797699" lon="12.178131014705485"><ele>-2.0</ele><time>2026-04-12T08:29:48Z</time></trkpt><trkpt lat="44.665463666995926" lon="12.178216468656228"><ele>-2.0</ele><time>2026-04-12T08:29:50Z</time></trkpt><trkpt lat="44.66537717035748" lon="12.178279020713383"><ele>-2.0</ele><time>2026-04-12T08:29:52Z</time></trkpt><trkpt lat="44.66529504790386" lon="12.178341565867196"><ele>-2.0</ele><time>2026-04-12T08:29:54Z</time></trkpt><trkpt lat="44.66520589916567" lon="12.178408155796838"><ele>-1.8</ele><time>2026-04-12T08:29:56Z</time></trkpt><trkpt lat="44.665116385622355" lon="12.17847844763886"><ele>-1.6</ele><time>2026-04-12T08:29:58Z</time></trkpt><trkpt lat="44.66502261295137" lon="12.178544225196703"><ele>-1.4000000000000001</ele><time>2026-04-12T08:30:00Z</time></trkpt><trkpt lat="44.664965076321735" lon="12.178587257352058"><ele>-1.2000000000000002</ele><time>2026-04-12T08:30:01Z</time></trkpt><trkpt lat="44.664877041347275" lon="12.17866432258845"><ele>-1.0</ele><time>2026-04-12T08:30:03Z</time></trkpt><trkpt lat="44.66479565648809" lon="12.178738732480575"><ele>-0.9999999999999999</ele><time>2026-04-12T08:30:05Z</time></trkpt><trkpt lat="44.664709327775505" lon="12.178813458838961"><ele>-1.0</ele><time>2026-04-12T08:30:07Z</time></trkpt><trkpt lat="44.66462625961369" lon="12.178871499398948"><ele>-1.0</ele><time>2026-04-12T08:30:09Z</time></trkpt><trkpt lat="44.664560038773935" lon="12.178931043561056"><ele>-1.0</ele><time>2026-04-12T08:30:11Z</time></trkpt><trkpt lat="44.664490662836705" lon="12.17899254563726"><ele>-0.9999999999999999</ele><time>2026-04-12T08:30:13Z</time></trkpt><trkpt lat="44.66443004005078" lon="12.1790590470921"><ele>-1.0</ele><time>2026-04-12T08:30:15Z</time></trkpt><trkpt lat="44.66437368631171" lon="12.179125196310189"><ele>-1.1666666666666665</ele><time>2026-04-12T08:30:17Z</time></trkpt><trkpt lat="44.66432938616443" lon="12.1791926088153"><ele>-1.3333333333333333</ele><time>2026-04-12T08:30:19Z</time></trkpt><trkpt lat="44.664270987360936" lon="12.179297182143173"><ele>-1.5</ele><time>2026-04-12T08:30:22Z</time></trkpt><trkpt lat="44.664216131974705" lon="12.179377684598625"><ele>-1.6666666666666665</ele><time>2026-04-12T08:30:25Z</time></trkpt><trkpt lat="44.66416973620193" lon="12.179481068290638"><ele>-1.8333333333333333</ele><time>2026-04-12T08:30:29Z</time></trkpt><trkpt lat="44.66413264155662" lon="12.179564952102018"><ele>-2.0</ele><time>2026-04-12T08:30:32Z</time></trkpt><trkpt lat="44.66408816376214" lon="12.179666200608374"><ele>-1.9999999999999998</ele><time>2026-04-12T08:30:35Z</time></trkpt><trkpt lat="44.66404372418851" lon="12.179758507093553"><ele>-2.0</ele><time>2026-04-12T08:30:38Z</time></trkpt><trkpt lat="44.66400993905836" lon="12.179868806439416"><ele>-2.0</ele><time>2026-04-12T08:30:41Z</time></trkpt><trkpt lat="44.66398133442612" lon="12.179973486689006"><ele>-2.0</ele><time>2026-04-12T08:30:44Z</time></trkpt><trkpt lat="44.663946201244705" lon="12.180096723149106"><ele>-1.9999999999999998</ele><time>2026-04-12T08:30:47Z</time></trkpt><trkpt lat="44.663917006174266" lon="12.180217953713983"><ele>-2.0</ele><time>2026-04-12T08:30:50Z</time></trkpt><trkpt lat="44.663884719631234" lon="12.180339276869303"><ele>-1.9999999999999998</ele><time>2026-04-12T08:30:53Z</time></trkpt><trkpt lat="44.6638623810176" lon="12.180423006684272"><ele>-2.0</ele><time>2026-04-12T08:30:55Z</time></trkpt><trkpt lat="44.66382822753716" lon="12.180546119830627"><ele>-2.0</ele><time>2026-04-12T08:30:58Z</time></trkpt><trkpt lat="44.66379231305698" lon="12.180661648430709"><ele>-2.0</ele><time>2026-04-12T08:31:01Z</time></trkpt><trkpt lat="44.663758447799516" lon="12.180772527190774"><ele>-1.9999999999999998</ele><time>2026-04-12T08:31:04Z</time></trkpt><trkpt lat="44.66373321106522" lon="12.180877783914536"><ele>-2.0</ele><time>2026-04-12T08:31:07Z</time></trkpt><trkpt lat="44.66369903250064" lon="12.180996090889874"><ele>-1.9999999999999998</ele><time>2026-04-12T08:31:10Z</time></trkpt><trkpt lat="44.66366839990185" lon="12.18110960901462"><ele>-2.0</ele><time>2026-04-12T08:31:13Z</time></trkpt><trkpt lat="44.663634611611386" lon="12.181227456061785"><ele>-2.0</ele><time>2026-04-12T08:31:16Z</time></trkpt><trkpt lat="44.66360594695412" lon="12.18134490905557"><ele>-2.0</ele><time>2026-04-12T08:31:19Z</time></trkpt><trkpt lat="44.66358247838603" lon="12.181428237237935"><ele>-1.9999999999999998</ele><time>2026-04-12T08:31:21Z</time></trkpt><trkpt lat="44.66355977159777" lon="12.181519567445598"><ele>-2.0</ele><time>2026-04-12T08:31:23Z</time></trkpt><trkpt lat="44.663541690095805" lon="12.18163800655102"><ele>-2.1666666666666665</ele><time>2026-04-12T08:31:26Z</time></trkpt><trkpt lat="44.663497134096254" lon="12.181752793504502"><ele>-2.333333333333333</ele><time>2026-04-12T08:31:29Z</time></trkpt><trkpt lat="44.66348026828667" lon="12.18184079819901"><ele>-2.5</ele><time>2026-04-12T08:31:31Z</time></trkpt><trkpt lat="44.663441169031714" lon="12.181958894532562"><ele>-2.6666666666666665</ele><time>2026-04-12T08:31:34Z</time></trkpt><trkpt lat="44.663417940493396" lon="12.182045361441125"><ele>-2.8333333333333335</ele><time>2026-04-12T08:31:36Z</time></trkpt><trkpt lat="44.663394833817286" lon="12.182131429273227"><ele>-3.0</ele><time>2026-04-12T08:31:38Z</time></trkpt><trkpt lat="44.663362803719274" lon="12.182249054353864"><ele>-2.9999999999999996</ele><time>2026-04-12T08:31:41Z</time></trkpt><trkpt lat="44.663340948948424" lon="12.182342248937465"><ele>-3.0</ele><time>2026-04-12T08:31:43Z</time></trkpt><trkpt lat="44.66331167923934" lon="12.182432254692923"><ele>-3.0</ele><time>2026-04-12T08:31:45Z</time></trkpt><trkpt lat="44.66328556630958" lon="12.182523765272753"><ele>-3.0</ele><time>2026-04-12T08:31:47Z</time></trkpt><trkpt lat="44.663256143020924" lon="12.182615625725214"><ele>-3.0</ele><time>2026-04-12T08:31:49Z</time></trkpt><trkpt lat="44.663228466692175" lon="12.182708443887991"><ele>-2.9999999999999996</ele><time>2026-04-12T08:31:51Z</time></trkpt><trkpt lat="44.66319943495511" lon="12.182795105573389"><ele>-3.0</ele><time>2026-04-12T08:31:53Z</time></trkpt><trkpt lat="44.663165955336844" lon="12.182877213091965"><ele>-2.8571428571428568</ele><time>2026-04-12T08:31:55Z</time></trkpt><trkpt lat="44.663148367137474" lon="12.182963983787825"><ele>-2.7142857142857144</ele><time>2026-04-12T08:31:57Z</time></trkpt><trkpt lat="44.663127751986515" lon="12.183053490424056"><ele>-2.571428571428571</ele><time>2026-04-12T08:31:59Z</time></trkpt><trkpt lat="44.66310325810291" lon="12.183149054503627"><ele>-2.4285714285714284</ele><time>2026-04-12T08:32:01Z</time></trkpt><trkpt lat="44.66307575743129" lon="12.183240248230446"><ele>-2.2857142857142856</ele><time>2026-04-12T08:32:03Z</time></trkpt><trkpt lat="44.663042050397706" lon="12.183332045228676"><ele>-2.142857142857143</ele><time>2026-04-12T08:32:05Z</time></trkpt><trkpt lat="44.66301854440559" lon="12.183419728866447"><ele>-2.0</ele><time>2026-04-12T08:32:07Z</time></trkpt><trkpt lat="44.66299153019562" lon="12.183502710694798"><ele>-1.8333333333333333</ele><time>2026-04-12T08:32:09Z</time></trkpt><trkpt lat="44.662970074727454" lon="12.183590692614638"><ele>-1.6666666666666665</ele><time>2026-04-12T08:32:11Z</time></trkpt><trkpt lat="44.66293903348004" lon="12.183696983439333"><ele>-1.5</ele><time>2026-04-12T08:32:14Z</time></trkpt><trkpt lat="44.66290939493915" lon="12.183805351144523"><ele>-1.3333333333333333</ele><time>2026-04-12T08:32:17Z</time></trkpt><trkpt lat="44.662878588781304" lon="12.183923016878039"><ele>-1.1666666666666665</ele><time>2026-04-12T08:32:20Z</time></trkpt><trkpt lat="44.66285925885455" lon="12.184007866133316"><ele>-1.0</ele><time>2026-04-12T08:32:22Z</time></trkpt><trkpt lat="44.66282989730862" lon="12.184098229437053"><ele>-1.0</ele><time>2026-04-12T08:32:24Z</time></trkpt><trkpt lat="44.66280680215116" lon="12.184192855589146"><ele>-0.9999999999999999</ele><time>2026-04-12T08:32:26Z</time></trkpt><trkpt lat="44.66278209820897" lon="12.184284550179953"><ele>-1.0</ele><time>2026-04-12T08:32:28Z</time></trkpt><trkpt lat="44.662754056041" lon="12.184382790279159"><ele>-1.0</ele><time>2026-04-12T08:32:30Z</time></trkpt><trkpt lat="44.66272557398706" lon="12.184482543564044"><ele>-0.9999999999999999</ele><time>2026-04-12T08:32:32Z</time></trkpt><trkpt lat="44.662698065445454" lon="12.184574705044929"><ele>-1.0</ele><time>2026-04-12T08:32:34Z</time></trkpt><trkpt lat="44.66267992273225" lon="12.18466190549628"><ele>-1.0</ele><time>2026-04-12T08:32:36Z</time></trkpt><trkpt lat="44.66264059604737" lon="12.184745749239063"><ele>-0.9999999999999999</ele><time>2026-04-12T08:32:38Z</time></trkpt><trkpt lat="44.662604658140445" lon="12.184839500019544"><ele>-1.0</ele><time>2026-04-12T08:32:40Z</time></trkpt><trkpt lat="44.662556360959464" lon="12.184924098564814"><ele>-1.0</ele><time>2026-04-12T08:32:42Z</time></trkpt><trkpt lat="44.662500626445095" lon="12.185002605446925"><ele>-1.0</ele><time>2026-04-12T08:32:44Z</time></trkpt><trkpt lat="44.662436437176126" lon="12.185068151706083"><ele>-0.9999999999999999</ele><time>2026-04-12T08:32:46Z</time></trkpt><trkpt lat="44.6623732438018" lon="12.18512643289455"><ele>-1.0</ele><time>2026-04-12T08:32:48Z</time></trkpt><trkpt lat="44.66231273025315" lon="12.185181730177085"><ele>-1.0</ele><time>2026-04-12T08:32:50Z</time></trkpt><trkpt lat="44.66225562316053" lon="12.185235944346138"><ele>-0.9999999999999999</ele><time>2026-04-12T08:32:52Z</time></trkpt><trkpt lat="44.66218318767171" lon="12.18522624196201"><ele>-1.0</ele><time>2026-04-12T08:32:54Z</time></trkpt><trkpt lat="44.662125352228486" lon="12.1851763945153"><ele>-1.0</ele><time>2026-04-12T08:32:56Z</time></trkpt><trkpt lat="44.6620691222499" lon="12.185116298971046"><ele>-0.9999999999999999</ele><time>2026-04-12T08:32:58Z</time></trkpt><trkpt lat="44.66203497335539" lon="12.185027779929575"><ele>-1.0</ele><time>2026-04-12T08:32:59.999Z</time></trkpt><trkpt lat="44.66200285430412" lon="12.184939009567419"><ele>-1.0</ele><time>2026-04-12T08:33:01.999Z</time></trkpt><trkpt lat="44.66197236614486" lon="12.184856257604121"><ele>-1.1428571428571428</ele><time>2026-04-12T08:33:03.999Z</time></trkpt><trkpt lat="44.661937925050886" lon="12.184755047114962"><ele>-1.2857142857142856</ele><time>2026-04-12T08:33:06Z</time></trkpt><trkpt lat="44.66191007335704" lon="12.184670296248989"><ele>-1.4285714285714284</ele><time>2026-04-12T08:33:08Z</time></trkpt><trkpt lat="44.66188138010006" lon="12.184585560999297"><ele>-1.5714285714285714</ele><time>2026-04-12T08:33:10Z</time></trkpt><trkpt lat="44.66184682241707" lon="12.184470099900818"><ele>-1.714285714285714</ele><time>2026-04-12T08:33:13Z</time></trkpt><trkpt lat="44.661816090853385" lon="12.184386018516362"><ele>-1.857142857142857</ele><time>2026-04-12T08:33:16Z</time></trkpt><trkpt lat="44.66177822984284" lon="12.184306371843986"><ele>-2.0</ele><time>2026-04-12T08:33:19Z</time></trkpt><trkpt lat="44.66171883156703" lon="12.184343156145546"><ele>-1.9999999999999998</ele><time>2026-04-12T08:33:21Z</time></trkpt><trkpt lat="44.66164415663447" lon="12.184393694368081"><ele>-2.0</ele><time>2026-04-12T08:33:24Z</time></trkpt><trkpt lat="44.66157496975447" lon="12.184437864760492"><ele>-2.0</ele><time>2026-04-12T08:33:27Z</time></trkpt><trkpt lat="44.661499218904325" lon="12.184482776681419"><ele>-2.0</ele><time>2026-04-12T08:33:30Z</time></trkpt><trkpt lat="44.66142655054536" lon="12.184513834562525"><ele>-1.9999999999999998</ele><time>2026-04-12T08:33:33Z</time></trkpt><trkpt lat="44.66135275713069" lon="12.184563220135358"><ele>-2.0</ele><time>2026-04-12T08:33:36Z</time></trkpt><trkpt lat="44.66128536715529" lon="12.184601060690934"><ele>-2.0</ele><time>2026-04-12T08:33:41Z</time></trkpt><trkpt lat="44.661221057812035" lon="12.184570300694382"><ele>-1.9999999999999998</ele><time>2026-04-12T08:33:48Z</time></trkpt><trkpt lat="44.661238796568604" lon="12.184483580996893"><ele>-2.0</ele><time>2026-04-12T08:33:53Z</time></trkpt><trkpt lat="44.66120604787329" lon="12.184400181473917"><ele>-2.0</ele><time>2026-04-12T08:33:57Z</time></trkpt><trkpt lat="44.661164405118406" lon="12.184322997057485"><ele>-1.9999999999999998</ele><time>2026-04-12T08:34:00Z</time></trkpt><trkpt lat="44.66113348903044" lon="12.184239460133853"><ele>-2.0</ele><time>2026-04-12T08:34:03Z</time></trkpt><trkpt lat="44.661107312190474" lon="12.184148240605552"><ele>-2.0</ele><time>2026-04-12T08:34:06Z</time></trkpt><trkpt lat="44.66107982306487" lon="12.184047420290337"><ele>-1.9999999999999998</ele><time>2026-04-12T08:34:09Z</time></trkpt><trkpt lat="44.66105561373862" lon="12.1839657187783"><ele>-2.0</ele><time>2026-04-12T08:34:12Z</time></trkpt><trkpt lat="44.661028708644785" lon="12.18386798002388"><ele>-2.0</ele><time>2026-04-12T08:34:15Z</time></trkpt><trkpt lat="44.660992897691266" lon="12.183775723405006"><ele>-2.0</ele><time>2026-04-12T08:34:18Z</time></trkpt><trkpt lat="44.66095822191127" lon="12.183668750513254"><ele>-1.9999999999999998</ele><time>2026-04-12T08:34:21Z</time></trkpt><trkpt lat="44.66092011972249" lon="12.18355673555062"><ele>-2.0</ele><time>2026-04-12T08:34:24Z</time></trkpt><trkpt lat="44.660883638911514" lon="12.183437300163469"><ele>-1.9999999999999998</ele><time>2026-04-12T08:34:27Z</time></trkpt><trkpt lat="44.66085071039388" lon="12.183353470756645"><ele>-2.0</ele><time>2026-04-12T08:34:30Z</time></trkpt><trkpt lat="44.660816756049165" lon="12.18325497079724"><ele>-2.0</ele><time>2026-04-12T08:34:35Z</time></trkpt><trkpt lat="44.66078506743158" lon="12.183157834590544"><ele>-2.0</ele><time>2026-04-12T08:34:38Z</time></trkpt><trkpt lat="44.66075483603947" lon="12.183035385726876"><ele>-1.9999999999999998</ele><time>2026-04-12T08:34:41Z</time></trkpt><trkpt lat="44.660719015797646" lon="12.182928425553678"><ele>-2.0</ele><time>2026-04-12T08:34:44Z</time></trkpt><trkpt lat="44.6606889363659" lon="12.182828069208382"><ele>-1.8333333333333333</ele><time>2026-04-12T08:34:47Z</time></trkpt><trkpt lat="44.660660400151095" lon="12.182738056295689"><ele>-1.6666666666666665</ele><time>2026-04-12T08:34:50Z</time></trkpt><trkpt lat="44.66063319991998" lon="12.18264890562887"><ele>-1.5</ele><time>2026-04-12T08:34:53Z</time></trkpt><trkpt lat="44.66060291416332" lon="12.18255466982046"><ele>-1.3333333333333333</ele><time>2026-04-12T08:34:55.999Z</time></trkpt><trkpt lat="44.660569482443215" lon="12.18245490342703"><ele>-1.1666666666666665</ele><time>2026-04-12T08:34:58.999Z</time></trkpt><trkpt lat="44.66053809239994" lon="12.182348963788206"><ele>-1.0</ele><time>2026-04-12T08:35:01.999Z</time></trkpt><trkpt lat="44.66050525907074" lon="12.182246679938201"><ele>-0.9999999999999999</ele><time>2026-04-12T08:35:04.999Z</time></trkpt><trkpt lat="44.66046771692207" lon="12.182140816705989"><ele>-1.0</ele><time>2026-04-12T08:35:07.999Z</time></trkpt><trkpt lat="44.66043376087604" lon="12.182030350111928"><ele>-1.0</ele><time>2026-04-12T08:35:11Z</time></trkpt><trkpt lat="44.66039736906509" lon="12.181917020072307"><ele>-1.0</ele><time>2026-04-12T08:35:14Z</time></trkpt><trkpt lat="44.660364398245626" lon="12.181815728346013"><ele>-0.9999999999999999</ele><time>2026-04-12T08:35:17Z</time></trkpt><trkpt lat="44.66033346286109" lon="12.181715794534986"><ele>-1.0</ele><time>2026-04-12T08:35:20Z</time></trkpt><trkpt lat="44.660299627305925" lon="12.181599769638938"><ele>-1.3333333333333333</ele><time>2026-04-12T08:35:23Z</time></trkpt><trkpt lat="44.660261736175386" lon="12.181496670881394"><ele>-1.6666666666666665</ele><time>2026-04-12T08:35:26Z</time></trkpt><trkpt lat="44.66022878038048" lon="12.181382035561784"><ele>-2.0</ele><time>2026-04-12T08:35:29Z</time></trkpt><trkpt lat="44.660191613783454" lon="12.181269387043193"><ele>-2.3333333333333335</ele><time>2026-04-12T08:35:32Z</time></trkpt><trkpt lat="44.660154214231724" lon="12.18115176927501"><ele>-2.6666666666666665</ele><time>2026-04-12T08:35:35Z</time></trkpt><trkpt lat="44.66011581699715" lon="12.181034157200948"><ele>-3.0</ele><time>2026-04-12T08:35:38Z</time></trkpt><trkpt lat="44.66008983132021" lon="12.180949598570708"><ele>-2.9999999999999996</ele><time>2026-04-12T08:35:40Z</time></trkpt><trkpt lat="44.660063403321445" lon="12.180864379910314"><ele>-3.0</ele><time>2026-04-12T08:35:42Z</time></trkpt><trkpt lat="44.66003729154453" lon="12.18077594463807"><ele>-3.0</ele><time>2026-04-12T08:35:44Z</time></trkpt><trkpt lat="44.660010775391044" lon="12.180694701635908"><ele>-3.0</ele><time>2026-04-12T08:35:46Z</time></trkpt><trkpt lat="44.659982996685386" lon="12.18061313384744"><ele>-3.0</ele><time>2026-04-12T08:35:48Z</time></trkpt><trkpt lat="44.659955503051336" lon="12.180522213461153"><ele>-2.9999999999999996</ele><time>2026-04-12T08:35:50Z</time></trkpt><trkpt lat="44.65992300335165" lon="12.180433479760065"><ele>-3.0</ele><time>2026-04-12T08:35:52Z</time></trkpt><trkpt lat="44.659887078055085" lon="12.180304288172842"><ele>-2.571428571428571</ele><time>2026-04-12T08:35:55Z</time></trkpt><trkpt lat="44.65984839582457" lon="12.180212912439583"><ele>-2.142857142857143</ele><time>2026-04-12T08:35:57Z</time></trkpt><trkpt lat="44.659821003202545" lon="12.180119824396723"><ele>-1.7142857142857142</ele><time>2026-04-12T08:35:59Z</time></trkpt><trkpt lat="44.65979246474265" lon="12.180027226559355"><ele>-1.2857142857142856</ele><time>2026-04-12T08:36:01Z</time></trkpt><trkpt lat="44.659763383908924" lon="12.179937547302368"><ele>-0.8571428571428571</ele><time>2026-04-12T08:36:03Z</time></trkpt><trkpt lat="44.65973056488955" lon="12.179849628576623"><ele>-0.42857142857142855</ele><time>2026-04-12T08:36:05Z</time></trkpt><trkpt lat="44.65970266813545" lon="12.17975844873219"><ele>0.0</ele><time>2026-04-12T08:36:07Z</time></trkpt><trkpt lat="44.65967592928427" lon="12.179669015132859"><ele>0.14285714285714285</ele><time>2026-04-12T08:36:09Z</time></trkpt><trkpt lat="44.65964676747707" lon="12.179578674190001"><ele>0.2857142857142857</ele><time>2026-04-12T08:36:11Z</time></trkpt><trkpt lat="44.659618773177776" lon="12.179490942666055"><ele>0.42857142857142855</ele><time>2026-04-12T08:36:13Z</time></trkpt><trkpt lat="44.65959098003265" lon="12.17940604254138"><ele>0.5714285714285714</ele><time>2026-04-12T08:36:15Z</time></trkpt><trkpt lat="44.65956365485897" lon="12.179317673730736"><ele>0.7142857142857142</ele><time>2026-04-12T08:36:17Z</time></trkpt><trkpt lat="44.659535224369634" lon="12.179228125977433"><ele>0.8571428571428571</ele><time>2026-04-12T08:36:19Z</time></trkpt><trkpt lat="44.65950490337753" lon="12.179138226464357"><ele>1.0</ele><time>2026-04-12T08:36:21Z</time></trkpt><trkpt lat="44.659478756468566" lon="12.179055082512802"><ele>0.8333333333333333</ele><time>2026-04-12T08:36:23Z</time></trkpt><trkpt lat="44.659450265531454" lon="12.178966907404766"><ele>0.6666666666666666</ele><time>2026-04-12T08:36:25Z</time></trkpt><trkpt lat="44.65941538495033" lon="12.17886238475451"><ele>0.5</ele><time>2026-04-12T08:36:28Z</time></trkpt><trkpt lat="44.65939066996303" lon="12.17873511769403"><ele>0.3333333333333333</ele><time>2026-04-12T08:36:31Z</time></trkpt><trkpt lat="44.659360164982026" lon="12.178650641681829"><ele>0.16666666666666666</ele><time>2026-04-12T08:36:33Z</time></trkpt><trkpt lat="44.65932727071968" lon="12.178548184135636"><ele>0.0</ele><time>2026-04-12T08:36:36Z</time></trkpt><trkpt lat="44.65929331413129" lon="12.178464438608108"><ele>0.0</ele><time>2026-04-12T08:36:39Z</time></trkpt><trkpt lat="44.65926858169107" lon="12.178363904423065"><ele>0.0</ele><time>2026-04-12T08:36:42Z</time></trkpt><trkpt lat="44.65923525762288" lon="12.178253129232177"><ele>0.0</ele><time>2026-04-12T08:36:45Z</time></trkpt><trkpt lat="44.659199525869376" lon="12.178143502924668"><ele>0.0</ele><time>2026-04-12T08:36:48Z</time></trkpt><trkpt lat="44.659161734035905" lon="12.178029488699767"><ele>0.0</ele><time>2026-04-12T08:36:51Z</time></trkpt><trkpt lat="44.659135327730446" lon="12.177947994208349"><ele>0.0</ele><time>2026-04-12T08:36:53Z</time></trkpt><trkpt lat="44.65909557694069" lon="12.177829495578182"><ele>0.14285714285714285</ele><time>2026-04-12T08:36:55.999Z</time></trkpt><trkpt lat="44.659071403063635" lon="12.177746148675007"><ele>0.2857142857142857</ele><time>2026-04-12T08:36:57.999Z</time></trkpt><trkpt lat="44.65904448619277" lon="12.177665841529464"><ele>0.42857142857142855</ele><time>2026-04-12T08:36:59.999Z</time></trkpt><trkpt lat="44.65900624329634" lon="12.177540365222432"><ele>0.5714285714285714</ele><time>2026-04-12T08:37:02.999Z</time></trkpt><trkpt lat="44.658975985614944" lon="12.177456059788065"><ele>0.7142857142857142</ele><time>2026-04-12T08:37:04.999Z</time></trkpt><trkpt lat="44.65894325384823" lon="12.177342512339484"><ele>0.8571428571428571</ele><time>2026-04-12T08:37:07.999Z</time></trkpt><trkpt lat="44.658916646205945" lon="12.177259690696548"><ele>1.0</ele><time>2026-04-12T08:37:09.999Z</time></trkpt><trkpt lat="44.658899347130514" lon="12.177132217462244"><ele>1.2857142857142856</ele><time>2026-04-12T08:37:12.999Z</time></trkpt><trkpt lat="44.65885667689274" lon="12.17704445373846"><ele>1.5714285714285712</ele><time>2026-04-12T08:37:14.999Z</time></trkpt><trkpt lat="44.65882943620253" lon="12.176957622826412"><ele>1.857142857142857</ele><time>2026-04-12T08:37:17Z</time></trkpt><trkpt lat="44.65879721049518" lon="12.176870248194383"><ele>2.142857142857143</ele><time>2026-04-12T08:37:19Z</time></trkpt><trkpt lat="44.65876980588634" lon="12.176781493496849"><ele>2.4285714285714284</ele><time>2026-04-12T08:37:21Z</time></trkpt><trkpt lat="44.65873649264977" lon="12.176701113986168"><ele>2.714285714285714</ele><time>2026-04-12T08:37:23Z</time></trkpt><trkpt lat="44.65871779046172" lon="12.176616402669593"><ele>3.0</ele><time>2026-04-12T08:37:25Z</time></trkpt><trkpt lat="44.658685590545325" lon="12.176525350230163"><ele>2.571428571428571</ele><time>2026-04-12T08:37:27Z</time></trkpt><trkpt lat="44.65865693609075" lon="12.176435139812941"><ele>2.142857142857143</ele><time>2026-04-12T08:37:29Z</time></trkpt><trkpt lat="44.658626768595724" lon="12.176354332435457"><ele>1.7142857142857142</ele><time>2026-04-12T08:37:31Z</time></trkpt><trkpt lat="44.65859852285412" lon="12.17626394076181"><ele>1.2857142857142856</ele><time>2026-04-12T08:37:33Z</time></trkpt><trkpt lat="44.65856923158827" lon="12.176179261142101"><ele>0.8571428571428571</ele><time>2026-04-12T08:37:35Z</time></trkpt><trkpt lat="44.65853987267399" lon="12.176094445163296"><ele>0.42857142857142855</ele><time>2026-04-12T08:37:37Z</time></trkpt><trkpt lat="44.65850984838244" lon="12.176008746766655"><ele>0.0</ele><time>2026-04-12T08:37:39Z</time></trkpt><trkpt lat="44.65847011056846" lon="12.175925005904665"><ele>-0.14285714285714285</ele><time>2026-04-12T08:37:41Z</time></trkpt><trkpt lat="44.65844982661561" lon="12.175828378715034"><ele>-0.2857142857142857</ele><time>2026-04-12T08:37:43Z</time></trkpt><trkpt lat="44.65842142475638" lon="12.175738065428051"><ele>-0.42857142857142855</ele><time>2026-04-12T08:37:45Z</time></trkpt><trkpt lat="44.658397064033814" lon="12.175633387727174"><ele>-0.5714285714285714</ele><time>2026-04-12T08:37:47Z</time></trkpt><trkpt lat="44.65836478706948" lon="12.1755487648288"><ele>-0.7142857142857142</ele><time>2026-04-12T08:37:49Z</time></trkpt><trkpt lat="44.6583339108651" lon="12.175449642509172"><ele>-0.8571428571428571</ele><time>2026-04-12T08:37:51Z</time></trkpt><trkpt lat="44.658305067546586" lon="12.175359035908386"><ele>-1.0</ele><time>2026-04-12T08:37:53Z</time></trkpt><trkpt lat="44.65827083785309" lon="12.175271068425086"><ele>-1.0</ele><time>2026-04-12T08:37:55Z</time></trkpt><trkpt lat="44.6582538153666" lon="12.1751844216031"><ele>-0.9999999999999999</ele><time>2026-04-12T08:37:57Z</time></trkpt><trkpt lat="44.658225305410554" lon="12.175091870648206"><ele>-1.0</ele><time>2026-04-12T08:37:59Z</time></trkpt><trkpt lat="44.65819981228444" lon="12.174998784759955"><ele>-1.0</ele><time>2026-04-12T08:38:01Z</time></trkpt><trkpt lat="44.65816871260702" lon="12.174909716276764"><ele>-0.9999999999999999</ele><time>2026-04-12T08:38:03Z</time></trkpt><trkpt lat="44.65813996738575" lon="12.174811517034469"><ele>-1.0</ele><time>2026-04-12T08:38:05Z</time></trkpt><trkpt lat="44.65810777609702" lon="12.174725205290065"><ele>-1.0</ele><time>2026-04-12T08:38:07Z</time></trkpt><trkpt lat="44.658079808134666" lon="12.174626860123643"><ele>-0.8333333333333333</ele><time>2026-04-12T08:38:09Z</time></trkpt><trkpt lat="44.65804753441973" lon="12.17452841279161"><ele>-0.6666666666666666</ele><time>2026-04-12T08:38:11Z</time></trkpt><trkpt lat="44.65801393994268" lon="12.174424136113485"><ele>-0.5</ele><time>2026-04-12T08:38:13Z</time></trkpt><trkpt lat="44.65798250767219" lon="12.174321564506148"><ele>-0.3333333333333333</ele><time>2026-04-12T08:38:15Z</time></trkpt><trkpt lat="44.65795285563304" lon="12.174221482176597"><ele>-0.16666666666666666</ele><time>2026-04-12T08:38:17Z</time></trkpt><trkpt lat="44.657907346216064" lon="12.174088122775803"><ele>0.0</ele><time>2026-04-12T08:38:20Z</time></trkpt><trkpt lat="44.65787816443838" lon="12.17400052980128"><ele>0.0</ele><time>2026-04-12T08:38:22Z</time></trkpt><trkpt lat="44.65784889533568" lon="12.173909325393032"><ele>0.0</ele><time>2026-04-12T08:38:24Z</time></trkpt><trkpt lat="44.65781780400428" lon="12.173808691926565"><ele>0.0</ele><time>2026-04-12T08:38:26Z</time></trkpt><trkpt lat="44.657785565436065" lon="12.173714909525044"><ele>0.0</ele><time>2026-04-12T08:38:28Z</time></trkpt><trkpt lat="44.65775301235045" lon="12.17361756691537"><ele>0.0</ele><time>2026-04-12T08:38:30Z</time></trkpt><trkpt lat="44.65772007991648" lon="12.17352205709819"><ele>0.0</ele><time>2026-04-12T08:38:32Z</time></trkpt><trkpt lat="44.6576894524972" lon="12.173434191623645"><ele>0.0</ele><time>2026-04-12T08:38:34Z</time></trkpt><trkpt lat="44.65764745312145" lon="12.17331078006259"><ele>-0.2857142857142857</ele><time>2026-04-12T08:38:37Z</time></trkpt><trkpt lat="44.65761970393731" lon="12.173216878047588"><ele>-0.5714285714285714</ele><time>2026-04-12T08:38:39Z</time></trkpt><trkpt lat="44.657590743879325" lon="12.17312979930291"><ele>-0.8571428571428571</ele><time>2026-04-12T08:38:41Z</time></trkpt><trkpt lat="44.65756150704351" lon="12.173040320269317"><ele>-1.1428571428571428</ele><time>2026-04-12T08:38:43Z</time></trkpt><trkpt lat="44.65753120921034" lon="12.17295009648232"><ele>-1.4285714285714284</ele><time>2026-04-12T08:38:45Z</time></trkpt><trkpt lat="44.65750428630001" lon="12.172851541849887"><ele>-1.7142857142857142</ele><time>2026-04-12T08:38:47Z</time></trkpt><trkpt lat="44.657475476628534" lon="12.172758085941659"><ele>-2.0</ele><time>2026-04-12T08:38:48.999Z</time></trkpt><trkpt lat="44.65744116337042" lon="12.172673519808832"><ele>-2.0</ele><time>2026-04-12T08:38:50.999Z</time></trkpt><trkpt lat="44.657415795817236" lon="12.172571879190258"><ele>-1.9999999999999998</ele><time>2026-04-12T08:38:52.999Z</time></trkpt><trkpt lat="44.657386279995535" lon="12.172474321296416"><ele>-2.0</ele><time>2026-04-12T08:38:54.999Z</time></trkpt><trkpt lat="44.65735600791343" lon="12.172376284843338"><ele>-2.0</ele><time>2026-04-12T08:38:56.999Z</time></trkpt><trkpt lat="44.657327496550415" lon="12.172281347895975"><ele>-1.9999999999999998</ele><time>2026-04-12T08:38:58.999Z</time></trkpt><trkpt lat="44.65730101647809" lon="12.172191693501832"><ele>-2.0</ele><time>2026-04-12T08:39:00.999Z</time></trkpt><trkpt lat="44.657276014140166" lon="12.172108845741372"><ele>-2.0</ele><time>2026-04-12T08:39:02.999Z</time></trkpt><trkpt lat="44.65724971613289" lon="12.172026558283886"><ele>-1.7142857142857142</ele><time>2026-04-12T08:39:04.999Z</time></trkpt><trkpt lat="44.657217283352495" lon="12.171947485969042"><ele>-1.4285714285714284</ele><time>2026-04-12T08:39:06.999Z</time></trkpt><trkpt lat="44.65719077668479" lon="12.171852183646223"><ele>-1.1428571428571428</ele><time>2026-04-12T08:39:08.999Z</time></trkpt><trkpt lat="44.657160722763884" lon="12.17175855813663"><ele>-0.8571428571428571</ele><time>2026-04-12T08:39:10.999Z</time></trkpt><trkpt lat="44.65713041473678" lon="12.171661133263138"><ele>-0.5714285714285714</ele><time>2026-04-12T08:39:12.999Z</time></trkpt><trkpt lat="44.65710059864306" lon="12.17156165023516"><ele>-0.2857142857142857</ele><time>2026-04-12T08:39:14.999Z</time></trkpt><trkpt lat="44.6570705528669" lon="12.171466621200471"><ele>0.0</ele><time>2026-04-12T08:39:16.999Z</time></trkpt><trkpt lat="44.65704022037847" lon="12.171367843417096"><ele>0.0</ele><time>2026-04-12T08:39:18.999Z</time></trkpt><trkpt lat="44.657007098726986" lon="12.171268318270705"><ele>0.0</ele><time>2026-04-12T08:39:20.999Z</time></trkpt><trkpt lat="44.6569744357642" lon="12.171169690086558"><ele>0.0</ele><time>2026-04-12T08:39:23Z</time></trkpt><trkpt lat="44.65694211576685" lon="12.171075905240293"><ele>0.0</ele><time>2026-04-12T08:39:25Z</time></trkpt><trkpt lat="44.65691129662165" lon="12.170969281254473"><ele>0.0</ele><time>2026-04-12T08:39:27Z</time></trkpt><trkpt lat="44.65688189773711" lon="12.170869094006314"><ele>0.0</ele><time>2026-04-12T08:39:29Z</time></trkpt><trkpt lat="44.65685135159851" lon="12.17076499984475"><ele>-0.16666666666666666</ele><time>2026-04-12T08:39:31Z</time></trkpt><trkpt lat="44.656819292318254" lon="12.170662680976601"><ele>-0.3333333333333333</ele><time>2026-04-12T08:39:33Z</time></trkpt><trkpt lat="44.65678798769199" lon="12.170565001879407"><ele>-0.5</ele><time>2026-04-12T08:39:35Z</time></trkpt><trkpt lat="44.65675657605995" lon="12.170468155853609"><ele>-0.6666666666666666</ele><time>2026-04-12T08:39:37Z</time></trkpt><trkpt lat="44.65672499221317" lon="12.170368824085115"><ele>-0.8333333333333333</ele><time>2026-04-12T08:39:39Z</time></trkpt><trkpt lat="44.65669510600386" lon="12.170273762697212"><ele>-1.0</ele><time>2026-04-12T08:39:41Z</time></trkpt><trkpt lat="44.6566620873946" lon="12.170178174446969"><ele>-0.9999999999999999</ele><time>2026-04-12T08:39:43Z</time></trkpt><trkpt lat="44.6566309158531" lon="12.170075076689264"><ele>-1.0</ele><time>2026-04-12T08:39:45Z</time></trkpt><trkpt lat="44.6565890105781" lon="12.169973116235145"><ele>-1.0</ele><time>2026-04-12T08:39:47Z</time></trkpt><trkpt lat="44.65656409123239" lon="12.169879915395333"><ele>-1.0</ele><time>2026-04-12T08:39:49Z</time></trkpt><trkpt lat="44.656532386431316" lon="12.169782976575133"><ele>-0.9999999999999999</ele><time>2026-04-12T08:39:51Z</time></trkpt><trkpt lat="44.65649652236435" lon="12.169667662735725"><ele>-1.0</ele><time>2026-04-12T08:39:53Z</time></trkpt><trkpt lat="44.65646484517556" lon="12.169566264455055"><ele>-0.9999999999999999</ele><time>2026-04-12T08:39:55Z</time></trkpt><trkpt lat="44.65642720373362" lon="12.169456881529145"><ele>-1.0</ele><time>2026-04-12T08:39:57Z</time></trkpt><trkpt lat="44.65639123160417" lon="12.169344599046667"><ele>-1.0</ele><time>2026-04-12T08:39:59Z</time></trkpt><trkpt lat="44.65635597427295" lon="12.169230126700928"><ele>-1.0</ele><time>2026-04-12T08:40:01Z</time></trkpt><trkpt lat="44.65631857292732" lon="12.169113981837528"><ele>-0.9999999999999999</ele><time>2026-04-12T08:40:03Z</time></trkpt><trkpt lat="44.65628581741337" lon="12.169002484520599"><ele>-1.0</ele><time>2026-04-12T08:40:05Z</time></trkpt><trkpt lat="44.65624963180068" lon="12.168898321226054"><ele>-0.8333333333333333</ele><time>2026-04-12T08:40:07Z</time></trkpt><trkpt lat="44.656218643250625" lon="12.168789436661202"><ele>-0.6666666666666666</ele><time>2026-04-12T08:40:09Z</time></trkpt><trkpt lat="44.65618380452993" lon="12.168682498887303"><ele>-0.5</ele><time>2026-04-12T08:40:11Z</time></trkpt><trkpt lat="44.65614855335794" lon="12.168569430573813"><ele>-0.3333333333333333</ele><time>2026-04-12T08:40:13Z</time></trkpt><trkpt lat="44.65611036467761" lon="12.168459533912554"><ele>-0.16666666666666666</ele><time>2026-04-12T08:40:15Z</time></trkpt><trkpt lat="44.65608068332385" lon="12.168344816996559"><ele>0.0</ele><time>2026-04-12T08:40:17Z</time></trkpt><trkpt lat="44.65604895837263" lon="12.16823483886523"><ele>0.0</ele><time>2026-04-12T08:40:19Z</time></trkpt><trkpt lat="44.65601894914043" lon="12.168123172652642"><ele>0.0</ele><time>2026-04-12T08:40:21Z</time></trkpt><trkpt lat="44.65598028558841" lon="12.16800851329876"><ele>0.0</ele><time>2026-04-12T08:40:23Z</time></trkpt><trkpt lat="44.6559417930967" lon="12.16789328777681"><ele>0.0</ele><time>2026-04-12T08:40:25Z</time></trkpt><trkpt lat="44.65590891832992" lon="12.167783892970505"><ele>0.0</ele><time>2026-04-12T08:40:27Z</time></trkpt><trkpt lat="44.65587784214451" lon="12.167677902939905"><ele>0.0</ele><time>2026-04-12T08:40:29Z</time></trkpt><trkpt lat="44.65584843195034" lon="12.167587075850475"><ele>0.0</ele><time>2026-04-12T08:40:31Z</time></trkpt><trkpt lat="44.65581634440313" lon="12.167501505256073"><ele>0.0</ele><time>2026-04-12T08:40:33Z</time></trkpt><trkpt lat="44.65579448470019" lon="12.167413027534035"><ele>0.0</ele><time>2026-04-12T08:40:35Z</time></trkpt><trkpt lat="44.65575318864911" lon="12.16729353921328"><ele>0.0</ele><time>2026-04-12T08:40:37Z</time></trkpt><trkpt lat="44.65571867896732" lon="12.167191309345247"><ele>0.0</ele><time>2026-04-12T08:40:39Z</time></trkpt><trkpt lat="44.65568917289016" lon="12.16709822411474"><ele>0.0</ele><time>2026-04-12T08:40:40.999Z</time></trkpt><trkpt lat="44.65565445707598" lon="12.166993665751077"><ele>0.0</ele><time>2026-04-12T08:40:42.999Z</time></trkpt><trkpt lat="44.65561983967608" lon="12.166885031900152"><ele>0.0</ele><time>2026-04-12T08:40:44.999Z</time></trkpt><trkpt lat="44.655593295726696" lon="12.166785251081018"><ele>0.0</ele><time>2026-04-12T08:40:46.999Z</time></trkpt><trkpt lat="44.65555890261865" lon="12.166698871473221"><ele>0.0</ele><time>2026-04-12T08:40:48.999Z</time></trkpt><trkpt lat="44.65552926442498" lon="12.166604083507494"><ele>0.0</ele><time>2026-04-12T08:40:50.999Z</time></trkpt><trkpt lat="44.655494704711785" lon="12.166488629525862"><ele>0.0</ele><time>2026-04-12T08:40:52.999Z</time></trkpt><trkpt lat="44.65546136415711" lon="12.166376724686236"><ele>-0.16666666666666666</ele><time>2026-04-12T08:40:54.999Z</time></trkpt><trkpt lat="44.65542913915501" lon="12.166280293108446"><ele>-0.3333333333333333</ele><time>2026-04-12T08:40:56.999Z</time></trkpt><trkpt lat="44.655385073816" lon="12.166160062015356"><ele>-0.5</ele><time>2026-04-12T08:40:59.999Z</time></trkpt><trkpt lat="44.65535973157386" lon="12.166073598972043"><ele>-0.6666666666666666</ele><time>2026-04-12T08:41:01.999Z</time></trkpt><trkpt lat="44.655327837314964" lon="12.165972755006125"><ele>-0.8333333333333333</ele><time>2026-04-12T08:41:03.999Z</time></trkpt><trkpt lat="44.65529908409964" lon="12.165875878409363"><ele>-1.0</ele><time>2026-04-12T08:41:05.999Z</time></trkpt><trkpt lat="44.65527588753398" lon="12.165772474520807"><ele>-0.49999999999999994</ele><time>2026-04-12T08:41:07.999Z</time></trkpt><trkpt lat="44.65523746568567" lon="12.165677104770745"><ele>0.0</ele><time>2026-04-12T08:41:09.999Z</time></trkpt><trkpt lat="44.65520269655433" lon="12.165579755315582"><ele>0.5</ele><time>2026-04-12T08:41:11.999Z</time></trkpt><trkpt lat="44.65517183922737" lon="12.165478371354041"><ele>1.0</ele><time>2026-04-12T08:41:13.999Z</time></trkpt><trkpt lat="44.6551399911918" lon="12.165385350852846"><ele>1.4999999999999998</ele><time>2026-04-12T08:41:15.999Z</time></trkpt><trkpt lat="44.65510502494129" lon="12.16528101009738"><ele>2.0</ele><time>2026-04-12T08:41:17.999Z</time></trkpt><trkpt lat="44.65507628178451" lon="12.165183586790732"><ele>1.9999999999999998</ele><time>2026-04-12T08:41:19.999Z</time></trkpt><trkpt lat="44.655045758122235" lon="12.16508881037647"><ele>2.0</ele><time>2026-04-12T08:41:21.999Z</time></trkpt><trkpt lat="44.65500503381092" lon="12.16497028520488"><ele>2.0</ele><time>2026-04-12T08:41:24.999Z</time></trkpt><trkpt lat="44.65496975410807" lon="12.164853935301382"><ele>2.0</ele><time>2026-04-12T08:41:27.999Z</time></trkpt><trkpt lat="44.65492850636726" lon="12.164726980222293"><ele>1.9999999999999998</ele><time>2026-04-12T08:41:31Z</time></trkpt><trkpt lat="44.654897665373106" lon="12.164632973152328"><ele>2.0</ele><time>2026-04-12T08:41:33Z</time></trkpt><trkpt lat="44.65486511507362" lon="12.164529921884512"><ele>1.6666666666666665</ele><time>2026-04-12T08:41:35Z</time></trkpt><trkpt lat="44.654838173653836" lon="12.16443781088924"><ele>1.3333333333333333</ele><time>2026-04-12T08:41:37Z</time></trkpt><trkpt lat="44.65480826959953" lon="12.164343880255839"><ele>1.0</ele><time>2026-04-12T08:41:39Z</time></trkpt><trkpt lat="44.654777022284" lon="12.164245905074983"><ele>0.6666666666666666</ele><time>2026-04-12T08:41:41Z</time></trkpt><trkpt lat="44.65474558364065" lon="12.164145771111519"><ele>0.3333333333333333</ele><time>2026-04-12T08:41:43Z</time></trkpt><trkpt lat="44.65471322441718" lon="12.164048241166885"><ele>0.0</ele><time>2026-04-12T08:41:45Z</time></trkpt><trkpt lat="44.65467927690941" lon="12.163950006133966"><ele>0.0</ele><time>2026-04-12T08:41:47Z</time></trkpt><trkpt lat="44.654652244365884" lon="12.163857672997342"><ele>0.0</ele><time>2026-04-12T08:41:49Z</time></trkpt><trkpt lat="44.65462141073238" lon="12.163764066048481"><ele>0.0</ele><time>2026-04-12T08:41:51Z</time></trkpt><trkpt lat="44.6545867790184" lon="12.163652587637989"><ele>0.0</ele><time>2026-04-12T08:41:53Z</time></trkpt><trkpt lat="44.65455899160344" lon="12.163565881068573"><ele>0.0</ele><time>2026-04-12T08:41:55Z</time></trkpt><trkpt lat="44.654526791466154" lon="12.163463764148524"><ele>0.0</ele><time>2026-04-12T08:41:57Z</time></trkpt><trkpt lat="44.65449475360396" lon="12.163358857848019"><ele>0.0</ele><time>2026-04-12T08:41:59Z</time></trkpt><trkpt lat="44.65446138962829" lon="12.163255957331478"><ele>0.0</ele><time>2026-04-12T08:42:01Z</time></trkpt><trkpt lat="44.654427625226674" lon="12.163149245727375"><ele>0.0</ele><time>2026-04-12T08:42:03Z</time></trkpt><trkpt lat="44.65439385528025" lon="12.163045774815284"><ele>0.0</ele><time>2026-04-12T08:42:05Z</time></trkpt><trkpt lat="44.65436087052337" lon="12.162941013051222"><ele>0.0</ele><time>2026-04-12T08:42:07Z</time></trkpt><trkpt lat="44.65432852944533" lon="12.16284276712469"><ele>0.0</ele><time>2026-04-12T08:42:09Z</time></trkpt><trkpt lat="44.65429773337541" lon="12.162739306732535"><ele>0.3333333333333333</ele><time>2026-04-12T08:42:11Z</time></trkpt><trkpt lat="44.6542621575588" lon="12.162639098022815"><ele>0.6666666666666666</ele><time>2026-04-12T08:42:13Z</time></trkpt><trkpt lat="44.65423306352162" lon="12.162537905268882"><ele>1.0</ele><time>2026-04-12T08:42:15Z</time></trkpt><trkpt lat="44.65420042824754" lon="12.162439699403679"><ele>1.3333333333333333</ele><time>2026-04-12T08:42:17Z</time></trkpt><trkpt lat="44.65416629963227" lon="12.162333310677454"><ele>1.6666666666666665</ele><time>2026-04-12T08:42:19Z</time></trkpt><trkpt lat="44.65413197380242" lon="12.162229504068742"><ele>2.0</ele><time>2026-04-12T08:42:21Z</time></trkpt><trkpt lat="44.65409888828325" lon="12.162116425707714"><ele>2.1666666666666665</ele><time>2026-04-12T08:42:23Z</time></trkpt><trkpt lat="44.654066092309975" lon="12.162006151361984"><ele>2.333333333333333</ele><time>2026-04-12T08:42:25Z</time></trkpt><trkpt lat="44.65402949320389" lon="12.161897034679802"><ele>2.5</ele><time>2026-04-12T08:42:27Z</time></trkpt><trkpt lat="44.653995232348805" lon="12.161782924861365"><ele>2.6666666666666665</ele><time>2026-04-12T08:42:29Z</time></trkpt><trkpt lat="44.6539545290372" lon="12.16166817140217"><ele>2.8333333333333335</ele><time>2026-04-12T08:42:31Z</time></trkpt><trkpt lat="44.6539173472986" lon="12.161559453537269"><ele>3.0</ele><time>2026-04-12T08:42:33Z</time></trkpt><trkpt lat="44.653887200661245" lon="12.161450206054178"><ele>2.6666666666666665</ele><time>2026-04-12T08:42:35Z</time></trkpt><trkpt lat="44.65385436215962" lon="12.161345725328582"><ele>2.3333333333333335</ele><time>2026-04-12T08:42:37Z</time></trkpt><trkpt lat="44.65382174851536" lon="12.161240274380257"><ele>2.0</ele><time>2026-04-12T08:42:38.999Z</time></trkpt><trkpt lat="44.65378614285491" lon="12.16113412092082"><ele>1.6666666666666665</ele><time>2026-04-12T08:42:40.999Z</time></trkpt><trkpt lat="44.653751182410296" lon="12.161020410926056"><ele>1.3333333333333333</ele><time>2026-04-12T08:42:42.999Z</time></trkpt><trkpt lat="44.65371613153996" lon="12.160911652285838"><ele>1.0</ele><time>2026-04-12T08:42:44.999Z</time></trkpt><trkpt lat="44.653679534900085" lon="12.160804165062244"><ele>0.9999999999999999</ele><time>2026-04-12T08:42:46.999Z</time></trkpt><trkpt lat="44.65364778363257" lon="12.160699310848223"><ele>1.0</ele><time>2026-04-12T08:42:48.999Z</time></trkpt><trkpt lat="44.6536232261303" lon="12.160600161148809"><ele>1.0</ele><time>2026-04-12T08:42:50.999Z</time></trkpt><trkpt lat="44.653583465029676" lon="12.160488670722678"><ele>1.0</ele><time>2026-04-12T08:42:52.999Z</time></trkpt><trkpt lat="44.653552417688836" lon="12.160386642133654"><ele>0.9999999999999999</ele><time>2026-04-12T08:42:54.999Z</time></trkpt><trkpt lat="44.653520071154034" lon="12.160285616984762"><ele>1.0</ele><time>2026-04-12T08:42:56.999Z</time></trkpt><trkpt lat="44.65348442319486" lon="12.16017899890378"><ele>0.9999999999999999</ele><time>2026-04-12T08:42:58.999Z</time></trkpt><trkpt lat="44.65344771685417" lon="12.160075033569337"><ele>1.0</ele><time>2026-04-12T08:43:00.999Z</time></trkpt><trkpt lat="44.65341785585044" lon="12.159966158142261"><ele>1.0</ele><time>2026-04-12T08:43:02.999Z</time></trkpt><trkpt lat="44.65338498248545" lon="12.15985603490886"><ele>1.0</ele><time>2026-04-12T08:43:04.999Z</time></trkpt><trkpt lat="44.65334737489601" lon="12.15974652016099"><ele>0.9999999999999999</ele><time>2026-04-12T08:43:06.999Z</time></trkpt><trkpt lat="44.65331255416265" lon="12.15962827018817"><ele>1.0</ele><time>2026-04-12T08:43:08.999Z</time></trkpt><trkpt lat="44.65327394537444" lon="12.159518773187237"><ele>0.9999999999999999</ele><time>2026-04-12T08:43:10.999Z</time></trkpt><trkpt lat="44.653239080308765" lon="12.159406110243365"><ele>1.0</ele><time>2026-04-12T08:43:12.999Z</time></trkpt><trkpt lat="44.65320487526639" lon="12.159288941484919"><ele>1.0</ele><time>2026-04-12T08:43:14.999Z</time></trkpt><trkpt lat="44.65316542452117" lon="12.1591794364563"><ele>1.0</ele><time>2026-04-12T08:43:16.999Z</time></trkpt><trkpt lat="44.65313110073035" lon="12.159070519911115"><ele>0.9999999999999999</ele><time>2026-04-12T08:43:18.999Z</time></trkpt><trkpt lat="44.653102700522595" lon="12.158966547682123"><ele>1.0</ele><time>2026-04-12T08:43:20.999Z</time></trkpt><trkpt lat="44.653070149354654" lon="12.158882045694751"><ele>0.8333333333333333</ele><time>2026-04-12T08:43:22.999Z</time></trkpt><trkpt lat="44.653034069055565" lon="12.158756386359638"><ele>0.6666666666666666</ele><time>2026-04-12T08:43:25.999Z</time></trkpt><trkpt lat="44.65300165187867" lon="12.158658092894441"><ele>0.5</ele><time>2026-04-12T08:43:27.999Z</time></trkpt><trkpt lat="44.65296805014686" lon="12.158560916330652"><ele>0.3333333333333333</ele><time>2026-04-12T08:43:29.999Z</time></trkpt><trkpt lat="44.65293998824391" lon="12.158457070794235"><ele>0.16666666666666666</ele><time>2026-04-12T08:43:31.999Z</time></trkpt><trkpt lat="44.65290364397886" lon="12.15835470867505"><ele>0.0</ele><time>2026-04-12T08:43:34Z</time></trkpt><trkpt lat="44.6528707593353" lon="12.15825187552305"><ele>0.0</ele><time>2026-04-12T08:43:36Z</time></trkpt><trkpt lat="44.65284219488589" lon="12.158148159285416"><ele>0.0</ele><time>2026-04-12T08:43:38Z</time></trkpt><trkpt lat="44.65280569855605" lon="12.158048566353779"><ele>0.0</ele><time>2026-04-12T08:43:40Z</time></trkpt><trkpt lat="44.65277607090007" lon="12.15795195596861"><ele>0.0</ele><time>2026-04-12T08:43:42Z</time></trkpt><trkpt lat="44.652741155797806" lon="12.157852619499828"><ele>0.0</ele><time>2026-04-12T08:43:44Z</time></trkpt><trkpt lat="44.65271352412778" lon="12.15774666534682"><ele>0.0</ele><time>2026-04-12T08:43:46Z</time></trkpt><trkpt lat="44.65267707607492" lon="12.157642301902094"><ele>0.0</ele><time>2026-04-12T08:43:48Z</time></trkpt><trkpt lat="44.65264618915799" lon="12.157539403373315"><ele>0.0</ele><time>2026-04-12T08:43:50Z</time></trkpt><trkpt lat="44.65261386258911" lon="12.157438890030734"><ele>0.0</ele><time>2026-04-12T08:43:52Z</time></trkpt><trkpt lat="44.652582741014335" lon="12.157339043435739"><ele>0.0</ele><time>2026-04-12T08:43:54Z</time></trkpt><trkpt lat="44.65255033358397" lon="12.157235693165795"><ele>0.0</ele><time>2026-04-12T08:43:56Z</time></trkpt><trkpt lat="44.65251838407261" lon="12.157135848197138"><ele>0.0</ele><time>2026-04-12T08:43:58Z</time></trkpt><trkpt lat="44.6524864160296" lon="12.157029690786413"><ele>0.0</ele><time>2026-04-12T08:44:00Z</time></trkpt><trkpt lat="44.652452052778806" lon="12.156928535937974"><ele>0.0</ele><time>2026-04-12T08:44:02Z</time></trkpt><trkpt lat="44.65241877624523" lon="12.156818192969405"><ele>0.0</ele><time>2026-04-12T08:44:04Z</time></trkpt><trkpt lat="44.65238276084038" lon="12.156707281555013"><ele>0.0</ele><time>2026-04-12T08:44:06Z</time></trkpt><trkpt lat="44.65235054654973" lon="12.156597577182007"><ele>0.0</ele><time>2026-04-12T08:44:08Z</time></trkpt><trkpt lat="44.652314189000975" lon="12.156491776977946"><ele>0.0</ele><time>2026-04-12T08:44:10Z</time></trkpt><trkpt lat="44.65227866789247" lon="12.156374425611498"><ele>0.0</ele><time>2026-04-12T08:44:12Z</time></trkpt><trkpt lat="44.652241606764676" lon="12.156268498310466"><ele>0.0</ele><time>2026-04-12T08:44:14Z</time></trkpt><trkpt lat="44.65220458552161" lon="12.156155270904684"><ele>0.0</ele><time>2026-04-12T08:44:16Z</time></trkpt><trkpt lat="44.652174086996354" lon="12.15603737740495"><ele>0.0</ele><time>2026-04-12T08:44:18Z</time></trkpt><trkpt lat="44.65212848674403" lon="12.15592448062898"><ele>0.0</ele><time>2026-04-12T08:44:20Z</time></trkpt><trkpt lat="44.65210515937569" lon="12.155812812304212"><ele>0.0</ele><time>2026-04-12T08:44:22Z</time></trkpt><trkpt lat="44.65207127728625" lon="12.15570218977734"><ele>0.0</ele><time>2026-04-12T08:44:24Z</time></trkpt><trkpt lat="44.652043092371905" lon="12.155609035888736"><ele>0.0</ele><time>2026-04-12T08:44:26Z</time></trkpt><trkpt lat="44.65201346346676" lon="12.155520036585457"><ele>0.0</ele><time>2026-04-12T08:44:28Z</time></trkpt><trkpt lat="44.651985003479034" lon="12.155429484569638"><ele>0.0</ele><time>2026-04-12T08:44:30Z</time></trkpt><trkpt lat="44.65195093810124" lon="12.155334865937846"><ele>0.0</ele><time>2026-04-12T08:44:32Z</time></trkpt><trkpt lat="44.65191869027791" lon="12.155234321416582"><ele>0.0</ele><time>2026-04-12T08:44:34Z</time></trkpt><trkpt lat="44.6518886270703" lon="12.155137115405061"><ele>0.0</ele><time>2026-04-12T08:44:35.999Z</time></trkpt><trkpt lat="44.651853823766345" lon="12.155029430590918"><ele>-0.16666666666666666</ele><time>2026-04-12T08:44:37.999Z</time></trkpt><trkpt lat="44.651816945800256" lon="12.154919075029325"><ele>-0.3333333333333333</ele><time>2026-04-12T08:44:39.999Z</time></trkpt><trkpt lat="44.65178008894837" lon="12.154809427433117"><ele>-0.5</ele><time>2026-04-12T08:44:41.999Z</time></trkpt><trkpt lat="44.65174404800225" lon="12.15469585217539"><ele>-0.6666666666666666</ele><time>2026-04-12T08:44:43.999Z</time></trkpt><trkpt lat="44.651709622704836" lon="12.154586307793096"><ele>-0.8333333333333333</ele><time>2026-04-12T08:44:45.999Z</time></trkpt><trkpt lat="44.6516952938638" lon="12.154476750961695"><ele>-1.0</ele><time>2026-04-12T08:44:47.999Z</time></trkpt><trkpt lat="44.6516467489673" lon="12.154370279029983"><ele>-0.8</ele><time>2026-04-12T08:44:49.999Z</time></trkpt><trkpt lat="44.65161462963799" lon="12.15425366274936"><ele>-0.6000000000000001</ele><time>2026-04-12T08:44:51.999Z</time></trkpt><trkpt lat="44.651583499035226" lon="12.15414353217381"><ele>-0.4</ele><time>2026-04-12T08:44:53.999Z</time></trkpt><trkpt lat="44.65153702527329" lon="12.154026195698666"><ele>-0.2</ele><time>2026-04-12T08:44:55.999Z</time></trkpt><trkpt lat="44.65149952580971" lon="12.153909970566998"><ele>0.0</ele><time>2026-04-12T08:44:57.999Z</time></trkpt><trkpt lat="44.651456489567174" lon="12.153796560854666"><ele>0.0</ele><time>2026-04-12T08:44:59.999Z</time></trkpt><trkpt lat="44.651412351702184" lon="12.153684873730551"><ele>0.0</ele><time>2026-04-12T08:45:01.999Z</time></trkpt><trkpt lat="44.651387849000535" lon="12.153574634182249"><ele>0.0</ele><time>2026-04-12T08:45:03.999Z</time></trkpt><trkpt lat="44.651352131590464" lon="12.153456480729222"><ele>0.0</ele><time>2026-04-12T08:45:05.999Z</time></trkpt><trkpt lat="44.65131147164243" lon="12.153343829479727"><ele>0.0</ele><time>2026-04-12T08:45:07.999Z</time></trkpt><trkpt lat="44.65127639453311" lon="12.153231628093534"><ele>0.0</ele><time>2026-04-12T08:45:09.999Z</time></trkpt><trkpt lat="44.651241193519255" lon="12.153114338013633"><ele>0.0</ele><time>2026-04-12T08:45:11.999Z</time></trkpt><trkpt lat="44.651202776673905" lon="12.153005797646449"><ele>0.0</ele><time>2026-04-12T08:45:13.999Z</time></trkpt><trkpt lat="44.65117795603048" lon="12.152889676240834"><ele>0.0</ele><time>2026-04-12T08:45:15.999Z</time></trkpt><trkpt lat="44.65113810294019" lon="12.152781690068588"><ele>0.0</ele><time>2026-04-12T08:45:17.999Z</time></trkpt><trkpt lat="44.651103228541864" lon="12.152666231235768"><ele>0.0</ele><time>2026-04-12T08:45:19.999Z</time></trkpt><trkpt lat="44.651075640737815" lon="12.152545601008978"><ele>0.0</ele><time>2026-04-12T08:45:21.999Z</time></trkpt><trkpt lat="44.65104617296347" lon="12.152430337746184"><ele>0.0</ele><time>2026-04-12T08:45:23.999Z</time></trkpt><trkpt lat="44.651021850276884" lon="12.152307788036822"><ele>0.0</ele><time>2026-04-12T08:45:25.999Z</time></trkpt><trkpt lat="44.651001522350185" lon="12.152181746230312"><ele>0.0</ele><time>2026-04-12T08:45:27.999Z</time></trkpt><trkpt lat="44.650988762545666" lon="12.152048600496746"><ele>0.0</ele><time>2026-04-12T08:45:29.999Z</time></trkpt><trkpt lat="44.65098051800045" lon="12.15192135401062"><ele>0.0</ele><time>2026-04-12T08:45:31.999Z</time></trkpt><trkpt lat="44.65097553644186" lon="12.151794750507669"><ele>0.0</ele><time>2026-04-12T08:45:33.999Z</time></trkpt><trkpt lat="44.65097489080131" lon="12.151672386706037"><ele>0.0</ele><time>2026-04-12T08:45:35.999Z</time></trkpt><trkpt lat="44.65098167608349" lon="12.151556657482336"><ele>0.0</ele><time>2026-04-12T08:45:37.999Z</time></trkpt><trkpt lat="44.65098291263303" lon="12.15145323075984"><ele>0.0</ele><time>2026-04-12T08:45:40Z</time></trkpt><trkpt lat="44.65098388958168" lon="12.151361898780452"><ele>0.0</ele><time>2026-04-12T08:45:42Z</time></trkpt><trkpt lat="44.650991224192275" lon="12.151272950063841"><ele>0.0</ele><time>2026-04-12T08:45:44Z</time></trkpt><trkpt lat="44.65099342784542" lon="12.15115842117936"><ele>0.0</ele><time>2026-04-12T08:45:47Z</time></trkpt><trkpt lat="44.65100553583066" lon="12.15106430270592"><ele>0.0</ele><time>2026-04-12T08:45:50Z</time></trkpt><trkpt lat="44.65099152620596" lon="12.150965791711613"><ele>0.0</ele><time>2026-04-12T08:45:53Z</time></trkpt><trkpt lat="44.65100863038332" lon="12.150851243220824"><ele>0.0</ele><time>2026-04-12T08:45:56Z</time></trkpt><trkpt lat="44.65101890566567" lon="12.150730025234937"><ele>0.0</ele><time>2026-04-12T08:45:59Z</time></trkpt><trkpt lat="44.651026729675394" lon="12.150599535651335"><ele>0.0</ele><time>2026-04-12T08:46:02Z</time></trkpt><trkpt lat="44.65103119186989" lon="12.150504484040273"><ele>-0.3333333333333333</ele><time>2026-04-12T08:46:04Z</time></trkpt><trkpt lat="44.651037578100876" lon="12.150401287511944"><ele>-0.6666666666666666</ele><time>2026-04-12T08:46:06Z</time></trkpt><trkpt lat="44.65104421641944" lon="12.15030886866315"><ele>-1.0</ele><time>2026-04-12T08:46:08Z</time></trkpt><trkpt lat="44.65104951765735" lon="12.150214330300456"><ele>-1.3333333333333333</ele><time>2026-04-12T08:46:58.999Z</time></trkpt><trkpt lat="44.65104619028863" lon="12.15009909927671"><ele>-1.6666666666666665</ele><time>2026-04-12T08:47:02.999Z</time></trkpt><trkpt lat="44.651052639143224" lon="12.149990509341647"><ele>-2.0</ele><time>2026-04-12T08:47:05.999Z</time></trkpt><trkpt lat="44.651056310904096" lon="12.149869098081524"><ele>-1.9999999999999998</ele><time>2026-04-12T08:47:08.999Z</time></trkpt><trkpt lat="44.65107466422163" lon="12.149749670250303"><ele>-2.0</ele><time>2026-04-12T08:47:11.999Z</time></trkpt><trkpt lat="44.65109770034523" lon="12.149665617682823"><ele>-2.0</ele><time>2026-04-12T08:47:13.999Z</time></trkpt><trkpt lat="44.65108589560645" lon="12.149561255924663"><ele>-2.0</ele><time>2026-04-12T08:47:15.999Z</time></trkpt><trkpt lat="44.651089329511564" lon="12.149452343069756"><ele>-1.9999999999999998</ele><time>2026-04-12T08:47:17.999Z</time></trkpt><trkpt lat="44.65109258562221" lon="12.149345351331698"><ele>-2.0</ele><time>2026-04-12T08:47:19.999Z</time></trkpt><trkpt lat="44.65109820113571" lon="12.149224371350355"><ele>-2.0</ele><time>2026-04-12T08:47:21.999Z</time></trkpt><trkpt lat="44.65110360184861" lon="12.149109541615442"><ele>-2.0</ele><time>2026-04-12T08:47:23.999Z</time></trkpt><trkpt lat="44.651109231305355" lon="12.148985240554305"><ele>-2.0</ele><time>2026-04-12T08:47:25.999Z</time></trkpt><trkpt lat="44.651115334340155" lon="12.148851273752927"><ele>-2.0</ele><time>2026-04-12T08:47:27.999Z</time></trkpt><trkpt lat="44.651120915206455" lon="12.148704692741095"><ele>-2.0</ele><time>2026-04-12T08:47:29.999Z</time></trkpt><trkpt lat="44.651131807537645" lon="12.148562613494166"><ele>-1.6</ele><time>2026-04-12T08:47:31.999Z</time></trkpt><trkpt lat="44.65113486677342" lon="12.148414039206289"><ele>-1.2000000000000002</ele><time>2026-04-12T08:47:33.999Z</time></trkpt><trkpt lat="44.651141296563665" lon="12.148275646687688"><ele>-0.8</ele><time>2026-04-12T08:47:35.999Z</time></trkpt><trkpt lat="44.65114582622861" lon="12.148143227426448"><ele>-0.4</ele><time>2026-04-12T08:47:37.999Z</time></trkpt><trkpt lat="44.651152782829136" lon="12.148019234568455"><ele>0.0</ele><time>2026-04-12T08:47:39.999Z</time></trkpt><trkpt lat="44.651158185103995" lon="12.147895499131176"><ele>0.3333333333333333</ele><time>2026-04-12T08:47:41.999Z</time></trkpt><trkpt lat="44.651164149909114" lon="12.14776667749277"><ele>0.6666666666666666</ele><time>2026-04-12T08:47:43.999Z</time></trkpt><trkpt lat="44.65116985974116" lon="12.14764135119802"><ele>1.0</ele><time>2026-04-12T08:47:46Z</time></trkpt><trkpt lat="44.651173824185335" lon="12.147521327283185"><ele>1.3333333333333333</ele><time>2026-04-12T08:47:48Z</time></trkpt><trkpt lat="44.65117834696734" lon="12.14740529564132"><ele>1.6666666666666665</ele><time>2026-04-12T08:47:50Z</time></trkpt><trkpt lat="44.65118276631682" lon="12.147300127352484"><ele>2.0</ele><time>2026-04-12T08:47:52Z</time></trkpt><trkpt lat="44.65118571004764" lon="12.147199260410105"><ele>1.9999999999999998</ele><time>2026-04-12T08:47:54Z</time></trkpt><trkpt lat="44.65119483521091" lon="12.147092743020233"><ele>2.0</ele><time>2026-04-12T08:47:56Z</time></trkpt><trkpt lat="44.65119870177647" lon="12.146980114840265"><ele>2.0</ele><time>2026-04-12T08:47:58Z</time></trkpt><trkpt lat="44.65120416903892" lon="12.146873733803709"><ele>2.0</ele><time>2026-04-12T08:48:00Z</time></trkpt><trkpt lat="44.65121088896523" lon="12.146767245571938"><ele>1.9999999999999998</ele><time>2026-04-12T08:48:02Z</time></trkpt><trkpt lat="44.651216386826654" lon="12.146664370840131"><ele>2.0</ele><time>2026-04-12T08:48:04Z</time></trkpt><trkpt lat="44.65122114162661" lon="12.14656267596899"><ele>1.7142857142857142</ele><time>2026-04-12T08:48:06Z</time></trkpt><trkpt lat="44.65122984228786" lon="12.146460281587014"><ele>1.4285714285714284</ele><time>2026-04-12T08:48:08Z</time></trkpt><trkpt lat="44.65123104840856" lon="12.146358545059371"><ele>1.1428571428571428</ele><time>2026-04-12T08:48:10Z</time></trkpt><trkpt lat="44.651237664248285" lon="12.14625747988253"><ele>0.8571428571428571</ele><time>2026-04-12T08:48:12Z</time></trkpt><trkpt lat="44.65124079941217" lon="12.146160537868159"><ele>0.5714285714285714</ele><time>2026-04-12T08:48:14Z</time></trkpt><trkpt lat="44.651246547897536" lon="12.146059473627503"><ele>0.2857142857142857</ele><time>2026-04-12T08:48:16Z</time></trkpt><trkpt lat="44.65125009123238" lon="12.145957774663737"><ele>0.0</ele><time>2026-04-12T08:48:18Z</time></trkpt><trkpt lat="44.651257108625266" lon="12.1458507108678"><ele>0.0</ele><time>2026-04-12T08:48:20Z</time></trkpt><trkpt lat="44.651260245891415" lon="12.145745412431925"><ele>0.0</ele><time>2026-04-12T08:48:22Z</time></trkpt><trkpt lat="44.65126992286288" lon="12.145586570629325"><ele>0.0</ele><time>2026-04-12T08:48:25Z</time></trkpt><trkpt lat="44.65127381331008" lon="12.145472290526852"><ele>0.0</ele><time>2026-04-12T08:48:27Z</time></trkpt><trkpt lat="44.651279797698926" lon="12.14535527453514"><ele>0.0</ele><time>2026-04-12T08:48:28.999Z</time></trkpt><trkpt lat="44.65128404453277" lon="12.145234396350363"><ele>0.0</ele><time>2026-04-12T08:48:30.999Z</time></trkpt><trkpt lat="44.651292362706236" lon="12.145120050053002"><ele>-0.16666666666666666</ele><time>2026-04-12T08:48:32.999Z</time></trkpt><trkpt lat="44.65129655476976" lon="12.145007568277828"><ele>-0.3333333333333333</ele><time>2026-04-12T08:48:34.999Z</time></trkpt><trkpt lat="44.65130136463481" lon="12.144889591169843"><ele>-0.5</ele><time>2026-04-12T08:48:36.999Z</time></trkpt><trkpt lat="44.65130760140414" lon="12.144770527093577"><ele>-0.6666666666666666</ele><time>2026-04-12T08:48:38.999Z</time></trkpt><trkpt lat="44.65131722159177" lon="12.144654516585913"><ele>-0.8333333333333333</ele><time>2026-04-12T08:48:40.999Z</time></trkpt><trkpt lat="44.65132130123949" lon="12.144537655647238"><ele>-1.0</ele><time>2026-04-12T08:48:42.999Z</time></trkpt><trkpt lat="44.651325017757664" lon="12.144423255573285"><ele>-0.6666666666666666</ele><time>2026-04-12T08:48:44.999Z</time></trkpt><trkpt lat="44.65133798884582" lon="12.144314419039059"><ele>-0.3333333333333333</ele><time>2026-04-12T08:48:46.999Z</time></trkpt><trkpt lat="44.65133540917777" lon="12.1442062390872"><ele>0.0</ele><time>2026-04-12T08:48:48.999Z</time></trkpt><trkpt lat="44.65134030933516" lon="12.144100764494233"><ele>0.3333333333333333</ele><time>2026-04-12T08:48:50.999Z</time></trkpt><trkpt lat="44.65134401798261" lon="12.143993890384127"><ele>0.6666666666666666</ele><time>2026-04-12T08:48:52.999Z</time></trkpt><trkpt lat="44.65134865377506" lon="12.143878569648347"><ele>1.0</ele><time>2026-04-12T08:48:54.999Z</time></trkpt><trkpt lat="44.651354430484176" lon="12.14377128971216"><ele>0.9999999999999999</ele><time>2026-04-12T08:48:56.999Z</time></trkpt><trkpt lat="44.651356162575354" lon="12.143657423856762"><ele>1.0</ele><time>2026-04-12T08:48:58.999Z</time></trkpt><trkpt lat="44.65136096000993" lon="12.143549348788511"><ele>1.0</ele><time>2026-04-12T08:49:00.999Z</time></trkpt><trkpt lat="44.65135278339642" lon="12.143441882291642"><ele>1.0</ele><time>2026-04-12T08:49:02.999Z</time></trkpt><trkpt lat="44.65135656765334" lon="12.143338894147623"><ele>0.9999999999999999</ele><time>2026-04-12T08:49:04.999Z</time></trkpt><trkpt lat="44.65137945681531" lon="12.143238871442733"><ele>1.0</ele><time>2026-04-12T08:49:06.999Z</time></trkpt><trkpt lat="44.651384157225124" lon="12.143130401482994"><ele>0.9999999999999999</ele><time>2026-04-12T08:49:08.999Z</time></trkpt><trkpt lat="44.65138823434748" lon="12.143018089545105"><ele>1.0</ele><time>2026-04-12T08:49:10.999Z</time></trkpt><trkpt lat="44.65139297635361" lon="12.142913749924586"><ele>1.0</ele><time>2026-04-12T08:49:12.999Z</time></trkpt><trkpt lat="44.651396724372844" lon="12.14280686660764"><ele>1.0</ele><time>2026-04-12T08:49:14.999Z</time></trkpt><trkpt lat="44.65140110590621" lon="12.142700401991325"><ele>0.9999999999999999</ele><time>2026-04-12T08:49:16.999Z</time></trkpt><trkpt lat="44.65140663442407" lon="12.142599652223508"><ele>1.0</ele><time>2026-04-12T08:49:18.999Z</time></trkpt><trkpt lat="44.65140865472231" lon="12.142495461741342"><ele>0.9999999999999999</ele><time>2026-04-12T08:49:20.999Z</time></trkpt><trkpt lat="44.651394150447864" lon="12.142389217086"><ele>1.0</ele><time>2026-04-12T08:49:22.999Z</time></trkpt><trkpt lat="44.651411970348185" lon="12.142276752576606"><ele>1.0</ele><time>2026-04-12T08:49:24.999Z</time></trkpt><trkpt lat="44.65142043367501" lon="12.142167017697917"><ele>1.0</ele><time>2026-04-12T08:49:26.999Z</time></trkpt><trkpt lat="44.65142730009319" lon="12.142047540889996"><ele>0.9999999999999999</ele><time>2026-04-12T08:49:28.999Z</time></trkpt><trkpt lat="44.6514349610504" lon="12.141932749436982"><ele>1.0</ele><time>2026-04-12T08:49:30.999Z</time></trkpt><trkpt lat="44.65144547801658" lon="12.141820718554643"><ele>0.9999999999999999</ele><time>2026-04-12T08:49:32.999Z</time></trkpt><trkpt lat="44.65144868904285" lon="12.141702148579688"><ele>1.0</ele><time>2026-04-12T08:49:34.999Z</time></trkpt><trkpt lat="44.651453414843914" lon="12.14158251273926"><ele>1.0</ele><time>2026-04-12T08:49:36.999Z</time></trkpt><trkpt lat="44.65145672210865" lon="12.141461420183663"><ele>1.0</ele><time>2026-04-12T08:49:38.999Z</time></trkpt><trkpt lat="44.65146498673494" lon="12.14134239333582"><ele>0.9999999999999999</ele><time>2026-04-12T08:49:40.999Z</time></trkpt><trkpt lat="44.65147018477081" lon="12.14122346538864"><ele>1.0</ele><time>2026-04-12T08:49:42.999Z</time></trkpt><trkpt lat="44.651475672205926" lon="12.141107146469237"><ele>0.9999999999999999</ele><time>2026-04-12T08:49:44.999Z</time></trkpt><trkpt lat="44.65148125326165" lon="12.140989120958563"><ele>1.0</ele><time>2026-04-12T08:49:46.999Z</time></trkpt><trkpt lat="44.65148507151062" lon="12.140870370095959"><ele>1.0</ele><time>2026-04-12T08:49:48.999Z</time></trkpt><trkpt lat="44.6514897920722" lon="12.14075236252106"><ele>1.0</ele><time>2026-04-12T08:49:50.999Z</time></trkpt><trkpt lat="44.651494591301606" lon="12.140633849357537"><ele>0.9999999999999999</ele><time>2026-04-12T08:49:53Z</time></trkpt><trkpt lat="44.651503617104225" lon="12.140511969137865"><ele>1.0</ele><time>2026-04-12T08:49:55Z</time></trkpt><trkpt lat="44.65150948723871" lon="12.140389658237318"><ele>1.0</ele><time>2026-04-12T08:49:57Z</time></trkpt><trkpt lat="44.65151582875868" lon="12.140260795252313"><ele>1.0</ele><time>2026-04-12T08:49:59Z</time></trkpt><trkpt lat="44.65152145376685" lon="12.14013688215964"><ele>1.0</ele><time>2026-04-12T08:50:01Z</time></trkpt><trkpt lat="44.65152976612573" lon="12.140004161366457"><ele>1.0</ele><time>2026-04-12T08:50:03Z</time></trkpt><trkpt lat="44.651536535832406" lon="12.139873154439409"><ele>1.0</ele><time>2026-04-12T08:50:05Z</time></trkpt><trkpt lat="44.65153763346176" lon="12.139745213893717"><ele>1.1666666666666665</ele><time>2026-04-12T08:50:07Z</time></trkpt><trkpt lat="44.65154679546815" lon="12.139620584697681"><ele>1.3333333333333333</ele><time>2026-04-12T08:50:09Z</time></trkpt><trkpt lat="44.65155165457592" lon="12.139494282104332"><ele>1.5</ele><time>2026-04-12T08:50:11Z</time></trkpt><trkpt lat="44.65155572285022" lon="12.13936625850023"><ele>1.6666666666666665</ele><time>2026-04-12T08:50:13Z</time></trkpt><trkpt lat="44.65156228612413" lon="12.13924522704209"><ele>1.8333333333333333</ele><time>2026-04-12T08:50:15Z</time></trkpt><trkpt lat="44.65157080411816" lon="12.139120253452301"><ele>2.0</ele><time>2026-04-12T08:50:17Z</time></trkpt><trkpt lat="44.651574821081354" lon="12.138997635467991"><ele>2.2</ele><time>2026-04-12T08:50:19Z</time></trkpt><trkpt lat="44.65157955658725" lon="12.13887333828251"><ele>2.4000000000000004</ele><time>2026-04-12T08:50:21Z</time></trkpt><trkpt lat="44.651584588827845" lon="12.138747807119554"><ele>2.5999999999999996</ele><time>2026-04-12T08:50:22.999Z</time></trkpt><trkpt lat="44.651588118893024" lon="12.138618869340512"><ele>2.8</ele><time>2026-04-12T08:50:24.999Z</time></trkpt><trkpt lat="44.651595494382285" lon="12.138489922166873"><ele>3.0</ele><time>2026-04-12T08:50:26.999Z</time></trkpt><trkpt lat="44.65160024541764" lon="12.138363266643392"><ele>3.0</ele><time>2026-04-12T08:50:28.999Z</time></trkpt><trkpt lat="44.65160767102412" lon="12.138234166624924"><ele>3.0</ele><time>2026-04-12T08:50:30.999Z</time></trkpt><trkpt lat="44.65161441983009" lon="12.138103280318575"><ele>3.0</ele><time>2026-04-12T08:50:32.999Z</time></trkpt><trkpt lat="44.65162084758843" lon="12.137970110382595"><ele>3.0</ele><time>2026-04-12T08:50:34.999Z</time></trkpt><trkpt lat="44.65162601218273" lon="12.137834649733305"><ele>3.0</ele><time>2026-04-12T08:50:36.999Z</time></trkpt><trkpt lat="44.65163334758143" lon="12.137701323422117"><ele>2.5</ele><time>2026-04-12T08:50:38.999Z</time></trkpt><trkpt lat="44.651638656796436" lon="12.13756726891211"><ele>2.0</ele><time>2026-04-12T08:50:40.999Z</time></trkpt><trkpt lat="44.65164652804803" lon="12.137438761506036"><ele>1.5</ele><time>2026-04-12T08:50:42.999Z</time></trkpt><trkpt lat="44.65164960980987" lon="12.137325270343197"><ele>1.0</ele><time>2026-04-12T08:50:44.999Z</time></trkpt><trkpt lat="44.651648831493866" lon="12.137217296795301"><ele>0.5</ele><time>2026-04-12T08:50:46.999Z</time></trkpt><trkpt lat="44.65165763605095" lon="12.13712441861335"><ele>0.0</ele><time>2026-04-12T08:50:48.999Z</time></trkpt><trkpt lat="44.65166187827397" lon="12.137021828447267"><ele>0.0</ele><time>2026-04-12T08:50:50.999Z</time></trkpt><trkpt lat="44.65167233625698" lon="12.136911568606248"><ele>0.0</ele><time>2026-04-12T08:50:52.999Z</time></trkpt><trkpt lat="44.651676030613" lon="12.13679992678092"><ele>0.0</ele><time>2026-04-12T08:50:54.999Z</time></trkpt><trkpt lat="44.65168063733733" lon="12.136693870479226"><ele>0.0</ele><time>2026-04-12T08:50:56.999Z</time></trkpt><trkpt lat="44.65168592185918" lon="12.136584417216682"><ele>0.0</ele><time>2026-04-12T08:50:58.999Z</time></trkpt><trkpt lat="44.65169385067375" lon="12.136476866846891"><ele>0.0</ele><time>2026-04-12T08:51:00.999Z</time></trkpt><trkpt lat="44.65169837785736" lon="12.136366978077357"><ele>-0.16666666666666666</ele><time>2026-04-12T08:51:02.999Z</time></trkpt><trkpt lat="44.65170491717441" lon="12.136261937233972"><ele>-0.3333333333333333</ele><time>2026-04-12T08:51:04.999Z</time></trkpt><trkpt lat="44.65171076920008" lon="12.136150012537534"><ele>-0.5</ele><time>2026-04-12T08:51:06.999Z</time></trkpt><trkpt lat="44.65171645048063" lon="12.13603370482885"><ele>-0.6666666666666666</ele><time>2026-04-12T08:51:08.999Z</time></trkpt><trkpt lat="44.651722408797895" lon="12.135916032322509"><ele>-0.8333333333333333</ele><time>2026-04-12T08:51:10.999Z</time></trkpt><trkpt lat="44.65172941907746" lon="12.135800164075222"><ele>-1.0</ele><time>2026-04-12T08:51:12.999Z</time></trkpt><trkpt lat="44.65173348635138" lon="12.135688160324015"><ele>-0.9999999999999999</ele><time>2026-04-12T08:51:14.999Z</time></trkpt><trkpt lat="44.651738140557086" lon="12.135573900555336"><ele>-1.0</ele><time>2026-04-12T08:51:16.999Z</time></trkpt><trkpt lat="44.651745999981" lon="12.13546630687807"><ele>-1.0</ele><time>2026-04-12T08:51:18.999Z</time></trkpt><trkpt lat="44.651749607201715" lon="12.135355084571938"><ele>-1.0</ele><time>2026-04-12T08:51:20.999Z</time></trkpt><trkpt lat="44.65175480920279" lon="12.13524653757636"><ele>-0.9999999999999999</ele><time>2026-04-12T08:51:22.999Z</time></trkpt><trkpt lat="44.651759786935244" lon="12.135136252776132"><ele>-1.0</ele><time>2026-04-12T08:51:24.999Z</time></trkpt><trkpt lat="44.65176635959543" lon="12.135024057195913"><ele>-0.9999999999999999</ele><time>2026-04-12T08:51:26.999Z</time></trkpt><trkpt lat="44.651771831267205" lon="12.134910479580846"><ele>-1.0</ele><time>2026-04-12T08:51:28.999Z</time></trkpt><trkpt lat="44.65177438431578" lon="12.134797265754552"><ele>-1.0</ele><time>2026-04-12T08:51:30.999Z</time></trkpt><trkpt lat="44.6517807255105" lon="12.13468755781703"><ele>-1.0</ele><time>2026-04-12T08:51:32.999Z</time></trkpt><trkpt lat="44.65178485009569" lon="12.134580370157488"><ele>-0.9999999999999999</ele><time>2026-04-12T08:51:34.999Z</time></trkpt><trkpt lat="44.65179066450032" lon="12.134476035646847"><ele>-1.0</ele><time>2026-04-12T08:51:36.999Z</time></trkpt><trkpt lat="44.6517974938269" lon="12.13436696157511"><ele>-0.8333333333333333</ele><time>2026-04-12T08:51:38.999Z</time></trkpt><trkpt lat="44.6518049459739" lon="12.134258638372561"><ele>-0.6666666666666666</ele><time>2026-04-12T08:51:40.999Z</time></trkpt><trkpt lat="44.651807801393474" lon="12.134148729886755"><ele>-0.5</ele><time>2026-04-12T08:51:42.999Z</time></trkpt><trkpt lat="44.65181296974521" lon="12.134041277025142"><ele>-0.3333333333333333</ele><time>2026-04-12T08:51:44.999Z</time></trkpt><trkpt lat="44.651818963179785" lon="12.133935091119424"><ele>-0.16666666666666666</ele><time>2026-04-12T08:51:46.999Z</time></trkpt><trkpt lat="44.65182329656234" lon="12.133829962051573"><ele>0.0</ele><time>2026-04-12T08:51:48.999Z</time></trkpt><trkpt lat="44.65182733086471" lon="12.13372367626514"><ele>0.0</ele><time>2026-04-12T08:51:50.999Z</time></trkpt><trkpt lat="44.651832263511864" lon="12.133613674938424"><ele>0.0</ele><time>2026-04-12T08:51:52.999Z</time></trkpt><trkpt lat="44.65183725296224" lon="12.133501454404355"><ele>0.0</ele><time>2026-04-12T08:51:54.999Z</time></trkpt><trkpt lat="44.651842437692196" lon="12.133382552899912"><ele>0.0</ele><time>2026-04-12T08:51:56.999Z</time></trkpt><trkpt lat="44.651849287309105" lon="12.133268197354822"><ele>0.0</ele><time>2026-04-12T08:51:59Z</time></trkpt><trkpt lat="44.65185524384796" lon="12.133152823159463"><ele>0.0</ele><time>2026-04-12T08:52:00.999Z</time></trkpt><trkpt lat="44.651859362112745" lon="12.133033653712804"><ele>0.0</ele><time>2026-04-12T08:52:02.999Z</time></trkpt><trkpt lat="44.651864917185534" lon="12.132920038552248"><ele>0.0</ele><time>2026-04-12T08:52:04.999Z</time></trkpt><trkpt lat="44.65187017619697" lon="12.132804297131772"><ele>0.0</ele><time>2026-04-12T08:52:06.999Z</time></trkpt><trkpt lat="44.65187636744272" lon="12.132685986995263"><ele>0.0</ele><time>2026-04-12T08:52:08.999Z</time></trkpt><trkpt lat="44.65188047067168" lon="12.132565181657009"><ele>0.0</ele><time>2026-04-12T08:52:10.999Z</time></trkpt><trkpt lat="44.651883371900446" lon="12.132446727836948"><ele>0.0</ele><time>2026-04-12T08:52:12.999Z</time></trkpt><trkpt lat="44.65188996932823" lon="12.132331927900662"><ele>0.0</ele><time>2026-04-12T08:52:14.999Z</time></trkpt><trkpt lat="44.65189356294047" lon="12.13221332722487"><ele>0.0</ele><time>2026-04-12T08:52:16.999Z</time></trkpt><trkpt lat="44.65190064049861" lon="12.132093931525203"><ele>0.0</ele><time>2026-04-12T08:52:18.999Z</time></trkpt><trkpt lat="44.65190622623119" lon="12.131974039953114"><ele>0.0</ele><time>2026-04-12T08:52:20.999Z</time></trkpt><trkpt lat="44.6519108820873" lon="12.13185916577886"><ele>0.0</ele><time>2026-04-12T08:52:22.999Z</time></trkpt><trkpt lat="44.65191112901372" lon="12.131752851527255"><ele>0.0</ele><time>2026-04-12T08:52:24.999Z</time></trkpt><trkpt lat="44.651919013354465" lon="12.13165311194324"><ele>0.0</ele><time>2026-04-12T08:52:26.999Z</time></trkpt><trkpt lat="44.65192173906678" lon="12.131558470670097"><ele>0.0</ele><time>2026-04-12T08:52:28.999Z</time></trkpt><trkpt lat="44.651921174691005" lon="12.131437113456876"><ele>0.0</ele><time>2026-04-12T08:52:31.999Z</time></trkpt><trkpt lat="44.65192421023646" lon="12.131325738314287"><ele>0.0</ele><time>2026-04-12T08:52:34.999Z</time></trkpt><trkpt lat="44.65192793989338" lon="12.131225891726846"><ele>0.0</ele><time>2026-04-12T08:52:37.999Z</time></trkpt><trkpt lat="44.651943973476" lon="12.131139495109169"><ele>0.0</ele><time>2026-04-12T08:52:40.999Z</time></trkpt><trkpt lat="44.6519463936019" lon="12.131044954029445"><ele>0.0</ele><time>2026-04-12T08:52:53.999Z</time></trkpt><trkpt lat="44.65191614902863" lon="12.130959229722436"><ele>0.0</ele><time>2026-04-12T08:53:02.999Z</time></trkpt><trkpt lat="44.65191437015553" lon="12.130867172700528"><ele>0.0</ele><time>2026-04-12T09:01:05Z</time></trkpt><trkpt lat="44.65195928538282" lon="12.130799706021088"><ele>0.0</ele><time>2026-04-12T09:01:10Z</time></trkpt><trkpt lat="44.65197170862326" lon="12.130687948546337"><ele>0.0</ele><time>2026-04-12T09:01:14Z</time></trkpt><trkpt lat="44.651980417783804" lon="12.130584776056072"><ele>0.0</ele><time>2026-04-12T09:01:18Z</time></trkpt><trkpt lat="44.65198853135745" lon="12.130488668928255"><ele>0.0</ele><time>2026-04-12T09:01:22Z</time></trkpt><trkpt lat="44.6519961451234" lon="12.130370690230437"><ele>0.0</ele><time>2026-04-12T09:01:26Z</time></trkpt><trkpt lat="44.65200060690837" lon="12.13026524217528"><ele>0.0</ele><time>2026-04-12T09:01:29Z</time></trkpt><trkpt lat="44.65200232919124" lon="12.130151607958345"><ele>0.0</ele><time>2026-04-12T09:01:32Z</time></trkpt><trkpt lat="44.65201041567204" lon="12.130035658802255"><ele>0.0</ele><time>2026-04-12T09:01:35Z</time></trkpt><trkpt lat="44.65201648131852" lon="12.129915097031905"><ele>0.0</ele><time>2026-04-12T09:01:38Z</time></trkpt><trkpt lat="44.65202221233296" lon="12.129783689449296"><ele>0.0</ele><time>2026-04-12T09:01:41Z</time></trkpt><trkpt lat="44.652028234129816" lon="12.129687466419979"><ele>0.0</ele><time>2026-04-12T09:01:43Z</time></trkpt><trkpt lat="44.652033210326195" lon="12.129590284587065"><ele>0.0</ele><time>2026-04-12T09:01:45Z</time></trkpt><trkpt lat="44.652038625020296" lon="12.129488577306763"><ele>0.0</ele><time>2026-04-12T09:01:47Z</time></trkpt><trkpt lat="44.65204468619457" lon="12.12938097757858"><ele>0.0</ele><time>2026-04-12T09:01:49Z</time></trkpt><trkpt lat="44.65204905559476" lon="12.129276502251528"><ele>0.0</ele><time>2026-04-12T09:01:51Z</time></trkpt><trkpt lat="44.65205414928979" lon="12.129169249180004"><ele>0.0</ele><time>2026-04-12T09:01:53Z</time></trkpt><trkpt lat="44.65205967325568" lon="12.129056823413771"><ele>0.0</ele><time>2026-04-12T09:01:55Z</time></trkpt><trkpt lat="44.652061586889694" lon="12.128942299375467"><ele>-0.2</ele><time>2026-04-12T09:01:57Z</time></trkpt><trkpt lat="44.65206863522755" lon="12.128820164928936"><ele>-0.4</ele><time>2026-04-12T09:01:59Z</time></trkpt><trkpt lat="44.65207355213714" lon="12.12869647423308"><ele>-0.6000000000000001</ele><time>2026-04-12T09:02:01Z</time></trkpt><trkpt lat="44.65207925676101" lon="12.128564523067237"><ele>-0.8</ele><time>2026-04-12T09:02:03Z</time></trkpt><trkpt lat="44.65208352849772" lon="12.128434134749627"><ele>-1.0</ele><time>2026-04-12T09:02:05Z</time></trkpt><trkpt lat="44.652090853755595" lon="12.128309418812355"><ele>-0.9999999999999999</ele><time>2026-04-12T09:02:07Z</time></trkpt><trkpt lat="44.65209633858519" lon="12.128188489500848"><ele>-1.0</ele><time>2026-04-12T09:02:09Z</time></trkpt><trkpt lat="44.65210305327334" lon="12.128061136404927"><ele>-1.0</ele><time>2026-04-12T09:02:11Z</time></trkpt><trkpt lat="44.65210738554214" lon="12.127939719611236"><ele>-1.0</ele><time>2026-04-12T09:02:13Z</time></trkpt><trkpt lat="44.65211297765979" lon="12.127823277104666"><ele>-0.9999999999999999</ele><time>2026-04-12T09:02:15Z</time></trkpt><trkpt lat="44.65211855785314" lon="12.12770944706286"><ele>-1.0</ele><time>2026-04-12T09:02:17Z</time></trkpt><trkpt lat="44.65212128339419" lon="12.127609416238466"><ele>-1.0</ele><time>2026-04-12T09:02:19Z</time></trkpt><trkpt lat="44.652125991128884" lon="12.127507526938386"><ele>-0.9999999999999999</ele><time>2026-04-12T09:02:21Z</time></trkpt><trkpt lat="44.65213047139502" lon="12.127410104517448"><ele>-1.0</ele><time>2026-04-12T09:02:23Z</time></trkpt><trkpt lat="44.65213427772532" lon="12.127308148629481"><ele>-1.0</ele><time>2026-04-12T09:02:25Z</time></trkpt><trkpt lat="44.652143352045094" lon="12.127207909058408"><ele>-0.9999999999999999</ele><time>2026-04-12T09:02:27Z</time></trkpt><trkpt lat="44.65214542198783" lon="12.127108470114894"><ele>-1.0</ele><time>2026-04-12T09:02:29Z</time></trkpt><trkpt lat="44.652151092271076" lon="12.12700436774849"><ele>-1.0</ele><time>2026-04-12T09:02:31Z</time></trkpt><trkpt lat="44.65215274249309" lon="12.126898028380646"><ele>-0.8333333333333333</ele><time>2026-04-12T09:02:33Z</time></trkpt><trkpt lat="44.65215888442944" lon="12.12679062496588"><ele>-0.6666666666666666</ele><time>2026-04-12T09:02:35Z</time></trkpt><trkpt lat="44.65216465457907" lon="12.126682495864321"><ele>-0.5</ele><time>2026-04-12T09:02:37Z</time></trkpt><trkpt lat="44.65216943211778" lon="12.126573755804706"><ele>-0.3333333333333333</ele><time>2026-04-12T09:02:39Z</time></trkpt><trkpt lat="44.652174250831145" lon="12.126463972054108"><ele>-0.16666666666666666</ele><time>2026-04-12T09:02:41Z</time></trkpt><trkpt lat="44.65217881807512" lon="12.126360590275109"><ele>0.0</ele><time>2026-04-12T09:02:43Z</time></trkpt><trkpt lat="44.652183219629826" lon="12.12625346429406"><ele>0.0</ele><time>2026-04-12T09:02:45Z</time></trkpt><trkpt lat="44.65218769132457" lon="12.126147551080708"><ele>0.0</ele><time>2026-04-12T09:02:47Z</time></trkpt><trkpt lat="44.65219499811102" lon="12.126035619915774"><ele>0.0</ele><time>2026-04-12T09:02:49Z</time></trkpt><trkpt lat="44.65219999835163" lon="12.125921880918769"><ele>0.0</ele><time>2026-04-12T09:02:51Z</time></trkpt><trkpt lat="44.65220660688089" lon="12.12580552009983"><ele>0.0</ele><time>2026-04-12T09:02:53Z</time></trkpt><trkpt lat="44.652211169162975" lon="12.125690207267384"><ele>0.0</ele><time>2026-04-12T09:02:55Z</time></trkpt><trkpt lat="44.652220493865755" lon="12.1255786804024"><ele>-0.16666666666666666</ele><time>2026-04-12T09:02:57Z</time></trkpt><trkpt lat="44.65222365249718" lon="12.125477441933953"><ele>-0.3333333333333333</ele><time>2026-04-12T09:02:59Z</time></trkpt><trkpt lat="44.652229636513376" lon="12.125349546177262"><ele>-0.5</ele><time>2026-04-12T09:03:02Z</time></trkpt><trkpt lat="44.6522349307319" lon="12.125220293042181"><ele>-0.6666666666666666</ele><time>2026-04-12T09:03:05Z</time></trkpt><trkpt lat="44.6522429194579" lon="12.125128973652169"><ele>-0.8333333333333333</ele><time>2026-04-12T09:03:07Z</time></trkpt><trkpt lat="44.6522466797925" lon="12.12502973692907"><ele>-1.0</ele><time>2026-04-12T09:03:09Z</time></trkpt><trkpt lat="44.652249873495315" lon="12.12493166794763"><ele>-1.1428571428571428</ele><time>2026-04-12T09:03:11Z</time></trkpt><trkpt lat="44.65225285443418" lon="12.124833501046437"><ele>-1.2857142857142856</ele><time>2026-04-12T09:03:13Z</time></trkpt><trkpt lat="44.652258421316475" lon="12.124732205053597"><ele>-1.4285714285714284</ele><time>2026-04-12T09:03:15Z</time></trkpt><trkpt lat="44.65226350613452" lon="12.124632413511078"><ele>-1.5714285714285714</ele><time>2026-04-12T09:03:17Z</time></trkpt><trkpt lat="44.65226620113362" lon="12.12453031924341"><ele>-1.714285714285714</ele><time>2026-04-12T09:03:19Z</time></trkpt><trkpt lat="44.65227171227591" lon="12.124426606962428"><ele>-1.857142857142857</ele><time>2026-04-12T09:03:21Z</time></trkpt><trkpt lat="44.6522779954535" lon="12.124321297512122"><ele>-2.0</ele><time>2026-04-12T09:03:23Z</time></trkpt><trkpt lat="44.65228297555892" lon="12.124215413485564"><ele>-2.0</ele><time>2026-04-12T09:03:25Z</time></trkpt><trkpt lat="44.65228811938224" lon="12.124114380708553"><ele>-1.9999999999999998</ele><time>2026-04-12T09:03:27Z</time></trkpt><trkpt lat="44.65229162766422" lon="12.124009199925203"><ele>-2.0</ele><time>2026-04-12T09:03:29Z</time></trkpt><trkpt lat="44.65229913714832" lon="12.123905031959987"><ele>-2.0</ele><time>2026-04-12T09:03:31Z</time></trkpt><trkpt lat="44.652300886334174" lon="12.123804220932115"><ele>-1.9999999999999998</ele><time>2026-04-12T09:03:33Z</time></trkpt><trkpt lat="44.652305618431676" lon="12.123699752526177"><ele>-2.0</ele><time>2026-04-12T09:03:35Z</time></trkpt><trkpt lat="44.65230863745332" lon="12.123595783931087"><ele>-2.0</ele><time>2026-04-12T09:03:37Z</time></trkpt><trkpt lat="44.65231743294594" lon="12.123493433849283"><ele>-1.857142857142857</ele><time>2026-04-12T09:03:39Z</time></trkpt><trkpt lat="44.65231949334551" lon="12.12339280568694"><ele>-1.714285714285714</ele><time>2026-04-12T09:03:41Z</time></trkpt><trkpt lat="44.652323143406335" lon="12.123285475544382"><ele>-1.5714285714285714</ele><time>2026-04-12T09:03:43Z</time></trkpt><trkpt lat="44.65232778757221" lon="12.12318022243392"><ele>-1.4285714285714284</ele><time>2026-04-12T09:03:45Z</time></trkpt><trkpt lat="44.65233382177748" lon="12.123078941955802"><ele>-1.2857142857142856</ele><time>2026-04-12T09:03:47Z</time></trkpt><trkpt lat="44.652336432153895" lon="12.122980282124065"><ele>-1.1428571428571428</ele><time>2026-04-12T09:03:49Z</time></trkpt><trkpt lat="44.652343354020616" lon="12.122881938097208"><ele>-1.0</ele><time>2026-04-12T09:03:51Z</time></trkpt><trkpt lat="44.65234907863112" lon="12.12277623379428"><ele>-0.9999999999999999</ele><time>2026-04-12T09:03:53Z</time></trkpt><trkpt lat="44.652354107740706" lon="12.122672251092613"><ele>-1.0</ele><time>2026-04-12T09:03:55Z</time></trkpt><trkpt lat="44.65235879561637" lon="12.122562957009025"><ele>-1.0</ele><time>2026-04-12T09:03:57Z</time></trkpt><trkpt lat="44.65236309850323" lon="12.122455196266294"><ele>-1.0</ele><time>2026-04-12T09:03:59Z</time></trkpt><trkpt lat="44.65237097297885" lon="12.122350875655027"><ele>-0.9999999999999999</ele><time>2026-04-12T09:04:01Z</time></trkpt><trkpt lat="44.652374916047854" lon="12.122242066648665"><ele>-1.0</ele><time>2026-04-12T09:04:03Z</time></trkpt><trkpt lat="44.65237935206416" lon="12.122130176552087"><ele>-0.9999999999999999</ele><time>2026-04-12T09:04:05Z</time></trkpt><trkpt lat="44.65238553863545" lon="12.12202358786882"><ele>-1.0</ele><time>2026-04-12T09:04:07Z</time></trkpt><trkpt lat="44.65238651482781" lon="12.121912668862088"><ele>-1.0</ele><time>2026-04-12T09:04:09Z</time></trkpt><trkpt lat="44.65239016367909" lon="12.121801713132053"><ele>-1.0</ele><time>2026-04-12T09:04:11Z</time></trkpt><trkpt lat="44.65239483046879" lon="12.12169423606957"><ele>-0.9999999999999999</ele><time>2026-04-12T09:04:13Z</time></trkpt><trkpt lat="44.65239929229045" lon="12.121578283194127"><ele>-1.0</ele><time>2026-04-12T09:04:15Z</time></trkpt><trkpt lat="44.6524004067615" lon="12.121466599811406"><ele>-0.8333333333333333</ele><time>2026-04-12T09:04:17Z</time></trkpt><trkpt lat="44.65240077049027" lon="12.121356258695135"><ele>-0.6666666666666666</ele><time>2026-04-12T09:04:19Z</time></trkpt><trkpt lat="44.65240700151134" lon="12.121247735071302"><ele>-0.5</ele><time>2026-04-12T09:04:21Z</time></trkpt><trkpt lat="44.65240636950451" lon="12.121126661842279"><ele>-0.3333333333333333</ele><time>2026-04-12T09:04:23Z</time></trkpt><trkpt lat="44.65240667691641" lon="12.121014248408542"><ele>-0.16666666666666666</ele><time>2026-04-12T09:04:25Z</time></trkpt><trkpt lat="44.652404608443" lon="12.120899092980011"><ele>0.0</ele><time>2026-04-12T09:04:27Z</time></trkpt><trkpt lat="44.65240238829849" lon="12.12078496734008"><ele>-0.3333333333333333</ele><time>2026-04-12T09:04:29Z</time></trkpt><trkpt lat="44.65240419691417" lon="12.120671408593076"><ele>-0.6666666666666666</ele><time>2026-04-12T09:04:31Z</time></trkpt><trkpt lat="44.65240131636801" lon="12.120557768052855"><ele>-1.0</ele><time>2026-04-12T09:04:33Z</time></trkpt><trkpt lat="44.65240351134881" lon="12.120446503508878"><ele>-1.3333333333333333</ele><time>2026-04-12T09:04:35Z</time></trkpt><trkpt lat="44.652402718046645" lon="12.120336966554262"><ele>-1.6666666666666665</ele><time>2026-04-12T09:04:37Z</time></trkpt><trkpt lat="44.652403897868204" lon="12.120229996141779"><ele>-2.0</ele><time>2026-04-12T09:04:39Z</time></trkpt><trkpt lat="44.65240739954573" lon="12.120125213039243"><ele>-1.9999999999999998</ele><time>2026-04-12T09:04:41Z</time></trkpt><trkpt lat="44.6524064126698" lon="12.12002174281213"><ele>-2.0</ele><time>2026-04-12T09:04:43Z</time></trkpt><trkpt lat="44.652406738784755" lon="12.11991464303911"><ele>-2.0</ele><time>2026-04-12T09:04:45Z</time></trkpt><trkpt lat="44.65240571172075" lon="12.119800923760305"><ele>-2.0</ele><time>2026-04-12T09:04:47Z</time></trkpt><trkpt lat="44.652404262944316" lon="12.119687319937496"><ele>-1.9999999999999998</ele><time>2026-04-12T09:04:49Z</time></trkpt><trkpt lat="44.652406384799356" lon="12.119574596954228"><ele>-2.0</ele><time>2026-04-12T09:04:51Z</time></trkpt><trkpt lat="44.65240619000244" lon="12.119460403674443"><ele>-1.9999999999999998</ele><time>2026-04-12T09:04:53Z</time></trkpt><trkpt lat="44.652408231133926" lon="12.119344755337096"><ele>-2.0</ele><time>2026-04-12T09:04:55Z</time></trkpt><trkpt lat="44.65240563848019" lon="12.119226546074673"><ele>-2.0</ele><time>2026-04-12T09:04:57Z</time></trkpt><trkpt lat="44.65240689137651" lon="12.119111435291247"><ele>-2.0</ele><time>2026-04-12T09:04:59Z</time></trkpt><trkpt lat="44.65240806696968" lon="12.118997608341372"><ele>-1.9999999999999998</ele><time>2026-04-12T09:05:01Z</time></trkpt><trkpt lat="44.65241008283396" lon="12.118883363845782"><ele>-2.0</ele><time>2026-04-12T09:05:03Z</time></trkpt><trkpt lat="44.65241111051889" lon="12.118764235028232"><ele>-1.8333333333333333</ele><time>2026-04-12T09:05:05Z</time></trkpt><trkpt lat="44.65240923847442" lon="12.118647480820467"><ele>-1.6666666666666665</ele><time>2026-04-12T09:05:07Z</time></trkpt><trkpt lat="44.6524099858313" lon="12.118530990072161"><ele>-1.5</ele><time>2026-04-12T09:05:09Z</time></trkpt><trkpt lat="44.65241213193943" lon="12.118420688403983"><ele>-1.3333333333333333</ele><time>2026-04-12T09:05:11Z</time></trkpt><trkpt lat="44.65241111303216" lon="12.118309909922562"><ele>-1.1666666666666665</ele><time>2026-04-12T09:05:13Z</time></trkpt><trkpt lat="44.65241057497763" lon="12.118210974534064"><ele>-1.0</ele><time>2026-04-12T09:05:15Z</time></trkpt><trkpt lat="44.65241049768009" lon="12.118117150333605"><ele>-0.9999999999999999</ele><time>2026-04-12T09:05:17Z</time></trkpt><trkpt lat="44.65241147408153" lon="12.117998927380285"><ele>-1.0</ele><time>2026-04-12T09:05:20Z</time></trkpt><trkpt lat="44.652414362210976" lon="12.117874843724492"><ele>-1.0</ele><time>2026-04-12T09:05:23Z</time></trkpt><trkpt lat="44.65240455296684" lon="12.11774448649162"><ele>-1.0</ele><time>2026-04-12T09:05:26Z</time></trkpt><trkpt lat="44.65240881827303" lon="12.117652128771134"><ele>-0.9999999999999999</ele><time>2026-04-12T09:05:28Z</time></trkpt><trkpt lat="44.6524075104579" lon="12.117561101582938"><ele>-1.0</ele><time>2026-04-12T09:05:30Z</time></trkpt><trkpt lat="44.65240596913544" lon="12.117466920126905"><ele>-1.0</ele><time>2026-04-12T09:05:32Z</time></trkpt><trkpt lat="44.65240966666467" lon="12.117374528761648"><ele>-0.9999999999999999</ele><time>2026-04-12T09:05:34Z</time></trkpt><trkpt lat="44.652408682738155" lon="12.117284052622562"><ele>-1.0</ele><time>2026-04-12T09:05:36Z</time></trkpt><trkpt lat="44.65241099413187" lon="12.117193674190826"><ele>-1.0</ele><time>2026-04-12T09:05:38Z</time></trkpt><trkpt lat="44.6524170741903" lon="12.117063042142847"><ele>-0.9999999999999999</ele><time>2026-04-12T09:05:41Z</time></trkpt><trkpt lat="44.65241666029818" lon="12.116972848655973"><ele>-1.0</ele><time>2026-04-12T09:05:43Z</time></trkpt><trkpt lat="44.65241567819349" lon="12.116880341659709"><ele>-1.0</ele><time>2026-04-12T09:05:45Z</time></trkpt><trkpt lat="44.652416158993745" lon="12.116789359207917"><ele>-1.0</ele><time>2026-04-12T09:05:47Z</time></trkpt><trkpt lat="44.6524151403297" lon="12.11668743670995"><ele>-0.9999999999999999</ele><time>2026-04-12T09:05:49Z</time></trkpt><trkpt lat="44.652419104861835" lon="12.116595967831556"><ele>-1.0</ele><time>2026-04-12T09:05:51Z</time></trkpt><trkpt lat="44.652418116116365" lon="12.116502332139191"><ele>-1.0</ele><time>2026-04-12T09:05:53Z</time></trkpt><trkpt lat="44.65241921514503" lon="12.116404805095778"><ele>-0.9999999999999999</ele><time>2026-04-12T09:05:55Z</time></trkpt><trkpt lat="44.65241891173272" lon="12.116298987723901"><ele>-1.0</ele><time>2026-04-12T09:05:57Z</time></trkpt><trkpt lat="44.65241860052372" lon="12.116193325432997"><ele>-1.0</ele><time>2026-04-12T09:05:59Z</time></trkpt><trkpt lat="44.65241964594418" lon="12.116099874205391"><ele>-0.8571428571428571</ele><time>2026-04-12T09:06:01Z</time></trkpt><trkpt lat="44.652416407045926" lon="12.116005510860859"><ele>-0.7142857142857142</ele><time>2026-04-12T09:06:03Z</time></trkpt><trkpt lat="44.65242091421877" lon="12.115880986266069"><ele>-0.5714285714285714</ele><time>2026-04-12T09:06:06Z</time></trkpt><trkpt lat="44.652415093172145" lon="12.115788152011882"><ele>-0.42857142857142855</ele><time>2026-04-12T09:06:08Z</time></trkpt><trkpt lat="44.652417931251335" lon="12.115692724852048"><ele>-0.2857142857142857</ele><time>2026-04-12T09:06:10Z</time></trkpt><trkpt lat="44.652418858604236" lon="12.11559608745288"><ele>-0.14285714285714285</ele><time>2026-04-12T09:06:12Z</time></trkpt><trkpt lat="44.65241818572543" lon="12.11549429052605"><ele>0.0</ele><time>2026-04-12T09:06:14Z</time></trkpt><trkpt lat="44.65241923409092" lon="12.115395559786082"><ele>0.14285714285714285</ele><time>2026-04-12T09:06:16Z</time></trkpt><trkpt lat="44.652417468300555" lon="12.115296877177208"><ele>0.2857142857142857</ele><time>2026-04-12T09:06:18Z</time></trkpt><trkpt lat="44.65241617752932" lon="12.115194030769139"><ele>0.42857142857142855</ele><time>2026-04-12T09:06:20Z</time></trkpt><trkpt lat="44.652415668772726" lon="12.11509460440365"><ele>0.5714285714285714</ele><time>2026-04-12T09:06:22Z</time></trkpt><trkpt lat="44.65242377254091" lon="12.114995118795433"><ele>0.7142857142857142</ele><time>2026-04-12T09:06:24Z</time></trkpt><trkpt lat="44.652422453804895" lon="12.114890095850082"><ele>0.8571428571428571</ele><time>2026-04-12T09:06:26Z</time></trkpt><trkpt lat="44.65241977047356" lon="12.114787641718655"><ele>1.0</ele><time>2026-04-12T09:06:28Z</time></trkpt><trkpt lat="44.652416775923015" lon="12.114682885011554"><ele>1.1666666666666665</ele><time>2026-04-12T09:06:30Z</time></trkpt><trkpt lat="44.65241665184132" lon="12.114578684238165"><ele>1.3333333333333333</ele><time>2026-04-12T09:06:32Z</time></trkpt><trkpt lat="44.652419150677986" lon="12.114477073937657"><ele>1.5</ele><time>2026-04-12T09:06:34Z</time></trkpt><trkpt lat="44.65241677410392" lon="12.114369333971041"><ele>1.6666666666666665</ele><time>2026-04-12T09:06:36Z</time></trkpt><trkpt lat="44.65242189938452" lon="12.11427100495237"><ele>1.8333333333333333</ele><time>2026-04-12T09:06:38Z</time></trkpt><trkpt lat="44.65241831932598" lon="12.11415968106619"><ele>2.0</ele><time>2026-04-12T09:06:40Z</time></trkpt><trkpt lat="44.65241790515453" lon="12.114048518859482"><ele>2.333333333333333</ele><time>2026-04-12T09:06:42Z</time></trkpt><trkpt lat="44.65241848718815" lon="12.113943921465948"><ele>2.6666666666666665</ele><time>2026-04-12T09:06:44Z</time></trkpt><trkpt lat="44.65241941580125" lon="12.11383874201275"><ele>3.0</ele><time>2026-04-12T09:06:46Z</time></trkpt><trkpt lat="44.652419938744686" lon="12.113726399214203"><ele>3.333333333333333</ele><time>2026-04-12T09:06:48Z</time></trkpt><trkpt lat="44.65242235693726" lon="12.113615011154273"><ele>3.6666666666666665</ele><time>2026-04-12T09:06:50Z</time></trkpt><trkpt lat="44.65241582673839" lon="12.113506940863976"><ele>4.0</ele><time>2026-04-12T09:06:52Z</time></trkpt><trkpt lat="44.65242015001506" lon="12.113404198099678"><ele>3.9999999999999996</ele><time>2026-04-12T09:06:54Z</time></trkpt><trkpt lat="44.65242277175421" lon="12.113287043738934"><ele>4.0</ele><time>2026-04-12T09:06:56Z</time></trkpt><trkpt lat="44.65242619840137" lon="12.11316459624004"><ele>4.0</ele><time>2026-04-12T09:06:58Z</time></trkpt><trkpt lat="44.65242194610849" lon="12.113050459971921"><ele>4.0</ele><time>2026-04-12T09:07:00Z</time></trkpt><trkpt lat="44.6524221405368" lon="12.112930510072086"><ele>3.9999999999999996</ele><time>2026-04-12T09:07:02Z</time></trkpt><trkpt lat="44.65242244592489" lon="12.112817184080274"><ele>4.0</ele><time>2026-04-12T09:07:04Z</time></trkpt><trkpt lat="44.652425191619486" lon="12.112707756417958"><ele>3.714285714285714</ele><time>2026-04-12T09:07:06Z</time></trkpt><trkpt lat="44.6524277586135" lon="12.112599230429337"><ele>3.428571428571428</ele><time>2026-04-12T09:07:08Z</time></trkpt><trkpt lat="44.65242785687682" lon="12.11249922759846"><ele>3.142857142857143</ele><time>2026-04-12T09:07:10Z</time></trkpt><trkpt lat="44.65242889178247" lon="12.11241049688379"><ele>2.8571428571428568</ele><time>2026-04-12T09:07:12Z</time></trkpt><trkpt lat="44.65242319043067" lon="12.112315728484276"><ele>2.571428571428571</ele><time>2026-04-12T09:07:14Z</time></trkpt><trkpt lat="44.65242417412083" lon="12.112204824432443"><ele>2.2857142857142856</ele><time>2026-04-12T09:07:17Z</time></trkpt><trkpt lat="44.65242561890178" lon="12.112114659153153"><ele>2.0</ele><time>2026-04-12T09:07:19Z</time></trkpt><trkpt lat="44.6524297955965" lon="12.112020877264193"><ele>1.857142857142857</ele><time>2026-04-12T09:07:21Z</time></trkpt><trkpt lat="44.65242737226488" lon="12.111923645575631"><ele>1.714285714285714</ele><time>2026-04-12T09:07:23Z</time></trkpt><trkpt lat="44.65243111351082" lon="12.111818136405795"><ele>1.5714285714285714</ele><time>2026-04-12T09:07:25Z</time></trkpt><trkpt lat="44.65242986786603" lon="12.111707761628058"><ele>1.4285714285714284</ele><time>2026-04-12T09:07:27Z</time></trkpt><trkpt lat="44.65242834625171" lon="12.11159828845383"><ele>1.2857142857142856</ele><time>2026-04-12T09:07:29Z</time></trkpt><trkpt lat="44.65242921506201" lon="12.111496729796231"><ele>1.1428571428571428</ele><time>2026-04-12T09:07:31Z</time></trkpt><trkpt lat="44.652428479870494" lon="12.111396352231003"><ele>1.0</ele><time>2026-04-12T09:07:33Z</time></trkpt><trkpt lat="44.652428730280924" lon="12.111292674612375"><ele>0.6666666666666666</ele><time>2026-04-12T09:07:35Z</time></trkpt><trkpt lat="44.652428692288325" lon="12.111183598482025"><ele>0.3333333333333333</ele><time>2026-04-12T09:07:37Z</time></trkpt><trkpt lat="44.652427495626476" lon="12.111077406451345"><ele>0.0</ele><time>2026-04-12T09:07:39Z</time></trkpt><trkpt lat="44.65243174710641" lon="12.110976763514437"><ele>-0.3333333333333333</ele><time>2026-04-12T09:07:41Z</time></trkpt><trkpt lat="44.65243007807271" lon="12.110873770375825"><ele>-0.6666666666666666</ele><time>2026-04-12T09:07:43Z</time></trkpt><trkpt lat="44.65243048758852" lon="12.110766116376487"><ele>-1.0</ele><time>2026-04-12T09:07:45Z</time></trkpt><trkpt lat="44.65242831000377" lon="12.110654909754844"><ele>-1.1666666666666665</ele><time>2026-04-12T09:07:47Z</time></trkpt><trkpt lat="44.652428550368036" lon="12.110541705789334"><ele>-1.3333333333333333</ele><time>2026-04-12T09:07:49Z</time></trkpt><trkpt lat="44.65242729376192" lon="12.11042993152931"><ele>-1.5</ele><time>2026-04-12T09:07:51Z</time></trkpt><trkpt lat="44.65242138386324" lon="12.11031319032867"><ele>-1.6666666666666665</ele><time>2026-04-12T09:07:53Z</time></trkpt><trkpt lat="44.652426446265" lon="12.110206932426209"><ele>-1.8333333333333333</ele><time>2026-04-12T09:07:55Z</time></trkpt><trkpt lat="44.652428508372736" lon="12.11010734821385"><ele>-2.0</ele><time>2026-04-12T09:07:57Z</time></trkpt><trkpt lat="44.65242948743552" lon="12.110013218942608"><ele>-2.0</ele><time>2026-04-12T09:07:59Z</time></trkpt><trkpt lat="44.652431632054885" lon="12.109920739932287"><ele>-1.9999999999999998</ele><time>2026-04-12T09:08:01Z</time></trkpt><trkpt lat="44.65242975068138" lon="12.109812499651694"><ele>-2.0</ele><time>2026-04-12T09:08:03Z</time></trkpt><trkpt lat="44.65243452604109" lon="12.109708956305486"><ele>-2.0</ele><time>2026-04-12T09:08:05Z</time></trkpt><trkpt lat="44.65243224051874" lon="12.109600668727133"><ele>-1.9999999999999998</ele><time>2026-04-12T09:08:07Z</time></trkpt><trkpt lat="44.65243882875285" lon="12.10949416484911"><ele>-2.0</ele><time>2026-04-12T09:08:09Z</time></trkpt><trkpt lat="44.652436841969845" lon="12.109386307776802"><ele>-2.0</ele><time>2026-04-12T09:08:11Z</time></trkpt><trkpt lat="44.65243900875846" lon="12.109276216994271"><ele>-1.9999999999999998</ele><time>2026-04-12T09:08:13Z</time></trkpt><trkpt lat="44.652438151216224" lon="12.109161921472523"><ele>-2.0</ele><time>2026-04-12T09:08:15Z</time></trkpt><trkpt lat="44.65243802743136" lon="12.109049505596953"><ele>-2.0</ele><time>2026-04-12T09:08:17Z</time></trkpt><trkpt lat="44.652440851671315" lon="12.10892971351629"><ele>-2.0</ele><time>2026-04-12T09:08:19Z</time></trkpt><trkpt lat="44.65244146706153" lon="12.108806054397508"><ele>-1.9999999999999998</ele><time>2026-04-12T09:08:21Z</time></trkpt><trkpt lat="44.652441361319276" lon="12.108686945104177"><ele>-2.0</ele><time>2026-04-12T09:08:23Z</time></trkpt><trkpt lat="44.65244310553332" lon="12.108573813869219"><ele>-2.0</ele><time>2026-04-12T09:08:25Z</time></trkpt><trkpt lat="44.65244302634345" lon="12.108467526149965"><ele>-1.9999999999999998</ele><time>2026-04-12T09:08:27Z</time></trkpt><trkpt lat="44.652444282937466" lon="12.108374642704286"><ele>-2.0</ele><time>2026-04-12T09:08:29Z</time></trkpt><trkpt lat="44.65244582188127" lon="12.108284548029873"><ele>-2.0</ele><time>2026-04-12T09:08:31Z</time></trkpt><trkpt lat="44.65245197847262" lon="12.108145495080706"><ele>-1.9999999999999998</ele><time>2026-04-12T09:08:34Z</time></trkpt><trkpt lat="44.6524542136416" lon="12.108046836191397"><ele>-2.0</ele><time>2026-04-12T09:08:36Z</time></trkpt><trkpt lat="44.65245549323644" lon="12.107955219841063"><ele>-2.0</ele><time>2026-04-12T09:08:38Z</time></trkpt><trkpt lat="44.652455991838124" lon="12.107825926580716"><ele>-1.8333333333333333</ele><time>2026-04-12T09:08:41Z</time></trkpt><trkpt lat="44.652441941311885" lon="12.107716979715722"><ele>-1.6666666666666665</ele><time>2026-04-12T09:08:44Z</time></trkpt><trkpt lat="44.65242991110887" lon="12.107582524654042"><ele>-1.5</ele><time>2026-04-12T09:08:47Z</time></trkpt><trkpt lat="44.652394619367584" lon="12.107454333529603"><ele>-1.3333333333333333</ele><time>2026-04-12T09:08:50Z</time></trkpt><trkpt lat="44.652364702613745" lon="12.107340461658854"><ele>-1.1666666666666665</ele><time>2026-04-12T09:08:53Z</time></trkpt><trkpt lat="44.65232536915668" lon="12.107230770794812"><ele>-1.0</ele><time>2026-04-12T09:08:56Z</time></trkpt><trkpt lat="44.6523155411062" lon="12.107125188425705"><ele>-0.8333333333333333</ele><time>2026-04-12T09:08:59Z</time></trkpt><trkpt lat="44.652276762431505" lon="12.107025314788572"><ele>-0.6666666666666666</ele><time>2026-04-12T09:09:02Z</time></trkpt><trkpt lat="44.65224127715907" lon="12.106923149609731"><ele>-0.5</ele><time>2026-04-12T09:09:05Z</time></trkpt><trkpt lat="44.65222218177413" lon="12.106822287433566"><ele>-0.3333333333333333</ele><time>2026-04-12T09:09:08Z</time></trkpt><trkpt lat="44.65220364396828" lon="12.106720586645748"><ele>-0.16666666666666666</ele><time>2026-04-12T09:09:12Z</time></trkpt><trkpt lat="44.652171118977456" lon="12.106643284288927"><ele>0.0</ele><time>2026-04-12T09:09:15Z</time></trkpt><trkpt lat="44.65209170194646" lon="12.106607926979104"><ele>0.0</ele><time>2026-04-12T09:09:18Z</time></trkpt><trkpt lat="44.652011399416494" lon="12.106622725885776"><ele>0.0</ele><time>2026-04-12T09:09:21Z</time></trkpt><trkpt lat="44.65194528619288" lon="12.106625288436828"><ele>0.0</ele><time>2026-04-12T09:10:09Z</time></trkpt><trkpt lat="44.65188156114414" lon="12.106648769246041"><ele>0.0</ele><time>2026-04-12T09:10:18Z</time></trkpt><trkpt lat="44.65181289406186" lon="12.106652557319775"><ele>0.0</ele><time>2026-04-12T09:10:21Z</time></trkpt><trkpt lat="44.651749875425416" lon="12.106667031284754"><ele>0.0</ele><time>2026-04-12T09:10:23Z</time></trkpt><trkpt lat="44.651666713700635" lon="12.106681219388973"><ele>0.0</ele><time>2026-04-12T09:10:25Z</time></trkpt><trkpt lat="44.65157866813315" lon="12.106710152469505"><ele>-0.2</ele><time>2026-04-12T09:10:27Z</time></trkpt><trkpt lat="44.65149675080626" lon="12.10670927349188"><ele>-0.4</ele><time>2026-04-12T09:10:29Z</time></trkpt><trkpt lat="44.65139894318812" lon="12.106722438029232"><ele>-0.6000000000000001</ele><time>2026-04-12T09:10:31Z</time></trkpt><trkpt lat="44.651303305749614" lon="12.106731467344057"><ele>-0.8</ele><time>2026-04-12T09:10:33Z</time></trkpt><trkpt lat="44.65120903783492" lon="12.106747777475961"><ele>-1.0</ele><time>2026-04-12T09:10:35Z</time></trkpt><trkpt lat="44.65111076219271" lon="12.106759309336647"><ele>-1.2000000000000002</ele><time>2026-04-12T09:10:37Z</time></trkpt><trkpt lat="44.65101061411324" lon="12.106775870643325"><ele>-1.4000000000000001</ele><time>2026-04-12T09:10:39Z</time></trkpt><trkpt lat="44.65090759480029" lon="12.106791793613468"><ele>-1.6</ele><time>2026-04-12T09:10:41Z</time></trkpt><trkpt lat="44.65080437710458" lon="12.106809705360114"><ele>-1.8</ele><time>2026-04-12T09:10:43Z</time></trkpt><trkpt lat="44.65069941375038" lon="12.106823125246486"><ele>-2.0</ele><time>2026-04-12T09:10:45Z</time></trkpt><trkpt lat="44.65059444607229" lon="12.106838223533444"><ele>-2.0</ele><time>2026-04-12T09:10:47Z</time></trkpt><trkpt lat="44.65049232712035" lon="12.10685479490073"><ele>-2.0</ele><time>2026-04-12T09:10:49Z</time></trkpt><trkpt lat="44.65038894688411" lon="12.106873621689314"><ele>-2.0</ele><time>2026-04-12T09:10:51Z</time></trkpt><trkpt lat="44.65028139979275" lon="12.1068867998306"><ele>-2.0</ele><time>2026-04-12T09:10:53Z</time></trkpt><trkpt lat="44.65017242855239" lon="12.106901378548596"><ele>-2.0</ele><time>2026-04-12T09:10:55Z</time></trkpt><trkpt lat="44.65006154039628" lon="12.106914917064614"><ele>-2.0</ele><time>2026-04-12T09:10:57Z</time></trkpt><trkpt lat="44.64995068461103" lon="12.106933967384684"><ele>-2.0</ele><time>2026-04-12T09:10:59Z</time></trkpt><trkpt lat="44.649836835141635" lon="12.106952121622422"><ele>-2.0</ele><time>2026-04-12T09:11:01Z</time></trkpt><trkpt lat="44.649721341001424" lon="12.106964261231028"><ele>-2.0</ele><time>2026-04-12T09:11:03Z</time></trkpt><trkpt lat="44.64960616420085" lon="12.106999108631618"><ele>-2.0</ele><time>2026-04-12T09:11:05Z</time></trkpt><trkpt lat="44.649490302282224" lon="12.107003911501634"><ele>-2.0</ele><time>2026-04-12T09:11:07Z</time></trkpt><trkpt lat="44.64937608520415" lon="12.107023406368533"><ele>-2.0</ele><time>2026-04-12T09:11:09Z</time></trkpt><trkpt lat="44.649260988374124" lon="12.107040769079157"><ele>-2.0</ele><time>2026-04-12T09:11:11Z</time></trkpt><trkpt lat="44.649145466460816" lon="12.107057643952501"><ele>-1.5</ele><time>2026-04-12T09:11:13Z</time></trkpt><trkpt lat="44.64902954898405" lon="12.107076136600025"><ele>-1.0</ele><time>2026-04-12T09:11:15Z</time></trkpt><trkpt lat="44.64891095921635" lon="12.107091068973972"><ele>-0.5</ele><time>2026-04-12T09:11:17Z</time></trkpt><trkpt lat="44.648793419971476" lon="12.107111188323778"><ele>0.0</ele><time>2026-04-12T09:11:19Z</time></trkpt><trkpt lat="44.64867757121907" lon="12.107126029870619"><ele>0.0</ele><time>2026-04-12T09:11:21Z</time></trkpt><trkpt lat="44.64856438345397" lon="12.107144103059195"><ele>0.0</ele><time>2026-04-12T09:11:23Z</time></trkpt><trkpt lat="44.64844962999047" lon="12.10715847100236"><ele>0.0</ele><time>2026-04-12T09:11:25Z</time></trkpt><trkpt lat="44.64833315360108" lon="12.107177652572563"><ele>0.0</ele><time>2026-04-12T09:11:27Z</time></trkpt><trkpt lat="44.64821848239491" lon="12.10719391981946"><ele>0.0</ele><time>2026-04-12T09:11:29Z</time></trkpt><trkpt lat="44.648105113280884" lon="12.107212156497264"><ele>0.0</ele><time>2026-04-12T09:11:31Z</time></trkpt><trkpt lat="44.64799013309474" lon="12.107227583508505"><ele>0.0</ele><time>2026-04-12T09:11:33Z</time></trkpt><trkpt lat="44.64787366762708" lon="12.107244870921436"><ele>0.0</ele><time>2026-04-12T09:11:35Z</time></trkpt><trkpt lat="44.647756417517634" lon="12.107265409777728"><ele>-0.25</ele><time>2026-04-12T09:11:37Z</time></trkpt><trkpt lat="44.647640517680834" lon="12.107279839156615"><ele>-0.5</ele><time>2026-04-12T09:11:39Z</time></trkpt><trkpt lat="44.64752618421087" lon="12.107298288576118"><ele>-0.75</ele><time>2026-04-12T09:11:41Z</time></trkpt><trkpt lat="44.647409840354044" lon="12.107314871571267"><ele>-1.0</ele><time>2026-04-12T09:11:43Z</time></trkpt><trkpt lat="44.64729259183042" lon="12.107332825225678"><ele>-1.0</ele><time>2026-04-12T09:11:45Z</time></trkpt><trkpt lat="44.64717464347003" lon="12.107346867371103"><ele>-1.0</ele><time>2026-04-12T09:11:47Z</time></trkpt><trkpt lat="44.64705701774174" lon="12.107366650374749"><ele>-1.0</ele><time>2026-04-12T09:11:49Z</time></trkpt><trkpt lat="44.64693960574772" lon="12.1073836047728"><ele>-1.0</ele><time>2026-04-12T09:11:51Z</time></trkpt><trkpt lat="44.64681981610661" lon="12.1074016927509"><ele>-1.5</ele><time>2026-04-12T09:11:53Z</time></trkpt><trkpt lat="44.646704288256" lon="12.107418487321173"><ele>-2.0</ele><time>2026-04-12T09:11:55Z</time></trkpt><trkpt lat="44.64658710564314" lon="12.107433424117618"><ele>-2.5</ele><time>2026-04-12T09:11:57Z</time></trkpt><trkpt lat="44.646472840745304" lon="12.107452016213234"><ele>-3.0</ele><time>2026-04-12T09:11:59Z</time></trkpt><trkpt lat="44.6463555370746" lon="12.107473051649915"><ele>-3.0</ele><time>2026-04-12T09:12:01Z</time></trkpt><trkpt lat="44.646238719316244" lon="12.107489246590145"><ele>-3.0</ele><time>2026-04-12T09:12:03Z</time></trkpt><trkpt lat="44.64612431669866" lon="12.10750662210194"><ele>-3.0</ele><time>2026-04-12T09:12:05Z</time></trkpt><trkpt lat="44.64600827287713" lon="12.107523049882488"><ele>-3.0</ele><time>2026-04-12T09:12:07Z</time></trkpt><trkpt lat="44.64587927458249" lon="12.107538383941572"><ele>-2.75</ele><time>2026-04-12T09:12:09Z</time></trkpt><trkpt lat="44.64577655180016" lon="12.107555815750288"><ele>-2.5</ele><time>2026-04-12T09:12:11Z</time></trkpt><trkpt lat="44.645662598450016" lon="12.1075717899206"><ele>-2.25</ele><time>2026-04-12T09:12:13Z</time></trkpt><trkpt lat="44.64554809529792" lon="12.107591607409322"><ele>-2.0</ele><time>2026-04-12T09:12:15Z</time></trkpt><trkpt lat="44.645431446795754" lon="12.107607169187895"><ele>-2.0</ele><time>2026-04-12T09:12:17Z</time></trkpt><trkpt lat="44.64531299266436" lon="12.107629483203894"><ele>-2.0</ele><time>2026-04-12T09:12:19Z</time></trkpt><trkpt lat="44.645193411762854" lon="12.107645791774772"><ele>-2.0</ele><time>2026-04-12T09:12:21Z</time></trkpt><trkpt lat="44.645075806016216" lon="12.107665117981538"><ele>-2.0</ele><time>2026-04-12T09:12:23Z</time></trkpt><trkpt lat="44.64495776653891" lon="12.107683959527671"><ele>-2.0</ele><time>2026-04-12T09:12:25Z</time></trkpt><trkpt lat="44.644846999484216" lon="12.10769750823258"><ele>-2.0</ele><time>2026-04-12T09:12:27Z</time></trkpt><trkpt lat="44.64478327141232" lon="12.107709867716387"><ele>-2.0</ele><time>2026-04-12T09:12:28Z</time></trkpt><trkpt lat="44.6446669035517" lon="12.107732213708372"><ele>-2.0</ele><time>2026-04-12T09:12:30Z</time></trkpt><trkpt lat="44.64455159302609" lon="12.107744669109683"><ele>-2.0</ele><time>2026-04-12T09:12:32Z</time></trkpt><trkpt lat="44.644436707812176" lon="12.107764252435443"><ele>-2.0</ele><time>2026-04-12T09:12:34Z</time></trkpt><trkpt lat="44.644320874372205" lon="12.10778503305945"><ele>-2.0</ele><time>2026-04-12T09:12:36Z</time></trkpt><trkpt lat="44.644206517156334" lon="12.107800584209926"><ele>-2.0</ele><time>2026-04-12T09:12:38Z</time></trkpt><trkpt lat="44.644092708946914" lon="12.10782101947776"><ele>-2.0</ele><time>2026-04-12T09:12:40Z</time></trkpt><trkpt lat="44.64397803973684" lon="12.107830451315028"><ele>-2.0</ele><time>2026-04-12T09:12:42Z</time></trkpt><trkpt lat="44.64386379492427" lon="12.107849353660374"><ele>-2.0</ele><time>2026-04-12T09:12:44Z</time></trkpt><trkpt lat="44.64375112045928" lon="12.107873005150068"><ele>-2.0</ele><time>2026-04-12T09:12:46Z</time></trkpt><trkpt lat="44.64363822013074" lon="12.1078845648392"><ele>-2.0</ele><time>2026-04-12T09:12:48Z</time></trkpt><trkpt lat="44.643525020734955" lon="12.107900564940982"><ele>-1.75</ele><time>2026-04-12T09:12:50Z</time></trkpt><trkpt lat="44.64341145554852" lon="12.107907582900864"><ele>-1.5</ele><time>2026-04-12T09:12:52Z</time></trkpt><trkpt lat="44.643296835500145" lon="12.107914804807056"><ele>-1.25</ele><time>2026-04-12T09:12:54Z</time></trkpt><trkpt lat="44.64318316696836" lon="12.107919918399094"><ele>-1.0</ele><time>2026-04-12T09:12:56Z</time></trkpt><trkpt lat="44.64306979040087" lon="12.107921069532056"><ele>-1.0</ele><time>2026-04-12T09:12:58Z</time></trkpt><trkpt lat="44.64295612285493" lon="12.107915272940291"><ele>-1.0</ele><time>2026-04-12T09:13:00Z</time></trkpt><trkpt lat="44.64284271390447" lon="12.10790502124839"><ele>-1.0</ele><time>2026-04-12T09:13:02Z</time></trkpt><trkpt lat="44.64272973856596" lon="12.107891040343095"><ele>-1.0</ele><time>2026-04-12T09:13:04Z</time></trkpt><trkpt lat="44.64261565272427" lon="12.10786924913764"><ele>-1.25</ele><time>2026-04-12T09:13:06Z</time></trkpt><trkpt lat="44.64249934083873" lon="12.107850523396802"><ele>-1.5</ele><time>2026-04-12T09:13:08Z</time></trkpt><trkpt lat="44.642385623107536" lon="12.107821574794778"><ele>-1.75</ele><time>2026-04-12T09:13:10Z</time></trkpt><trkpt lat="44.64227180900579" lon="12.107787892192682"><ele>-2.0</ele><time>2026-04-12T09:13:12Z</time></trkpt><trkpt lat="44.64215932375366" lon="12.107749007910892"><ele>-2.0</ele><time>2026-04-12T09:13:14Z</time></trkpt><trkpt lat="44.642046747790104" lon="12.107706247083964"><ele>-2.0</ele><time>2026-04-12T09:13:16Z</time></trkpt><trkpt lat="44.64193536985997" lon="12.107659159234371"><ele>-2.0</ele><time>2026-04-12T09:13:18Z</time></trkpt><trkpt lat="44.641824063572685" lon="12.107605038197162"><ele>-2.0</ele><time>2026-04-12T09:13:20Z</time></trkpt><trkpt lat="44.64171611594116" lon="12.10755876680075"><ele>-2.2</ele><time>2026-04-12T09:13:22Z</time></trkpt><trkpt lat="44.64161825301861" lon="12.10750109583227"><ele>-2.4000000000000004</ele><time>2026-04-12T09:13:24Z</time></trkpt><trkpt lat="44.64151744038754" lon="12.107428154017116"><ele>-2.5999999999999996</ele><time>2026-04-12T09:13:26Z</time></trkpt><trkpt lat="44.64141245737813" lon="12.107361217542817"><ele>-2.8</ele><time>2026-04-12T09:13:28Z</time></trkpt><trkpt lat="44.64130856564559" lon="12.107297747959551"><ele>-3.0</ele><time>2026-04-12T09:13:30Z</time></trkpt><trkpt lat="44.64120552072743" lon="12.107234892838258"><ele>-2.75</ele><time>2026-04-12T09:13:32Z</time></trkpt><trkpt lat="44.641107285052826" lon="12.107159178583204"><ele>-2.5</ele><time>2026-04-12T09:13:34Z</time></trkpt><trkpt lat="44.64100496923832" lon="12.107087674413107"><ele>-2.25</ele><time>2026-04-12T09:13:36Z</time></trkpt><trkpt lat="44.640899408640315" lon="12.107019283636916"><ele>-2.0</ele><time>2026-04-12T09:13:38Z</time></trkpt><trkpt lat="44.640794569780674" lon="12.106942529659335"><ele>-2.0</ele><time>2026-04-12T09:13:40Z</time></trkpt><trkpt lat="44.64068978902367" lon="12.106869886146129"><ele>-2.0</ele><time>2026-04-12T09:13:42Z</time></trkpt><trkpt lat="44.64058395845229" lon="12.106796926003687"><ele>-2.0</ele><time>2026-04-12T09:13:44Z</time></trkpt><trkpt lat="44.64047958584384" lon="12.106726035873193"><ele>-2.0</ele><time>2026-04-12T09:13:46Z</time></trkpt><trkpt lat="44.64037537565326" lon="12.10665129814433"><ele>-2.0</ele><time>2026-04-12T09:13:48Z</time></trkpt><trkpt lat="44.64026736492497" lon="12.106577365303684"><ele>-2.0</ele><time>2026-04-12T09:13:50Z</time></trkpt><trkpt lat="44.6401576922083" lon="12.106502177771215"><ele>-2.0</ele><time>2026-04-12T09:13:52Z</time></trkpt><trkpt lat="44.6400479070714" lon="12.106428825780485"><ele>-2.0</ele><time>2026-04-12T09:13:54Z</time></trkpt><trkpt lat="44.639938251996966" lon="12.106353338995"><ele>-2.0</ele><time>2026-04-12T09:13:56Z</time></trkpt><trkpt lat="44.639830942481495" lon="12.106280993763548"><ele>-2.0</ele><time>2026-04-12T09:13:58Z</time></trkpt><trkpt lat="44.639724334232895" lon="12.106209050711286"><ele>-2.0</ele><time>2026-04-12T09:14:00Z</time></trkpt><trkpt lat="44.639616963195905" lon="12.106134904870789"><ele>-2.0</ele><time>2026-04-12T09:14:02Z</time></trkpt><trkpt lat="44.63950977796" lon="12.106058429016938"><ele>-2.0</ele><time>2026-04-12T09:14:04Z</time></trkpt><trkpt lat="44.63940028199304" lon="12.105983713671584"><ele>-2.0</ele><time>2026-04-12T09:14:06Z</time></trkpt><trkpt lat="44.63928896029644" lon="12.105907471543311"><ele>-2.0</ele><time>2026-04-12T09:14:08Z</time></trkpt><trkpt lat="44.63917840938435" lon="12.105832785996945"><ele>-2.0</ele><time>2026-04-12T09:14:10Z</time></trkpt><trkpt lat="44.639066030714915" lon="12.105756358345122"><ele>-2.0</ele><time>2026-04-12T09:14:12Z</time></trkpt><trkpt lat="44.63895487940338" lon="12.105680228821145"><ele>-2.0</ele><time>2026-04-12T09:14:14Z</time></trkpt><trkpt lat="44.638842818009046" lon="12.105601790924426"><ele>-2.0</ele><time>2026-04-12T09:14:16Z</time></trkpt><trkpt lat="44.638729089115984" lon="12.10552171618922"><ele>-2.0</ele><time>2026-04-12T09:14:18Z</time></trkpt><trkpt lat="44.6386711073137" lon="12.105484464970509"><ele>-2.0</ele><time>2026-04-12T09:14:19Z</time></trkpt><trkpt lat="44.638614532529026" lon="12.10544485764302"><ele>-1.75</ele><time>2026-04-12T09:14:20Z</time></trkpt><trkpt lat="44.63850368696555" lon="12.105369108922437"><ele>-1.5</ele><time>2026-04-12T09:14:22Z</time></trkpt><trkpt lat="44.63839120395025" lon="12.105292164491392"><ele>-1.25</ele><time>2026-04-12T09:14:24Z</time></trkpt><trkpt lat="44.63828130279188" lon="12.105216598518938"><ele>-1.0</ele><time>2026-04-12T09:14:26Z</time></trkpt><trkpt lat="44.638169312477" lon="12.105141529741484"><ele>-1.0</ele><time>2026-04-12T09:14:28Z</time></trkpt><trkpt lat="44.638058140054746" lon="12.105064837990806"><ele>-1.0</ele><time>2026-04-12T09:14:30Z</time></trkpt><trkpt lat="44.63794625492281" lon="12.104990762342899"><ele>-1.0</ele><time>2026-04-12T09:14:32Z</time></trkpt><trkpt lat="44.63783609545406" lon="12.10492230009458"><ele>-1.0</ele><time>2026-04-12T09:14:34Z</time></trkpt><trkpt lat="44.63772485840697" lon="12.104858890881925"><ele>-1.0</ele><time>2026-04-12T09:14:36Z</time></trkpt><trkpt lat="44.63761152691331" lon="12.104794946545013"><ele>-1.0</ele><time>2026-04-12T09:14:38Z</time></trkpt><trkpt lat="44.63749790488674" lon="12.104734630381683"><ele>-1.0</ele><time>2026-04-12T09:14:40Z</time></trkpt><trkpt lat="44.63738285801108" lon="12.104671521150216"><ele>-1.0</ele><time>2026-04-12T09:14:42Z</time></trkpt><trkpt lat="44.6372676893532" lon="12.104610344479234"><ele>-1.0</ele><time>2026-04-12T09:14:44Z</time></trkpt><trkpt lat="44.63715213268837" lon="12.104550561521686"><ele>-1.0</ele><time>2026-04-12T09:14:46Z</time></trkpt><trkpt lat="44.63703835867535" lon="12.104488427992065"><ele>-1.0</ele><time>2026-04-12T09:14:48Z</time></trkpt><trkpt lat="44.636921642665556" lon="12.104429526568794"><ele>-1.0</ele><time>2026-04-12T09:14:50Z</time></trkpt><trkpt lat="44.63686252141317" lon="12.10439827718591"><ele>-1.0</ele><time>2026-04-12T09:14:51Z</time></trkpt><trkpt lat="44.636745483354666" lon="12.104336831173441"><ele>-0.75</ele><time>2026-04-12T09:14:53Z</time></trkpt><trkpt lat="44.636628123294905" lon="12.104274256059957"><ele>-0.5</ele><time>2026-04-12T09:14:55Z</time></trkpt><trkpt lat="44.63651177777941" lon="12.104214810865525"><ele>-0.25</ele><time>2026-04-12T09:14:57Z</time></trkpt><trkpt lat="44.63639611512489" lon="12.104150379080219"><ele>0.0</ele><time>2026-04-12T09:14:59Z</time></trkpt><trkpt lat="44.636280071008514" lon="12.104091225410384"><ele>-0.25</ele><time>2026-04-12T09:15:01Z</time></trkpt><trkpt lat="44.636165852381204" lon="12.104030196597819"><ele>-0.5</ele><time>2026-04-12T09:15:03Z</time></trkpt><trkpt lat="44.63604978825234" lon="12.103969732827768"><ele>-0.75</ele><time>2026-04-12T09:15:05Z</time></trkpt><trkpt lat="44.63593442899092" lon="12.103912521809674"><ele>-1.0</ele><time>2026-04-12T09:15:07Z</time></trkpt><trkpt lat="44.635820889338376" lon="12.103850228199027"><ele>-1.0</ele><time>2026-04-12T09:15:09Z</time></trkpt><trkpt lat="44.63570620419228" lon="12.103788653776839"><ele>-1.0</ele><time>2026-04-12T09:15:11Z</time></trkpt><trkpt lat="44.63559206978534" lon="12.103729649671829"><ele>-1.0</ele><time>2026-04-12T09:15:13Z</time></trkpt><trkpt lat="44.635532538211244" lon="12.103696345204375"><ele>-1.0</ele><time>2026-04-12T09:15:14Z</time></trkpt><trkpt lat="44.63541869402136" lon="12.103637820080365"><ele>-1.0</ele><time>2026-04-12T09:15:16Z</time></trkpt><trkpt lat="44.635301823365594" lon="12.103574699778028"><ele>-1.0</ele><time>2026-04-12T09:15:18Z</time></trkpt><trkpt lat="44.635240989099806" lon="12.103545431879247"><ele>-0.9999999999999999</ele><time>2026-04-12T09:15:19Z</time></trkpt><trkpt lat="44.63518050695042" lon="12.103514943871401"><ele>-1.0</ele><time>2026-04-12T09:15:20Z</time></trkpt><trkpt lat="44.635061782351904" lon="12.103452772725468"><ele>-1.0</ele><time>2026-04-12T09:15:22Z</time></trkpt><trkpt lat="44.635002670944324" lon="12.103419999144855"><ele>-0.9999999999999999</ele><time>2026-04-12T09:15:23Z</time></trkpt><trkpt lat="44.634941568136945" lon="12.10338758248874"><ele>-1.0</ele><time>2026-04-12T09:15:24Z</time></trkpt><trkpt lat="44.6348812822381" lon="12.103352262616925"><ele>-1.0</ele><time>2026-04-12T09:15:25Z</time></trkpt><trkpt lat="44.63482083903638" lon="12.103319313619977"><ele>-1.0</ele><time>2026-04-12T09:15:26Z</time></trkpt><trkpt lat="44.63470144786536" lon="12.103258408284944"><ele>-1.0</ele><time>2026-04-12T09:15:28Z</time></trkpt><trkpt lat="44.63458386596751" lon="12.103193616822015"><ele>-1.0</ele><time>2026-04-12T09:15:30Z</time></trkpt><trkpt lat="44.63446642059357" lon="12.103132921749332"><ele>-1.0</ele><time>2026-04-12T09:15:32Z</time></trkpt><trkpt lat="44.63435020687202" lon="12.103086616064802"><ele>-1.0</ele><time>2026-04-12T09:15:34Z</time></trkpt><trkpt lat="44.63423628142289" lon="12.103033680760499"><ele>-1.0</ele><time>2026-04-12T09:15:36Z</time></trkpt><trkpt lat="44.63412508204374" lon="12.102979261694156"><ele>-1.0</ele><time>2026-04-12T09:15:38Z</time></trkpt><trkpt lat="44.63400990957965" lon="12.102934841894086"><ele>-1.0</ele><time>2026-04-12T09:15:40Z</time></trkpt><trkpt lat="44.63389594161812" lon="12.102890908032576"><ele>-1.0</ele><time>2026-04-12T09:15:42Z</time></trkpt><trkpt lat="44.633784177894" lon="12.102850437643399"><ele>-1.0</ele><time>2026-04-12T09:15:44Z</time></trkpt><trkpt lat="44.633676038533075" lon="12.102819578602974"><ele>-1.0</ele><time>2026-04-12T09:15:46Z</time></trkpt><trkpt lat="44.63358322667964" lon="12.102790473733881"><ele>-1.0</ele><time>2026-04-12T09:15:48Z</time></trkpt><trkpt lat="44.63349245170095" lon="12.102764463598774"><ele>-1.0</ele><time>2026-04-12T09:15:50Z</time></trkpt><trkpt lat="44.63340088372478" lon="12.102743508139303"><ele>-1.0</ele><time>2026-04-12T09:15:52Z</time></trkpt><trkpt lat="44.63330743645112" lon="12.102724220179635"><ele>-1.0</ele><time>2026-04-12T09:15:54Z</time></trkpt><trkpt lat="44.63321391670096" lon="12.102703407322082"><ele>-1.0</ele><time>2026-04-12T09:15:56Z</time></trkpt><trkpt lat="44.63312335175428" lon="12.102679159074773"><ele>-1.0</ele><time>2026-04-12T09:15:58Z</time></trkpt><trkpt lat="44.63303472180876" lon="12.102662916551713"><ele>-1.0</ele><time>2026-04-12T09:16:00Z</time></trkpt><trkpt lat="44.63294706931831" lon="12.102644527664502"><ele>-1.0</ele><time>2026-04-12T09:16:02Z</time></trkpt><trkpt lat="44.63285647648378" lon="12.102626260576972"><ele>-1.0</ele><time>2026-04-12T09:16:04Z</time></trkpt><trkpt lat="44.632763657997764" lon="12.102606481070014"><ele>-1.0</ele><time>2026-04-12T09:16:06Z</time></trkpt><trkpt lat="44.63267147180412" lon="12.102589277558158"><ele>-1.0</ele><time>2026-04-12T09:16:08Z</time></trkpt><trkpt lat="44.63258018017634" lon="12.102570624888521"><ele>-1.0</ele><time>2026-04-12T09:16:10Z</time></trkpt><trkpt lat="44.63248894432951" lon="12.10254221672508"><ele>-1.2000000000000002</ele><time>2026-04-12T09:16:12Z</time></trkpt><trkpt lat="44.6323948211362" lon="12.102524505575245"><ele>-1.4000000000000001</ele><time>2026-04-12T09:16:14Z</time></trkpt><trkpt lat="44.63230175649536" lon="12.102507784195085"><ele>-1.6</ele><time>2026-04-12T09:16:16Z</time></trkpt><trkpt lat="44.632208156290254" lon="12.102486849821707"><ele>-1.8</ele><time>2026-04-12T09:16:18Z</time></trkpt><trkpt lat="44.632113654578895" lon="12.102468831356385"><ele>-2.0</ele><time>2026-04-12T09:16:20Z</time></trkpt><trkpt lat="44.63201844204683" lon="12.10244770111804"><ele>-2.0</ele><time>2026-04-12T09:16:22Z</time></trkpt><trkpt lat="44.63192204046474" lon="12.102423255279534"><ele>-2.0</ele><time>2026-04-12T09:16:24Z</time></trkpt><trkpt lat="44.63182458965944" lon="12.1024059022446"><ele>-2.0</ele><time>2026-04-12T09:16:26Z</time></trkpt><trkpt lat="44.63172460455196" lon="12.102384693302565"><ele>-2.0</ele><time>2026-04-12T09:16:28Z</time></trkpt><trkpt lat="44.63162334791332" lon="12.102364032743333"><ele>-2.0</ele><time>2026-04-12T09:16:30Z</time></trkpt><trkpt lat="44.631520439589416" lon="12.102344162838362"><ele>-2.0</ele><time>2026-04-12T09:16:32Z</time></trkpt><trkpt lat="44.6314174309952" lon="12.102322048661065"><ele>-2.0</ele><time>2026-04-12T09:16:34Z</time></trkpt><trkpt lat="44.631318125658005" lon="12.102301994132477"><ele>-2.0</ele><time>2026-04-12T09:16:36Z</time></trkpt><trkpt lat="44.631223619336566" lon="12.102284930172829"><ele>-2.0</ele><time>2026-04-12T09:16:38Z</time></trkpt><trkpt lat="44.631127703154185" lon="12.102265173935427"><ele>-2.0</ele><time>2026-04-12T09:16:40Z</time></trkpt><trkpt lat="44.63102781013599" lon="12.102241627483819"><ele>-2.0</ele><time>2026-04-12T09:16:42Z</time></trkpt><trkpt lat="44.63092238392756" lon="12.10222133723509"><ele>-2.0</ele><time>2026-04-12T09:16:44Z</time></trkpt><trkpt lat="44.63080946392899" lon="12.10220755623143"><ele>-2.0</ele><time>2026-04-12T09:16:46Z</time></trkpt><trkpt lat="44.630694614688835" lon="12.102191957045255"><ele>-2.0</ele><time>2026-04-12T09:16:48Z</time></trkpt><trkpt lat="44.630582652010666" lon="12.10216466633155"><ele>-2.0</ele><time>2026-04-12T09:16:50Z</time></trkpt><trkpt lat="44.63046883978417" lon="12.102134828469275"><ele>-2.0</ele><time>2026-04-12T09:16:52Z</time></trkpt><trkpt lat="44.63035259059798" lon="12.102117218266159"><ele>-2.0</ele><time>2026-04-12T09:16:54Z</time></trkpt><trkpt lat="44.63024013863436" lon="12.102087724339208"><ele>-2.0</ele><time>2026-04-12T09:16:56Z</time></trkpt><trkpt lat="44.630129932526266" lon="12.102052400948615"><ele>-2.0</ele><time>2026-04-12T09:16:58Z</time></trkpt><trkpt lat="44.63001881129892" lon="12.102034135095213"><ele>-2.2</ele><time>2026-04-12T09:17:00Z</time></trkpt><trkpt lat="44.629912310406695" lon="12.102014879217485"><ele>-2.4000000000000004</ele><time>2026-04-12T09:17:02Z</time></trkpt><trkpt lat="44.62981477271179" lon="12.101993402818568"><ele>-2.5999999999999996</ele><time>2026-04-12T09:17:04Z</time></trkpt><trkpt lat="44.62971392906475" lon="12.101966330880519"><ele>-2.8</ele><time>2026-04-12T09:17:06Z</time></trkpt><trkpt lat="44.62961062425403" lon="12.101948895373342"><ele>-3.0</ele><time>2026-04-12T09:17:08Z</time></trkpt><trkpt lat="44.629503509708286" lon="12.101926172286166"><ele>-2.4</ele><time>2026-04-12T09:17:10Z</time></trkpt><trkpt lat="44.62939771325282" lon="12.101903792529352"><ele>-1.7999999999999998</ele><time>2026-04-12T09:17:12Z</time></trkpt><trkpt lat="44.62928568490642" lon="12.101878860844826"><ele>-1.2</ele><time>2026-04-12T09:17:14Z</time></trkpt><trkpt lat="44.62917373861453" lon="12.101860650634395"><ele>-0.6</ele><time>2026-04-12T09:17:16Z</time></trkpt><trkpt lat="44.62906140189314" lon="12.101833583466357"><ele>0.0</ele><time>2026-04-12T09:17:18Z</time></trkpt><trkpt lat="44.628950036616644" lon="12.101810937093392"><ele>0.0</ele><time>2026-04-12T09:17:20Z</time></trkpt><trkpt lat="44.628838440514116" lon="12.101785718338908"><ele>0.0</ele><time>2026-04-12T09:17:22Z</time></trkpt><trkpt lat="44.62872679990228" lon="12.101767635223249"><ele>0.0</ele><time>2026-04-12T09:17:24Z</time></trkpt><trkpt lat="44.628614428964774" lon="12.10174334252672"><ele>0.0</ele><time>2026-04-12T09:17:26Z</time></trkpt><trkpt lat="44.6285024107402" lon="12.101715808134594"><ele>-0.14285714285714285</ele><time>2026-04-12T09:17:28Z</time></trkpt><trkpt lat="44.62838566431606" lon="12.10169192217434"><ele>-0.2857142857142857</ele><time>2026-04-12T09:17:30Z</time></trkpt><trkpt lat="44.62832006935568" lon="12.101689595500094"><ele>-0.42857142857142855</ele><time>2026-04-12T09:17:31Z</time></trkpt><trkpt lat="44.62825588460905" lon="12.101683972640943"><ele>-0.5714285714285714</ele><time>2026-04-12T09:17:32Z</time></trkpt><trkpt lat="44.62819202730193" lon="12.10167030258376"><ele>-0.7142857142857142</ele><time>2026-04-12T09:17:33Z</time></trkpt><trkpt lat="44.62812834169462" lon="12.10165526816141"><ele>-0.8571428571428571</ele><time>2026-04-12T09:17:34Z</time></trkpt><trkpt lat="44.62806430552606" lon="12.101637596761577"><ele>-1.0</ele><time>2026-04-12T09:17:35Z</time></trkpt><trkpt lat="44.62800079035552" lon="12.101620988741132"><ele>-1.0</ele><time>2026-04-12T09:17:36Z</time></trkpt><trkpt lat="44.62793720377181" lon="12.101606469255634"><ele>-0.9999999999999999</ele><time>2026-04-12T09:17:37Z</time></trkpt><trkpt lat="44.6278739435506" lon="12.101592084314072"><ele>-1.0</ele><time>2026-04-12T09:17:38Z</time></trkpt><trkpt lat="44.62780990961384" lon="12.10158391964663"><ele>-1.0</ele><time>2026-04-12T09:17:39Z</time></trkpt><trkpt lat="44.627746590346355" lon="12.101573801433421"><ele>-0.9999999999999999</ele><time>2026-04-12T09:17:40Z</time></trkpt><trkpt lat="44.62762225113635" lon="12.101549273542016"><ele>-1.0</ele><time>2026-04-12T09:17:42Z</time></trkpt><trkpt lat="44.62756026569575" lon="12.101532826867626"><ele>-1.0</ele><time>2026-04-12T09:17:43Z</time></trkpt><trkpt lat="44.62749762518873" lon="12.101515154259797"><ele>-1.1428571428571428</ele><time>2026-04-12T09:17:44Z</time></trkpt><trkpt lat="44.627434756987924" lon="12.101494974039047"><ele>-1.2857142857142856</ele><time>2026-04-12T09:17:45Z</time></trkpt><trkpt lat="44.627369525111604" lon="12.101480215233362"><ele>-1.4285714285714284</ele><time>2026-04-12T09:17:46Z</time></trkpt><trkpt lat="44.62730595821437" lon="12.101469202693826"><ele>-1.5714285714285714</ele><time>2026-04-12T09:17:47Z</time></trkpt><trkpt lat="44.62724267752556" lon="12.10145343299752"><ele>-1.714285714285714</ele><time>2026-04-12T09:17:48Z</time></trkpt><trkpt lat="44.6271783278888" lon="12.10144101425235"><ele>-1.857142857142857</ele><time>2026-04-12T09:17:49Z</time></trkpt><trkpt lat="44.62705527470957" lon="12.101418285423588"><ele>-2.0</ele><time>2026-04-12T09:17:51Z</time></trkpt><trkpt lat="44.62699322569388" lon="12.101401843051848"><ele>-2.25</ele><time>2026-04-12T09:17:52Z</time></trkpt><trkpt lat="44.62687178217997" lon="12.101382416329226"><ele>-2.5</ele><time>2026-04-12T09:17:54Z</time></trkpt><trkpt lat="44.626754029106" lon="12.101351476864608"><ele>-2.75</ele><time>2026-04-12T09:17:56Z</time></trkpt><trkpt lat="44.62663562437144" lon="12.101326378622051"><ele>-3.0</ele><time>2026-04-12T09:17:58Z</time></trkpt><trkpt lat="44.62651536140207" lon="12.101302094949919"><ele>-3.0</ele><time>2026-04-12T09:18:00Z</time></trkpt><trkpt lat="44.626393299580684" lon="12.101273440303205"><ele>-3.0</ele><time>2026-04-12T09:18:02Z</time></trkpt><trkpt lat="44.62626956927498" lon="12.1012479091572"><ele>-3.0</ele><time>2026-04-12T09:18:04Z</time></trkpt><trkpt lat="44.62614533658427" lon="12.101222383388784"><ele>-3.0</ele><time>2026-04-12T09:18:06Z</time></trkpt><trkpt lat="44.62602245898505" lon="12.101197517940296"><ele>-2.75</ele><time>2026-04-12T09:18:08Z</time></trkpt><trkpt lat="44.62590056900301" lon="12.101173712288091"><ele>-2.5</ele><time>2026-04-12T09:18:10Z</time></trkpt><trkpt lat="44.62577561753471" lon="12.101162335127345"><ele>-2.25</ele><time>2026-04-12T09:18:12Z</time></trkpt><trkpt lat="44.62565491784633" lon="12.10114537232031"><ele>-2.0</ele><time>2026-04-12T09:18:14Z</time></trkpt><trkpt lat="44.62553232537056" lon="12.101134726000204"><ele>-2.0</ele><time>2026-04-12T09:18:16Z</time></trkpt><trkpt lat="44.6254090583747" lon="12.101131833341798"><ele>-2.0</ele><time>2026-04-12T09:18:18Z</time></trkpt><trkpt lat="44.625284960176366" lon="12.101135405322829"><ele>-2.0</ele><time>2026-04-12T09:18:20Z</time></trkpt><trkpt lat="44.62516234263735" lon="12.101143010066352"><ele>-2.0</ele><time>2026-04-12T09:18:22Z</time></trkpt><trkpt lat="44.62504474476405" lon="12.101149631681645"><ele>-2.0</ele><time>2026-04-12T09:18:24Z</time></trkpt><trkpt lat="44.62492475405049" lon="12.101157983861283"><ele>-2.0</ele><time>2026-04-12T09:18:26Z</time></trkpt><trkpt lat="44.62480034536476" lon="12.101167995536267"><ele>-2.0</ele><time>2026-04-12T09:18:28Z</time></trkpt><trkpt lat="44.62467849009692" lon="12.101175280416001"><ele>-2.0</ele><time>2026-04-12T09:18:30Z</time></trkpt><trkpt lat="44.62455615331274" lon="12.101190237504051"><ele>-1.5</ele><time>2026-04-12T09:18:32Z</time></trkpt><trkpt lat="44.624434650345734" lon="12.101197822887272"><ele>-1.0</ele><time>2026-04-12T09:18:34Z</time></trkpt><trkpt lat="44.624315705023434" lon="12.10120795055494"><ele>-0.5</ele><time>2026-04-12T09:18:36Z</time></trkpt><trkpt lat="44.62419741925433" lon="12.101224102613426"><ele>0.0</ele><time>2026-04-12T09:18:38Z</time></trkpt><trkpt lat="44.62407645845263" lon="12.101235906549485"><ele>0.0</ele><time>2026-04-12T09:18:40Z</time></trkpt><trkpt lat="44.62395784319022" lon="12.101244918771993"><ele>0.0</ele><time>2026-04-12T09:18:42Z</time></trkpt><trkpt lat="44.62384479836132" lon="12.101245189663318"><ele>0.0</ele><time>2026-04-12T09:18:44Z</time></trkpt><trkpt lat="44.623733937647884" lon="12.10125193129985"><ele>0.0</ele><time>2026-04-12T09:18:46Z</time></trkpt><trkpt lat="44.623621817838256" lon="12.10126292860839"><ele>0.0</ele><time>2026-04-12T09:18:48Z</time></trkpt><trkpt lat="44.62350471023057" lon="12.10126667139653"><ele>0.0</ele><time>2026-04-12T09:18:50Z</time></trkpt><trkpt lat="44.62339273884386" lon="12.101281049983411"><ele>0.0</ele><time>2026-04-12T09:18:52Z</time></trkpt><trkpt lat="44.623279002591644" lon="12.101285318139533"><ele>0.0</ele><time>2026-04-12T09:18:54Z</time></trkpt><trkpt lat="44.62316788370493" lon="12.101296619502994"><ele>0.0</ele><time>2026-04-12T09:18:56Z</time></trkpt><trkpt lat="44.62305607807994" lon="12.101306930412687"><ele>0.0</ele><time>2026-04-12T09:18:58Z</time></trkpt><trkpt lat="44.62294478379817" lon="12.101313030091296"><ele>0.0</ele><time>2026-04-12T09:19:00Z</time></trkpt><trkpt lat="44.62283492918404" lon="12.101323475716676"><ele>0.0</ele><time>2026-04-12T09:19:02Z</time></trkpt><trkpt lat="44.62272859092408" lon="12.101321715430998"><ele>0.0</ele><time>2026-04-12T09:19:04Z</time></trkpt><trkpt lat="44.62262605592359" lon="12.101321082566878"><ele>0.0</ele><time>2026-04-12T09:19:06Z</time></trkpt><trkpt lat="44.62252115769744" lon="12.101318957048255"><ele>0.0</ele><time>2026-04-12T09:19:08Z</time></trkpt><trkpt lat="44.622411917732784" lon="12.101306109884934"><ele>0.0</ele><time>2026-04-12T09:19:10Z</time></trkpt><trkpt lat="44.62230239651136" lon="12.101292311330887"><ele>0.0</ele><time>2026-04-12T09:19:12Z</time></trkpt><trkpt lat="44.622191548947505" lon="12.101265874950597"><ele>0.0</ele><time>2026-04-12T09:19:14Z</time></trkpt><trkpt lat="44.622078269657756" lon="12.101233711558326"><ele>-0.25</ele><time>2026-04-12T09:19:16Z</time></trkpt><trkpt lat="44.62196452162378" lon="12.101193850102831"><ele>-0.5</ele><time>2026-04-12T09:19:18Z</time></trkpt><trkpt lat="44.62185404216318" lon="12.101153561437663"><ele>-0.75</ele><time>2026-04-12T09:19:20Z</time></trkpt><trkpt lat="44.62174502609093" lon="12.101106614985303"><ele>-1.0</ele><time>2026-04-12T09:19:22Z</time></trkpt><trkpt lat="44.62163820383021" lon="12.101051792967526"><ele>-1.0</ele><time>2026-04-12T09:19:24Z</time></trkpt><trkpt lat="44.621538118908916" lon="12.100996593914108"><ele>-1.0</ele><time>2026-04-12T09:19:26Z</time></trkpt><trkpt lat="44.62143925195476" lon="12.100932853347702"><ele>-1.0</ele><time>2026-04-12T09:19:28Z</time></trkpt><trkpt lat="44.62133805048543" lon="12.100867469025204"><ele>-1.0</ele><time>2026-04-12T09:19:30Z</time></trkpt><trkpt lat="44.621242397112425" lon="12.100794642975986"><ele>-1.0</ele><time>2026-04-12T09:19:32Z</time></trkpt><trkpt lat="44.62114777783192" lon="12.100711869444083"><ele>-1.2000000000000002</ele><time>2026-04-12T09:19:34Z</time></trkpt><trkpt lat="44.621057751116425" lon="12.10063320694713"><ele>-1.4000000000000001</ele><time>2026-04-12T09:19:36Z</time></trkpt><trkpt lat="44.62097119661255" lon="12.100544424618905"><ele>-1.6</ele><time>2026-04-12T09:19:38Z</time></trkpt><trkpt lat="44.620883877750025" lon="12.100453983818385"><ele>-1.8</ele><time>2026-04-12T09:19:40Z</time></trkpt><trkpt lat="44.62079539424475" lon="12.10035597370484"><ele>-2.0</ele><time>2026-04-12T09:19:42Z</time></trkpt><trkpt lat="44.620710936526905" lon="12.100248827002403"><ele>-2.0</ele><time>2026-04-12T09:19:44Z</time></trkpt><trkpt lat="44.620626243819366" lon="12.100142030203644"><ele>-2.0</ele><time>2026-04-12T09:19:46Z</time></trkpt><trkpt lat="44.62054437453772" lon="12.100029027971885"><ele>-2.0</ele><time>2026-04-12T09:19:48Z</time></trkpt><trkpt lat="44.62046266072385" lon="12.099916603540294"><ele>-2.0</ele><time>2026-04-12T09:19:50Z</time></trkpt><trkpt lat="44.62038395685051" lon="12.099806433976235"><ele>-2.0</ele><time>2026-04-12T09:19:52Z</time></trkpt><trkpt lat="44.62030951528802" lon="12.099697695679346"><ele>-2.0</ele><time>2026-04-12T09:19:54Z</time></trkpt><trkpt lat="44.62023594785961" lon="12.099590754034073"><ele>-2.0</ele><time>2026-04-12T09:19:56Z</time></trkpt><trkpt lat="44.62016408370941" lon="12.099492404971945"><ele>-2.0</ele><time>2026-04-12T09:19:58Z</time></trkpt><trkpt lat="44.62009348574619" lon="12.099387491395994"><ele>-2.0</ele><time>2026-04-12T09:20:00Z</time></trkpt><trkpt lat="44.620016717023745" lon="12.099282099725993"><ele>-2.0</ele><time>2026-04-12T09:20:02Z</time></trkpt><trkpt lat="44.61993770169721" lon="12.099169749927421"><ele>-2.0</ele><time>2026-04-12T09:20:04Z</time></trkpt><trkpt lat="44.61985305771815" lon="12.099056203614776"><ele>-2.0</ele><time>2026-04-12T09:20:06Z</time></trkpt><trkpt lat="44.61976317049915" lon="12.09894159559263"><ele>-2.0</ele><time>2026-04-12T09:20:08Z</time></trkpt><trkpt lat="44.61967401925821" lon="12.098833410165788"><ele>-2.0</ele><time>2026-04-12T09:20:10Z</time></trkpt><trkpt lat="44.61958652266665" lon="12.098733145938851"><ele>-2.0</ele><time>2026-04-12T09:20:12Z</time></trkpt><trkpt lat="44.61949916398388" lon="12.098641031424242"><ele>-2.0</ele><time>2026-04-12T09:20:14Z</time></trkpt><trkpt lat="44.6194108547747" lon="12.098558092483005"><ele>-2.0</ele><time>2026-04-12T09:20:16Z</time></trkpt><trkpt lat="44.61932434172639" lon="12.09847658043137"><ele>-2.0</ele><time>2026-04-12T09:20:18Z</time></trkpt><trkpt lat="44.61922769423008" lon="12.098400830056804"><ele>-2.0</ele><time>2026-04-12T09:20:20Z</time></trkpt><trkpt lat="44.61912833341879" lon="12.098325358565956"><ele>-2.0</ele><time>2026-04-12T09:20:22Z</time></trkpt><trkpt lat="44.619024844006205" lon="12.09825429895376"><ele>-2.0</ele><time>2026-04-12T09:20:24Z</time></trkpt><trkpt lat="44.61892152253556" lon="12.098186182876454"><ele>-2.0</ele><time>2026-04-12T09:20:26Z</time></trkpt><trkpt lat="44.61881597342192" lon="12.098131791101993"><ele>-2.2</ele><time>2026-04-12T09:20:28Z</time></trkpt><trkpt lat="44.61872024066277" lon="12.098085548112245"><ele>-2.4000000000000004</ele><time>2026-04-12T09:20:30Z</time></trkpt><trkpt lat="44.618626352255816" lon="12.098043550878032"><ele>-2.5999999999999996</ele><time>2026-04-12T09:20:32Z</time></trkpt><trkpt lat="44.61852969142798" lon="12.098003602121604"><ele>-2.8</ele><time>2026-04-12T09:20:34Z</time></trkpt><trkpt lat="44.618430348259785" lon="12.097969345963323"><ele>-3.0</ele><time>2026-04-12T09:20:36Z</time></trkpt><trkpt lat="44.61833077771463" lon="12.09793965601318"><ele>-2.8</ele><time>2026-04-12T09:20:38Z</time></trkpt><trkpt lat="44.61823041423969" lon="12.09791239863447"><ele>-2.5999999999999996</ele><time>2026-04-12T09:20:40Z</time></trkpt><trkpt lat="44.61812478685731" lon="12.097894103252893"><ele>-2.4000000000000004</ele><time>2026-04-12T09:20:42Z</time></trkpt><trkpt lat="44.61801881734767" lon="12.097874408106637"><ele>-2.2</ele><time>2026-04-12T09:20:44Z</time></trkpt><trkpt lat="44.617912424967365" lon="12.097862249332128"><ele>-2.0</ele><time>2026-04-12T09:20:46Z</time></trkpt><trkpt lat="44.61780609219471" lon="12.097857887917025"><ele>-2.0</ele><time>2026-04-12T09:20:48Z</time></trkpt><trkpt lat="44.61769949246913" lon="12.097855248505487"><ele>-2.0</ele><time>2026-04-12T09:20:50Z</time></trkpt><trkpt lat="44.61759951922834" lon="12.097859696078167"><ele>-2.0</ele><time>2026-04-12T09:20:52Z</time></trkpt><trkpt lat="44.61750508787961" lon="12.097859765986916"><ele>-2.0</ele><time>2026-04-12T09:20:54Z</time></trkpt><trkpt lat="44.61741018509123" lon="12.09786013103291"><ele>-2.0</ele><time>2026-04-12T09:20:56Z</time></trkpt><trkpt lat="44.617312657463394" lon="12.097869229417315"><ele>-2.0</ele><time>2026-04-12T09:20:58Z</time></trkpt><trkpt lat="44.617212251180966" lon="12.097874255762983"><ele>-2.0</ele><time>2026-04-12T09:21:00Z</time></trkpt><trkpt lat="44.61710809482639" lon="12.097877541284163"><ele>-2.0</ele><time>2026-04-12T09:21:02Z</time></trkpt><trkpt lat="44.61700710791" lon="12.09788180937335"><ele>-2.0</ele><time>2026-04-12T09:21:04Z</time></trkpt><trkpt lat="44.61691150595928" lon="12.097888710274411"><ele>-2.0</ele><time>2026-04-12T09:21:06Z</time></trkpt><trkpt lat="44.61681014806108" lon="12.097893669513253"><ele>-2.0</ele><time>2026-04-12T09:21:08Z</time></trkpt><trkpt lat="44.6167118085762" lon="12.09789984576506"><ele>-2.0</ele><time>2026-04-12T09:21:10Z</time></trkpt><trkpt lat="44.61661866888327" lon="12.097903195960775"><ele>-2.0</ele><time>2026-04-12T09:21:12Z</time></trkpt><trkpt lat="44.61652606273745" lon="12.097901333232349"><ele>-2.0</ele><time>2026-04-12T09:21:14Z</time></trkpt><trkpt lat="44.61644054829774" lon="12.097915724644087"><ele>-2.0</ele><time>2026-04-12T09:21:16Z</time></trkpt><trkpt lat="44.616352288481856" lon="12.097920787689745"><ele>-2.0</ele><time>2026-04-12T09:21:18Z</time></trkpt><trkpt lat="44.61626121090333" lon="12.09792455285698"><ele>-2.0</ele><time>2026-04-12T09:21:20Z</time></trkpt><trkpt lat="44.61616274264084" lon="12.097928950096989"><ele>-2.0</ele><time>2026-04-12T09:21:22Z</time></trkpt><trkpt lat="44.616064021438206" lon="12.097933219650407"><ele>-2.0</ele><time>2026-04-12T09:21:24Z</time></trkpt><trkpt lat="44.61597385428666" lon="12.097943575227786"><ele>-2.0</ele><time>2026-04-12T09:21:26Z</time></trkpt><trkpt lat="44.615883497582765" lon="12.097945799971956"><ele>-1.8</ele><time>2026-04-12T09:21:28Z</time></trkpt><trkpt lat="44.6157862527711" lon="12.097950744100373"><ele>-1.6</ele><time>2026-04-12T09:21:30Z</time></trkpt><trkpt lat="44.615691956515285" lon="12.097959675984649"><ele>-1.4000000000000001</ele><time>2026-04-12T09:21:32Z</time></trkpt><trkpt lat="44.615595062494044" lon="12.097957757831203"><ele>-1.2000000000000002</ele><time>2026-04-12T09:21:34Z</time></trkpt><trkpt lat="44.61550019450643" lon="12.097967814698306"><ele>-1.0</ele><time>2026-04-12T09:21:36Z</time></trkpt><trkpt lat="44.615401559082215" lon="12.097972434006811"><ele>-1.4</ele><time>2026-04-12T09:21:38Z</time></trkpt><trkpt lat="44.61529986392123" lon="12.097980970579775"><ele>-1.8</ele><time>2026-04-12T09:21:40Z</time></trkpt><trkpt lat="44.61519614589459" lon="12.09798640666192"><ele>-2.1999999999999997</ele><time>2026-04-12T09:21:42Z</time></trkpt><trkpt lat="44.61509322874736" lon="12.097993156241595"><ele>-2.6</ele><time>2026-04-12T09:21:44Z</time></trkpt><trkpt lat="44.61498924811032" lon="12.097997570625099"><ele>-3.0</ele><time>2026-04-12T09:21:46Z</time></trkpt><trkpt lat="44.61488671495452" lon="12.098006654606303"><ele>-3.0</ele><time>2026-04-12T09:21:48Z</time></trkpt><trkpt lat="44.61477996675787" lon="12.09801034438462"><ele>-3.0</ele><time>2026-04-12T09:21:50Z</time></trkpt><trkpt lat="44.614672728159086" lon="12.098012801963963"><ele>-3.0</ele><time>2026-04-12T09:21:52Z</time></trkpt><trkpt lat="44.61456803814894" lon="12.098019726225912"><ele>-3.0</ele><time>2026-04-12T09:21:54Z</time></trkpt><trkpt lat="44.614463674122995" lon="12.098027570294379"><ele>-3.0</ele><time>2026-04-12T09:21:56Z</time></trkpt><trkpt lat="44.61435730946359" lon="12.098035238591542"><ele>-2.6</ele><time>2026-04-12T09:21:58Z</time></trkpt><trkpt lat="44.61425091156071" lon="12.098039486514166"><ele>-2.1999999999999997</ele><time>2026-04-12T09:22:00Z</time></trkpt><trkpt lat="44.614143021123056" lon="12.098050451346918"><ele>-1.8</ele><time>2026-04-12T09:22:02Z</time></trkpt><trkpt lat="44.61403483274821" lon="12.098052277614718"><ele>-1.4</ele><time>2026-04-12T09:22:04Z</time></trkpt><trkpt lat="44.61393312625894" lon="12.098053873164423"><ele>-1.0</ele><time>2026-04-12T09:22:06Z</time></trkpt><trkpt lat="44.61383850169602" lon="12.098060473986886"><ele>-1.0</ele><time>2026-04-12T09:22:08Z</time></trkpt><trkpt lat="44.61374270902807" lon="12.098067868500397"><ele>-1.0</ele><time>2026-04-12T09:22:10Z</time></trkpt><trkpt lat="44.61363978319134" lon="12.098071885855811"><ele>-1.0</ele><time>2026-04-12T09:22:12Z</time></trkpt><trkpt lat="44.613538399329336" lon="12.098077346177124"><ele>-1.0</ele><time>2026-04-12T09:22:14Z</time></trkpt><trkpt lat="44.61343781652226" lon="12.098087126832636"><ele>-1.0</ele><time>2026-04-12T09:22:16Z</time></trkpt><trkpt lat="44.613337245367426" lon="12.09809234661202"><ele>-1.0</ele><time>2026-04-12T09:22:18Z</time></trkpt><trkpt lat="44.613236394112135" lon="12.098095459808317"><ele>-1.0</ele><time>2026-04-12T09:22:20Z</time></trkpt><trkpt lat="44.613132799888525" lon="12.09809818272011"><ele>-1.0</ele><time>2026-04-12T09:22:22Z</time></trkpt><trkpt lat="44.61302747882339" lon="12.098107773469392"><ele>-1.0</ele><time>2026-04-12T09:22:24Z</time></trkpt><trkpt lat="44.61292229626293" lon="12.098114325622067"><ele>-1.0</ele><time>2026-04-12T09:22:26Z</time></trkpt><trkpt lat="44.61282156279216" lon="12.098120069437186"><ele>-1.0</ele><time>2026-04-12T09:22:28Z</time></trkpt><trkpt lat="44.61271328421805" lon="12.098126083995945"><ele>-1.0</ele><time>2026-04-12T09:22:30Z</time></trkpt><trkpt lat="44.612609270203095" lon="12.098134153334737"><ele>-1.0</ele><time>2026-04-12T09:22:32Z</time></trkpt><trkpt lat="44.61250134561637" lon="12.098136613170599"><ele>-1.0</ele><time>2026-04-12T09:22:34Z</time></trkpt><trkpt lat="44.6123916976236" lon="12.098145271051347"><ele>-1.0</ele><time>2026-04-12T09:22:36Z</time></trkpt><trkpt lat="44.612286282981884" lon="12.098155645799919"><ele>-1.0</ele><time>2026-04-12T09:22:38Z</time></trkpt><trkpt lat="44.6121788592094" lon="12.098153668146447"><ele>-1.0</ele><time>2026-04-12T09:22:40Z</time></trkpt><trkpt lat="44.612073247809995" lon="12.098160961532981"><ele>-1.0</ele><time>2026-04-12T09:22:42Z</time></trkpt><trkpt lat="44.6119633244963" lon="12.098168309808122"><ele>-1.0</ele><time>2026-04-12T09:22:44Z</time></trkpt><trkpt lat="44.61185763014092" lon="12.098167396392636"><ele>-1.0</ele><time>2026-04-12T09:22:46Z</time></trkpt><trkpt lat="44.611794770137344" lon="12.098174161586906"><ele>-1.2000000000000002</ele><time>2026-04-12T09:22:47Z</time></trkpt><trkpt lat="44.61168107403348" lon="12.098182113765132"><ele>-1.4000000000000001</ele><time>2026-04-12T09:22:49Z</time></trkpt><trkpt lat="44.611566805380754" lon="12.098184703238045"><ele>-1.6</ele><time>2026-04-12T09:22:51Z</time></trkpt><trkpt lat="44.61145621274395" lon="12.098190235365058"><ele>-1.8</ele><time>2026-04-12T09:22:53Z</time></trkpt><trkpt lat="44.61134561789784" lon="12.09819484208757"><ele>-2.0</ele><time>2026-04-12T09:22:55Z</time></trkpt><trkpt lat="44.611237910752216" lon="12.098202067883179"><ele>-2.0</ele><time>2026-04-12T09:22:57Z</time></trkpt><trkpt lat="44.61112730975101" lon="12.098207573307361"><ele>-2.0</ele><time>2026-04-12T09:22:59Z</time></trkpt><trkpt lat="44.6110154206747" lon="12.098214961202215"><ele>-2.0</ele><time>2026-04-12T09:23:01Z</time></trkpt><trkpt lat="44.610903894500886" lon="12.098222076641846"><ele>-2.0</ele><time>2026-04-12T09:23:03Z</time></trkpt><trkpt lat="44.610793354454806" lon="12.098225498801247"><ele>-2.0</ele><time>2026-04-12T09:23:05Z</time></trkpt><trkpt lat="44.61068386361873" lon="12.098233764550821"><ele>-2.0</ele><time>2026-04-12T09:23:07Z</time></trkpt><trkpt lat="44.610577520366704" lon="12.098240977271205"><ele>-2.0</ele><time>2026-04-12T09:23:09Z</time></trkpt><trkpt lat="44.61046712220832" lon="12.09824197919182"><ele>-2.0</ele><time>2026-04-12T09:23:11Z</time></trkpt><trkpt lat="44.61035641316681" lon="12.098255182219829"><ele>-2.0</ele><time>2026-04-12T09:23:13Z</time></trkpt><trkpt lat="44.61024793670163" lon="12.098258568054478"><ele>-2.0</ele><time>2026-04-12T09:23:14.999Z</time></trkpt><trkpt lat="44.61013661545713" lon="12.098266946557185"><ele>-1.8</ele><time>2026-04-12T09:23:16.999Z</time></trkpt><trkpt lat="44.610022977974076" lon="12.0982715923911"><ele>-1.6</ele><time>2026-04-12T09:23:18.999Z</time></trkpt><trkpt lat="44.60991557155633" lon="12.09827953610602"><ele>-1.4000000000000001</ele><time>2026-04-12T09:23:20.999Z</time></trkpt><trkpt lat="44.60981493713452" lon="12.09828284695083"><ele>-1.2000000000000002</ele><time>2026-04-12T09:23:22.999Z</time></trkpt><trkpt lat="44.60971692475736" lon="12.09829151180182"><ele>-1.0</ele><time>2026-04-12T09:23:24.999Z</time></trkpt><trkpt lat="44.60961488185051" lon="12.098296388270377"><ele>-1.0</ele><time>2026-04-12T09:23:27Z</time></trkpt><trkpt lat="44.609511102015595" lon="12.098301559594994"><ele>-1.0</ele><time>2026-04-12T09:23:29Z</time></trkpt><trkpt lat="44.609409977236126" lon="12.098303958757501"><ele>-1.0</ele><time>2026-04-12T09:23:31Z</time></trkpt><trkpt lat="44.60931447695379" lon="12.098312003584768"><ele>-1.0</ele><time>2026-04-12T09:23:33Z</time></trkpt><trkpt lat="44.609214505242896" lon="12.098315806771186"><ele>-1.0</ele><time>2026-04-12T09:23:35Z</time></trkpt><trkpt lat="44.60911248463532" lon="12.098322665193825"><ele>-1.2000000000000002</ele><time>2026-04-12T09:23:37Z</time></trkpt><trkpt lat="44.60900824874961" lon="12.098329832609275"><ele>-1.4000000000000001</ele><time>2026-04-12T09:23:39Z</time></trkpt><trkpt lat="44.60890060140274" lon="12.098336614958667"><ele>-1.6</ele><time>2026-04-12T09:23:41Z</time></trkpt><trkpt lat="44.60879815927389" lon="12.098343708539035"><ele>-1.8</ele><time>2026-04-12T09:23:43Z</time></trkpt><trkpt lat="44.608692785486696" lon="12.098348379719859"><ele>-2.0</ele><time>2026-04-12T09:23:45Z</time></trkpt><trkpt lat="44.60858833967903" lon="12.09835256782072"><ele>-2.2</ele><time>2026-04-12T09:23:47Z</time></trkpt><trkpt lat="44.60848246280182" lon="12.098360881674935"><ele>-2.4000000000000004</ele><time>2026-04-12T09:23:49Z</time></trkpt><trkpt lat="44.60837379713572" lon="12.098365700519771"><ele>-2.5999999999999996</ele><time>2026-04-12T09:23:51Z</time></trkpt><trkpt lat="44.60826559122837" lon="12.098370558222253"><ele>-2.8</ele><time>2026-04-12T09:23:53Z</time></trkpt><trkpt lat="44.60815772754439" lon="12.09837743697209"><ele>-3.0</ele><time>2026-04-12T09:23:55Z</time></trkpt><trkpt lat="44.60805170021807" lon="12.09838091538869"><ele>-3.0</ele><time>2026-04-12T09:23:57Z</time></trkpt><trkpt lat="44.60794364300839" lon="12.098385272444908"><ele>-3.0</ele><time>2026-04-12T09:23:59Z</time></trkpt><trkpt lat="44.60783890961946" lon="12.098391223369106"><ele>-3.0</ele><time>2026-04-12T09:24:01Z</time></trkpt><trkpt lat="44.60773650587407" lon="12.098398069586924"><ele>-3.0</ele><time>2026-04-12T09:24:03Z</time></trkpt><trkpt lat="44.607633181050105" lon="12.09840273494399"><ele>-3.0</ele><time>2026-04-12T09:24:05Z</time></trkpt><trkpt lat="44.607527636017174" lon="12.098409326499349"><ele>-2.8</ele><time>2026-04-12T09:24:07Z</time></trkpt><trkpt lat="44.607420451825305" lon="12.098416364480139"><ele>-2.5999999999999996</ele><time>2026-04-12T09:24:09Z</time></trkpt><trkpt lat="44.60731324388093" lon="12.098421285103814"><ele>-2.4000000000000004</ele><time>2026-04-12T09:24:11Z</time></trkpt><trkpt lat="44.6072084974652" lon="12.09842768095616"><ele>-2.2</ele><time>2026-04-12T09:24:13Z</time></trkpt><trkpt lat="44.60710731090951" lon="12.098433808065195"><ele>-2.0</ele><time>2026-04-12T09:24:15Z</time></trkpt><trkpt lat="44.607003151802815" lon="12.098437697013622"><ele>-1.6</ele><time>2026-04-12T09:24:17Z</time></trkpt><trkpt lat="44.606898151539504" lon="12.098446180875152"><ele>-1.2000000000000002</ele><time>2026-04-12T09:24:19Z</time></trkpt><trkpt lat="44.60679290550235" lon="12.09845376741141"><ele>-0.8</ele><time>2026-04-12T09:24:21Z</time></trkpt><trkpt lat="44.60668791087502" lon="12.09845306078418"><ele>-0.4</ele><time>2026-04-12T09:24:23Z</time></trkpt><trkpt lat="44.606584446461575" lon="12.098461076881218"><ele>0.0</ele><time>2026-04-12T09:24:25Z</time></trkpt><trkpt lat="44.60648099527578" lon="12.098466973785584"><ele>0.0</ele><time>2026-04-12T09:24:27Z</time></trkpt><trkpt lat="44.60637565956129" lon="12.098471481668325"><ele>0.0</ele><time>2026-04-12T09:24:29Z</time></trkpt><trkpt lat="44.606274734148855" lon="12.09847986265436"><ele>0.0</ele><time>2026-04-12T09:24:31Z</time></trkpt><trkpt lat="44.606171485503914" lon="12.098485071995151"><ele>0.0</ele><time>2026-04-12T09:24:33Z</time></trkpt><trkpt lat="44.60606504375492" lon="12.098489484012594"><ele>0.0</ele><time>2026-04-12T09:24:35Z</time></trkpt><trkpt lat="44.60595547523193" lon="12.098495434558847"><ele>-0.2</ele><time>2026-04-12T09:24:37Z</time></trkpt><trkpt lat="44.6058523918738" lon="12.098498437386983"><ele>-0.4</ele><time>2026-04-12T09:24:39Z</time></trkpt><trkpt lat="44.60575514163454" lon="12.09850673137462"><ele>-0.6000000000000001</ele><time>2026-04-12T09:24:41Z</time></trkpt><trkpt lat="44.605666695358764" lon="12.098511922841642"><ele>-0.8</ele><time>2026-04-12T09:24:43Z</time></trkpt><trkpt lat="44.60558297877927" lon="12.098512813427512"><ele>-1.0</ele><time>2026-04-12T09:24:45Z</time></trkpt><trkpt lat="44.605503374568485" lon="12.098510644400628"><ele>-0.9999999999999999</ele><time>2026-04-12T09:24:47Z</time></trkpt><trkpt lat="44.60543213278825" lon="12.098529514330524"><ele>-1.0</ele><time>2026-04-12T09:24:49Z</time></trkpt><trkpt lat="44.605352755411516" lon="12.09853257675968"><ele>-1.0</ele><time>2026-04-12T09:24:51Z</time></trkpt><trkpt lat="44.60527051031124" lon="12.098532588867682"><ele>-1.0</ele><time>2026-04-12T09:24:53Z</time></trkpt><trkpt lat="44.60518454313824" lon="12.098534887760689"><ele>-0.9999999999999999</ele><time>2026-04-12T09:24:55Z</time></trkpt><trkpt lat="44.60509657347524" lon="12.09854203357379"><ele>-1.0</ele><time>2026-04-12T09:24:57Z</time></trkpt><trkpt lat="44.605006739994785" lon="12.098544868382294"><ele>-0.8333333333333333</ele><time>2026-04-12T09:24:59Z</time></trkpt><trkpt lat="44.60491700612402" lon="12.098549262694993"><ele>-0.6666666666666666</ele><time>2026-04-12T09:25:01Z</time></trkpt><trkpt lat="44.60483421528104" lon="12.098562997534897"><ele>-0.5</ele><time>2026-04-12T09:25:03Z</time></trkpt><trkpt lat="44.604768423146666" lon="12.09855367045578"><ele>-0.3333333333333333</ele><time>2026-04-12T09:26:13Z</time></trkpt><trkpt lat="44.604691852378316" lon="12.098574593554536"><ele>-0.16666666666666666</ele><time>2026-04-12T09:26:16Z</time></trkpt><trkpt lat="44.604627513620024" lon="12.098581092384775"><ele>0.0</ele><time>2026-04-12T09:26:18Z</time></trkpt><trkpt lat="44.60454831143023" lon="12.098585632331597"><ele>0.0</ele><time>2026-04-12T09:26:20Z</time></trkpt><trkpt lat="44.604463729371844" lon="12.098594702129876"><ele>0.0</ele><time>2026-04-12T09:26:22Z</time></trkpt><trkpt lat="44.6043756984976" lon="12.098602834001445"><ele>0.0</ele><time>2026-04-12T09:26:24Z</time></trkpt><trkpt lat="44.60428397299027" lon="12.098615192255444"><ele>0.0</ele><time>2026-04-12T09:26:26Z</time></trkpt><trkpt lat="44.60418650442041" lon="12.098621351246033"><ele>0.0</ele><time>2026-04-12T09:26:28Z</time></trkpt><trkpt lat="44.60409035681098" lon="12.098632454298588"><ele>0.0</ele><time>2026-04-12T09:26:30Z</time></trkpt><trkpt lat="44.60399911023072" lon="12.098638829080407"><ele>0.0</ele><time>2026-04-12T09:26:32Z</time></trkpt><trkpt lat="44.603897534566194" lon="12.098655901436524"><ele>0.0</ele><time>2026-04-12T09:26:34Z</time></trkpt><trkpt lat="44.60379708332834" lon="12.098662436026169"><ele>0.0</ele><time>2026-04-12T09:26:36Z</time></trkpt><trkpt lat="44.6037053732281" lon="12.098676677225923"><ele>0.0</ele><time>2026-04-12T09:26:38Z</time></trkpt><trkpt lat="44.60360605122895" lon="12.098689460369059"><ele>0.0</ele><time>2026-04-12T09:26:40Z</time></trkpt><trkpt lat="44.603505251846734" lon="12.098699950611447"><ele>0.0</ele><time>2026-04-12T09:26:42Z</time></trkpt><trkpt lat="44.60340575182287" lon="12.098716046758481"><ele>0.0</ele><time>2026-04-12T09:26:44Z</time></trkpt><trkpt lat="44.60330114124095" lon="12.09872752722453"><ele>0.0</ele><time>2026-04-12T09:26:46Z</time></trkpt><trkpt lat="44.60319280146678" lon="12.098740441520436"><ele>0.0</ele><time>2026-04-12T09:26:48Z</time></trkpt><trkpt lat="44.603085672543166" lon="12.098752534181635"><ele>0.0</ele><time>2026-04-12T09:26:50Z</time></trkpt><trkpt lat="44.602977298511156" lon="12.098769421405098"><ele>0.0</ele><time>2026-04-12T09:26:52Z</time></trkpt><trkpt lat="44.60286996273757" lon="12.098779998899285"><ele>0.0</ele><time>2026-04-12T09:26:54Z</time></trkpt><trkpt lat="44.60276174123404" lon="12.09879273749227"><ele>0.0</ele><time>2026-04-12T09:26:56Z</time></trkpt><trkpt lat="44.60265299279178" lon="12.098809366849899"><ele>0.0</ele><time>2026-04-12T09:26:58Z</time></trkpt><trkpt lat="44.60254335489787" lon="12.098818878345606"><ele>0.0</ele><time>2026-04-12T09:27:00Z</time></trkpt><trkpt lat="44.60243389804809" lon="12.098835568591412"><ele>0.0</ele><time>2026-04-12T09:27:02Z</time></trkpt><trkpt lat="44.60232511092146" lon="12.0988501265674"><ele>0.0</ele><time>2026-04-12T09:27:04Z</time></trkpt><trkpt lat="44.60221684903923" lon="12.098863354533835"><ele>0.0</ele><time>2026-04-12T09:27:06Z</time></trkpt><trkpt lat="44.602107812750226" lon="12.098874694967707"><ele>0.0</ele><time>2026-04-12T09:27:08Z</time></trkpt><trkpt lat="44.6019979132659" lon="12.098889012743548"><ele>0.0</ele><time>2026-04-12T09:27:10Z</time></trkpt><trkpt lat="44.60188462472953" lon="12.098902156229267"><ele>0.0</ele><time>2026-04-12T09:27:12Z</time></trkpt><trkpt lat="44.601776958369605" lon="12.09891617452588"><ele>0.0</ele><time>2026-04-12T09:27:14Z</time></trkpt><trkpt lat="44.60166684038448" lon="12.098926308591079"><ele>0.0</ele><time>2026-04-12T09:27:16Z</time></trkpt><trkpt lat="44.60155787321142" lon="12.098945256467138"><ele>0.0</ele><time>2026-04-12T09:27:18Z</time></trkpt><trkpt lat="44.60144636565228" lon="12.098958123281372"><ele>0.0</ele><time>2026-04-12T09:27:20Z</time></trkpt><trkpt lat="44.60133880410014" lon="12.098974518416645"><ele>0.0</ele><time>2026-04-12T09:27:21.999Z</time></trkpt><trkpt lat="44.601234305797966" lon="12.098985816452569"><ele>0.0</ele><time>2026-04-12T09:27:23.999Z</time></trkpt><trkpt lat="44.601125205247136" lon="12.098998901389663"><ele>0.0</ele><time>2026-04-12T09:27:25.999Z</time></trkpt><trkpt lat="44.601013674494645" lon="12.099016709719319"><ele>0.0</ele><time>2026-04-12T09:27:27.999Z</time></trkpt><trkpt lat="44.60090285044495" lon="12.099033466258799"><ele>-0.2</ele><time>2026-04-12T09:27:29.999Z</time></trkpt><trkpt lat="44.60079515781574" lon="12.099052945470303"><ele>-0.4</ele><time>2026-04-12T09:27:31.999Z</time></trkpt><trkpt lat="44.600688862590395" lon="12.09908565558587"><ele>-0.6000000000000001</ele><time>2026-04-12T09:27:33.999Z</time></trkpt><trkpt lat="44.60059078815133" lon="12.099097579649467"><ele>-0.8</ele><time>2026-04-12T09:27:35.999Z</time></trkpt><trkpt lat="44.600485076859414" lon="12.09912777919596"><ele>-1.0</ele><time>2026-04-12T09:27:38Z</time></trkpt><trkpt lat="44.60037937402453" lon="12.099154022068253"><ele>-1.0</ele><time>2026-04-12T09:27:40Z</time></trkpt><trkpt lat="44.600272644848395" lon="12.099189340960072"><ele>-1.0</ele><time>2026-04-12T09:27:42Z</time></trkpt><trkpt lat="44.60016865412169" lon="12.099223933322339"><ele>-1.0</ele><time>2026-04-12T09:27:44Z</time></trkpt><trkpt lat="44.600067305572665" lon="12.099257980597358"><ele>-1.0</ele><time>2026-04-12T09:27:46Z</time></trkpt><trkpt lat="44.59997043405536" lon="12.099288358295754"><ele>-1.0</ele><time>2026-04-12T09:27:48Z</time></trkpt><trkpt lat="44.59987535189734" lon="12.099322641981257"><ele>-1.0</ele><time>2026-04-12T09:27:50Z</time></trkpt><trkpt lat="44.59977758900234" lon="12.099348338807955"><ele>-1.0</ele><time>2026-04-12T09:27:52Z</time></trkpt><trkpt lat="44.59967861841665" lon="12.099381018689957"><ele>-1.0</ele><time>2026-04-12T09:27:54Z</time></trkpt><trkpt lat="44.59957633208371" lon="12.099418400667691"><ele>-1.0</ele><time>2026-04-12T09:27:56Z</time></trkpt><trkpt lat="44.599476586759785" lon="12.099452135713126"><ele>-1.0</ele><time>2026-04-12T09:27:58Z</time></trkpt><trkpt lat="44.59937773804859" lon="12.099484482032564"><ele>-1.4</ele><time>2026-04-12T09:28:00Z</time></trkpt><trkpt lat="44.59927706544907" lon="12.09951619082114"><ele>-1.8</ele><time>2026-04-12T09:28:02Z</time></trkpt><trkpt lat="44.59917488016282" lon="12.099550465053976"><ele>-2.1999999999999997</ele><time>2026-04-12T09:28:04Z</time></trkpt><trkpt lat="44.59906008605602" lon="12.09958751838582"><ele>-2.6</ele><time>2026-04-12T09:28:06Z</time></trkpt><trkpt lat="44.59894196223164" lon="12.0996258639569"><ele>-3.0</ele><time>2026-04-12T09:28:08Z</time></trkpt><trkpt lat="44.59882834304838" lon="12.099660172042451"><ele>-3.0</ele><time>2026-04-12T09:28:10Z</time></trkpt><trkpt lat="44.59871694015015" lon="12.099697162975355"><ele>-3.0</ele><time>2026-04-12T09:28:12Z</time></trkpt><trkpt lat="44.59860290987873" lon="12.099735844704242"><ele>-3.0</ele><time>2026-04-12T09:28:14Z</time></trkpt><trkpt lat="44.5984907273934" lon="12.099771230373229"><ele>-3.0</ele><time>2026-04-12T09:28:16Z</time></trkpt><trkpt lat="44.59838866694999" lon="12.099806794524358"><ele>-3.0</ele><time>2026-04-12T09:28:18Z</time></trkpt><trkpt lat="44.59827370356728" lon="12.099841539737856"><ele>-3.0</ele><time>2026-04-12T09:28:20Z</time></trkpt><trkpt lat="44.59816100133831" lon="12.099879570247506"><ele>-3.0</ele><time>2026-04-12T09:28:22Z</time></trkpt><trkpt lat="44.59804698682433" lon="12.099909208276172"><ele>-3.0</ele><time>2026-04-12T09:28:24Z</time></trkpt><trkpt lat="44.59793462726902" lon="12.099938867853384"><ele>-2.5</ele><time>2026-04-12T09:28:26Z</time></trkpt><trkpt lat="44.5978204631573" lon="12.099966629624017"><ele>-2.0</ele><time>2026-04-12T09:28:28Z</time></trkpt><trkpt lat="44.59770985954256" lon="12.099982979003562"><ele>-1.5</ele><time>2026-04-12T09:28:30Z</time></trkpt><trkpt lat="44.597597021347475" lon="12.100003974500384"><ele>-1.0</ele><time>2026-04-12T09:28:32Z</time></trkpt><trkpt lat="44.59748612267849" lon="12.100018670879775"><ele>-1.0</ele><time>2026-04-12T09:28:34Z</time></trkpt><trkpt lat="44.59737421406246" lon="12.100031731622103"><ele>-1.0</ele><time>2026-04-12T09:28:36Z</time></trkpt><trkpt lat="44.597267395769464" lon="12.100047588226234"><ele>-1.0</ele><time>2026-04-12T09:28:38Z</time></trkpt><trkpt lat="44.59716231663485" lon="12.100060093053363"><ele>-1.0</ele><time>2026-04-12T09:28:40Z</time></trkpt><trkpt lat="44.59705248780123" lon="12.10007399001473"><ele>-1.0</ele><time>2026-04-12T09:28:42Z</time></trkpt><trkpt lat="44.59694501118769" lon="12.100087497615238"><ele>-1.0</ele><time>2026-04-12T09:28:44Z</time></trkpt><trkpt lat="44.59684188766588" lon="12.100099515032086"><ele>-1.0</ele><time>2026-04-12T09:28:46Z</time></trkpt><trkpt lat="44.596743504892345" lon="12.100109728413367"><ele>-1.0</ele><time>2026-04-12T09:28:48Z</time></trkpt><trkpt lat="44.59664953481925" lon="12.10011858841306"><ele>-1.0</ele><time>2026-04-12T09:28:50Z</time></trkpt><trkpt lat="44.59656170361413" lon="12.100122217158606"><ele>-1.0</ele><time>2026-04-12T09:28:52Z</time></trkpt><trkpt lat="44.59648669032547" lon="12.100135943543673"><ele>-0.9999999999999999</ele><time>2026-04-12T09:28:54Z</time></trkpt><trkpt lat="44.596407759412635" lon="12.100144836124342"><ele>-1.0</ele><time>2026-04-12T09:28:56Z</time></trkpt><trkpt lat="44.596326289688996" lon="12.10015698273037"><ele>-1.0</ele><time>2026-04-12T09:28:58Z</time></trkpt><trkpt lat="44.59623913279702" lon="12.100165514927086"><ele>-1.0</ele><time>2026-04-12T09:29:00Z</time></trkpt><trkpt lat="44.596143702784026" lon="12.100180557702515"><ele>-0.9999999999999999</ele><time>2026-04-12T09:29:02Z</time></trkpt><trkpt lat="44.596043910698505" lon="12.100189425124158"><ele>-1.0</ele><time>2026-04-12T09:29:04Z</time></trkpt><trkpt lat="44.595945439540316" lon="12.100204984753539"><ele>-1.2000000000000002</ele><time>2026-04-12T09:29:06Z</time></trkpt><trkpt lat="44.59584888056372" lon="12.100218044199396"><ele>-1.4000000000000001</ele><time>2026-04-12T09:29:07.999Z</time></trkpt><trkpt lat="44.595747973345304" lon="12.10022937688234"><ele>-1.6</ele><time>2026-04-12T09:29:09.999Z</time></trkpt><trkpt lat="44.595645598596136" lon="12.100241665583479"><ele>-1.8</ele><time>2026-04-12T09:29:11.999Z</time></trkpt><trkpt lat="44.59554544970526" lon="12.100258375970734"><ele>-2.0</ele><time>2026-04-12T09:29:13.999Z</time></trkpt><trkpt lat="44.59544032590544" lon="12.100268380817957"><ele>-2.0</ele><time>2026-04-12T09:29:15.999Z</time></trkpt><trkpt lat="44.59533728605155" lon="12.10027924272031"><ele>-2.0</ele><time>2026-04-12T09:29:17.999Z</time></trkpt><trkpt lat="44.595236425630844" lon="12.100294138558217"><ele>-2.0</ele><time>2026-04-12T09:29:19.999Z</time></trkpt><trkpt lat="44.5951357505777" lon="12.100307195803731"><ele>-2.0</ele><time>2026-04-12T09:29:21.999Z</time></trkpt><trkpt lat="44.59503853278603" lon="12.100323325386253"><ele>-2.0</ele><time>2026-04-12T09:29:23.999Z</time></trkpt><trkpt lat="44.59493952285676" lon="12.100330638549528"><ele>-2.0</ele><time>2026-04-12T09:29:25.999Z</time></trkpt><trkpt lat="44.59483987870466" lon="12.100345789713668"><ele>-2.0</ele><time>2026-04-12T09:29:27.999Z</time></trkpt><trkpt lat="44.594736940599226" lon="12.10035953928106"><ele>-2.0</ele><time>2026-04-12T09:29:29.999Z</time></trkpt><trkpt lat="44.59463404231911" lon="12.100371490056496"><ele>-2.0</ele><time>2026-04-12T09:29:31.999Z</time></trkpt><trkpt lat="44.59453088006652" lon="12.100384794061323"><ele>-2.0</ele><time>2026-04-12T09:29:33.999Z</time></trkpt><trkpt lat="44.59442714161978" lon="12.100398205683925"><ele>-1.8</ele><time>2026-04-12T09:29:35.999Z</time></trkpt><trkpt lat="44.59432136294713" lon="12.100412678148519"><ele>-1.6</ele><time>2026-04-12T09:29:37.999Z</time></trkpt><trkpt lat="44.59421479872957" lon="12.100424468385452"><ele>-1.4000000000000001</ele><time>2026-04-12T09:29:39.999Z</time></trkpt><trkpt lat="44.59410956554912" lon="12.100438279883024"><ele>-1.2000000000000002</ele><time>2026-04-12T09:29:41.999Z</time></trkpt><trkpt lat="44.594006099771626" lon="12.100454727214663"><ele>-1.0</ele><time>2026-04-12T09:29:44Z</time></trkpt><trkpt lat="44.59390292079271" lon="12.100470833361008"><ele>-1.0</ele><time>2026-04-12T09:29:46Z</time></trkpt><trkpt lat="44.59380010408548" lon="12.100485386109673"><ele>-1.0</ele><time>2026-04-12T09:29:48Z</time></trkpt><trkpt lat="44.59369543191226" lon="12.100495496655741"><ele>-1.0</ele><time>2026-04-12T09:29:50Z</time></trkpt><trkpt lat="44.593587873310184" lon="12.100507322066061"><ele>-1.0</ele><time>2026-04-12T09:29:52Z</time></trkpt><trkpt lat="44.5934801117773" lon="12.100523533246824"><ele>-1.0</ele><time>2026-04-12T09:29:54Z</time></trkpt><trkpt lat="44.593372835518856" lon="12.100533017362421"><ele>-1.2000000000000002</ele><time>2026-04-12T09:29:56Z</time></trkpt><trkpt lat="44.593264009314375" lon="12.100547291738627"><ele>-1.4000000000000001</ele><time>2026-04-12T09:29:58Z</time></trkpt><trkpt lat="44.59315759070945" lon="12.100562928582274"><ele>-1.6</ele><time>2026-04-12T09:30:00Z</time></trkpt><trkpt lat="44.59305486291364" lon="12.100572553150377"><ele>-1.8</ele><time>2026-04-12T09:30:02Z</time></trkpt><trkpt lat="44.59295220400658" lon="12.100581715448826"><ele>-2.0</ele><time>2026-04-12T09:30:04Z</time></trkpt><trkpt lat="44.592844259297635" lon="12.100598836931264"><ele>-1.8</ele><time>2026-04-12T09:30:06Z</time></trkpt><trkpt lat="44.592734458027174" lon="12.100609982501444"><ele>-1.6</ele><time>2026-04-12T09:30:08Z</time></trkpt><trkpt lat="44.592629058900634" lon="12.100616873118948"><ele>-1.4000000000000001</ele><time>2026-04-12T09:30:10Z</time></trkpt><trkpt lat="44.59252116043609" lon="12.100636302005848"><ele>-1.2000000000000002</ele><time>2026-04-12T09:30:12Z</time></trkpt><trkpt lat="44.592414178825464" lon="12.10065096851313"><ele>-1.0</ele><time>2026-04-12T09:30:14Z</time></trkpt><trkpt lat="44.59231192413812" lon="12.100664427969361"><ele>-1.0</ele><time>2026-04-12T09:30:16Z</time></trkpt><trkpt lat="44.592217221141134" lon="12.100674012113606"><ele>-1.0</ele><time>2026-04-12T09:30:18Z</time></trkpt><trkpt lat="44.59211976730267" lon="12.100686236001307"><ele>-1.0</ele><time>2026-04-12T09:30:20Z</time></trkpt><trkpt lat="44.59202036597627" lon="12.100699556038904"><ele>-1.0</ele><time>2026-04-12T09:30:22Z</time></trkpt><trkpt lat="44.59191851149871" lon="12.100709583273765"><ele>-1.0</ele><time>2026-04-12T09:30:24Z</time></trkpt><trkpt lat="44.591816675492176" lon="12.100726267331707"><ele>-1.0</ele><time>2026-04-12T09:30:26Z</time></trkpt><trkpt lat="44.59172287095725" lon="12.100748400452602"><ele>-1.0</ele><time>2026-04-12T09:30:28Z</time></trkpt><trkpt lat="44.59162465181978" lon="12.1007463737074"><ele>-1.0</ele><time>2026-04-12T09:30:30Z</time></trkpt><trkpt lat="44.591520102992874" lon="12.10076000817369"><ele>-1.0</ele><time>2026-04-12T09:30:32Z</time></trkpt><trkpt lat="44.59141329774159" lon="12.100763994705028"><ele>-1.0</ele><time>2026-04-12T09:30:34Z</time></trkpt><trkpt lat="44.59130143072333" lon="12.100790937001408"><ele>-0.4</ele><time>2026-04-12T09:30:36Z</time></trkpt><trkpt lat="44.5911928566845" lon="12.100803798428828"><ele>0.19999999999999996</ele><time>2026-04-12T09:30:38Z</time></trkpt><trkpt lat="44.59108639635903" lon="12.100825087694966"><ele>0.8000000000000002</ele><time>2026-04-12T09:30:40Z</time></trkpt><trkpt lat="44.59097870167948" lon="12.100836597949863"><ele>1.4000000000000001</ele><time>2026-04-12T09:30:42Z</time></trkpt><trkpt lat="44.59087155734249" lon="12.1008735890572"><ele>2.0</ele><time>2026-04-12T09:30:44Z</time></trkpt><trkpt lat="44.590761267454354" lon="12.100897234122721"><ele>2.0</ele><time>2026-04-12T09:30:46Z</time></trkpt><trkpt lat="44.59065260529045" lon="12.100934786832962"><ele>2.0</ele><time>2026-04-12T09:30:48Z</time></trkpt><trkpt lat="44.59054219461086" lon="12.100975966927768"><ele>2.0</ele><time>2026-04-12T09:30:50Z</time></trkpt><trkpt lat="44.59043120261902" lon="12.101016371414522"><ele>2.0</ele><time>2026-04-12T09:30:52Z</time></trkpt><trkpt lat="44.590328073628065" lon="12.101051318376985"><ele>2.0</ele><time>2026-04-12T09:30:54Z</time></trkpt><trkpt lat="44.590218289342694" lon="12.101099015737066"><ele>1.0</ele><time>2026-04-12T09:30:56Z</time></trkpt><trkpt lat="44.5901132199682" lon="12.10115025966786"><ele>2.220446049250313E-16</ele><time>2026-04-12T09:30:58Z</time></trkpt><trkpt lat="44.590010789913904" lon="12.101203735224253"><ele>-0.9999999999999998</ele><time>2026-04-12T09:31:00Z</time></trkpt><trkpt lat="44.589912053394656" lon="12.101254626503541"><ele>-2.0</ele><time>2026-04-12T09:31:02Z</time></trkpt><trkpt lat="44.58981218147682" lon="12.101305979528066"><ele>-3.0</ele><time>2026-04-12T09:31:04Z</time></trkpt><trkpt lat="44.589714643257075" lon="12.101359589643357"><ele>-3.0</ele><time>2026-04-12T09:31:06Z</time></trkpt><trkpt lat="44.58962143494955" lon="12.101414079181483"><ele>-3.0</ele><time>2026-04-12T09:31:08Z</time></trkpt><trkpt lat="44.58952816942947" lon="12.101468361954929"><ele>-3.0</ele><time>2026-04-12T09:31:09.999Z</time></trkpt><trkpt lat="44.589432375101104" lon="12.10152291730525"><ele>-3.0</ele><time>2026-04-12T09:31:11.999Z</time></trkpt><trkpt lat="44.58933335785183" lon="12.101581405499259"><ele>-3.0</ele><time>2026-04-12T09:31:13.999Z</time></trkpt><trkpt lat="44.58923230584237" lon="12.101641299037878"><ele>-2.6</ele><time>2026-04-12T09:31:15.999Z</time></trkpt><trkpt lat="44.58913120562369" lon="12.101698827853046"><ele>-2.1999999999999997</ele><time>2026-04-12T09:31:17.999Z</time></trkpt><trkpt lat="44.58903398487893" lon="12.101755974978635"><ele>-1.8</ele><time>2026-04-12T09:31:19.999Z</time></trkpt><trkpt lat="44.58894410087004" lon="12.1018073645523"><ele>-1.4</ele><time>2026-04-12T09:31:21.999Z</time></trkpt><trkpt lat="44.588848219517935" lon="12.101854175525016"><ele>-1.0</ele><time>2026-04-12T09:31:23.999Z</time></trkpt><trkpt lat="44.5887580768096" lon="12.10191121281893"><ele>-1.4</ele><time>2026-04-12T09:31:25.999Z</time></trkpt><trkpt lat="44.58866622489336" lon="12.101957191459508"><ele>-1.8</ele><time>2026-04-12T09:31:27.999Z</time></trkpt><trkpt lat="44.58857014469197" lon="12.10201096444439"><ele>-2.1999999999999997</ele><time>2026-04-12T09:31:29.999Z</time></trkpt><trkpt lat="44.58847123445906" lon="12.102068705755164"><ele>-2.6</ele><time>2026-04-12T09:31:31.999Z</time></trkpt><trkpt lat="44.58837649688276" lon="12.102124758218535"><ele>-3.0</ele><time>2026-04-12T09:31:33.999Z</time></trkpt><trkpt lat="44.58827879063379" lon="12.102177287566523"><ele>-3.0</ele><time>2026-04-12T09:31:35.999Z</time></trkpt><trkpt lat="44.58817930167698" lon="12.102231714846221"><ele>-3.0</ele><time>2026-04-12T09:31:37.999Z</time></trkpt><trkpt lat="44.58807789677634" lon="12.102286917715967"><ele>-3.0</ele><time>2026-04-12T09:31:39.999Z</time></trkpt><trkpt lat="44.587980096952684" lon="12.102343405553805"><ele>-3.0</ele><time>2026-04-12T09:31:41.999Z</time></trkpt><trkpt lat="44.587880392494455" lon="12.102395965400532"><ele>-3.0</ele><time>2026-04-12T09:31:43.999Z</time></trkpt><trkpt lat="44.58777879133526" lon="12.1024508582237"><ele>-3.0</ele><time>2026-04-12T09:31:45.999Z</time></trkpt><trkpt lat="44.58767286781291" lon="12.102505683748559"><ele>-3.0</ele><time>2026-04-12T09:31:47.999Z</time></trkpt><trkpt lat="44.58756334760808" lon="12.102560005775308"><ele>-3.0</ele><time>2026-04-12T09:31:50Z</time></trkpt><trkpt lat="44.58745493625255" lon="12.10260481965708"><ele>-3.0</ele><time>2026-04-12T09:31:52Z</time></trkpt><trkpt lat="44.58734844443976" lon="12.102645310309853"><ele>-3.0</ele><time>2026-04-12T09:31:54Z</time></trkpt><trkpt lat="44.58724403663047" lon="12.1026768303157"><ele>-3.0</ele><time>2026-04-12T09:31:56Z</time></trkpt><trkpt lat="44.58713328465908" lon="12.102703960416509"><ele>-3.0</ele><time>2026-04-12T09:31:58Z</time></trkpt><trkpt lat="44.587019316166035" lon="12.102731484480461"><ele>-3.0</ele><time>2026-04-12T09:32:00Z</time></trkpt><trkpt lat="44.58690170605914" lon="12.102753941930661"><ele>-2.5</ele><time>2026-04-12T09:32:02Z</time></trkpt><trkpt lat="44.58678258023392" lon="12.102767421437894"><ele>-2.0</ele><time>2026-04-12T09:32:04Z</time></trkpt><trkpt lat="44.58666369651455" lon="12.102777631698311"><ele>-1.5</ele><time>2026-04-12T09:32:06Z</time></trkpt><trkpt lat="44.58654505372801" lon="12.102784450493713"><ele>-1.0</ele><time>2026-04-12T09:32:08Z</time></trkpt><trkpt lat="44.586422816732735" lon="12.102777831579996"><ele>-1.0</ele><time>2026-04-12T09:32:10Z</time></trkpt><trkpt lat="44.5863032844262" lon="12.102774513341357"><ele>-1.0</ele><time>2026-04-12T09:32:12Z</time></trkpt><trkpt lat="44.586190234881904" lon="12.102762809667826"><ele>-1.0</ele><time>2026-04-12T09:32:14Z</time></trkpt><trkpt lat="44.586083803510405" lon="12.102756321347204"><ele>-1.0</ele><time>2026-04-12T09:32:16Z</time></trkpt><trkpt lat="44.58597480289434" lon="12.102732195759442"><ele>-1.0</ele><time>2026-04-12T09:32:18Z</time></trkpt><trkpt lat="44.585864587260055" lon="12.102710573059419"><ele>-1.0</ele><time>2026-04-12T09:32:20Z</time></trkpt><trkpt lat="44.58575412805684" lon="12.10268724644291"><ele>-1.0</ele><time>2026-04-12T09:32:22Z</time></trkpt><trkpt lat="44.58564645883741" lon="12.102657330871292"><ele>-1.0</ele><time>2026-04-12T09:32:24Z</time></trkpt><trkpt lat="44.58554268950558" lon="12.102612616794492"><ele>-1.0</ele><time>2026-04-12T09:32:26Z</time></trkpt><trkpt lat="44.585427295210636" lon="12.102583253433476"><ele>-1.0</ele><time>2026-04-12T09:32:28Z</time></trkpt><trkpt lat="44.58531961760732" lon="12.102550265440685"><ele>-1.0</ele><time>2026-04-12T09:32:30Z</time></trkpt><trkpt lat="44.58520881816503" lon="12.10251309174608"><ele>-1.0</ele><time>2026-04-12T09:32:32Z</time></trkpt><trkpt lat="44.58510170597801" lon="12.10247949422014"><ele>-1.0</ele><time>2026-04-12T09:32:34Z</time></trkpt><trkpt lat="44.58499374817051" lon="12.102449120849329"><ele>-1.0</ele><time>2026-04-12T09:32:36Z</time></trkpt><trkpt lat="44.58488418928278" lon="12.102418878856735"><ele>-1.0</ele><time>2026-04-12T09:32:38Z</time></trkpt><trkpt lat="44.584774170415315" lon="12.102389615988173"><ele>-1.0</ele><time>2026-04-12T09:32:40Z</time></trkpt><trkpt lat="44.58466649775884" lon="12.102371697466838"><ele>-1.0</ele><time>2026-04-12T09:32:42Z</time></trkpt><trkpt lat="44.58455945704538" lon="12.10235295670122"><ele>-1.0</ele><time>2026-04-12T09:32:44Z</time></trkpt><trkpt lat="44.5844496319184" lon="12.102338820179554"><ele>-1.0</ele><time>2026-04-12T09:32:46Z</time></trkpt><trkpt lat="44.584338520701664" lon="12.102332157571698"><ele>-0.8</ele><time>2026-04-12T09:32:48Z</time></trkpt><trkpt lat="44.584229295908" lon="12.102323130192719"><ele>-0.6000000000000001</ele><time>2026-04-12T09:32:50Z</time></trkpt><trkpt lat="44.584128121685616" lon="12.102326122398205"><ele>-0.4</ele><time>2026-04-12T09:32:52Z</time></trkpt><trkpt lat="44.58402979085458" lon="12.102329089399248"><ele>-0.2</ele><time>2026-04-12T09:32:54Z</time></trkpt><trkpt lat="44.58392957277539" lon="12.102342420707313"><ele>0.0</ele><time>2026-04-12T09:32:56Z</time></trkpt><trkpt lat="44.5838277620474" lon="12.102353841606927"><ele>0.0</ele><time>2026-04-12T09:32:58Z</time></trkpt><trkpt lat="44.58372264933141" lon="12.102369783471305"><ele>0.0</ele><time>2026-04-12T09:32:59.999Z</time></trkpt><trkpt lat="44.58361890134867" lon="12.102384220353576"><ele>0.0</ele><time>2026-04-12T09:33:01.999Z</time></trkpt><trkpt lat="44.58351526340662" lon="12.10240588109332"><ele>0.0</ele><time>2026-04-12T09:33:03.999Z</time></trkpt><trkpt lat="44.583412885605405" lon="12.102438295662331"><ele>0.0</ele><time>2026-04-12T09:33:05.999Z</time></trkpt><trkpt lat="44.583311723992814" lon="12.102474329775337"><ele>0.0</ele><time>2026-04-12T09:33:07.999Z</time></trkpt><trkpt lat="44.58320524160026" lon="12.102502268306493"><ele>0.0</ele><time>2026-04-12T09:33:09.999Z</time></trkpt><trkpt lat="44.58310000710189" lon="12.102545974312998"><ele>0.0</ele><time>2026-04-12T09:33:11.999Z</time></trkpt><trkpt lat="44.58299588352706" lon="12.10259112764275"><ele>0.0</ele><time>2026-04-12T09:33:13.999Z</time></trkpt><trkpt lat="44.58289373089184" lon="12.102633556709359"><ele>0.0</ele><time>2026-04-12T09:33:15.999Z</time></trkpt><trkpt lat="44.58279224258555" lon="12.102675776098977"><ele>-0.4</ele><time>2026-04-12T09:33:17.999Z</time></trkpt><trkpt lat="44.58268918464231" lon="12.102719224444167"><ele>-0.8</ele><time>2026-04-12T09:33:19.999Z</time></trkpt><trkpt lat="44.58258593473299" lon="12.102763156987251"><ele>-1.2000000000000002</ele><time>2026-04-12T09:33:21.999Z</time></trkpt><trkpt lat="44.58248308353058" lon="12.102807458491231"><ele>-1.6</ele><time>2026-04-12T09:33:23.999Z</time></trkpt><trkpt lat="44.58237897142972" lon="12.102851851078258"><ele>-2.0</ele><time>2026-04-12T09:33:25.999Z</time></trkpt><trkpt lat="44.5822763240965" lon="12.102898776225905"><ele>-2.0</ele><time>2026-04-12T09:33:27.999Z</time></trkpt><trkpt lat="44.58217398429642" lon="12.102942688306142"><ele>-2.0</ele><time>2026-04-12T09:33:29.999Z</time></trkpt><trkpt lat="44.58207550906384" lon="12.102987393624998"><ele>-2.0</ele><time>2026-04-12T09:33:31.999Z</time></trkpt><trkpt lat="44.58197374639936" lon="12.103030193623322"><ele>-2.0</ele><time>2026-04-12T09:33:33.999Z</time></trkpt><trkpt lat="44.58187142744958" lon="12.103073356097154"><ele>-2.0</ele><time>2026-04-12T09:33:35.999Z</time></trkpt><trkpt lat="44.581768158801104" lon="12.103117472126412"><ele>-1.8</ele><time>2026-04-12T09:33:37.999Z</time></trkpt><trkpt lat="44.58166427970431" lon="12.103161692153998"><ele>-1.6</ele><time>2026-04-12T09:33:39.999Z</time></trkpt><trkpt lat="44.581561746461865" lon="12.10320695641372"><ele>-1.4000000000000001</ele><time>2026-04-12T09:33:41.999Z</time></trkpt><trkpt lat="44.58145876742021" lon="12.103250095957248"><ele>-1.2000000000000002</ele><time>2026-04-12T09:33:43.999Z</time></trkpt><trkpt lat="44.5813546608036" lon="12.103294224027252"><ele>-1.0</ele><time>2026-04-12T09:33:45.999Z</time></trkpt><trkpt lat="44.581294479243226" lon="12.103325340249315"><ele>-1.2000000000000002</ele><time>2026-04-12T09:33:46.999Z</time></trkpt><trkpt lat="44.58119824285678" lon="12.103361487732906"><ele>-1.4000000000000001</ele><time>2026-04-12T09:33:48.999Z</time></trkpt><trkpt lat="44.581096421667645" lon="12.103403780218619"><ele>-1.6</ele><time>2026-04-12T09:33:50.999Z</time></trkpt><trkpt lat="44.58100030371484" lon="12.103445065339107"><ele>-1.8</ele><time>2026-04-12T09:33:52.999Z</time></trkpt><trkpt lat="44.58090298386652" lon="12.103486152377554"><ele>-2.0</ele><time>2026-04-12T09:33:54.999Z</time></trkpt><trkpt lat="44.58080856436058" lon="12.103529191316948"><ele>-2.0</ele><time>2026-04-12T09:33:57Z</time></trkpt><trkpt lat="44.58071063457934" lon="12.103570951615186"><ele>-2.0</ele><time>2026-04-12T09:33:59Z</time></trkpt><trkpt lat="44.58061113250307" lon="12.103614880687983"><ele>-2.0</ele><time>2026-04-12T09:34:01Z</time></trkpt><trkpt lat="44.58051117560757" lon="12.103656658467532"><ele>-2.0</ele><time>2026-04-12T09:34:03Z</time></trkpt><trkpt lat="44.580410522195216" lon="12.103700719098988"><ele>-2.0</ele><time>2026-04-12T09:34:05Z</time></trkpt><trkpt lat="44.58031066042068" lon="12.103746986842445"><ele>-2.0</ele><time>2026-04-12T09:34:07Z</time></trkpt><trkpt lat="44.5802082119042" lon="12.103788376236526"><ele>-2.0</ele><time>2026-04-12T09:34:09Z</time></trkpt><trkpt lat="44.580106055927985" lon="12.103826767636045"><ele>-2.0</ele><time>2026-04-12T09:34:11Z</time></trkpt><trkpt lat="44.580009145619634" lon="12.10387113016121"><ele>-2.0</ele><time>2026-04-12T09:34:13Z</time></trkpt><trkpt lat="44.57991546167283" lon="12.103912674070997"><ele>-2.0</ele><time>2026-04-12T09:34:15Z</time></trkpt><trkpt lat="44.57982013452252" lon="12.103955704886419"><ele>-2.0</ele><time>2026-04-12T09:34:17Z</time></trkpt><trkpt lat="44.579721860085165" lon="12.10399390979219"><ele>-2.0</ele><time>2026-04-12T09:34:19Z</time></trkpt><trkpt lat="44.57962301917123" lon="12.104034931499935"><ele>-2.0</ele><time>2026-04-12T09:34:21Z</time></trkpt><trkpt lat="44.579522448596215" lon="12.104080682174406"><ele>-2.0</ele><time>2026-04-12T09:34:23Z</time></trkpt><trkpt lat="44.579421263060546" lon="12.104124220000013"><ele>-2.0</ele><time>2026-04-12T09:34:25Z</time></trkpt><trkpt lat="44.579319511615125" lon="12.104170324861537"><ele>-2.0</ele><time>2026-04-12T09:34:27Z</time></trkpt><trkpt lat="44.579219816460785" lon="12.104210537211538"><ele>-2.0</ele><time>2026-04-12T09:34:29Z</time></trkpt><trkpt lat="44.57911854446666" lon="12.104246803424205"><ele>-2.0</ele><time>2026-04-12T09:34:31Z</time></trkpt><trkpt lat="44.57901545030162" lon="12.10427518041298"><ele>-2.0</ele><time>2026-04-12T09:34:33Z</time></trkpt><trkpt lat="44.57891449815272" lon="12.104304019393444"><ele>-2.0</ele><time>2026-04-12T09:34:35Z</time></trkpt><trkpt lat="44.57881096370686" lon="12.104327714906637"><ele>-1.9999999999999998</ele><time>2026-04-12T09:34:37Z</time></trkpt><trkpt lat="44.5787133906312" lon="12.104356735883162"><ele>-2.0</ele><time>2026-04-12T09:34:39Z</time></trkpt><trkpt lat="44.578622673663816" lon="12.104374073962811"><ele>-2.0</ele><time>2026-04-12T09:34:41Z</time></trkpt><trkpt lat="44.57854021841402" lon="12.104391964196537"><ele>-2.0</ele><time>2026-04-12T09:34:43Z</time></trkpt><trkpt lat="44.57846152075408" lon="12.10440902985464"><ele>-1.9999999999999998</ele><time>2026-04-12T09:34:45Z</time></trkpt><trkpt lat="44.578391036275775" lon="12.104429449905462"><ele>-2.0</ele><time>2026-04-12T09:34:47Z</time></trkpt><trkpt lat="44.57832431704963" lon="12.10445268054453"><ele>-2.2857142857142856</ele><time>2026-04-12T09:34:49Z</time></trkpt><trkpt lat="44.57825464325341" lon="12.104478752766774"><ele>-2.571428571428571</ele><time>2026-04-12T09:34:51Z</time></trkpt><trkpt lat="44.5781902060496" lon="12.104536914655126"><ele>-2.8571428571428568</ele><time>2026-04-12T09:34:53Z</time></trkpt><trkpt lat="44.57812235833373" lon="12.104559854107196"><ele>-3.142857142857143</ele><time>2026-04-12T09:34:55Z</time></trkpt><trkpt lat="44.57803662701878" lon="12.104577158265563"><ele>-3.428571428571428</ele><time>2026-04-12T09:34:57.999Z</time></trkpt><trkpt lat="44.57796964042816" lon="12.104615904668343"><ele>-3.714285714285714</ele><time>2026-04-12T09:35:00.999Z</time></trkpt><trkpt lat="44.57792070987448" lon="12.104676157143983"><ele>-4.0</ele><time>2026-04-12T09:35:03.999Z</time></trkpt><trkpt lat="44.5778018166379" lon="12.104721995032916"><ele>-3.9999999999999996</ele><time>2026-04-12T09:40:22Z</time></trkpt><trkpt lat="44.57773500702661" lon="12.104788744556226"><ele>-4.0</ele><time>2026-04-12T09:40:26Z</time></trkpt><trkpt lat="44.57766485849142" lon="12.104863447990526"><ele>-4.0</ele><time>2026-04-12T09:40:30Z</time></trkpt><trkpt lat="44.577620904524785" lon="12.104935525680544"><ele>-4.0</ele><time>2026-04-12T09:40:33Z</time></trkpt><trkpt lat="44.57757726392723" lon="12.105024148628301"><ele>-3.9999999999999996</ele><time>2026-04-12T09:40:38Z</time></trkpt><trkpt lat="44.577540452136695" lon="12.105098609543928"><ele>-4.0</ele><time>2026-04-12T09:40:41Z</time></trkpt><trkpt lat="44.577521291195666" lon="12.105213739977783"><ele>-3.8571428571428568</ele><time>2026-04-12T09:40:44Z</time></trkpt><trkpt lat="44.57752870716529" lon="12.105317741199705"><ele>-3.714285714285714</ele><time>2026-04-12T09:40:48Z</time></trkpt><trkpt lat="44.57752807009375" lon="12.105409719445051"><ele>-3.571428571428571</ele><time>2026-04-12T09:40:51Z</time></trkpt><trkpt lat="44.57752744478141" lon="12.105520333761435"><ele>-3.4285714285714284</ele><time>2026-04-12T09:40:54.999Z</time></trkpt><trkpt lat="44.57753203147288" lon="12.105621174042652"><ele>-3.2857142857142856</ele><time>2026-04-12T09:40:58.999Z</time></trkpt><trkpt lat="44.577526886874985" lon="12.105721269842693"><ele>-3.1428571428571423</ele><time>2026-04-12T09:41:02.999Z</time></trkpt><trkpt lat="44.577507939194334" lon="12.105827347863102"><ele>-3.0</ele><time>2026-04-12T09:41:07.999Z</time></trkpt><trkpt lat="44.577500486008894" lon="12.105935212808603"><ele>-2.9999999999999996</ele><time>2026-04-12T09:41:11.999Z</time></trkpt><trkpt lat="44.57749257879204" lon="12.106033323288855"><ele>-3.0</ele><time>2026-04-12T09:41:15.999Z</time></trkpt><trkpt lat="44.577470275909334" lon="12.106146581270162"><ele>-3.0</ele><time>2026-04-12T09:41:19.999Z</time></trkpt><trkpt lat="44.577449277769766" lon="12.106236603603582"><ele>-3.0</ele><time>2026-04-12T09:41:22.999Z</time></trkpt><trkpt lat="44.57743266495187" lon="12.106327557646038"><ele>-3.0</ele><time>2026-04-12T09:41:25.999Z</time></trkpt><trkpt lat="44.57740554360872" lon="12.106418326537773"><ele>-2.9999999999999996</ele><time>2026-04-12T09:41:28.999Z</time></trkpt><trkpt lat="44.57738504785607" lon="12.106513067127477"><ele>-3.0</ele><time>2026-04-12T09:41:31.999Z</time></trkpt><trkpt lat="44.57734877181742" lon="12.106609379213262"><ele>-3.0</ele><time>2026-04-12T09:41:34.999Z</time></trkpt><trkpt lat="44.57732594869494" lon="12.106719036383241"><ele>-3.0</ele><time>2026-04-12T09:41:37.999Z</time></trkpt><trkpt lat="44.577302656091526" lon="12.106820502335657"><ele>-3.0</ele><time>2026-04-12T09:41:40.999Z</time></trkpt><trkpt lat="44.57728055677948" lon="12.106922553708987"><ele>-3.0</ele><time>2026-04-12T09:41:43.999Z</time></trkpt><trkpt lat="44.57725718455004" lon="12.107021224601004"><ele>-3.0</ele><time>2026-04-12T09:41:46.999Z</time></trkpt><trkpt lat="44.57724978062528" lon="12.107127245492663"><ele>-3.0</ele><time>2026-04-12T09:41:49.999Z</time></trkpt><trkpt lat="44.577220331566174" lon="12.107228496842987"><ele>-3.0</ele><time>2026-04-12T09:41:52.999Z</time></trkpt><trkpt lat="44.57720303234985" lon="12.107333631238014"><ele>-3.0</ele><time>2026-04-12T09:41:55.999Z</time></trkpt><trkpt lat="44.57717902600846" lon="12.107436059193345"><ele>-3.0</ele><time>2026-04-12T09:41:58.999Z</time></trkpt><trkpt lat="44.57715284975265" lon="12.107539861417997"><ele>-3.0</ele><time>2026-04-12T09:42:01.999Z</time></trkpt><trkpt lat="44.577133930009666" lon="12.107654983216321"><ele>-3.0</ele><time>2026-04-12T09:42:04.999Z</time></trkpt><trkpt lat="44.577106594024926" lon="12.107768930119919"><ele>-3.0</ele><time>2026-04-12T09:42:07.999Z</time></trkpt><trkpt lat="44.57708316548928" lon="12.107888198835731"><ele>-3.0</ele><time>2026-04-12T09:42:10.999Z</time></trkpt><trkpt lat="44.577059728203075" lon="12.108006174865777"><ele>-3.0</ele><time>2026-04-12T09:42:13.999Z</time></trkpt><trkpt lat="44.57703300885269" lon="12.108125002137516"><ele>-3.0</ele><time>2026-04-12T09:42:16.999Z</time></trkpt><trkpt lat="44.57700204491353" lon="12.108244689651606"><ele>-3.0</ele><time>2026-04-12T09:42:20Z</time></trkpt><trkpt lat="44.57698251794796" lon="12.108358848594726"><ele>-3.0</ele><time>2026-04-12T09:42:23Z</time></trkpt><trkpt lat="44.57696275255005" lon="12.108446982060899"><ele>-3.0</ele><time>2026-04-12T09:42:25Z</time></trkpt><trkpt lat="44.576942653153566" lon="12.108535338755807"><ele>-2.9999999999999996</ele><time>2026-04-12T09:42:27Z</time></trkpt><trkpt lat="44.576924128573104" lon="12.10862293903036"><ele>-3.0</ele><time>2026-04-12T09:42:29Z</time></trkpt><trkpt lat="44.57690043167247" lon="12.108750212731172"><ele>-3.0</ele><time>2026-04-12T09:42:32Z</time></trkpt><trkpt lat="44.576882475861" lon="12.108836131443548"><ele>-3.0</ele><time>2026-04-12T09:42:34Z</time></trkpt><trkpt lat="44.576860998054244" lon="12.108924831086258"><ele>-3.0</ele><time>2026-04-12T09:42:36Z</time></trkpt><trkpt lat="44.576834949064946" lon="12.109047400724265"><ele>-2.9999999999999996</ele><time>2026-04-12T09:42:39Z</time></trkpt><trkpt lat="44.57681877269403" lon="12.109132935110482"><ele>-3.0</ele><time>2026-04-12T09:42:41Z</time></trkpt><trkpt lat="44.57680053288958" lon="12.10921770892658"><ele>-3.0</ele><time>2026-04-12T09:42:43Z</time></trkpt><trkpt lat="44.576778876371925" lon="12.109303411607918"><ele>-3.0</ele><time>2026-04-12T09:42:45Z</time></trkpt><trkpt lat="44.57675499569156" lon="12.109428066290045"><ele>-3.0</ele><time>2026-04-12T09:42:48Z</time></trkpt><trkpt lat="44.57673583013665" lon="12.109512866391976"><ele>-3.0</ele><time>2026-04-12T09:42:49.999Z</time></trkpt><trkpt lat="44.576719256738876" lon="12.109601325371782"><ele>-3.0</ele><time>2026-04-12T09:42:51.999Z</time></trkpt><trkpt lat="44.576689374271346" lon="12.10972335294532"><ele>-3.0</ele><time>2026-04-12T09:42:54.999Z</time></trkpt><trkpt lat="44.576663154408855" lon="12.109845436934743"><ele>-2.9999999999999996</ele><time>2026-04-12T09:42:57.999Z</time></trkpt><trkpt lat="44.576653084245464" lon="12.109932731242104"><ele>-3.0</ele><time>2026-04-12T09:42:59.999Z</time></trkpt><trkpt lat="44.57662653084679" lon="12.110049148297922"><ele>-3.0</ele><time>2026-04-12T09:43:02.999Z</time></trkpt><trkpt lat="44.576605165571145" lon="12.110159433839494"><ele>-3.0</ele><time>2026-04-12T09:43:05.999Z</time></trkpt><trkpt lat="44.57658814400277" lon="12.110245108967744"><ele>-3.0</ele><time>2026-04-12T09:43:08.999Z</time></trkpt><trkpt lat="44.57656393850817" lon="12.110338112179564"><ele>-2.9999999999999996</ele><time>2026-04-12T09:43:11.999Z</time></trkpt><trkpt lat="44.57654562061488" lon="12.11044081720212"><ele>-3.0</ele><time>2026-04-12T09:43:14.999Z</time></trkpt><trkpt lat="44.57652475103937" lon="12.110549502965066"><ele>-3.0</ele><time>2026-04-12T09:43:17.999Z</time></trkpt><trkpt lat="44.576500167605914" lon="12.110664666893818"><ele>-3.0</ele><time>2026-04-12T09:43:20.999Z</time></trkpt><trkpt lat="44.57647274156005" lon="12.110782807550903"><ele>-3.0</ele><time>2026-04-12T09:43:24Z</time></trkpt><trkpt lat="44.576449848058886" lon="12.110898176403902"><ele>-3.0</ele><time>2026-04-12T09:43:27Z</time></trkpt><trkpt lat="44.57643623267431" lon="12.11100701340759"><ele>-3.0</ele><time>2026-04-12T09:43:30Z</time></trkpt><trkpt lat="44.57641871030226" lon="12.111114424976842"><ele>-3.0</ele><time>2026-04-12T09:43:33Z</time></trkpt><trkpt lat="44.57638320051241" lon="12.111227109009022"><ele>-2.8333333333333335</ele><time>2026-04-12T09:43:36Z</time></trkpt><trkpt lat="44.57636503517269" lon="12.11131279910991"><ele>-2.6666666666666665</ele><time>2026-04-12T09:43:38Z</time></trkpt><trkpt lat="44.57633417165234" lon="12.111418781253052"><ele>-2.5</ele><time>2026-04-12T09:43:41Z</time></trkpt><trkpt lat="44.57631350807438" lon="12.11154617640369"><ele>-2.333333333333333</ele><time>2026-04-12T09:43:44Z</time></trkpt><trkpt lat="44.57629479425415" lon="12.111657886394699"><ele>-2.1666666666666665</ele><time>2026-04-12T09:43:47Z</time></trkpt><trkpt lat="44.57627298841226" lon="12.111772903023674"><ele>-2.0</ele><time>2026-04-12T09:43:50Z</time></trkpt><trkpt lat="44.57624869899645" lon="12.111890833404575"><ele>-1.8333333333333333</ele><time>2026-04-12T09:43:53Z</time></trkpt><trkpt lat="44.57623038140424" lon="12.112001545352943"><ele>-1.6666666666666665</ele><time>2026-04-12T09:43:56Z</time></trkpt><trkpt lat="44.57620539813721" lon="12.112112589979063"><ele>-1.5</ele><time>2026-04-12T09:43:59Z</time></trkpt><trkpt lat="44.576184121401965" lon="12.112224148842154"><ele>-1.3333333333333333</ele><time>2026-04-12T09:44:02Z</time></trkpt><trkpt lat="44.5761601959718" lon="12.112333380870735"><ele>-1.1666666666666665</ele><time>2026-04-12T09:44:05Z</time></trkpt><trkpt lat="44.57613901205595" lon="12.112438220930676"><ele>-1.0</ele><time>2026-04-12T09:44:08Z</time></trkpt><trkpt lat="44.57611638691481" lon="12.112540993244506"><ele>-1.3333333333333333</ele><time>2026-04-12T09:44:11Z</time></trkpt><trkpt lat="44.57609456616516" lon="12.112644426434164"><ele>-1.6666666666666665</ele><time>2026-04-12T09:44:14Z</time></trkpt><trkpt lat="44.576073379639915" lon="12.11275212283061"><ele>-2.0</ele><time>2026-04-12T09:44:17Z</time></trkpt><trkpt lat="44.57605104046793" lon="12.112854701393296"><ele>-2.3333333333333335</ele><time>2026-04-12T09:44:20Z</time></trkpt><trkpt lat="44.57602562934873" lon="12.11295623364791"><ele>-2.6666666666666665</ele><time>2026-04-12T09:44:23Z</time></trkpt><trkpt lat="44.57600722791297" lon="12.113057582368034"><ele>-3.0</ele><time>2026-04-12T09:44:26.001Z</time></trkpt><trkpt lat="44.57598612732508" lon="12.113160548473136"><ele>-2.8333333333333335</ele><time>2026-04-12T09:44:29.001Z</time></trkpt><trkpt lat="44.57595935059116" lon="12.113270448078588"><ele>-2.6666666666666665</ele><time>2026-04-12T09:44:32.001Z</time></trkpt><trkpt lat="44.57593817429424" lon="12.113379603488106"><ele>-2.5</ele><time>2026-04-12T09:44:35.001Z</time></trkpt><trkpt lat="44.57592221095331" lon="12.113480210627468"><ele>-2.333333333333333</ele><time>2026-04-12T09:44:38.001Z</time></trkpt><trkpt lat="44.575911966373845" lon="12.113569033300696"><ele>-2.1666666666666665</ele><time>2026-04-12T09:44:41.001Z</time></trkpt><trkpt lat="44.575887056676955" lon="12.113666704088669"><ele>-2.0</ele><time>2026-04-12T09:44:44Z</time></trkpt><trkpt lat="44.57586770183251" lon="12.113768819422539"><ele>-1.9999999999999998</ele><time>2026-04-12T09:44:47Z</time></trkpt><trkpt lat="44.57584643372598" lon="12.11387153589709"><ele>-2.0</ele><time>2026-04-12T09:44:50Z</time></trkpt><trkpt lat="44.57582025741922" lon="12.113971744800756"><ele>-2.0</ele><time>2026-04-12T09:44:53Z</time></trkpt><trkpt lat="44.57579450016412" lon="12.11407353701613"><ele>-2.0</ele><time>2026-04-12T09:44:56Z</time></trkpt><trkpt lat="44.57575813990976" lon="12.114175133832434"><ele>-1.9999999999999998</ele><time>2026-04-12T09:44:59Z</time></trkpt><trkpt lat="44.575717770468614" lon="12.114253232404723"><ele>-2.0</ele><time>2026-04-12T09:45:02Z</time></trkpt><trkpt lat="44.575671660688535" lon="12.114340716557074"><ele>-1.8333333333333333</ele><time>2026-04-12T09:45:05Z</time></trkpt><trkpt lat="44.57562361103945" lon="12.114410772866554"><ele>-1.6666666666666665</ele><time>2026-04-12T09:45:08Z</time></trkpt><trkpt lat="44.57555521628605" lon="12.114475805994763"><ele>-1.5</ele><time>2026-04-12T09:45:11Z</time></trkpt><trkpt lat="44.57548309878679" lon="12.114541391325744"><ele>-1.3333333333333333</ele><time>2026-04-12T09:45:14Z</time></trkpt><trkpt lat="44.575418479533546" lon="12.114583978295817"><ele>-1.1666666666666665</ele><time>2026-04-12T09:45:17Z</time></trkpt><trkpt lat="44.57534805785352" lon="12.114628577304682"><ele>-1.0</ele><time>2026-04-12T09:45:20Z</time></trkpt><trkpt lat="44.57527831766091" lon="12.114678979921411"><ele>-1.3333333333333333</ele><time>2026-04-12T09:45:23Z</time></trkpt><trkpt lat="44.57521308203977" lon="12.114719120225457"><ele>-1.6666666666666665</ele><time>2026-04-12T09:45:26Z</time></trkpt><trkpt lat="44.57513945144365" lon="12.114735991100469"><ele>-2.0</ele><time>2026-04-12T09:45:29Z</time></trkpt><trkpt lat="44.57506180680825" lon="12.114782991235229"><ele>-2.3333333333333335</ele><time>2026-04-12T09:45:32Z</time></trkpt><trkpt lat="44.57498618181158" lon="12.114830078334505"><ele>-2.6666666666666665</ele><time>2026-04-12T09:45:35Z</time></trkpt><trkpt lat="44.57491123058484" lon="12.114866448046826"><ele>-3.0</ele><time>2026-04-12T09:45:38Z</time></trkpt><trkpt lat="44.574836905270864" lon="12.114911472768753"><ele>-2.8333333333333335</ele><time>2026-04-12T09:45:41Z</time></trkpt><trkpt lat="44.57476307479758" lon="12.114962048107596"><ele>-2.6666666666666665</ele><time>2026-04-12T09:45:44Z</time></trkpt><trkpt lat="44.57469902477965" lon="12.11500502505762"><ele>-2.5</ele><time>2026-04-12T09:45:47Z</time></trkpt><trkpt lat="44.574626318129226" lon="12.11504338162849"><ele>-2.333333333333333</ele><time>2026-04-12T09:45:50Z</time></trkpt><trkpt lat="44.57456014136132" lon="12.115091145258017"><ele>-2.1666666666666665</ele><time>2026-04-12T09:45:53Z</time></trkpt><trkpt lat="44.5744909802094" lon="12.115139554298109"><ele>-2.0</ele><time>2026-04-12T09:45:56Z</time></trkpt><trkpt lat="44.574418624269185" lon="12.115178668246804"><ele>-1.9999999999999998</ele><time>2026-04-12T09:45:59Z</time></trkpt><trkpt lat="44.57434465438848" lon="12.115225686233343"><ele>-2.0</ele><time>2026-04-12T09:46:02Z</time></trkpt><trkpt lat="44.574272145704015" lon="12.115272747153504"><ele>-2.0</ele><time>2026-04-12T09:46:05Z</time></trkpt><trkpt lat="44.574192789904984" lon="12.115320028835374"><ele>-2.0</ele><time>2026-04-12T09:46:08Z</time></trkpt><trkpt lat="44.574115385880575" lon="12.115367184294477"><ele>-1.9999999999999998</ele><time>2026-04-12T09:46:11Z</time></trkpt><trkpt lat="44.57404121741235" lon="12.11541414551041"><ele>-2.0</ele><time>2026-04-12T09:46:14Z</time></trkpt><trkpt lat="44.57396726545212" lon="12.115463307562393"><ele>-1.9999999999999998</ele><time>2026-04-12T09:46:17Z</time></trkpt><trkpt lat="44.5739068976076" lon="12.115526206256698"><ele>-2.0</ele><time>2026-04-12T09:46:20Z</time></trkpt><trkpt lat="44.57383837664666" lon="12.115579414433157"><ele>-2.0</ele><time>2026-04-12T09:46:23Z</time></trkpt><trkpt lat="44.57375510096801" lon="12.115603095455983"><ele>-2.0</ele><time>2026-04-12T09:46:26Z</time></trkpt><trkpt lat="44.57367643813283" lon="12.11564664526581"><ele>-1.9999999999999998</ele><time>2026-04-12T09:46:29Z</time></trkpt><trkpt lat="44.573597854844" lon="12.115692073625318"><ele>-2.0</ele><time>2026-04-12T09:46:32Z</time></trkpt><trkpt lat="44.57352440499237" lon="12.115738317174955"><ele>-1.9999999999999998</ele><time>2026-04-12T09:46:35Z</time></trkpt><trkpt lat="44.573460798792276" lon="12.115795864375423"><ele>-2.0</ele><time>2026-04-12T09:46:38Z</time></trkpt><trkpt lat="44.573383515236586" lon="12.115834525330742"><ele>-2.0</ele><time>2026-04-12T09:46:41Z</time></trkpt><trkpt lat="44.57331311768601" lon="12.115874245885527"><ele>-2.0</ele><time>2026-04-12T09:46:44Z</time></trkpt><trkpt lat="44.573238920082794" lon="12.115918847369041"><ele>-1.9999999999999998</ele><time>2026-04-12T09:46:47Z</time></trkpt><trkpt lat="44.57316301393253" lon="12.115971387508097"><ele>-2.0</ele><time>2026-04-12T09:46:50Z</time></trkpt><trkpt lat="44.573083360497634" lon="12.116005066052567"><ele>-1.9999999999999998</ele><time>2026-04-12T09:46:53Z</time></trkpt><trkpt lat="44.57300858871042" lon="12.116054459420399"><ele>-2.0</ele><time>2026-04-12T09:46:56Z</time></trkpt><trkpt lat="44.57293025392174" lon="12.11610051234367"><ele>-2.0</ele><time>2026-04-12T09:46:59Z</time></trkpt><trkpt lat="44.57285289563629" lon="12.116140779615517"><ele>-2.0</ele><time>2026-04-12T09:47:02Z</time></trkpt><trkpt lat="44.57278152615894" lon="12.116193020266904"><ele>-1.9999999999999998</ele><time>2026-04-12T09:47:05Z</time></trkpt><trkpt lat="44.57270623302288" lon="12.116238266246919"><ele>-2.0</ele><time>2026-04-12T09:47:08Z</time></trkpt><trkpt lat="44.57263243346047" lon="12.116287794451319"><ele>-1.8333333333333333</ele><time>2026-04-12T09:47:11Z</time></trkpt><trkpt lat="44.57255414987281" lon="12.116333964819255"><ele>-1.6666666666666665</ele><time>2026-04-12T09:47:14Z</time></trkpt><trkpt lat="44.57247244642429" lon="12.116379553984975"><ele>-1.5</ele><time>2026-04-12T09:47:17Z</time></trkpt><trkpt lat="44.572394404725486" lon="12.11642828112015"><ele>-1.3333333333333333</ele><time>2026-04-12T09:47:20Z</time></trkpt><trkpt lat="44.57231530122958" lon="12.116477159511703"><ele>-1.1666666666666665</ele><time>2026-04-12T09:47:23Z</time></trkpt><trkpt lat="44.57223689903306" lon="12.116525025699481"><ele>-1.0</ele><time>2026-04-12T09:47:26Z</time></trkpt><trkpt lat="44.572169382541" lon="12.116566797853844"><ele>-0.9999999999999999</ele><time>2026-04-12T09:47:29Z</time></trkpt><trkpt lat="44.572090074361334" lon="12.116618491947511"><ele>-1.0</ele><time>2026-04-12T09:47:32Z</time></trkpt><trkpt lat="44.572008538455236" lon="12.116660931886003"><ele>-1.0</ele><time>2026-04-12T09:47:35Z</time></trkpt><trkpt lat="44.571929285024076" lon="12.11671333876218"><ele>-1.0</ele><time>2026-04-12T09:47:38Z</time></trkpt><trkpt lat="44.57185515207418" lon="12.116757302723629"><ele>-0.9999999999999999</ele><time>2026-04-12T09:47:41Z</time></trkpt><trkpt lat="44.57178170894456" lon="12.116805410200797"><ele>-1.0</ele><time>2026-04-12T09:47:44Z</time></trkpt><trkpt lat="44.57170560780819" lon="12.116845692875252"><ele>-1.1666666666666665</ele><time>2026-04-12T09:47:47Z</time></trkpt><trkpt lat="44.571629126514935" lon="12.116891617778258"><ele>-1.3333333333333333</ele><time>2026-04-12T09:47:50Z</time></trkpt><trkpt lat="44.57155336030148" lon="12.116934819008772"><ele>-1.5</ele><time>2026-04-12T09:47:53Z</time></trkpt><trkpt lat="44.57147851132467" lon="12.11698307753531"><ele>-1.6666666666666665</ele><time>2026-04-12T09:47:56Z</time></trkpt><trkpt lat="44.57140246487359" lon="12.117032566200187"><ele>-1.8333333333333333</ele><time>2026-04-12T09:47:59Z</time></trkpt><trkpt lat="44.57132295730717" lon="12.117085702374178"><ele>-2.0</ele><time>2026-04-12T09:48:02Z</time></trkpt><trkpt lat="44.57124556739575" lon="12.117138042115032"><ele>-1.9999999999999998</ele><time>2026-04-12T09:48:05Z</time></trkpt><trkpt lat="44.571166584638085" lon="12.117177968308871"><ele>-2.0</ele><time>2026-04-12T09:48:08Z</time></trkpt><trkpt lat="44.57110962730707" lon="12.117218969319136"><ele>-2.0</ele><time>2026-04-12T09:48:10Z</time></trkpt><trkpt lat="44.571026683335916" lon="12.1172662923341"><ele>-2.0</ele><time>2026-04-12T09:48:13Z</time></trkpt><trkpt lat="44.57094673240036" lon="12.117312755795995"><ele>-1.9999999999999998</ele><time>2026-04-12T09:48:16Z</time></trkpt><trkpt lat="44.57086724218574" lon="12.117361231937956"><ele>-2.0</ele><time>2026-04-12T09:48:19Z</time></trkpt><trkpt lat="44.570797226457366" lon="12.11740016176366"><ele>-1.9999999999999998</ele><time>2026-04-12T09:48:22Z</time></trkpt><trkpt lat="44.57071979137169" lon="12.117447288992462"><ele>-2.0</ele><time>2026-04-12T09:48:25Z</time></trkpt><trkpt lat="44.57064577377466" lon="12.11749124144762"><ele>-2.0</ele><time>2026-04-12T09:48:28Z</time></trkpt><trkpt lat="44.5705709902027" lon="12.117544427113135"><ele>-2.0</ele><time>2026-04-12T09:48:31Z</time></trkpt><trkpt lat="44.570497599719246" lon="12.1175882646787"><ele>-1.9999999999999998</ele><time>2026-04-12T09:48:34Z</time></trkpt><trkpt lat="44.57043002270175" lon="12.117647648143118"><ele>-2.0</ele><time>2026-04-12T09:48:37Z</time></trkpt><trkpt lat="44.57035757508946" lon="12.117676512535459"><ele>-1.9999999999999998</ele><time>2026-04-12T09:48:40Z</time></trkpt><trkpt lat="44.57028879958225" lon="12.11774544260949"><ele>-2.0</ele><time>2026-04-12T09:48:43Z</time></trkpt><trkpt lat="44.57022319137996" lon="12.117819435052759"><ele>-2.0</ele><time>2026-04-12T09:48:46Z</time></trkpt><trkpt lat="44.57016368976247" lon="12.117905709236931"><ele>-2.0</ele><time>2026-04-12T09:48:49Z</time></trkpt><trkpt lat="44.570113484263345" lon="12.117993746066013"><ele>-1.9999999999999998</ele><time>2026-04-12T09:48:52Z</time></trkpt><trkpt lat="44.57007064518731" lon="12.118091735087408"><ele>-2.0</ele><time>2026-04-12T09:48:55Z</time></trkpt><trkpt lat="44.57003238389529" lon="12.118191145047062"><ele>-1.9999999999999998</ele><time>2026-04-12T09:48:58Z</time></trkpt><trkpt lat="44.56999158672193" lon="12.118290450910756"><ele>-2.0</ele><time>2026-04-12T09:49:01Z</time></trkpt><trkpt lat="44.5699625936583" lon="12.118379723514131"><ele>-2.0</ele><time>2026-04-12T09:49:04Z</time></trkpt><trkpt lat="44.56993893932844" lon="12.118488722117743"><ele>-2.0</ele><time>2026-04-12T09:49:07Z</time></trkpt><trkpt lat="44.56990776856527" lon="12.118586552005352"><ele>-1.9999999999999998</ele><time>2026-04-12T09:49:10Z</time></trkpt><trkpt lat="44.56987020215514" lon="12.118691172128628"><ele>-2.0</ele><time>2026-04-12T09:49:13Z</time></trkpt><trkpt lat="44.569838187414355" lon="12.118794165771249"><ele>-2.0</ele><time>2026-04-12T09:49:16Z</time></trkpt><trkpt lat="44.56980131067225" lon="12.118898699259708"><ele>-1.9999999999999998</ele><time>2026-04-12T09:49:19Z</time></trkpt><trkpt lat="44.56976920275632" lon="12.118988261277716"><ele>-2.0</ele><time>2026-04-12T09:49:22Z</time></trkpt><trkpt lat="44.569736685719896" lon="12.119085605140096"><ele>-2.0</ele><time>2026-04-12T09:51:45Z</time></trkpt><trkpt lat="44.56970929424731" lon="12.119175344031351"><ele>-1.9999999999999998</ele><time>2026-04-12T09:51:53Z</time></trkpt><trkpt lat="44.56968066459866" lon="12.119256662200005"><ele>-2.0</ele><time>2026-04-12T09:52:01Z</time></trkpt><trkpt lat="44.569655155601275" lon="12.119349572750254"><ele>-2.0</ele><time>2026-04-12T09:52:09Z</time></trkpt><trkpt lat="44.56962255633781" lon="12.11943326516753"><ele>-2.0</ele><time>2026-04-12T09:52:17Z</time></trkpt><trkpt lat="44.56959252341347" lon="12.119517895056358"><ele>-1.9999999999999998</ele><time>2026-04-12T09:52:25Z</time></trkpt><trkpt lat="44.56956611286264" lon="12.119600357390127"><ele>-2.0</ele><time>2026-04-12T09:52:32Z</time></trkpt><trkpt lat="44.56953760862252" lon="12.119690628081209"><ele>-2.0</ele><time>2026-04-12T09:52:40Z</time></trkpt><trkpt lat="44.56950763363957" lon="12.119772312732337"><ele>-1.9999999999999998</ele><time>2026-04-12T09:52:47Z</time></trkpt><trkpt lat="44.56948141754942" lon="12.119857441183008"><ele>-2.0</ele><time>2026-04-12T09:52:55Z</time></trkpt><trkpt lat="44.569453653634525" lon="12.119942624079911"><ele>-2.0</ele><time>2026-04-12T09:53:02Z</time></trkpt><trkpt lat="44.569426824946916" lon="12.120026197189699"><ele>-2.0</ele><time>2026-04-12T09:53:14Z</time></trkpt><trkpt lat="44.569397195867545" lon="12.120109061501037"><ele>-1.9999999999999998</ele><time>2026-04-12T09:53:21Z</time></trkpt><trkpt lat="44.5693719072065" lon="12.120190620348819"><ele>-2.0</ele><time>2026-04-12T09:53:28Z</time></trkpt><trkpt lat="44.56934023134201" lon="12.120281505205288"><ele>-2.0</ele><time>2026-04-12T09:53:36Z</time></trkpt><trkpt lat="44.56930826010873" lon="12.12036946447849"><ele>-1.9999999999999998</ele><time>2026-04-12T09:53:44Z</time></trkpt><trkpt lat="44.56927301403882" lon="12.12045578341472"><ele>-2.0</ele><time>2026-04-12T09:53:52Z</time></trkpt><trkpt lat="44.569236384867054" lon="12.120543362669894"><ele>-2.0</ele><time>2026-04-12T09:54:00Z</time></trkpt><trkpt lat="44.56919494008502" lon="12.120627269807692"><ele>-2.0</ele><time>2026-04-12T09:54:08Z</time></trkpt><trkpt lat="44.56915486098128" lon="12.120710280445405"><ele>-1.9999999999999998</ele><time>2026-04-12T09:54:16Z</time></trkpt><trkpt lat="44.56911177718803" lon="12.120784863342752"><ele>-2.0</ele><time>2026-04-12T09:54:24Z</time></trkpt><trkpt lat="44.56907414268142" lon="12.12085961159416"><ele>-2.0</ele><time>2026-04-12T09:54:31Z</time></trkpt><trkpt lat="44.569034240895505" lon="12.120934812683608"><ele>-1.9999999999999998</ele><time>2026-04-12T09:54:39Z</time></trkpt><trkpt lat="44.568989317580424" lon="12.121008566997041"><ele>-2.0</ele><time>2026-04-12T09:54:47Z</time></trkpt><trkpt lat="44.56894549144671" lon="12.121083648116077"><ele>-2.0</ele><time>2026-04-12T09:54:55Z</time></trkpt><trkpt lat="44.568903040306296" lon="12.121159926105904"><ele>-2.0</ele><time>2026-04-12T09:55:03Z</time></trkpt><trkpt lat="44.56886517103919" lon="12.121238694335664"><ele>-1.9999999999999998</ele><time>2026-04-12T09:55:11Z</time></trkpt><trkpt lat="44.568828937909394" lon="12.12131736800469"><ele>-2.0</ele><time>2026-04-12T09:55:19Z</time></trkpt><trkpt lat="44.568786504956535" lon="12.121395623786002"><ele>-2.0</ele><time>2026-04-12T09:55:27Z</time></trkpt><trkpt lat="44.568744141777515" lon="12.121474329706007"><ele>-1.9999999999999998</ele><time>2026-04-12T09:55:35Z</time></trkpt><trkpt lat="44.56870152023785" lon="12.121547806442765"><ele>-2.0</ele><time>2026-04-12T09:55:43Z</time></trkpt><trkpt lat="44.56865882768984" lon="12.121626070656257"><ele>-2.0</ele><time>2026-04-12T09:55:51Z</time></trkpt><trkpt lat="44.56861319666838" lon="12.121701300801064"><ele>-2.0</ele><time>2026-04-12T09:55:59Z</time></trkpt><trkpt lat="44.56856703800853" lon="12.121774891722964"><ele>-1.9999999999999998</ele><time>2026-04-12T09:56:13Z</time></trkpt><trkpt lat="44.56852001539532" lon="12.121847476209549"><ele>-2.0</ele><time>2026-04-12T09:56:20Z</time></trkpt><trkpt lat="44.5684784162113" lon="12.121917995224353"><ele>-2.0</ele><time>2026-04-12T09:56:27Z</time></trkpt><trkpt lat="44.56843795921494" lon="12.121987404049328"><ele>-1.9999999999999998</ele><time>2026-04-12T09:56:34Z</time></trkpt><trkpt lat="44.56839440831506" lon="12.122058088348831"><ele>-2.0</ele><time>2026-04-12T09:56:41Z</time></trkpt><trkpt lat="44.56835199757316" lon="12.122126812598756"><ele>-2.0</ele><time>2026-04-12T09:56:48Z</time></trkpt><trkpt lat="44.568307701804784" lon="12.122203417049557"><ele>-2.0</ele><time>2026-04-12T09:56:56Z</time></trkpt><trkpt lat="44.56826353596667" lon="12.122273976131849"><ele>-1.9999999999999998</ele><time>2026-04-12T09:57:03Z</time></trkpt><trkpt lat="44.56821999439096" lon="12.122346190454667"><ele>-2.0</ele><time>2026-04-12T09:57:11Z</time></trkpt><trkpt lat="44.568180196400355" lon="12.122416335592181"><ele>-2.0</ele><time>2026-04-12T09:57:18Z</time></trkpt><trkpt lat="44.568138718491724" lon="12.122483273651238"><ele>-1.9999999999999998</ele><time>2026-04-12T09:57:25Z</time></trkpt><trkpt lat="44.56809694816342" lon="12.122552763509082"><ele>-2.0</ele><time>2026-04-12T09:57:32Z</time></trkpt><trkpt lat="44.56805436197979" lon="12.122625814674267"><ele>-2.0</ele><time>2026-04-12T09:57:39Z</time></trkpt><trkpt lat="44.56801313061612" lon="12.122697274592612"><ele>-2.0</ele><time>2026-04-12T09:57:46Z</time></trkpt><trkpt lat="44.567969341449384" lon="12.12276839094316"><ele>-1.9999999999999998</ele><time>2026-04-12T09:57:53Z</time></trkpt><trkpt lat="44.56792653159996" lon="12.122841948309329"><ele>-2.0</ele><time>2026-04-12T09:58:00Z</time></trkpt><trkpt lat="44.5678855431043" lon="12.122914480330323"><ele>-2.0</ele><time>2026-04-12T09:58:07Z</time></trkpt><trkpt lat="44.56784461211878" lon="12.122986513172537"><ele>-1.9999999999999998</ele><time>2026-04-12T09:58:14Z</time></trkpt><trkpt lat="44.56779952945751" lon="12.123060059408786"><ele>-2.0</ele><time>2026-04-12T09:58:21Z</time></trkpt><trkpt lat="44.56775887787526" lon="12.123131455796992"><ele>-2.0</ele><time>2026-04-12T09:58:28Z</time></trkpt><trkpt lat="44.56771808922026" lon="12.123199854435192"><ele>-2.142857142857143</ele><time>2026-04-12T09:58:39Z</time></trkpt><trkpt lat="44.56767084965582" lon="12.123274223829975"><ele>-2.2857142857142856</ele><time>2026-04-12T09:58:48Z</time></trkpt><trkpt lat="44.56763441399331" lon="12.123346637228428"><ele>-2.4285714285714284</ele><time>2026-04-12T09:58:55Z</time></trkpt><trkpt lat="44.567588368388755" lon="12.123423821985238"><ele>-2.571428571428571</ele><time>2026-04-12T09:59:03Z</time></trkpt><trkpt lat="44.56754570129762" lon="12.123496820924192"><ele>-2.7142857142857144</ele><time>2026-04-12T09:59:10Z</time></trkpt><trkpt lat="44.56750256244127" lon="12.123570571164198"><ele>-2.8571428571428568</ele><time>2026-04-12T09:59:17Z</time></trkpt><trkpt lat="44.56746024421016" lon="12.123646005001572"><ele>-3.0</ele><time>2026-04-12T09:59:24Z</time></trkpt><trkpt lat="44.56742270938887" lon="12.123720208146848"><ele>-2.9999999999999996</ele><time>2026-04-12T09:59:31Z</time></trkpt><trkpt lat="44.567378205049174" lon="12.123789405368017"><ele>-3.0</ele><time>2026-04-12T09:59:38Z</time></trkpt><trkpt lat="44.56733731092188" lon="12.123866597590158"><ele>-3.0</ele><time>2026-04-12T09:59:45Z</time></trkpt><trkpt lat="44.56729446424083" lon="12.123936999940259"><ele>-3.0</ele><time>2026-04-12T09:59:52Z</time></trkpt><trkpt lat="44.56725261979262" lon="12.124007364431577"><ele>-3.0</ele><time>2026-04-12T10:00:02Z</time></trkpt><trkpt lat="44.56720770757864" lon="12.124079044316078"><ele>-2.9999999999999996</ele><time>2026-04-12T10:00:09Z</time></trkpt><trkpt lat="44.567166167074916" lon="12.124151974448473"><ele>-3.0</ele><time>2026-04-12T10:00:16Z</time></trkpt><trkpt lat="44.567121838573776" lon="12.124230602174464"><ele>-2.9999999999999996</ele><time>2026-04-12T10:00:23Z</time></trkpt><trkpt lat="44.56707819838733" lon="12.124302833831225"><ele>-3.0</ele><time>2026-04-12T10:00:30Z</time></trkpt><trkpt lat="44.567033569597356" lon="12.124384631469363"><ele>-3.0</ele><time>2026-04-12T10:00:37Z</time></trkpt><trkpt lat="44.56698955205849" lon="12.124459724426892"><ele>-3.0</ele><time>2026-04-12T10:00:44Z</time></trkpt><trkpt lat="44.566943983717884" lon="12.124535477424411"><ele>-3.0</ele><time>2026-04-12T10:00:51Z</time></trkpt><trkpt lat="44.56689861850569" lon="12.124608231560877"><ele>-2.9999999999999996</ele><time>2026-04-12T10:00:58Z</time></trkpt><trkpt lat="44.56685228072789" lon="12.124679308841616"><ele>-3.0</ele><time>2026-04-12T10:01:05Z</time></trkpt><trkpt lat="44.566806793619335" lon="12.124760186535973"><ele>-2.9999999999999996</ele><time>2026-04-12T10:01:12Z</time></trkpt><trkpt lat="44.56675976165777" lon="12.124836664303864"><ele>-3.0</ele><time>2026-04-12T10:01:19Z</time></trkpt><trkpt lat="44.56671348569011" lon="12.12491444705895"><ele>-3.0</ele><time>2026-04-12T10:01:26Z</time></trkpt><trkpt lat="44.566670211054415" lon="12.124984164122404"><ele>-3.0</ele><time>2026-04-12T10:01:45Z</time></trkpt><trkpt lat="44.566626211665586" lon="12.125063365718828"><ele>-3.0</ele><time>2026-04-12T10:01:51Z</time></trkpt><trkpt lat="44.566589056525906" lon="12.125142556058332"><ele>-2.9999999999999996</ele><time>2026-04-12T10:01:54Z</time></trkpt><trkpt lat="44.56653643360799" lon="12.12522060559683"><ele>-3.0</ele><time>2026-04-12T10:01:57Z</time></trkpt><trkpt lat="44.56649437077504" lon="12.125302857102987"><ele>-2.9999999999999996</ele><time>2026-04-12T10:02:00Z</time></trkpt><trkpt lat="44.566448577704826" lon="12.125379035736344"><ele>-3.0</ele><time>2026-04-12T10:02:03Z</time></trkpt><trkpt lat="44.56639954448464" lon="12.125457632590418"><ele>-3.0</ele><time>2026-04-12T10:02:06Z</time></trkpt><trkpt lat="44.566350760275405" lon="12.125532225809437"><ele>-3.0</ele><time>2026-04-12T10:02:09Z</time></trkpt><trkpt lat="44.56630588301453" lon="12.125620433119758"><ele>-3.0</ele><time>2026-04-12T10:02:12Z</time></trkpt><trkpt lat="44.56626645485882" lon="12.125707404550289"><ele>-2.9999999999999996</ele><time>2026-04-12T10:02:15Z</time></trkpt><trkpt lat="44.56620918660115" lon="12.125784374141569"><ele>-3.0</ele><time>2026-04-12T10:02:18Z</time></trkpt><trkpt lat="44.56616330576866" lon="12.125866964665278"><ele>-3.0</ele><time>2026-04-12T10:02:21Z</time></trkpt><trkpt lat="44.56611330889376" lon="12.125949238200164"><ele>-3.0</ele><time>2026-04-12T10:02:24Z</time></trkpt><trkpt lat="44.56606667661535" lon="12.126034511844194"><ele>-3.0</ele><time>2026-04-12T10:02:27Z</time></trkpt><trkpt lat="44.56602025190576" lon="12.126115821054466"><ele>-3.0</ele><time>2026-04-12T10:02:30Z</time></trkpt><trkpt lat="44.56597055605876" lon="12.12620246341784"><ele>-3.0</ele><time>2026-04-12T10:02:33Z</time></trkpt><trkpt lat="44.565916641550835" lon="12.126286571164373"><ele>-3.0</ele><time>2026-04-12T10:02:36Z</time></trkpt><trkpt lat="44.56586762746744" lon="12.126377443052654"><ele>-3.0</ele><time>2026-04-12T10:02:39Z</time></trkpt><trkpt lat="44.56581609731654" lon="12.126465359660422"><ele>-3.0</ele><time>2026-04-12T10:02:42Z</time></trkpt><trkpt lat="44.56576565609322" lon="12.126553332113843"><ele>-3.0</ele><time>2026-04-12T10:02:45Z</time></trkpt><trkpt lat="44.56571417444712" lon="12.126638889283752"><ele>-3.0</ele><time>2026-04-12T10:02:48Z</time></trkpt><trkpt lat="44.56566675312102" lon="12.126730294831004"><ele>-3.0</ele><time>2026-04-12T10:02:51Z</time></trkpt><trkpt lat="44.565609786708904" lon="12.126819242129804"><ele>-3.0</ele><time>2026-04-12T10:02:54Z</time></trkpt><trkpt lat="44.565557356693425" lon="12.126914199785267"><ele>-2.8333333333333335</ele><time>2026-04-12T10:02:57Z</time></trkpt><trkpt lat="44.56550162365357" lon="12.127009009188267"><ele>-2.6666666666666665</ele><time>2026-04-12T10:03:00Z</time></trkpt><trkpt lat="44.56544445371226" lon="12.127103966666049"><ele>-2.5</ele><time>2026-04-12T10:03:03Z</time></trkpt><trkpt lat="44.56539102424967" lon="12.12719595939875"><ele>-2.333333333333333</ele><time>2026-04-12T10:03:06Z</time></trkpt><trkpt lat="44.565339938873244" lon="12.127288314703968"><ele>-2.1666666666666665</ele><time>2026-04-12T10:03:09Z</time></trkpt><trkpt lat="44.565283560442026" lon="12.127372848568541"><ele>-2.0</ele><time>2026-04-12T10:03:12Z</time></trkpt><trkpt lat="44.565230882826434" lon="12.127467783536195"><ele>-1.9999999999999998</ele><time>2026-04-12T10:03:15Z</time></trkpt><trkpt lat="44.56517440210465" lon="12.127556282431842"><ele>-2.0</ele><time>2026-04-12T10:03:18Z</time></trkpt><trkpt lat="44.56512175794813" lon="12.127643119442979"><ele>-2.0</ele><time>2026-04-12T10:03:21Z</time></trkpt><trkpt lat="44.56507104612478" lon="12.127738030838971"><ele>-2.0</ele><time>2026-04-12T10:03:24Z</time></trkpt><trkpt lat="44.56501329530034" lon="12.127832767902685"><ele>-1.9999999999999998</ele><time>2026-04-12T10:03:27Z</time></trkpt><trkpt lat="44.564959486137155" lon="12.127928554774801"><ele>-2.0</ele><time>2026-04-12T10:03:30Z</time></trkpt><trkpt lat="44.56489993602274" lon="12.128020810376839"><ele>-1.9999999999999998</ele><time>2026-04-12T10:03:33Z</time></trkpt><trkpt lat="44.56485055414543" lon="12.12811846932082"><ele>-2.0</ele><time>2026-04-12T10:03:36Z</time></trkpt><trkpt lat="44.564806980618435" lon="12.128214407691122"><ele>-2.0</ele><time>2026-04-12T10:03:39Z</time></trkpt><trkpt lat="44.56475595394526" lon="12.128309184759688"><ele>-2.0</ele><time>2026-04-12T10:03:42Z</time></trkpt><trkpt lat="44.56469902823073" lon="12.128388566532232"><ele>-1.9999999999999998</ele><time>2026-04-12T10:03:45Z</time></trkpt><trkpt lat="44.56464289622118" lon="12.128465520794952"><ele>-2.0</ele><time>2026-04-12T10:03:48Z</time></trkpt><trkpt lat="44.5645938423606" lon="12.128562318730813"><ele>-1.9999999999999998</ele><time>2026-04-12T10:03:51Z</time></trkpt><trkpt lat="44.56454228187833" lon="12.128640651562481"><ele>-2.0</ele><time>2026-04-12T10:03:54Z</time></trkpt><trkpt lat="44.56448829505113" lon="12.128729582069672"><ele>-2.0</ele><time>2026-04-12T10:03:57Z</time></trkpt><trkpt lat="44.564439589262385" lon="12.128814425074104"><ele>-2.0</ele><time>2026-04-12T10:04:00Z</time></trkpt><trkpt lat="44.56439049891615" lon="12.128897994772663"><ele>-1.9999999999999998</ele><time>2026-04-12T10:04:03Z</time></trkpt><trkpt lat="44.56434549448234" lon="12.12898268866551"><ele>-2.0</ele><time>2026-04-12T10:04:06Z</time></trkpt><trkpt lat="44.56429569984437" lon="12.129062564706482"><ele>-2.142857142857143</ele><time>2026-04-12T10:04:09Z</time></trkpt><trkpt lat="44.56424942450934" lon="12.129144950339949"><ele>-2.2857142857142856</ele><time>2026-04-12T10:04:13Z</time></trkpt><trkpt lat="44.56420743470602" lon="12.129221917802663"><ele>-2.4285714285714284</ele><time>2026-04-12T10:06:08Z</time></trkpt><trkpt lat="44.564154398325435" lon="12.129313625326267"><ele>-2.571428571428571</ele><time>2026-04-12T10:06:12Z</time></trkpt><trkpt lat="44.56410721865126" lon="12.129389730579918"><ele>-2.7142857142857144</ele><time>2026-04-12T10:06:15Z</time></trkpt><trkpt lat="44.56406200262775" lon="12.129473018606028"><ele>-2.8571428571428568</ele><time>2026-04-12T10:06:18Z</time></trkpt><trkpt lat="44.56401196529963" lon="12.129545449432474"><ele>-3.0</ele><time>2026-04-12T10:06:21Z</time></trkpt><trkpt lat="44.563964962843926" lon="12.12963656587977"><ele>-2.9999999999999996</ele><time>2026-04-12T10:06:24Z</time></trkpt><trkpt lat="44.563916188688154" lon="12.129715164916291"><ele>-3.0</ele><time>2026-04-12T10:06:27Z</time></trkpt><trkpt lat="44.563866394618444" lon="12.129801400164911"><ele>-3.0</ele><time>2026-04-12T10:06:30Z</time></trkpt><trkpt lat="44.563832942923256" lon="12.129877071237983"><ele>-3.0</ele><time>2026-04-12T10:06:32Z</time></trkpt><trkpt lat="44.56378263326082" lon="12.129951897292807"><ele>-3.0</ele><time>2026-04-12T10:06:35Z</time></trkpt><trkpt lat="44.56373159065849" lon="12.130031890775577"><ele>-2.9999999999999996</ele><time>2026-04-12T10:06:38Z</time></trkpt><trkpt lat="44.56368452115796" lon="12.130112218585806"><ele>-3.0</ele><time>2026-04-12T10:06:41Z</time></trkpt><trkpt lat="44.56363128774858" lon="12.130198183271133"><ele>-3.0</ele><time>2026-04-12T10:06:44Z</time></trkpt><trkpt lat="44.563580992731325" lon="12.130289790368176"><ele>-3.0</ele><time>2026-04-12T10:06:47Z</time></trkpt><trkpt lat="44.563531372742744" lon="12.130377731878555"><ele>-3.0</ele><time>2026-04-12T10:06:50Z</time></trkpt><trkpt lat="44.56347960658271" lon="12.130465007652086"><ele>-3.0</ele><time>2026-04-12T10:06:53Z</time></trkpt><trkpt lat="44.563426393531984" lon="12.130549107229754"><ele>-3.0</ele><time>2026-04-12T10:06:56Z</time></trkpt><trkpt lat="44.56337551670255" lon="12.130635264138698"><ele>-3.0</ele><time>2026-04-12T10:06:59Z</time></trkpt><trkpt lat="44.563322332549035" lon="12.13072480950491"><ele>-2.8333333333333335</ele><time>2026-04-12T10:07:02Z</time></trkpt><trkpt lat="44.56327043541466" lon="12.130818568989723"><ele>-2.6666666666666665</ele><time>2026-04-12T10:07:05Z</time></trkpt><trkpt lat="44.56321599454294" lon="12.130906259131311"><ele>-2.5</ele><time>2026-04-12T10:07:08Z</time></trkpt><trkpt lat="44.56316542746642" lon="12.130996796975134"><ele>-2.333333333333333</ele><time>2026-04-12T10:07:11Z</time></trkpt><trkpt lat="44.56311406202518" lon="12.13108613040472"><ele>-2.1666666666666665</ele><time>2026-04-12T10:07:14Z</time></trkpt><trkpt lat="44.5630573293561" lon="12.13117694243651"><ele>-2.0</ele><time>2026-04-12T10:07:17Z</time></trkpt><trkpt lat="44.56300332104711" lon="12.131269664394413"><ele>-1.9999999999999998</ele><time>2026-04-12T10:07:20Z</time></trkpt><trkpt lat="44.56295088613155" lon="12.131367741113277"><ele>-2.0</ele><time>2026-04-12T10:07:23Z</time></trkpt><trkpt lat="44.56289451765463" lon="12.13146727393178"><ele>-2.0</ele><time>2026-04-12T10:07:26Z</time></trkpt><trkpt lat="44.5628377714573" lon="12.131559144998368"><ele>-2.0</ele><time>2026-04-12T10:07:29Z</time></trkpt><trkpt lat="44.5627876338099" lon="12.131658192032141"><ele>-1.9999999999999998</ele><time>2026-04-12T10:07:32Z</time></trkpt><trkpt lat="44.562729370567226" lon="12.131751498115753"><ele>-2.0</ele><time>2026-04-12T10:07:35Z</time></trkpt><trkpt lat="44.56267138965885" lon="12.1318411688314"><ele>-1.8333333333333333</ele><time>2026-04-12T10:07:38Z</time></trkpt><trkpt lat="44.56261956025147" lon="12.131935621358874"><ele>-1.6666666666666665</ele><time>2026-04-12T10:07:41Z</time></trkpt><trkpt lat="44.56257054460543" lon="12.13202141140493"><ele>-1.5</ele><time>2026-04-12T10:07:44Z</time></trkpt><trkpt lat="44.56251937327098" lon="12.132100557485531"><ele>-1.3333333333333333</ele><time>2026-04-12T10:07:47Z</time></trkpt><trkpt lat="44.562467606945305" lon="12.132184166362611"><ele>-1.1666666666666665</ele><time>2026-04-12T10:07:50Z</time></trkpt><trkpt lat="44.56241694372619" lon="12.132267647674462"><ele>-1.0</ele><time>2026-04-12T10:07:53Z</time></trkpt><trkpt lat="44.562368727603655" lon="12.132363622815765"><ele>-1.1428571428571428</ele><time>2026-04-12T10:07:56Z</time></trkpt><trkpt lat="44.562316250756886" lon="12.132448629890586"><ele>-1.2857142857142856</ele><time>2026-04-12T10:07:59Z</time></trkpt><trkpt lat="44.56227891089192" lon="12.132526393702076"><ele>-1.4285714285714284</ele><time>2026-04-12T10:08:02Z</time></trkpt><trkpt lat="44.56224270394316" lon="12.13261294561311"><ele>-1.5714285714285714</ele><time>2026-04-12T10:10:09Z</time></trkpt><trkpt lat="44.5621847417538" lon="12.132696682187342"><ele>-1.714285714285714</ele><time>2026-04-12T10:10:13Z</time></trkpt><trkpt lat="44.56214233114076" lon="12.132764553035397"><ele>-1.857142857142857</ele><time>2026-04-12T10:10:16Z</time></trkpt><trkpt lat="44.56210183324081" lon="12.132843817979397"><ele>-2.0</ele><time>2026-04-12T10:10:19Z</time></trkpt><trkpt lat="44.56205041897093" lon="12.13292053146278"><ele>-1.9999999999999998</ele><time>2026-04-12T10:10:22Z</time></trkpt><trkpt lat="44.56199729560141" lon="12.133000248567905"><ele>-2.0</ele><time>2026-04-12T10:10:25Z</time></trkpt><trkpt lat="44.561947081460325" lon="12.13308276381501"><ele>-2.0</ele><time>2026-04-12T10:10:28Z</time></trkpt><trkpt lat="44.56189531405959" lon="12.133163563874371"><ele>-2.0</ele><time>2026-04-12T10:10:31Z</time></trkpt><trkpt lat="44.56184613598484" lon="12.133248553919152"><ele>-1.9999999999999998</ele><time>2026-04-12T10:10:34Z</time></trkpt><trkpt lat="44.56179799820361" lon="12.133330319644127"><ele>-2.0</ele><time>2026-04-12T10:10:37Z</time></trkpt><trkpt lat="44.5617421532392" lon="12.133404354113535"><ele>-2.0</ele><time>2026-04-12T10:10:40Z</time></trkpt><trkpt lat="44.561700793377014" lon="12.13348654203483"><ele>-1.9999999999999998</ele><time>2026-04-12T10:10:43Z</time></trkpt><trkpt lat="44.56165892315049" lon="12.133562537221318"><ele>-2.0</ele><time>2026-04-12T10:11:41Z</time></trkpt><trkpt lat="44.56161830447313" lon="12.133648783032855"><ele>-2.0</ele><time>2026-04-12T10:11:45Z</time></trkpt><trkpt lat="44.56157941631228" lon="12.13373202268849"><ele>-1.9999999999999998</ele><time>2026-04-12T10:11:48Z</time></trkpt><trkpt lat="44.56152841737538" lon="12.133806373669834"><ele>-2.0</ele><time>2026-04-12T10:11:51Z</time></trkpt><trkpt lat="44.56148318505228" lon="12.133893569673678"><ele>-2.0</ele><time>2026-04-12T10:11:54Z</time></trkpt><trkpt lat="44.56143862719934" lon="12.133971628998044"><ele>-2.0</ele><time>2026-04-12T10:11:57Z</time></trkpt><trkpt lat="44.561387442751915" lon="12.134050904215572"><ele>-1.9999999999999998</ele><time>2026-04-12T10:12:01Z</time></trkpt><trkpt lat="44.56134511855176" lon="12.134121746610262"><ele>-2.0</ele><time>2026-04-12T10:12:04Z</time></trkpt><trkpt lat="44.56130612194476" lon="12.134194998069948"><ele>-2.0</ele><time>2026-04-12T10:12:07Z</time></trkpt><trkpt lat="44.5612630258209" lon="12.134261304278816"><ele>-1.9999999999999998</ele><time>2026-04-12T10:12:10Z</time></trkpt><trkpt lat="44.56121971286872" lon="12.1343495097971"><ele>-2.0</ele><time>2026-04-12T10:12:14Z</time></trkpt><trkpt lat="44.56117513057163" lon="12.134425572174903"><ele>-2.0</ele><time>2026-04-12T10:12:18Z</time></trkpt><trkpt lat="44.561127993186986" lon="12.13451278253997"><ele>-2.0</ele><time>2026-04-12T10:12:22Z</time></trkpt><trkpt lat="44.561092117130634" lon="12.134602116726867"><ele>-1.9999999999999998</ele><time>2026-04-12T10:12:26Z</time></trkpt><trkpt lat="44.56104329590937" lon="12.134658358004094"><ele>-2.0</ele><time>2026-04-12T10:12:29Z</time></trkpt><trkpt lat="44.56099775301596" lon="12.134726076404046"><ele>-2.0</ele><time>2026-04-12T10:12:32Z</time></trkpt><trkpt lat="44.56095065993123" lon="12.134795313528986"><ele>-1.9999999999999998</ele><time>2026-04-12T10:12:37Z</time></trkpt><trkpt lat="44.56090769257472" lon="12.134870000240818"><ele>-2.0</ele><time>2026-04-12T10:12:58Z</time></trkpt><trkpt lat="44.560878925361045" lon="12.134957791335967"><ele>-2.0</ele><time>2026-04-12T10:13:10Z</time></trkpt><trkpt lat="44.560841864180645" lon="12.13503456096323"><ele>-2.0</ele><time>2026-04-12T10:13:20Z</time></trkpt><trkpt lat="44.56080865330544" lon="12.135114145257617"><ele>-1.9999999999999998</ele><time>2026-04-12T10:13:24Z</time></trkpt><trkpt lat="44.56078144858145" lon="12.135195266115636"><ele>-2.0</ele><time>2026-04-12T10:13:28Z</time></trkpt><trkpt lat="44.560711386542025" lon="12.135228805578915"><ele>-2.0</ele><time>2026-04-12T10:13:46Z</time></trkpt><trkpt lat="44.56065036036006" lon="12.135176768842575"><ele>-1.9999999999999998</ele><time>2026-04-12T10:13:50Z</time></trkpt><trkpt lat="44.560570717930865" lon="12.135129675963901"><ele>-2.0</ele><time>2026-04-12T10:13:54Z</time></trkpt><trkpt lat="44.56050041058671" lon="12.135085001250303"><ele>-2.0</ele><time>2026-04-12T10:13:57Z</time></trkpt><trkpt lat="44.560428317689144" lon="12.13503797199383"><ele>-2.1666666666666665</ele><time>2026-04-12T10:14:00Z</time></trkpt><trkpt lat="44.56035577628791" lon="12.134990176119043"><ele>-2.333333333333333</ele><time>2026-04-12T10:14:03Z</time></trkpt><trkpt lat="44.56027319887394" lon="12.134943584600975"><ele>-2.5</ele><time>2026-04-12T10:14:06Z</time></trkpt><trkpt lat="44.560195531171075" lon="12.13488148310594"><ele>-2.6666666666666665</ele><time>2026-04-12T10:14:09Z</time></trkpt><trkpt lat="44.560111778347164" lon="12.134823814794137"><ele>-2.8333333333333335</ele><time>2026-04-12T10:14:12Z</time></trkpt><trkpt lat="44.5600545730472" lon="12.134780794558822"><ele>-3.0</ele><time>2026-04-12T10:14:14Z</time></trkpt><trkpt lat="44.559996651582715" lon="12.134741053107954"><ele>-2.9999999999999996</ele><time>2026-04-12T10:14:16Z</time></trkpt><trkpt lat="44.55993747173941" lon="12.134703000141315"><ele>-3.0</ele><time>2026-04-12T10:14:18Z</time></trkpt><trkpt lat="44.55987956936656" lon="12.134664433390281"><ele>-3.0</ele><time>2026-04-12T10:14:20Z</time></trkpt><trkpt lat="44.55982365960686" lon="12.134621225181558"><ele>-3.0</ele><time>2026-04-12T10:14:22Z</time></trkpt><trkpt lat="44.55973803791589" lon="12.134572338428146"><ele>-3.0</ele><time>2026-04-12T10:14:25Z</time></trkpt><trkpt lat="44.559656373044746" lon="12.134523410765162"><ele>-2.9999999999999996</ele><time>2026-04-12T10:14:28Z</time></trkpt><trkpt lat="44.55958960386424" lon="12.134491609543153"><ele>-3.0</ele><time>2026-04-12T10:14:30Z</time></trkpt><trkpt lat="44.559523510214575" lon="12.134441652873946"><ele>-2.714285714285714</ele><time>2026-04-12T10:14:32Z</time></trkpt><trkpt lat="44.55945725128406" lon="12.134422323940177"><ele>-2.4285714285714284</ele><time>2026-04-12T10:14:34Z</time></trkpt><trkpt lat="44.559391007312975" lon="12.134389649723932"><ele>-2.142857142857143</ele><time>2026-04-12T10:14:36Z</time></trkpt><trkpt lat="44.55932201760358" lon="12.13436544733611"><ele>-1.857142857142857</ele><time>2026-04-12T10:14:38Z</time></trkpt><trkpt lat="44.559258318867435" lon="12.134341674613006"><ele>-1.5714285714285712</ele><time>2026-04-12T10:14:40Z</time></trkpt><trkpt lat="44.55919150056203" lon="12.134322643218178"><ele>-1.2857142857142856</ele><time>2026-04-12T10:14:42Z</time></trkpt><trkpt lat="44.559121398266164" lon="12.134298568554309"><ele>-1.0</ele><time>2026-04-12T10:14:44Z</time></trkpt><trkpt lat="44.559026330301975" lon="12.134264035918347"><ele>-0.9999999999999999</ele><time>2026-04-12T10:14:47Z</time></trkpt><trkpt lat="44.55895780083623" lon="12.134237147107406"><ele>-1.0</ele><time>2026-04-12T10:14:49Z</time></trkpt><trkpt lat="44.55888835085015" lon="12.134214309605747"><ele>-1.0</ele><time>2026-04-12T10:14:51Z</time></trkpt><trkpt lat="44.55882168660804" lon="12.13418687846723"><ele>-1.0</ele><time>2026-04-12T10:14:53Z</time></trkpt><trkpt lat="44.55875896713609" lon="12.134160121880232"><ele>-0.9999999999999999</ele><time>2026-04-12T10:14:55Z</time></trkpt><trkpt lat="44.55868188901285" lon="12.134136867868058"><ele>-1.0</ele><time>2026-04-12T10:14:58Z</time></trkpt><trkpt lat="44.558591303963986" lon="12.134095767620497"><ele>-0.8571428571428571</ele><time>2026-04-12T10:15:01Z</time></trkpt><trkpt lat="44.55852445473263" lon="12.13407378853161"><ele>-0.7142857142857142</ele><time>2026-04-12T10:15:03Z</time></trkpt><trkpt lat="44.55845439856667" lon="12.134044155673395"><ele>-0.5714285714285714</ele><time>2026-04-12T10:15:05Z</time></trkpt><trkpt lat="44.55838428197122" lon="12.134023562179333"><ele>-0.42857142857142855</ele><time>2026-04-12T10:15:07Z</time></trkpt><trkpt lat="44.55830850654157" lon="12.133995486087574"><ele>-0.2857142857142857</ele><time>2026-04-12T10:15:09Z</time></trkpt><trkpt lat="44.55822760813986" lon="12.13397322680494"><ele>-0.14285714285714285</ele><time>2026-04-12T10:15:11Z</time></trkpt><trkpt lat="44.55816147466531" lon="12.13395505441152"><ele>0.0</ele><time>2026-04-12T10:15:13Z</time></trkpt><trkpt lat="44.55808832024459" lon="12.133934376382907"><ele>-0.3333333333333333</ele><time>2026-04-12T10:15:16Z</time></trkpt><trkpt lat="44.55799888165201" lon="12.133911829694604"><ele>-0.6666666666666666</ele><time>2026-04-12T10:15:19Z</time></trkpt><trkpt lat="44.55792850214984" lon="12.133897961324486"><ele>-1.0</ele><time>2026-04-12T10:15:21Z</time></trkpt><trkpt lat="44.55785927369176" lon="12.133881922650751"><ele>-1.3333333333333333</ele><time>2026-04-12T10:15:23Z</time></trkpt><trkpt lat="44.557770047545866" lon="12.13386406774826"><ele>-1.6666666666666665</ele><time>2026-04-12T10:15:26Z</time></trkpt><trkpt lat="44.55768589452925" lon="12.133847247937176"><ele>-2.0</ele><time>2026-04-12T10:15:29Z</time></trkpt><trkpt lat="44.55759009412529" lon="12.133827118892466"><ele>-2.142857142857143</ele><time>2026-04-12T10:15:31.999Z</time></trkpt><trkpt lat="44.557527537081874" lon="12.133815501979612"><ele>-2.2857142857142856</ele><time>2026-04-12T10:15:33.999Z</time></trkpt><trkpt lat="44.557448506330374" lon="12.133793330469805"><ele>-2.4285714285714284</ele><time>2026-04-12T10:15:36.999Z</time></trkpt><trkpt lat="44.55738032452709" lon="12.13377466282459"><ele>-2.571428571428571</ele><time>2026-04-12T10:15:38.999Z</time></trkpt><trkpt lat="44.55731261591175" lon="12.133760621384972"><ele>-2.7142857142857144</ele><time>2026-04-12T10:15:40.999Z</time></trkpt><trkpt lat="44.557240215999954" lon="12.133744389726438"><ele>-2.8571428571428568</ele><time>2026-04-12T10:15:42.999Z</time></trkpt><trkpt lat="44.557170545972774" lon="12.133726300691531"><ele>-3.0</ele><time>2026-04-12T10:15:44.999Z</time></trkpt><trkpt lat="44.5571051894577" lon="12.133711001829221"><ele>-2.6666666666666665</ele><time>2026-04-12T10:15:46.999Z</time></trkpt><trkpt lat="44.55701811098229" lon="12.133690788026673"><ele>-2.3333333333333335</ele><time>2026-04-12T10:15:49.999Z</time></trkpt><trkpt lat="44.55695719493177" lon="12.13364019712719"><ele>-2.0</ele><time>2026-04-12T10:15:53Z</time></trkpt><trkpt lat="44.55687451463826" lon="12.133665233181945"><ele>-1.6666666666666665</ele><time>2026-04-12T10:15:56Z</time></trkpt><trkpt lat="44.55679890990824" lon="12.133636589226242"><ele>-1.3333333333333333</ele><time>2026-04-12T10:15:59Z</time></trkpt><trkpt lat="44.55671773212848" lon="12.133617405006857"><ele>-1.0</ele><time>2026-04-12T10:16:02Z</time></trkpt><trkpt lat="44.55663435363119" lon="12.133600815028803"><ele>-0.9999999999999999</ele><time>2026-04-12T10:16:05Z</time></trkpt><trkpt lat="44.55656676027514" lon="12.133587532759725"><ele>-1.0</ele><time>2026-04-12T10:16:07Z</time></trkpt><trkpt lat="44.55648264649976" lon="12.133572181977005"><ele>-1.0</ele><time>2026-04-12T10:16:10Z</time></trkpt><trkpt lat="44.556402780573094" lon="12.133563078901137"><ele>-1.0</ele><time>2026-04-12T10:16:13Z</time></trkpt><trkpt lat="44.5563264087432" lon="12.133551312357168"><ele>-0.9999999999999999</ele><time>2026-04-12T10:16:16Z</time></trkpt><trkpt lat="44.55625039565828" lon="12.133550425160509"><ele>-1.0</ele><time>2026-04-12T10:16:19Z</time></trkpt><trkpt lat="44.55616354203726" lon="12.133549447555712"><ele>-1.1666666666666665</ele><time>2026-04-12T10:16:22Z</time></trkpt><trkpt lat="44.55606880089957" lon="12.133546648275589"><ele>-1.3333333333333333</ele><time>2026-04-12T10:16:25Z</time></trkpt><trkpt lat="44.555974982527054" lon="12.133549433400399"><ele>-1.5</ele><time>2026-04-12T10:16:28Z</time></trkpt><trkpt lat="44.55590478473294" lon="12.133545212729713"><ele>-1.6666666666666665</ele><time>2026-04-12T10:16:30Z</time></trkpt><trkpt lat="44.55581871865984" lon="12.133541897815949"><ele>-1.8333333333333333</ele><time>2026-04-12T10:16:33Z</time></trkpt><trkpt lat="44.55574704235977" lon="12.133548400882274"><ele>-2.0</ele><time>2026-04-12T10:16:36Z</time></trkpt><trkpt lat="44.55566737679704" lon="12.133550707627633"><ele>-1.9999999999999998</ele><time>2026-04-12T10:16:39Z</time></trkpt><trkpt lat="44.55559047102364" lon="12.133547453489005"><ele>-2.0</ele><time>2026-04-12T10:16:41Z</time></trkpt><trkpt lat="44.555522906066734" lon="12.133544423359698"><ele>-2.0</ele><time>2026-04-12T10:16:43Z</time></trkpt><trkpt lat="44.55543918987489" lon="12.133547274206258"><ele>-2.0</ele><time>2026-04-12T10:16:46Z</time></trkpt><trkpt lat="44.55536215663543" lon="12.133546321403093"><ele>-1.9999999999999998</ele><time>2026-04-12T10:16:49Z</time></trkpt><trkpt lat="44.55527243559556" lon="12.133548021021461"><ele>-2.0</ele><time>2026-04-12T10:16:52Z</time></trkpt><trkpt lat="44.555206976835095" lon="12.133545509202781"><ele>-1.8333333333333333</ele><time>2026-04-12T10:16:54Z</time></trkpt><trkpt lat="44.55512803576857" lon="12.133549220734762"><ele>-1.6666666666666665</ele><time>2026-04-12T10:16:56Z</time></trkpt><trkpt lat="44.55503930393085" lon="12.133552876104929"><ele>-1.5</ele><time>2026-04-12T10:16:59Z</time></trkpt><trkpt lat="44.55496140717122" lon="12.133553877584456"><ele>-1.3333333333333333</ele><time>2026-04-12T10:17:02Z</time></trkpt><trkpt lat="44.554889029913504" lon="12.133548120282637"><ele>-1.1666666666666665</ele><time>2026-04-12T10:17:05Z</time></trkpt><trkpt lat="44.55479399785556" lon="12.133547098375125"><ele>-1.0</ele><time>2026-04-12T10:17:08Z</time></trkpt><trkpt lat="44.55473089834204" lon="12.13354902427381"><ele>-0.9999999999999999</ele><time>2026-04-12T10:17:10Z</time></trkpt><trkpt lat="44.55464668411754" lon="12.133547809159865"><ele>-1.0</ele><time>2026-04-12T10:17:13Z</time></trkpt><trkpt lat="44.55456608114168" lon="12.13354641171078"><ele>-1.0</ele><time>2026-04-12T10:17:16Z</time></trkpt><trkpt lat="44.55447891980657" lon="12.133545744267517"><ele>-1.0</ele><time>2026-04-12T10:17:19Z</time></trkpt><trkpt lat="44.55438928855884" lon="12.133547926228283"><ele>-0.9999999999999999</ele><time>2026-04-12T10:17:22Z</time></trkpt><trkpt lat="44.55431188957607" lon="12.133548801527844"><ele>-1.0</ele><time>2026-04-12T10:17:25Z</time></trkpt><trkpt lat="44.55422945736398" lon="12.133546936515424"><ele>-1.1428571428571428</ele><time>2026-04-12T10:17:27.999Z</time></trkpt><trkpt lat="44.554153971031845" lon="12.133550984695626"><ele>-1.2857142857142856</ele><time>2026-04-12T10:17:31.999Z</time></trkpt><trkpt lat="44.554085613867976" lon="12.13354933998691"><ele>-1.4285714285714284</ele><time>2026-04-12T10:18:04Z</time></trkpt><trkpt lat="44.55404805075351" lon="12.133444979809521"><ele>-1.5714285714285714</ele><time>2026-04-12T10:18:09Z</time></trkpt><trkpt lat="44.553996029681436" lon="12.13336956833608"><ele>-1.714285714285714</ele><time>2026-04-12T10:18:11Z</time></trkpt><trkpt lat="44.55392456079802" lon="12.133375148067293"><ele>-1.857142857142857</ele><time>2026-04-12T10:18:13Z</time></trkpt><trkpt lat="44.55385628483279" lon="12.13335769571994"><ele>-2.0</ele><time>2026-04-12T10:18:16Z</time></trkpt><trkpt lat="44.55379376241915" lon="12.133383845578415"><ele>-1.9999999999999998</ele><time>2026-04-12T10:18:20Z</time></trkpt><trkpt lat="44.55371276051857" lon="12.13338080636927"><ele>-2.0</ele><time>2026-04-12T10:18:23Z</time></trkpt><trkpt lat="44.553617493297075" lon="12.133391514540783"><ele>-2.0</ele><time>2026-04-12T10:18:26Z</time></trkpt><trkpt lat="44.55354529075997" lon="12.133384221048752"><ele>-2.0</ele><time>2026-04-12T10:18:28Z</time></trkpt><trkpt lat="44.553468886082065" lon="12.133385070779527"><ele>-1.9999999999999998</ele><time>2026-04-12T10:18:30Z</time></trkpt><trkpt lat="44.55339013867514" lon="12.133391414235767"><ele>-2.0</ele><time>2026-04-12T10:18:32Z</time></trkpt><trkpt lat="44.553312274061234" lon="12.133397479729883"><ele>-1.8333333333333333</ele><time>2026-04-12T10:18:34Z</time></trkpt><trkpt lat="44.553233120472726" lon="12.133388012006247"><ele>-1.6666666666666665</ele><time>2026-04-12T10:18:36Z</time></trkpt><trkpt lat="44.553151659333416" lon="12.133384875983735"><ele>-1.5</ele><time>2026-04-12T10:18:38Z</time></trkpt><trkpt lat="44.5530738182396" lon="12.133386887409761"><ele>-1.3333333333333333</ele><time>2026-04-12T10:18:40Z</time></trkpt><trkpt lat="44.553000130897935" lon="12.133392725298783"><ele>-1.1666666666666665</ele><time>2026-04-12T10:18:42Z</time></trkpt><trkpt lat="44.55293272245087" lon="12.133394055220597"><ele>-1.0</ele><time>2026-04-12T10:18:44Z</time></trkpt><trkpt lat="44.55286161414779" lon="12.133392430758871"><ele>-0.9999999999999999</ele><time>2026-04-12T10:18:46Z</time></trkpt><trkpt lat="44.552789188022615" lon="12.133396437207173"><ele>-1.0</ele><time>2026-04-12T10:18:48Z</time></trkpt><trkpt lat="44.55271635531589" lon="12.133400567044344"><ele>-1.0</ele><time>2026-04-12T10:18:50Z</time></trkpt><trkpt lat="44.55264043613579" lon="12.133393684159435"><ele>-1.0</ele><time>2026-04-12T10:18:52Z</time></trkpt><trkpt lat="44.55256247606483" lon="12.133394278219397"><ele>-0.9999999999999999</ele><time>2026-04-12T10:18:54Z</time></trkpt><trkpt lat="44.55248345032233" lon="12.133394816381228"><ele>-1.0</ele><time>2026-04-12T10:18:56Z</time></trkpt><trkpt lat="44.552404769253435" lon="12.133395997938537"><ele>-0.9999999999999999</ele><time>2026-04-12T10:18:58Z</time></trkpt><trkpt lat="44.55232534647455" lon="12.133398402001289"><ele>-1.0</ele><time>2026-04-12T10:19:00Z</time></trkpt><trkpt lat="44.55224625710331" lon="12.133402935824734"><ele>-1.0</ele><time>2026-04-12T10:19:02Z</time></trkpt><trkpt lat="44.55216509345572" lon="12.13340632908535"><ele>-1.0</ele><time>2026-04-12T10:19:04Z</time></trkpt><trkpt lat="44.55208060207502" lon="12.133405768934733"><ele>-0.9999999999999999</ele><time>2026-04-12T10:19:06Z</time></trkpt><trkpt lat="44.55199576995262" lon="12.13340154835179"><ele>-1.0</ele><time>2026-04-12T10:19:08Z</time></trkpt><trkpt lat="44.55191034330855" lon="12.133407661931768"><ele>-0.9999999999999999</ele><time>2026-04-12T10:19:10Z</time></trkpt><trkpt lat="44.55182404125852" lon="12.133406900832012"><ele>-1.0</ele><time>2026-04-12T10:19:12Z</time></trkpt><trkpt lat="44.551734451390104" lon="12.133406715947288"><ele>-1.0</ele><time>2026-04-12T10:19:14Z</time></trkpt><trkpt lat="44.55164508814102" lon="12.133401908098156"><ele>-1.0</ele><time>2026-04-12T10:19:16Z</time></trkpt><trkpt lat="44.55155759629425" lon="12.133410546119329"><ele>-0.9999999999999999</ele><time>2026-04-12T10:19:18Z</time></trkpt><trkpt lat="44.55147072584972" lon="12.13341130146617"><ele>-1.0</ele><time>2026-04-12T10:19:20Z</time></trkpt><trkpt lat="44.55138743180219" lon="12.13340988295448"><ele>-0.9999999999999999</ele><time>2026-04-12T10:19:22Z</time></trkpt><trkpt lat="44.551304767047625" lon="12.133417231808826"><ele>-1.0</ele><time>2026-04-12T10:19:24Z</time></trkpt><trkpt lat="44.551226670393234" lon="12.13343080889202"><ele>-1.0</ele><time>2026-04-12T10:19:26Z</time></trkpt><trkpt lat="44.55115200477722" lon="12.133442934518358"><ele>-1.0</ele><time>2026-04-12T10:19:27.999Z</time></trkpt><trkpt lat="44.55108388096529" lon="12.133462587824564"><ele>-0.9999999999999999</ele><time>2026-04-12T10:19:29.999Z</time></trkpt><trkpt lat="44.551021364160334" lon="12.133490524727785"><ele>-1.0</ele><time>2026-04-12T10:19:31.999Z</time></trkpt><trkpt lat="44.55093433969932" lon="12.133527912512108"><ele>-0.8571428571428571</ele><time>2026-04-12T10:19:34.999Z</time></trkpt><trkpt lat="44.55085873008256" lon="12.133559869001864"><ele>-0.7142857142857142</ele><time>2026-04-12T10:19:37.999Z</time></trkpt><trkpt lat="44.550787992240124" lon="12.133590156001086"><ele>-0.5714285714285714</ele><time>2026-04-12T10:19:40.999Z</time></trkpt><trkpt lat="44.55072675198169" lon="12.133612621803582"><ele>-0.42857142857142855</ele><time>2026-04-12T10:19:42.999Z</time></trkpt><trkpt lat="44.55066150162916" lon="12.133648901769163"><ele>-0.2857142857142857</ele><time>2026-04-12T10:19:44.999Z</time></trkpt><trkpt lat="44.550594652826646" lon="12.133679093040554"><ele>-0.14285714285714285</ele><time>2026-04-12T10:19:46.999Z</time></trkpt><trkpt lat="44.55052583646553" lon="12.13372092134127"><ele>0.0</ele><time>2026-04-12T10:19:48.999Z</time></trkpt><trkpt lat="44.55045789188126" lon="12.13377291122755"><ele>0.0</ele><time>2026-04-12T10:19:50.999Z</time></trkpt><trkpt lat="44.55038976974921" lon="12.133826306727132"><ele>0.0</ele><time>2026-04-12T10:19:52.999Z</time></trkpt><trkpt lat="44.55032370203371" lon="12.133884891036097"><ele>0.0</ele><time>2026-04-12T10:19:54.999Z</time></trkpt><trkpt lat="44.55025808469567" lon="12.133947833269882"><ele>0.0</ele><time>2026-04-12T10:19:56.999Z</time></trkpt><trkpt lat="44.55019620785291" lon="12.134016815705612"><ele>0.0</ele><time>2026-04-12T10:19:58.999Z</time></trkpt><trkpt lat="44.55013773251737" lon="12.134091929168088"><ele>0.0</ele><time>2026-04-12T10:20:00.999Z</time></trkpt><trkpt lat="44.5500834743428" lon="12.13416763402149"><ele>-0.16666666666666666</ele><time>2026-04-12T10:20:02.999Z</time></trkpt><trkpt lat="44.55004343621791" lon="12.134244237842175"><ele>-0.3333333333333333</ele><time>2026-04-12T10:20:05Z</time></trkpt><trkpt lat="44.54998957462852" lon="12.13433714591713"><ele>-0.5</ele><time>2026-04-12T10:20:08Z</time></trkpt><trkpt lat="44.549928537180946" lon="12.13440991234946"><ele>-0.6666666666666666</ele><time>2026-04-12T10:20:11Z</time></trkpt><trkpt lat="44.54988371190627" lon="12.13447947305239"><ele>-0.8333333333333333</ele><time>2026-04-12T10:20:15Z</time></trkpt><trkpt lat="44.54986225535172" lon="12.13458479416153"><ele>-1.0</ele><time>2026-04-12T10:21:37.999Z</time></trkpt><trkpt lat="44.54982063898871" lon="12.134667462984686"><ele>-0.9999999999999999</ele><time>2026-04-12T10:21:40.999Z</time></trkpt><trkpt lat="44.549764445467936" lon="12.134763380310078"><ele>-1.0</ele><time>2026-04-12T10:21:43.999Z</time></trkpt><trkpt lat="44.5497279448009" lon="12.134839976450415"><ele>-1.0</ele><time>2026-04-12T10:21:45.999Z</time></trkpt><trkpt lat="44.54969910564351" lon="12.134922427570622"><ele>-1.0</ele><time>2026-04-12T10:21:47.999Z</time></trkpt><trkpt lat="44.54968132697041" lon="12.135009280278469"><ele>-0.9999999999999999</ele><time>2026-04-12T10:21:49.999Z</time></trkpt><trkpt lat="44.549673049334324" lon="12.135138711367464"><ele>-1.0</ele><time>2026-04-12T10:21:52.999Z</time></trkpt><trkpt lat="44.549683417663495" lon="12.135265774885738"><ele>-0.8571428571428571</ele><time>2026-04-12T10:21:55.999Z</time></trkpt><trkpt lat="44.54970440520301" lon="12.135387964767562"><ele>-0.7142857142857142</ele><time>2026-04-12T10:21:58.999Z</time></trkpt><trkpt lat="44.54973557502092" lon="12.135494166025373"><ele>-0.5714285714285714</ele><time>2026-04-12T10:22:01.999Z</time></trkpt><trkpt lat="44.54976577042021" lon="12.135583530857398"><ele>-0.42857142857142855</ele><time>2026-04-12T10:22:04.999Z</time></trkpt><trkpt lat="44.549791250331424" lon="12.1356696809503"><ele>-0.2857142857142857</ele><time>2026-04-12T10:22:08.999Z</time></trkpt><trkpt lat="44.54983266489317" lon="12.135746699048964"><ele>-0.14285714285714285</ele><time>2026-04-12T10:22:47Z</time></trkpt><trkpt lat="44.549867426259354" lon="12.135827848683782"><ele>0.0</ele><time>2026-04-12T10:22:51Z</time></trkpt><trkpt lat="44.54991194967944" lon="12.13591637798435"><ele>0.0</ele><time>2026-04-12T10:22:54Z</time></trkpt><trkpt lat="44.549952505762754" lon="12.136003878444363"><ele>0.0</ele><time>2026-04-12T10:22:57Z</time></trkpt><trkpt lat="44.54998717009936" lon="12.136095305955049"><ele>0.0</ele><time>2026-04-12T10:23:00Z</time></trkpt><trkpt lat="44.55002726903265" lon="12.13618585823511"><ele>0.0</ele><time>2026-04-12T10:23:03Z</time></trkpt><trkpt lat="44.5500677800381" lon="12.1362797835593"><ele>0.0</ele><time>2026-04-12T10:23:06Z</time></trkpt><trkpt lat="44.55010623822431" lon="12.136378370322298"><ele>0.0</ele><time>2026-04-12T10:23:09Z</time></trkpt><trkpt lat="44.55015261101144" lon="12.136471199077075"><ele>0.0</ele><time>2026-04-12T10:23:11.999Z</time></trkpt><trkpt lat="44.55017917358062" lon="12.136564499083743"><ele>0.0</ele><time>2026-04-12T10:23:14.999Z</time></trkpt><trkpt lat="44.55022328602087" lon="12.136644648785238"><ele>0.0</ele><time>2026-04-12T10:23:17.999Z</time></trkpt><trkpt lat="44.55026763296722" lon="12.136721332460981"><ele>0.0</ele><time>2026-04-12T10:23:20.999Z</time></trkpt><trkpt lat="44.55030989156928" lon="12.136793621166106"><ele>0.0</ele><time>2026-04-12T10:23:23.999Z</time></trkpt><trkpt lat="44.55035068691962" lon="12.136868046029797"><ele>0.0</ele><time>2026-04-12T10:23:26.999Z</time></trkpt><trkpt lat="44.550396475990624" lon="12.136949384627986"><ele>0.0</ele><time>2026-04-12T10:23:29.999Z</time></trkpt><trkpt lat="44.55044553386941" lon="12.1370110573906"><ele>0.0</ele><time>2026-04-12T10:23:32.999Z</time></trkpt><trkpt lat="44.55048225452364" lon="12.137085005556823"><ele>0.0</ele><time>2026-04-12T10:23:35.999Z</time></trkpt><trkpt lat="44.55053945157507" lon="12.137157911149506"><ele>0.0</ele><time>2026-04-12T10:23:38.999Z</time></trkpt><trkpt lat="44.55058989561872" lon="12.13722350052975"><ele>0.0</ele><time>2026-04-12T10:23:41.999Z</time></trkpt><trkpt lat="44.55064526621558" lon="12.137310503174668"><ele>0.0</ele><time>2026-04-12T10:23:44.999Z</time></trkpt><trkpt lat="44.550712631479804" lon="12.137393964682815"><ele>0.0</ele><time>2026-04-12T10:23:47.999Z</time></trkpt><trkpt lat="44.55075967116534" lon="12.137456393493114"><ele>0.0</ele><time>2026-04-12T10:23:49.999Z</time></trkpt><trkpt lat="44.550802877271636" lon="12.1375294024666"><ele>0.2857142857142857</ele><time>2026-04-12T10:23:51.999Z</time></trkpt><trkpt lat="44.55084563994511" lon="12.137600204529248"><ele>0.5714285714285714</ele><time>2026-04-12T10:23:53.999Z</time></trkpt><trkpt lat="44.55089220895162" lon="12.137671220867652"><ele>0.8571428571428571</ele><time>2026-04-12T10:23:55.999Z</time></trkpt><trkpt lat="44.5509377735159" lon="12.137737321854328"><ele>1.1428571428571428</ele><time>2026-04-12T10:23:57.999Z</time></trkpt><trkpt lat="44.55098342753821" lon="12.13780956349922"><ele>1.4285714285714284</ele><time>2026-04-12T10:23:59.999Z</time></trkpt><trkpt lat="44.55102712162737" lon="12.137886132951937"><ele>1.7142857142857142</ele><time>2026-04-12T10:24:01.999Z</time></trkpt><trkpt lat="44.55107073258635" lon="12.137964281299631"><ele>2.0</ele><time>2026-04-12T10:24:03.999Z</time></trkpt><trkpt lat="44.55111550107015" lon="12.138038979451515"><ele>2.0</ele><time>2026-04-12T10:24:05.999Z</time></trkpt><trkpt lat="44.55115589973448" lon="12.138117876088055"><ele>1.9999999999999998</ele><time>2026-04-12T10:24:07.999Z</time></trkpt><trkpt lat="44.55119746208376" lon="12.138202399492622"><ele>2.0</ele><time>2026-04-12T10:24:09.999Z</time></trkpt><trkpt lat="44.55124119986732" lon="12.138280439455798"><ele>2.0</ele><time>2026-04-12T10:24:11.999Z</time></trkpt><trkpt lat="44.55127142748476" lon="12.138370841305901"><ele>1.9999999999999998</ele><time>2026-04-12T10:24:13.999Z</time></trkpt><trkpt lat="44.55131684518448" lon="12.138455859291538"><ele>2.0</ele><time>2026-04-12T10:24:16Z</time></trkpt><trkpt lat="44.5513620337266" lon="12.13853398933056"><ele>2.0</ele><time>2026-04-12T10:24:18Z</time></trkpt><trkpt lat="44.551396064053236" lon="12.13862134367599"><ele>2.0</ele><time>2026-04-12T10:24:20Z</time></trkpt><trkpt lat="44.55143009064643" lon="12.138703132868875"><ele>1.9999999999999998</ele><time>2026-04-12T10:24:22Z</time></trkpt><trkpt lat="44.55147493584568" lon="12.138805220575799"><ele>2.0</ele><time>2026-04-12T10:24:25Z</time></trkpt><trkpt lat="44.55151435699817" lon="12.138915883605243"><ele>2.0</ele><time>2026-04-12T10:24:28Z</time></trkpt><trkpt lat="44.55154256736177" lon="12.138995507665083"><ele>1.9999999999999998</ele><time>2026-04-12T10:24:30Z</time></trkpt><trkpt lat="44.55157439408263" lon="12.139076182884411"><ele>2.0</ele><time>2026-04-12T10:24:32Z</time></trkpt><trkpt lat="44.55160218795317" lon="12.139161067342158"><ele>2.0</ele><time>2026-04-12T10:24:34Z</time></trkpt><trkpt lat="44.551631319624555" lon="12.139247993696651"><ele>2.0</ele><time>2026-04-12T10:24:36Z</time></trkpt><trkpt lat="44.55165945748043" lon="12.139336027654071"><ele>1.9999999999999998</ele><time>2026-04-12T10:24:38Z</time></trkpt><trkpt lat="44.5516887565069" lon="12.139419204805463"><ele>2.0</ele><time>2026-04-12T10:24:40Z</time></trkpt><trkpt lat="44.55172684535139" lon="12.139530621632888"><ele>2.0</ele><time>2026-04-12T10:24:43Z</time></trkpt><trkpt lat="44.55179326023253" lon="12.13951003743892"><ele>1.9999999999999998</ele><time>2026-04-12T10:24:47Z</time></trkpt><trkpt lat="44.55174346900754" lon="12.139453288120894"><ele>2.0</ele><time>2026-04-12T10:26:15.999Z</time></trkpt><trkpt lat="44.55172656654012" lon="12.139559873932743"><ele>2.0</ele><time>2026-04-12T10:26:23Z</time></trkpt><trkpt lat="44.551760729087825" lon="12.13966100026633"><ele>1.9999999999999998</ele><time>2026-04-12T10:26:27Z</time></trkpt><trkpt lat="44.551778082541944" lon="12.13975815749305"><ele>2.0</ele><time>2026-04-12T10:26:31Z</time></trkpt><trkpt lat="44.55180214236606" lon="12.139849379756791"><ele>2.0</ele><time>2026-04-12T10:26:35Z</time></trkpt><trkpt lat="44.551823820503685" lon="12.139958477453419"><ele>2.0</ele><time>2026-04-12T10:26:39Z</time></trkpt><trkpt lat="44.55184675666175" lon="12.140058456119352"><ele>1.9999999999999998</ele><time>2026-04-12T10:26:42Z</time></trkpt><trkpt lat="44.551871731364386" lon="12.140166713117793"><ele>2.0</ele><time>2026-04-12T10:26:45Z</time></trkpt><trkpt lat="44.55189100745471" lon="12.140295653584825"><ele>2.0</ele><time>2026-04-12T10:26:48Z</time></trkpt><trkpt lat="44.55191574840019" lon="12.140419549097471"><ele>1.9999999999999998</ele><time>2026-04-12T10:26:51Z</time></trkpt><trkpt lat="44.55191792020553" lon="12.140509273477662"><ele>2.0</ele><time>2026-04-12T10:26:53Z</time></trkpt><trkpt lat="44.55193349789836" lon="12.140604651226756"><ele>2.0</ele><time>2026-04-12T10:26:55Z</time></trkpt><trkpt lat="44.551938873877376" lon="12.140695483701752"><ele>1.9999999999999998</ele><time>2026-04-12T10:26:57Z</time></trkpt><trkpt lat="44.55195175422984" lon="12.14080264831882"><ele>2.0</ele><time>2026-04-12T10:26:59Z</time></trkpt><trkpt lat="44.55195499756015" lon="12.14089614670088"><ele>2.0</ele><time>2026-04-12T10:27:01Z</time></trkpt><trkpt lat="44.55196717645252" lon="12.140990616875923"><ele>2.0</ele><time>2026-04-12T10:27:02.999Z</time></trkpt><trkpt lat="44.55197223004785" lon="12.141092366487399"><ele>1.9999999999999998</ele><time>2026-04-12T10:27:04.999Z</time></trkpt><trkpt lat="44.551979848953295" lon="12.14118877334767"><ele>2.0</ele><time>2026-04-12T10:27:06.999Z</time></trkpt><trkpt lat="44.551980369928785" lon="12.141292545996219"><ele>2.0</ele><time>2026-04-12T10:27:08.999Z</time></trkpt><trkpt lat="44.55198970138498" lon="12.141392422516281"><ele>1.9999999999999998</ele><time>2026-04-12T10:27:10.999Z</time></trkpt><trkpt lat="44.55199642742864" lon="12.141495132494104"><ele>2.0</ele><time>2026-04-12T10:27:12.999Z</time></trkpt><trkpt lat="44.551997669534764" lon="12.141600880913595"><ele>2.0</ele><time>2026-04-12T10:27:14.999Z</time></trkpt><trkpt lat="44.55200058698722" lon="12.141709009304156"><ele>2.1666666666666665</ele><time>2026-04-12T10:27:16.999Z</time></trkpt><trkpt lat="44.5519975288489" lon="12.14181638811722"><ele>2.333333333333333</ele><time>2026-04-12T10:27:18.999Z</time></trkpt><trkpt lat="44.5519998043317" lon="12.141926172014408"><ele>2.5</ele><time>2026-04-12T10:27:20.999Z</time></trkpt><trkpt lat="44.55199888175846" lon="12.142034573683807"><ele>2.6666666666666665</ele><time>2026-04-12T10:27:22.999Z</time></trkpt><trkpt lat="44.551991356196304" lon="12.142144264305804"><ele>2.8333333333333335</ele><time>2026-04-12T10:27:24.999Z</time></trkpt><trkpt lat="44.55198103821577" lon="12.142253894031903"><ele>3.0</ele><time>2026-04-12T10:27:26.999Z</time></trkpt><trkpt lat="44.551970337759684" lon="12.14236611937502"><ele>3.1666666666666665</ele><time>2026-04-12T10:27:28.999Z</time></trkpt><trkpt lat="44.551959120737884" lon="12.14247984383583"><ele>3.333333333333333</ele><time>2026-04-12T10:27:30.999Z</time></trkpt><trkpt lat="44.551945887470765" lon="12.142594853156593"><ele>3.5</ele><time>2026-04-12T10:27:32.999Z</time></trkpt><trkpt lat="44.551928042310884" lon="12.142700682265222"><ele>3.6666666666666665</ele><time>2026-04-12T10:27:34.999Z</time></trkpt><trkpt lat="44.5519036703335" lon="12.14280901478223"><ele>3.833333333333333</ele><time>2026-04-12T10:27:36.999Z</time></trkpt><trkpt lat="44.551880576035906" lon="12.142914570988255"><ele>4.0</ele><time>2026-04-12T10:27:38.999Z</time></trkpt><trkpt lat="44.55185447701994" lon="12.143028962217576"><ele>3.9999999999999996</ele><time>2026-04-12T10:27:40.999Z</time></trkpt><trkpt lat="44.55182697044667" lon="12.143142962197768"><ele>4.0</ele><time>2026-04-12T10:27:42.999Z</time></trkpt><trkpt lat="44.55179531630267" lon="12.14325713918243"><ele>4.0</ele><time>2026-04-12T10:27:44.999Z</time></trkpt><trkpt lat="44.55175746420698" lon="12.143364479141496"><ele>4.0</ele><time>2026-04-12T10:27:46.999Z</time></trkpt><trkpt lat="44.551727415899606" lon="12.14348066949207"><ele>3.9999999999999996</ele><time>2026-04-12T10:27:48.999Z</time></trkpt><trkpt lat="44.55168552827108" lon="12.143584922051026"><ele>4.0</ele><time>2026-04-12T10:27:50.999Z</time></trkpt><trkpt lat="44.55164976019635" lon="12.143700144651774"><ele>3.6666666666666665</ele><time>2026-04-12T10:27:52.999Z</time></trkpt><trkpt lat="44.55160784348221" lon="12.143809864625174"><ele>3.333333333333333</ele><time>2026-04-12T10:27:54.999Z</time></trkpt><trkpt lat="44.55156402939198" lon="12.143918683671746"><ele>3.0</ele><time>2026-04-12T10:27:56.999Z</time></trkpt><trkpt lat="44.55151840020241" lon="12.144023857898556"><ele>2.6666666666666665</ele><time>2026-04-12T10:27:58.999Z</time></trkpt><trkpt lat="44.55147127231814" lon="12.14412712787224"><ele>2.333333333333333</ele><time>2026-04-12T10:28:00.999Z</time></trkpt><trkpt lat="44.55142333508109" lon="12.144225044891563"><ele>2.0</ele><time>2026-04-12T10:28:02.999Z</time></trkpt><trkpt lat="44.551379912951376" lon="12.144319939091416"><ele>1.8333333333333333</ele><time>2026-04-12T10:28:04.999Z</time></trkpt><trkpt lat="44.55133268802172" lon="12.144412314646216"><ele>1.6666666666666665</ele><time>2026-04-12T10:28:06.999Z</time></trkpt><trkpt lat="44.55127875086479" lon="12.144507851696389"><ele>1.5</ele><time>2026-04-12T10:28:08.999Z</time></trkpt><trkpt lat="44.55122231083455" lon="12.144599359456713"><ele>1.3333333333333333</ele><time>2026-04-12T10:28:10.999Z</time></trkpt><trkpt lat="44.55116573352344" lon="12.14469514871923"><ele>1.1666666666666665</ele><time>2026-04-12T10:28:12.999Z</time></trkpt><trkpt lat="44.55110948107408" lon="12.144787247707807"><ele>1.0</ele><time>2026-04-12T10:28:14.999Z</time></trkpt><trkpt lat="44.55105038223967" lon="12.144870380584772"><ele>1.3333333333333333</ele><time>2026-04-12T10:28:16.999Z</time></trkpt><trkpt lat="44.55099295925988" lon="12.144951599941626"><ele>1.6666666666666665</ele><time>2026-04-12T10:28:18.999Z</time></trkpt><trkpt lat="44.550934307468765" lon="12.145029967988572"><ele>2.0</ele><time>2026-04-12T10:28:20.999Z</time></trkpt><trkpt lat="44.55087524088432" lon="12.145113522661592"><ele>2.3333333333333335</ele><time>2026-04-12T10:28:22.999Z</time></trkpt><trkpt lat="44.55081294657706" lon="12.145191880397356"><ele>2.6666666666666665</ele><time>2026-04-12T10:28:24.999Z</time></trkpt><trkpt lat="44.55074910543119" lon="12.145265460887165"><ele>3.0</ele><time>2026-04-12T10:28:27Z</time></trkpt><trkpt lat="44.55068566238716" lon="12.145342577647442"><ele>3.0</ele><time>2026-04-12T10:28:29Z</time></trkpt><trkpt lat="44.55062342390953" lon="12.145422467648427"><ele>3.0</ele><time>2026-04-12T10:28:31Z</time></trkpt><trkpt lat="44.55055715598641" lon="12.1454923936668"><ele>3.0</ele><time>2026-04-12T10:28:33Z</time></trkpt><trkpt lat="44.55048950439805" lon="12.145562938433725"><ele>3.0</ele><time>2026-04-12T10:28:35Z</time></trkpt><trkpt lat="44.55042658881489" lon="12.145625749386534"><ele>3.0</ele><time>2026-04-12T10:28:37Z</time></trkpt><trkpt lat="44.550371930553624" lon="12.145694229633584"><ele>3.0</ele><time>2026-04-12T10:28:45Z</time></trkpt><trkpt lat="44.55030504767119" lon="12.145752529603103"><ele>2.9999999999999996</ele><time>2026-04-12T10:28:50Z</time></trkpt><trkpt lat="44.55023360854435" lon="12.145821996035156"><ele>3.0</ele><time>2026-04-12T10:28:53Z</time></trkpt><trkpt lat="44.550179167686686" lon="12.145869644648348"><ele>3.0</ele><time>2026-04-12T10:28:55Z</time></trkpt><trkpt lat="44.55011986082511" lon="12.145914821249864"><ele>3.0</ele><time>2026-04-12T10:28:57Z</time></trkpt><trkpt lat="44.550059000234874" lon="12.145967346205563"><ele>3.0</ele><time>2026-04-12T10:28:59Z</time></trkpt><trkpt lat="44.54999851751711" lon="12.146019606272407"><ele>2.9999999999999996</ele><time>2026-04-12T10:29:00.999Z</time></trkpt><trkpt lat="44.54993476872656" lon="12.146078951247377"><ele>3.0</ele><time>2026-04-12T10:29:02.999Z</time></trkpt><trkpt lat="44.54987021061311" lon="12.14613193287247"><ele>3.0</ele><time>2026-04-12T10:29:04.999Z</time></trkpt><trkpt lat="44.54980800242726" lon="12.146179487894717"><ele>3.0</ele><time>2026-04-12T10:29:06.999Z</time></trkpt><trkpt lat="44.54974137157411" lon="12.146221000856285"><ele>3.0</ele><time>2026-04-12T10:29:08.999Z</time></trkpt><trkpt lat="44.54967615984215" lon="12.146277103080141"><ele>3.0</ele><time>2026-04-12T10:29:10.999Z</time></trkpt><trkpt lat="44.54961113072265" lon="12.146333967689388"><ele>3.0</ele><time>2026-04-12T10:29:12.999Z</time></trkpt><trkpt lat="44.5495350717029" lon="12.146379093705068"><ele>3.0</ele><time>2026-04-12T10:29:14.999Z</time></trkpt><trkpt lat="44.5494671313772" lon="12.146438444310867"><ele>2.6666666666666665</ele><time>2026-04-12T10:29:16.999Z</time></trkpt><trkpt lat="44.549400393877065" lon="12.14649751439135"><ele>2.3333333333333335</ele><time>2026-04-12T10:29:18.999Z</time></trkpt><trkpt lat="44.54933306271728" lon="12.146558288855307"><ele>2.0</ele><time>2026-04-12T10:29:20.999Z</time></trkpt><trkpt lat="44.549266926929384" lon="12.146619747169186"><ele>1.6666666666666665</ele><time>2026-04-12T10:29:22.999Z</time></trkpt><trkpt lat="44.549216631347335" lon="12.14667801493116"><ele>1.3333333333333333</ele><time>2026-04-12T10:29:24.999Z</time></trkpt><trkpt lat="44.54912780302007" lon="12.14673670256621"><ele>1.0</ele><time>2026-04-12T10:29:26.999Z</time></trkpt><trkpt lat="44.54905973621664" lon="12.146809128904154"><ele>0.8333333333333333</ele><time>2026-04-12T10:29:28.999Z</time></trkpt><trkpt lat="44.548986602355455" lon="12.146886339445567"><ele>0.6666666666666666</ele><time>2026-04-12T10:29:30.999Z</time></trkpt><trkpt lat="44.54891728110342" lon="12.14696592072792"><ele>0.5</ele><time>2026-04-12T10:29:32.999Z</time></trkpt><trkpt lat="44.548854761837916" lon="12.147043771483645"><ele>0.3333333333333333</ele><time>2026-04-12T10:29:34.999Z</time></trkpt><trkpt lat="44.548790644623956" lon="12.147115443539027"><ele>0.16666666666666666</ele><time>2026-04-12T10:29:36.999Z</time></trkpt><trkpt lat="44.54873229489292" lon="12.14718594899343"><ele>0.0</ele><time>2026-04-12T10:29:38.999Z</time></trkpt><trkpt lat="44.54867657796261" lon="12.147257322183796"><ele>0.0</ele><time>2026-04-12T10:29:40.999Z</time></trkpt><trkpt lat="44.54862207750748" lon="12.14732156431564"><ele>0.0</ele><time>2026-04-12T10:29:42.999Z</time></trkpt><trkpt lat="44.54857358309095" lon="12.14738217219702"><ele>0.0</ele><time>2026-04-12T10:29:44.999Z</time></trkpt><trkpt lat="44.54852033159655" lon="12.14745602557801"><ele>0.0</ele><time>2026-04-12T10:29:46.999Z</time></trkpt><trkpt lat="44.54846795238269" lon="12.147535311927655"><ele>0.0</ele><time>2026-04-12T10:29:48.999Z</time></trkpt><trkpt lat="44.548426226410825" lon="12.147633995775859"><ele>0.0</ele><time>2026-04-12T10:29:50.999Z</time></trkpt><trkpt lat="44.548409952958316" lon="12.147745238613945"><ele>0.0</ele><time>2026-04-12T10:29:52.999Z</time></trkpt><trkpt lat="44.54842248680942" lon="12.147874032298303"><ele>0.0</ele><time>2026-04-12T10:29:54.999Z</time></trkpt><trkpt lat="44.548431547682625" lon="12.147968024726328"><ele>0.0</ele><time>2026-04-12T10:29:56.999Z</time></trkpt><trkpt lat="44.548455242709586" lon="12.14806894127379"><ele>0.0</ele><time>2026-04-12T10:29:58.999Z</time></trkpt><trkpt lat="44.54846824105607" lon="12.148160667642928"><ele>0.0</ele><time>2026-04-12T10:30:00.999Z</time></trkpt><trkpt lat="44.54847417202275" lon="12.14825325036254"><ele>0.0</ele><time>2026-04-12T10:30:02.999Z</time></trkpt><trkpt lat="44.5484898253188" lon="12.148344134618066"><ele>0.0</ele><time>2026-04-12T10:30:04.999Z</time></trkpt><trkpt lat="44.54850742312494" lon="12.148468474716209"><ele>0.0</ele><time>2026-04-12T10:30:07.999Z</time></trkpt><trkpt lat="44.54852836768274" lon="12.148583105293481"><ele>0.0</ele><time>2026-04-12T10:30:10.999Z</time></trkpt><trkpt lat="44.54853715421836" lon="12.148676054895565"><ele>0.0</ele><time>2026-04-12T10:30:12.999Z</time></trkpt><trkpt lat="44.548543653267174" lon="12.148775862019097"><ele>0.0</ele><time>2026-04-12T10:30:14.999Z</time></trkpt><trkpt lat="44.54855445425315" lon="12.148880048204745"><ele>0.0</ele><time>2026-04-12T10:30:16.999Z</time></trkpt><trkpt lat="44.548570284325976" lon="12.148984112181395"><ele>0.0</ele><time>2026-04-12T10:30:18.999Z</time></trkpt><trkpt lat="44.54859006839743" lon="12.149088251563569"><ele>0.16666666666666666</ele><time>2026-04-12T10:30:20.999Z</time></trkpt><trkpt lat="44.54860331495172" lon="12.14919580872423"><ele>0.3333333333333333</ele><time>2026-04-12T10:30:22.999Z</time></trkpt><trkpt lat="44.548613723639576" lon="12.149305108367589"><ele>0.5</ele><time>2026-04-12T10:30:24.999Z</time></trkpt><trkpt lat="44.54861840312577" lon="12.149417103077774"><ele>0.6666666666666666</ele><time>2026-04-12T10:30:26.999Z</time></trkpt><trkpt lat="44.54863162293205" lon="12.149523654146716"><ele>0.8333333333333333</ele><time>2026-04-12T10:30:28.999Z</time></trkpt><trkpt lat="44.54864200316247" lon="12.149625513793994"><ele>1.0</ele><time>2026-04-12T10:30:30.999Z</time></trkpt><trkpt lat="44.548657064524505" lon="12.149737661442142"><ele>0.9999999999999999</ele><time>2026-04-12T10:30:33Z</time></trkpt><trkpt lat="44.54867222576847" lon="12.149853179512306"><ele>1.0</ele><time>2026-04-12T10:30:35Z</time></trkpt><trkpt lat="44.548692285208396" lon="12.149973701674888"><ele>1.0</ele><time>2026-04-12T10:30:37Z</time></trkpt><trkpt lat="44.548710623769786" lon="12.150095380848786"><ele>1.0</ele><time>2026-04-12T10:30:39Z</time></trkpt><trkpt lat="44.548724808576914" lon="12.150219624597455"><ele>0.9999999999999999</ele><time>2026-04-12T10:30:41Z</time></trkpt><trkpt lat="44.548746055910584" lon="12.150337971881743"><ele>1.0</ele><time>2026-04-12T10:30:43Z</time></trkpt><trkpt lat="44.54876022514098" lon="12.150456276224613"><ele>0.6666666666666666</ele><time>2026-04-12T10:30:45Z</time></trkpt><trkpt lat="44.548783651583285" lon="12.1505852476015"><ele>0.3333333333333333</ele><time>2026-04-12T10:30:47Z</time></trkpt><trkpt lat="44.54880403933224" lon="12.150704190486172"><ele>0.0</ele><time>2026-04-12T10:30:49Z</time></trkpt><trkpt lat="44.548822297852674" lon="12.150812351276882"><ele>-0.3333333333333333</ele><time>2026-04-12T10:30:50.999Z</time></trkpt><trkpt lat="44.54883565993459" lon="12.150917773670397"><ele>-0.6666666666666666</ele><time>2026-04-12T10:30:52.999Z</time></trkpt><trkpt lat="44.548850533793356" lon="12.151040190304961"><ele>-1.0</ele><time>2026-04-12T10:30:54.999Z</time></trkpt><trkpt lat="44.54886586718424" lon="12.151168653862998"><ele>-0.9999999999999999</ele><time>2026-04-12T10:30:56.999Z</time></trkpt><trkpt lat="44.5488789868953" lon="12.151287160256592"><ele>-1.0</ele><time>2026-04-12T10:30:58.999Z</time></trkpt><trkpt lat="44.54888352997906" lon="12.15139597521664"><ele>-1.0</ele><time>2026-04-12T10:31:00.999Z</time></trkpt><trkpt lat="44.54890799902419" lon="12.151511687485355"><ele>-1.0</ele><time>2026-04-12T10:31:02.999Z</time></trkpt><trkpt lat="44.54892322792892" lon="12.151647620373605"><ele>-0.9999999999999999</ele><time>2026-04-12T10:31:04.999Z</time></trkpt><trkpt lat="44.548932250838824" lon="12.151778819140967"><ele>-1.0</ele><time>2026-04-12T10:31:06.999Z</time></trkpt><trkpt lat="44.548944605858004" lon="12.151898235605058"><ele>-0.6666666666666666</ele><time>2026-04-12T10:31:08.999Z</time></trkpt><trkpt lat="44.54895219486208" lon="12.152007272458548"><ele>-0.3333333333333333</ele><time>2026-04-12T10:31:10.999Z</time></trkpt><trkpt lat="44.54897146590165" lon="12.152107937925715"><ele>0.0</ele><time>2026-04-12T10:31:12.999Z</time></trkpt><trkpt lat="44.548986140093284" lon="12.152233115050317"><ele>0.3333333333333333</ele><time>2026-04-12T10:31:14.999Z</time></trkpt><trkpt lat="44.54900219493132" lon="12.152378583684733"><ele>0.6666666666666666</ele><time>2026-04-12T10:31:16.999Z</time></trkpt><trkpt lat="44.54902302154965" lon="12.152517330286965"><ele>1.0</ele><time>2026-04-12T10:31:18.999Z</time></trkpt><trkpt lat="44.549033695320446" lon="12.152644965572343"><ele>0.9999999999999999</ele><time>2026-04-12T10:31:20.999Z</time></trkpt><trkpt lat="44.549046067119505" lon="12.152769195925481"><ele>1.0</ele><time>2026-04-12T10:31:22.999Z</time></trkpt><trkpt lat="44.5490598975301" lon="12.15287454713056"><ele>1.0</ele><time>2026-04-12T10:31:24.999Z</time></trkpt><trkpt lat="44.549072202519255" lon="12.152971231698912"><ele>1.0</ele><time>2026-04-12T10:31:26.999Z</time></trkpt><trkpt lat="44.549086429174544" lon="12.15310682652044"><ele>0.9999999999999999</ele><time>2026-04-12T10:31:29.999Z</time></trkpt><trkpt lat="44.54910243748981" lon="12.153222804323162"><ele>1.0</ele><time>2026-04-12T10:31:31.999Z</time></trkpt><trkpt lat="44.54911326844461" lon="12.153313058592408"><ele>1.2000000000000002</ele><time>2026-04-12T10:31:33.999Z</time></trkpt><trkpt lat="44.54912575190595" lon="12.153417906701543"><ele>1.4000000000000001</ele><time>2026-04-12T10:31:35.999Z</time></trkpt><trkpt lat="44.54913850218606" lon="12.153547721256063"><ele>1.6</ele><time>2026-04-12T10:31:37.999Z</time></trkpt><trkpt lat="44.54915345438116" lon="12.153693075549004"><ele>1.8</ele><time>2026-04-12T10:31:39.999Z</time></trkpt><trkpt lat="44.549168165584405" lon="12.153825053182207"><ele>2.0</ele><time>2026-04-12T10:31:42Z</time></trkpt><trkpt lat="44.54918419336959" lon="12.153941484524891"><ele>1.8</ele><time>2026-04-12T10:31:44Z</time></trkpt><trkpt lat="44.54919016050172" lon="12.154051322683662"><ele>1.6</ele><time>2026-04-12T10:31:46Z</time></trkpt><trkpt lat="44.549203492778865" lon="12.154163305478814"><ele>1.4000000000000001</ele><time>2026-04-12T10:31:48Z</time></trkpt><trkpt lat="44.549211865403514" lon="12.154296566852265"><ele>1.2000000000000002</ele><time>2026-04-12T10:31:50Z</time></trkpt><trkpt lat="44.54922176984027" lon="12.154446819078048"><ele>1.0</ele><time>2026-04-12T10:31:52Z</time></trkpt><trkpt lat="44.54923286829463" lon="12.154589095558071"><ele>0.9999999999999999</ele><time>2026-04-12T10:31:54Z</time></trkpt><trkpt lat="44.549241754606406" lon="12.154701019392128"><ele>1.0</ele><time>2026-04-12T10:31:56Z</time></trkpt><trkpt lat="44.54924424765791" lon="12.154822284799911"><ele>1.0</ele><time>2026-04-12T10:31:58Z</time></trkpt><trkpt lat="44.5492670484397" lon="12.154932422459401"><ele>1.0</ele><time>2026-04-12T10:32:00Z</time></trkpt><trkpt lat="44.54928231604338" lon="12.155034871257678"><ele>0.9999999999999999</ele><time>2026-04-12T10:32:02Z</time></trkpt><trkpt lat="44.549291084425384" lon="12.155130688323371"><ele>1.0</ele><time>2026-04-12T10:32:04Z</time></trkpt><trkpt lat="44.549304338042184" lon="12.155221445368912"><ele>0.9999999999999999</ele><time>2026-04-12T10:32:06Z</time></trkpt><trkpt lat="44.54933231517434" lon="12.155341766689562"><ele>1.0</ele><time>2026-04-12T10:32:09Z</time></trkpt><trkpt lat="44.54935440643601" lon="12.155467940788855"><ele>1.0</ele><time>2026-04-12T10:32:12Z</time></trkpt><trkpt lat="44.549365618694246" lon="12.155579564370756"><ele>1.0</ele><time>2026-04-12T10:32:15Z</time></trkpt><trkpt lat="44.54938116615499" lon="12.155678922562023"><ele>0.9999999999999999</ele><time>2026-04-12T10:32:18Z</time></trkpt><trkpt lat="44.54939546483243" lon="12.15580254157513"><ele>1.0</ele><time>2026-04-12T10:32:21Z</time></trkpt><trkpt lat="44.549408227904195" lon="12.155920241362157"><ele>0.9999999999999999</ele><time>2026-04-12T10:32:24Z</time></trkpt><trkpt lat="44.54941932978994" lon="12.156037409400843"><ele>1.0</ele><time>2026-04-12T10:32:27Z</time></trkpt><trkpt lat="44.54942842144387" lon="12.156169511452873"><ele>1.0</ele><time>2026-04-12T10:32:30Z</time></trkpt><trkpt lat="44.54943736770647" lon="12.156291039026874"><ele>1.0</ele><time>2026-04-12T10:32:32Z</time></trkpt><trkpt lat="44.54944273888396" lon="12.156398151734082"><ele>0.9999999999999999</ele><time>2026-04-12T10:32:34Z</time></trkpt><trkpt lat="44.54944990296964" lon="12.156494537804901"><ele>1.0</ele><time>2026-04-12T10:32:36Z</time></trkpt><trkpt lat="44.54946439959693" lon="12.156584378834369"><ele>1.1666666666666665</ele><time>2026-04-12T10:32:38Z</time></trkpt><trkpt lat="44.54947063275736" lon="12.156680800497151"><ele>1.3333333333333333</ele><time>2026-04-12T10:32:40Z</time></trkpt><trkpt lat="44.549471951994406" lon="12.156806458351818"><ele>1.5</ele><time>2026-04-12T10:32:43Z</time></trkpt><trkpt lat="44.54947450152631" lon="12.156906034642109"><ele>1.6666666666666665</ele><time>2026-04-12T10:32:45Z</time></trkpt><trkpt lat="44.54948600089869" lon="12.157014195021919"><ele>1.8333333333333333</ele><time>2026-04-12T10:32:47Z</time></trkpt><trkpt lat="44.549494744953854" lon="12.157107330117224"><ele>2.0</ele><time>2026-04-12T10:32:49Z</time></trkpt><trkpt lat="44.54950260728916" lon="12.157222653212864"><ele>2.0</ele><time>2026-04-12T10:32:51Z</time></trkpt><trkpt lat="44.54951248524685" lon="12.157320517931515"><ele>1.9999999999999998</ele><time>2026-04-12T10:32:53Z</time></trkpt><trkpt lat="44.54951777644324" lon="12.157417557341155"><ele>2.0</ele><time>2026-04-12T10:32:55Z</time></trkpt><trkpt lat="44.54952809303013" lon="12.157522637970734"><ele>2.0</ele><time>2026-04-12T10:32:57Z</time></trkpt><trkpt lat="44.54953429896836" lon="12.157617878618742"><ele>1.9999999999999998</ele><time>2026-04-12T10:32:59Z</time></trkpt><trkpt lat="44.54953206716642" lon="12.157711868677847"><ele>2.0</ele><time>2026-04-12T10:33:01Z</time></trkpt><trkpt lat="44.5495409737702" lon="12.157834502200533"><ele>2.0</ele><time>2026-04-12T10:33:04Z</time></trkpt><trkpt lat="44.54955621531611" lon="12.15794463007516"><ele>1.4999999999999998</ele><time>2026-04-12T10:33:07Z</time></trkpt><trkpt lat="44.549558930376634" lon="12.158051399894193"><ele>1.0</ele><time>2026-04-12T10:33:10Z</time></trkpt><trkpt lat="44.54956537679799" lon="12.158163208163288"><ele>0.5</ele><time>2026-04-12T10:33:13Z</time></trkpt><trkpt lat="44.5495729745636" lon="12.15825348931504"><ele>0.0</ele><time>2026-04-12T10:33:15Z</time></trkpt><trkpt lat="44.54958347379361" lon="12.158366268345315"><ele>-0.49999999999999994</ele><time>2026-04-12T10:33:17Z</time></trkpt><trkpt lat="44.549594319648456" lon="12.158491933091284"><ele>-1.0</ele><time>2026-04-12T10:33:19Z</time></trkpt><trkpt lat="44.54960492548376" lon="12.158601244406627"><ele>-1.1666666666666665</ele><time>2026-04-12T10:33:21Z</time></trkpt><trkpt lat="44.54961486276172" lon="12.158700670597266"><ele>-1.3333333333333333</ele><time>2026-04-12T10:33:23Z</time></trkpt><trkpt lat="44.54962146225586" lon="12.158822215730627"><ele>-1.5</ele><time>2026-04-12T10:33:25Z</time></trkpt><trkpt lat="44.54963644403016" lon="12.158941771345848"><ele>-1.6666666666666665</ele><time>2026-04-12T10:33:27Z</time></trkpt><trkpt lat="44.549643488484264" lon="12.159049662256017"><ele>-1.8333333333333333</ele><time>2026-04-12T10:33:29Z</time></trkpt><trkpt lat="44.54965170623322" lon="12.159149808361413"><ele>-2.0</ele><time>2026-04-12T10:33:31Z</time></trkpt><trkpt lat="44.5496564075326" lon="12.159247711253183"><ele>-1.6666666666666665</ele><time>2026-04-12T10:33:33Z</time></trkpt><trkpt lat="44.549671749365466" lon="12.159374352482768"><ele>-1.3333333333333333</ele><time>2026-04-12T10:33:35Z</time></trkpt><trkpt lat="44.549681636739635" lon="12.159492589858028"><ele>-1.0</ele><time>2026-04-12T10:33:37Z</time></trkpt><trkpt lat="44.54969543674024" lon="12.159608070830318"><ele>-0.6666666666666666</ele><time>2026-04-12T10:33:39Z</time></trkpt><trkpt lat="44.54970974683875" lon="12.159732607533119"><ele>-0.3333333333333333</ele><time>2026-04-12T10:33:41Z</time></trkpt><trkpt lat="44.54972527261567" lon="12.15983968901451"><ele>0.0</ele><time>2026-04-12T10:33:43Z</time></trkpt><trkpt lat="44.549737076863934" lon="12.159944110492576"><ele>0.0</ele><time>2026-04-12T10:33:45Z</time></trkpt><trkpt lat="44.549743768622164" lon="12.160062586903875"><ele>0.0</ele><time>2026-04-12T10:33:47Z</time></trkpt><trkpt lat="44.54976074968825" lon="12.16017195887453"><ele>0.0</ele><time>2026-04-12T10:33:49Z</time></trkpt><trkpt lat="44.549765137062394" lon="12.160273952498988"><ele>0.0</ele><time>2026-04-12T10:33:51Z</time></trkpt><trkpt lat="44.54977473041993" lon="12.160376183453392"><ele>0.0</ele><time>2026-04-12T10:33:53Z</time></trkpt><trkpt lat="44.54979383918281" lon="12.160476939892584"><ele>0.0</ele><time>2026-04-12T10:33:55Z</time></trkpt><trkpt lat="44.549795588679835" lon="12.160566161687289"><ele>0.0</ele><time>2026-04-12T10:33:57Z</time></trkpt><trkpt lat="44.54978784221533" lon="12.160675100417937"><ele>0.3333333333333333</ele><time>2026-04-12T10:33:59Z</time></trkpt><trkpt lat="44.54980840911965" lon="12.160791519248175"><ele>0.6666666666666666</ele><time>2026-04-12T10:34:01Z</time></trkpt><trkpt lat="44.549816758130255" lon="12.160898210627042"><ele>1.0</ele><time>2026-04-12T10:34:03Z</time></trkpt><trkpt lat="44.549832001965" lon="12.16099026494003"><ele>1.3333333333333333</ele><time>2026-04-12T10:34:05Z</time></trkpt><trkpt lat="44.549845813437464" lon="12.161115261508336"><ele>1.6666666666666665</ele><time>2026-04-12T10:34:07Z</time></trkpt><trkpt lat="44.54985719354759" lon="12.161228205445955"><ele>2.0</ele><time>2026-04-12T10:34:09Z</time></trkpt><trkpt lat="44.54986911396418" lon="12.161328670099774"><ele>2.0</ele><time>2026-04-12T10:34:11Z</time></trkpt><trkpt lat="44.54987300384996" lon="12.1614185366908"><ele>1.9999999999999998</ele><time>2026-04-12T10:34:13Z</time></trkpt><trkpt lat="44.54988507888797" lon="12.161520730622728"><ele>2.0</ele><time>2026-04-12T10:34:15Z</time></trkpt><trkpt lat="44.549890860481675" lon="12.161632910202822"><ele>2.0</ele><time>2026-04-12T10:34:17Z</time></trkpt><trkpt lat="44.549904571873526" lon="12.16174914998707"><ele>1.9999999999999998</ele><time>2026-04-12T10:34:19Z</time></trkpt><trkpt lat="44.54991156168418" lon="12.161851103366372"><ele>2.0</ele><time>2026-04-12T10:34:21Z</time></trkpt><trkpt lat="44.54991834389874" lon="12.161945155014653"><ele>2.0</ele><time>2026-04-12T10:34:23Z</time></trkpt><trkpt lat="44.54993009568979" lon="12.162099897571112"><ele>1.9999999999999998</ele><time>2026-04-12T10:34:25Z</time></trkpt><trkpt lat="44.54994433358325" lon="12.162217169616174"><ele>2.0</ele><time>2026-04-12T10:34:27Z</time></trkpt><trkpt lat="44.54994835363608" lon="12.162331139516647"><ele>2.0</ele><time>2026-04-12T10:34:29Z</time></trkpt><trkpt lat="44.549952514011515" lon="12.16244748806877"><ele>2.0</ele><time>2026-04-12T10:34:31Z</time></trkpt><trkpt lat="44.54995963552775" lon="12.162555640925946"><ele>1.9999999999999998</ele><time>2026-04-12T10:34:33Z</time></trkpt><trkpt lat="44.54996062552472" lon="12.16265292812024"><ele>2.0</ele><time>2026-04-12T10:34:35Z</time></trkpt><trkpt lat="44.549976127137896" lon="12.162752606083284"><ele>1.7142857142857142</ele><time>2026-04-12T10:34:37Z</time></trkpt><trkpt lat="44.549989749313156" lon="12.162871128503582"><ele>1.4285714285714284</ele><time>2026-04-12T10:34:39Z</time></trkpt><trkpt lat="44.54999779253968" lon="12.162975299371388"><ele>1.1428571428571428</ele><time>2026-04-12T10:34:41Z</time></trkpt><trkpt lat="44.55001430514461" lon="12.163069425993122"><ele>0.8571428571428571</ele><time>2026-04-12T10:34:43Z</time></trkpt><trkpt lat="44.55001670427449" lon="12.163169507083769"><ele>0.5714285714285714</ele><time>2026-04-12T10:34:45Z</time></trkpt><trkpt lat="44.550030768176505" lon="12.163266959601325"><ele>0.2857142857142857</ele><time>2026-04-12T10:34:47Z</time></trkpt><trkpt lat="44.55004244445901" lon="12.16337502475368"><ele>0.0</ele><time>2026-04-12T10:34:49Z</time></trkpt><trkpt lat="44.55005102297879" lon="12.163470410497059"><ele>0.0</ele><time>2026-04-12T10:34:51Z</time></trkpt><trkpt lat="44.550058054346295" lon="12.163561036778887"><ele>0.0</ele><time>2026-04-12T10:34:53Z</time></trkpt><trkpt lat="44.5500726728685" lon="12.163664471946996"><ele>0.0</ele><time>2026-04-12T10:34:55Z</time></trkpt><trkpt lat="44.5500897089052" lon="12.163785741997991"><ele>0.0</ele><time>2026-04-12T10:34:57Z</time></trkpt><trkpt lat="44.55010846067151" lon="12.163887485386786"><ele>0.0</ele><time>2026-04-12T10:34:59Z</time></trkpt><trkpt lat="44.55012203549378" lon="12.164004035882854"><ele>0.0</ele><time>2026-04-12T10:35:01Z</time></trkpt><trkpt lat="44.55013525895601" lon="12.164121267198528"><ele>0.16666666666666666</ele><time>2026-04-12T10:35:03Z</time></trkpt><trkpt lat="44.5501523865313" lon="12.16421857700485"><ele>0.3333333333333333</ele><time>2026-04-12T10:35:05Z</time></trkpt><trkpt lat="44.55016865195064" lon="12.16432196321529"><ele>0.5</ele><time>2026-04-12T10:35:07Z</time></trkpt><trkpt lat="44.55018099973452" lon="12.164436321848001"><ele>0.6666666666666666</ele><time>2026-04-12T10:35:09Z</time></trkpt><trkpt lat="44.55019681884699" lon="12.164563520390494"><ele>0.8333333333333333</ele><time>2026-04-12T10:35:11Z</time></trkpt><trkpt lat="44.55020554252877" lon="12.16469335273863"><ele>1.0</ele><time>2026-04-12T10:35:13Z</time></trkpt><trkpt lat="44.550223800591745" lon="12.164806473809273"><ele>1.0</ele><time>2026-04-12T10:35:15Z</time></trkpt><trkpt lat="44.55023557195884" lon="12.16490693087847"><ele>0.9999999999999999</ele><time>2026-04-12T10:35:17Z</time></trkpt><trkpt lat="44.55025368725623" lon="12.164998145641844"><ele>1.0</ele><time>2026-04-12T10:35:19Z</time></trkpt><trkpt lat="44.55026327081619" lon="12.165087207980502"><ele>1.0</ele><time>2026-04-12T10:35:21Z</time></trkpt><trkpt lat="44.550268560875615" lon="12.165187232272174"><ele>0.9999999999999999</ele><time>2026-04-12T10:35:23Z</time></trkpt><trkpt lat="44.55027940454486" lon="12.165281549264991"><ele>1.0</ele><time>2026-04-12T10:35:25Z</time></trkpt><trkpt lat="44.55028869049376" lon="12.165369306450707"><ele>1.0</ele><time>2026-04-12T10:35:27Z</time></trkpt><trkpt lat="44.55031078863071" lon="12.165512063685437"><ele>0.9999999999999999</ele><time>2026-04-12T10:35:30Z</time></trkpt><trkpt lat="44.55032153247888" lon="12.165633157811326"><ele>1.0</ele><time>2026-04-12T10:35:32Z</time></trkpt><trkpt lat="44.55033887656389" lon="12.16575803967164"><ele>1.0</ele><time>2026-04-12T10:35:34Z</time></trkpt><trkpt lat="44.55035017937571" lon="12.165871718587685"><ele>1.0</ele><time>2026-04-12T10:35:36Z</time></trkpt><trkpt lat="44.55035997662917" lon="12.165975303120684"><ele>0.9999999999999999</ele><time>2026-04-12T10:35:38Z</time></trkpt><trkpt lat="44.550371429554936" lon="12.166065359363348"><ele>1.0</ele><time>2026-04-12T10:35:40Z</time></trkpt><trkpt lat="44.550382025362424" lon="12.166197838874444"><ele>0.6666666666666666</ele><time>2026-04-12T10:35:43Z</time></trkpt><trkpt lat="44.55038858424764" lon="12.166304674118424"><ele>0.3333333333333333</ele><time>2026-04-12T10:35:45Z</time></trkpt><trkpt lat="44.55040178405035" lon="12.16641134579526"><ele>0.0</ele><time>2026-04-12T10:35:47Z</time></trkpt><trkpt lat="44.55041226539142" lon="12.166516305655763"><ele>-0.3333333333333333</ele><time>2026-04-12T10:35:49Z</time></trkpt><trkpt lat="44.55042197155691" lon="12.166630170963861"><ele>-0.6666666666666666</ele><time>2026-04-12T10:35:51Z</time></trkpt><trkpt lat="44.550431731523695" lon="12.166740274454561"><ele>-1.0</ele><time>2026-04-12T10:35:53Z</time></trkpt><trkpt lat="44.55044322191245" lon="12.166861479907789"><ele>-0.9999999999999999</ele><time>2026-04-12T10:35:55Z</time></trkpt><trkpt lat="44.55045236289263" lon="12.166981011609858"><ele>-1.0</ele><time>2026-04-12T10:35:57Z</time></trkpt><trkpt lat="44.55046652647846" lon="12.167086195207924"><ele>-1.0</ele><time>2026-04-12T10:35:59Z</time></trkpt><trkpt lat="44.55048276679682" lon="12.167196296392826"><ele>-1.0</ele><time>2026-04-12T10:36:01Z</time></trkpt><trkpt lat="44.5504956555426" lon="12.167306909262585"><ele>-0.9999999999999999</ele><time>2026-04-12T10:36:03Z</time></trkpt><trkpt lat="44.55050453321489" lon="12.16742076104514"><ele>-1.0</ele><time>2026-04-12T10:36:05Z</time></trkpt><trkpt lat="44.55051929700573" lon="12.167529512191361"><ele>-0.9999999999999999</ele><time>2026-04-12T10:36:07Z</time></trkpt><trkpt lat="44.55052520478298" lon="12.16764545590103"><ele>-1.0</ele><time>2026-04-12T10:36:09Z</time></trkpt><trkpt lat="44.55053883205075" lon="12.167768204217927"><ele>-1.0</ele><time>2026-04-12T10:36:11Z</time></trkpt><trkpt lat="44.550543139399196" lon="12.167890656145746"><ele>-1.0</ele><time>2026-04-12T10:36:13Z</time></trkpt><trkpt lat="44.55055675094044" lon="12.168015485151765"><ele>-0.9999999999999999</ele><time>2026-04-12T10:36:15Z</time></trkpt><trkpt lat="44.55056691373613" lon="12.168145013080977"><ele>-1.0</ele><time>2026-04-12T10:36:17Z</time></trkpt><trkpt lat="44.55058583802246" lon="12.168274150189045"><ele>-1.0</ele><time>2026-04-12T10:36:19Z</time></trkpt><trkpt lat="44.55060055574441" lon="12.168400680169345"><ele>-1.0</ele><time>2026-04-12T10:36:21Z</time></trkpt><trkpt lat="44.550609076457974" lon="12.168530436647579"><ele>-1.0</ele><time>2026-04-12T10:36:23Z</time></trkpt><trkpt lat="44.5506299899415" lon="12.168657776288821"><ele>-1.0</ele><time>2026-04-12T10:36:25Z</time></trkpt><trkpt lat="44.55063979479255" lon="12.16878213193844"><ele>-1.0</ele><time>2026-04-12T10:36:27Z</time></trkpt><trkpt lat="44.55065247697432" lon="12.168908780256205"><ele>-0.9999999999999999</ele><time>2026-04-12T10:36:29Z</time></trkpt><trkpt lat="44.55066730934025" lon="12.169037639085595"><ele>-1.0</ele><time>2026-04-12T10:36:31Z</time></trkpt><trkpt lat="44.55067103556982" lon="12.169165881017323"><ele>-1.0</ele><time>2026-04-12T10:36:33Z</time></trkpt><trkpt lat="44.55069306794902" lon="12.169277833863895"><ele>-1.0</ele><time>2026-04-12T10:36:35Z</time></trkpt><trkpt lat="44.55070231272831" lon="12.169383805619187"><ele>-0.9999999999999999</ele><time>2026-04-12T10:36:37Z</time></trkpt><trkpt lat="44.55071969243407" lon="12.169503862539152"><ele>-1.0</ele><time>2026-04-12T10:36:39Z</time></trkpt><trkpt lat="44.55073333083956" lon="12.169637679938292"><ele>-1.0</ele><time>2026-04-12T10:36:41Z</time></trkpt><trkpt lat="44.55074494245313" lon="12.169765814382922"><ele>-1.0</ele><time>2026-04-12T10:36:43Z</time></trkpt><trkpt lat="44.55075817239574" lon="12.169897520470773"><ele>-1.0</ele><time>2026-04-12T10:36:45Z</time></trkpt><trkpt lat="44.55077451894199" lon="12.170035632977571"><ele>-1.0</ele><time>2026-04-12T10:36:47Z</time></trkpt><trkpt lat="44.550790513193014" lon="12.170177392070277"><ele>-1.0</ele><time>2026-04-12T10:36:49Z</time></trkpt><trkpt lat="44.55080712627601" lon="12.170314165204463"><ele>-1.0</ele><time>2026-04-12T10:36:51Z</time></trkpt><trkpt lat="44.550819813722335" lon="12.170447724590021"><ele>-1.0</ele><time>2026-04-12T10:36:53Z</time></trkpt><trkpt lat="44.55083691043968" lon="12.170578589612594"><ele>-1.0</ele><time>2026-04-12T10:36:55Z</time></trkpt><trkpt lat="44.55085074495706" lon="12.17070604430833"><ele>-1.0</ele><time>2026-04-12T10:36:57Z</time></trkpt><trkpt lat="44.5508660114393" lon="12.170833060349802"><ele>-1.0</ele><time>2026-04-12T10:36:59Z</time></trkpt><trkpt lat="44.55087444044422" lon="12.170963584209598"><ele>-0.8</ele><time>2026-04-12T10:37:01Z</time></trkpt><trkpt lat="44.550886059586794" lon="12.171094271686114"><ele>-0.6000000000000001</ele><time>2026-04-12T10:37:03Z</time></trkpt><trkpt lat="44.55089974665789" lon="12.171223218974385"><ele>-0.4</ele><time>2026-04-12T10:37:05Z</time></trkpt><trkpt lat="44.550915194892326" lon="12.171352957193676"><ele>-0.2</ele><time>2026-04-12T10:37:07Z</time></trkpt><trkpt lat="44.55092627523104" lon="12.171476970961875"><ele>0.0</ele><time>2026-04-12T10:37:09Z</time></trkpt><trkpt lat="44.55093537304375" lon="12.171603754890102"><ele>0.0</ele><time>2026-04-12T10:37:11Z</time></trkpt><trkpt lat="44.55094611826709" lon="12.17173006634599"><ele>0.0</ele><time>2026-04-12T10:37:13Z</time></trkpt><trkpt lat="44.55095820945429" lon="12.171852672875115"><ele>0.0</ele><time>2026-04-12T10:37:15Z</time></trkpt><trkpt lat="44.550968099570284" lon="12.171964825836328"><ele>0.0</ele><time>2026-04-12T10:37:17Z</time></trkpt><trkpt lat="44.55098001766619" lon="12.172081709314094"><ele>0.0</ele><time>2026-04-12T10:37:19Z</time></trkpt><trkpt lat="44.550992971972825" lon="12.172209240033663"><ele>0.0</ele><time>2026-04-12T10:37:21Z</time></trkpt><trkpt lat="44.55099396204454" lon="12.172338402183724"><ele>0.0</ele><time>2026-04-12T10:37:23Z</time></trkpt><trkpt lat="44.551020313347976" lon="12.172460723709575"><ele>0.0</ele><time>2026-04-12T10:37:25Z</time></trkpt><trkpt lat="44.55103103210633" lon="12.172591123556348"><ele>0.0</ele><time>2026-04-12T10:37:27Z</time></trkpt><trkpt lat="44.55104357856922" lon="12.17272091183507"><ele>0.0</ele><time>2026-04-12T10:37:29Z</time></trkpt><trkpt lat="44.551054829664686" lon="12.172836899322533"><ele>0.0</ele><time>2026-04-12T10:37:31Z</time></trkpt><trkpt lat="44.55106867616385" lon="12.17295666424914"><ele>0.0</ele><time>2026-04-12T10:37:33Z</time></trkpt><trkpt lat="44.551077922020205" lon="12.173078179843763"><ele>0.0</ele><time>2026-04-12T10:37:35Z</time></trkpt><trkpt lat="44.55108606232288" lon="12.173202044324748"><ele>0.0</ele><time>2026-04-12T10:37:37Z</time></trkpt><trkpt lat="44.55109344659144" lon="12.173326652917352"><ele>0.0</ele><time>2026-04-12T10:37:39Z</time></trkpt><trkpt lat="44.55108967484903" lon="12.173415465866368"><ele>0.0</ele><time>2026-04-12T10:37:40Z</time></trkpt><trkpt lat="44.55110493750098" lon="12.173525386933107"><ele>0.0</ele><time>2026-04-12T10:37:42Z</time></trkpt><trkpt lat="44.55111828320057" lon="12.173651706578752"><ele>0.0</ele><time>2026-04-12T10:37:44Z</time></trkpt><trkpt lat="44.551129020703925" lon="12.17378936591365"><ele>0.0</ele><time>2026-04-12T10:37:46Z</time></trkpt><trkpt lat="44.55114996480957" lon="12.173941953761314"><ele>0.0</ele><time>2026-04-12T10:37:48Z</time></trkpt><trkpt lat="44.551156109430224" lon="12.174072911125618"><ele>0.0</ele><time>2026-04-12T10:37:50Z</time></trkpt><trkpt lat="44.55116594663581" lon="12.174203254632934"><ele>0.0</ele><time>2026-04-12T10:37:52Z</time></trkpt><trkpt lat="44.55117792182804" lon="12.174333359648175"><ele>0.0</ele><time>2026-04-12T10:37:54Z</time></trkpt><trkpt lat="44.55118680810007" lon="12.174466687230607"><ele>0.0</ele><time>2026-04-12T10:37:56Z</time></trkpt><trkpt lat="44.55119980158829" lon="12.17460584299172"><ele>0.0</ele><time>2026-04-12T10:37:58Z</time></trkpt><trkpt lat="44.55120806207396" lon="12.174743524036243"><ele>0.0</ele><time>2026-04-12T10:38:00Z</time></trkpt><trkpt lat="44.551215087193135" lon="12.174873592855052"><ele>0.0</ele><time>2026-04-12T10:38:02Z</time></trkpt><trkpt lat="44.55122775406203" lon="12.175011252989817"><ele>0.0</ele><time>2026-04-12T10:38:04Z</time></trkpt><trkpt lat="44.55123450809928" lon="12.175148759922898"><ele>0.0</ele><time>2026-04-12T10:38:06Z</time></trkpt><trkpt lat="44.55124984732609" lon="12.17528430559947"><ele>0.0</ele><time>2026-04-12T10:38:08Z</time></trkpt><trkpt lat="44.55126128744798" lon="12.175418473155538"><ele>0.0</ele><time>2026-04-12T10:38:10Z</time></trkpt><trkpt lat="44.551270083661976" lon="12.17555513317291"><ele>0.0</ele><time>2026-04-12T10:38:12Z</time></trkpt><trkpt lat="44.5512853712528" lon="12.175694135727442"><ele>0.0</ele><time>2026-04-12T10:38:14Z</time></trkpt><trkpt lat="44.55130029797796" lon="12.175822207818081"><ele>-0.2</ele><time>2026-04-12T10:38:16Z</time></trkpt><trkpt lat="44.55130843588346" lon="12.17595304429135"><ele>-0.4</ele><time>2026-04-12T10:38:18Z</time></trkpt><trkpt lat="44.551319561467515" lon="12.176083527117862"><ele>-0.6000000000000001</ele><time>2026-04-12T10:38:20Z</time></trkpt><trkpt lat="44.5513322572787" lon="12.176193093264605"><ele>-0.8</ele><time>2026-04-12T10:38:22Z</time></trkpt><trkpt lat="44.55134448777646" lon="12.176322864836607"><ele>-1.0</ele><time>2026-04-12T10:38:24Z</time></trkpt><trkpt lat="44.55136032454562" lon="12.176449813299755"><ele>-0.8</ele><time>2026-04-12T10:38:26Z</time></trkpt><trkpt lat="44.55136504780979" lon="12.176576568989736"><ele>-0.6000000000000001</ele><time>2026-04-12T10:38:28Z</time></trkpt><trkpt lat="44.55138163432215" lon="12.176709453880362"><ele>-0.4</ele><time>2026-04-12T10:38:30Z</time></trkpt><trkpt lat="44.551397246215906" lon="12.176844146778961"><ele>-0.2</ele><time>2026-04-12T10:38:32Z</time></trkpt><trkpt lat="44.55140816246299" lon="12.17697649551097"><ele>0.0</ele><time>2026-04-12T10:38:34Z</time></trkpt><trkpt lat="44.551423312574876" lon="12.177104576404101"><ele>0.0</ele><time>2026-04-12T10:38:36Z</time></trkpt><trkpt lat="44.55143054290379" lon="12.177235720397674"><ele>0.0</ele><time>2026-04-12T10:38:38Z</time></trkpt><trkpt lat="44.551441910575456" lon="12.177373167909215"><ele>0.0</ele><time>2026-04-12T10:38:40Z</time></trkpt><trkpt lat="44.55144932636303" lon="12.177499757574573"><ele>0.0</ele><time>2026-04-12T10:38:42Z</time></trkpt><trkpt lat="44.551467414973494" lon="12.177636855861524"><ele>0.0</ele><time>2026-04-12T10:38:44Z</time></trkpt><trkpt lat="44.55148225150788" lon="12.177765580587714"><ele>-0.2</ele><time>2026-04-12T10:38:46Z</time></trkpt><trkpt lat="44.55149427165473" lon="12.177899537934701"><ele>-0.4</ele><time>2026-04-12T10:38:48Z</time></trkpt><trkpt lat="44.55151043196955" lon="12.178032790622398"><ele>-0.6000000000000001</ele><time>2026-04-12T10:38:50Z</time></trkpt><trkpt lat="44.55152723463196" lon="12.178165733026681"><ele>-0.8</ele><time>2026-04-12T10:38:52Z</time></trkpt><trkpt lat="44.55153673146646" lon="12.178302548231041"><ele>-1.0</ele><time>2026-04-12T10:38:54Z</time></trkpt><trkpt lat="44.55155249138677" lon="12.178435134729845"><ele>-1.0</ele><time>2026-04-12T10:38:56Z</time></trkpt><trkpt lat="44.55156691836457" lon="12.178565948998"><ele>-1.0</ele><time>2026-04-12T10:38:58Z</time></trkpt><trkpt lat="44.55157803962263" lon="12.178699101380284"><ele>-1.0</ele><time>2026-04-12T10:39:00Z</time></trkpt><trkpt lat="44.55158656298962" lon="12.17883293006187"><ele>-1.0</ele><time>2026-04-12T10:39:02Z</time></trkpt><trkpt lat="44.551614512404186" lon="12.17896860396944"><ele>-1.0</ele><time>2026-04-12T10:39:04Z</time></trkpt><trkpt lat="44.55163267300731" lon="12.179103938761441"><ele>-1.0</ele><time>2026-04-12T10:39:06Z</time></trkpt><trkpt lat="44.551650361260734" lon="12.179243552235002"><ele>-1.0</ele><time>2026-04-12T10:39:08Z</time></trkpt><trkpt lat="44.55165837658068" lon="12.179382572590724"><ele>-1.0</ele><time>2026-04-12T10:39:10Z</time></trkpt><trkpt lat="44.55167268188384" lon="12.179523487119164"><ele>-1.0</ele><time>2026-04-12T10:39:12Z</time></trkpt><trkpt lat="44.551693382535134" lon="12.179661605963906"><ele>-1.0</ele><time>2026-04-12T10:39:14Z</time></trkpt><trkpt lat="44.5517085098379" lon="12.179799241062488"><ele>-1.0</ele><time>2026-04-12T10:39:16Z</time></trkpt><trkpt lat="44.551723095649194" lon="12.179933003100055"><ele>-1.0</ele><time>2026-04-12T10:39:18Z</time></trkpt><trkpt lat="44.5517392519925" lon="12.180075476588806"><ele>-1.0</ele><time>2026-04-12T10:39:20Z</time></trkpt><trkpt lat="44.55175605940638" lon="12.180217409874059"><ele>-1.0</ele><time>2026-04-12T10:39:22Z</time></trkpt><trkpt lat="44.551773640160974" lon="12.180368432922748"><ele>-1.0</ele><time>2026-04-12T10:39:24Z</time></trkpt><trkpt lat="44.55178457850073" lon="12.180502626616901"><ele>-1.0</ele><time>2026-04-12T10:39:26Z</time></trkpt><trkpt lat="44.55180248068497" lon="12.180637722056426"><ele>-1.0</ele><time>2026-04-12T10:39:28Z</time></trkpt><trkpt lat="44.55181465021342" lon="12.18077442544793"><ele>-1.0</ele><time>2026-04-12T10:39:30Z</time></trkpt><trkpt lat="44.5518232545212" lon="12.180904763241411"><ele>-1.0</ele><time>2026-04-12T10:39:32Z</time></trkpt><trkpt lat="44.55183950124382" lon="12.181047690004377"><ele>-1.0</ele><time>2026-04-12T10:39:34Z</time></trkpt><trkpt lat="44.551855500283544" lon="12.181187028135488"><ele>-1.0</ele><time>2026-04-12T10:39:36Z</time></trkpt><trkpt lat="44.551865888246155" lon="12.18132746655139"><ele>-1.0</ele><time>2026-04-12T10:39:38Z</time></trkpt><trkpt lat="44.55188115943261" lon="12.181468077965334"><ele>-1.0</ele><time>2026-04-12T10:39:40Z</time></trkpt><trkpt lat="44.55189737176602" lon="12.181613791847573"><ele>-1.0</ele><time>2026-04-12T10:39:42Z</time></trkpt><trkpt lat="44.55191416526126" lon="12.181757999569127"><ele>-1.0</ele><time>2026-04-12T10:39:44Z</time></trkpt><trkpt lat="44.55192698715432" lon="12.181899193285407"><ele>-1.0</ele><time>2026-04-12T10:39:46Z</time></trkpt><trkpt lat="44.55193774941406" lon="12.182042872205223"><ele>-1.0</ele><time>2026-04-12T10:39:48Z</time></trkpt><trkpt lat="44.551955640211276" lon="12.182188953884465"><ele>-1.0</ele><time>2026-04-12T10:39:50Z</time></trkpt><trkpt lat="44.55196632305832" lon="12.182335327045896"><ele>-1.0</ele><time>2026-04-12T10:39:52Z</time></trkpt><trkpt lat="44.55199139369837" lon="12.182478460953908"><ele>-1.0</ele><time>2026-04-12T10:39:54Z</time></trkpt><trkpt lat="44.55199912145191" lon="12.182621577765772"><ele>-1.0</ele><time>2026-04-12T10:39:56Z</time></trkpt><trkpt lat="44.55200998498862" lon="12.182761630737765"><ele>-1.0</ele><time>2026-04-12T10:39:58Z</time></trkpt><trkpt lat="44.55202867829857" lon="12.182898842603969"><ele>-1.0</ele><time>2026-04-12T10:40:00Z</time></trkpt><trkpt lat="44.55204043075679" lon="12.183035313598364"><ele>-1.0</ele><time>2026-04-12T10:40:02Z</time></trkpt><trkpt lat="44.55205938879927" lon="12.183174580318552"><ele>-1.0</ele><time>2026-04-12T10:40:04Z</time></trkpt><trkpt lat="44.55207884366895" lon="12.183311935945898"><ele>-1.0</ele><time>2026-04-12T10:40:06Z</time></trkpt><trkpt lat="44.5520949071494" lon="12.183448159963685"><ele>-1.0</ele><time>2026-04-12T10:40:08Z</time></trkpt><trkpt lat="44.55211077897836" lon="12.183582181643542"><ele>-1.0</ele><time>2026-04-12T10:40:10Z</time></trkpt><trkpt lat="44.55212742196712" lon="12.183707867404424"><ele>-1.0</ele><time>2026-04-12T10:40:12Z</time></trkpt><trkpt lat="44.55214075854155" lon="12.183833809895456"><ele>-1.0</ele><time>2026-04-12T10:40:14Z</time></trkpt><trkpt lat="44.55216171911334" lon="12.183967948533754"><ele>-0.8</ele><time>2026-04-12T10:40:16Z</time></trkpt><trkpt lat="44.55217898764084" lon="12.184106727086645"><ele>-0.6000000000000001</ele><time>2026-04-12T10:40:18Z</time></trkpt><trkpt lat="44.55219755766057" lon="12.184244353701898"><ele>-0.4</ele><time>2026-04-12T10:40:20Z</time></trkpt><trkpt lat="44.55221093548555" lon="12.184383161184"><ele>-0.2</ele><time>2026-04-12T10:40:22Z</time></trkpt><trkpt lat="44.55222938763566" lon="12.18452074974842"><ele>0.0</ele><time>2026-04-12T10:40:24Z</time></trkpt><trkpt lat="44.5522491177842" lon="12.184661769774488"><ele>0.0</ele><time>2026-04-12T10:40:26Z</time></trkpt><trkpt lat="44.55226491178857" lon="12.184800113643368"><ele>0.0</ele><time>2026-04-12T10:40:28Z</time></trkpt><trkpt lat="44.552281542804685" lon="12.184935287490122"><ele>0.0</ele><time>2026-04-12T10:40:30Z</time></trkpt><trkpt lat="44.552300043568955" lon="12.185049215556182"><ele>0.0</ele><time>2026-04-12T10:40:32Z</time></trkpt><trkpt lat="44.55231597404129" lon="12.185161725487001"><ele>0.0</ele><time>2026-04-12T10:40:34Z</time></trkpt><trkpt lat="44.552327869803875" lon="12.185276259375602"><ele>0.0</ele><time>2026-04-12T10:40:36Z</time></trkpt><trkpt lat="44.55234332356835" lon="12.18538733581959"><ele>0.0</ele><time>2026-04-12T10:40:38Z</time></trkpt><trkpt lat="44.552360018585766" lon="12.185480603126885"><ele>0.0</ele><time>2026-04-12T10:40:40Z</time></trkpt><trkpt lat="44.55237649928163" lon="12.185599603431829"><ele>0.0</ele><time>2026-04-12T10:40:43Z</time></trkpt><trkpt lat="44.55238480747899" lon="12.185715017700304"><ele>0.0</ele><time>2026-04-12T10:40:46Z</time></trkpt><trkpt lat="44.55239929465446" lon="12.185829861568822"><ele>0.0</ele><time>2026-04-12T10:40:49Z</time></trkpt><trkpt lat="44.55241872172507" lon="12.185942427938715"><ele>0.0</ele><time>2026-04-12T10:40:52Z</time></trkpt><trkpt lat="44.552431797701" lon="12.186072893084082"><ele>0.0</ele><time>2026-04-12T10:40:55Z</time></trkpt><trkpt lat="44.55245302793468" lon="12.186195318166687"><ele>0.0</ele><time>2026-04-12T10:40:58Z</time></trkpt><trkpt lat="44.55246325796407" lon="12.186306571803641"><ele>0.0</ele><time>2026-04-12T10:41:01Z</time></trkpt><trkpt lat="44.5524826390501" lon="12.186420834481137"><ele>0.0</ele><time>2026-04-12T10:41:04Z</time></trkpt><trkpt lat="44.55250047450557" lon="12.186552572243954"><ele>0.0</ele><time>2026-04-12T10:41:07Z</time></trkpt><trkpt lat="44.55251109531591" lon="12.18664898476609"><ele>0.0</ele><time>2026-04-12T10:41:09Z</time></trkpt><trkpt lat="44.5525294792665" lon="12.18677202223246"><ele>0.0</ele><time>2026-04-12T10:41:12Z</time></trkpt><trkpt lat="44.55255081876643" lon="12.1868914778491"><ele>0.0</ele><time>2026-04-12T10:41:15Z</time></trkpt><trkpt lat="44.55257380114357" lon="12.187009543345445"><ele>0.0</ele><time>2026-04-12T10:41:18Z</time></trkpt><trkpt lat="44.55258812463389" lon="12.18711844064635"><ele>0.0</ele><time>2026-04-12T10:41:20Z</time></trkpt><trkpt lat="44.55260859514881" lon="12.187219281619424"><ele>0.0</ele><time>2026-04-12T10:41:22Z</time></trkpt><trkpt lat="44.55262345409141" lon="12.187313999096453"><ele>0.0</ele><time>2026-04-12T10:41:24Z</time></trkpt><trkpt lat="44.55265012586101" lon="12.187429876589919"><ele>0.16666666666666666</ele><time>2026-04-12T10:41:27Z</time></trkpt><trkpt lat="44.552669640858014" lon="12.187531678746788"><ele>0.3333333333333333</ele><time>2026-04-12T10:41:30Z</time></trkpt><trkpt lat="44.552701686169485" lon="12.187655454087826"><ele>0.5</ele><time>2026-04-12T10:41:33Z</time></trkpt><trkpt lat="44.5527281417656" lon="12.187761407980076"><ele>0.6666666666666666</ele><time>2026-04-12T10:41:35Z</time></trkpt><trkpt lat="44.552749923427626" lon="12.187866747136356"><ele>0.8333333333333333</ele><time>2026-04-12T10:41:37Z</time></trkpt><trkpt lat="44.55277694763093" lon="12.187954045694733"><ele>1.0</ele><time>2026-04-12T10:41:39Z</time></trkpt><trkpt lat="44.55280172706937" lon="12.188037585016756"><ele>0.9999999999999999</ele><time>2026-04-12T10:41:41Z</time></trkpt><trkpt lat="44.55282529980954" lon="12.188130927185094"><ele>1.0</ele><time>2026-04-12T10:41:43Z</time></trkpt><trkpt lat="44.552860818101784" lon="12.188239183799803"><ele>1.0</ele><time>2026-04-12T10:41:46Z</time></trkpt><trkpt lat="44.552882494462914" lon="12.188335478375986"><ele>1.0</ele><time>2026-04-12T10:41:49Z</time></trkpt><trkpt lat="44.5529131114027" lon="12.188419171078017"><ele>0.9999999999999999</ele><time>2026-04-12T10:43:09Z</time></trkpt><trkpt lat="44.552942950728294" lon="12.188507938163909"><ele>1.0</ele><time>2026-04-12T10:43:12Z</time></trkpt><trkpt lat="44.552979520436764" lon="12.188621713842473"><ele>0.8571428571428571</ele><time>2026-04-12T10:43:15Z</time></trkpt><trkpt lat="44.55300153489287" lon="12.188708865414887"><ele>0.7142857142857142</ele><time>2026-04-12T10:43:17Z</time></trkpt><trkpt lat="44.55302983076707" lon="12.188794961242385"><ele>0.5714285714285714</ele><time>2026-04-12T10:43:19Z</time></trkpt><trkpt lat="44.55306187698973" lon="12.1888905234415"><ele>0.42857142857142855</ele><time>2026-04-12T10:43:21Z</time></trkpt><trkpt lat="44.55308372642788" lon="12.188979022146512"><ele>0.2857142857142857</ele><time>2026-04-12T10:43:23Z</time></trkpt><trkpt lat="44.553119284012354" lon="12.18908269215719"><ele>0.14285714285714285</ele><time>2026-04-12T10:43:25Z</time></trkpt><trkpt lat="44.55315017756476" lon="12.189185214538572"><ele>0.0</ele><time>2026-04-12T10:43:27Z</time></trkpt><trkpt lat="44.55317810947592" lon="12.189293745467133"><ele>0.0</ele><time>2026-04-12T10:43:29Z</time></trkpt><trkpt lat="44.55321113901905" lon="12.189400416656303"><ele>0.0</ele><time>2026-04-12T10:43:31Z</time></trkpt><trkpt lat="44.55324222950596" lon="12.189508656918575"><ele>0.0</ele><time>2026-04-12T10:43:33Z</time></trkpt><trkpt lat="44.553268684456896" lon="12.189616079927097"><ele>0.0</ele><time>2026-04-12T10:43:35Z</time></trkpt><trkpt lat="44.55329875722138" lon="12.189727254065927"><ele>0.0</ele><time>2026-04-12T10:43:37Z</time></trkpt><trkpt lat="44.5533230327481" lon="12.189840560520189"><ele>0.0</ele><time>2026-04-12T10:43:39Z</time></trkpt><trkpt lat="44.55335805040299" lon="12.189953545218849"><ele>0.0</ele><time>2026-04-12T10:43:41Z</time></trkpt><trkpt lat="44.553388758079734" lon="12.190075818620263"><ele>0.0</ele><time>2026-04-12T10:43:43Z</time></trkpt><trkpt lat="44.553411143868935" lon="12.190207545763679"><ele>0.0</ele><time>2026-04-12T10:43:45Z</time></trkpt><trkpt lat="44.55344861230817" lon="12.190320086223862"><ele>0.0</ele><time>2026-04-12T10:43:47Z</time></trkpt><trkpt lat="44.553478905390186" lon="12.190438350738079"><ele>0.0</ele><time>2026-04-12T10:43:49Z</time></trkpt><trkpt lat="44.55350495405076" lon="12.190554939505027"><ele>0.2</ele><time>2026-04-12T10:43:51Z</time></trkpt><trkpt lat="44.553540770285174" lon="12.190677794192817"><ele>0.4</ele><time>2026-04-12T10:43:53Z</time></trkpt><trkpt lat="44.55357304984086" lon="12.190798975832717"><ele>0.6000000000000001</ele><time>2026-04-12T10:43:55Z</time></trkpt><trkpt lat="44.55360715603634" lon="12.190913349528259"><ele>0.8</ele><time>2026-04-12T10:43:57Z</time></trkpt><trkpt lat="44.553639409209964" lon="12.191034733950636"><ele>1.0</ele><time>2026-04-12T10:43:59Z</time></trkpt><trkpt lat="44.553671240404896" lon="12.191156091960645"><ele>0.8</ele><time>2026-04-12T10:44:01Z</time></trkpt><trkpt lat="44.55370603388458" lon="12.191278920214538"><ele>0.6000000000000001</ele><time>2026-04-12T10:44:03Z</time></trkpt><trkpt lat="44.55374185948154" lon="12.191402155402105"><ele>0.4</ele><time>2026-04-12T10:44:05Z</time></trkpt><trkpt lat="44.55378551728753" lon="12.191530289583477"><ele>0.2</ele><time>2026-04-12T10:44:07Z</time></trkpt><trkpt lat="44.553812673509924" lon="12.191644093426909"><ele>0.0</ele><time>2026-04-12T10:44:09Z</time></trkpt><trkpt lat="44.553847869783205" lon="12.19176652497559"><ele>0.0</ele><time>2026-04-12T10:44:11Z</time></trkpt><trkpt lat="44.553883782148425" lon="12.191891319371404"><ele>0.0</ele><time>2026-04-12T10:44:13Z</time></trkpt><trkpt lat="44.5539256611445" lon="12.192015954208891"><ele>0.0</ele><time>2026-04-12T10:44:15Z</time></trkpt><trkpt lat="44.55396215016557" lon="12.19214513829663"><ele>0.0</ele><time>2026-04-12T10:44:17Z</time></trkpt><trkpt lat="44.554002250721034" lon="12.192273571929007"><ele>0.0</ele><time>2026-04-12T10:44:19Z</time></trkpt><trkpt lat="44.55404103137323" lon="12.19239644726739"><ele>0.4</ele><time>2026-04-12T10:44:21Z</time></trkpt><trkpt lat="44.55407195924799" lon="12.19250222067738"><ele>0.8</ele><time>2026-04-12T10:44:23Z</time></trkpt><trkpt lat="44.554117258369736" lon="12.192632502553918"><ele>1.2000000000000002</ele><time>2026-04-12T10:44:25Z</time></trkpt><trkpt lat="44.55415716185165" lon="12.192754066661655"><ele>1.6</ele><time>2026-04-12T10:44:27Z</time></trkpt><trkpt lat="44.55419829907856" lon="12.19287637154"><ele>2.0</ele><time>2026-04-12T10:44:29Z</time></trkpt><trkpt lat="44.55423764700674" lon="12.192991437245817"><ele>2.0</ele><time>2026-04-12T10:44:31Z</time></trkpt><trkpt lat="44.554279488781084" lon="12.193102667747514"><ele>2.0</ele><time>2026-04-12T10:44:33Z</time></trkpt><trkpt lat="44.5543094076486" lon="12.193217119718451"><ele>2.0</ele><time>2026-04-12T10:44:35Z</time></trkpt><trkpt lat="44.55436016067258" lon="12.193329112703974"><ele>2.0</ele><time>2026-04-12T10:44:37Z</time></trkpt><trkpt lat="44.554402322627624" lon="12.193443423525084"><ele>2.0</ele><time>2026-04-12T10:44:39Z</time></trkpt><trkpt lat="44.55444257431063" lon="12.193560306664196"><ele>1.8333333333333333</ele><time>2026-04-12T10:44:41Z</time></trkpt><trkpt lat="44.55448466329856" lon="12.193675255741018"><ele>1.6666666666666665</ele><time>2026-04-12T10:44:43Z</time></trkpt><trkpt lat="44.55452401900007" lon="12.193773896614196"><ele>1.5</ele><time>2026-04-12T10:44:45Z</time></trkpt><trkpt lat="44.554556616922845" lon="12.193886753377186"><ele>1.3333333333333333</ele><time>2026-04-12T10:44:47Z</time></trkpt><trkpt lat="44.5545993036541" lon="12.193993404107651"><ele>1.1666666666666665</ele><time>2026-04-12T10:44:49Z</time></trkpt><trkpt lat="44.554641653347986" lon="12.194100136000166"><ele>1.0</ele><time>2026-04-12T10:44:51Z</time></trkpt><trkpt lat="44.55468327500395" lon="12.194208628486573"><ele>0.6000000000000001</ele><time>2026-04-12T10:44:53Z</time></trkpt><trkpt lat="44.554717498568834" lon="12.194319958902105"><ele>0.20000000000000007</ele><time>2026-04-12T10:44:55Z</time></trkpt><trkpt lat="44.55476091206045" lon="12.194431538265945"><ele>-0.20000000000000007</ele><time>2026-04-12T10:44:57Z</time></trkpt><trkpt lat="44.55480628023496" lon="12.194543598029028"><ele>-0.6000000000000001</ele><time>2026-04-12T10:44:59Z</time></trkpt><trkpt lat="44.55486026054855" lon="12.19467040710562"><ele>-1.0</ele><time>2026-04-12T10:45:01Z</time></trkpt><trkpt lat="44.55489436717173" lon="12.194771907783172"><ele>-0.9999999999999999</ele><time>2026-04-12T10:45:03Z</time></trkpt><trkpt lat="44.554936706264265" lon="12.194876883622653"><ele>-1.0</ele><time>2026-04-12T10:45:05Z</time></trkpt><trkpt lat="44.55497403198883" lon="12.19498955415526"><ele>-1.0</ele><time>2026-04-12T10:45:07Z</time></trkpt><trkpt lat="44.555016362047475" lon="12.195087140916733"><ele>-1.0</ele><time>2026-04-12T10:45:09Z</time></trkpt><trkpt lat="44.55505552558672" lon="12.195187048494747"><ele>-0.9999999999999999</ele><time>2026-04-12T10:45:11Z</time></trkpt><trkpt lat="44.55509334811203" lon="12.195283757983965"><ele>-1.0</ele><time>2026-04-12T10:45:13Z</time></trkpt><trkpt lat="44.55512604106069" lon="12.19538659601389"><ele>-0.9999999999999999</ele><time>2026-04-12T10:45:15Z</time></trkpt><trkpt lat="44.555169152389276" lon="12.195477615411765"><ele>-1.0</ele><time>2026-04-12T10:45:17Z</time></trkpt><trkpt lat="44.55521421903788" lon="12.195566854750696"><ele>-1.0</ele><time>2026-04-12T10:45:19Z</time></trkpt><trkpt lat="44.55525784884709" lon="12.19566651792977"><ele>-1.0</ele><time>2026-04-12T10:45:21Z</time></trkpt><trkpt lat="44.55530449799244" lon="12.19576241183272"><ele>-0.9999999999999999</ele><time>2026-04-12T10:45:23Z</time></trkpt><trkpt lat="44.55535809953596" lon="12.195852958130404"><ele>-1.0</ele><time>2026-04-12T10:45:25Z</time></trkpt><trkpt lat="44.55541194600628" lon="12.195944246033136"><ele>-1.1666666666666665</ele><time>2026-04-12T10:45:27Z</time></trkpt><trkpt lat="44.555476725279306" lon="12.196031958675915"><ele>-1.3333333333333333</ele><time>2026-04-12T10:45:29Z</time></trkpt><trkpt lat="44.555524858655744" lon="12.196123154272913"><ele>-1.5</ele><time>2026-04-12T10:45:31Z</time></trkpt><trkpt lat="44.55557721031332" lon="12.196211484492917"><ele>-1.6666666666666665</ele><time>2026-04-12T10:45:33Z</time></trkpt><trkpt lat="44.555630502439904" lon="12.196302667168819"><ele>-1.8333333333333333</ele><time>2026-04-12T10:45:35Z</time></trkpt><trkpt lat="44.55568282101889" lon="12.196392943199502"><ele>-2.0</ele><time>2026-04-12T10:45:37Z</time></trkpt><trkpt lat="44.55573348538087" lon="12.1964863229532"><ele>-1.6666666666666665</ele><time>2026-04-12T10:45:39Z</time></trkpt><trkpt lat="44.55578458327632" lon="12.196580149720285"><ele>-1.3333333333333333</ele><time>2026-04-12T10:45:41Z</time></trkpt><trkpt lat="44.555839802654624" lon="12.196667172697433"><ele>-1.0</ele><time>2026-04-12T10:45:43Z</time></trkpt><trkpt lat="44.555886875763676" lon="12.196768623591307"><ele>-0.6666666666666666</ele><time>2026-04-12T10:45:45Z</time></trkpt><trkpt lat="44.555937843305735" lon="12.196848416725432"><ele>-0.3333333333333333</ele><time>2026-04-12T10:45:47Z</time></trkpt><trkpt lat="44.555986749860956" lon="12.196934321518222"><ele>0.0</ele><time>2026-04-12T10:45:49Z</time></trkpt><trkpt lat="44.55604044645745" lon="12.197011624630075"><ele>0.0</ele><time>2026-04-12T10:45:51Z</time></trkpt><trkpt lat="44.55608498100722" lon="12.197104150829228"><ele>0.0</ele><time>2026-04-12T10:45:53Z</time></trkpt><trkpt lat="44.55614076785171" lon="12.197185442761757"><ele>0.0</ele><time>2026-04-12T10:45:55Z</time></trkpt><trkpt lat="44.556191200890616" lon="12.19727364204089"><ele>0.0</ele><time>2026-04-12T10:45:57Z</time></trkpt><trkpt lat="44.556246345994786" lon="12.197367790235473"><ele>0.0</ele><time>2026-04-12T10:45:59Z</time></trkpt><trkpt lat="44.556298001335755" lon="12.197454211798963"><ele>0.0</ele><time>2026-04-12T10:46:01Z</time></trkpt><trkpt lat="44.556344967114285" lon="12.197537487675843"><ele>0.0</ele><time>2026-04-12T10:46:03Z</time></trkpt><trkpt lat="44.55639379532224" lon="12.197618670952496"><ele>0.0</ele><time>2026-04-12T10:46:05Z</time></trkpt><trkpt lat="44.55644566585156" lon="12.197696036751525"><ele>0.0</ele><time>2026-04-12T10:46:07Z</time></trkpt><trkpt lat="44.55649942144545" lon="12.197786705511328"><ele>0.0</ele><time>2026-04-12T10:46:09Z</time></trkpt><trkpt lat="44.55656720575225" lon="12.197890178857605"><ele>0.0</ele><time>2026-04-12T10:46:11Z</time></trkpt><trkpt lat="44.556625966994204" lon="12.197992444431192"><ele>0.0</ele><time>2026-04-12T10:46:13Z</time></trkpt><trkpt lat="44.556680538303446" lon="12.198075617437343"><ele>0.0</ele><time>2026-04-12T10:46:15Z</time></trkpt><trkpt lat="44.5567359641295" lon="12.198167481702567"><ele>0.0</ele><time>2026-04-12T10:46:17Z</time></trkpt><trkpt lat="44.556801691725376" lon="12.19826984554844"><ele>0.0</ele><time>2026-04-12T10:46:19Z</time></trkpt><trkpt lat="44.556868854250176" lon="12.19838393478252"><ele>0.0</ele><time>2026-04-12T10:46:21Z</time></trkpt><trkpt lat="44.556930713618605" lon="12.198470230670942"><ele>0.0</ele><time>2026-04-12T10:46:23Z</time></trkpt><trkpt lat="44.55698021131142" lon="12.198553038979213"><ele>0.0</ele><time>2026-04-12T10:46:25Z</time></trkpt><trkpt lat="44.557036621558616" lon="12.198627288350846"><ele>0.0</ele><time>2026-04-12T10:46:27Z</time></trkpt><trkpt lat="44.55707606746974" lon="12.198709942209295"><ele>0.0</ele><time>2026-04-12T10:46:29Z</time></trkpt><trkpt lat="44.55711456784869" lon="12.198797335090953"><ele>0.0</ele><time>2026-04-12T10:46:31Z</time></trkpt><trkpt lat="44.55717513365786" lon="12.198878453111718"><ele>0.0</ele><time>2026-04-12T10:46:33Z</time></trkpt><trkpt lat="44.557236583154456" lon="12.19898496789318"><ele>0.0</ele><time>2026-04-12T10:46:35Z</time></trkpt><trkpt lat="44.55729596555274" lon="12.199072793165017"><ele>0.0</ele><time>2026-04-12T10:46:37Z</time></trkpt><trkpt lat="44.55735066328791" lon="12.19914567917769"><ele>0.0</ele><time>2026-04-12T10:46:39Z</time></trkpt><trkpt lat="44.557401026677674" lon="12.199245394911603"><ele>0.0</ele><time>2026-04-12T10:46:41Z</time></trkpt><trkpt lat="44.55747601893697" lon="12.199355964416661"><ele>0.0</ele><time>2026-04-12T10:46:43Z</time></trkpt><trkpt lat="44.55753777915688" lon="12.199447528564175"><ele>0.0</ele><time>2026-04-12T10:46:45Z</time></trkpt><trkpt lat="44.5575874688048" lon="12.199530511615414"><ele>0.0</ele><time>2026-04-12T10:46:47Z</time></trkpt><trkpt lat="44.5576366860975" lon="12.199611987052176"><ele>0.0</ele><time>2026-04-12T10:46:49Z</time></trkpt><trkpt lat="44.55769125252153" lon="12.19969965667203"><ele>0.0</ele><time>2026-04-12T10:46:51Z</time></trkpt><trkpt lat="44.5577491223192" lon="12.1998073729689"><ele>0.0</ele><time>2026-04-12T10:46:53Z</time></trkpt><trkpt lat="44.5578254902145" lon="12.199900545711"><ele>0.0</ele><time>2026-04-12T10:46:55Z</time></trkpt><trkpt lat="44.557873956072015" lon="12.200012454366611"><ele>0.0</ele><time>2026-04-12T10:46:57Z</time></trkpt><trkpt lat="44.5579362045089" lon="12.20008882312834"><ele>0.0</ele><time>2026-04-12T10:46:59Z</time></trkpt><trkpt lat="44.55798334064558" lon="12.200168944684966"><ele>0.0</ele><time>2026-04-12T10:47:01Z</time></trkpt><trkpt lat="44.55803540224467" lon="12.200249119114284"><ele>0.0</ele><time>2026-04-12T10:47:03Z</time></trkpt><trkpt lat="44.558088278128956" lon="12.200343908842255"><ele>0.0</ele><time>2026-04-12T10:47:05Z</time></trkpt><trkpt lat="44.5581449896912" lon="12.200422305391088"><ele>0.0</ele><time>2026-04-12T10:47:07Z</time></trkpt><trkpt lat="44.558206989491175" lon="12.20051299150611"><ele>0.0</ele><time>2026-04-12T10:47:09Z</time></trkpt><trkpt lat="44.55828942977911" lon="12.200629086168373"><ele>0.0</ele><time>2026-04-12T10:47:11Z</time></trkpt><trkpt lat="44.55834146828746" lon="12.200719079127058"><ele>0.0</ele><time>2026-04-12T10:47:13Z</time></trkpt><trkpt lat="44.558400119998375" lon="12.20079792924811"><ele>0.0</ele><time>2026-04-12T10:47:15Z</time></trkpt><trkpt lat="44.558448752315435" lon="12.200876273520999"><ele>0.0</ele><time>2026-04-12T10:47:17Z</time></trkpt><trkpt lat="44.55848843547208" lon="12.2009476958395"><ele>0.0</ele><time>2026-04-12T10:47:19Z</time></trkpt><trkpt lat="44.5585457396978" lon="12.201039449573651"><ele>0.0</ele><time>2026-04-12T10:47:22Z</time></trkpt><trkpt lat="44.55859726971907" lon="12.201120367139254"><ele>0.0</ele><time>2026-04-12T10:47:25Z</time></trkpt><trkpt lat="44.55864209382195" lon="12.201182974948669"><ele>0.0</ele><time>2026-04-12T10:48:46Z</time></trkpt><trkpt lat="44.558679823709106" lon="12.201254208175703"><ele>0.0</ele><time>2026-04-12T10:48:49Z</time></trkpt><trkpt lat="44.5587438651445" lon="12.201348251905364"><ele>0.0</ele><time>2026-04-12T10:48:52Z</time></trkpt><trkpt lat="44.55878793087723" lon="12.201411598319824"><ele>0.0</ele><time>2026-04-12T10:48:54Z</time></trkpt><trkpt lat="44.558829964855526" lon="12.20147778944733"><ele>0.0</ele><time>2026-04-12T10:48:56Z</time></trkpt><trkpt lat="44.55887680048451" lon="12.201557513689444"><ele>0.0</ele><time>2026-04-12T10:48:58Z</time></trkpt><trkpt lat="44.55892296239401" lon="12.201629880368289"><ele>0.0</ele><time>2026-04-12T10:49:00Z</time></trkpt><trkpt lat="44.55897478169829" lon="12.201698963110939"><ele>0.0</ele><time>2026-04-12T10:49:02Z</time></trkpt><trkpt lat="44.55902593367124" lon="12.201774616247135"><ele>0.0</ele><time>2026-04-12T10:49:04Z</time></trkpt><trkpt lat="44.55907322606228" lon="12.201849990750805"><ele>0.0</ele><time>2026-04-12T10:49:06Z</time></trkpt><trkpt lat="44.55912224010823" lon="12.201925821491464"><ele>0.0</ele><time>2026-04-12T10:49:08Z</time></trkpt><trkpt lat="44.55916991846758" lon="12.20200940665856"><ele>0.0</ele><time>2026-04-12T10:49:10Z</time></trkpt><trkpt lat="44.55922530369544" lon="12.202086712392715"><ele>0.0</ele><time>2026-04-12T10:49:12Z</time></trkpt><trkpt lat="44.559277202542404" lon="12.202160990310214"><ele>0.0</ele><time>2026-04-12T10:49:14Z</time></trkpt><trkpt lat="44.5593258098915" lon="12.202237766330233"><ele>0.0</ele><time>2026-04-12T10:49:16Z</time></trkpt><trkpt lat="44.559370022140364" lon="12.202312749546802"><ele>0.0</ele><time>2026-04-12T10:49:18Z</time></trkpt><trkpt lat="44.55942657823811" lon="12.202383921027304"><ele>0.0</ele><time>2026-04-12T10:49:20Z</time></trkpt><trkpt lat="44.559476571564055" lon="12.202453516885871"><ele>0.0</ele><time>2026-04-12T10:49:22Z</time></trkpt><trkpt lat="44.55952214264274" lon="12.202527007691549"><ele>0.0</ele><time>2026-04-12T10:49:24Z</time></trkpt><trkpt lat="44.55958665208428" lon="12.202620003161487"><ele>-0.2857142857142857</ele><time>2026-04-12T10:49:27Z</time></trkpt><trkpt lat="44.55963258652661" lon="12.202686853939818"><ele>-0.5714285714285714</ele><time>2026-04-12T10:49:29Z</time></trkpt><trkpt lat="44.559677828087366" lon="12.202759559944463"><ele>-0.8571428571428571</ele><time>2026-04-12T10:49:31Z</time></trkpt><trkpt lat="44.55973105495188" lon="12.202827905546457"><ele>-1.1428571428571428</ele><time>2026-04-12T10:49:33Z</time></trkpt><trkpt lat="44.55978016171537" lon="12.202899772388713"><ele>-1.4285714285714284</ele><time>2026-04-12T10:49:35Z</time></trkpt><trkpt lat="44.559828436314106" lon="12.202974012963047"><ele>-1.7142857142857142</ele><time>2026-04-12T10:49:37Z</time></trkpt><trkpt lat="44.55987871362783" lon="12.20304489872199"><ele>-2.0</ele><time>2026-04-12T10:49:39Z</time></trkpt><trkpt lat="44.55992607216112" lon="12.203118078215828"><ele>-1.857142857142857</ele><time>2026-04-12T10:49:41Z</time></trkpt><trkpt lat="44.559979374292816" lon="12.20318709828096"><ele>-1.714285714285714</ele><time>2026-04-12T10:49:43Z</time></trkpt><trkpt lat="44.56002810621459" lon="12.20326449077105"><ele>-1.5714285714285714</ele><time>2026-04-12T10:49:45Z</time></trkpt><trkpt lat="44.56007207827009" lon="12.20333396386422"><ele>-1.4285714285714284</ele><time>2026-04-12T10:49:47Z</time></trkpt><trkpt lat="44.56012252256798" lon="12.203409452297938"><ele>-1.2857142857142856</ele><time>2026-04-12T10:49:49Z</time></trkpt><trkpt lat="44.560172709750404" lon="12.203493249851217"><ele>-1.1428571428571428</ele><time>2026-04-12T10:49:51Z</time></trkpt><trkpt lat="44.56022627540969" lon="12.203566415519774"><ele>-1.0</ele><time>2026-04-12T10:49:53Z</time></trkpt><trkpt lat="44.56027993248966" lon="12.203643588143393"><ele>-0.9999999999999999</ele><time>2026-04-12T10:49:55Z</time></trkpt><trkpt lat="44.560329327461524" lon="12.203726934576327"><ele>-1.0</ele><time>2026-04-12T10:49:57Z</time></trkpt><trkpt lat="44.56038125034989" lon="12.2038073254078"><ele>-1.0</ele><time>2026-04-12T10:49:59Z</time></trkpt><trkpt lat="44.560435308217734" lon="12.203888360121827"><ele>-1.0</ele><time>2026-04-12T10:50:01Z</time></trkpt><trkpt lat="44.560492932129954" lon="12.203965633066552"><ele>-0.9999999999999999</ele><time>2026-04-12T10:50:03Z</time></trkpt><trkpt lat="44.56054424036944" lon="12.20404977542484"><ele>-1.0</ele><time>2026-04-12T10:50:05Z</time></trkpt><trkpt lat="44.56059711783634" lon="12.204133741361492"><ele>-0.6666666666666666</ele><time>2026-04-12T10:50:07Z</time></trkpt><trkpt lat="44.56064996654261" lon="12.204216751921358"><ele>-0.3333333333333333</ele><time>2026-04-12T10:50:09Z</time></trkpt><trkpt lat="44.56070387620625" lon="12.204295973384495"><ele>0.0</ele><time>2026-04-12T10:50:11Z</time></trkpt><trkpt lat="44.5607608385527" lon="12.204374313638557"><ele>0.3333333333333333</ele><time>2026-04-12T10:50:13Z</time></trkpt><trkpt lat="44.560818803703626" lon="12.20445039231748"><ele>0.6666666666666666</ele><time>2026-04-12T10:50:15Z</time></trkpt><trkpt lat="44.56087569511059" lon="12.204516354657637"><ele>1.0</ele><time>2026-04-12T10:50:17Z</time></trkpt><trkpt lat="44.56092303728152" lon="12.204586779838559"><ele>0.9999999999999999</ele><time>2026-04-12T10:50:19Z</time></trkpt><trkpt lat="44.560980464705075" lon="12.20469167887"><ele>1.0</ele><time>2026-04-12T10:50:22Z</time></trkpt><trkpt lat="44.56104519270316" lon="12.204796974680022"><ele>1.0</ele><time>2026-04-12T10:50:25Z</time></trkpt><trkpt lat="44.561097041152024" lon="12.204867679561225"><ele>1.0</ele><time>2026-04-12T10:50:27Z</time></trkpt><trkpt lat="44.56114887143486" lon="12.20494657366385"><ele>0.9999999999999999</ele><time>2026-04-12T10:50:29Z</time></trkpt><trkpt lat="44.56120953851423" lon="12.205011454572753"><ele>1.0</ele><time>2026-04-12T10:50:31Z</time></trkpt><trkpt lat="44.5612586482687" lon="12.205093866630746"><ele>0.8571428571428571</ele><time>2026-04-12T10:50:33Z</time></trkpt><trkpt lat="44.56131336706673" lon="12.205168564586225"><ele>0.7142857142857142</ele><time>2026-04-12T10:50:35Z</time></trkpt><trkpt lat="44.56136326577756" lon="12.205247796761245"><ele>0.5714285714285714</ele><time>2026-04-12T10:50:37Z</time></trkpt><trkpt lat="44.56141765379184" lon="12.205314782753485"><ele>0.42857142857142855</ele><time>2026-04-12T10:50:39Z</time></trkpt><trkpt lat="44.561457385317595" lon="12.205384893390747"><ele>0.2857142857142857</ele><time>2026-04-12T10:50:41Z</time></trkpt><trkpt lat="44.56152220269941" lon="12.205474374646352"><ele>0.14285714285714285</ele><time>2026-04-12T10:50:44Z</time></trkpt><trkpt lat="44.56156792254019" lon="12.20553678164064"><ele>0.0</ele><time>2026-04-12T10:50:46Z</time></trkpt><trkpt lat="44.5616157684508" lon="12.205607593312765"><ele>0.0</ele><time>2026-04-12T10:50:48Z</time></trkpt><trkpt lat="44.561664837126536" lon="12.205676730043717"><ele>0.0</ele><time>2026-04-12T10:50:50Z</time></trkpt><trkpt lat="44.56171813582141" lon="12.205747187772184"><ele>0.0</ele><time>2026-04-12T10:50:52Z</time></trkpt><trkpt lat="44.56176410045643" lon="12.205827101357698"><ele>0.0</ele><time>2026-04-12T10:50:54Z</time></trkpt><trkpt lat="44.561816689170556" lon="12.205900437681981"><ele>0.0</ele><time>2026-04-12T10:50:56Z</time></trkpt><trkpt lat="44.561871072740615" lon="12.205980223843882"><ele>0.0</ele><time>2026-04-12T10:50:58Z</time></trkpt><trkpt lat="44.561924811916754" lon="12.206060213515315"><ele>0.0</ele><time>2026-04-12T10:51:00Z</time></trkpt><trkpt lat="44.56198191302221" lon="12.206135055335482"><ele>-0.16666666666666666</ele><time>2026-04-12T10:51:02Z</time></trkpt><trkpt lat="44.56203692061268" lon="12.206215097395765"><ele>-0.3333333333333333</ele><time>2026-04-12T10:51:04Z</time></trkpt><trkpt lat="44.56208940651169" lon="12.206295286032136"><ele>-0.5</ele><time>2026-04-12T10:51:06Z</time></trkpt><trkpt lat="44.56214879832706" lon="12.206367202481347"><ele>-0.6666666666666666</ele><time>2026-04-12T10:51:08Z</time></trkpt><trkpt lat="44.56220305571417" lon="12.206446522179833"><ele>-0.8333333333333333</ele><time>2026-04-12T10:51:10Z</time></trkpt><trkpt lat="44.56225610960909" lon="12.206525299315066"><ele>-1.0</ele><time>2026-04-12T10:51:12Z</time></trkpt><trkpt lat="44.56231042073635" lon="12.206605643531189"><ele>-0.9999999999999999</ele><time>2026-04-12T10:51:14Z</time></trkpt><trkpt lat="44.56236665255604" lon="12.206678700377068"><ele>-1.0</ele><time>2026-04-12T10:51:16Z</time></trkpt><trkpt lat="44.56241990559681" lon="12.206760260925883"><ele>-1.0</ele><time>2026-04-12T10:51:18Z</time></trkpt><trkpt lat="44.562474461853775" lon="12.206841279323994"><ele>-1.0</ele><time>2026-04-12T10:51:20Z</time></trkpt><trkpt lat="44.56252956803006" lon="12.206921901252972"><ele>-0.9999999999999999</ele><time>2026-04-12T10:51:22Z</time></trkpt><trkpt lat="44.562586213309075" lon="12.207003920864498"><ele>-1.0</ele><time>2026-04-12T10:51:24Z</time></trkpt><trkpt lat="44.56264232017085" lon="12.207087608044656"><ele>-0.9999999999999999</ele><time>2026-04-12T10:51:26Z</time></trkpt><trkpt lat="44.562691476844" lon="12.207177096570177"><ele>-1.0</ele><time>2026-04-12T10:51:28Z</time></trkpt><trkpt lat="44.562746402901205" lon="12.207257066822473"><ele>-1.0</ele><time>2026-04-12T10:51:30Z</time></trkpt><trkpt lat="44.56279819583016" lon="12.20733454358424"><ele>-1.0</ele><time>2026-04-12T10:51:32Z</time></trkpt><trkpt lat="44.56285428311173" lon="12.207412755162384"><ele>-0.9999999999999999</ele><time>2026-04-12T10:51:34Z</time></trkpt><trkpt lat="44.562906510096894" lon="12.207492963464432"><ele>-1.0</ele><time>2026-04-12T10:51:36Z</time></trkpt><trkpt lat="44.56295876189023" lon="12.207574256423483"><ele>-0.8333333333333333</ele><time>2026-04-12T10:51:38Z</time></trkpt><trkpt lat="44.56300891000429" lon="12.207650170614528"><ele>-0.6666666666666666</ele><time>2026-04-12T10:51:40Z</time></trkpt><trkpt lat="44.56306024195169" lon="12.207724589390498"><ele>-0.5</ele><time>2026-04-12T10:51:42Z</time></trkpt><trkpt lat="44.56311221063256" lon="12.207805676526597"><ele>-0.3333333333333333</ele><time>2026-04-12T10:51:44Z</time></trkpt><trkpt lat="44.563166358438856" lon="12.207883771429904"><ele>-0.16666666666666666</ele><time>2026-04-12T10:51:46Z</time></trkpt><trkpt lat="44.56322103529082" lon="12.207966613304594"><ele>0.0</ele><time>2026-04-12T10:51:48Z</time></trkpt><trkpt lat="44.563269034281696" lon="12.208049646816525"><ele>0.0</ele><time>2026-04-12T10:51:50Z</time></trkpt><trkpt lat="44.563320803580346" lon="12.208128968443978"><ele>0.0</ele><time>2026-04-12T10:51:52Z</time></trkpt><trkpt lat="44.56336560769673" lon="12.208203788565585"><ele>0.0</ele><time>2026-04-12T10:51:54Z</time></trkpt><trkpt lat="44.56340954967472" lon="12.208273108194206"><ele>0.0</ele><time>2026-04-12T10:51:56Z</time></trkpt><trkpt lat="44.5634660429796" lon="12.208339947964834"><ele>0.0</ele><time>2026-04-12T10:51:58Z</time></trkpt><trkpt lat="44.563513363711884" lon="12.208412289080597"><ele>0.0</ele><time>2026-04-12T10:52:00Z</time></trkpt><trkpt lat="44.5635622958962" lon="12.208487056000145"><ele>0.0</ele><time>2026-04-12T10:52:02Z</time></trkpt><trkpt lat="44.56361198271462" lon="12.208566517132505"><ele>0.0</ele><time>2026-04-12T10:52:04Z</time></trkpt><trkpt lat="44.563660281936336" lon="12.208642406743818"><ele>0.0</ele><time>2026-04-12T10:52:06Z</time></trkpt><trkpt lat="44.56370504622835" lon="12.208717593009734"><ele>0.0</ele><time>2026-04-12T10:52:08Z</time></trkpt><trkpt lat="44.563751375486675" lon="12.208799094061193"><ele>0.0</ele><time>2026-04-12T10:52:10Z</time></trkpt><trkpt lat="44.563798348736796" lon="12.208873885542024"><ele>0.0</ele><time>2026-04-12T10:52:12Z</time></trkpt><trkpt lat="44.5638511989217" lon="12.208941047666338"><ele>0.0</ele><time>2026-04-12T10:52:14Z</time></trkpt><trkpt lat="44.563899353787285" lon="12.209013127889264"><ele>0.0</ele><time>2026-04-12T10:52:16Z</time></trkpt><trkpt lat="44.56395050819402" lon="12.20908720587324"><ele>-0.14285714285714285</ele><time>2026-04-12T10:52:18Z</time></trkpt><trkpt lat="44.563998248294794" lon="12.209160442372573"><ele>-0.2857142857142857</ele><time>2026-04-12T10:52:20Z</time></trkpt><trkpt lat="44.56404308347149" lon="12.209235077613453"><ele>-0.42857142857142855</ele><time>2026-04-12T10:52:22Z</time></trkpt><trkpt lat="44.564097882222626" lon="12.20930780205507"><ele>-0.5714285714285714</ele><time>2026-04-12T10:52:24Z</time></trkpt><trkpt lat="44.56413730425594" lon="12.209387436722315"><ele>-0.7142857142857142</ele><time>2026-04-12T10:52:26Z</time></trkpt><trkpt lat="44.564185014664744" lon="12.209462176035377"><ele>-0.8571428571428571</ele><time>2026-04-12T10:52:28Z</time></trkpt><trkpt lat="44.56423519081018" lon="12.209534813101016"><ele>-1.0</ele><time>2026-04-12T10:52:30Z</time></trkpt><trkpt lat="44.564280431469406" lon="12.209612320218685"><ele>-1.0</ele><time>2026-04-12T10:52:32Z</time></trkpt><trkpt lat="44.564328741463804" lon="12.209690473759673"><ele>-0.9999999999999999</ele><time>2026-04-12T10:52:34Z</time></trkpt><trkpt lat="44.56437730474522" lon="12.20976914285243"><ele>-1.0</ele><time>2026-04-12T10:52:36Z</time></trkpt><trkpt lat="44.56442167893809" lon="12.209845666630873"><ele>-1.0</ele><time>2026-04-12T10:52:38Z</time></trkpt><trkpt lat="44.56446644955691" lon="12.209916997809621"><ele>-0.9999999999999999</ele><time>2026-04-12T10:52:40Z</time></trkpt><trkpt lat="44.56451255122706" lon="12.209986733173888"><ele>-1.0</ele><time>2026-04-12T10:52:42Z</time></trkpt><trkpt lat="44.564566903672414" lon="12.210081505713955"><ele>-1.0</ele><time>2026-04-12T10:52:45Z</time></trkpt><trkpt lat="44.564611988999474" lon="12.21016050660006"><ele>-1.0</ele><time>2026-04-12T10:52:47Z</time></trkpt><trkpt lat="44.564659173609606" lon="12.210229729664698"><ele>-0.9999999999999999</ele><time>2026-04-12T10:52:49Z</time></trkpt><trkpt lat="44.564706864941314" lon="12.21030893934808"><ele>-1.0</ele><time>2026-04-12T10:52:51Z</time></trkpt><trkpt lat="44.564751121913446" lon="12.210393389670786"><ele>-1.0</ele><time>2026-04-12T10:52:53Z</time></trkpt><trkpt lat="44.56479952381289" lon="12.210467349977423"><ele>-0.9999999999999999</ele><time>2026-04-12T10:52:55Z</time></trkpt><trkpt lat="44.564854849310734" lon="12.210557753199732"><ele>-1.0</ele><time>2026-04-12T10:52:58Z</time></trkpt><trkpt lat="44.56489378891384" lon="12.210638499126683"><ele>-1.0</ele><time>2026-04-12T10:53:00Z</time></trkpt><trkpt lat="44.56493786563745" lon="12.210721535719898"><ele>-0.7142857142857142</ele><time>2026-04-12T10:53:02Z</time></trkpt><trkpt lat="44.56498339127639" lon="12.210785208666172"><ele>-0.4285714285714285</ele><time>2026-04-12T10:53:04Z</time></trkpt><trkpt lat="44.56502171024505" lon="12.210858080041863"><ele>-0.14285714285714285</ele><time>2026-04-12T10:53:06Z</time></trkpt><trkpt lat="44.56506800563087" lon="12.210926230584315"><ele>0.14285714285714285</ele><time>2026-04-12T10:53:08Z</time></trkpt><trkpt lat="44.56511334627493" lon="12.210998091158256"><ele>0.4285714285714285</ele><time>2026-04-12T10:53:10Z</time></trkpt><trkpt lat="44.56516095974465" lon="12.211070030726042"><ele>0.7142857142857142</ele><time>2026-04-12T10:53:12Z</time></trkpt><trkpt lat="44.565209259253415" lon="12.211142919798393"><ele>1.0</ele><time>2026-04-12T10:53:14Z</time></trkpt><trkpt lat="44.565253997943266" lon="12.211222844202121"><ele>1.0</ele><time>2026-04-12T10:53:16Z</time></trkpt><trkpt lat="44.56529952640433" lon="12.211300215210086"><ele>0.9999999999999999</ele><time>2026-04-12T10:53:18Z</time></trkpt><trkpt lat="44.565349231990844" lon="12.211376398031943"><ele>1.0</ele><time>2026-04-12T10:53:20Z</time></trkpt><trkpt lat="44.56539080816636" lon="12.211447164635752"><ele>1.0</ele><time>2026-04-12T10:53:22Z</time></trkpt><trkpt lat="44.5654482436437" lon="12.211538622607144"><ele>0.9999999999999999</ele><time>2026-04-12T10:53:25Z</time></trkpt><trkpt lat="44.56549051767363" lon="12.211609803645683"><ele>1.0</ele><time>2026-04-12T10:53:28Z</time></trkpt><trkpt lat="44.56554817597318" lon="12.21168041974122"><ele>1.0</ele><time>2026-04-12T10:53:32Z</time></trkpt><trkpt lat="44.565611810570594" lon="12.211754487217767"><ele>0.9999999999999999</ele><time>2026-04-12T10:53:35Z</time></trkpt><trkpt lat="44.56568857040909" lon="12.211819798514037"><ele>1.0</ele><time>2026-04-12T10:53:38Z</time></trkpt><trkpt lat="44.565764811975704" lon="12.211887217023937"><ele>1.0</ele><time>2026-04-12T10:53:41Z</time></trkpt><trkpt lat="44.56584351792308" lon="12.211958004087112"><ele>1.0</ele><time>2026-04-12T10:53:44Z</time></trkpt><trkpt lat="44.565899717005294" lon="12.2120022298649"><ele>0.9999999999999999</ele><time>2026-04-12T10:53:46Z</time></trkpt><trkpt lat="44.5659564551845" lon="12.212045663181435"><ele>1.0</ele><time>2026-04-12T10:53:48Z</time></trkpt><trkpt lat="44.566013458770506" lon="12.212094423899105"><ele>1.0</ele><time>2026-04-12T10:53:50Z</time></trkpt><trkpt lat="44.56607306180441" lon="12.212139778297919"><ele>0.9999999999999999</ele><time>2026-04-12T10:53:52Z</time></trkpt><trkpt lat="44.56613104686567" lon="12.212193447909799"><ele>1.0</ele><time>2026-04-12T10:53:54Z</time></trkpt><trkpt lat="44.56619344510456" lon="12.212237551362499"><ele>1.0</ele><time>2026-04-12T10:53:56Z</time></trkpt><trkpt lat="44.56625925771697" lon="12.21228703935257"><ele>0.9999999999999999</ele><time>2026-04-12T10:53:58Z</time></trkpt><trkpt lat="44.566317149816506" lon="12.212338313090942"><ele>1.0</ele><time>2026-04-12T10:54:00Z</time></trkpt><trkpt lat="44.56637599433663" lon="12.212384050271304"><ele>1.0</ele><time>2026-04-12T10:54:02Z</time></trkpt><trkpt lat="44.56643139646507" lon="12.212434125835502"><ele>0.7142857142857142</ele><time>2026-04-12T10:54:04Z</time></trkpt><trkpt lat="44.56648839839935" lon="12.212477800866182"><ele>0.4285714285714285</ele><time>2026-04-12T10:54:06Z</time></trkpt><trkpt lat="44.56656257889554" lon="12.212536432391762"><ele>0.14285714285714285</ele><time>2026-04-12T10:54:09Z</time></trkpt><trkpt lat="44.566623069425574" lon="12.212589529184758"><ele>-0.14285714285714285</ele><time>2026-04-12T10:54:11Z</time></trkpt><trkpt lat="44.56668474835581" lon="12.212649915174152"><ele>-0.4285714285714285</ele><time>2026-04-12T10:54:13Z</time></trkpt><trkpt lat="44.566739361881524" lon="12.21269620479549"><ele>-0.7142857142857142</ele><time>2026-04-12T10:54:15Z</time></trkpt><trkpt lat="44.56679669052944" lon="12.212752479515057"><ele>-1.0</ele><time>2026-04-12T10:54:17Z</time></trkpt><trkpt lat="44.56685285809588" lon="12.212808295372044"><ele>-1.0</ele><time>2026-04-12T10:54:19Z</time></trkpt><trkpt lat="44.56690150984556" lon="12.212868205344078"><ele>-0.9999999999999999</ele><time>2026-04-12T10:54:21Z</time></trkpt><trkpt lat="44.56695337717667" lon="12.212920288693818"><ele>-1.0</ele><time>2026-04-12T10:54:23Z</time></trkpt><trkpt lat="44.56701144726909" lon="12.212990206420445"><ele>-1.0</ele><time>2026-04-12T10:54:25Z</time></trkpt><trkpt lat="44.56706959482599" lon="12.213059382118265"><ele>-0.9999999999999999</ele><time>2026-04-12T10:54:27Z</time></trkpt><trkpt lat="44.56712177167308" lon="12.213115774286313"><ele>-1.0</ele><time>2026-04-12T10:54:29Z</time></trkpt><trkpt lat="44.56718236186416" lon="12.213189233567654"><ele>-1.0</ele><time>2026-04-12T10:54:31Z</time></trkpt><trkpt lat="44.567232990923195" lon="12.21325925597126"><ele>-0.8333333333333333</ele><time>2026-04-12T10:54:33Z</time></trkpt><trkpt lat="44.567287603218176" lon="12.21331602148459"><ele>-0.6666666666666666</ele><time>2026-04-12T10:54:35Z</time></trkpt><trkpt lat="44.56734683270099" lon="12.213404469887267"><ele>-0.5</ele><time>2026-04-12T10:54:37Z</time></trkpt><trkpt lat="44.56741446326354" lon="12.213467716457266"><ele>-0.3333333333333333</ele><time>2026-04-12T10:54:39Z</time></trkpt><trkpt lat="44.56746688291613" lon="12.213525790630053"><ele>-0.16666666666666666</ele><time>2026-04-12T10:54:41Z</time></trkpt><trkpt lat="44.56752449785769" lon="12.21358957624319"><ele>0.0</ele><time>2026-04-12T10:54:43Z</time></trkpt><trkpt lat="44.56758470961679" lon="12.213649505164934"><ele>0.0</ele><time>2026-04-12T10:54:45Z</time></trkpt><trkpt lat="44.56763646760495" lon="12.21370049876488"><ele>0.0</ele><time>2026-04-12T10:54:47Z</time></trkpt><trkpt lat="44.56769787245154" lon="12.213759280102499"><ele>0.0</ele><time>2026-04-12T10:54:49Z</time></trkpt><trkpt lat="44.56775384922234" lon="12.213805318339423"><ele>0.0</ele><time>2026-04-12T10:54:51Z</time></trkpt><trkpt lat="44.56780524699131" lon="12.213859149032329"><ele>0.0</ele><time>2026-04-12T10:54:53Z</time></trkpt><trkpt lat="44.56787438030821" lon="12.213914748366847"><ele>0.0</ele><time>2026-04-12T10:54:55Z</time></trkpt><trkpt lat="44.56794137278225" lon="12.213968252343784"><ele>0.0</ele><time>2026-04-12T10:54:57Z</time></trkpt><trkpt lat="44.568002569718296" lon="12.21402345167349"><ele>0.0</ele><time>2026-04-12T10:54:59Z</time></trkpt><trkpt lat="44.568067548083015" lon="12.21407091354859"><ele>0.0</ele><time>2026-04-12T10:55:01Z</time></trkpt><trkpt lat="44.56814264856537" lon="12.214133297474604"><ele>0.0</ele><time>2026-04-12T10:55:04Z</time></trkpt><trkpt lat="44.568215330803476" lon="12.214196181072785"><ele>0.0</ele><time>2026-04-12T10:55:07Z</time></trkpt><trkpt lat="44.56827050507583" lon="12.214244303741435"><ele>0.0</ele><time>2026-04-12T10:55:09Z</time></trkpt><trkpt lat="44.56835039345115" lon="12.214313636730212"><ele>0.0</ele><time>2026-04-12T10:55:12Z</time></trkpt><trkpt lat="44.5684058526413" lon="12.21436536093045"><ele>0.0</ele><time>2026-04-12T10:55:14Z</time></trkpt><trkpt lat="44.56847110350898" lon="12.214420224280031"><ele>0.0</ele><time>2026-04-12T10:55:16Z</time></trkpt><trkpt lat="44.56854600316903" lon="12.214485052312595"><ele>0.0</ele><time>2026-04-12T10:55:18Z</time></trkpt><trkpt lat="44.568606888746466" lon="12.21454524551218"><ele>0.0</ele><time>2026-04-12T10:55:20Z</time></trkpt><trkpt lat="44.56866385418573" lon="12.214598501816447"><ele>0.0</ele><time>2026-04-12T10:55:22Z</time></trkpt><trkpt lat="44.56873661926191" lon="12.214662093283367"><ele>0.0</ele><time>2026-04-12T10:55:24Z</time></trkpt><trkpt lat="44.56879994348916" lon="12.214714178054676"><ele>0.0</ele><time>2026-04-12T10:55:26Z</time></trkpt><trkpt lat="44.56887945864228" lon="12.2147827434593"><ele>0.0</ele><time>2026-04-12T10:55:29Z</time></trkpt><trkpt lat="44.56896135762365" lon="12.214837849418494"><ele>0.0</ele><time>2026-04-12T10:55:32Z</time></trkpt><trkpt lat="44.56903103865656" lon="12.214891166352567"><ele>0.0</ele><time>2026-04-12T10:55:34Z</time></trkpt><trkpt lat="44.569098003345786" lon="12.214940022192932"><ele>0.0</ele><time>2026-04-12T10:55:36Z</time></trkpt><trkpt lat="44.569160109722866" lon="12.214981389227017"><ele>0.0</ele><time>2026-04-12T10:55:38Z</time></trkpt><trkpt lat="44.569221671076576" lon="12.21502956848939"><ele>-0.16666666666666666</ele><time>2026-04-12T10:55:40Z</time></trkpt><trkpt lat="44.56930053081234" lon="12.215104978107192"><ele>-0.3333333333333333</ele><time>2026-04-12T10:55:43Z</time></trkpt><trkpt lat="44.569367711661755" lon="12.21515206303556"><ele>-0.5</ele><time>2026-04-12T10:55:45Z</time></trkpt><trkpt lat="44.56941971182183" lon="12.215202549197727"><ele>-0.6666666666666666</ele><time>2026-04-12T10:55:47Z</time></trkpt><trkpt lat="44.569479759807116" lon="12.215260116801359"><ele>-0.8333333333333333</ele><time>2026-04-12T10:55:49Z</time></trkpt><trkpt lat="44.56955414335383" lon="12.215314301054136"><ele>-1.0</ele><time>2026-04-12T10:55:51Z</time></trkpt><trkpt lat="44.56960974374718" lon="12.215369053767455"><ele>-1.0</ele><time>2026-04-12T10:55:53Z</time></trkpt><trkpt lat="44.56966844240196" lon="12.215411729114184"><ele>-0.9999999999999999</ele><time>2026-04-12T10:55:55Z</time></trkpt><trkpt lat="44.569733495700774" lon="12.21545619126539"><ele>-1.0</ele><time>2026-04-12T10:55:57Z</time></trkpt><trkpt lat="44.56978964427311" lon="12.215510588641564"><ele>-1.0</ele><time>2026-04-12T10:55:59Z</time></trkpt><trkpt lat="44.56986587408345" lon="12.21556227668945"><ele>-0.9999999999999999</ele><time>2026-04-12T10:56:01Z</time></trkpt><trkpt lat="44.569940003098836" lon="12.215622534268427"><ele>-1.0</ele><time>2026-04-12T10:56:03Z</time></trkpt><trkpt lat="44.57000612143757" lon="12.215663827251843"><ele>-1.0</ele><time>2026-04-12T10:56:05Z</time></trkpt><trkpt lat="44.570076601901334" lon="12.215706111762932"><ele>-0.8333333333333333</ele><time>2026-04-12T10:56:07Z</time></trkpt><trkpt lat="44.570162312520864" lon="12.215761581552242"><ele>-0.6666666666666666</ele><time>2026-04-12T10:56:09Z</time></trkpt><trkpt lat="44.57024566772431" lon="12.215804596356394"><ele>-0.5</ele><time>2026-04-12T10:56:11Z</time></trkpt><trkpt lat="44.570319841578055" lon="12.215852839896234"><ele>-0.3333333333333333</ele><time>2026-04-12T10:56:13Z</time></trkpt><trkpt lat="44.57039267030993" lon="12.215891761114412"><ele>-0.16666666666666666</ele><time>2026-04-12T10:56:15Z</time></trkpt><trkpt lat="44.57046638037412" lon="12.215934094866617"><ele>0.0</ele><time>2026-04-12T10:56:17Z</time></trkpt><trkpt lat="44.57053707890368" lon="12.215963568060962"><ele>0.0</ele><time>2026-04-12T10:56:19Z</time></trkpt><trkpt lat="44.57061687725802" lon="12.216017399327102"><ele>0.0</ele><time>2026-04-12T10:56:21Z</time></trkpt><trkpt lat="44.570688666564266" lon="12.216051803899544"><ele>0.0</ele><time>2026-04-12T10:56:23Z</time></trkpt><trkpt lat="44.57074875849969" lon="12.216086715705233"><ele>0.0</ele><time>2026-04-12T10:56:25Z</time></trkpt><trkpt lat="44.570813785822295" lon="12.216124392123485"><ele>0.0</ele><time>2026-04-12T10:56:27Z</time></trkpt><trkpt lat="44.5708717567345" lon="12.216159269952175"><ele>0.0</ele><time>2026-04-12T10:56:29Z</time></trkpt><trkpt lat="44.570952898063354" lon="12.216200119492452"><ele>0.0</ele><time>2026-04-12T10:56:32Z</time></trkpt><trkpt lat="44.57104818383959" lon="12.21624581067532"><ele>0.0</ele><time>2026-04-12T10:56:35Z</time></trkpt><trkpt lat="44.57112171123904" lon="12.216287479293463"><ele>0.0</ele><time>2026-04-12T10:56:37Z</time></trkpt><trkpt lat="44.57117376603379" lon="12.216340624658207"><ele>0.0</ele><time>2026-04-12T10:56:39Z</time></trkpt><trkpt lat="44.571255885363705" lon="12.216386636110512"><ele>0.0</ele><time>2026-04-12T10:56:42Z</time></trkpt><trkpt lat="44.57134817580512" lon="12.21643934186414"><ele>0.0</ele><time>2026-04-12T10:56:45Z</time></trkpt><trkpt lat="44.57142796412328" lon="12.216486220520434"><ele>0.0</ele><time>2026-04-12T10:56:47Z</time></trkpt><trkpt lat="44.5715022244569" lon="12.216532082614679"><ele>0.16666666666666666</ele><time>2026-04-12T10:56:49Z</time></trkpt><trkpt lat="44.5715846089468" lon="12.21658226115394"><ele>0.3333333333333333</ele><time>2026-04-12T10:56:52Z</time></trkpt><trkpt lat="44.57166927307644" lon="12.216631028688875"><ele>0.5</ele><time>2026-04-12T10:56:55Z</time></trkpt><trkpt lat="44.57174216267119" lon="12.21665267024119"><ele>0.6666666666666666</ele><time>2026-04-12T10:56:57Z</time></trkpt><trkpt lat="44.571814357710416" lon="12.21669243633112"><ele>0.8333333333333333</ele><time>2026-04-12T10:56:59Z</time></trkpt><trkpt lat="44.571884513769724" lon="12.216726542126885"><ele>1.0</ele><time>2026-04-12T10:57:01Z</time></trkpt><trkpt lat="44.57194631858693" lon="12.216755350830436"><ele>1.0</ele><time>2026-04-12T10:57:03Z</time></trkpt><trkpt lat="44.57200518607425" lon="12.216786786223981"><ele>0.9999999999999999</ele><time>2026-04-12T10:57:05Z</time></trkpt><trkpt lat="44.572070288783415" lon="12.216816140494029"><ele>1.0</ele><time>2026-04-12T10:57:07Z</time></trkpt><trkpt lat="44.572153171183515" lon="12.216868033811652"><ele>1.0</ele><time>2026-04-12T10:57:10Z</time></trkpt><trkpt lat="44.57221463372903" lon="12.216889052802244"><ele>0.9999999999999999</ele><time>2026-04-12T10:57:12Z</time></trkpt><trkpt lat="44.57230176725428" lon="12.21688781928996"><ele>1.0</ele><time>2026-04-12T10:57:15Z</time></trkpt><trkpt lat="44.57236008024956" lon="12.216921156837714"><ele>1.0</ele><time>2026-04-12T10:57:17Z</time></trkpt><trkpt lat="44.57244033707" lon="12.216933300318459"><ele>1.0</ele><time>2026-04-12T10:57:19Z</time></trkpt><trkpt lat="44.57251996913278" lon="12.216943288769592"><ele>0.9999999999999999</ele><time>2026-04-12T10:57:21Z</time></trkpt><trkpt lat="44.57259489979792" lon="12.216948542746602"><ele>1.0</ele><time>2026-04-12T10:57:23Z</time></trkpt><trkpt lat="44.57266089659174" lon="12.21692452146667"><ele>1.0</ele><time>2026-04-12T10:57:25Z</time></trkpt><trkpt lat="44.57273536708581" lon="12.216936048066696"><ele>0.9999999999999999</ele><time>2026-04-12T10:57:27Z</time></trkpt><trkpt lat="44.57279736010972" lon="12.216899958191885"><ele>1.0</ele><time>2026-04-12T10:57:29Z</time></trkpt><trkpt lat="44.572874941640066" lon="12.216906426442035"><ele>1.0</ele><time>2026-04-12T10:57:31Z</time></trkpt><trkpt lat="44.57296183552772" lon="12.216860194010302"><ele>0.9999999999999999</ele><time>2026-04-12T10:57:33Z</time></trkpt><trkpt lat="44.57304550100614" lon="12.21685839807178"><ele>1.0</ele><time>2026-04-12T10:57:35Z</time></trkpt><trkpt lat="44.57311231836464" lon="12.216835096702841"><ele>1.0</ele><time>2026-04-12T10:57:37Z</time></trkpt><trkpt lat="44.573174298446666" lon="12.21679199163859"><ele>1.0</ele><time>2026-04-12T10:57:39Z</time></trkpt><trkpt lat="44.57326010508761" lon="12.216755116926347"><ele>0.9999999999999999</ele><time>2026-04-12T10:57:42Z</time></trkpt><trkpt lat="44.573335391793535" lon="12.216722897156675"><ele>1.0</ele><time>2026-04-12T10:57:45Z</time></trkpt><trkpt lat="44.573402114891465" lon="12.216697775954442"><ele>1.0</ele><time>2026-04-12T10:57:48Z</time></trkpt><trkpt lat="44.57346534949467" lon="12.216665411624843"><ele>0.9999999999999999</ele><time>2026-04-12T10:57:51Z</time></trkpt><trkpt lat="44.57352573760111" lon="12.216634815777292"><ele>1.0</ele><time>2026-04-12T10:57:54Z</time></trkpt><trkpt lat="44.57360094230224" lon="12.216599582895697"><ele>1.0</ele><time>2026-04-12T10:57:57Z</time></trkpt><trkpt lat="44.573691807503906" lon="12.21657156393317"><ele>0.9999999999999999</ele><time>2026-04-12T10:58:00Z</time></trkpt><trkpt lat="44.573748684559696" lon="12.21652340176682"><ele>1.0</ele><time>2026-04-12T10:58:02Z</time></trkpt><trkpt lat="44.57380921930969" lon="12.21648444877799"><ele>1.0</ele><time>2026-04-12T10:58:04Z</time></trkpt><trkpt lat="44.57387067319694" lon="12.21644921102076"><ele>1.0</ele><time>2026-04-12T10:58:06Z</time></trkpt><trkpt lat="44.57393810335474" lon="12.216409254705878"><ele>0.9999999999999999</ele><time>2026-04-12T10:58:08Z</time></trkpt><trkpt lat="44.574001361611494" lon="12.216355057605275"><ele>1.0</ele><time>2026-04-12T10:58:10Z</time></trkpt><trkpt lat="44.574059987749884" lon="12.216319063699755"><ele>1.0</ele><time>2026-04-12T10:58:12Z</time></trkpt><trkpt lat="44.57411391737328" lon="12.216271887203071"><ele>0.9999999999999999</ele><time>2026-04-12T10:58:14Z</time></trkpt><trkpt lat="44.57416598929975" lon="12.216220424290524"><ele>1.0</ele><time>2026-04-12T10:58:16Z</time></trkpt><trkpt lat="44.57422322035305" lon="12.21617020272469"><ele>1.0</ele><time>2026-04-12T10:58:18Z</time></trkpt><trkpt lat="44.57429710933995" lon="12.21609848443081"><ele>0.9999999999999999</ele><time>2026-04-12T10:58:21Z</time></trkpt><trkpt lat="44.574349543032795" lon="12.216047311413236"><ele>1.0</ele><time>2026-04-12T10:58:23Z</time></trkpt><trkpt lat="44.57442223626642" lon="12.215975704034706"><ele>1.0</ele><time>2026-04-12T10:58:26Z</time></trkpt><trkpt lat="44.57448149767354" lon="12.215922537892943"><ele>1.0</ele><time>2026-04-12T10:58:28Z</time></trkpt><trkpt lat="44.574543456705086" lon="12.215865912518158"><ele>0.9999999999999999</ele><time>2026-04-12T10:58:30Z</time></trkpt><trkpt lat="44.57460446317422" lon="12.215803397781652"><ele>1.0</ele><time>2026-04-12T10:58:32Z</time></trkpt><trkpt lat="44.57466775873545" lon="12.215741277615944"><ele>0.9999999999999999</ele><time>2026-04-12T10:58:34Z</time></trkpt><trkpt lat="44.57473196356122" lon="12.215679737958657"><ele>1.0</ele><time>2026-04-12T10:58:36Z</time></trkpt><trkpt lat="44.57479956879479" lon="12.215617890326865"><ele>1.0</ele><time>2026-04-12T10:58:38Z</time></trkpt><trkpt lat="44.57486689078922" lon="12.215556087528658"><ele>1.0</ele><time>2026-04-12T10:58:40Z</time></trkpt><trkpt lat="44.57493045715951" lon="12.215484458045912"><ele>0.9999999999999999</ele><time>2026-04-12T10:58:42Z</time></trkpt><trkpt lat="44.57499569312928" lon="12.215419387408442"><ele>1.0</ele><time>2026-04-12T10:58:44Z</time></trkpt><trkpt lat="44.57506154976674" lon="12.215355976774935"><ele>0.8333333333333333</ele><time>2026-04-12T10:58:46Z</time></trkpt><trkpt lat="44.57512900422676" lon="12.215289231083934"><ele>0.6666666666666666</ele><time>2026-04-12T10:58:48Z</time></trkpt><trkpt lat="44.5751828035448" lon="12.21523424750489"><ele>0.5</ele><time>2026-04-12T10:58:50Z</time></trkpt><trkpt lat="44.57523981813558" lon="12.21517824662998"><ele>0.3333333333333333</ele><time>2026-04-12T10:58:52Z</time></trkpt><trkpt lat="44.57531626083437" lon="12.215107968352527"><ele>0.16666666666666666</ele><time>2026-04-12T10:58:55Z</time></trkpt><trkpt lat="44.575374299004245" lon="12.215050205330792"><ele>0.0</ele><time>2026-04-12T10:58:57Z</time></trkpt><trkpt lat="44.57544472018925" lon="12.214992846941675"><ele>0.0</ele><time>2026-04-12T10:58:59Z</time></trkpt><trkpt lat="44.57551749319619" lon="12.214934837337303"><ele>0.0</ele><time>2026-04-12T10:59:01Z</time></trkpt><trkpt lat="44.575579726285675" lon="12.214881660090896"><ele>0.0</ele><time>2026-04-12T10:59:03Z</time></trkpt><trkpt lat="44.57564382081259" lon="12.214825370118941"><ele>0.0</ele><time>2026-04-12T10:59:05Z</time></trkpt><trkpt lat="44.575711135487055" lon="12.214776279966967"><ele>0.0</ele><time>2026-04-12T10:59:07Z</time></trkpt><trkpt lat="44.57578078323219" lon="12.214732248401575"><ele>0.0</ele><time>2026-04-12T10:59:09Z</time></trkpt><trkpt lat="44.57585268227578" lon="12.214679053671022"><ele>-0.16666666666666666</ele><time>2026-04-12T10:59:11Z</time></trkpt><trkpt lat="44.575925539072095" lon="12.21462517443677"><ele>-0.3333333333333333</ele><time>2026-04-12T10:59:13Z</time></trkpt><trkpt lat="44.576001994921334" lon="12.214579728498999"><ele>-0.5</ele><time>2026-04-12T10:59:15Z</time></trkpt><trkpt lat="44.57607180655686" lon="12.214535651944898"><ele>-0.6666666666666666</ele><time>2026-04-12T10:59:17Z</time></trkpt><trkpt lat="44.57613919523149" lon="12.214492435973018"><ele>-0.8333333333333333</ele><time>2026-04-12T10:59:19Z</time></trkpt><trkpt lat="44.57621626719061" lon="12.214447198164812"><ele>-1.0</ele><time>2026-04-12T10:59:21Z</time></trkpt><trkpt lat="44.57628156971972" lon="12.214414819987358"><ele>-0.9999999999999999</ele><time>2026-04-12T10:59:23Z</time></trkpt><trkpt lat="44.57635430573522" lon="12.214380450885942"><ele>-1.0</ele><time>2026-04-12T10:59:25Z</time></trkpt><trkpt lat="44.5764256068189" lon="12.214338462336057"><ele>-1.0</ele><time>2026-04-12T10:59:27Z</time></trkpt><trkpt lat="44.576495844269886" lon="12.214296166265422"><ele>-1.0</ele><time>2026-04-12T10:59:29Z</time></trkpt><trkpt lat="44.57657058404941" lon="12.21425098325027"><ele>-0.9999999999999999</ele><time>2026-04-12T10:59:31Z</time></trkpt><trkpt lat="44.57664553531648" lon="12.214208376143505"><ele>-1.0</ele><time>2026-04-12T10:59:33Z</time></trkpt><trkpt lat="44.57672269635948" lon="12.2141655979578"><ele>-0.9999999999999999</ele><time>2026-04-12T10:59:35Z</time></trkpt><trkpt lat="44.5767999595864" lon="12.214122399379136"><ele>-1.0</ele><time>2026-04-12T10:59:37Z</time></trkpt><trkpt lat="44.57688049317134" lon="12.214073510276922"><ele>-1.0</ele><time>2026-04-12T10:59:39Z</time></trkpt><trkpt lat="44.576959579079514" lon="12.214045156068257"><ele>-1.0</ele><time>2026-04-12T10:59:41Z</time></trkpt><trkpt lat="44.577042096545235" lon="12.214014897113831"><ele>-0.9999999999999999</ele><time>2026-04-12T10:59:43Z</time></trkpt><trkpt lat="44.57712639339912" lon="12.214003954092636"><ele>-1.0</ele><time>2026-04-12T10:59:44.999Z</time></trkpt><trkpt lat="44.57720861752277" lon="12.213995008186133"><ele>-0.9999999999999999</ele><time>2026-04-12T10:59:46.999Z</time></trkpt><trkpt lat="44.57729328060817" lon="12.213981979714406"><ele>-1.0</ele><time>2026-04-12T10:59:48.999Z</time></trkpt><trkpt lat="44.577376091987375" lon="12.213984228193967"><ele>-1.0</ele><time>2026-04-12T10:59:50.999Z</time></trkpt><trkpt lat="44.577458418587305" lon="12.213989163024555"><ele>-1.0</ele><time>2026-04-12T10:59:52.999Z</time></trkpt><trkpt lat="44.577528795136665" lon="12.213983879455036"><ele>-0.9999999999999999</ele><time>2026-04-12T10:59:54.999Z</time></trkpt><trkpt lat="44.577598900252276" lon="12.213978645408407"><ele>-1.0</ele><time>2026-04-12T10:59:57Z</time></trkpt><trkpt lat="44.577673955371964" lon="12.21399863459784"><ele>-1.0</ele><time>2026-04-12T10:59:59Z</time></trkpt><trkpt lat="44.577745069788385" lon="12.213982860167151"><ele>-0.9999999999999999</ele><time>2026-04-12T11:00:01Z</time></trkpt><trkpt lat="44.57782174384082" lon="12.213992735268658"><ele>-1.0</ele><time>2026-04-12T11:00:03Z</time></trkpt><trkpt lat="44.577898981086825" lon="12.214009986018318"><ele>-1.0</ele><time>2026-04-12T11:00:05Z</time></trkpt><trkpt lat="44.577960358746395" lon="12.21407489537448"><ele>-0.9999999999999999</ele><time>2026-04-12T11:00:07Z</time></trkpt><trkpt lat="44.57802344151312" lon="12.214124662355168"><ele>-1.0</ele><time>2026-04-12T11:00:09Z</time></trkpt><trkpt lat="44.57809079061595" lon="12.214160989092573"><ele>-1.0</ele><time>2026-04-12T11:00:11Z</time></trkpt><trkpt lat="44.57815754049021" lon="12.21417872330094"><ele>-0.9999999999999999</ele><time>2026-04-12T11:00:13Z</time></trkpt><trkpt lat="44.57822157716469" lon="12.214162914923568"><ele>-1.0</ele><time>2026-04-12T11:00:15Z</time></trkpt><trkpt lat="44.57829547823774" lon="12.21413537808157"><ele>-1.0</ele><time>2026-04-12T11:00:18Z</time></trkpt><trkpt lat="44.57836315760164" lon="12.214156933713785"><ele>-1.0</ele><time>2026-04-12T11:00:21Z</time></trkpt><trkpt lat="44.57844182464264" lon="12.214213106110032"><ele>-0.9999999999999999</ele><time>2026-04-12T11:00:24Z</time></trkpt><trkpt lat="44.5785106949048" lon="12.214294963470627"><ele>-1.0</ele><time>2026-04-12T11:00:27Z</time></trkpt><trkpt lat="44.57856891035365" lon="12.214398432418168"><ele>-0.9999999999999999</ele><time>2026-04-12T11:00:30Z</time></trkpt><trkpt lat="44.57864353124353" lon="12.214476719590659"><ele>-1.0</ele><time>2026-04-12T11:00:33Z</time></trkpt><trkpt lat="44.5786870218679" lon="12.214545767628962"><ele>-1.0</ele><time>2026-04-12T11:00:35Z</time></trkpt><trkpt lat="44.57874987660303" lon="12.21463613598465"><ele>-1.0</ele><time>2026-04-12T11:00:38Z</time></trkpt><trkpt lat="44.578787760253554" lon="12.214716708696299"><ele>-0.9999999999999999</ele><time>2026-04-12T11:00:40Z</time></trkpt><trkpt lat="44.578837510054655" lon="12.214807061109255"><ele>-1.0</ele><time>2026-04-12T11:00:43Z</time></trkpt><trkpt lat="44.57888025559451" lon="12.214891631458919"><ele>-0.9999999999999999</ele><time>2026-04-12T11:00:46Z</time></trkpt><trkpt lat="44.57891874952549" lon="12.214971989111016"><ele>-1.0</ele><time>2026-04-12T11:00:49Z</time></trkpt><trkpt lat="44.57895986716331" lon="12.215061587184971"><ele>-1.0</ele><time>2026-04-12T11:00:52Z</time></trkpt><trkpt lat="44.578992521475385" lon="12.215148635579537"><ele>-1.0</ele><time>2026-04-12T11:00:54Z</time></trkpt><trkpt lat="44.57902396294297" lon="12.215228677428618"><ele>-0.9999999999999999</ele><time>2026-04-12T11:00:56Z</time></trkpt><trkpt lat="44.5790554141292" lon="12.215340300203714"><ele>-1.0</ele><time>2026-04-12T11:00:59Z</time></trkpt><trkpt lat="44.57908996756487" lon="12.215457206963706"><ele>-0.9999999999999999</ele><time>2026-04-12T11:01:02Z</time></trkpt><trkpt lat="44.57912161989697" lon="12.215550608952027"><ele>-1.0</ele><time>2026-04-12T11:01:04Z</time></trkpt><trkpt lat="44.57915037194472" lon="12.215668757466766"><ele>-1.0</ele><time>2026-04-12T11:01:07Z</time></trkpt><trkpt lat="44.57917189582315" lon="12.215775714009796"><ele>-1.0</ele><time>2026-04-12T11:01:10Z</time></trkpt><trkpt lat="44.57919132850394" lon="12.215901072168672"><ele>-0.9999999999999999</ele><time>2026-04-12T11:01:13Z</time></trkpt><trkpt lat="44.57922105054269" lon="12.215988934654847"><ele>-1.0</ele><time>2026-04-12T11:01:15Z</time></trkpt><trkpt lat="44.57923961139929" lon="12.216076265569537"><ele>-0.8333333333333333</ele><time>2026-04-12T11:01:17Z</time></trkpt><trkpt lat="44.5792667002614" lon="12.21619086054963"><ele>-0.6666666666666666</ele><time>2026-04-12T11:01:20Z</time></trkpt><trkpt lat="44.579288197330584" lon="12.216312981961048"><ele>-0.5</ele><time>2026-04-12T11:01:23Z</time></trkpt><trkpt lat="44.57931213819582" lon="12.216417998637514"><ele>-0.3333333333333333</ele><time>2026-04-12T11:01:26Z</time></trkpt><trkpt lat="44.579339060116645" lon="12.216512674164887"><ele>-0.16666666666666666</ele><time>2026-04-12T11:01:29Z</time></trkpt><trkpt lat="44.57935762546757" lon="12.216611227278294"><ele>0.0</ele><time>2026-04-12T11:01:32Z</time></trkpt><trkpt lat="44.57937400774977" lon="12.216711965521684"><ele>0.0</ele><time>2026-04-12T11:01:35Z</time></trkpt><trkpt lat="44.57939151186773" lon="12.216801557698519"><ele>0.0</ele><time>2026-04-12T11:01:38Z</time></trkpt><trkpt lat="44.57942151774168" lon="12.216926928915841"><ele>0.0</ele><time>2026-04-12T11:01:41Z</time></trkpt><trkpt lat="44.579446456674134" lon="12.217038000823173"><ele>0.0</ele><time>2026-04-12T11:01:44Z</time></trkpt><trkpt lat="44.5794734013339" lon="12.217131364931962"><ele>0.0</ele><time>2026-04-12T11:01:47Z</time></trkpt><trkpt lat="44.57948675849834" lon="12.217231732274305"><ele>0.0</ele><time>2026-04-12T11:01:51Z</time></trkpt><trkpt lat="44.57951755815091" lon="12.217311835597657"><ele>-0.14285714285714285</ele><time>2026-04-12T11:01:54Z</time></trkpt><trkpt lat="44.57953479034004" lon="12.217401920390243"><ele>-0.2857142857142857</ele><time>2026-04-12T11:01:57.999Z</time></trkpt><trkpt lat="44.57960716226127" lon="12.21740717951136"><ele>-0.42857142857142855</ele><time>2026-04-12T11:02:03Z</time></trkpt><trkpt lat="44.579644565899535" lon="12.217326546687335"><ele>-0.5714285714285714</ele><time>2026-04-12T11:02:06Z</time></trkpt><trkpt lat="44.57967570305143" lon="12.217235038976783"><ele>-0.7142857142857142</ele><time>2026-04-12T11:02:11Z</time></trkpt><trkpt lat="44.579712234943344" lon="12.21715068751833"><ele>-0.8571428571428571</ele><time>2026-04-12T11:02:17Z</time></trkpt><trkpt lat="44.579656175923866" lon="12.217079363440991"><ele>-1.0</ele><time>2026-04-12T11:02:21Z</time></trkpt><trkpt lat="44.57960629762007" lon="12.217013449709968"><ele>-1.1428571428571428</ele><time>2026-04-12T11:02:24Z</time></trkpt><trkpt lat="44.579595817759056" lon="12.216917025333462"><ele>-1.2857142857142856</ele><time>2026-04-12T11:02:30Z</time></trkpt><trkpt lat="44.5796450567116" lon="12.21698112056473"><ele>-1.4285714285714284</ele><time>2026-04-12T11:25:09Z</time></trkpt><trkpt lat="44.57970799006022" lon="12.217016765636588"><ele>-1.5714285714285714</ele><time>2026-04-12T11:25:14Z</time></trkpt><trkpt lat="44.57977406692095" lon="12.217015659434614"><ele>-1.714285714285714</ele><time>2026-04-12T11:25:20Z</time></trkpt><trkpt lat="44.5798088803885" lon="12.216940888856527"><ele>-1.857142857142857</ele><time>2026-04-12T11:25:46Z</time></trkpt><trkpt lat="44.57985289966102" lon="12.216860308521053"><ele>-2.0</ele><time>2026-04-12T11:25:50Z</time></trkpt><trkpt lat="44.579892942316484" lon="12.216785949922889"><ele>-1.9999999999999998</ele><time>2026-04-12T11:25:53Z</time></trkpt><trkpt lat="44.57994380312137" lon="12.216702249422232"><ele>-2.0</ele><time>2026-04-12T11:25:56Z</time></trkpt><trkpt lat="44.579983987138434" lon="12.2166115134421"><ele>-2.0</ele><time>2026-04-12T11:25:59Z</time></trkpt><trkpt lat="44.58002534222354" lon="12.216527337081654"><ele>-2.0</ele><time>2026-04-12T11:26:02Z</time></trkpt><trkpt lat="44.58007036687292" lon="12.216443351603578"><ele>-1.9999999999999998</ele><time>2026-04-12T11:26:05Z</time></trkpt><trkpt lat="44.580119983612505" lon="12.216332248367962"><ele>-2.0</ele><time>2026-04-12T11:26:08Z</time></trkpt><trkpt lat="44.58015975172738" lon="12.216254375493131"><ele>-2.0</ele><time>2026-04-12T11:26:10Z</time></trkpt><trkpt lat="44.58019748564135" lon="12.216172183089705"><ele>-1.9999999999999998</ele><time>2026-04-12T11:26:12Z</time></trkpt><trkpt lat="44.580236995876724" lon="12.216100570384508"><ele>-2.0</ele><time>2026-04-12T11:26:14Z</time></trkpt><trkpt lat="44.58026855442365" lon="12.216023537787434"><ele>-2.0</ele><time>2026-04-12T11:26:16Z</time></trkpt><trkpt lat="44.58030751571484" lon="12.215928490023872"><ele>-1.9999999999999998</ele><time>2026-04-12T11:26:19Z</time></trkpt><trkpt lat="44.580355612631216" lon="12.215854926061398"><ele>-2.0</ele><time>2026-04-12T11:26:24Z</time></trkpt><trkpt lat="44.580395999851376" lon="12.21577357270018"><ele>-2.0</ele><time>2026-04-12T11:26:29Z</time></trkpt><trkpt lat="44.580430383115825" lon="12.215694850512829"><ele>-2.1666666666666665</ele><time>2026-04-12T11:26:36Z</time></trkpt><trkpt lat="44.580472863918075" lon="12.215600021590049"><ele>-2.333333333333333</ele><time>2026-04-12T11:27:24Z</time></trkpt><trkpt lat="44.580510050878765" lon="12.215513599156855"><ele>-2.5</ele><time>2026-04-12T11:27:27Z</time></trkpt><trkpt lat="44.58056096087491" lon="12.215415846826911"><ele>-2.6666666666666665</ele><time>2026-04-12T11:27:30Z</time></trkpt><trkpt lat="44.58061378155413" lon="12.215310981461458"><ele>-2.8333333333333335</ele><time>2026-04-12T11:27:33Z</time></trkpt><trkpt lat="44.58065477874276" lon="12.215230398832844"><ele>-3.0</ele><time>2026-04-12T11:27:35Z</time></trkpt><trkpt lat="44.58069226172453" lon="12.215145612376253"><ele>-3.0</ele><time>2026-04-12T11:27:37Z</time></trkpt><trkpt lat="44.58073461252086" lon="12.21507130265857"><ele>-3.0</ele><time>2026-04-12T11:27:39Z</time></trkpt><trkpt lat="44.58076967424121" lon="12.21499519231866"><ele>-3.0</ele><time>2026-04-12T11:27:41Z</time></trkpt><trkpt lat="44.58080793516245" lon="12.214907850592615"><ele>-3.0</ele><time>2026-04-12T11:27:43Z</time></trkpt><trkpt lat="44.58085605452734" lon="12.21480992505064"><ele>-3.0</ele><time>2026-04-12T11:27:45Z</time></trkpt><trkpt lat="44.58090990598466" lon="12.214705914601053"><ele>-3.0</ele><time>2026-04-12T11:27:47Z</time></trkpt><trkpt lat="44.580957269049364" lon="12.214598378282398"><ele>-3.0</ele><time>2026-04-12T11:27:49Z</time></trkpt><trkpt lat="44.58100674915858" lon="12.214500884623567"><ele>-3.0</ele><time>2026-04-12T11:27:51Z</time></trkpt><trkpt lat="44.5810541309687" lon="12.214405826009708"><ele>-3.0</ele><time>2026-04-12T11:27:53Z</time></trkpt><trkpt lat="44.58110116173941" lon="12.214317355173378"><ele>-3.0</ele><time>2026-04-12T11:27:55Z</time></trkpt><trkpt lat="44.5811387840142" lon="12.214225589399769"><ele>-3.0</ele><time>2026-04-12T11:27:57Z</time></trkpt><trkpt lat="44.58117828293285" lon="12.214142513616585"><ele>-3.0</ele><time>2026-04-12T11:27:59Z</time></trkpt><trkpt lat="44.58122655957003" lon="12.21405793207091"><ele>-3.0</ele><time>2026-04-12T11:28:01Z</time></trkpt><trkpt lat="44.581274603188234" lon="12.213956659359008"><ele>-3.0</ele><time>2026-04-12T11:28:03Z</time></trkpt><trkpt lat="44.581313220900284" lon="12.213859009720268"><ele>-3.0</ele><time>2026-04-12T11:28:05Z</time></trkpt><trkpt lat="44.581342741506916" lon="12.213768782530806"><ele>-3.0</ele><time>2026-04-12T11:28:07Z</time></trkpt><trkpt lat="44.58137376021035" lon="12.213681076167918"><ele>-3.0</ele><time>2026-04-12T11:28:09Z</time></trkpt><trkpt lat="44.581414972116214" lon="12.213587009244868"><ele>-3.0</ele><time>2026-04-12T11:28:12Z</time></trkpt><trkpt lat="44.58145703741856" lon="12.213503458964633"><ele>-3.0</ele><time>2026-04-12T11:29:08Z</time></trkpt><trkpt lat="44.581496893141754" lon="12.213405323653426"><ele>-3.0</ele><time>2026-04-12T11:29:11Z</time></trkpt><trkpt lat="44.58152709188635" lon="12.21332424267843"><ele>-3.0</ele><time>2026-04-12T11:29:13Z</time></trkpt><trkpt lat="44.58156161766391" lon="12.213237798705885"><ele>-3.0</ele><time>2026-04-12T11:29:15Z</time></trkpt><trkpt lat="44.58159842728763" lon="12.2131425553066"><ele>-3.0</ele><time>2026-04-12T11:29:17Z</time></trkpt><trkpt lat="44.581633580358584" lon="12.21303792240425"><ele>-3.0</ele><time>2026-04-12T11:29:19Z</time></trkpt><trkpt lat="44.581676579126785" lon="12.212938027515866"><ele>-3.0</ele><time>2026-04-12T11:29:21Z</time></trkpt><trkpt lat="44.58170795244586" lon="12.212833253157282"><ele>-3.0</ele><time>2026-04-12T11:29:23Z</time></trkpt><trkpt lat="44.58175353856333" lon="12.212738192687949"><ele>-3.0</ele><time>2026-04-12T11:29:25Z</time></trkpt><trkpt lat="44.58179881543447" lon="12.212626206106785"><ele>-3.0</ele><time>2026-04-12T11:29:27Z</time></trkpt><trkpt lat="44.581847242055005" lon="12.212506072914513"><ele>-3.0</ele><time>2026-04-12T11:29:29Z</time></trkpt><trkpt lat="44.58189529994245" lon="12.212381095495767"><ele>-3.0</ele><time>2026-04-12T11:29:31Z</time></trkpt><trkpt lat="44.58193724762195" lon="12.21224493701522"><ele>-3.0</ele><time>2026-04-12T11:29:33Z</time></trkpt><trkpt lat="44.581984402502705" lon="12.212143459289377"><ele>-3.0</ele><time>2026-04-12T11:29:35Z</time></trkpt><trkpt lat="44.582025738236176" lon="12.212034967376358"><ele>-3.0</ele><time>2026-04-12T11:29:37Z</time></trkpt><trkpt lat="44.582069696705254" lon="12.211931839952387"><ele>-3.0</ele><time>2026-04-12T11:29:39Z</time></trkpt><trkpt lat="44.582110051690414" lon="12.21183054334597"><ele>-3.0</ele><time>2026-04-12T11:29:41Z</time></trkpt><trkpt lat="44.582154957947125" lon="12.211724856977678"><ele>-3.0</ele><time>2026-04-12T11:29:43Z</time></trkpt><trkpt lat="44.58218820251433" lon="12.211638092674225"><ele>-3.0</ele><time>2026-04-12T11:29:45Z</time></trkpt><trkpt lat="44.58222193738392" lon="12.211549095814076"><ele>-3.0</ele><time>2026-04-12T11:29:47Z</time></trkpt><trkpt lat="44.58225537647475" lon="12.211463836461375"><ele>-3.0</ele><time>2026-04-12T11:29:49Z</time></trkpt><trkpt lat="44.582294991944885" lon="12.211368235646349"><ele>-3.0</ele><time>2026-04-12T11:29:51Z</time></trkpt><trkpt lat="44.582335553899654" lon="12.211265445805054"><ele>-3.0</ele><time>2026-04-12T11:29:53Z</time></trkpt><trkpt lat="44.582373344937466" lon="12.211172056301374"><ele>-3.0</ele><time>2026-04-12T11:29:55Z</time></trkpt><trkpt lat="44.58240860502449" lon="12.21108048755392"><ele>-3.0</ele><time>2026-04-12T11:29:57Z</time></trkpt><trkpt lat="44.58244182623438" lon="12.210985375679485"><ele>-3.0</ele><time>2026-04-12T11:29:59Z</time></trkpt><trkpt lat="44.58248577478838" lon="12.210875778531621"><ele>-3.0</ele><time>2026-04-12T11:30:01Z</time></trkpt><trkpt lat="44.58252263424959" lon="12.210774299023916"><ele>-3.0</ele><time>2026-04-12T11:30:03Z</time></trkpt><trkpt lat="44.58255959843848" lon="12.210680843174911"><ele>-3.0</ele><time>2026-04-12T11:30:05Z</time></trkpt><trkpt lat="44.58259755670485" lon="12.210590433308694"><ele>-3.0</ele><time>2026-04-12T11:30:07Z</time></trkpt><trkpt lat="44.58263746132733" lon="12.210484481931008"><ele>-3.0</ele><time>2026-04-12T11:30:09Z</time></trkpt><trkpt lat="44.582686050202994" lon="12.210377318693398"><ele>-3.0</ele><time>2026-04-12T11:30:11Z</time></trkpt><trkpt lat="44.58273152453767" lon="12.210265057358857"><ele>-3.0</ele><time>2026-04-12T11:30:13Z</time></trkpt><trkpt lat="44.58276716863333" lon="12.210163922695358"><ele>-3.0</ele><time>2026-04-12T11:30:15Z</time></trkpt><trkpt lat="44.582802875593416" lon="12.210061607944077"><ele>-3.0</ele><time>2026-04-12T11:30:17Z</time></trkpt><trkpt lat="44.58283713897193" lon="12.209967792760121"><ele>-3.0</ele><time>2026-04-12T11:30:19Z</time></trkpt><trkpt lat="44.58288237986247" lon="12.209868866220928"><ele>-3.0</ele><time>2026-04-12T11:30:21Z</time></trkpt><trkpt lat="44.58292350683824" lon="12.209761638803991"><ele>-3.0</ele><time>2026-04-12T11:30:23Z</time></trkpt><trkpt lat="44.582971870509226" lon="12.209653738618409"><ele>-3.0</ele><time>2026-04-12T11:30:25Z</time></trkpt><trkpt lat="44.583016374201236" lon="12.209549138268715"><ele>-3.0</ele><time>2026-04-12T11:30:27Z</time></trkpt><trkpt lat="44.583073767066026" lon="12.209466903512615"><ele>-3.0</ele><time>2026-04-12T11:30:29Z</time></trkpt><trkpt lat="44.58313926413918" lon="12.209395614215541"><ele>-3.0</ele><time>2026-04-12T11:30:31Z</time></trkpt><trkpt lat="44.58320409550606" lon="12.209329960366475"><ele>-3.0</ele><time>2026-04-12T11:30:33Z</time></trkpt><trkpt lat="44.583282824657694" lon="12.209255576344873"><ele>-3.0</ele><time>2026-04-12T11:30:35Z</time></trkpt><trkpt lat="44.5833607180115" lon="12.209198994454574"><ele>-3.0</ele><time>2026-04-12T11:30:37Z</time></trkpt><trkpt lat="44.58343670581104" lon="12.20912257068508"><ele>-3.0</ele><time>2026-04-12T11:30:39Z</time></trkpt><trkpt lat="44.583501692609055" lon="12.209061843632652"><ele>-3.0</ele><time>2026-04-12T11:30:41Z</time></trkpt><trkpt lat="44.583538828112495" lon="12.208960915833728"><ele>-2.9999999999999996</ele><time>2026-04-12T11:30:43Z</time></trkpt><trkpt lat="44.583527861083574" lon="12.208849753287303"><ele>-3.0</ele><time>2026-04-12T11:30:45Z</time></trkpt><trkpt lat="44.583511754315474" lon="12.20874396914506"><ele>-3.0</ele><time>2026-04-12T11:30:47Z</time></trkpt><trkpt lat="44.583486217128396" lon="12.208651681909055"><ele>-3.0</ele><time>2026-04-12T11:30:49Z</time></trkpt><trkpt lat="44.58346903609176" lon="12.208549649830129"><ele>-3.0</ele><time>2026-04-12T11:30:51Z</time></trkpt><trkpt lat="44.58349399013682" lon="12.208447642457969"><ele>-2.9999999999999996</ele><time>2026-04-12T11:30:53Z</time></trkpt><trkpt lat="44.58353326609928" lon="12.208372042458034"><ele>-3.0</ele><time>2026-04-12T11:30:55Z</time></trkpt><trkpt lat="44.583569673265636" lon="12.208288715543329"><ele>-3.0</ele><time>2026-04-12T11:30:57Z</time></trkpt><trkpt lat="44.58360871131554" lon="12.20819878669161"><ele>-3.0</ele><time>2026-04-12T11:30:59Z</time></trkpt><trkpt lat="44.583654244683466" lon="12.208109855264306"><ele>-3.0</ele><time>2026-04-12T11:31:01Z</time></trkpt><trkpt lat="44.583695964329316" lon="12.208016826428885"><ele>-3.0</ele><time>2026-04-12T11:31:03Z</time></trkpt><trkpt lat="44.58374142043226" lon="12.207920369434499"><ele>-3.0</ele><time>2026-04-12T11:31:05Z</time></trkpt><trkpt lat="44.58378382076796" lon="12.207818585398156"><ele>-3.0</ele><time>2026-04-12T11:31:07Z</time></trkpt><trkpt lat="44.583832383524864" lon="12.207719253071549"><ele>-3.0</ele><time>2026-04-12T11:31:09Z</time></trkpt><trkpt lat="44.58387760717364" lon="12.207614763853163"><ele>-3.0</ele><time>2026-04-12T11:31:11Z</time></trkpt><trkpt lat="44.58392458304981" lon="12.20752817160656"><ele>-3.0</ele><time>2026-04-12T11:31:13Z</time></trkpt><trkpt lat="44.58396585786168" lon="12.207428952132028"><ele>-3.0</ele><time>2026-04-12T11:31:15Z</time></trkpt><trkpt lat="44.584006835772236" lon="12.20734223156612"><ele>-3.0</ele><time>2026-04-12T11:31:17Z</time></trkpt><trkpt lat="44.584061506602986" lon="12.207221122762117"><ele>-3.0</ele><time>2026-04-12T11:31:20Z</time></trkpt><trkpt lat="44.58410724518296" lon="12.207119577498132"><ele>-2.9999999999999996</ele><time>2026-04-12T11:31:22Z</time></trkpt><trkpt lat="44.58415090643839" lon="12.20703059216921"><ele>-3.0</ele><time>2026-04-12T11:31:24Z</time></trkpt><trkpt lat="44.584182759661324" lon="12.206949740277238"><ele>-3.0</ele><time>2026-04-12T11:31:26Z</time></trkpt><trkpt lat="44.58422022038571" lon="12.206875494704557"><ele>-3.0</ele><time>2026-04-12T11:32:11Z</time></trkpt><trkpt lat="44.58425722444639" lon="12.206800316092856"><ele>-3.0</ele><time>2026-04-12T11:32:15Z</time></trkpt><trkpt lat="44.58429933723762" lon="12.20669905444541"><ele>-2.9999999999999996</ele><time>2026-04-12T11:32:18Z</time></trkpt><trkpt lat="44.58433284716007" lon="12.206621119229869"><ele>-3.0</ele><time>2026-04-12T11:32:20Z</time></trkpt><trkpt lat="44.58438009363973" lon="12.206538136555997"><ele>-2.9999999999999996</ele><time>2026-04-12T11:32:22Z</time></trkpt><trkpt lat="44.58441370397382" lon="12.20644676054651"><ele>-3.0</ele><time>2026-04-12T11:32:24Z</time></trkpt><trkpt lat="44.584456392218364" lon="12.206353056688208"><ele>-3.0</ele><time>2026-04-12T11:32:26Z</time></trkpt><trkpt lat="44.5844993564233" lon="12.206260519505415"><ele>-3.0</ele><time>2026-04-12T11:32:28Z</time></trkpt><trkpt lat="44.584539303895816" lon="12.206171450215187"><ele>-3.0</ele><time>2026-04-12T11:32:30Z</time></trkpt><trkpt lat="44.584574992598334" lon="12.206086664944918"><ele>-2.9999999999999996</ele><time>2026-04-12T11:32:32Z</time></trkpt><trkpt lat="44.58461157537655" lon="12.206005703758883"><ele>-3.0</ele><time>2026-04-12T11:32:34Z</time></trkpt><trkpt lat="44.58465981540791" lon="12.205929360139766"><ele>-2.9999999999999996</ele><time>2026-04-12T11:32:36Z</time></trkpt><trkpt lat="44.58469341557668" lon="12.20584296736889"><ele>-3.0</ele><time>2026-04-12T11:32:38Z</time></trkpt><trkpt lat="44.584731417951566" lon="12.2057626441027"><ele>-3.0</ele><time>2026-04-12T11:32:40Z</time></trkpt><trkpt lat="44.58477606595947" lon="12.205686882754174"><ele>-3.0</ele><time>2026-04-12T11:32:42Z</time></trkpt><trkpt lat="44.58481510375823" lon="12.205589230160518"><ele>-3.0</ele><time>2026-04-12T11:32:44Z</time></trkpt><trkpt lat="44.584855545573326" lon="12.205501323113193"><ele>-2.9999999999999996</ele><time>2026-04-12T11:32:46Z</time></trkpt><trkpt lat="44.58489258937867" lon="12.205416167243676"><ele>-3.0</ele><time>2026-04-12T11:32:48Z</time></trkpt><trkpt lat="44.584929178293066" lon="12.205333455222013"><ele>-3.0</ele><time>2026-04-12T11:32:50Z</time></trkpt><trkpt lat="44.5849660716725" lon="12.205248655471223"><ele>-3.0</ele><time>2026-04-12T11:32:52Z</time></trkpt><trkpt lat="44.585012223588215" lon="12.205164634046806"><ele>-3.0</ele><time>2026-04-12T11:32:54Z</time></trkpt><trkpt lat="44.585060192413046" lon="12.205074570735466"><ele>-3.0</ele><time>2026-04-12T11:32:56Z</time></trkpt><trkpt lat="44.58509773134819" lon="12.20497522903591"><ele>-3.0</ele><time>2026-04-12T11:32:58Z</time></trkpt><trkpt lat="44.58514681726648" lon="12.204879649297059"><ele>-3.0</ele><time>2026-04-12T11:33:00Z</time></trkpt><trkpt lat="44.585187484611914" lon="12.204778983831922"><ele>-2.9999999999999996</ele><time>2026-04-12T11:33:02Z</time></trkpt><trkpt lat="44.585228369858406" lon="12.204687550976454"><ele>-3.0</ele><time>2026-04-12T11:33:04Z</time></trkpt><trkpt lat="44.585274283664454" lon="12.20460401038828"><ele>-3.0</ele><time>2026-04-12T11:33:06Z</time></trkpt><trkpt lat="44.585311219018706" lon="12.204518758299468"><ele>-3.0</ele><time>2026-04-12T11:33:08Z</time></trkpt><trkpt lat="44.58535032170478" lon="12.204435519342884"><ele>-3.0</ele><time>2026-04-12T11:33:10Z</time></trkpt><trkpt lat="44.58538991143757" lon="12.204343684011473"><ele>-2.9999999999999996</ele><time>2026-04-12T11:33:12Z</time></trkpt><trkpt lat="44.58543190198167" lon="12.20425914135622"><ele>-3.0</ele><time>2026-04-12T11:33:14Z</time></trkpt><trkpt lat="44.58546979397505" lon="12.204182767072366"><ele>-3.0</ele><time>2026-04-12T11:33:16Z</time></trkpt><trkpt lat="44.585502570897695" lon="12.204106316897008"><ele>-3.0</ele><time>2026-04-12T11:33:18Z</time></trkpt><trkpt lat="44.58555034050589" lon="12.203995799250574"><ele>-3.0</ele><time>2026-04-12T11:33:21Z</time></trkpt><trkpt lat="44.58559700074841" lon="12.203897333604228"><ele>-3.0</ele><time>2026-04-12T11:33:23Z</time></trkpt><trkpt lat="44.5856411171738" lon="12.203807980090007"><ele>-3.0</ele><time>2026-04-12T11:33:25Z</time></trkpt><trkpt lat="44.585682946009335" lon="12.203707287254215"><ele>-3.0</ele><time>2026-04-12T11:33:27Z</time></trkpt><trkpt lat="44.58572800112925" lon="12.203605816025059"><ele>-3.0</ele><time>2026-04-12T11:33:29Z</time></trkpt><trkpt lat="44.58577517849013" lon="12.203504617018059"><ele>-3.0</ele><time>2026-04-12T11:33:31Z</time></trkpt><trkpt lat="44.58582334442685" lon="12.203411967939601"><ele>-3.0</ele><time>2026-04-12T11:33:33Z</time></trkpt><trkpt lat="44.585868254485796" lon="12.203324315286604"><ele>-3.0</ele><time>2026-04-12T11:33:35Z</time></trkpt><trkpt lat="44.58590226405795" lon="12.203231474380756"><ele>-3.0</ele><time>2026-04-12T11:33:37Z</time></trkpt><trkpt lat="44.58594775793888" lon="12.203144627184397"><ele>-3.0</ele><time>2026-04-12T11:33:39Z</time></trkpt><trkpt lat="44.58599064618452" lon="12.203047306164862"><ele>-3.0</ele><time>2026-04-12T11:33:41Z</time></trkpt><trkpt lat="44.58603767981859" lon="12.202946111713317"><ele>-3.0</ele><time>2026-04-12T11:33:43Z</time></trkpt><trkpt lat="44.58608815557379" lon="12.202841209226372"><ele>-3.0</ele><time>2026-04-12T11:33:45Z</time></trkpt><trkpt lat="44.58613687962372" lon="12.202730515779566"><ele>-3.0</ele><time>2026-04-12T11:33:47Z</time></trkpt><trkpt lat="44.58619052509772" lon="12.202618568590914"><ele>-3.0</ele><time>2026-04-12T11:33:49Z</time></trkpt><trkpt lat="44.586244785250685" lon="12.202505227379199"><ele>-3.0</ele><time>2026-04-12T11:33:51Z</time></trkpt><trkpt lat="44.58629928281475" lon="12.20240476803186"><ele>-3.0</ele><time>2026-04-12T11:33:53Z</time></trkpt><trkpt lat="44.586363656735074" lon="12.20232118369683"><ele>-3.0</ele><time>2026-04-12T11:33:55Z</time></trkpt><trkpt lat="44.58642858508954" lon="12.202245894499011"><ele>-3.0</ele><time>2026-04-12T11:33:57Z</time></trkpt><trkpt lat="44.58649944722492" lon="12.202160962407994"><ele>-3.0</ele><time>2026-04-12T11:33:59Z</time></trkpt><trkpt lat="44.58657580198723" lon="12.202076338788785"><ele>-3.0</ele><time>2026-04-12T11:34:01Z</time></trkpt><trkpt lat="44.58665511234438" lon="12.201990329529558"><ele>-3.0</ele><time>2026-04-12T11:34:03Z</time></trkpt><trkpt lat="44.58672472928805" lon="12.201914849141808"><ele>-3.0</ele><time>2026-04-12T11:34:05Z</time></trkpt><trkpt lat="44.58681405216597" lon="12.201827354319075"><ele>-3.0</ele><time>2026-04-12T11:34:07Z</time></trkpt><trkpt lat="44.586893587595526" lon="12.201770770120074"><ele>-3.0</ele><time>2026-04-12T11:34:09Z</time></trkpt><trkpt lat="44.58696659605325" lon="12.201713218738847"><ele>-3.0</ele><time>2026-04-12T11:34:11Z</time></trkpt><trkpt lat="44.58703380590246" lon="12.201650790552499"><ele>-3.0</ele><time>2026-04-12T11:34:13Z</time></trkpt><trkpt lat="44.58710156365528" lon="12.201600991513565"><ele>-3.0</ele><time>2026-04-12T11:34:15Z</time></trkpt><trkpt lat="44.58717877313819" lon="12.20154875122656"><ele>-3.0</ele><time>2026-04-12T11:34:17Z</time></trkpt><trkpt lat="44.58725284959727" lon="12.20149607991183"><ele>-3.0</ele><time>2026-04-12T11:34:19Z</time></trkpt><trkpt lat="44.587338994684664" lon="12.201446657347505"><ele>-3.0</ele><time>2026-04-12T11:34:21Z</time></trkpt><trkpt lat="44.587434957757054" lon="12.201398405785906"><ele>-3.0</ele><time>2026-04-12T11:34:23Z</time></trkpt><trkpt lat="44.58751729026335" lon="12.201345920633246"><ele>-3.0</ele><time>2026-04-12T11:34:25Z</time></trkpt><trkpt lat="44.58759896308149" lon="12.201297547064115"><ele>-3.0</ele><time>2026-04-12T11:34:27Z</time></trkpt><trkpt lat="44.587675659900796" lon="12.201254830332177"><ele>-3.0</ele><time>2026-04-12T11:34:29Z</time></trkpt><trkpt lat="44.58774990007155" lon="12.201214362575213"><ele>-3.0</ele><time>2026-04-12T11:34:31Z</time></trkpt><trkpt lat="44.587825841016546" lon="12.201192246316396"><ele>-3.0</ele><time>2026-04-12T11:34:33Z</time></trkpt><trkpt lat="44.58791097908908" lon="12.201195031953388"><ele>-3.0</ele><time>2026-04-12T11:34:35Z</time></trkpt><trkpt lat="44.587994895314026" lon="12.201196382999884"><ele>-3.0</ele><time>2026-04-12T11:34:37Z</time></trkpt><trkpt lat="44.58808140164916" lon="12.201201811647007"><ele>-3.0</ele><time>2026-04-12T11:34:39Z</time></trkpt><trkpt lat="44.588170898864476" lon="12.201203273019003"><ele>-3.0</ele><time>2026-04-12T11:34:41Z</time></trkpt><trkpt lat="44.58826407172926" lon="12.201209248716847"><ele>-3.0</ele><time>2026-04-12T11:34:43Z</time></trkpt><trkpt lat="44.588359697294585" lon="12.201212002204095"><ele>-3.0</ele><time>2026-04-12T11:34:45Z</time></trkpt><trkpt lat="44.588453887563105" lon="12.201211566567745"><ele>-3.0</ele><time>2026-04-12T11:34:47Z</time></trkpt><trkpt lat="44.58855019403269" lon="12.20121581156163"><ele>-3.0</ele><time>2026-04-12T11:34:49Z</time></trkpt><trkpt lat="44.58864464581772" lon="12.201215321358843"><ele>-3.0</ele><time>2026-04-12T11:34:51Z</time></trkpt><trkpt lat="44.588732356992736" lon="12.201227169991268"><ele>-3.0</ele><time>2026-04-12T11:34:53Z</time></trkpt><trkpt lat="44.58880699849983" lon="12.201284408340658"><ele>-3.0</ele><time>2026-04-12T11:34:55Z</time></trkpt><trkpt lat="44.58885740484111" lon="12.2013569930581"><ele>-3.0</ele><time>2026-04-12T11:34:57Z</time></trkpt><trkpt lat="44.588906765262124" lon="12.201419098543283"><ele>-2.9999999999999996</ele><time>2026-04-12T11:34:59Z</time></trkpt><trkpt lat="44.58895463448244" lon="12.20147978736026"><ele>-3.0</ele><time>2026-04-12T11:35:01Z</time></trkpt><trkpt lat="44.58901254808964" lon="12.201544813352973"><ele>-3.0</ele><time>2026-04-12T11:35:03Z</time></trkpt><trkpt lat="44.58907132744206" lon="12.201614323083884"><ele>-3.0</ele><time>2026-04-12T11:35:05Z</time></trkpt><trkpt lat="44.58912496461306" lon="12.201680897669961"><ele>-3.0</ele><time>2026-04-12T11:35:07Z</time></trkpt><trkpt lat="44.58918246722919" lon="12.201748265607492"><ele>-2.9999999999999996</ele><time>2026-04-12T11:35:09Z</time></trkpt><trkpt lat="44.58924139668443" lon="12.201814244705622"><ele>-3.0</ele><time>2026-04-12T11:35:11Z</time></trkpt><trkpt lat="44.58929772851516" lon="12.201879273172652"><ele>-3.0</ele><time>2026-04-12T11:35:13Z</time></trkpt><trkpt lat="44.58935801896118" lon="12.201951033596202"><ele>-3.0</ele><time>2026-04-12T11:35:15Z</time></trkpt><trkpt lat="44.589415652091354" lon="12.202026018390306"><ele>-3.0</ele><time>2026-04-12T11:35:17Z</time></trkpt><trkpt lat="44.5894782485745" lon="12.202102413649103"><ele>-3.0</ele><time>2026-04-12T11:35:19Z</time></trkpt><trkpt lat="44.5895376459808" lon="12.202169476686093"><ele>-3.0</ele><time>2026-04-12T11:35:21Z</time></trkpt><trkpt lat="44.58959354074972" lon="12.202240391295012"><ele>-3.0</ele><time>2026-04-12T11:35:23Z</time></trkpt><trkpt lat="44.589651265141846" lon="12.202309213481714"><ele>-3.0</ele><time>2026-04-12T11:35:25Z</time></trkpt><trkpt lat="44.589710282851854" lon="12.202375591837862"><ele>-3.0</ele><time>2026-04-12T11:35:27Z</time></trkpt><trkpt lat="44.58976911855235" lon="12.202443493056643"><ele>-3.0</ele><time>2026-04-12T11:35:29Z</time></trkpt><trkpt lat="44.58983054695881" lon="12.202508620331376"><ele>-3.0</ele><time>2026-04-12T11:35:31Z</time></trkpt><trkpt lat="44.58988364607275" lon="12.202580178742819"><ele>-3.0</ele><time>2026-04-12T11:35:33Z</time></trkpt><trkpt lat="44.58994208592061" lon="12.202645029605376"><ele>-3.0</ele><time>2026-04-12T11:35:35Z</time></trkpt><trkpt lat="44.59000107718729" lon="12.202711363276071"><ele>-2.9999999999999996</ele><time>2026-04-12T11:35:37Z</time></trkpt><trkpt lat="44.5900558961209" lon="12.202775112184279"><ele>-3.0</ele><time>2026-04-12T11:35:39Z</time></trkpt><trkpt lat="44.59010978541654" lon="12.20284946479241"><ele>-3.0</ele><time>2026-04-12T11:35:41Z</time></trkpt><trkpt lat="44.59016976234199" lon="12.202915118331623"><ele>-3.0</ele><time>2026-04-12T11:35:43Z</time></trkpt><trkpt lat="44.59022844295891" lon="12.202982917068702"><ele>-3.0</ele><time>2026-04-12T11:35:45Z</time></trkpt><trkpt lat="44.59028499253651" lon="12.203043857253936"><ele>-2.9999999999999996</ele><time>2026-04-12T11:35:47Z</time></trkpt><trkpt lat="44.59034099583908" lon="12.20311046622304"><ele>-3.0</ele><time>2026-04-12T11:35:49Z</time></trkpt><trkpt lat="44.59040165115158" lon="12.203157747357785"><ele>-3.0</ele><time>2026-04-12T11:35:51Z</time></trkpt><trkpt lat="44.59045232760809" lon="12.203246255479185"><ele>-3.0</ele><time>2026-04-12T11:35:53Z</time></trkpt><trkpt lat="44.590516224167175" lon="12.203310126885182"><ele>-3.0</ele><time>2026-04-12T11:35:55Z</time></trkpt><trkpt lat="44.590573869310646" lon="12.203380327138442"><ele>-3.0</ele><time>2026-04-12T11:35:57Z</time></trkpt><trkpt lat="44.59063406249218" lon="12.203445859598919"><ele>-3.0</ele><time>2026-04-12T11:35:59Z</time></trkpt><trkpt lat="44.59069199213253" lon="12.20351355259278"><ele>-3.0</ele><time>2026-04-12T11:36:01Z</time></trkpt><trkpt lat="44.59074700130455" lon="12.20358305387883"><ele>-2.9999999999999996</ele><time>2026-04-12T11:36:03Z</time></trkpt><trkpt lat="44.59080465681474" lon="12.203651334892573"><ele>-3.0</ele><time>2026-04-12T11:36:05Z</time></trkpt><trkpt lat="44.590858662543354" lon="12.203715710197018"><ele>-3.0</ele><time>2026-04-12T11:36:07Z</time></trkpt><trkpt lat="44.590917827370355" lon="12.203774426562486"><ele>-3.0</ele><time>2026-04-12T11:36:09Z</time></trkpt><trkpt lat="44.59097370541982" lon="12.20383900454356"><ele>-3.0</ele><time>2026-04-12T11:36:11Z</time></trkpt><trkpt lat="44.59101996229917" lon="12.203899001230964"><ele>-2.9999999999999996</ele><time>2026-04-12T11:36:13Z</time></trkpt><trkpt lat="44.59107889613549" lon="12.203971022301877"><ele>-3.0</ele><time>2026-04-12T11:36:21Z</time></trkpt><trkpt lat="44.59114926131528" lon="12.204059347525725"><ele>-3.0</ele><time>2026-04-12T11:36:24Z</time></trkpt><trkpt lat="44.59119983580748" lon="12.204116191460445"><ele>-3.0</ele><time>2026-04-12T11:36:26Z</time></trkpt><trkpt lat="44.59126927130384" lon="12.204195145223803"><ele>-3.0</ele><time>2026-04-12T11:36:29Z</time></trkpt><trkpt lat="44.59132516116142" lon="12.20426287648603"><ele>-3.0</ele><time>2026-04-12T11:36:31Z</time></trkpt><trkpt lat="44.59138052127253" lon="12.204329611698748"><ele>-3.0</ele><time>2026-04-12T11:36:33Z</time></trkpt><trkpt lat="44.59143634983416" lon="12.204394798131263"><ele>-3.0</ele><time>2026-04-12T11:36:35Z</time></trkpt><trkpt lat="44.59149868921272" lon="12.204458672866647"><ele>-2.9999999999999996</ele><time>2026-04-12T11:36:37Z</time></trkpt><trkpt lat="44.591552504957924" lon="12.20452890192148"><ele>-3.0</ele><time>2026-04-12T11:36:39Z</time></trkpt><trkpt lat="44.59161613431105" lon="12.204592188991995"><ele>-3.0</ele><time>2026-04-12T11:36:41Z</time></trkpt><trkpt lat="44.59166947834834" lon="12.204658628218485"><ele>-3.0</ele><time>2026-04-12T11:36:43Z</time></trkpt><trkpt lat="44.591727382378316" lon="12.204723179381594"><ele>-3.0</ele><time>2026-04-12T11:36:45Z</time></trkpt><trkpt lat="44.59178646351739" lon="12.204787301242925"><ele>-2.9999999999999996</ele><time>2026-04-12T11:36:47Z</time></trkpt><trkpt lat="44.59184705637769" lon="12.204851771754857"><ele>-3.0</ele><time>2026-04-12T11:36:49Z</time></trkpt><trkpt lat="44.5919020700625" lon="12.204914590268368"><ele>-3.0</ele><time>2026-04-12T11:36:51Z</time></trkpt><trkpt lat="44.59197752034038" lon="12.204990387285573"><ele>-3.0</ele><time>2026-04-12T11:36:54Z</time></trkpt><trkpt lat="44.59204271352546" lon="12.20505595559094"><ele>-3.0</ele><time>2026-04-12T11:36:56Z</time></trkpt><trkpt lat="44.59209643001281" lon="12.20512566315836"><ele>-3.0</ele><time>2026-04-12T11:36:58Z</time></trkpt><trkpt lat="44.59215776232003" lon="12.205191224464782"><ele>-3.0</ele><time>2026-04-12T11:37:00Z</time></trkpt><trkpt lat="44.5922178798716" lon="12.205268473121498"><ele>-3.0</ele><time>2026-04-12T11:37:02Z</time></trkpt><trkpt lat="44.59228163048291" lon="12.205329756680943"><ele>-3.0</ele><time>2026-04-12T11:37:04Z</time></trkpt><trkpt lat="44.59233610096851" lon="12.20540759331581"><ele>-3.0</ele><time>2026-04-12T11:37:06Z</time></trkpt><trkpt lat="44.59239701742654" lon="12.205467284949652"><ele>-3.0</ele><time>2026-04-12T11:37:08Z</time></trkpt><trkpt lat="44.59247420821763" lon="12.205553251653818"><ele>-3.0</ele><time>2026-04-12T11:37:11Z</time></trkpt><trkpt lat="44.59252915138455" lon="12.205622264265273"><ele>-3.0</ele><time>2026-04-12T11:37:13Z</time></trkpt><trkpt lat="44.592587445641854" lon="12.20568628671194"><ele>-3.0</ele><time>2026-04-12T11:37:15Z</time></trkpt><trkpt lat="44.592649161336496" lon="12.205755583754154"><ele>-3.0</ele><time>2026-04-12T11:37:17Z</time></trkpt><trkpt lat="44.59271063988509" lon="12.205822868613335"><ele>-3.0</ele><time>2026-04-12T11:37:19Z</time></trkpt><trkpt lat="44.59277258935789" lon="12.205891548305493"><ele>-3.0</ele><time>2026-04-12T11:37:21Z</time></trkpt><trkpt lat="44.59283205776941" lon="12.205961619532097"><ele>-3.0</ele><time>2026-04-12T11:37:23Z</time></trkpt><trkpt lat="44.59289366961394" lon="12.206031911588159"><ele>-3.0</ele><time>2026-04-12T11:37:25Z</time></trkpt><trkpt lat="44.59295843097983" lon="12.206102890568877"><ele>-3.0</ele><time>2026-04-12T11:37:27Z</time></trkpt><trkpt lat="44.59301577700763" lon="12.206174160586219"><ele>-3.0</ele><time>2026-04-12T11:37:29Z</time></trkpt><trkpt lat="44.59307759055253" lon="12.206247076336426"><ele>-3.0</ele><time>2026-04-12T11:37:31Z</time></trkpt><trkpt lat="44.59313950786062" lon="12.20631934789873"><ele>-3.0</ele><time>2026-04-12T11:37:33Z</time></trkpt><trkpt lat="44.59321588394415" lon="12.206382888126969"><ele>-3.0</ele><time>2026-04-12T11:37:35Z</time></trkpt><trkpt lat="44.59327017649135" lon="12.20646151186863"><ele>-3.0</ele><time>2026-04-12T11:37:37Z</time></trkpt><trkpt lat="44.59333066376863" lon="12.206539695786024"><ele>-3.0</ele><time>2026-04-12T11:37:39Z</time></trkpt><trkpt lat="44.59339301524034" lon="12.206605559353118"><ele>-3.0</ele><time>2026-04-12T11:37:41Z</time></trkpt><trkpt lat="44.5934443433041" lon="12.206689856765987"><ele>-3.0</ele><time>2026-04-12T11:37:43Z</time></trkpt><trkpt lat="44.593515957106185" lon="12.20675956183767"><ele>-3.0</ele><time>2026-04-12T11:37:45Z</time></trkpt><trkpt lat="44.59357892625674" lon="12.2068333592895"><ele>-3.0</ele><time>2026-04-12T11:37:47Z</time></trkpt><trkpt lat="44.59364217417446" lon="12.206908406748365"><ele>-3.0</ele><time>2026-04-12T11:37:49Z</time></trkpt><trkpt lat="44.59370340315494" lon="12.206984250050917"><ele>-3.0</ele><time>2026-04-12T11:37:51Z</time></trkpt><trkpt lat="44.59376654794192" lon="12.207058715928392"><ele>-3.0</ele><time>2026-04-12T11:37:53Z</time></trkpt><trkpt lat="44.59383292278907" lon="12.207132305048253"><ele>-3.0</ele><time>2026-04-12T11:37:55Z</time></trkpt><trkpt lat="44.593897248701445" lon="12.207210550113762"><ele>-3.0</ele><time>2026-04-12T11:37:57Z</time></trkpt><trkpt lat="44.59396400891129" lon="12.207289315006687"><ele>-3.0</ele><time>2026-04-12T11:37:59Z</time></trkpt><trkpt lat="44.594028495007976" lon="12.207368838792993"><ele>-3.0</ele><time>2026-04-12T11:38:01Z</time></trkpt><trkpt lat="44.5940864328101" lon="12.207434682178606"><ele>-3.0</ele><time>2026-04-12T11:38:03Z</time></trkpt><trkpt lat="44.594144685439204" lon="12.207501504291528"><ele>-2.9999999999999996</ele><time>2026-04-12T11:38:05Z</time></trkpt><trkpt lat="44.594199799251356" lon="12.207565583845904"><ele>-3.0</ele><time>2026-04-12T11:38:07Z</time></trkpt><trkpt lat="44.59424803653616" lon="12.20762321660804"><ele>-3.0</ele><time>2026-04-12T11:38:09Z</time></trkpt><trkpt lat="44.59430077050311" lon="12.207677608355528"><ele>-3.0</ele><time>2026-04-12T11:38:11Z</time></trkpt><trkpt lat="44.59435762122107" lon="12.207743001536416"><ele>-3.0</ele><time>2026-04-12T11:38:13Z</time></trkpt><trkpt lat="44.59441653480657" lon="12.207809898090261"><ele>-2.9999999999999996</ele><time>2026-04-12T11:38:15Z</time></trkpt><trkpt lat="44.59447420486882" lon="12.207873314914073"><ele>-3.0</ele><time>2026-04-12T11:38:17Z</time></trkpt><trkpt lat="44.59453416995497" lon="12.207943818940224"><ele>-3.0</ele><time>2026-04-12T11:38:19Z</time></trkpt><trkpt lat="44.59459483570826" lon="12.208015493816989"><ele>-3.0</ele><time>2026-04-12T11:38:21Z</time></trkpt><trkpt lat="44.59465469329249" lon="12.208089181243468"><ele>-3.0</ele><time>2026-04-12T11:38:23Z</time></trkpt><trkpt lat="44.5947202074558" lon="12.208153489336103"><ele>-3.0</ele><time>2026-04-12T11:38:25Z</time></trkpt><trkpt lat="44.59477367348421" lon="12.208232385604715"><ele>-3.0</ele><time>2026-04-12T11:38:27Z</time></trkpt><trkpt lat="44.594840060321935" lon="12.208301173013838"><ele>-3.0</ele><time>2026-04-12T11:38:29Z</time></trkpt><trkpt lat="44.59490061841788" lon="12.208373421333148"><ele>-3.0</ele><time>2026-04-12T11:38:31Z</time></trkpt><trkpt lat="44.59496511438443" lon="12.208442716229875"><ele>-3.0</ele><time>2026-04-12T11:38:33Z</time></trkpt><trkpt lat="44.59502709495464" lon="12.20851597195264"><ele>-3.0</ele><time>2026-04-12T11:38:35Z</time></trkpt><trkpt lat="44.595089349844834" lon="12.208589091357771"><ele>-3.0</ele><time>2026-04-12T11:38:37Z</time></trkpt><trkpt lat="44.59515082999376" lon="12.208670014153846"><ele>-3.0</ele><time>2026-04-12T11:38:39Z</time></trkpt><trkpt lat="44.59521302907117" lon="12.20874165528856"><ele>-3.0</ele><time>2026-04-12T11:38:41Z</time></trkpt><trkpt lat="44.59528160511126" lon="12.208817693686834"><ele>-3.0</ele><time>2026-04-12T11:38:43Z</time></trkpt><trkpt lat="44.59535568925033" lon="12.208893910339073"><ele>-3.0</ele><time>2026-04-12T11:38:45Z</time></trkpt><trkpt lat="44.59542291949859" lon="12.20897029019091"><ele>-3.0</ele><time>2026-04-12T11:38:47Z</time></trkpt><trkpt lat="44.59547886745437" lon="12.209039698308974"><ele>-3.0</ele><time>2026-04-12T11:38:49Z</time></trkpt><trkpt lat="44.59553086878961" lon="12.209105935977057"><ele>-3.0</ele><time>2026-04-12T11:38:51Z</time></trkpt><trkpt lat="44.59561427375458" lon="12.209184982834199"><ele>-3.0</ele><time>2026-04-12T11:38:54Z</time></trkpt><trkpt lat="44.595676528495225" lon="12.209273873849645"><ele>-3.0</ele><time>2026-04-12T11:38:57Z</time></trkpt><trkpt lat="44.59573506712937" lon="12.209342516758943"><ele>-3.0</ele><time>2026-04-12T11:39:48Z</time></trkpt><trkpt lat="44.595797214504685" lon="12.209412577091756"><ele>-3.0</ele><time>2026-04-12T11:39:53Z</time></trkpt><trkpt lat="44.595852509343956" lon="12.209475681364355"><ele>-3.0</ele><time>2026-04-12T11:39:56Z</time></trkpt><trkpt lat="44.59592195413645" lon="12.209553742059208"><ele>-3.0</ele><time>2026-04-12T11:39:59Z</time></trkpt><trkpt lat="44.59599061833064" lon="12.209650076972572"><ele>-3.0</ele><time>2026-04-12T11:40:02Z</time></trkpt><trkpt lat="44.596044357018364" lon="12.209702965720071"><ele>-3.0</ele><time>2026-04-12T11:40:04Z</time></trkpt><trkpt lat="44.59609350142715" lon="12.209758287552543"><ele>-3.0</ele><time>2026-04-12T11:40:06Z</time></trkpt><trkpt lat="44.59615734814318" lon="12.209833222651698"><ele>-3.0</ele><time>2026-04-12T11:40:09Z</time></trkpt><trkpt lat="44.59622330166602" lon="12.209902895905078"><ele>-3.0</ele><time>2026-04-12T11:40:11Z</time></trkpt><trkpt lat="44.59630576770481" lon="12.209992940284264"><ele>-3.0</ele><time>2026-04-12T11:40:13Z</time></trkpt><trkpt lat="44.596397388520586" lon="12.210102712887812"><ele>-3.0</ele><time>2026-04-12T11:40:15Z</time></trkpt><trkpt lat="44.59647245646382" lon="12.210187756098618"><ele>-3.0</ele><time>2026-04-12T11:40:17Z</time></trkpt><trkpt lat="44.59654448341946" lon="12.21027058302574"><ele>-3.0</ele><time>2026-04-12T11:40:19Z</time></trkpt><trkpt lat="44.596608707102675" lon="12.210351989986576"><ele>-3.0</ele><time>2026-04-12T11:40:21Z</time></trkpt><trkpt lat="44.59668064747544" lon="12.210432122678105"><ele>-3.0</ele><time>2026-04-12T11:40:23Z</time></trkpt><trkpt lat="44.59675886956096" lon="12.210518407094918"><ele>-3.0</ele><time>2026-04-12T11:40:25Z</time></trkpt><trkpt lat="44.59682742309079" lon="12.21061654188013"><ele>-3.0</ele><time>2026-04-12T11:40:27Z</time></trkpt><trkpt lat="44.59690345685325" lon="12.210695135413165"><ele>-3.0</ele><time>2026-04-12T11:40:29Z</time></trkpt><trkpt lat="44.59697717296984" lon="12.210777586914196"><ele>-3.0</ele><time>2026-04-12T11:40:31Z</time></trkpt><trkpt lat="44.59704958703157" lon="12.21085787109902"><ele>-3.0</ele><time>2026-04-12T11:40:33Z</time></trkpt><trkpt lat="44.597118868330924" lon="12.21094207159489"><ele>-3.0</ele><time>2026-04-12T11:40:35Z</time></trkpt><trkpt lat="44.597187802583946" lon="12.21102260633858"><ele>-3.0</ele><time>2026-04-12T11:40:37Z</time></trkpt><trkpt lat="44.5972602236579" lon="12.211103650848615"><ele>-3.0</ele><time>2026-04-12T11:40:39Z</time></trkpt><trkpt lat="44.5973288364215" lon="12.211187361003361"><ele>-3.0</ele><time>2026-04-12T11:40:41Z</time></trkpt><trkpt lat="44.59739573206681" lon="12.211264645789893"><ele>-3.0</ele><time>2026-04-12T11:40:43Z</time></trkpt><trkpt lat="44.59746581333967" lon="12.211345217525045"><ele>-3.0</ele><time>2026-04-12T11:40:45Z</time></trkpt><trkpt lat="44.59752772991531" lon="12.211424883269922"><ele>-3.0</ele><time>2026-04-12T11:40:47Z</time></trkpt><trkpt lat="44.597601059618945" lon="12.211500900806147"><ele>-3.0</ele><time>2026-04-12T11:40:49Z</time></trkpt><trkpt lat="44.59767062744512" lon="12.211581319776013"><ele>-3.0</ele><time>2026-04-12T11:40:51Z</time></trkpt><trkpt lat="44.59774227572126" lon="12.211664416167881"><ele>-3.0</ele><time>2026-04-12T11:40:53Z</time></trkpt><trkpt lat="44.5978198396214" lon="12.211745141271955"><ele>-3.0</ele><time>2026-04-12T11:40:55Z</time></trkpt><trkpt lat="44.597890390656886" lon="12.211837721569037"><ele>-3.0</ele><time>2026-04-12T11:40:57Z</time></trkpt><trkpt lat="44.59796072880491" lon="12.211925601980779"><ele>-3.0</ele><time>2026-04-12T11:40:59Z</time></trkpt><trkpt lat="44.59803582825246" lon="12.212004946250103"><ele>-3.0</ele><time>2026-04-12T11:41:01Z</time></trkpt><trkpt lat="44.59810075200342" lon="12.212084405905847"><ele>-3.0</ele><time>2026-04-12T11:41:03Z</time></trkpt><trkpt lat="44.59816421210232" lon="12.212158238022152"><ele>-3.0</ele><time>2026-04-12T11:41:05Z</time></trkpt><trkpt lat="44.59821762326046" lon="12.21222301213003"><ele>-3.0</ele><time>2026-04-12T11:41:07Z</time></trkpt><trkpt lat="44.59827700568717" lon="12.212286370022772"><ele>-3.0</ele><time>2026-04-12T11:41:09Z</time></trkpt><trkpt lat="44.59834044809634" lon="12.212359391074651"><ele>-3.0</ele><time>2026-04-12T11:41:11Z</time></trkpt><trkpt lat="44.59840621786064" lon="12.212460641159858"><ele>-3.0</ele><time>2026-04-12T11:41:13Z</time></trkpt><trkpt lat="44.59847648461856" lon="12.212518502927624"><ele>-3.0</ele><time>2026-04-12T11:41:15Z</time></trkpt><trkpt lat="44.59854007237833" lon="12.212603393800425"><ele>-2.9999999999999996</ele><time>2026-04-12T11:41:17Z</time></trkpt><trkpt lat="44.59860132919884" lon="12.212671186030342"><ele>-3.0</ele><time>2026-04-12T11:41:19Z</time></trkpt><trkpt lat="44.598657321090734" lon="12.212740443555704"><ele>-3.0</ele><time>2026-04-12T11:41:21Z</time></trkpt><trkpt lat="44.59870939884793" lon="12.212801939802532"><ele>-3.0</ele><time>2026-04-12T11:41:23Z</time></trkpt><trkpt lat="44.59875874704986" lon="12.212860578595732"><ele>-3.0</ele><time>2026-04-12T11:41:25Z</time></trkpt><trkpt lat="44.59881557824816" lon="12.212917266811946"><ele>-2.9999999999999996</ele><time>2026-04-12T11:41:27Z</time></trkpt><trkpt lat="44.598876431202" lon="12.21298660891359"><ele>-3.0</ele><time>2026-04-12T11:41:29Z</time></trkpt><trkpt lat="44.598939182919466" lon="12.21305416434193"><ele>-3.0</ele><time>2026-04-12T11:41:31Z</time></trkpt><trkpt lat="44.598999084223315" lon="12.21313072980163"><ele>-3.0</ele><time>2026-04-12T11:41:33Z</time></trkpt><trkpt lat="44.5990611434083" lon="12.213197786642631"><ele>-3.0</ele><time>2026-04-12T11:41:35Z</time></trkpt><trkpt lat="44.59912499466791" lon="12.213271443364865"><ele>-3.0</ele><time>2026-04-12T11:41:37Z</time></trkpt><trkpt lat="44.59918463036685" lon="12.213347951816049"><ele>-3.0</ele><time>2026-04-12T11:41:39Z</time></trkpt><trkpt lat="44.59925660660513" lon="12.213418113835747"><ele>-3.0</ele><time>2026-04-12T11:41:41Z</time></trkpt><trkpt lat="44.5993159506067" lon="12.213497428861205"><ele>-3.0</ele><time>2026-04-12T11:41:43Z</time></trkpt><trkpt lat="44.59937901384641" lon="12.213564028685282"><ele>-3.0</ele><time>2026-04-12T11:41:45Z</time></trkpt><trkpt lat="44.599439459578875" lon="12.213631918317166"><ele>-3.0</ele><time>2026-04-12T11:41:47Z</time></trkpt><trkpt lat="44.59950373310836" lon="12.213705226718954"><ele>-3.0</ele><time>2026-04-12T11:41:49Z</time></trkpt><trkpt lat="44.59955840653435" lon="12.213789429134522"><ele>-3.0</ele><time>2026-04-12T11:41:51Z</time></trkpt><trkpt lat="44.59962763045007" lon="12.213858173132014"><ele>-3.0</ele><time>2026-04-12T11:41:53Z</time></trkpt><trkpt lat="44.59969066103463" lon="12.213935500618645"><ele>-3.0</ele><time>2026-04-12T11:41:55Z</time></trkpt><trkpt lat="44.599752999010605" lon="12.214003868504607"><ele>-3.0</ele><time>2026-04-12T11:41:57Z</time></trkpt><trkpt lat="44.59981409523666" lon="12.214070051207328"><ele>-3.0</ele><time>2026-04-12T11:41:59Z</time></trkpt><trkpt lat="44.59987255097737" lon="12.214139235298482"><ele>-3.0</ele><time>2026-04-12T11:42:01Z</time></trkpt><trkpt lat="44.59993464108917" lon="12.214210349208427"><ele>-3.0</ele><time>2026-04-12T11:42:03Z</time></trkpt><trkpt lat="44.5999981735052" lon="12.21427492580556"><ele>-3.0</ele><time>2026-04-12T11:42:05Z</time></trkpt><trkpt lat="44.600056230702684" lon="12.214348525176705"><ele>-3.0</ele><time>2026-04-12T11:42:07Z</time></trkpt><trkpt lat="44.60011617199716" lon="12.214417560213603"><ele>-3.0</ele><time>2026-04-12T11:42:09Z</time></trkpt><trkpt lat="44.60017717427607" lon="12.214481379623512"><ele>-3.0</ele><time>2026-04-12T11:42:11Z</time></trkpt><trkpt lat="44.60023122982471" lon="12.214551479693743"><ele>-3.0</ele><time>2026-04-12T11:42:13Z</time></trkpt><trkpt lat="44.60029200619025" lon="12.214622750337004"><ele>-3.0</ele><time>2026-04-12T11:42:15Z</time></trkpt><trkpt lat="44.600354251547884" lon="12.214691935304975"><ele>-3.0</ele><time>2026-04-12T11:42:17Z</time></trkpt><trkpt lat="44.60041367838179" lon="12.214766398910916"><ele>-3.0</ele><time>2026-04-12T11:42:19Z</time></trkpt><trkpt lat="44.600472232526585" lon="12.214832146662333"><ele>-3.0</ele><time>2026-04-12T11:42:21Z</time></trkpt><trkpt lat="44.60053405820273" lon="12.214901857941914"><ele>-3.0</ele><time>2026-04-12T11:42:23Z</time></trkpt><trkpt lat="44.6005928042032" lon="12.214972884433644"><ele>-3.0</ele><time>2026-04-12T11:42:25Z</time></trkpt><trkpt lat="44.60065035468498" lon="12.215042756913524"><ele>-3.0</ele><time>2026-04-12T11:42:27Z</time></trkpt><trkpt lat="44.60070873167281" lon="12.21511758147149"><ele>-3.0</ele><time>2026-04-12T11:42:29Z</time></trkpt><trkpt lat="44.60076453347658" lon="12.215174273224951"><ele>-3.0</ele><time>2026-04-12T11:42:31Z</time></trkpt><trkpt lat="44.60081945988593" lon="12.215237921566873"><ele>-3.0</ele><time>2026-04-12T11:42:33Z</time></trkpt><trkpt lat="44.60087398675044" lon="12.21529963703729"><ele>-3.0</ele><time>2026-04-12T11:42:35Z</time></trkpt><trkpt lat="44.60092535129829" lon="12.215354134229319"><ele>-3.0</ele><time>2026-04-12T11:42:37Z</time></trkpt><trkpt lat="44.60099335137576" lon="12.21543435317041"><ele>-3.0</ele><time>2026-04-12T11:42:39Z</time></trkpt><trkpt lat="44.601069041670804" lon="12.215520725019436"><ele>-3.0</ele><time>2026-04-12T11:42:41Z</time></trkpt><trkpt lat="44.60113712520753" lon="12.215599716097751"><ele>-3.0</ele><time>2026-04-12T11:42:43Z</time></trkpt><trkpt lat="44.60120042518664" lon="12.215669792885768"><ele>-3.0</ele><time>2026-04-12T11:42:45Z</time></trkpt><trkpt lat="44.601262973883564" lon="12.215744810976895"><ele>-3.0</ele><time>2026-04-12T11:42:47Z</time></trkpt><trkpt lat="44.601338087944185" lon="12.215830201111107"><ele>-3.0</ele><time>2026-04-12T11:42:49Z</time></trkpt><trkpt lat="44.601417509481216" lon="12.215917529953092"><ele>-3.0</ele><time>2026-04-12T11:42:51Z</time></trkpt><trkpt lat="44.601482299849884" lon="12.215998747410026"><ele>-3.0</ele><time>2026-04-12T11:42:53Z</time></trkpt><trkpt lat="44.601546820824424" lon="12.216052184647156"><ele>-3.0</ele><time>2026-04-12T11:42:55Z</time></trkpt><trkpt lat="44.601609645825086" lon="12.216130471855038"><ele>-3.0</ele><time>2026-04-12T11:42:57Z</time></trkpt><trkpt lat="44.60168548341484" lon="12.216228971026677"><ele>-3.0</ele><time>2026-04-12T11:42:59Z</time></trkpt><trkpt lat="44.6017722667352" lon="12.216294920787881"><ele>-3.0</ele><time>2026-04-12T11:43:01Z</time></trkpt><trkpt lat="44.60181830266829" lon="12.216370744445086"><ele>-3.0</ele><time>2026-04-12T11:43:03Z</time></trkpt><trkpt lat="44.6018697464174" lon="12.216443682411162"><ele>-3.0</ele><time>2026-04-12T11:43:05Z</time></trkpt><trkpt lat="44.6019359336316" lon="12.216489408092635"><ele>-3.0</ele><time>2026-04-12T11:43:07Z</time></trkpt><trkpt lat="44.60200488589076" lon="12.216585653981731"><ele>-3.0</ele><time>2026-04-12T11:43:09Z</time></trkpt><trkpt lat="44.60206143893683" lon="12.21664902775002"><ele>-3.0</ele><time>2026-04-12T11:43:11Z</time></trkpt><trkpt lat="44.60211516178786" lon="12.216724614012234"><ele>-3.0</ele><time>2026-04-12T11:43:13Z</time></trkpt><trkpt lat="44.60218519982874" lon="12.21680124584671"><ele>-3.0</ele><time>2026-04-12T11:43:15Z</time></trkpt><trkpt lat="44.60224695004278" lon="12.216874150787257"><ele>-3.0</ele><time>2026-04-12T11:43:17Z</time></trkpt><trkpt lat="44.60231463514317" lon="12.216949834592675"><ele>-3.0</ele><time>2026-04-12T11:43:19Z</time></trkpt><trkpt lat="44.60238538496426" lon="12.217033655782544"><ele>-3.0</ele><time>2026-04-12T11:43:21Z</time></trkpt><trkpt lat="44.60245041603926" lon="12.217110605270861"><ele>-3.0</ele><time>2026-04-12T11:43:23Z</time></trkpt><trkpt lat="44.6025138960434" lon="12.21717240191495"><ele>-3.0</ele><time>2026-04-12T11:43:25Z</time></trkpt><trkpt lat="44.60258418248978" lon="12.217265805100805"><ele>-3.0</ele><time>2026-04-12T11:43:27Z</time></trkpt><trkpt lat="44.602657530406134" lon="12.217341002276562"><ele>-3.0</ele><time>2026-04-12T11:43:29Z</time></trkpt><trkpt lat="44.60272465526079" lon="12.2174182225091"><ele>-3.0</ele><time>2026-04-12T11:43:31Z</time></trkpt><trkpt lat="44.60278545637571" lon="12.2174853756174"><ele>-3.0</ele><time>2026-04-12T11:43:33Z</time></trkpt><trkpt lat="44.60286457878447" lon="12.217563421096497"><ele>-3.0</ele><time>2026-04-12T11:43:35Z</time></trkpt><trkpt lat="44.60293388290742" lon="12.217655936216822"><ele>-3.0</ele><time>2026-04-12T11:43:37Z</time></trkpt><trkpt lat="44.60299791192501" lon="12.217728252973648"><ele>-3.0</ele><time>2026-04-12T11:43:39Z</time></trkpt><trkpt lat="44.60305352348658" lon="12.217797836686007"><ele>-3.0</ele><time>2026-04-12T11:43:41Z</time></trkpt><trkpt lat="44.60311667190731" lon="12.217864605484927"><ele>-3.0</ele><time>2026-04-12T11:43:43Z</time></trkpt><trkpt lat="44.603190958616835" lon="12.217947891340074"><ele>-3.0</ele><time>2026-04-12T11:43:45Z</time></trkpt><trkpt lat="44.60326815904661" lon="12.218036156727816"><ele>-3.0</ele><time>2026-04-12T11:43:47Z</time></trkpt><trkpt lat="44.60333529581987" lon="12.218115301717026"><ele>-3.0</ele><time>2026-04-12T11:43:49Z</time></trkpt><trkpt lat="44.60339819202557" lon="12.21818216477564"><ele>-3.0</ele><time>2026-04-12T11:43:51Z</time></trkpt><trkpt lat="44.60345605973584" lon="12.21825518860354"><ele>-3.0</ele><time>2026-04-12T11:43:53Z</time></trkpt><trkpt lat="44.60351911301896" lon="12.218325482364632"><ele>-3.0</ele><time>2026-04-12T11:43:55Z</time></trkpt><trkpt lat="44.60358730344731" lon="12.218406539022537"><ele>-3.0</ele><time>2026-04-12T11:43:57Z</time></trkpt><trkpt lat="44.603662890074375" lon="12.218492850792002"><ele>-3.0</ele><time>2026-04-12T11:43:59Z</time></trkpt><trkpt lat="44.60372685729123" lon="12.218569739072457"><ele>-3.0</ele><time>2026-04-12T11:44:01Z</time></trkpt><trkpt lat="44.60378561648848" lon="12.218639457309477"><ele>-3.0</ele><time>2026-04-12T11:44:03Z</time></trkpt><trkpt lat="44.6038410508473" lon="12.218694551478851"><ele>-3.0</ele><time>2026-04-12T11:44:05Z</time></trkpt><trkpt lat="44.60388885109095" lon="12.218755594494043"><ele>-3.0</ele><time>2026-04-12T11:44:07Z</time></trkpt><trkpt lat="44.603953252009504" lon="12.218824507942744"><ele>-3.0</ele><time>2026-04-12T11:44:09Z</time></trkpt><trkpt lat="44.60401512267785" lon="12.21889293077497"><ele>-3.0</ele><time>2026-04-12T11:44:11Z</time></trkpt><trkpt lat="44.60407800281844" lon="12.218970413786712"><ele>-3.0</ele><time>2026-04-12T11:44:13Z</time></trkpt><trkpt lat="44.60413535488897" lon="12.219036925940163"><ele>-3.0</ele><time>2026-04-12T11:44:15Z</time></trkpt><trkpt lat="44.604189708910006" lon="12.219096619264159"><ele>-3.0</ele><time>2026-04-12T11:44:17Z</time></trkpt><trkpt lat="44.60424890728732" lon="12.219167342813206"><ele>-3.0</ele><time>2026-04-12T11:44:19Z</time></trkpt><trkpt lat="44.60431112025395" lon="12.219233942060365"><ele>-3.0</ele><time>2026-04-12T11:44:21Z</time></trkpt><trkpt lat="44.604371232721896" lon="12.219307883015988"><ele>-3.0</ele><time>2026-04-12T11:44:23Z</time></trkpt><trkpt lat="44.60442894491551" lon="12.219375167449238"><ele>-3.0</ele><time>2026-04-12T11:44:25Z</time></trkpt><trkpt lat="44.60448551583016" lon="12.219437187609214"><ele>-3.0</ele><time>2026-04-12T11:44:27Z</time></trkpt><trkpt lat="44.604545334372105" lon="12.219506903079921"><ele>-3.0</ele><time>2026-04-12T11:44:29Z</time></trkpt><trkpt lat="44.60460563899368" lon="12.21957991252988"><ele>-3.0</ele><time>2026-04-12T11:44:31Z</time></trkpt><trkpt lat="44.604671676410085" lon="12.219646483051491"><ele>-3.0</ele><time>2026-04-12T11:44:33Z</time></trkpt><trkpt lat="44.604732979199774" lon="12.219717513403028"><ele>-3.0</ele><time>2026-04-12T11:44:35Z</time></trkpt><trkpt lat="44.60479099425461" lon="12.219794983902469"><ele>-3.0</ele><time>2026-04-12T11:44:37Z</time></trkpt><trkpt lat="44.6048557227799" lon="12.219863497088744"><ele>-3.0</ele><time>2026-04-12T11:44:39Z</time></trkpt><trkpt lat="44.604915644319426" lon="12.219941134738223"><ele>-3.0</ele><time>2026-04-12T11:44:41Z</time></trkpt><trkpt lat="44.60497829053877" lon="12.220006349281809"><ele>-3.0</ele><time>2026-04-12T11:44:43Z</time></trkpt><trkpt lat="44.6050339909069" lon="12.220076504296564"><ele>-3.0</ele><time>2026-04-12T11:44:45Z</time></trkpt><trkpt lat="44.605097494650984" lon="12.220144253506914"><ele>-3.0</ele><time>2026-04-12T11:44:47Z</time></trkpt><trkpt lat="44.60515955020969" lon="12.22021520311342"><ele>-3.0</ele><time>2026-04-12T11:44:49Z</time></trkpt><trkpt lat="44.60522360679716" lon="12.22028347770992"><ele>-3.0</ele><time>2026-04-12T11:44:51Z</time></trkpt><trkpt lat="44.605281759193225" lon="12.220353272846259"><ele>-3.0</ele><time>2026-04-12T11:44:53Z</time></trkpt><trkpt lat="44.60534062086977" lon="12.22042486394493"><ele>-3.0</ele><time>2026-04-12T11:44:55Z</time></trkpt><trkpt lat="44.605408124526576" lon="12.220492691806792"><ele>-3.0</ele><time>2026-04-12T11:44:57Z</time></trkpt><trkpt lat="44.60545989626725" lon="12.220581944368234"><ele>-3.0</ele><time>2026-04-12T11:44:59Z</time></trkpt><trkpt lat="44.60553008069198" lon="12.220649194626436"><ele>-3.0</ele><time>2026-04-12T11:45:01Z</time></trkpt><trkpt lat="44.60559802910537" lon="12.220725221837103"><ele>-3.0</ele><time>2026-04-12T11:45:03Z</time></trkpt><trkpt lat="44.605663597284945" lon="12.220803565037196"><ele>-3.0</ele><time>2026-04-12T11:45:05Z</time></trkpt><trkpt lat="44.60572895627479" lon="12.220879858600117"><ele>-3.0</ele><time>2026-04-12T11:45:07Z</time></trkpt><trkpt lat="44.60579503829852" lon="12.22095581887783"><ele>-3.0</ele><time>2026-04-12T11:45:09Z</time></trkpt><trkpt lat="44.60586084824416" lon="12.22102715716127"><ele>-3.0</ele><time>2026-04-12T11:45:11Z</time></trkpt><trkpt lat="44.60592568997448" lon="12.221105922998323"><ele>-3.0</ele><time>2026-04-12T11:45:13Z</time></trkpt><trkpt lat="44.60598487443539" lon="12.221173134853636"><ele>-3.0</ele><time>2026-04-12T11:45:15Z</time></trkpt><trkpt lat="44.60603794198405" lon="12.221230745149546"><ele>-3.0</ele><time>2026-04-12T11:45:17Z</time></trkpt><trkpt lat="44.606088815018936" lon="12.221284163137229"><ele>-3.0</ele><time>2026-04-12T11:45:19Z</time></trkpt><trkpt lat="44.60614589993761" lon="12.221352920898866"><ele>-3.0</ele><time>2026-04-12T11:45:21Z</time></trkpt><trkpt lat="44.60620849070636" lon="12.2214262819728"><ele>-3.0</ele><time>2026-04-12T11:45:23Z</time></trkpt><trkpt lat="44.60626961936253" lon="12.221494551357344"><ele>-3.0</ele><time>2026-04-12T11:45:25Z</time></trkpt><trkpt lat="44.60632934331571" lon="12.22156885811539"><ele>-3.0</ele><time>2026-04-12T11:45:27Z</time></trkpt><trkpt lat="44.60638194932488" lon="12.221653542401953"><ele>-3.0</ele><time>2026-04-12T11:45:29Z</time></trkpt><trkpt lat="44.60646103414815" lon="12.2217144136237"><ele>-3.0</ele><time>2026-04-12T11:45:31Z</time></trkpt><trkpt lat="44.60651650567066" lon="12.221790458563513"><ele>-3.0</ele><time>2026-04-12T11:45:33Z</time></trkpt><trkpt lat="44.60658369669598" lon="12.221860216784814"><ele>-3.0</ele><time>2026-04-12T11:45:35Z</time></trkpt><trkpt lat="44.606657922904084" lon="12.221928570563335"><ele>-3.0</ele><time>2026-04-12T11:45:37Z</time></trkpt><trkpt lat="44.60672022335194" lon="12.222016391457862"><ele>-3.0</ele><time>2026-04-12T11:45:39Z</time></trkpt><trkpt lat="44.60677938954828" lon="12.222078635793574"><ele>-3.0</ele><time>2026-04-12T11:45:41Z</time></trkpt><trkpt lat="44.60683858683723" lon="12.222146059345585"><ele>-3.0</ele><time>2026-04-12T11:45:43Z</time></trkpt><trkpt lat="44.60690219519675" lon="12.222221836214182"><ele>-3.0</ele><time>2026-04-12T11:45:45Z</time></trkpt><trkpt lat="44.60696604449697" lon="12.222294662877786"><ele>-3.0</ele><time>2026-04-12T11:45:47Z</time></trkpt><trkpt lat="44.60702749797727" lon="12.222374320752607"><ele>-3.0</ele><time>2026-04-12T11:45:49Z</time></trkpt><trkpt lat="44.60709543441995" lon="12.222446690388443"><ele>-3.0</ele><time>2026-04-12T11:45:51Z</time></trkpt><trkpt lat="44.607158535631754" lon="12.222526659590002"><ele>-3.0</ele><time>2026-04-12T11:45:53Z</time></trkpt><trkpt lat="44.607224301824424" lon="12.222597442889759"><ele>-3.0</ele><time>2026-04-12T11:45:55Z</time></trkpt><trkpt lat="44.607284593444355" lon="12.22268397736886"><ele>-3.0</ele><time>2026-04-12T11:45:57Z</time></trkpt><trkpt lat="44.60734696229043" lon="12.222741178868677"><ele>-3.0</ele><time>2026-04-12T11:45:59Z</time></trkpt><trkpt lat="44.607407906538235" lon="12.2228123080869"><ele>-3.0</ele><time>2026-04-12T11:46:01Z</time></trkpt><trkpt lat="44.60746529243052" lon="12.222884952671839"><ele>-3.0</ele><time>2026-04-12T11:46:03Z</time></trkpt><trkpt lat="44.60751774652826" lon="12.22296150166643"><ele>-3.0</ele><time>2026-04-12T11:46:05Z</time></trkpt><trkpt lat="44.607574658079585" lon="12.223010264456788"><ele>-3.0</ele><time>2026-04-12T11:46:07Z</time></trkpt><trkpt lat="44.60764464357558" lon="12.223078270420553"><ele>-3.0</ele><time>2026-04-12T11:46:10Z</time></trkpt><trkpt lat="44.60770008800193" lon="12.223138856276845"><ele>-3.0</ele><time>2026-04-12T11:46:12Z</time></trkpt><trkpt lat="44.60775415901002" lon="12.223213580700621"><ele>-3.0</ele><time>2026-04-12T11:46:14Z</time></trkpt><trkpt lat="44.60781137055185" lon="12.223281237864562"><ele>-3.0</ele><time>2026-04-12T11:46:16Z</time></trkpt><trkpt lat="44.60786919477938" lon="12.2233471721431"><ele>-3.0</ele><time>2026-04-12T11:46:18Z</time></trkpt><trkpt lat="44.607942120540706" lon="12.223432337454629"><ele>-3.0</ele><time>2026-04-12T11:46:20Z</time></trkpt><trkpt lat="44.60801617589496" lon="12.223521066110944"><ele>-3.0</ele><time>2026-04-12T11:46:22Z</time></trkpt><trkpt lat="44.608079753115994" lon="12.22359583243437"><ele>-3.0</ele><time>2026-04-12T11:46:24Z</time></trkpt><trkpt lat="44.608138994642815" lon="12.22366456617202"><ele>-3.0</ele><time>2026-04-12T11:46:26Z</time></trkpt><trkpt lat="44.608192711344884" lon="12.223729304202847"><ele>-3.0</ele><time>2026-04-12T11:46:28Z</time></trkpt><trkpt lat="44.608268234680764" lon="12.223813017035376"><ele>-3.0</ele><time>2026-04-12T11:46:30Z</time></trkpt><trkpt lat="44.60833540015623" lon="12.223900681273472"><ele>-3.0</ele><time>2026-04-12T11:46:32Z</time></trkpt><trkpt lat="44.60839621076929" lon="12.223976008769021"><ele>-3.0</ele><time>2026-04-12T11:46:34Z</time></trkpt><trkpt lat="44.60845622978085" lon="12.224036494528523"><ele>-3.0</ele><time>2026-04-12T11:46:36Z</time></trkpt><trkpt lat="44.608511499226125" lon="12.22410273563459"><ele>-3.0</ele><time>2026-04-12T11:46:38Z</time></trkpt><trkpt lat="44.608577815874554" lon="12.224176464695914"><ele>-3.0</ele><time>2026-04-12T11:46:40Z</time></trkpt><trkpt lat="44.608640826071515" lon="12.224251500745416"><ele>-3.0</ele><time>2026-04-12T11:46:42Z</time></trkpt><trkpt lat="44.6086956243526" lon="12.224321096046896"><ele>-3.0</ele><time>2026-04-12T11:46:44Z</time></trkpt><trkpt lat="44.60874639710401" lon="12.224379388755004"><ele>-3.0</ele><time>2026-04-12T11:46:46Z</time></trkpt><trkpt lat="44.608818603677925" lon="12.22442815881315"><ele>-3.0</ele><time>2026-04-12T11:46:48Z</time></trkpt><trkpt lat="44.608868879662424" lon="12.224515237517567"><ele>-3.0</ele><time>2026-04-12T11:46:50Z</time></trkpt><trkpt lat="44.608925794273205" lon="12.22458269915728"><ele>-3.0</ele><time>2026-04-12T11:46:52Z</time></trkpt><trkpt lat="44.60897726098848" lon="12.224640845133777"><ele>-3.0</ele><time>2026-04-12T11:46:54Z</time></trkpt><trkpt lat="44.60904912028003" lon="12.22472675875833"><ele>-3.0</ele><time>2026-04-12T11:46:57Z</time></trkpt><trkpt lat="44.609092097174326" lon="12.224803921602641"><ele>-3.0</ele><time>2026-04-12T11:46:59Z</time></trkpt><trkpt lat="44.609145298807334" lon="12.224867344626"><ele>-3.0</ele><time>2026-04-12T11:47:01Z</time></trkpt><trkpt lat="44.609205634814465" lon="12.22492937633508"><ele>-3.0</ele><time>2026-04-12T11:47:03Z</time></trkpt><trkpt lat="44.60928071885668" lon="12.225004818030163"><ele>-3.0</ele><time>2026-04-12T11:47:06Z</time></trkpt><trkpt lat="44.609338516076434" lon="12.225074117112493"><ele>-3.0</ele><time>2026-04-12T11:47:08Z</time></trkpt><trkpt lat="44.609390403377795" lon="12.225135540076572"><ele>-2.9999999999999996</ele><time>2026-04-12T11:47:10Z</time></trkpt><trkpt lat="44.60944740683606" lon="12.225179393102543"><ele>-3.0</ele><time>2026-04-12T11:47:12Z</time></trkpt><trkpt lat="44.60950193973256" lon="12.225251964751996"><ele>-3.0</ele><time>2026-04-12T11:47:14Z</time></trkpt><trkpt lat="44.60955239225913" lon="12.225309670897854"><ele>-3.0</ele><time>2026-04-12T11:47:16Z</time></trkpt><trkpt lat="44.60960823179726" lon="12.225373404871396"><ele>-3.0</ele><time>2026-04-12T11:47:18Z</time></trkpt><trkpt lat="44.60967541731676" lon="12.225428197492011"><ele>-2.9999999999999996</ele><time>2026-04-12T11:47:20Z</time></trkpt><trkpt lat="44.60972396138856" lon="12.22550424003055"><ele>-3.0</ele><time>2026-04-12T11:47:22Z</time></trkpt><trkpt lat="44.60977130085499" lon="12.225565138752014"><ele>-3.0</ele><time>2026-04-12T11:47:24Z</time></trkpt><trkpt lat="44.60983239619302" lon="12.225616611078179"><ele>-3.0</ele><time>2026-04-12T11:47:26Z</time></trkpt><trkpt lat="44.60988284537054" lon="12.2256865972011"><ele>-3.0</ele><time>2026-04-12T11:47:28Z</time></trkpt><trkpt lat="44.60995722935369" lon="12.225786183470165"><ele>-3.0</ele><time>2026-04-12T11:47:31Z</time></trkpt><trkpt lat="44.61002200599279" lon="12.22586547708384"><ele>-3.0</ele><time>2026-04-12T11:47:33Z</time></trkpt><trkpt lat="44.610080103292844" lon="12.225930920816323"><ele>-3.0</ele><time>2026-04-12T11:47:35Z</time></trkpt><trkpt lat="44.6101481066433" lon="12.226017240570753"><ele>-2.9999999999999996</ele><time>2026-04-12T11:47:38Z</time></trkpt><trkpt lat="44.610199166304966" lon="12.226070747911264"><ele>-3.0</ele><time>2026-04-12T11:47:40Z</time></trkpt><trkpt lat="44.61025508829321" lon="12.226143003069456"><ele>-3.0</ele><time>2026-04-12T11:47:42Z</time></trkpt><trkpt lat="44.61031089559229" lon="12.22620498015731"><ele>-3.0</ele><time>2026-04-12T11:47:44Z</time></trkpt><trkpt lat="44.61036356022198" lon="12.226262028241553"><ele>-3.0</ele><time>2026-04-12T11:47:46Z</time></trkpt><trkpt lat="44.610426910607174" lon="12.226320134911893"><ele>-2.9999999999999996</ele><time>2026-04-12T11:48:06Z</time></trkpt><trkpt lat="44.61047864432664" lon="12.226410305298398"><ele>-3.0</ele><time>2026-04-12T11:48:09.999Z</time></trkpt><trkpt lat="44.610543171649105" lon="12.22647350481237"><ele>-3.0</ele><time>2026-04-12T11:48:13Z</time></trkpt><trkpt lat="44.61061117879141" lon="12.226555543839941"><ele>-3.0</ele><time>2026-04-12T11:48:16Z</time></trkpt><trkpt lat="44.61067218822041" lon="12.226631219518147"><ele>-3.0</ele><time>2026-04-12T11:48:18Z</time></trkpt><trkpt lat="44.61073393684626" lon="12.226704841184315"><ele>-3.0</ele><time>2026-04-12T11:48:20Z</time></trkpt><trkpt lat="44.610789118345245" lon="12.226772514920995"><ele>-3.0</ele><time>2026-04-12T11:48:22Z</time></trkpt><trkpt lat="44.610844849987885" lon="12.226831647205637"><ele>-3.0</ele><time>2026-04-12T11:48:24Z</time></trkpt><trkpt lat="44.610911918885094" lon="12.226912133973252"><ele>-3.0</ele><time>2026-04-12T11:48:26Z</time></trkpt><trkpt lat="44.610978633304505" lon="12.22700519345609"><ele>-3.0</ele><time>2026-04-12T11:48:28Z</time></trkpt><trkpt lat="44.611033032047374" lon="12.227062574840458"><ele>-3.0</ele><time>2026-04-12T11:48:30Z</time></trkpt><trkpt lat="44.61109313957836" lon="12.227133780970563"><ele>-3.0</ele><time>2026-04-12T11:48:32Z</time></trkpt><trkpt lat="44.61115738347715" lon="12.227194741385281"><ele>-3.0</ele><time>2026-04-12T11:48:34Z</time></trkpt><trkpt lat="44.61121522359847" lon="12.22726760686044"><ele>-3.0</ele><time>2026-04-12T11:48:36Z</time></trkpt><trkpt lat="44.611275494754786" lon="12.22734591480242"><ele>-3.0</ele><time>2026-04-12T11:48:38Z</time></trkpt><trkpt lat="44.611344380785184" lon="12.227414999827232"><ele>-3.0</ele><time>2026-04-12T11:48:40Z</time></trkpt><trkpt lat="44.611400848501006" lon="12.227495239187606"><ele>-3.0</ele><time>2026-04-12T11:48:42Z</time></trkpt><trkpt lat="44.61146483945732" lon="12.227559723109195"><ele>-3.0</ele><time>2026-04-12T11:48:44Z</time></trkpt><trkpt lat="44.6115302601776" lon="12.22761737732406"><ele>-3.0</ele><time>2026-04-12T11:48:46Z</time></trkpt><trkpt lat="44.611594057102295" lon="12.227701774198696"><ele>-3.0</ele><time>2026-04-12T11:48:48Z</time></trkpt><trkpt lat="44.61165623129023" lon="12.227775958671097"><ele>-3.0</ele><time>2026-04-12T11:48:50Z</time></trkpt><trkpt lat="44.611721068569466" lon="12.227852273802087"><ele>-3.0</ele><time>2026-04-12T11:48:52Z</time></trkpt><trkpt lat="44.61179066615973" lon="12.227926268763674"><ele>-3.0</ele><time>2026-04-12T11:48:54Z</time></trkpt><trkpt lat="44.61185999180923" lon="12.228007422324875"><ele>-3.0</ele><time>2026-04-12T11:48:56Z</time></trkpt><trkpt lat="44.611927054227216" lon="12.228082081222793"><ele>-3.0</ele><time>2026-04-12T11:48:58Z</time></trkpt><trkpt lat="44.61199195549651" lon="12.22815598722004"><ele>-3.0</ele><time>2026-04-12T11:49:00Z</time></trkpt><trkpt lat="44.61205349659277" lon="12.228235399949055"><ele>-3.0</ele><time>2026-04-12T11:49:02Z</time></trkpt><trkpt lat="44.61212045826865" lon="12.228310458297893"><ele>-3.0</ele><time>2026-04-12T11:49:04Z</time></trkpt><trkpt lat="44.61218557072325" lon="12.228385834172105"><ele>-3.0</ele><time>2026-04-12T11:49:06Z</time></trkpt><trkpt lat="44.61225056204348" lon="12.228465845661859"><ele>-3.0</ele><time>2026-04-12T11:49:08Z</time></trkpt><trkpt lat="44.612317631711754" lon="12.228543036944417"><ele>-3.0</ele><time>2026-04-12T11:49:10Z</time></trkpt><trkpt lat="44.612390743963395" lon="12.228619714501402"><ele>-3.0</ele><time>2026-04-12T11:49:12Z</time></trkpt><trkpt lat="44.61245415285752" lon="12.228702385798824"><ele>-3.0</ele><time>2026-04-12T11:49:14Z</time></trkpt><trkpt lat="44.612522996496004" lon="12.228780250148034"><ele>-3.0</ele><time>2026-04-12T11:49:16Z</time></trkpt><trkpt lat="44.612593326267955" lon="12.228860014143242"><ele>-3.0</ele><time>2026-04-12T11:49:18Z</time></trkpt><trkpt lat="44.61266669026617" lon="12.228939895208116"><ele>-3.0</ele><time>2026-04-12T11:49:20Z</time></trkpt><trkpt lat="44.61273744760694" lon="12.229021352710946"><ele>-3.0</ele><time>2026-04-12T11:49:22Z</time></trkpt><trkpt lat="44.61280520802732" lon="12.22910372947012"><ele>-3.0</ele><time>2026-04-12T11:49:24Z</time></trkpt><trkpt lat="44.61287327993889" lon="12.229184548759452"><ele>-3.0</ele><time>2026-04-12T11:49:26Z</time></trkpt><trkpt lat="44.61294362045288" lon="12.229262138533203"><ele>-3.0</ele><time>2026-04-12T11:49:28Z</time></trkpt><trkpt lat="44.613012591957876" lon="12.229344490975894"><ele>-3.0</ele><time>2026-04-12T11:49:30Z</time></trkpt><trkpt lat="44.61308271613414" lon="12.229426653317114"><ele>-3.0</ele><time>2026-04-12T11:49:32Z</time></trkpt><trkpt lat="44.613155652490484" lon="12.229503747126644"><ele>-3.0</ele><time>2026-04-12T11:49:34Z</time></trkpt><trkpt lat="44.6132272003914" lon="12.229587898939846"><ele>-3.0</ele><time>2026-04-12T11:49:36Z</time></trkpt><trkpt lat="44.61330256600396" lon="12.22966701085873"><ele>-3.0</ele><time>2026-04-12T11:49:38Z</time></trkpt><trkpt lat="44.61337312323808" lon="12.229751545031124"><ele>-3.0</ele><time>2026-04-12T11:49:40Z</time></trkpt><trkpt lat="44.61344396962222" lon="12.229837897211954"><ele>-3.0</ele><time>2026-04-12T11:49:42Z</time></trkpt><trkpt lat="44.61351873785358" lon="12.229917033217355"><ele>-3.0</ele><time>2026-04-12T11:49:44Z</time></trkpt><trkpt lat="44.61358319421698" lon="12.230004667651714"><ele>-3.0</ele><time>2026-04-12T11:49:46Z</time></trkpt><trkpt lat="44.61365639618655" lon="12.230084268038775"><ele>-3.0</ele><time>2026-04-12T11:49:48Z</time></trkpt><trkpt lat="44.613728366913556" lon="12.230164796729204"><ele>-3.0</ele><time>2026-04-12T11:49:50Z</time></trkpt><trkpt lat="44.61379748100935" lon="12.230241936344878"><ele>-3.0</ele><time>2026-04-12T11:49:52Z</time></trkpt><trkpt lat="44.61387005462389" lon="12.230328418964003"><ele>-3.0</ele><time>2026-04-12T11:49:54Z</time></trkpt><trkpt lat="44.61393917702992" lon="12.230409460553648"><ele>-3.0</ele><time>2026-04-12T11:49:56Z</time></trkpt><trkpt lat="44.61400749119414" lon="12.230488931225299"><ele>-3.0</ele><time>2026-04-12T11:49:58Z</time></trkpt><trkpt lat="44.61407610598874" lon="12.230570029065266"><ele>-3.0</ele><time>2026-04-12T11:50:00Z</time></trkpt><trkpt lat="44.61414705621876" lon="12.23064726353557"><ele>-3.0</ele><time>2026-04-12T11:50:02Z</time></trkpt><trkpt lat="44.61421681300275" lon="12.230729339636463"><ele>-3.0</ele><time>2026-04-12T11:50:04Z</time></trkpt><trkpt lat="44.61428988341269" lon="12.230812988481212"><ele>-3.0</ele><time>2026-04-12T11:50:05.999Z</time></trkpt><trkpt lat="44.61435400747367" lon="12.230887476656342"><ele>-3.0</ele><time>2026-04-12T11:50:07.999Z</time></trkpt><trkpt lat="44.614411172894535" lon="12.23095642499977"><ele>-3.0</ele><time>2026-04-12T11:50:09.999Z</time></trkpt><trkpt lat="44.61446504159758" lon="12.23101861308784"><ele>-3.0</ele><time>2026-04-12T11:50:11.999Z</time></trkpt><trkpt lat="44.61452778785738" lon="12.231089262040275"><ele>-3.0</ele><time>2026-04-12T11:50:13.999Z</time></trkpt><trkpt lat="44.61459430998299" lon="12.231166501880686"><ele>-3.0</ele><time>2026-04-12T11:50:15.999Z</time></trkpt><trkpt lat="44.61466250867926" lon="12.231244620918293"><ele>-3.0</ele><time>2026-04-12T11:50:18Z</time></trkpt><trkpt lat="44.614729694892915" lon="12.23129836800607"><ele>-3.0</ele><time>2026-04-12T11:50:20Z</time></trkpt><trkpt lat="44.61478144642457" lon="12.231373090814882"><ele>-3.0</ele><time>2026-04-12T11:50:22Z</time></trkpt><trkpt lat="44.61484492337598" lon="12.231443960233571"><ele>-3.0</ele><time>2026-04-12T11:50:24Z</time></trkpt><trkpt lat="44.61490621722122" lon="12.231512390688566"><ele>-3.0</ele><time>2026-04-12T11:50:26Z</time></trkpt><trkpt lat="44.614963094348965" lon="12.231585946700813"><ele>-3.0</ele><time>2026-04-12T11:50:28Z</time></trkpt><trkpt lat="44.6150267895539" lon="12.231651176587492"><ele>-3.0</ele><time>2026-04-12T11:50:30Z</time></trkpt><trkpt lat="44.615092362412994" lon="12.231728600260187"><ele>-3.0</ele><time>2026-04-12T11:50:32Z</time></trkpt><trkpt lat="44.61516237164154" lon="12.231807975175228"><ele>-3.0</ele><time>2026-04-12T11:50:34Z</time></trkpt><trkpt lat="44.61523095385613" lon="12.231887331890736"><ele>-3.0</ele><time>2026-04-12T11:50:36Z</time></trkpt><trkpt lat="44.6152994118705" lon="12.231963539584767"><ele>-3.0</ele><time>2026-04-12T11:50:38Z</time></trkpt><trkpt lat="44.615360423480325" lon="12.232045328801101"><ele>-3.0</ele><time>2026-04-12T11:50:40Z</time></trkpt><trkpt lat="44.61542688372613" lon="12.232118239140114"><ele>-3.0</ele><time>2026-04-12T11:50:42Z</time></trkpt><trkpt lat="44.615492349863736" lon="12.232200887932535"><ele>-3.0</ele><time>2026-04-12T11:50:44Z</time></trkpt><trkpt lat="44.61556433881528" lon="12.23227536141182"><ele>-3.0</ele><time>2026-04-12T11:50:46Z</time></trkpt><trkpt lat="44.61563295101929" lon="12.2323574009581"><ele>-3.0</ele><time>2026-04-12T11:50:48Z</time></trkpt><trkpt lat="44.615706339818665" lon="12.232438965628273"><ele>-3.0</ele><time>2026-04-12T11:50:50Z</time></trkpt><trkpt lat="44.61577584422714" lon="12.23252534585565"><ele>-3.0</ele><time>2026-04-12T11:50:52Z</time></trkpt><trkpt lat="44.61585092600909" lon="12.232611921825132"><ele>-3.0</ele><time>2026-04-12T11:50:54Z</time></trkpt><trkpt lat="44.61592421661061" lon="12.232699463707737"><ele>-3.0</ele><time>2026-04-12T11:50:56Z</time></trkpt><trkpt lat="44.61599291664966" lon="12.23278670007683"><ele>-3.0</ele><time>2026-04-12T11:50:58Z</time></trkpt><trkpt lat="44.61605840972906" lon="12.232863380903336"><ele>-3.0</ele><time>2026-04-12T11:51:00Z</time></trkpt><trkpt lat="44.61612089520741" lon="12.232930209294283"><ele>-3.0</ele><time>2026-04-12T11:51:02Z</time></trkpt><trkpt lat="44.616183521016126" lon="12.23300167859739"><ele>-3.0</ele><time>2026-04-12T11:51:04Z</time></trkpt><trkpt lat="44.61624148255497" lon="12.233071855197474"><ele>-3.0</ele><time>2026-04-12T11:51:06Z</time></trkpt><trkpt lat="44.61629761913867" lon="12.233130555167383"><ele>-3.0</ele><time>2026-04-12T11:51:08Z</time></trkpt><trkpt lat="44.61635283020337" lon="12.233196976580171"><ele>-3.0</ele><time>2026-04-12T11:51:10Z</time></trkpt><trkpt lat="44.6164155998176" lon="12.233267127878031"><ele>-3.0</ele><time>2026-04-12T11:51:12Z</time></trkpt><trkpt lat="44.6164771654325" lon="12.233333946538783"><ele>-3.0</ele><time>2026-04-12T11:51:14Z</time></trkpt><trkpt lat="44.61652491623293" lon="12.233397378161024"><ele>-3.0</ele><time>2026-04-12T11:51:16Z</time></trkpt><trkpt lat="44.6165969766366" lon="12.233472979408697"><ele>-3.0</ele><time>2026-04-12T11:51:18Z</time></trkpt><trkpt lat="44.616659021146035" lon="12.233551680011045"><ele>-3.0</ele><time>2026-04-12T11:51:20Z</time></trkpt><trkpt lat="44.61672133660588" lon="12.233618006831618"><ele>-3.0</ele><time>2026-04-12T11:51:22Z</time></trkpt><trkpt lat="44.6167872375337" lon="12.233677250727922"><ele>-3.0</ele><time>2026-04-12T11:51:24Z</time></trkpt><trkpt lat="44.616855838116145" lon="12.233760745965988"><ele>-3.0</ele><time>2026-04-12T11:51:27Z</time></trkpt><trkpt lat="44.61690642372205" lon="12.233816933011592"><ele>-3.0</ele><time>2026-04-12T11:51:29Z</time></trkpt><trkpt lat="44.6169555384347" lon="12.23388219895233"><ele>-3.0</ele><time>2026-04-12T11:51:31Z</time></trkpt><trkpt lat="44.61701801672821" lon="12.233969378926512"><ele>-3.0</ele><time>2026-04-12T11:51:33Z</time></trkpt><trkpt lat="44.61708893709427" lon="12.234054070813766"><ele>-3.0</ele><time>2026-04-12T11:51:35Z</time></trkpt><trkpt lat="44.617161318011405" lon="12.234134197646537"><ele>-3.0</ele><time>2026-04-12T11:51:37Z</time></trkpt><trkpt lat="44.61722737581598" lon="12.234202183358411"><ele>-3.0</ele><time>2026-04-12T11:51:39Z</time></trkpt><trkpt lat="44.61728863997891" lon="12.234269410308013"><ele>-3.0</ele><time>2026-04-12T11:51:41Z</time></trkpt><trkpt lat="44.61734790180376" lon="12.234344075185891"><ele>-3.0</ele><time>2026-04-12T11:51:43Z</time></trkpt><trkpt lat="44.61742690297303" lon="12.234431673917166"><ele>-3.0</ele><time>2026-04-12T11:51:45Z</time></trkpt><trkpt lat="44.61750915261934" lon="12.23452778638191"><ele>-3.0</ele><time>2026-04-12T11:51:47Z</time></trkpt><trkpt lat="44.617592911686195" lon="12.234623198568622"><ele>-3.0</ele><time>2026-04-12T11:51:49Z</time></trkpt><trkpt lat="44.61766886964153" lon="12.234706992235932"><ele>-3.0</ele><time>2026-04-12T11:51:51Z</time></trkpt><trkpt lat="44.617741028797724" lon="12.234791262124324"><ele>-3.0</ele><time>2026-04-12T11:51:53Z</time></trkpt><trkpt lat="44.617802028745615" lon="12.234866633677294"><ele>-3.0</ele><time>2026-04-12T11:51:55Z</time></trkpt><trkpt lat="44.61787337025245" lon="12.234945210171265"><ele>-3.0</ele><time>2026-04-12T11:51:57Z</time></trkpt><trkpt lat="44.617953727332214" lon="12.235036507035122"><ele>-3.0</ele><time>2026-04-12T11:51:59Z</time></trkpt><trkpt lat="44.618041157378066" lon="12.23513258420249"><ele>-3.0</ele><time>2026-04-12T11:52:01Z</time></trkpt><trkpt lat="44.618115840939446" lon="12.235224141914133"><ele>-3.0</ele><time>2026-04-12T11:52:02.999Z</time></trkpt><trkpt lat="44.618187279131014" lon="12.235308378773777"><ele>-3.0</ele><time>2026-04-12T11:52:04.999Z</time></trkpt><trkpt lat="44.618253635795554" lon="12.235385112293299"><ele>-3.0</ele><time>2026-04-12T11:52:06.999Z</time></trkpt><trkpt lat="44.61830533300837" lon="12.235466539688378"><ele>-3.0</ele><time>2026-04-12T11:52:08.999Z</time></trkpt><trkpt lat="44.61838745266217" lon="12.235549829668143"><ele>-3.0</ele><time>2026-04-12T11:52:10.999Z</time></trkpt><trkpt lat="44.61844931213501" lon="12.235622462516334"><ele>-3.0</ele><time>2026-04-12T11:52:12.999Z</time></trkpt><trkpt lat="44.618517230829525" lon="12.235693253072865"><ele>-3.0</ele><time>2026-04-12T11:52:14.999Z</time></trkpt><trkpt lat="44.61858306776393" lon="12.2357761745866"><ele>-3.0</ele><time>2026-04-12T11:52:16.999Z</time></trkpt><trkpt lat="44.618648672361886" lon="12.235839080892731"><ele>-3.0</ele><time>2026-04-12T11:52:18.999Z</time></trkpt><trkpt lat="44.61872065690657" lon="12.235926159035271"><ele>-3.0</ele><time>2026-04-12T11:52:20.999Z</time></trkpt><trkpt lat="44.61879331373574" lon="12.236027876368036"><ele>-3.0</ele><time>2026-04-12T11:52:22.999Z</time></trkpt><trkpt lat="44.61885843971548" lon="12.236091243098553"><ele>-3.0</ele><time>2026-04-12T11:52:25Z</time></trkpt><trkpt lat="44.61892247344127" lon="12.236170944140136"><ele>-3.0</ele><time>2026-04-12T11:52:27Z</time></trkpt><trkpt lat="44.61898160425314" lon="12.2362276965807"><ele>-3.0</ele><time>2026-04-12T11:52:29Z</time></trkpt><trkpt lat="44.61905015603782" lon="12.236302886363122"><ele>-3.0</ele><time>2026-04-12T11:52:31Z</time></trkpt><trkpt lat="44.6191265452047" lon="12.236389179511006"><ele>-3.0</ele><time>2026-04-12T11:52:33Z</time></trkpt><trkpt lat="44.61919656336089" lon="12.236469920852196"><ele>-3.0</ele><time>2026-04-12T11:52:35Z</time></trkpt><trkpt lat="44.61926215009486" lon="12.236542446245641"><ele>-3.0</ele><time>2026-04-12T11:52:37Z</time></trkpt><trkpt lat="44.619319285012395" lon="12.236622894705711"><ele>-3.0</ele><time>2026-04-12T11:52:39Z</time></trkpt><trkpt lat="44.619379167452074" lon="12.236690777271479"><ele>-3.0</ele><time>2026-04-12T11:52:41Z</time></trkpt><trkpt lat="44.61943662684101" lon="12.236749597398017"><ele>-3.0</ele><time>2026-04-12T11:52:43Z</time></trkpt><trkpt lat="44.61949211049405" lon="12.236813890470067"><ele>-2.8571428571428568</ele><time>2026-04-12T11:52:45Z</time></trkpt><trkpt lat="44.61955786199368" lon="12.236860468587818"><ele>-2.7142857142857144</ele><time>2026-04-12T11:52:47Z</time></trkpt><trkpt lat="44.61962427416054" lon="12.236916520140285"><ele>-2.571428571428571</ele><time>2026-04-12T11:52:49Z</time></trkpt><trkpt lat="44.619694165321796" lon="12.236964345999418"><ele>-2.4285714285714284</ele><time>2026-04-12T11:52:51Z</time></trkpt><trkpt lat="44.61976398954899" lon="12.236995336521007"><ele>-2.2857142857142856</ele><time>2026-04-12T11:52:53Z</time></trkpt><trkpt lat="44.61984093184661" lon="12.237000032868272"><ele>-2.142857142857143</ele><time>2026-04-12T11:52:55Z</time></trkpt><trkpt lat="44.61990385996074" lon="12.237005968626677"><ele>-2.0</ele><time>2026-04-12T11:52:57Z</time></trkpt><trkpt lat="44.61998985910904" lon="12.236974094589998"><ele>-2.0</ele><time>2026-04-12T11:53:00Z</time></trkpt><trkpt lat="44.62005589853544" lon="12.236961722646784"><ele>-1.9999999999999998</ele><time>2026-04-12T11:53:03Z</time></trkpt><trkpt lat="44.62012194873583" lon="12.236940015320867"><ele>-2.0</ele><time>2026-04-12T11:53:06Z</time></trkpt><trkpt lat="44.620189786638576" lon="12.23691436719947"><ele>-2.0</ele><time>2026-04-12T11:53:09Z</time></trkpt><trkpt lat="44.620271222404455" lon="12.236878830505937"><ele>-1.9999999999999998</ele><time>2026-04-12T11:53:13Z</time></trkpt><trkpt lat="44.62033794561959" lon="12.236852793701546"><ele>-2.0</ele><time>2026-04-12T11:53:16Z</time></trkpt><trkpt lat="44.62042520144424" lon="12.236834615293876"><ele>-2.0</ele><time>2026-04-12T11:53:20Z</time></trkpt><trkpt lat="44.62050633009856" lon="12.23690837234405"><ele>-1.8333333333333333</ele><time>2026-04-12T11:53:23Z</time></trkpt><trkpt lat="44.62051685387768" lon="12.237027225993574"><ele>-1.6666666666666665</ele><time>2026-04-12T11:53:26Z</time></trkpt><trkpt lat="44.620509680068494" lon="12.23713247828464"><ele>-1.5</ele><time>2026-04-12T11:53:28Z</time></trkpt><trkpt lat="44.620506612908954" lon="12.23724298781043"><ele>-1.3333333333333333</ele><time>2026-04-12T11:53:30Z</time></trkpt><trkpt lat="44.62050875673657" lon="12.23736110593149"><ele>-1.1666666666666665</ele><time>2026-04-12T11:53:32Z</time></trkpt><trkpt lat="44.620518730093195" lon="12.23746354652263"><ele>-1.0</ele><time>2026-04-12T11:53:34Z</time></trkpt><trkpt lat="44.62053744900063" lon="12.237552622214679"><ele>-0.9999999999999999</ele><time>2026-04-12T11:53:36Z</time></trkpt><trkpt lat="44.62056094422516" lon="12.237667741207643"><ele>-1.0</ele><time>2026-04-12T11:53:39Z</time></trkpt><trkpt lat="44.62057075514664" lon="12.237772523369523"><ele>-1.0</ele><time>2026-04-12T11:53:42Z</time></trkpt><trkpt lat="44.620569245617666" lon="12.237871622638604"><ele>-1.0</ele><time>2026-04-12T11:53:45Z</time></trkpt><trkpt lat="44.620589600156556" lon="12.237993462965896"><ele>-0.9999999999999999</ele><time>2026-04-12T11:53:48Z</time></trkpt><trkpt lat="44.6206100453373" lon="12.238105177079781"><ele>-1.0</ele><time>2026-04-12T11:53:51Z</time></trkpt><trkpt lat="44.62063001881954" lon="12.23822578349044"><ele>-1.0</ele><time>2026-04-12T11:53:53.999Z</time></trkpt><trkpt lat="44.62065116868718" lon="12.238349359878159"><ele>-0.9999999999999999</ele><time>2026-04-12T11:53:56.999Z</time></trkpt><trkpt lat="44.62066419487496" lon="12.238439309632984"><ele>-1.0</ele><time>2026-04-12T11:53:58.999Z</time></trkpt><trkpt lat="44.620678997689" lon="12.238529640318594"><ele>-1.0</ele><time>2026-04-12T11:54:00.999Z</time></trkpt><trkpt lat="44.62069327929967" lon="12.23862023362483"><ele>-0.9999999999999999</ele><time>2026-04-12T11:54:02.999Z</time></trkpt><trkpt lat="44.62070634899094" lon="12.23871728837572"><ele>-1.0</ele><time>2026-04-12T11:54:04.999Z</time></trkpt><trkpt lat="44.62072169530098" lon="12.238811415521875"><ele>-1.0</ele><time>2026-04-12T11:54:06.999Z</time></trkpt><trkpt lat="44.62073816974835" lon="12.238901810362176"><ele>-0.8571428571428571</ele><time>2026-04-12T11:54:08.999Z</time></trkpt><trkpt lat="44.62075689161123" lon="12.238990359648334"><ele>-0.7142857142857142</ele><time>2026-04-12T11:54:10.999Z</time></trkpt><trkpt lat="44.6207700630123" lon="12.23908481609331"><ele>-0.5714285714285714</ele><time>2026-04-12T11:54:12.999Z</time></trkpt><trkpt lat="44.62079292524399" lon="12.239177187866206"><ele>-0.42857142857142855</ele><time>2026-04-12T11:54:14.999Z</time></trkpt><trkpt lat="44.62080905368139" lon="12.239270743395895"><ele>-0.2857142857142857</ele><time>2026-04-12T11:54:16.999Z</time></trkpt><trkpt lat="44.62083379466108" lon="12.23936181617194"><ele>-0.14285714285714285</ele><time>2026-04-12T11:54:18.999Z</time></trkpt><trkpt lat="44.620857962528" lon="12.239456070999012"><ele>0.0</ele><time>2026-04-12T11:54:20.999Z</time></trkpt><trkpt lat="44.62087561224629" lon="12.23955425047821"><ele>0.0</ele><time>2026-04-12T11:54:22.999Z</time></trkpt><trkpt lat="44.62089953784131" lon="12.239649398893368"><ele>0.0</ele><time>2026-04-12T11:54:24.999Z</time></trkpt><trkpt lat="44.620917878584514" lon="12.239752354060142"><ele>0.0</ele><time>2026-04-12T11:54:26.999Z</time></trkpt><trkpt lat="44.62094070293128" lon="12.239853929142114"><ele>0.0</ele><time>2026-04-12T11:54:28.999Z</time></trkpt><trkpt lat="44.62095867627021" lon="12.239959588005037"><ele>0.0</ele><time>2026-04-12T11:54:31Z</time></trkpt><trkpt lat="44.62097945068217" lon="12.24006528034752"><ele>0.0</ele><time>2026-04-12T11:54:33Z</time></trkpt><trkpt lat="44.62099713581713" lon="12.240171893320616"><ele>0.3333333333333333</ele><time>2026-04-12T11:54:35Z</time></trkpt><trkpt lat="44.621017764381406" lon="12.24027687355326"><ele>0.6666666666666666</ele><time>2026-04-12T11:54:37Z</time></trkpt><trkpt lat="44.62103667040509" lon="12.24037852513459"><ele>1.0</ele><time>2026-04-12T11:54:39Z</time></trkpt><trkpt lat="44.62105360573785" lon="12.240484678295498"><ele>1.3333333333333333</ele><time>2026-04-12T11:54:41Z</time></trkpt><trkpt lat="44.62106921676942" lon="12.24058669993166"><ele>1.6666666666666665</ele><time>2026-04-12T11:54:43Z</time></trkpt><trkpt lat="44.62109120839895" lon="12.240693248249055"><ele>2.0</ele><time>2026-04-12T11:54:45Z</time></trkpt><trkpt lat="44.621107660694804" lon="12.240789167437391"><ele>1.9999999999999998</ele><time>2026-04-12T11:54:47Z</time></trkpt><trkpt lat="44.62112503228033" lon="12.240876616639513"><ele>2.0</ele><time>2026-04-12T11:54:49Z</time></trkpt><trkpt lat="44.621153073831266" lon="12.241009146015138"><ele>2.0</ele><time>2026-04-12T11:54:52Z</time></trkpt><trkpt lat="44.621175521646464" lon="12.24113399715593"><ele>2.0</ele><time>2026-04-12T11:54:55Z</time></trkpt><trkpt lat="44.62119714270861" lon="12.241235122256622"><ele>1.9999999999999998</ele><time>2026-04-12T11:54:57Z</time></trkpt><trkpt lat="44.62122345618865" lon="12.24136264165708"><ele>2.0</ele><time>2026-04-12T11:55:00Z</time></trkpt><trkpt lat="44.621234441677615" lon="12.241472153561737"><ele>1.7142857142857142</ele><time>2026-04-12T11:55:02Z</time></trkpt><trkpt lat="44.62125326437731" lon="12.241580722363755"><ele>1.4285714285714284</ele><time>2026-04-12T11:55:04Z</time></trkpt><trkpt lat="44.62126908397671" lon="12.241694556313993"><ele>1.1428571428571428</ele><time>2026-04-12T11:55:06Z</time></trkpt><trkpt lat="44.6212797558495" lon="12.241798127185158"><ele>0.8571428571428571</ele><time>2026-04-12T11:55:08Z</time></trkpt><trkpt lat="44.62129039912623" lon="12.241892618505723"><ele>0.5714285714285714</ele><time>2026-04-12T11:55:10Z</time></trkpt><trkpt lat="44.621299894773884" lon="12.24198895188448"><ele>0.2857142857142857</ele><time>2026-04-12T11:55:12Z</time></trkpt><trkpt lat="44.62131636497839" lon="12.242082529397454"><ele>0.0</ele><time>2026-04-12T11:55:14Z</time></trkpt><trkpt lat="44.62132514403722" lon="12.242173030956206"><ele>0.0</ele><time>2026-04-12T11:55:16Z</time></trkpt><trkpt lat="44.62132920718868" lon="12.242306484714373"><ele>0.0</ele><time>2026-04-12T11:55:19Z</time></trkpt><trkpt lat="44.62134972895272" lon="12.242408245400656"><ele>0.0</ele><time>2026-04-12T11:55:21Z</time></trkpt><trkpt lat="44.62137101712877" lon="12.242535637782312"><ele>0.0</ele><time>2026-04-12T11:55:24Z</time></trkpt><trkpt lat="44.62138259133469" lon="12.242646225044464"><ele>0.0</ele><time>2026-04-12T11:55:27Z</time></trkpt><trkpt lat="44.62141647761584" lon="12.242729803728347"><ele>0.0</ele><time>2026-04-12T11:55:30Z</time></trkpt><trkpt lat="44.62146134404655" lon="12.242801580769052"><ele>0.0</ele><time>2026-04-12T11:56:44Z</time></trkpt><trkpt lat="44.62147164478551" lon="12.242910915674218"><ele>0.0</ele><time>2026-04-12T11:56:49Z</time></trkpt><trkpt lat="44.621497049873376" lon="12.243012674153727"><ele>0.0</ele><time>2026-04-12T11:56:53Z</time></trkpt><trkpt lat="44.621512270427715" lon="12.243122251291533"><ele>0.0</ele><time>2026-04-12T11:56:56Z</time></trkpt><trkpt lat="44.62152890525164" lon="12.24321515356311"><ele>0.0</ele><time>2026-04-12T11:56:59Z</time></trkpt><trkpt lat="44.62154155258387" lon="12.24331862391271"><ele>0.0</ele><time>2026-04-12T11:57:03Z</time></trkpt><trkpt lat="44.62156827462678" lon="12.243401838429536"><ele>0.0</ele><time>2026-04-12T11:57:06Z</time></trkpt><trkpt lat="44.62157185842963" lon="12.243497168144092"><ele>0.0</ele><time>2026-04-12T11:57:10Z</time></trkpt><trkpt lat="44.62158099833381" lon="12.243602083802738"><ele>0.0</ele><time>2026-04-12T11:57:14Z</time></trkpt><trkpt lat="44.62159030549275" lon="12.243706193938625"><ele>0.0</ele><time>2026-04-12T11:57:17Z</time></trkpt><trkpt lat="44.62161750717611" lon="12.24379057899196"><ele>0.0</ele><time>2026-04-12T11:57:20Z</time></trkpt><trkpt lat="44.62163260522884" lon="12.243897651194896"><ele>0.0</ele><time>2026-04-12T11:57:23Z</time></trkpt><trkpt lat="44.62164178424096" lon="12.244004517243201"><ele>0.0</ele><time>2026-04-12T11:57:26Z</time></trkpt><trkpt lat="44.62166551693615" lon="12.244106606516274"><ele>0.0</ele><time>2026-04-12T11:57:29Z</time></trkpt><trkpt lat="44.62168394936472" lon="12.244191689130346"><ele>0.14285714285714285</ele><time>2026-04-12T11:57:32Z</time></trkpt><trkpt lat="44.62169534969736" lon="12.24428332394639"><ele>0.2857142857142857</ele><time>2026-04-12T11:57:35Z</time></trkpt><trkpt lat="44.62170155703766" lon="12.244373408417852"><ele>0.42857142857142855</ele><time>2026-04-12T11:57:38Z</time></trkpt><trkpt lat="44.62172097098296" lon="12.244488970035846"><ele>0.5714285714285714</ele><time>2026-04-12T11:57:42Z</time></trkpt><trkpt lat="44.621734965170475" lon="12.24457633501949"><ele>0.7142857142857142</ele><time>2026-04-12T11:57:44Z</time></trkpt><trkpt lat="44.62175464715355" lon="12.244680255288689"><ele>0.8571428571428571</ele><time>2026-04-12T11:57:46Z</time></trkpt><trkpt lat="44.62178293907778" lon="12.244800029769218"><ele>1.0</ele><time>2026-04-12T11:57:48Z</time></trkpt><trkpt lat="44.62180097684683" lon="12.244899630090906"><ele>0.9999999999999999</ele><time>2026-04-12T11:57:50Z</time></trkpt><trkpt lat="44.6218215520325" lon="12.245006775033985"><ele>1.0</ele><time>2026-04-12T11:57:52Z</time></trkpt><trkpt lat="44.62184738611719" lon="12.245102025128984"><ele>1.0</ele><time>2026-04-12T11:57:53.999Z</time></trkpt><trkpt lat="44.621873880671934" lon="12.245209888401444"><ele>1.0</ele><time>2026-04-12T11:57:55.999Z</time></trkpt><trkpt lat="44.62188820509931" lon="12.245318040431023"><ele>0.9999999999999999</ele><time>2026-04-12T11:57:57.999Z</time></trkpt><trkpt lat="44.62189556790017" lon="12.245406677886912"><ele>1.0</ele><time>2026-04-12T11:57:59.999Z</time></trkpt><trkpt lat="44.62190099387514" lon="12.245515192336988"><ele>0.9999999999999999</ele><time>2026-04-12T11:58:02.999Z</time></trkpt><trkpt lat="44.62191253792705" lon="12.245630561125006"><ele>1.0</ele><time>2026-04-12T11:58:05.999Z</time></trkpt><trkpt lat="44.62193917195366" lon="12.245720723162044"><ele>1.0</ele><time>2026-04-12T11:58:08.999Z</time></trkpt><trkpt lat="44.62192118961709" lon="12.245818370239576"><ele>1.0</ele><time>2026-04-12T11:58:11.999Z</time></trkpt><trkpt lat="44.62188808482099" lon="12.245929862875084"><ele>0.9999999999999999</ele><time>2026-04-12T11:58:14.999Z</time></trkpt><trkpt lat="44.62182706315949" lon="12.246010869131032"><ele>1.0</ele><time>2026-04-12T11:58:17.999Z</time></trkpt><trkpt lat="44.62179039770402" lon="12.246113306234765"><ele>0.9999999999999999</ele><time>2026-04-12T11:58:20.999Z</time></trkpt><trkpt lat="44.621791466450354" lon="12.246226299939714"><ele>1.0</ele><time>2026-04-12T11:58:23.999Z</time></trkpt><trkpt lat="44.62179583866849" lon="12.24631926036162"><ele>1.0</ele><time>2026-04-12T11:58:26.999Z</time></trkpt><trkpt lat="44.62179278313277" lon="12.246428984620147"><ele>1.0</ele><time>2026-04-12T11:58:30.999Z</time></trkpt><trkpt lat="44.621787907784004" lon="12.246560068963234"><ele>0.9999999999999999</ele><time>2026-04-12T11:58:33.999Z</time></trkpt><trkpt lat="44.621781534580506" lon="12.246650022096848"><ele>1.0</ele><time>2026-04-12T11:58:35.999Z</time></trkpt><trkpt lat="44.621774776061535" lon="12.246752135823264"><ele>1.0</ele><time>2026-04-12T11:58:37.999Z</time></trkpt><trkpt lat="44.62177273546858" lon="12.246850782837383"><ele>0.9999999999999999</ele><time>2026-04-12T11:58:39.999Z</time></trkpt><trkpt lat="44.621769597600064" lon="12.246947790393667"><ele>1.0</ele><time>2026-04-12T11:58:42Z</time></trkpt><trkpt lat="44.6217683767134" lon="12.24704536796618"><ele>1.0</ele><time>2026-04-12T11:58:44Z</time></trkpt><trkpt lat="44.62176758789479" lon="12.247137705286043"><ele>0.9999999999999999</ele><time>2026-04-12T11:58:46Z</time></trkpt><trkpt lat="44.62176403661075" lon="12.247238075282537"><ele>1.0</ele><time>2026-04-12T11:58:48Z</time></trkpt><trkpt lat="44.62176322019616" lon="12.247335575902822"><ele>1.0</ele><time>2026-04-12T11:58:50Z</time></trkpt><trkpt lat="44.62175863954247" lon="12.247432962882076"><ele>0.9999999999999999</ele><time>2026-04-12T11:58:52Z</time></trkpt><trkpt lat="44.6217566844837" lon="12.247528191807813"><ele>1.0</ele><time>2026-04-12T11:58:54Z</time></trkpt><trkpt lat="44.6217507551213" lon="12.247621647575022"><ele>1.0</ele><time>2026-04-12T11:58:56Z</time></trkpt><trkpt lat="44.62174134936386" lon="12.247747604959036"><ele>1.0</ele><time>2026-04-12T11:58:59Z</time></trkpt><trkpt lat="44.62175790912559" lon="12.247865919187136"><ele>0.9999999999999999</ele><time>2026-04-12T11:59:02Z</time></trkpt><trkpt lat="44.62182813890451" lon="12.247929839991857"><ele>1.0</ele><time>2026-04-12T11:59:05Z</time></trkpt><trkpt lat="44.621890811811035" lon="12.247938235165707"><ele>0.9999999999999999</ele><time>2026-04-12T11:59:07Z</time></trkpt><trkpt lat="44.62197145949561" lon="12.247882726343004"><ele>1.0</ele><time>2026-04-12T11:59:10Z</time></trkpt><trkpt lat="44.62203910417262" lon="12.247840237285972"><ele>1.0</ele><time>2026-04-12T11:59:13Z</time></trkpt><trkpt lat="44.622110702673226" lon="12.247854403008835"><ele>1.0</ele><time>2026-04-12T11:59:16Z</time></trkpt><trkpt lat="44.62215532761068" lon="12.247936705634352"><ele>0.9999999999999999</ele><time>2026-04-12T11:59:18Z</time></trkpt><trkpt lat="44.622167980232575" lon="12.24805109109233"><ele>1.0</ele><time>2026-04-12T11:59:21Z</time></trkpt><trkpt lat="44.622210799448226" lon="12.248120560048562"><ele>0.8333333333333333</ele><time>2026-04-12T11:59:23Z</time></trkpt><trkpt lat="44.62226178841691" lon="12.248185044257882"><ele>0.6666666666666666</ele><time>2026-04-12T11:59:27Z</time></trkpt><trkpt lat="44.62233613744026" lon="12.248140361408655"><ele>0.5</ele><time>2026-04-12T11:59:30Z</time></trkpt><trkpt lat="44.62240729964147" lon="12.24809138870923"><ele>0.3333333333333333</ele><time>2026-04-12T11:59:33Z</time></trkpt><trkpt lat="44.62246549718358" lon="12.248052501548479"><ele>0.16666666666666666</ele><time>2026-04-12T11:59:35Z</time></trkpt><trkpt lat="44.62256305772238" lon="12.24799628816164"><ele>0.0</ele><time>2026-04-12T11:59:38Z</time></trkpt><trkpt lat="44.62263053198226" lon="12.247956157715294"><ele>0.0</ele><time>2026-04-12T11:59:40Z</time></trkpt><trkpt lat="44.62269190721673" lon="12.247902159716434"><ele>0.0</ele><time>2026-04-12T11:59:42Z</time></trkpt><trkpt lat="44.622770452589336" lon="12.24786233206191"><ele>0.0</ele><time>2026-04-12T11:59:44Z</time></trkpt><trkpt lat="44.622843143035276" lon="12.2478141214303"><ele>0.0</ele><time>2026-04-12T11:59:46Z</time></trkpt><trkpt lat="44.6229148854708" lon="12.247764413474792"><ele>0.0</ele><time>2026-04-12T11:59:47.999Z</time></trkpt><trkpt lat="44.62297454958456" lon="12.24773287309434"><ele>0.0</ele><time>2026-04-12T11:59:49.999Z</time></trkpt><trkpt lat="44.62304452390179" lon="12.247686912113638"><ele>-0.16666666666666666</ele><time>2026-04-12T11:59:51.999Z</time></trkpt><trkpt lat="44.62310922537952" lon="12.247642414740264"><ele>-0.3333333333333333</ele><time>2026-04-12T11:59:53.999Z</time></trkpt><trkpt lat="44.62318307439667" lon="12.247597900040965"><ele>-0.5</ele><time>2026-04-12T11:59:55.999Z</time></trkpt><trkpt lat="44.62325802649021" lon="12.24754542401011"><ele>-0.6666666666666666</ele><time>2026-04-12T11:59:57.999Z</time></trkpt><trkpt lat="44.62333524711911" lon="12.247501375119606"><ele>-0.8333333333333333</ele><time>2026-04-12T11:59:59.999Z</time></trkpt><trkpt lat="44.62340433653052" lon="12.247453742389707"><ele>-1.0</ele><time>2026-04-12T12:00:01.999Z</time></trkpt><trkpt lat="44.623466013168375" lon="12.247412822313496"><ele>-0.9999999999999999</ele><time>2026-04-12T12:00:03.999Z</time></trkpt><trkpt lat="44.62352247536867" lon="12.247367152326547"><ele>-1.0</ele><time>2026-04-12T12:00:05.999Z</time></trkpt><trkpt lat="44.62358840684872" lon="12.247324484013806"><ele>-1.0</ele><time>2026-04-12T12:00:07.999Z</time></trkpt><trkpt lat="44.62365430792623" lon="12.247286571376865"><ele>-1.0</ele><time>2026-04-12T12:00:09.999Z</time></trkpt><trkpt lat="44.623731774450555" lon="12.247232740162245"><ele>-0.9999999999999999</ele><time>2026-04-12T12:00:11.999Z</time></trkpt><trkpt lat="44.6238132843645" lon="12.2471672922166"><ele>-1.0</ele><time>2026-04-12T12:00:13.999Z</time></trkpt><trkpt lat="44.62387027707387" lon="12.247122592671612"><ele>-0.8</ele><time>2026-04-12T12:00:14.999Z</time></trkpt><trkpt lat="44.62394403312271" lon="12.247086761206708"><ele>-0.6000000000000001</ele><time>2026-04-12T12:00:16.999Z</time></trkpt><trkpt lat="44.62403168356672" lon="12.24703373836128"><ele>-0.4</ele><time>2026-04-12T12:00:18.999Z</time></trkpt><trkpt lat="44.62411469647221" lon="12.246978821531204"><ele>-0.2</ele><time>2026-04-12T12:00:20.999Z</time></trkpt><trkpt lat="44.62420198587365" lon="12.246922300127377"><ele>0.0</ele><time>2026-04-12T12:00:22.999Z</time></trkpt><trkpt lat="44.62429479392493" lon="12.246867196169985"><ele>0.0</ele><time>2026-04-12T12:00:24.999Z</time></trkpt><trkpt lat="44.624388630276066" lon="12.246807479502408"><ele>0.0</ele><time>2026-04-12T12:00:26.999Z</time></trkpt><trkpt lat="44.62448308150544" lon="12.246748760599594"><ele>0.0</ele><time>2026-04-12T12:00:28.999Z</time></trkpt><trkpt lat="44.62458189882317" lon="12.246685842029814"><ele>0.0</ele><time>2026-04-12T12:00:30.999Z</time></trkpt><trkpt lat="44.624678431683996" lon="12.24662230162784"><ele>0.0</ele><time>2026-04-12T12:00:32.999Z</time></trkpt><trkpt lat="44.624776506383405" lon="12.246564186901656"><ele>-0.2</ele><time>2026-04-12T12:00:34.999Z</time></trkpt><trkpt lat="44.62487636475302" lon="12.246494771445132"><ele>-0.4</ele><time>2026-04-12T12:00:36.999Z</time></trkpt><trkpt lat="44.62497569469673" lon="12.246442232624629"><ele>-0.6000000000000001</ele><time>2026-04-12T12:00:38.999Z</time></trkpt><trkpt lat="44.62507114386472" lon="12.246388542666427"><ele>-0.8</ele><time>2026-04-12T12:00:40.999Z</time></trkpt><trkpt lat="44.62516688856407" lon="12.246323945729737"><ele>-1.0</ele><time>2026-04-12T12:00:42.999Z</time></trkpt><trkpt lat="44.62526343906469" lon="12.246262441754887"><ele>-1.0</ele><time>2026-04-12T12:00:44.999Z</time></trkpt><trkpt lat="44.62535923298126" lon="12.246202370030703"><ele>-1.0</ele><time>2026-04-12T12:00:47Z</time></trkpt><trkpt lat="44.62545628565375" lon="12.246140663888111"><ele>-1.0</ele><time>2026-04-12T12:00:49Z</time></trkpt><trkpt lat="44.62555207768194" lon="12.24608197236086"><ele>-1.0</ele><time>2026-04-12T12:00:51Z</time></trkpt><trkpt lat="44.625644444929684" lon="12.246022284011964"><ele>-1.0</ele><time>2026-04-12T12:00:53Z</time></trkpt><trkpt lat="44.62573813457605" lon="12.245966420700068"><ele>-1.0</ele><time>2026-04-12T12:00:55Z</time></trkpt><trkpt lat="44.62583105634597" lon="12.24590804880993"><ele>-1.0</ele><time>2026-04-12T12:00:57Z</time></trkpt><trkpt lat="44.62593472782713" lon="12.245841256922358"><ele>-1.0</ele><time>2026-04-12T12:00:59Z</time></trkpt><trkpt lat="44.626029668420294" lon="12.24578592005544"><ele>-1.0</ele><time>2026-04-12T12:01:01Z</time></trkpt><trkpt lat="44.62612359664045" lon="12.245722477552919"><ele>-1.0</ele><time>2026-04-12T12:01:03Z</time></trkpt><trkpt lat="44.62621999934261" lon="12.245662245370626"><ele>-0.8</ele><time>2026-04-12T12:01:05Z</time></trkpt><trkpt lat="44.626319668640974" lon="12.245613245807782"><ele>-0.6000000000000001</ele><time>2026-04-12T12:01:07Z</time></trkpt><trkpt lat="44.62642041037318" lon="12.245546883757063"><ele>-0.4</ele><time>2026-04-12T12:01:09Z</time></trkpt><trkpt lat="44.62651401506259" lon="12.245483328011243"><ele>-0.2</ele><time>2026-04-12T12:01:11Z</time></trkpt><trkpt lat="44.626613190879006" lon="12.24541898159503"><ele>0.0</ele><time>2026-04-12T12:01:13Z</time></trkpt><trkpt lat="44.626713404225704" lon="12.245355296639284"><ele>0.0</ele><time>2026-04-12T12:01:15Z</time></trkpt><trkpt lat="44.62680995789821" lon="12.245288879977192"><ele>0.0</ele><time>2026-04-12T12:01:17Z</time></trkpt><trkpt lat="44.626911034932824" lon="12.245222575365148"><ele>0.0</ele><time>2026-04-12T12:01:19Z</time></trkpt><trkpt lat="44.627010577324874" lon="12.245161149552558"><ele>0.0</ele><time>2026-04-12T12:01:21Z</time></trkpt><trkpt lat="44.627113269837174" lon="12.245093594191722"><ele>0.0</ele><time>2026-04-12T12:01:23Z</time></trkpt><trkpt lat="44.62721605158398" lon="12.245031904297337"><ele>0.0</ele><time>2026-04-12T12:01:25Z</time></trkpt><trkpt lat="44.6273177595204" lon="12.244968569787563"><ele>0.0</ele><time>2026-04-12T12:01:27Z</time></trkpt><trkpt lat="44.627415628927515" lon="12.244905768012416"><ele>0.0</ele><time>2026-04-12T12:01:29Z</time></trkpt><trkpt lat="44.627506438839724" lon="12.24485001912741"><ele>0.0</ele><time>2026-04-12T12:01:31Z</time></trkpt><trkpt lat="44.627602372121835" lon="12.244802393942345"><ele>0.0</ele><time>2026-04-12T12:01:33Z</time></trkpt><trkpt lat="44.62768037245182" lon="12.24474243973112"><ele>0.2</ele><time>2026-04-12T12:01:35Z</time></trkpt><trkpt lat="44.627769869218014" lon="12.244686526983243"><ele>0.4</ele><time>2026-04-12T12:01:37Z</time></trkpt><trkpt lat="44.62786156495679" lon="12.24463102122785"><ele>0.6000000000000001</ele><time>2026-04-12T12:01:38.999Z</time></trkpt><trkpt lat="44.62795323373751" lon="12.244580688760154"><ele>0.8</ele><time>2026-04-12T12:01:40.999Z</time></trkpt><trkpt lat="44.62804353930619" lon="12.24452618878796"><ele>1.0</ele><time>2026-04-12T12:01:42.999Z</time></trkpt><trkpt lat="44.62813358371535" lon="12.244473819327998"><ele>1.0</ele><time>2026-04-12T12:01:44.999Z</time></trkpt><trkpt lat="44.62822713675557" lon="12.244421306339577"><ele>1.0</ele><time>2026-04-12T12:01:46.999Z</time></trkpt><trkpt lat="44.62831793052917" lon="12.24436869063817"><ele>1.0</ele><time>2026-04-12T12:01:48.999Z</time></trkpt><trkpt lat="44.62840576368617" lon="12.244301819981757"><ele>1.0</ele><time>2026-04-12T12:01:50.999Z</time></trkpt><trkpt lat="44.62850193447137" lon="12.244253997832988"><ele>1.0</ele><time>2026-04-12T12:01:52.999Z</time></trkpt><trkpt lat="44.62861396137744" lon="12.244212550564054"><ele>1.0</ele><time>2026-04-12T12:01:54.999Z</time></trkpt><trkpt lat="44.628719874549" lon="12.244158201832603"><ele>1.0</ele><time>2026-04-12T12:01:56.999Z</time></trkpt><trkpt lat="44.62881606057824" lon="12.24410068352696"><ele>1.0</ele><time>2026-04-12T12:01:58.999Z</time></trkpt><trkpt lat="44.62889218662501" lon="12.24406395856026"><ele>1.0</ele><time>2026-04-12T12:02:00.999Z</time></trkpt><trkpt lat="44.628968928151735" lon="12.244027529291106"><ele>1.0</ele><time>2026-04-12T12:02:02.999Z</time></trkpt><trkpt lat="44.6290394039314" lon="12.243989222137245"><ele>0.8333333333333333</ele><time>2026-04-12T12:02:04.999Z</time></trkpt><trkpt lat="44.62910511486385" lon="12.24395090200595"><ele>0.6666666666666666</ele><time>2026-04-12T12:02:06.999Z</time></trkpt><trkpt lat="44.629171414898686" lon="12.243931425659465"><ele>0.5</ele><time>2026-04-12T12:02:08.999Z</time></trkpt><trkpt lat="44.62925631719358" lon="12.243880634294477"><ele>0.3333333333333333</ele><time>2026-04-12T12:02:11.999Z</time></trkpt><trkpt lat="44.62931867568411" lon="12.243837175480664"><ele>0.16666666666666666</ele><time>2026-04-12T12:02:13.999Z</time></trkpt><trkpt lat="44.629404029415966" lon="12.243794714151589"><ele>0.0</ele><time>2026-04-12T12:02:16.999Z</time></trkpt><trkpt lat="44.62948481630006" lon="12.243764336759108"><ele>0.0</ele><time>2026-04-12T12:02:19.999Z</time></trkpt><trkpt lat="44.62955440974364" lon="12.243723104132393"><ele>0.0</ele><time>2026-04-12T12:02:22.999Z</time></trkpt><trkpt lat="44.62962122145779" lon="12.243689373825134"><ele>0.0</ele><time>2026-04-12T12:02:25.999Z</time></trkpt><trkpt lat="44.62969337054259" lon="12.24365348700099"><ele>0.0</ele><time>2026-04-12T12:02:28.999Z</time></trkpt><trkpt lat="44.62976148144633" lon="12.24361996288592"><ele>0.0</ele><time>2026-04-12T12:02:31.999Z</time></trkpt><trkpt lat="44.62983049641313" lon="12.24358337931962"><ele>0.0</ele><time>2026-04-12T12:02:35.999Z</time></trkpt><trkpt lat="44.62991290508739" lon="12.243543860376745"><ele>0.0</ele><time>2026-04-12T12:02:38.999Z</time></trkpt><trkpt lat="44.630003466983446" lon="12.24349817499425"><ele>0.0</ele><time>2026-04-12T12:02:41.999Z</time></trkpt><trkpt lat="44.63007155386585" lon="12.243456551721826"><ele>0.0</ele><time>2026-04-12T12:02:43.999Z</time></trkpt><trkpt lat="44.63014436094473" lon="12.243417724639206"><ele>0.0</ele><time>2026-04-12T12:02:45.999Z</time></trkpt><trkpt lat="44.63022290417963" lon="12.243385641882865"><ele>0.0</ele><time>2026-04-12T12:02:47.999Z</time></trkpt><trkpt lat="44.63029489132315" lon="12.243347082823107"><ele>0.0</ele><time>2026-04-12T12:02:49.999Z</time></trkpt><trkpt lat="44.63036834585315" lon="12.243308978117673"><ele>0.0</ele><time>2026-04-12T12:02:52Z</time></trkpt><trkpt lat="44.630444792374334" lon="12.243266987537861"><ele>0.0</ele><time>2026-04-12T12:02:54Z</time></trkpt><trkpt lat="44.630535382155095" lon="12.24322318257952"><ele>0.0</ele><time>2026-04-12T12:02:56Z</time></trkpt><trkpt lat="44.63062446097752" lon="12.243179365171667"><ele>0.0</ele><time>2026-04-12T12:02:58Z</time></trkpt><trkpt lat="44.63071162808947" lon="12.243133407653154"><ele>0.0</ele><time>2026-04-12T12:03:00Z</time></trkpt><trkpt lat="44.63078866874833" lon="12.243090737649254"><ele>0.0</ele><time>2026-04-12T12:03:02Z</time></trkpt><trkpt lat="44.630861111209896" lon="12.243054458501133"><ele>0.0</ele><time>2026-04-12T12:03:04Z</time></trkpt><trkpt lat="44.63093073650444" lon="12.243017069072915"><ele>0.0</ele><time>2026-04-12T12:03:06Z</time></trkpt><trkpt lat="44.63101723182862" lon="12.242974030970073"><ele>0.0</ele><time>2026-04-12T12:03:08Z</time></trkpt><trkpt lat="44.63111352029378" lon="12.242919872425524"><ele>0.0</ele><time>2026-04-12T12:03:10Z</time></trkpt><trkpt lat="44.63120847012729" lon="12.242879445120964"><ele>0.0</ele><time>2026-04-12T12:03:12Z</time></trkpt><trkpt lat="44.631298727621065" lon="12.242822356868388"><ele>0.0</ele><time>2026-04-12T12:03:14Z</time></trkpt><trkpt lat="44.631386372698266" lon="12.2427704341531"><ele>0.0</ele><time>2026-04-12T12:03:16Z</time></trkpt><trkpt lat="44.63148566130929" lon="12.242722258570378"><ele>0.0</ele><time>2026-04-12T12:03:18Z</time></trkpt><trkpt lat="44.63157681377084" lon="12.242674847128447"><ele>0.0</ele><time>2026-04-12T12:03:20Z</time></trkpt><trkpt lat="44.6316610819625" lon="12.242630119840749"><ele>0.0</ele><time>2026-04-12T12:03:22Z</time></trkpt><trkpt lat="44.63174704476492" lon="12.242585820461448"><ele>0.0</ele><time>2026-04-12T12:03:24Z</time></trkpt><trkpt lat="44.63183261759052" lon="12.242540482458494"><ele>0.0</ele><time>2026-04-12T12:03:26Z</time></trkpt><trkpt lat="44.63192479779854" lon="12.242492567582547"><ele>0.0</ele><time>2026-04-12T12:03:28Z</time></trkpt><trkpt lat="44.63200913712694" lon="12.24244704192698"><ele>0.0</ele><time>2026-04-12T12:03:30Z</time></trkpt><trkpt lat="44.63209229300264" lon="12.242406771837782"><ele>0.0</ele><time>2026-04-12T12:03:32Z</time></trkpt><trkpt lat="44.63216275509002" lon="12.242366102654836"><ele>0.0</ele><time>2026-04-12T12:03:33.999Z</time></trkpt><trkpt lat="44.63224916528396" lon="12.242319824849362"><ele>0.0</ele><time>2026-04-12T12:03:35.999Z</time></trkpt><trkpt lat="44.63233802566958" lon="12.242272488027739"><ele>0.0</ele><time>2026-04-12T12:03:37.999Z</time></trkpt><trkpt lat="44.632441492520904" lon="12.242211616653224"><ele>0.0</ele><time>2026-04-12T12:03:39.999Z</time></trkpt><trkpt lat="44.63255038916444" lon="12.242152865247528"><ele>0.0</ele><time>2026-04-12T12:03:41.999Z</time></trkpt><trkpt lat="44.632648583212685" lon="12.24210900072392"><ele>0.0</ele><time>2026-04-12T12:03:43.999Z</time></trkpt><trkpt lat="44.632741469280866" lon="12.242075789000907"><ele>0.2</ele><time>2026-04-12T12:03:45.999Z</time></trkpt><trkpt lat="44.63282104552818" lon="12.242016690449223"><ele>0.4</ele><time>2026-04-12T12:03:47.999Z</time></trkpt><trkpt lat="44.63290795469054" lon="12.241972727073046"><ele>0.6000000000000001</ele><time>2026-04-12T12:03:49.999Z</time></trkpt><trkpt lat="44.63299478488414" lon="12.241920227471306"><ele>0.8</ele><time>2026-04-12T12:03:51.999Z</time></trkpt><trkpt lat="44.63308131083785" lon="12.241882003812934"><ele>1.0</ele><time>2026-04-12T12:03:53.999Z</time></trkpt><trkpt lat="44.63316400023789" lon="12.241838455248885"><ele>1.0</ele><time>2026-04-12T12:03:55.999Z</time></trkpt><trkpt lat="44.633265539516714" lon="12.241789200290171"><ele>1.0</ele><time>2026-04-12T12:03:57.999Z</time></trkpt><trkpt lat="44.633368683720605" lon="12.241735698737207"><ele>1.0</ele><time>2026-04-12T12:03:59.999Z</time></trkpt><trkpt lat="44.63346445968835" lon="12.241686963530661"><ele>1.0</ele><time>2026-04-12T12:04:01.999Z</time></trkpt><trkpt lat="44.63354827010115" lon="12.241647364345797"><ele>1.0</ele><time>2026-04-12T12:04:03.999Z</time></trkpt><trkpt lat="44.63363862515855" lon="12.241598875776665"><ele>0.4</ele><time>2026-04-12T12:04:05.999Z</time></trkpt><trkpt lat="44.633745740630715" lon="12.241545062230362"><ele>-0.19999999999999996</ele><time>2026-04-12T12:04:07.999Z</time></trkpt><trkpt lat="44.633850645029966" lon="12.241492874015606"><ele>-0.8000000000000002</ele><time>2026-04-12T12:04:09.999Z</time></trkpt><trkpt lat="44.63394172902609" lon="12.241442652223611"><ele>-1.4000000000000001</ele><time>2026-04-12T12:04:11.999Z</time></trkpt><trkpt lat="44.634030998912834" lon="12.241396815580678"><ele>-2.0</ele><time>2026-04-12T12:04:13.999Z</time></trkpt><trkpt lat="44.63411047481383" lon="12.241356772424911"><ele>-1.9999999999999998</ele><time>2026-04-12T12:04:15.999Z</time></trkpt><trkpt lat="44.6341918164268" lon="12.241313684816577"><ele>-2.0</ele><time>2026-04-12T12:04:17.999Z</time></trkpt><trkpt lat="44.634268920076686" lon="12.241273082941412"><ele>-2.0</ele><time>2026-04-12T12:04:19.999Z</time></trkpt><trkpt lat="44.634343693785084" lon="12.241233301441472"><ele>-2.0</ele><time>2026-04-12T12:04:21.999Z</time></trkpt><trkpt lat="44.6344308246754" lon="12.241191012774317"><ele>-1.9999999999999998</ele><time>2026-04-12T12:04:23.999Z</time></trkpt><trkpt lat="44.63452098410105" lon="12.241164013664212"><ele>-2.0</ele><time>2026-04-12T12:04:25.999Z</time></trkpt><trkpt lat="44.6345906383966" lon="12.241112856458415"><ele>-1.9999999999999998</ele><time>2026-04-12T12:04:27.999Z</time></trkpt><trkpt lat="44.63467330530801" lon="12.24106893586943"><ele>-2.0</ele><time>2026-04-12T12:04:29.999Z</time></trkpt><trkpt lat="44.63476632271332" lon="12.241027006611011"><ele>-2.0</ele><time>2026-04-12T12:04:31.999Z</time></trkpt><trkpt lat="44.63484629067381" lon="12.240987003207817"><ele>-2.0</ele><time>2026-04-12T12:04:33.999Z</time></trkpt><trkpt lat="44.63492390172532" lon="12.240952366897613"><ele>-1.9999999999999998</ele><time>2026-04-12T12:04:35.999Z</time></trkpt><trkpt lat="44.63499509998936" lon="12.240920852340523"><ele>-2.0</ele><time>2026-04-12T12:04:37.999Z</time></trkpt><trkpt lat="44.63508209572604" lon="12.240885307481157"><ele>-2.0</ele><time>2026-04-12T12:04:39.999Z</time></trkpt><trkpt lat="44.63517425088858" lon="12.240849790139828"><ele>-2.0</ele><time>2026-04-12T12:04:41.999Z</time></trkpt><trkpt lat="44.63525546401463" lon="12.240816122366915"><ele>-2.0</ele><time>2026-04-12T12:04:43.999Z</time></trkpt><trkpt lat="44.63533257118077" lon="12.240811537445007"><ele>-2.0</ele><time>2026-04-12T12:04:45.999Z</time></trkpt><trkpt lat="44.635432301466984" lon="12.240764287811375"><ele>-2.0</ele><time>2026-04-12T12:04:47.999Z</time></trkpt><trkpt lat="44.63554811618074" lon="12.240733433593038"><ele>-2.0</ele><time>2026-04-12T12:04:49.999Z</time></trkpt><trkpt lat="44.63564430298256" lon="12.240715067187857"><ele>-2.0</ele><time>2026-04-12T12:04:51.999Z</time></trkpt><trkpt lat="44.63573035201473" lon="12.240700261590307"><ele>-2.0</ele><time>2026-04-12T12:04:53.999Z</time></trkpt><trkpt lat="44.635821923699595" lon="12.240684962999204"><ele>-2.0</ele><time>2026-04-12T12:04:55.999Z</time></trkpt><trkpt lat="44.63592782109382" lon="12.240662581805692"><ele>-2.0</ele><time>2026-04-12T12:04:58Z</time></trkpt><trkpt lat="44.63602117623767" lon="12.24064488934159"><ele>-1.8333333333333333</ele><time>2026-04-12T12:05:00Z</time></trkpt><trkpt lat="44.63610919245553" lon="12.24062718531903"><ele>-1.6666666666666665</ele><time>2026-04-12T12:05:02Z</time></trkpt><trkpt lat="44.63618761302711" lon="12.240610971251403"><ele>-1.5</ele><time>2026-04-12T12:05:04Z</time></trkpt><trkpt lat="44.63625806441375" lon="12.240597800540918"><ele>-1.3333333333333333</ele><time>2026-04-12T12:05:06Z</time></trkpt><trkpt lat="44.636332354165575" lon="12.240582492653617"><ele>-1.1666666666666665</ele><time>2026-04-12T12:05:08Z</time></trkpt><trkpt lat="44.63641596494658" lon="12.240562778285396"><ele>-1.0</ele><time>2026-04-12T12:05:10Z</time></trkpt><trkpt lat="44.63650883240977" lon="12.240546390024278"><ele>-0.8333333333333333</ele><time>2026-04-12T12:05:12Z</time></trkpt><trkpt lat="44.636601000711295" lon="12.240530140027149"><ele>-0.6666666666666666</ele><time>2026-04-12T12:05:14Z</time></trkpt><trkpt lat="44.63667524027198" lon="12.240511976560343"><ele>-0.5</ele><time>2026-04-12T12:05:16Z</time></trkpt><trkpt lat="44.636747103501285" lon="12.240493378825256"><ele>-0.3333333333333333</ele><time>2026-04-12T12:05:18Z</time></trkpt><trkpt lat="44.636828975422944" lon="12.240476753440806"><ele>-0.16666666666666666</ele><time>2026-04-12T12:05:20Z</time></trkpt><trkpt lat="44.63690028780432" lon="12.240467439148881"><ele>0.0</ele><time>2026-04-12T12:05:22Z</time></trkpt><trkpt lat="44.63698476626465" lon="12.240444939049883"><ele>0.3333333333333333</ele><time>2026-04-12T12:05:24Z</time></trkpt><trkpt lat="44.637088738617436" lon="12.240440967557138"><ele>0.6666666666666666</ele><time>2026-04-12T12:05:26Z</time></trkpt><trkpt lat="44.63714970139375" lon="12.240411784608165"><ele>1.0</ele><time>2026-04-12T12:05:27Z</time></trkpt><trkpt lat="44.637248045442576" lon="12.240389081000776"><ele>1.3333333333333333</ele><time>2026-04-12T12:05:29Z</time></trkpt><trkpt lat="44.63733566823039" lon="12.240369967000252"><ele>1.6666666666666665</ele><time>2026-04-12T12:05:30.999Z</time></trkpt><trkpt lat="44.63742142276658" lon="12.240355122796638"><ele>2.0</ele><time>2026-04-12T12:05:32.999Z</time></trkpt><trkpt lat="44.63750719526068" lon="12.240332559523308"><ele>1.9999999999999998</ele><time>2026-04-12T12:05:34.999Z</time></trkpt><trkpt lat="44.63759961460849" lon="12.24032020649682"><ele>2.0</ele><time>2026-04-12T12:05:36.999Z</time></trkpt><trkpt lat="44.63766845630758" lon="12.240304700826742"><ele>2.0</ele><time>2026-04-12T12:05:38.999Z</time></trkpt><trkpt lat="44.637740439772244" lon="12.240290658034983"><ele>2.0</ele><time>2026-04-12T12:05:40.999Z</time></trkpt><trkpt lat="44.63782950501808" lon="12.240271935428755"><ele>1.9999999999999998</ele><time>2026-04-12T12:05:42.999Z</time></trkpt><trkpt lat="44.637911650281296" lon="12.240249950844104"><ele>2.0</ele><time>2026-04-12T12:05:44.999Z</time></trkpt><trkpt lat="44.638013961628715" lon="12.240251068548266"><ele>1.8</ele><time>2026-04-12T12:05:46.999Z</time></trkpt><trkpt lat="44.63810290753886" lon="12.240216630379258"><ele>1.6</ele><time>2026-04-12T12:05:48.999Z</time></trkpt><trkpt lat="44.638186392691885" lon="12.240192373533691"><ele>1.4000000000000001</ele><time>2026-04-12T12:05:50.999Z</time></trkpt><trkpt lat="44.6382802919528" lon="12.24018377178518"><ele>1.2000000000000002</ele><time>2026-04-12T12:05:52.999Z</time></trkpt><trkpt lat="44.63838775639105" lon="12.240156902261791"><ele>1.0</ele><time>2026-04-12T12:05:54.999Z</time></trkpt><trkpt lat="44.63848380067312" lon="12.240137856232414"><ele>0.9999999999999999</ele><time>2026-04-12T12:05:56.999Z</time></trkpt><trkpt lat="44.63857741174457" lon="12.240122414841789"><ele>1.0</ele><time>2026-04-12T12:05:58.999Z</time></trkpt><trkpt lat="44.63865800196607" lon="12.240101261338145"><ele>1.0</ele><time>2026-04-12T12:06:00.999Z</time></trkpt><trkpt lat="44.63873769273617" lon="12.240085977061362"><ele>1.0</ele><time>2026-04-12T12:06:02.999Z</time></trkpt><trkpt lat="44.638815742380636" lon="12.240069398331086"><ele>0.9999999999999999</ele><time>2026-04-12T12:06:04.999Z</time></trkpt><trkpt lat="44.63888031276154" lon="12.24005610964051"><ele>1.0</ele><time>2026-04-12T12:06:06.999Z</time></trkpt><trkpt lat="44.63896882437862" lon="12.240040283859157"><ele>0.6666666666666666</ele><time>2026-04-12T12:06:08.999Z</time></trkpt><trkpt lat="44.63906041804832" lon="12.240021334601474"><ele>0.3333333333333333</ele><time>2026-04-12T12:06:10.999Z</time></trkpt><trkpt lat="44.63913251720312" lon="12.240006612604008"><ele>0.0</ele><time>2026-04-12T12:06:12.999Z</time></trkpt><trkpt lat="44.639210878550465" lon="12.240009226674756"><ele>-0.3333333333333333</ele><time>2026-04-12T12:06:14.999Z</time></trkpt><trkpt lat="44.63928047772315" lon="12.239981271531057"><ele>-0.6666666666666666</ele><time>2026-04-12T12:06:16.999Z</time></trkpt><trkpt lat="44.63936526049932" lon="12.239967101686412"><ele>-1.0</ele><time>2026-04-12T12:06:18.999Z</time></trkpt><trkpt lat="44.63946128801809" lon="12.23994152862527"><ele>-0.8333333333333333</ele><time>2026-04-12T12:06:20.999Z</time></trkpt><trkpt lat="44.639559920415095" lon="12.23992864513521"><ele>-0.6666666666666666</ele><time>2026-04-12T12:06:22.999Z</time></trkpt><trkpt lat="44.63964896845873" lon="12.239908426761689"><ele>-0.5</ele><time>2026-04-12T12:06:24.999Z</time></trkpt><trkpt lat="44.639731501527294" lon="12.239893825655535"><ele>-0.3333333333333333</ele><time>2026-04-12T12:06:26.999Z</time></trkpt><trkpt lat="44.639799705405295" lon="12.239872454668816"><ele>-0.16666666666666666</ele><time>2026-04-12T12:06:28.999Z</time></trkpt><trkpt lat="44.639872437544646" lon="12.239855953136413"><ele>0.0</ele><time>2026-04-12T12:06:30.999Z</time></trkpt><trkpt lat="44.63993902711994" lon="12.239844484950257"><ele>0.0</ele><time>2026-04-12T12:06:32.999Z</time></trkpt><trkpt lat="44.64000180760258" lon="12.23982572712263"><ele>0.0</ele><time>2026-04-12T12:06:34.999Z</time></trkpt><trkpt lat="44.64009604722282" lon="12.239805095059717"><ele>0.0</ele><time>2026-04-12T12:06:37.999Z</time></trkpt><trkpt lat="44.64016311698073" lon="12.239803354972462"><ele>0.0</ele><time>2026-04-12T12:06:39.999Z</time></trkpt><trkpt lat="44.64025851565388" lon="12.239779178909044"><ele>0.0</ele><time>2026-04-12T12:06:42.999Z</time></trkpt><trkpt lat="44.64032267542183" lon="12.239750884167117"><ele>0.0</ele><time>2026-04-12T12:06:44.999Z</time></trkpt><trkpt lat="44.640386492064174" lon="12.239738480121703"><ele>0.0</ele><time>2026-04-12T12:06:46.999Z</time></trkpt><trkpt lat="44.640472564546805" lon="12.239816622879596"><ele>0.0</ele><time>2026-04-12T12:06:49.999Z</time></trkpt><trkpt lat="44.640470582597054" lon="12.239931583184928"><ele>0.0</ele><time>2026-04-12T12:06:51.999Z</time></trkpt><trkpt lat="44.640491351685164" lon="12.240032859739967"><ele>0.0</ele><time>2026-04-12T12:06:53.999Z</time></trkpt><trkpt lat="44.6405138944198" lon="12.240130040330017"><ele>0.0</ele><time>2026-04-12T12:06:56.999Z</time></trkpt><trkpt lat="44.640530473872246" lon="12.240221147265991"><ele>0.0</ele><time>2026-04-12T12:06:58.999Z</time></trkpt><trkpt lat="44.640536789094085" lon="12.240343169652915"><ele>0.0</ele><time>2026-04-12T12:07:01.999Z</time></trkpt><trkpt lat="44.64053649114132" lon="12.240451041858686"><ele>0.0</ele><time>2026-04-12T12:07:05Z</time></trkpt><trkpt lat="44.640565515618476" lon="12.240545588022488"><ele>0.0</ele><time>2026-04-12T12:07:08Z</time></trkpt><trkpt lat="44.64058273985941" lon="12.240662790083523"><ele>0.0</ele><time>2026-04-12T12:07:11Z</time></trkpt><trkpt lat="44.64059660846391" lon="12.240757158790208"><ele>0.0</ele><time>2026-04-12T12:07:13Z</time></trkpt><trkpt lat="44.64061159352408" lon="12.240859124397328"><ele>0.0</ele><time>2026-04-12T12:07:15Z</time></trkpt><trkpt lat="44.640627902097194" lon="12.240970095821735"><ele>0.0</ele><time>2026-04-12T12:07:17Z</time></trkpt><trkpt lat="44.640644074541726" lon="12.241080140915033"><ele>0.0</ele><time>2026-04-12T12:07:19Z</time></trkpt><trkpt lat="44.64066119613113" lon="12.241196644525221"><ele>0.0</ele><time>2026-04-12T12:07:21Z</time></trkpt><trkpt lat="44.64067827664796" lon="12.241312868628341"><ele>0.0</ele><time>2026-04-12T12:07:23Z</time></trkpt><trkpt lat="44.640695262588956" lon="12.241429372495926"><ele>0.0</ele><time>2026-04-12T12:07:25Z</time></trkpt><trkpt lat="44.64071108602169" lon="12.241539066673566"><ele>0.0</ele><time>2026-04-12T12:07:26.999Z</time></trkpt><trkpt lat="44.640725134789015" lon="12.241636458180587"><ele>0.16666666666666666</ele><time>2026-04-12T12:07:28.999Z</time></trkpt><trkpt lat="44.64073947430953" lon="12.241735865307412"><ele>0.3333333333333333</ele><time>2026-04-12T12:07:30.999Z</time></trkpt><trkpt lat="44.640754326822545" lon="12.241838828697135"><ele>0.5</ele><time>2026-04-12T12:07:32.999Z</time></trkpt><trkpt lat="44.640769084777325" lon="12.241941136562195"><ele>0.6666666666666666</ele><time>2026-04-12T12:07:34.999Z</time></trkpt><trkpt lat="44.64078436307401" lon="12.242047893015066"><ele>0.8333333333333333</ele><time>2026-04-12T12:07:36.999Z</time></trkpt><trkpt lat="44.640799710834635" lon="12.24215708089819"><ele>1.0</ele><time>2026-04-12T12:07:38.999Z</time></trkpt><trkpt lat="44.64081541141261" lon="12.242268778842904"><ele>0.8333333333333333</ele><time>2026-04-12T12:07:40.999Z</time></trkpt><trkpt lat="44.640830601348355" lon="12.242376843924308"><ele>0.6666666666666666</ele><time>2026-04-12T12:07:42.999Z</time></trkpt><trkpt lat="44.640832058048964" lon="12.242491342907323"><ele>0.5</ele><time>2026-04-12T12:07:44.999Z</time></trkpt><trkpt lat="44.64084854902225" lon="12.242599172050257"><ele>0.3333333333333333</ele><time>2026-04-12T12:07:46.999Z</time></trkpt><trkpt lat="44.64087672095766" lon="12.242705585851336"><ele>0.16666666666666666</ele><time>2026-04-12T12:07:48.999Z</time></trkpt><trkpt lat="44.64088163856522" lon="12.24282542685939"><ele>0.0</ele><time>2026-04-12T12:07:50.999Z</time></trkpt><trkpt lat="44.64089906731872" lon="12.242935268363976"><ele>0.0</ele><time>2026-04-12T12:07:52.999Z</time></trkpt><trkpt lat="44.640916987310824" lon="12.243044923442906"><ele>0.0</ele><time>2026-04-12T12:07:54.999Z</time></trkpt><trkpt lat="44.64093563756956" lon="12.243148178954918"><ele>0.0</ele><time>2026-04-12T12:07:56.999Z</time></trkpt><trkpt lat="44.64095024148299" lon="12.243257886377304"><ele>0.0</ele><time>2026-04-12T12:07:58.999Z</time></trkpt><trkpt lat="44.640966197565255" lon="12.243377751588724"><ele>0.0</ele><time>2026-04-12T12:08:00.999Z</time></trkpt><trkpt lat="44.640970770778885" lon="12.243493802316687"><ele>0.0</ele><time>2026-04-12T12:08:02.999Z</time></trkpt><trkpt lat="44.640984943060765" lon="12.243603197781196"><ele>0.16666666666666666</ele><time>2026-04-12T12:08:04.999Z</time></trkpt><trkpt lat="44.641002428667335" lon="12.243701294154938"><ele>0.3333333333333333</ele><time>2026-04-12T12:08:06.999Z</time></trkpt><trkpt lat="44.64101672926486" lon="12.243808896165703"><ele>0.5</ele><time>2026-04-12T12:08:08.999Z</time></trkpt><trkpt lat="44.641044938378656" lon="12.243920106964778"><ele>0.6666666666666666</ele><time>2026-04-12T12:08:10.999Z</time></trkpt><trkpt lat="44.641063370233525" lon="12.244037985115666"><ele>0.8333333333333333</ele><time>2026-04-12T12:08:12.999Z</time></trkpt><trkpt lat="44.64108125040549" lon="12.244157901328782"><ele>1.0</ele><time>2026-04-12T12:08:14.999Z</time></trkpt><trkpt lat="44.64108120348301" lon="12.244283692941956"><ele>0.9999999999999999</ele><time>2026-04-12T12:08:16.999Z</time></trkpt><trkpt lat="44.6411007473295" lon="12.24440408536963"><ele>1.0</ele><time>2026-04-12T12:08:18.999Z</time></trkpt><trkpt lat="44.641115378234666" lon="12.244527880162456"><ele>1.0</ele><time>2026-04-12T12:08:20.999Z</time></trkpt><trkpt lat="44.64113490120463" lon="12.244648386854367"><ele>1.0</ele><time>2026-04-12T12:08:22.999Z</time></trkpt><trkpt lat="44.64115047753852" lon="12.244764578880396"><ele>0.9999999999999999</ele><time>2026-04-12T12:08:24.999Z</time></trkpt><trkpt lat="44.64116915248123" lon="12.244873988140924"><ele>1.0</ele><time>2026-04-12T12:08:26.999Z</time></trkpt><trkpt lat="44.64117776067757" lon="12.244983481629788"><ele>0.8571428571428571</ele><time>2026-04-12T12:08:28.999Z</time></trkpt><trkpt lat="44.64119564783581" lon="12.245082263871964"><ele>0.7142857142857142</ele><time>2026-04-12T12:08:30.999Z</time></trkpt><trkpt lat="44.641209567836896" lon="12.245180217801614"><ele>0.5714285714285714</ele><time>2026-04-12T12:08:32.999Z</time></trkpt><trkpt lat="44.641221693592904" lon="12.245280459176396"><ele>0.42857142857142855</ele><time>2026-04-12T12:08:34.999Z</time></trkpt><trkpt lat="44.64123563389412" lon="12.245373735608297"><ele>0.2857142857142857</ele><time>2026-04-12T12:08:36.999Z</time></trkpt><trkpt lat="44.64125178406526" lon="12.245460162222173"><ele>0.14285714285714285</ele><time>2026-04-12T12:08:38.999Z</time></trkpt><trkpt lat="44.64128171594255" lon="12.245575502486227"><ele>0.0</ele><time>2026-04-12T12:08:41.999Z</time></trkpt><trkpt lat="44.641298677727185" lon="12.245681458449349"><ele>0.0</ele><time>2026-04-12T12:08:45.999Z</time></trkpt><trkpt lat="44.64131726013164" lon="12.245789558672076"><ele>0.0</ele><time>2026-04-12T12:08:49.999Z</time></trkpt><trkpt lat="44.641334280100914" lon="12.24588856938609"><ele>0.0</ele><time>2026-04-12T12:08:52.999Z</time></trkpt><trkpt lat="44.64136479526409" lon="12.245976184570843"><ele>0.0</ele><time>2026-04-12T12:08:55.999Z</time></trkpt><trkpt lat="44.64129284784455" lon="12.246131003041869"><ele>0.0</ele><time>2026-04-12T12:08:59Z</time></trkpt><trkpt lat="44.64128683458581" lon="12.246258581203382"><ele>0.0</ele><time>2026-04-12T12:09:02Z</time></trkpt><trkpt lat="44.64128104904271" lon="12.246350810021758"><ele>0.0</ele><time>2026-04-12T12:09:04Z</time></trkpt><trkpt lat="44.641272658334" lon="12.246449284344612"><ele>0.0</ele><time>2026-04-12T12:09:06Z</time></trkpt><trkpt lat="44.64126080812757" lon="12.2465458732856"><ele>0.0</ele><time>2026-04-12T12:09:08Z</time></trkpt><trkpt lat="44.641244270107215" lon="12.246641567783827"><ele>0.0</ele><time>2026-04-12T12:09:10Z</time></trkpt><trkpt lat="44.64121893493854" lon="12.246736926087182"><ele>0.0</ele><time>2026-04-12T12:09:12Z</time></trkpt><trkpt lat="44.6411967095928" lon="12.24682691081893"><ele>0.0</ele><time>2026-04-12T12:09:14Z</time></trkpt><trkpt lat="44.641156811505866" lon="12.246944712450464"><ele>0.0</ele><time>2026-04-12T12:09:17Z</time></trkpt><trkpt lat="44.6411279215217" lon="12.247057418005214"><ele>0.75</ele><time>2026-04-12T12:09:20Z</time></trkpt><trkpt lat="44.64111600128129" lon="12.247148231543047"><ele>1.5</ele><time>2026-04-12T12:09:23Z</time></trkpt><trkpt lat="44.64111214245579" lon="12.247243094320249"><ele>2.25</ele><time>2026-04-12T12:10:44Z</time></trkpt><trkpt lat="44.641389973316876" lon="12.247321873668211"><ele>3.0</ele><time>2026-04-12T12:10:52Z</time></trkpt><trkpt lat="44.64145561347498" lon="12.24734727851397"><ele>3.1428571428571423</ele><time>2026-04-12T12:10:54Z</time></trkpt><trkpt lat="44.64152638877265" lon="12.247364829145184"><ele>3.2857142857142856</ele><time>2026-04-12T12:10:56Z</time></trkpt><trkpt lat="44.64159916442667" lon="12.247379159853798"><ele>3.4285714285714284</ele><time>2026-04-12T12:10:58Z</time></trkpt><trkpt lat="44.641671720305155" lon="12.24740622140854"><ele>3.571428571428571</ele><time>2026-04-12T12:11:00Z</time></trkpt><trkpt lat="44.64174180263355" lon="12.247437381103099"><ele>3.714285714285714</ele><time>2026-04-12T12:11:02Z</time></trkpt><trkpt lat="44.64181434856165" lon="12.24745860330464"><ele>3.8571428571428568</ele><time>2026-04-12T12:11:04Z</time></trkpt><trkpt lat="44.6418798472556" lon="12.247519035682227"><ele>4.0</ele><time>2026-04-12T12:11:06Z</time></trkpt><trkpt lat="44.64195457383025" lon="12.24755668392771"><ele>4.0</ele><time>2026-04-12T12:11:08Z</time></trkpt><trkpt lat="44.64202575543696" lon="12.247589760110962"><ele>3.9999999999999996</ele><time>2026-04-12T12:11:10Z</time></trkpt><trkpt lat="44.642090738018894" lon="12.247634198123343"><ele>4.0</ele><time>2026-04-12T12:11:12Z</time></trkpt><trkpt lat="44.642144412532254" lon="12.247717290153242"><ele>4.0</ele><time>2026-04-12T12:11:14Z</time></trkpt><trkpt lat="44.64219809239071" lon="12.247782557963848"><ele>3.9999999999999996</ele><time>2026-04-12T12:11:16Z</time></trkpt><trkpt lat="44.642253948982244" lon="12.24784352990064"><ele>4.0</ele><time>2026-04-12T12:11:18Z</time></trkpt><trkpt lat="44.64231291902133" lon="12.247903749696482"><ele>4.0</ele><time>2026-04-12T12:11:20Z</time></trkpt><trkpt lat="44.64235954199489" lon="12.24798961878986"><ele>4.0</ele><time>2026-04-12T12:11:22Z</time></trkpt><trkpt lat="44.64240903007927" lon="12.248064441419887"><ele>3.9999999999999996</ele><time>2026-04-12T12:11:24Z</time></trkpt><trkpt lat="44.64245536666411" lon="12.248135759124237"><ele>4.0</ele><time>2026-04-12T12:11:26Z</time></trkpt><trkpt lat="44.64249570538788" lon="12.248219895988969"><ele>4.0</ele><time>2026-04-12T12:11:28Z</time></trkpt><trkpt lat="44.6425365304163" lon="12.248304508880574"><ele>3.9999999999999996</ele><time>2026-04-12T12:11:30Z</time></trkpt><trkpt lat="44.64257960740177" lon="12.248385577035805"><ele>4.0</ele><time>2026-04-12T12:11:32Z</time></trkpt><trkpt lat="44.64261858758724" lon="12.248461040760109"><ele>4.0</ele><time>2026-04-12T12:11:34Z</time></trkpt><trkpt lat="44.64267638236289" lon="12.248558084629122"><ele>4.166666666666666</ele><time>2026-04-12T12:11:37Z</time></trkpt><trkpt lat="44.64272659480546" lon="12.248621436261958"><ele>4.333333333333333</ele><time>2026-04-12T12:11:40Z</time></trkpt><trkpt lat="44.642821492911" lon="12.248520198962714"><ele>4.5</ele><time>2026-04-12T12:11:41Z</time></trkpt><trkpt lat="44.64287665725677" lon="12.248472922679415"><ele>4.666666666666667</ele><time>2026-04-12T12:11:43Z</time></trkpt><trkpt lat="44.642937474535415" lon="12.248374204517653"><ele>4.833333333333334</ele><time>2026-04-12T12:11:46Z</time></trkpt><trkpt lat="44.642987786027945" lon="12.248313238701781"><ele>5.0</ele><time>2026-04-12T12:11:48Z</time></trkpt><trkpt lat="44.64309029807744" lon="12.248346564918226"><ele>5.0</ele><time>2026-04-12T12:11:50Z</time></trkpt><trkpt lat="44.64316327155306" lon="12.248329695657736"><ele>5.0</ele><time>2026-04-12T12:11:52Z</time></trkpt><trkpt lat="44.643230918936425" lon="12.248327199493069"><ele>5.0</ele><time>2026-04-12T12:11:54Z</time></trkpt><trkpt lat="44.64332003522333" lon="12.248333860167113"><ele>5.0</ele><time>2026-04-12T12:11:57Z</time></trkpt><trkpt lat="44.64340853609729" lon="12.24837052004595"><ele>5.0</ele><time>2026-04-12T12:12:00Z</time></trkpt><trkpt lat="44.64348389032288" lon="12.248404406864728"><ele>5.0</ele><time>2026-04-12T12:12:02Z</time></trkpt><trkpt lat="44.643551170318005" lon="12.248462703809045"><ele>5.0</ele><time>2026-04-12T12:12:04Z</time></trkpt><trkpt lat="44.64360845456912" lon="12.248554881225187"><ele>5.0</ele><time>2026-04-12T12:12:06Z</time></trkpt><trkpt lat="44.64365557842968" lon="12.248681686072418"><ele>5.0</ele><time>2026-04-12T12:12:08Z</time></trkpt><trkpt lat="44.643650684138535" lon="12.24881567158609"><ele>5.0</ele><time>2026-04-12T12:12:11Z</time></trkpt><trkpt lat="44.643670217989424" lon="12.248922908877162"><ele>5.0</ele><time>2026-04-12T12:12:13Z</time></trkpt><trkpt lat="44.643687761477324" lon="12.249034491205824"><ele>5.0</ele><time>2026-04-12T12:12:15Z</time></trkpt><trkpt lat="44.64371104803941" lon="12.249133176452055"><ele>5.6</ele><time>2026-04-12T12:12:17Z</time></trkpt><trkpt lat="44.643739570056916" lon="12.249243914151947"><ele>6.2</ele><time>2026-04-12T12:12:19Z</time></trkpt><trkpt lat="44.643790241853836" lon="12.249356216884511"><ele>6.800000000000001</ele><time>2026-04-12T12:12:21Z</time></trkpt><trkpt lat="44.643839832660795" lon="12.249470946159459"><ele>7.4</ele><time>2026-04-12T12:12:23Z</time></trkpt><trkpt lat="44.64390785087007" lon="12.249575827419902"><ele>8.0</ele><time>2026-04-12T12:12:25Z</time></trkpt><trkpt lat="44.64397214591429" lon="12.249660810923388"><ele>7.999999999999999</ele><time>2026-04-12T12:12:27Z</time></trkpt><trkpt lat="44.64404097307398" lon="12.24973026160517"><ele>8.0</ele><time>2026-04-12T12:12:29Z</time></trkpt><trkpt lat="44.6441010446753" lon="12.2498010718691"><ele>8.0</ele><time>2026-04-12T12:12:31Z</time></trkpt><trkpt lat="44.64416227143952" lon="12.249864762058479"><ele>8.0</ele><time>2026-04-12T12:12:33Z</time></trkpt><trkpt lat="44.644222907691066" lon="12.24990144276447"><ele>7.999999999999999</ele><time>2026-04-12T12:12:35Z</time></trkpt><trkpt lat="44.6442863739443" lon="12.249936122076594"><ele>8.0</ele><time>2026-04-12T12:12:37Z</time></trkpt><trkpt lat="44.64437112856142" lon="12.249974585206353"><ele>7.999999999999999</ele><time>2026-04-12T12:12:40Z</time></trkpt><trkpt lat="44.64445883769072" lon="12.250021433611659"><ele>8.0</ele><time>2026-04-12T12:12:43Z</time></trkpt><trkpt lat="44.644530640298015" lon="12.250045635696008"><ele>8.0</ele><time>2026-04-12T12:12:45Z</time></trkpt><trkpt lat="44.644576885884014" lon="12.2501464599028"><ele>8.0</ele><time>2026-04-12T12:12:47Z</time></trkpt><trkpt lat="44.64460488709543" lon="12.250234338758649"><ele>7.999999999999999</ele><time>2026-04-12T12:12:49Z</time></trkpt><trkpt lat="44.644645866073155" lon="12.250314999810586"><ele>8.0</ele><time>2026-04-12T12:12:51Z</time></trkpt><trkpt lat="44.644677320754866" lon="12.250408158809355"><ele>7.999999999999999</ele><time>2026-04-12T12:12:53Z</time></trkpt><trkpt lat="44.6447073495098" lon="12.250509872661812"><ele>8.0</ele><time>2026-04-12T12:12:55Z</time></trkpt><trkpt lat="44.64473659778023" lon="12.250612753474872"><ele>8.0</ele><time>2026-04-12T12:12:57Z</time></trkpt><trkpt lat="44.64476880054885" lon="12.250720184280928"><ele>8.0</ele><time>2026-04-12T12:12:59Z</time></trkpt><trkpt lat="44.64479187078507" lon="12.25082997021066"><ele>7.999999999999999</ele><time>2026-04-12T12:13:01Z</time></trkpt><trkpt lat="44.64482646492028" lon="12.250935744784298"><ele>8.0</ele><time>2026-04-12T12:13:03Z</time></trkpt><trkpt lat="44.644846591095856" lon="12.251043334973632"><ele>7.999999999999999</ele><time>2026-04-12T12:13:05Z</time></trkpt><trkpt lat="44.6448687008431" lon="12.251144392928609"><ele>8.0</ele><time>2026-04-12T12:13:07Z</time></trkpt><trkpt lat="44.644892806464185" lon="12.251245404118285"><ele>8.0</ele><time>2026-04-12T12:13:09Z</time></trkpt><trkpt lat="44.64490954541615" lon="12.251348654185644"><ele>8.0</ele><time>2026-04-12T12:13:11Z</time></trkpt><trkpt lat="44.64492143049025" lon="12.2514596874078"><ele>7.999999999999999</ele><time>2026-04-12T12:13:13Z</time></trkpt><trkpt lat="44.64493647254439" lon="12.25157126695238"><ele>8.0</ele><time>2026-04-12T12:13:15Z</time></trkpt><trkpt lat="44.64495538910809" lon="12.251662418615782"><ele>7.999999999999999</ele><time>2026-04-12T12:13:17Z</time></trkpt><trkpt lat="44.644972915489724" lon="12.25176228260426"><ele>8.0</ele><time>2026-04-12T12:13:19Z</time></trkpt><trkpt lat="44.64499121011324" lon="12.251870982276518"><ele>8.0</ele><time>2026-04-12T12:13:21Z</time></trkpt><trkpt lat="44.64501478315855" lon="12.251981401937481"><ele>8.0</ele><time>2026-04-12T12:13:23.001Z</time></trkpt><trkpt lat="44.645041025152466" lon="12.252090910521117"><ele>7.999999999999999</ele><time>2026-04-12T12:13:25.001Z</time></trkpt><trkpt lat="44.64506395798511" lon="12.252206021515216"><ele>8.0</ele><time>2026-04-12T12:13:27.001Z</time></trkpt><trkpt lat="44.645084917390136" lon="12.252321434925175"><ele>7.833333333333333</ele><time>2026-04-12T12:13:29.001Z</time></trkpt><trkpt lat="44.64510509016908" lon="12.252438802045559"><ele>7.666666666666666</ele><time>2026-04-12T12:13:31.001Z</time></trkpt><trkpt lat="44.6451224146991" lon="12.252559180855744"><ele>7.5</ele><time>2026-04-12T12:13:33.001Z</time></trkpt><trkpt lat="44.6451520861549" lon="12.252673370375806"><ele>7.333333333333334</ele><time>2026-04-12T12:13:35.001Z</time></trkpt><trkpt lat="44.64517245078838" lon="12.252788864257212"><ele>7.166666666666667</ele><time>2026-04-12T12:13:37.001Z</time></trkpt><trkpt lat="44.64519673373193" lon="12.252904369548991"><ele>7.0</ele><time>2026-04-12T12:13:39.001Z</time></trkpt><trkpt lat="44.645221700262" lon="12.253018655055444"><ele>6.833333333333334</ele><time>2026-04-12T12:13:41.001Z</time></trkpt><trkpt lat="44.64522757718891" lon="12.253141070501123"><ele>6.666666666666667</ele><time>2026-04-12T12:13:43Z</time></trkpt><trkpt lat="44.64525777383448" lon="12.25325339465348"><ele>6.5</ele><time>2026-04-12T12:13:45Z</time></trkpt><trkpt lat="44.64527913280678" lon="12.25336591656182"><ele>6.333333333333334</ele><time>2026-04-12T12:13:47Z</time></trkpt><trkpt lat="44.64530345414669" lon="12.253486680417772"><ele>6.166666666666667</ele><time>2026-04-12T12:13:49Z</time></trkpt><trkpt lat="44.64531804090792" lon="12.253597717353347"><ele>6.0</ele><time>2026-04-12T12:13:51Z</time></trkpt><trkpt lat="44.64533606177353" lon="12.253699745906435"><ele>5.666666666666667</ele><time>2026-04-12T12:13:53Z</time></trkpt><trkpt lat="44.6453557955322" lon="12.253785203361014"><ele>5.333333333333333</ele><time>2026-04-12T12:13:55Z</time></trkpt><trkpt lat="44.64536256802021" lon="12.253920593975973"><ele>5.0</ele><time>2026-04-12T12:13:56Z</time></trkpt><trkpt lat="44.64546421820833" lon="12.253848338532839"><ele>4.666666666666666</ele><time>2026-04-12T12:13:58Z</time></trkpt><trkpt lat="44.645530394640595" lon="12.253934271026035"><ele>4.333333333333333</ele><time>2026-04-12T12:14:01Z</time></trkpt><trkpt lat="44.64558449784256" lon="12.25398653902308"><ele>4.0</ele><time>2026-04-12T12:14:03Z</time></trkpt><trkpt lat="44.64565744686824" lon="12.254059939200703"><ele>3.833333333333333</ele><time>2026-04-12T12:14:06Z</time></trkpt><trkpt lat="44.64572898497582" lon="12.254158462531029"><ele>3.6666666666666665</ele><time>2026-04-12T12:14:10Z</time></trkpt><trkpt lat="44.64579619649102" lon="12.254205203634857"><ele>3.5</ele><time>2026-04-12T12:14:12Z</time></trkpt><trkpt lat="44.64585043851236" lon="12.254266794141806"><ele>3.333333333333333</ele><time>2026-04-12T12:14:15Z</time></trkpt><trkpt lat="44.64590164885371" lon="12.25436251426948"><ele>3.1666666666666665</ele><time>2026-04-12T12:15:01Z</time></trkpt><trkpt lat="44.64592717139576" lon="12.2544450728668"><ele>3.0</ele><time>2026-04-12T12:15:11Z</time></trkpt><trkpt lat="44.64604993606769" lon="12.254434347957394"><ele>3.0</ele><time>2026-04-12T12:15:15Z</time></trkpt><trkpt lat="44.645947976677334" lon="12.254502073735148"><ele>3.0</ele><time>2026-04-12T12:15:16Z</time></trkpt><trkpt lat="44.64606635460401" lon="12.254496279112308"><ele>3.0</ele><time>2026-04-12T12:15:20Z</time></trkpt><trkpt lat="44.646089702991596" lon="12.254584349432278"><ele>3.0</ele><time>2026-04-12T12:15:28Z</time></trkpt><trkpt lat="44.64611310968316" lon="12.254672639665017"><ele>3.0</ele><time>2026-04-12T12:15:37Z</time></trkpt><trkpt lat="44.64613554979706" lon="12.254757283965228"><ele>3.0</ele><time>2026-04-12T12:16:06Z</time></trkpt><trkpt lat="44.646158207907334" lon="12.254842750552921"><ele>2.5</ele><time>2026-04-12T12:16:17Z</time></trkpt><trkpt lat="44.64606331413885" lon="12.254985445488668"><ele>2.0</ele><time>2026-04-12T12:16:30Z</time></trkpt><trkpt lat="44.6457332633536" lon="12.255146348629948"><ele>2.0</ele><time>2026-04-12T12:16:47Z</time></trkpt><trkpt lat="44.64604207178943" lon="12.25503278889493"><ele>2.0</ele><time>2026-04-12T12:16:58Z</time></trkpt><trkpt lat="44.645732738114376" lon="12.255143382843816"><ele>2.0</ele><time>2026-04-12T12:17:04Z</time></trkpt><trkpt lat="44.64604678071539" lon="12.25504086765005"><ele>2.0</ele><time>2026-04-12T12:17:07Z</time></trkpt><trkpt lat="44.645734673711864" lon="12.255154312310616"><ele>2.0</ele><time>2026-04-12T12:17:17Z</time></trkpt><trkpt lat="44.64604444729835" lon="12.255037057050796"><ele>2.0</ele><time>2026-04-12T12:17:49Z</time></trkpt><trkpt lat="44.64573194665619" lon="12.255138913824783"><ele>2.0</ele><time>2026-04-12T12:18:01Z</time></trkpt><trkpt lat="44.64605253330942" lon="12.255031364320903"><ele>2.0</ele><time>2026-04-12T12:18:03Z</time></trkpt><trkpt lat="44.645730051130776" lon="12.255128210626426"><ele>2.0</ele><time>2026-04-12T12:18:55Z</time></trkpt><trkpt lat="44.64604171306581" lon="12.255022059377369"><ele>2.0</ele><time>2026-04-12T12:18:57Z</time></trkpt><trkpt lat="44.64573107419875" lon="12.255133987443674"><ele>2.0</ele><time>2026-04-12T12:19:08Z</time></trkpt><trkpt lat="44.64604275444371" lon="12.255027298393083"><ele>2.0</ele><time>2026-04-12T12:19:10Z</time></trkpt><trkpt lat="44.645731430085355" lon="12.255135996976247"><ele>2.0</ele><time>2026-04-12T12:19:15Z</time></trkpt><trkpt lat="44.6460522704648" lon="12.255024103805303"><ele>2.0</ele><time>2026-04-12T12:19:17Z</time></trkpt><trkpt lat="44.64573058315678" lon="12.25513121474394"><ele>2.0</ele><time>2026-04-12T12:19:32Z</time></trkpt><trkpt lat="44.64605328460665" lon="12.255019088919017"><ele>2.0</ele><time>2026-04-12T12:19:34Z</time></trkpt><trkpt lat="44.645734976858016" lon="12.25515602403896"><ele>2.0</ele><time>2026-04-12T12:19:57Z</time></trkpt><trkpt lat="44.64604972306274" lon="12.255049343024476"><ele>2.0</ele><time>2026-04-12T12:20:00Z</time></trkpt><trkpt lat="44.64573561110233" lon="12.255159605341236"><ele>2.0</ele><time>2026-04-12T12:20:02Z</time></trkpt><trkpt lat="44.64604936644718" lon="12.255053433931947"><ele>2.0</ele><time>2026-04-12T12:20:09Z</time></trkpt><trkpt lat="44.64618017339623" lon="12.25492560455105"><ele>3.0</ele><time>2026-04-12T12:20:57Z</time></trkpt><trkpt lat="44.64611580773267" lon="12.254957745593554"><ele>2.0</ele><time>2026-04-12T12:23:31Z</time></trkpt><trkpt lat="44.6460446248103" lon="12.254936291115547"><ele>2.0</ele><time>2026-04-12T12:23:38Z</time></trkpt><trkpt lat="44.64602327372977" lon="12.254852985378667"><ele>2.0</ele><time>2026-04-12T12:23:47Z</time></trkpt><trkpt lat="44.64601255106241" lon="12.25494360675664"><ele>2.0</ele><time>2026-04-12T12:25:50Z</time></trkpt><trkpt lat="44.646080414727635" lon="12.254962225377309"><ele>2.0</ele><time>2026-04-12T12:26:00Z</time></trkpt><trkpt lat="44.64614519831702" lon="12.2549152810613"><ele>3.0</ele><time>2026-04-12T12:26:10Z</time></trkpt></trkseg><trkseg><trkpt lat="44.64597385454514" lon="12.254583590060133"><ele>3.0</ele><time>2026-04-12T13:15:30Z</time></trkpt><trkpt lat="44.645949221938714" lon="12.254497457708009"><ele>3.0</ele><time>2026-04-12T13:15:39Z</time></trkpt><trkpt lat="44.6459187570255" lon="12.254405086802418"><ele>3.0</ele><time>2026-04-12T13:15:46Z</time></trkpt><trkpt lat="44.64590113352514" lon="12.254317527965762"><ele>3.0</ele><time>2026-04-12T13:15:55Z</time></trkpt><trkpt lat="44.64580909490264" lon="12.254232127079435"><ele>3.0</ele><time>2026-04-12T13:16:07Z</time></trkpt><trkpt lat="44.6457516262828" lon="12.254171080700537"><ele>3.0</ele><time>2026-04-12T13:16:10Z</time></trkpt><trkpt lat="44.645688918681714" lon="12.254094209016571"><ele>3.0</ele><time>2026-04-12T13:16:13Z</time></trkpt><trkpt lat="44.645614262738675" lon="12.25401947493382"><ele>3.0</ele><time>2026-04-12T13:16:16Z</time></trkpt><trkpt lat="44.645551824702935" lon="12.253930644216322"><ele>3.0</ele><time>2026-04-12T13:16:19Z</time></trkpt><trkpt lat="44.64548687549952" lon="12.253853840910812"><ele>3.0</ele><time>2026-04-12T13:16:22Z</time></trkpt><trkpt lat="44.64542487633853" lon="12.253766984850358"><ele>3.0</ele><time>2026-04-12T13:16:25Z</time></trkpt><trkpt lat="44.64536952192825" lon="12.253681396327208"><ele>3.0</ele><time>2026-04-12T13:16:28Z</time></trkpt><trkpt lat="44.645343685825246" lon="12.253596567377413"><ele>3.1666666666666665</ele><time>2026-04-12T13:16:31Z</time></trkpt><trkpt lat="44.64532248255797" lon="12.253494276498467"><ele>3.333333333333333</ele><time>2026-04-12T13:16:34Z</time></trkpt><trkpt lat="44.64530596745582" lon="12.253388658723523"><ele>3.5</ele><time>2026-04-12T13:16:37Z</time></trkpt><trkpt lat="44.645279372364136" lon="12.253278098905135"><ele>3.6666666666666665</ele><time>2026-04-12T13:16:40Z</time></trkpt><trkpt lat="44.64524460905745" lon="12.2531406090849"><ele>3.833333333333333</ele><time>2026-04-12T13:16:43Z</time></trkpt><trkpt lat="44.64523608245793" lon="12.253051116661545"><ele>4.0</ele><time>2026-04-12T13:16:45Z</time></trkpt><trkpt lat="44.64521517177741" lon="12.252926414500225"><ele>4.5</ele><time>2026-04-12T13:16:48Z</time></trkpt><trkpt lat="44.645200059812616" lon="12.252801909643956"><ele>5.0</ele><time>2026-04-12T13:16:51Z</time></trkpt><trkpt lat="44.64517079126317" lon="12.2527101459648"><ele>5.5</ele><time>2026-04-12T13:16:53Z</time></trkpt><trkpt lat="44.645164657167136" lon="12.252595429421513"><ele>6.0</ele><time>2026-04-12T13:16:55Z</time></trkpt><trkpt lat="44.645130489309004" lon="12.252455373689012"><ele>6.500000000000001</ele><time>2026-04-12T13:16:58Z</time></trkpt><trkpt lat="44.64511498488052" lon="12.252358992717124"><ele>7.0</ele><time>2026-04-12T13:17:00Z</time></trkpt><trkpt lat="44.64508774315259" lon="12.252234010958134"><ele>7.166666666666667</ele><time>2026-04-12T13:17:03Z</time></trkpt><trkpt lat="44.645065931817925" lon="12.25212289312188"><ele>7.333333333333334</ele><time>2026-04-12T13:17:05Z</time></trkpt><trkpt lat="44.645045212332" lon="12.25202175971987"><ele>7.5</ele><time>2026-04-12T13:17:07Z</time></trkpt><trkpt lat="44.64503424580237" lon="12.251891585810482"><ele>7.666666666666666</ele><time>2026-04-12T13:17:09Z</time></trkpt><trkpt lat="44.645012324307785" lon="12.251802610942017"><ele>7.833333333333333</ele><time>2026-04-12T13:17:12Z</time></trkpt><trkpt lat="44.64497218206753" lon="12.251702601890221"><ele>8.0</ele><time>2026-04-12T13:17:14Z</time></trkpt><trkpt lat="44.644965744880516" lon="12.251605765738248"><ele>8.0</ele><time>2026-04-12T13:17:16Z</time></trkpt><trkpt lat="44.64494546477078" lon="12.25150219700882"><ele>7.999999999999999</ele><time>2026-04-12T13:17:19Z</time></trkpt><trkpt lat="44.64493289655212" lon="12.25140976495366"><ele>8.0</ele><time>2026-04-12T13:17:21Z</time></trkpt><trkpt lat="44.644904493156254" lon="12.2512989086302"><ele>8.0</ele><time>2026-04-12T13:17:24Z</time></trkpt><trkpt lat="44.644884863969075" lon="12.25120582739694"><ele>7.999999999999999</ele><time>2026-04-12T13:17:26Z</time></trkpt><trkpt lat="44.64487504494258" lon="12.251111102296724"><ele>8.0</ele><time>2026-04-12T13:17:28Z</time></trkpt><trkpt lat="44.64485387338807" lon="12.251018901617863"><ele>8.0</ele><time>2026-04-12T13:17:30Z</time></trkpt><trkpt lat="44.64483159484457" lon="12.25090050716619"><ele>7.999999999999999</ele><time>2026-04-12T13:17:32Z</time></trkpt><trkpt lat="44.64481194923501" lon="12.25079962643035"><ele>8.0</ele><time>2026-04-12T13:17:34Z</time></trkpt><trkpt lat="44.644776533923036" lon="12.250676630998754"><ele>8.0</ele><time>2026-04-12T13:17:37Z</time></trkpt><trkpt lat="44.64474945034746" lon="12.250580237506925"><ele>8.0</ele><time>2026-04-12T13:17:39Z</time></trkpt><trkpt lat="44.644734546969445" lon="12.250489860466102"><ele>7.999999999999999</ele><time>2026-04-12T13:17:41Z</time></trkpt><trkpt lat="44.64470581028888" lon="12.250405371945503"><ele>8.0</ele><time>2026-04-12T13:17:43Z</time></trkpt><trkpt lat="44.644668248804884" lon="12.250290877311253"><ele>7.999999999999999</ele><time>2026-04-12T13:17:46Z</time></trkpt><trkpt lat="44.64462611373287" lon="12.250183184027247"><ele>8.0</ele><time>2026-04-12T13:17:49Z</time></trkpt><trkpt lat="44.64461559353116" lon="12.250070234329039"><ele>8.0</ele><time>2026-04-12T13:17:52Z</time></trkpt><trkpt lat="44.64456503522349" lon="12.249958186338311"><ele>8.0</ele><time>2026-04-12T13:17:55Z</time></trkpt><trkpt lat="44.6444821013499" lon="12.249913186333002"><ele>7.999999999999999</ele><time>2026-04-12T13:17:58Z</time></trkpt><trkpt lat="44.64439521139111" lon="12.249895813354732"><ele>8.0</ele><time>2026-04-12T13:18:01Z</time></trkpt><trkpt lat="44.644336732851166" lon="12.2498520030996"><ele>7.999999999999999</ele><time>2026-04-12T13:18:03Z</time></trkpt><trkpt lat="44.64425769169127" lon="12.249828730808323"><ele>8.0</ele><time>2026-04-12T13:18:05Z</time></trkpt><trkpt lat="44.64419639234833" lon="12.249786056096758"><ele>8.0</ele><time>2026-04-12T13:18:07Z</time></trkpt><trkpt lat="44.64412625708659" lon="12.249713145651572"><ele>8.0</ele><time>2026-04-12T13:18:09Z</time></trkpt><trkpt lat="44.64406034638712" lon="12.249641214473264"><ele>7.999999999999999</ele><time>2026-04-12T13:18:11Z</time></trkpt><trkpt lat="44.64399894610086" lon="12.24955003555397"><ele>8.0</ele><time>2026-04-12T13:18:13Z</time></trkpt><trkpt lat="44.64394525951199" lon="12.24945951087697"><ele>7.999999999999999</ele><time>2026-04-12T13:18:15Z</time></trkpt><trkpt lat="44.643893116621285" lon="12.249371110247601"><ele>8.0</ele><time>2026-04-12T13:18:17Z</time></trkpt><trkpt lat="44.64385119281229" lon="12.24927675532209"><ele>8.0</ele><time>2026-04-12T13:18:19Z</time></trkpt><trkpt lat="44.643821203541364" lon="12.249177347294047"><ele>8.0</ele><time>2026-04-12T13:18:21Z</time></trkpt><trkpt lat="44.64379435104536" lon="12.249076637851736"><ele>7.999999999999999</ele><time>2026-04-12T13:18:23Z</time></trkpt><trkpt lat="44.643764504658826" lon="12.248987099822001"><ele>8.0</ele><time>2026-04-12T13:18:25Z</time></trkpt><trkpt lat="44.64373834346794" lon="12.248884500396178"><ele>7.499999999999999</ele><time>2026-04-12T13:18:27Z</time></trkpt><trkpt lat="44.6437202044993" lon="12.248778665962787"><ele>7.0</ele><time>2026-04-12T13:18:29Z</time></trkpt><trkpt lat="44.64371678051345" lon="12.248658231206804"><ele>6.5</ele><time>2026-04-12T13:18:31Z</time></trkpt><trkpt lat="44.643722689461136" lon="12.248541276451483"><ele>6.0</ele><time>2026-04-12T13:18:33Z</time></trkpt><trkpt lat="44.64374444929756" lon="12.24843818215595"><ele>5.5</ele><time>2026-04-12T13:18:35Z</time></trkpt><trkpt lat="44.64377297696415" lon="12.248341310230861"><ele>5.0</ele><time>2026-04-12T13:18:37Z</time></trkpt><trkpt lat="44.64380352778477" lon="12.24822983731726"><ele>5.0</ele><time>2026-04-12T13:18:39Z</time></trkpt><trkpt lat="44.64383432666849" lon="12.248096847772178"><ele>5.0</ele><time>2026-04-12T13:18:41Z</time></trkpt><trkpt lat="44.643863292838006" lon="12.247978396115418"><ele>5.0</ele><time>2026-04-12T13:18:43Z</time></trkpt><trkpt lat="44.64388399761178" lon="12.247853753492834"><ele>5.0</ele><time>2026-04-12T13:18:45Z</time></trkpt><trkpt lat="44.64391814088043" lon="12.247736640509947"><ele>5.0</ele><time>2026-04-12T13:18:47Z</time></trkpt><trkpt lat="44.64395656588014" lon="12.24762907398735"><ele>5.0</ele><time>2026-04-12T13:18:49Z</time></trkpt><trkpt lat="44.64399100968546" lon="12.247524788849674"><ele>5.0</ele><time>2026-04-12T13:18:51Z</time></trkpt><trkpt lat="44.64402589743417" lon="12.24742483299853"><ele>5.0</ele><time>2026-04-12T13:18:53Z</time></trkpt><trkpt lat="44.64406389484874" lon="12.247322780527304"><ele>5.0</ele><time>2026-04-12T13:18:55Z</time></trkpt><trkpt lat="44.64410917577739" lon="12.247200600628632"><ele>5.0</ele><time>2026-04-12T13:18:57Z</time></trkpt><trkpt lat="44.644154885638535" lon="12.247095216051054"><ele>5.0</ele><time>2026-04-12T13:18:59Z</time></trkpt><trkpt lat="44.64418997577102" lon="12.24698755819944"><ele>5.0</ele><time>2026-04-12T13:19:01Z</time></trkpt><trkpt lat="44.64422467072953" lon="12.2468886551387"><ele>5.0</ele><time>2026-04-12T13:19:03Z</time></trkpt><trkpt lat="44.64425203847625" lon="12.246792225643693"><ele>5.0</ele><time>2026-04-12T13:19:05Z</time></trkpt><trkpt lat="44.644293013827365" lon="12.246698674696585"><ele>5.0</ele><time>2026-04-12T13:19:07Z</time></trkpt><trkpt lat="44.64434035568396" lon="12.246601986840073"><ele>5.0</ele><time>2026-04-12T13:19:09Z</time></trkpt><trkpt lat="44.64438961426032" lon="12.246502834279157"><ele>5.0</ele><time>2026-04-12T13:19:11Z</time></trkpt><trkpt lat="44.64444411684512" lon="12.24642131801"><ele>4.6</ele><time>2026-04-12T13:19:13Z</time></trkpt><trkpt lat="44.64449261489242" lon="12.24632403529991"><ele>4.2</ele><time>2026-04-12T13:19:15Z</time></trkpt><trkpt lat="44.64454432526074" lon="12.246207197433135"><ele>3.8</ele><time>2026-04-12T13:19:17Z</time></trkpt><trkpt lat="44.64459696055431" lon="12.246080469185669"><ele>3.4</ele><time>2026-04-12T13:19:19Z</time></trkpt><trkpt lat="44.64465073310029" lon="12.24596614287813"><ele>3.0</ele><time>2026-04-12T13:19:21Z</time></trkpt><trkpt lat="44.64470465695755" lon="12.24586251005616"><ele>3.0</ele><time>2026-04-12T13:19:23Z</time></trkpt><trkpt lat="44.64475428514418" lon="12.24575949388877"><ele>3.0</ele><time>2026-04-12T13:19:25Z</time></trkpt><trkpt lat="44.644806531303615" lon="12.245668594672367"><ele>3.0</ele><time>2026-04-12T13:19:27Z</time></trkpt><trkpt lat="44.64485745134733" lon="12.245578781091"><ele>3.0</ele><time>2026-04-12T13:19:29Z</time></trkpt><trkpt lat="44.6449112336771" lon="12.245500514406782"><ele>3.0</ele><time>2026-04-12T13:19:31Z</time></trkpt><trkpt lat="44.64497397368475" lon="12.24540022895402"><ele>3.0</ele><time>2026-04-12T13:19:33Z</time></trkpt><trkpt lat="44.645046225559184" lon="12.245291401285359"><ele>3.0</ele><time>2026-04-12T13:19:35Z</time></trkpt><trkpt lat="44.64511728404158" lon="12.245185484439698"><ele>3.0</ele><time>2026-04-12T13:19:37Z</time></trkpt><trkpt lat="44.64518648131122" lon="12.245090725088335"><ele>3.0</ele><time>2026-04-12T13:19:39Z</time></trkpt><trkpt lat="44.64526244911013" lon="12.244999337093097"><ele>3.0</ele><time>2026-04-12T13:19:41Z</time></trkpt><trkpt lat="44.64532684718109" lon="12.244921381723346"><ele>3.0</ele><time>2026-04-12T13:19:43Z</time></trkpt><trkpt lat="44.64539043070107" lon="12.244847987248441"><ele>3.1666666666666665</ele><time>2026-04-12T13:19:45Z</time></trkpt><trkpt lat="44.645451894913" lon="12.24477535961461"><ele>3.333333333333333</ele><time>2026-04-12T13:19:47Z</time></trkpt><trkpt lat="44.64551976567616" lon="12.244701774750114"><ele>3.5</ele><time>2026-04-12T13:19:49Z</time></trkpt><trkpt lat="44.6455905364007" lon="12.24462154692675"><ele>3.6666666666666665</ele><time>2026-04-12T13:19:51Z</time></trkpt><trkpt lat="44.64566122683637" lon="12.244560908773513"><ele>3.833333333333333</ele><time>2026-04-12T13:19:53Z</time></trkpt><trkpt lat="44.64573847753397" lon="12.244484739049469"><ele>4.0</ele><time>2026-04-12T13:19:55Z</time></trkpt><trkpt lat="44.64581414552165" lon="12.244417656914173"><ele>4.0</ele><time>2026-04-12T13:19:57Z</time></trkpt><trkpt lat="44.64589756830184" lon="12.244345742468699"><ele>4.0</ele><time>2026-04-12T13:19:59Z</time></trkpt><trkpt lat="44.64598594293918" lon="12.244286990525545"><ele>4.0</ele><time>2026-04-12T13:20:01Z</time></trkpt><trkpt lat="44.64606992822829" lon="12.244232633157504"><ele>4.0</ele><time>2026-04-12T13:20:03Z</time></trkpt><trkpt lat="44.646158057144525" lon="12.24417540210493"><ele>4.0</ele><time>2026-04-12T13:20:05Z</time></trkpt><trkpt lat="44.646226101160494" lon="12.244130486581737"><ele>4.0</ele><time>2026-04-12T13:20:07Z</time></trkpt><trkpt lat="44.646300664043665" lon="12.244065774452794"><ele>4.0</ele><time>2026-04-12T13:20:09Z</time></trkpt><trkpt lat="44.64639234400975" lon="12.243999371604373"><ele>4.0</ele><time>2026-04-12T13:20:11Z</time></trkpt><trkpt lat="44.64647634537498" lon="12.2439431327163"><ele>4.0</ele><time>2026-04-12T13:20:13Z</time></trkpt><trkpt lat="44.64655615905885" lon="12.243892455206764"><ele>4.0</ele><time>2026-04-12T13:20:15Z</time></trkpt><trkpt lat="44.64663448821953" lon="12.243841993799219"><ele>4.0</ele><time>2026-04-12T13:20:17Z</time></trkpt><trkpt lat="44.64672349762434" lon="12.243777840047684"><ele>4.0</ele><time>2026-04-12T13:20:19Z</time></trkpt><trkpt lat="44.64681583723464" lon="12.243727051259489"><ele>4.0</ele><time>2026-04-12T13:20:21Z</time></trkpt><trkpt lat="44.6468955050496" lon="12.243667345048564"><ele>4.0</ele><time>2026-04-12T13:20:23Z</time></trkpt><trkpt lat="44.64697157861449" lon="12.243607481929875"><ele>4.0</ele><time>2026-04-12T13:20:25Z</time></trkpt><trkpt lat="44.64704695242858" lon="12.243566043266112"><ele>3.833333333333333</ele><time>2026-04-12T13:20:27Z</time></trkpt><trkpt lat="44.64711471399783" lon="12.243518922363242"><ele>3.6666666666666665</ele><time>2026-04-12T13:20:29Z</time></trkpt><trkpt lat="44.647190343897066" lon="12.243484725278382"><ele>3.5</ele><time>2026-04-12T13:20:31Z</time></trkpt><trkpt lat="44.64727586972034" lon="12.243433242763695"><ele>3.333333333333333</ele><time>2026-04-12T13:20:33Z</time></trkpt><trkpt lat="44.64735973674959" lon="12.243387247113805"><ele>3.1666666666666665</ele><time>2026-04-12T13:20:35Z</time></trkpt><trkpt lat="44.647439812013914" lon="12.243336871392941"><ele>3.0</ele><time>2026-04-12T13:20:37Z</time></trkpt><trkpt lat="44.64752478934909" lon="12.243272668878188"><ele>3.0</ele><time>2026-04-12T13:20:39Z</time></trkpt><trkpt lat="44.64761026172669" lon="12.24321049581992"><ele>3.0</ele><time>2026-04-12T13:20:41Z</time></trkpt><trkpt lat="44.64770061090119" lon="12.24313721330817"><ele>3.0</ele><time>2026-04-12T13:20:43Z</time></trkpt><trkpt lat="44.647792195671094" lon="12.243096983212373"><ele>3.0</ele><time>2026-04-12T13:20:45Z</time></trkpt><trkpt lat="44.64787523584644" lon="12.24305289599892"><ele>3.0</ele><time>2026-04-12T13:20:47Z</time></trkpt><trkpt lat="44.647955888132536" lon="12.243012372930513"><ele>3.1666666666666665</ele><time>2026-04-12T13:20:49Z</time></trkpt><trkpt lat="44.64803244192893" lon="12.242973953368212"><ele>3.333333333333333</ele><time>2026-04-12T13:20:51Z</time></trkpt><trkpt lat="44.6481059436754" lon="12.24293659624961"><ele>3.5</ele><time>2026-04-12T13:20:53Z</time></trkpt><trkpt lat="44.64817876033728" lon="12.242882980496201"><ele>3.6666666666666665</ele><time>2026-04-12T13:20:55Z</time></trkpt><trkpt lat="44.64824859678235" lon="12.242833285934285"><ele>3.833333333333333</ele><time>2026-04-12T13:20:57Z</time></trkpt><trkpt lat="44.648329802235146" lon="12.242790647004627"><ele>4.0</ele><time>2026-04-12T13:20:59Z</time></trkpt><trkpt lat="44.64843025864328" lon="12.242730412458918"><ele>4.0</ele><time>2026-04-12T13:21:01Z</time></trkpt><trkpt lat="44.64850740930287" lon="12.242663900406148"><ele>4.0</ele><time>2026-04-12T13:21:03Z</time></trkpt><trkpt lat="44.64859517688145" lon="12.242612599111268"><ele>4.0</ele><time>2026-04-12T13:21:05Z</time></trkpt><trkpt lat="44.64868067772508" lon="12.242569019140365"><ele>4.0</ele><time>2026-04-12T13:21:07Z</time></trkpt><trkpt lat="44.648761376727" lon="12.24250866933234"><ele>4.0</ele><time>2026-04-12T13:21:09Z</time></trkpt><trkpt lat="44.648850255630855" lon="12.242458016243035"><ele>3.6666666666666665</ele><time>2026-04-12T13:21:11Z</time></trkpt><trkpt lat="44.64893749457053" lon="12.24241205927251"><ele>3.333333333333333</ele><time>2026-04-12T13:21:13Z</time></trkpt><trkpt lat="44.64901474617466" lon="12.242363268320169"><ele>3.0</ele><time>2026-04-12T13:21:15Z</time></trkpt><trkpt lat="44.64908627327067" lon="12.242325838545309"><ele>2.6666666666666665</ele><time>2026-04-12T13:21:17Z</time></trkpt><trkpt lat="44.64915710780294" lon="12.242277347262124"><ele>2.333333333333333</ele><time>2026-04-12T13:21:19Z</time></trkpt><trkpt lat="44.64923539869797" lon="12.242241243551529"><ele>2.0</ele><time>2026-04-12T13:21:21Z</time></trkpt><trkpt lat="44.64930871779993" lon="12.242205798346923"><ele>1.9999999999999998</ele><time>2026-04-12T13:21:23Z</time></trkpt><trkpt lat="44.64937546149616" lon="12.242176126926294"><ele>2.0</ele><time>2026-04-12T13:21:25Z</time></trkpt><trkpt lat="44.649463106216864" lon="12.242126133944895"><ele>2.0</ele><time>2026-04-12T13:21:28Z</time></trkpt><trkpt lat="44.649542954217274" lon="12.242103135834979"><ele>2.0</ele><time>2026-04-12T13:21:30Z</time></trkpt><trkpt lat="44.64962936038652" lon="12.242068831742014"><ele>1.9999999999999998</ele><time>2026-04-12T13:21:32Z</time></trkpt><trkpt lat="44.6497117798763" lon="12.242010579920173"><ele>2.0</ele><time>2026-04-12T13:21:34Z</time></trkpt><trkpt lat="44.64980182322075" lon="12.241951332684657"><ele>2.0</ele><time>2026-04-12T13:21:36Z</time></trkpt><trkpt lat="44.64989318984215" lon="12.241917810804955"><ele>2.0</ele><time>2026-04-12T13:21:38Z</time></trkpt><trkpt lat="44.64998176093384" lon="12.24188307391113"><ele>2.0</ele><time>2026-04-12T13:21:40Z</time></trkpt><trkpt lat="44.650065616167865" lon="12.24182976036767"><ele>2.0</ele><time>2026-04-12T13:21:42Z</time></trkpt><trkpt lat="44.65014727602975" lon="12.241792430729097"><ele>2.0</ele><time>2026-04-12T13:21:44Z</time></trkpt><trkpt lat="44.65024404445715" lon="12.241751884806256"><ele>2.2</ele><time>2026-04-12T13:21:46Z</time></trkpt><trkpt lat="44.65034596735221" lon="12.241710472715484"><ele>2.4000000000000004</ele><time>2026-04-12T13:21:48Z</time></trkpt><trkpt lat="44.65043870732626" lon="12.24167234546415"><ele>2.5999999999999996</ele><time>2026-04-12T13:21:50Z</time></trkpt><trkpt lat="44.6505168146866" lon="12.24163214945238"><ele>2.8</ele><time>2026-04-12T13:21:52Z</time></trkpt><trkpt lat="44.65060307547523" lon="12.241620989589418"><ele>3.0</ele><time>2026-04-12T13:21:54Z</time></trkpt><trkpt lat="44.65069259876282" lon="12.241554354582062"><ele>3.0</ele><time>2026-04-12T13:21:56Z</time></trkpt><trkpt lat="44.650794149816775" lon="12.24150910107269"><ele>3.0</ele><time>2026-04-12T13:21:58Z</time></trkpt><trkpt lat="44.650895048000805" lon="12.2414688652284"><ele>3.0</ele><time>2026-04-12T13:22:00Z</time></trkpt><trkpt lat="44.6509923673941" lon="12.241448712845472"><ele>3.0</ele><time>2026-04-12T13:22:02Z</time></trkpt><trkpt lat="44.65108610691112" lon="12.241422901874236"><ele>3.0</ele><time>2026-04-12T13:22:04Z</time></trkpt><trkpt lat="44.65119131768676" lon="12.241387882296047"><ele>2.8</ele><time>2026-04-12T13:22:06Z</time></trkpt><trkpt lat="44.65129212618432" lon="12.241334961507198"><ele>2.5999999999999996</ele><time>2026-04-12T13:22:08Z</time></trkpt><trkpt lat="44.651390234283895" lon="12.241305888808283"><ele>2.4000000000000004</ele><time>2026-04-12T13:22:10Z</time></trkpt><trkpt lat="44.65147847572625" lon="12.241290263736433"><ele>2.2</ele><time>2026-04-12T13:22:12Z</time></trkpt><trkpt lat="44.651577697056915" lon="12.241281281841005"><ele>2.0</ele><time>2026-04-12T13:22:14Z</time></trkpt><trkpt lat="44.65166377594034" lon="12.241259605355275"><ele>2.0</ele><time>2026-04-12T13:22:16Z</time></trkpt><trkpt lat="44.65175636666323" lon="12.241230539631898"><ele>2.0</ele><time>2026-04-12T13:22:18Z</time></trkpt><trkpt lat="44.65185337752706" lon="12.241207324964012"><ele>2.0</ele><time>2026-04-12T13:22:20Z</time></trkpt><trkpt lat="44.651953262084575" lon="12.24118556410435"><ele>2.0</ele><time>2026-04-12T13:22:22Z</time></trkpt><trkpt lat="44.65205787530775" lon="12.241152221960629"><ele>2.0</ele><time>2026-04-12T13:22:24Z</time></trkpt><trkpt lat="44.65216530170781" lon="12.241128069438185"><ele>1.8</ele><time>2026-04-12T13:22:26Z</time></trkpt><trkpt lat="44.65227378988469" lon="12.241106169382478"><ele>1.6</ele><time>2026-04-12T13:22:28Z</time></trkpt><trkpt lat="44.652378934554285" lon="12.241090329214373"><ele>1.4000000000000001</ele><time>2026-04-12T13:22:30Z</time></trkpt><trkpt lat="44.652482635416106" lon="12.241075696112716"><ele>1.2000000000000002</ele><time>2026-04-12T13:22:32Z</time></trkpt><trkpt lat="44.652578007655286" lon="12.241067279221085"><ele>1.0</ele><time>2026-04-12T13:22:34Z</time></trkpt><trkpt lat="44.652677797356795" lon="12.241049053842971"><ele>1.0</ele><time>2026-04-12T13:22:36Z</time></trkpt><trkpt lat="44.65276390782312" lon="12.241038380085776"><ele>1.0</ele><time>2026-04-12T13:22:38Z</time></trkpt><trkpt lat="44.65286125338383" lon="12.241023690131795"><ele>1.0</ele><time>2026-04-12T13:22:40Z</time></trkpt><trkpt lat="44.65295325343295" lon="12.241008907099546"><ele>1.0</ele><time>2026-04-12T13:22:42Z</time></trkpt><trkpt lat="44.65304976404581" lon="12.241006289841135"><ele>1.0</ele><time>2026-04-12T13:22:44Z</time></trkpt><trkpt lat="44.653149857785394" lon="12.241004025870643"><ele>0.8</ele><time>2026-04-12T13:22:46Z</time></trkpt><trkpt lat="44.65325323237882" lon="12.240996781916825"><ele>0.6000000000000001</ele><time>2026-04-12T13:22:48Z</time></trkpt><trkpt lat="44.65335218673996" lon="12.240990814995824"><ele>0.4</ele><time>2026-04-12T13:22:50Z</time></trkpt><trkpt lat="44.653443433225696" lon="12.240990084181828"><ele>0.2</ele><time>2026-04-12T13:22:52Z</time></trkpt><trkpt lat="44.65353302607858" lon="12.240984037838158"><ele>0.0</ele><time>2026-04-12T13:22:54Z</time></trkpt><trkpt lat="44.65362939273866" lon="12.240976260314385"><ele>0.0</ele><time>2026-04-12T13:22:56Z</time></trkpt><trkpt lat="44.653726256320134" lon="12.240974276117532"><ele>0.0</ele><time>2026-04-12T13:22:58Z</time></trkpt><trkpt lat="44.65382488453025" lon="12.240985500203898"><ele>0.0</ele><time>2026-04-12T13:23:00Z</time></trkpt><trkpt lat="44.65392655719692" lon="12.240983347697362"><ele>0.0</ele><time>2026-04-12T13:23:02Z</time></trkpt><trkpt lat="44.65403106796781" lon="12.240982042473421"><ele>0.0</ele><time>2026-04-12T13:23:04Z</time></trkpt><trkpt lat="44.654136677408125" lon="12.240981498236344"><ele>0.0</ele><time>2026-04-12T13:23:06Z</time></trkpt><trkpt lat="44.654241822441605" lon="12.240977574174615"><ele>0.0</ele><time>2026-04-12T13:23:08Z</time></trkpt><trkpt lat="44.6543392757321" lon="12.24099175291277"><ele>0.0</ele><time>2026-04-12T13:23:10Z</time></trkpt><trkpt lat="44.65443249694791" lon="12.241010945646073"><ele>0.0</ele><time>2026-04-12T13:23:12Z</time></trkpt><trkpt lat="44.65452188085932" lon="12.24103363764658"><ele>0.0</ele><time>2026-04-12T13:23:14Z</time></trkpt><trkpt lat="44.654607461025215" lon="12.2410369266752"><ele>0.0</ele><time>2026-04-12T13:23:16Z</time></trkpt><trkpt lat="44.654695848730434" lon="12.241048969321483"><ele>0.0</ele><time>2026-04-12T13:23:18Z</time></trkpt><trkpt lat="44.654788137279674" lon="12.241063317298789"><ele>0.0</ele><time>2026-04-12T13:23:20Z</time></trkpt><trkpt lat="44.65487873036393" lon="12.241083324512308"><ele>0.0</ele><time>2026-04-12T13:23:22Z</time></trkpt><trkpt lat="44.65496933946569" lon="12.24109826004983"><ele>0.0</ele><time>2026-04-12T13:23:24Z</time></trkpt><trkpt lat="44.65506052435451" lon="12.241103232819578"><ele>0.0</ele><time>2026-04-12T13:23:26Z</time></trkpt><trkpt lat="44.65515131443236" lon="12.241116840534502"><ele>0.0</ele><time>2026-04-12T13:23:28Z</time></trkpt><trkpt lat="44.65524552016775" lon="12.241135107894955"><ele>0.0</ele><time>2026-04-12T13:23:30Z</time></trkpt><trkpt lat="44.655338503055205" lon="12.241157727268645"><ele>0.0</ele><time>2026-04-12T13:23:32Z</time></trkpt><trkpt lat="44.6554341309887" lon="12.241177546419234"><ele>0.0</ele><time>2026-04-12T13:23:34Z</time></trkpt><trkpt lat="44.65552571141408" lon="12.241208134404436"><ele>0.0</ele><time>2026-04-12T13:23:36Z</time></trkpt><trkpt lat="44.65561732836679" lon="12.241241037176957"><ele>0.0</ele><time>2026-04-12T13:23:38Z</time></trkpt><trkpt lat="44.65571718730183" lon="12.24126435316176"><ele>0.0</ele><time>2026-04-12T13:23:40Z</time></trkpt><trkpt lat="44.65581221589435" lon="12.241311942940168"><ele>0.0</ele><time>2026-04-12T13:23:42Z</time></trkpt><trkpt lat="44.655905319878514" lon="12.241357266905236"><ele>0.0</ele><time>2026-04-12T13:23:44Z</time></trkpt><trkpt lat="44.656002142173406" lon="12.241405764928654"><ele>0.0</ele><time>2026-04-12T13:23:46Z</time></trkpt><trkpt lat="44.656101961909606" lon="12.241443222004492"><ele>0.0</ele><time>2026-04-12T13:23:48Z</time></trkpt><trkpt lat="44.6561931318614" lon="12.241494579876285"><ele>0.0</ele><time>2026-04-12T13:23:50Z</time></trkpt><trkpt lat="44.65628854829511" lon="12.241542974560087"><ele>0.0</ele><time>2026-04-12T13:23:52Z</time></trkpt><trkpt lat="44.656375316644564" lon="12.241598393599746"><ele>0.0</ele><time>2026-04-12T13:23:54Z</time></trkpt><trkpt lat="44.656453405111534" lon="12.24165011294008"><ele>0.6</ele><time>2026-04-12T13:23:56Z</time></trkpt><trkpt lat="44.65654156267558" lon="12.24169818015159"><ele>1.2</ele><time>2026-04-12T13:23:58Z</time></trkpt><trkpt lat="44.65662675742843" lon="12.24174749022944"><ele>1.7999999999999998</ele><time>2026-04-12T13:24:00Z</time></trkpt><trkpt lat="44.6566922302214" lon="12.241859502807994"><ele>2.4</ele><time>2026-04-12T13:24:02Z</time></trkpt><trkpt lat="44.65676191629026" lon="12.24193144240285"><ele>3.0</ele><time>2026-04-12T13:24:04Z</time></trkpt><trkpt lat="44.65684173364602" lon="12.242011360681142"><ele>3.0</ele><time>2026-04-12T13:24:06Z</time></trkpt><trkpt lat="44.65692564588442" lon="12.242095019296993"><ele>3.0</ele><time>2026-04-12T13:24:08Z</time></trkpt><trkpt lat="44.65700588371718" lon="12.242176126662294"><ele>3.0</ele><time>2026-04-12T13:24:10Z</time></trkpt><trkpt lat="44.65707589690257" lon="12.242259789972042"><ele>3.0</ele><time>2026-04-12T13:24:12Z</time></trkpt><trkpt lat="44.657136295482815" lon="12.242353158176938"><ele>3.0</ele><time>2026-04-12T13:24:14Z</time></trkpt><trkpt lat="44.657207771831644" lon="12.242457947833651"><ele>3.4</ele><time>2026-04-12T13:24:16Z</time></trkpt><trkpt lat="44.65727214209998" lon="12.242554357819861"><ele>3.8</ele><time>2026-04-12T13:24:18Z</time></trkpt><trkpt lat="44.6573245286637" lon="12.242649160994981"><ele>4.2</ele><time>2026-04-12T13:24:20Z</time></trkpt><trkpt lat="44.65737954637689" lon="12.242743067344067"><ele>4.6</ele><time>2026-04-12T13:24:22Z</time></trkpt><trkpt lat="44.65743269878679" lon="12.242862194434341"><ele>5.0</ele><time>2026-04-12T13:24:24Z</time></trkpt><trkpt lat="44.65748365144959" lon="12.24299206499107"><ele>5.0</ele><time>2026-04-12T13:24:26Z</time></trkpt><trkpt lat="44.65753246972851" lon="12.243111263357422"><ele>5.0</ele><time>2026-04-12T13:24:28Z</time></trkpt><trkpt lat="44.657569377054394" lon="12.24322931714518"><ele>5.0</ele><time>2026-04-12T13:24:30Z</time></trkpt><trkpt lat="44.65760436573627" lon="12.243334625327932"><ele>5.0</ele><time>2026-04-12T13:24:32Z</time></trkpt><trkpt lat="44.65763134482717" lon="12.243446005704826"><ele>5.0</ele><time>2026-04-12T13:24:34Z</time></trkpt><trkpt lat="44.65766563459252" lon="12.243568162562827"><ele>5.0</ele><time>2026-04-12T13:24:36Z</time></trkpt><trkpt lat="44.657706383158796" lon="12.243703138941976"><ele>5.166666666666667</ele><time>2026-04-12T13:24:38Z</time></trkpt><trkpt lat="44.65774417343767" lon="12.243828346143584"><ele>5.333333333333334</ele><time>2026-04-12T13:24:40Z</time></trkpt><trkpt lat="44.6577738376116" lon="12.243941659125337"><ele>5.5</ele><time>2026-04-12T13:24:42Z</time></trkpt><trkpt lat="44.657801382358784" lon="12.244052322867981"><ele>5.666666666666667</ele><time>2026-04-12T13:24:44Z</time></trkpt><trkpt lat="44.65782759811465" lon="12.244149070768835"><ele>5.833333333333333</ele><time>2026-04-12T13:24:46Z</time></trkpt><trkpt lat="44.65785802801776" lon="12.24426660209548"><ele>6.0</ele><time>2026-04-12T13:24:48Z</time></trkpt><trkpt lat="44.65788195528468" lon="12.244372891455042"><ele>5.833333333333333</ele><time>2026-04-12T13:24:50Z</time></trkpt><trkpt lat="44.657914780363605" lon="12.244495361569303"><ele>5.666666666666667</ele><time>2026-04-12T13:24:52Z</time></trkpt><trkpt lat="44.65794727558052" lon="12.244598440427827"><ele>5.5</ele><time>2026-04-12T13:24:54Z</time></trkpt><trkpt lat="44.65797727906046" lon="12.244692726484848"><ele>5.333333333333334</ele><time>2026-04-12T13:24:56Z</time></trkpt><trkpt lat="44.658008171930746" lon="12.244803815570418"><ele>5.166666666666667</ele><time>2026-04-12T13:24:59Z</time></trkpt><trkpt lat="44.65805114913351" lon="12.2448966077443"><ele>5.0</ele><time>2026-04-12T13:25:04Z</time></trkpt><trkpt lat="44.65813169208652" lon="12.244889224228402"><ele>5.0</ele><time>2026-04-12T13:25:06Z</time></trkpt><trkpt lat="44.658208308791814" lon="12.244870136236742"><ele>5.0</ele><time>2026-04-12T13:25:08Z</time></trkpt><trkpt lat="44.65828793016793" lon="12.244863532110951"><ele>5.0</ele><time>2026-04-12T13:25:10Z</time></trkpt><trkpt lat="44.6583747859358" lon="12.244857472119163"><ele>5.0</ele><time>2026-04-12T13:25:12Z</time></trkpt><trkpt lat="44.65846106631107" lon="12.244851527062455"><ele>5.0</ele><time>2026-04-12T13:25:14Z</time></trkpt><trkpt lat="44.65855888365835" lon="12.244845322328404"><ele>5.0</ele><time>2026-04-12T13:25:16Z</time></trkpt><trkpt lat="44.65865444977426" lon="12.244834642471128"><ele>5.0</ele><time>2026-04-12T13:25:18Z</time></trkpt><trkpt lat="44.65873999200684" lon="12.244818721248555"><ele>5.0</ele><time>2026-04-12T13:25:20Z</time></trkpt><trkpt lat="44.65881894562909" lon="12.244815323916393"><ele>5.0</ele><time>2026-04-12T13:25:22Z</time></trkpt><trkpt lat="44.6588979491629" lon="12.244780231417764"><ele>5.0</ele><time>2026-04-12T13:25:24Z</time></trkpt><trkpt lat="44.65898149929686" lon="12.24476738138689"><ele>5.0</ele><time>2026-04-12T13:25:26Z</time></trkpt><trkpt lat="44.659067816861565" lon="12.24475799926813"><ele>5.0</ele><time>2026-04-12T13:25:28Z</time></trkpt><trkpt lat="44.659147601913475" lon="12.24473126663968"><ele>5.333333333333334</ele><time>2026-04-12T13:25:30Z</time></trkpt><trkpt lat="44.65923559144321" lon="12.244718682938503"><ele>5.666666666666667</ele><time>2026-04-12T13:25:32Z</time></trkpt><trkpt lat="44.65934362346806" lon="12.24471627260642"><ele>6.0</ele><time>2026-04-12T13:25:34Z</time></trkpt><trkpt lat="44.659425207757025" lon="12.244718927365067"><ele>6.333333333333334</ele><time>2026-04-12T13:25:36Z</time></trkpt><trkpt lat="44.65950346944196" lon="12.244721149029843"><ele>6.666666666666667</ele><time>2026-04-12T13:25:38Z</time></trkpt><trkpt lat="44.65958398456368" lon="12.244727796405055"><ele>7.0</ele><time>2026-04-12T13:25:40Z</time></trkpt><trkpt lat="44.659653348274134" lon="12.244731106414212"><ele>6.166666666666667</ele><time>2026-04-12T13:25:42Z</time></trkpt><trkpt lat="44.65973956326703" lon="12.244711613513985"><ele>5.333333333333334</ele><time>2026-04-12T13:25:45Z</time></trkpt><trkpt lat="44.65980677783448" lon="12.244703246054318"><ele>4.5</ele><time>2026-04-12T13:25:47Z</time></trkpt><trkpt lat="44.6599005689882" lon="12.244689619395423"><ele>3.666666666666667</ele><time>2026-04-12T13:25:50Z</time></trkpt><trkpt lat="44.65998434727294" lon="12.244676889773537"><ele>2.833333333333333</ele><time>2026-04-12T13:25:53Z</time></trkpt><trkpt lat="44.660059053117116" lon="12.244664871841243"><ele>2.0</ele><time>2026-04-12T13:25:56Z</time></trkpt><trkpt lat="44.660129678498635" lon="12.244665341035939"><ele>1.9999999999999998</ele><time>2026-04-12T13:25:59Z</time></trkpt><trkpt lat="44.66019464842912" lon="12.244640393321934"><ele>2.0</ele><time>2026-04-12T13:26:02Z</time></trkpt><trkpt lat="44.660246300059946" lon="12.244765653962714"><ele>2.0</ele><time>2026-04-12T13:26:06Z</time></trkpt><trkpt lat="44.660234446356014" lon="12.244883461465866"><ele>2.0</ele><time>2026-04-12T13:26:08Z</time></trkpt><trkpt lat="44.660235953767035" lon="12.245000549007626"><ele>1.9999999999999998</ele><time>2026-04-12T13:26:10Z</time></trkpt><trkpt lat="44.660235638185306" lon="12.245109321532544"><ele>2.0</ele><time>2026-04-12T13:26:12Z</time></trkpt><trkpt lat="44.66024579521799" lon="12.24520770067867"><ele>2.0</ele><time>2026-04-12T13:26:14Z</time></trkpt><trkpt lat="44.66025162681305" lon="12.245301906550175"><ele>1.9999999999999998</ele><time>2026-04-12T13:26:16Z</time></trkpt><trkpt lat="44.660257157994934" lon="12.245428127779212"><ele>2.0</ele><time>2026-04-12T13:26:19Z</time></trkpt><trkpt lat="44.66027080910109" lon="12.245518656474312"><ele>2.0</ele><time>2026-04-12T13:26:21Z</time></trkpt><trkpt lat="44.66028458187143" lon="12.245609356323257"><ele>1.9999999999999998</ele><time>2026-04-12T13:26:23Z</time></trkpt><trkpt lat="44.66030642897142" lon="12.245715600726959"><ele>2.0</ele><time>2026-04-12T13:26:26Z</time></trkpt><trkpt lat="44.66033511700913" lon="12.245803442642636"><ele>2.0</ele><time>2026-04-12T13:26:57Z</time></trkpt><trkpt lat="44.660355848161615" lon="12.245906682186437"><ele>3.1666666666666665</ele><time>2026-04-12T13:27:01Z</time></trkpt><trkpt lat="44.66037839734004" lon="12.246017005695581"><ele>4.333333333333333</ele><time>2026-04-12T13:27:04Z</time></trkpt><trkpt lat="44.660399083338454" lon="12.246131528324154"><ele>5.5</ele><time>2026-04-12T13:27:07Z</time></trkpt><trkpt lat="44.66042168930228" lon="12.246246263378733"><ele>6.666666666666667</ele><time>2026-04-12T13:27:10Z</time></trkpt><trkpt lat="44.6604568758297" lon="12.246344025570696"><ele>7.833333333333333</ele><time>2026-04-12T13:27:13Z</time></trkpt><trkpt lat="44.6604701970142" lon="12.246461045225873"><ele>9.0</ele><time>2026-04-12T13:27:16Z</time></trkpt><trkpt lat="44.660492418657284" lon="12.246586841675688"><ele>9.0</ele><time>2026-04-12T13:27:19Z</time></trkpt><trkpt lat="44.66051896743209" lon="12.246710623269205"><ele>9.0</ele><time>2026-04-12T13:27:22Z</time></trkpt><trkpt lat="44.660537285841066" lon="12.24679774425"><ele>9.0</ele><time>2026-04-12T13:27:24Z</time></trkpt><trkpt lat="44.6605626278876" lon="12.24692128170981"><ele>9.0</ele><time>2026-04-12T13:27:27Z</time></trkpt><trkpt lat="44.66059282795982" lon="12.24704729204553"><ele>9.0</ele><time>2026-04-12T13:27:30Z</time></trkpt><trkpt lat="44.66059969716573" lon="12.247145966020327"><ele>9.0</ele><time>2026-04-12T13:27:32Z</time></trkpt><trkpt lat="44.66062053266516" lon="12.247231882686464"><ele>8.428571428571429</ele><time>2026-04-12T13:27:34Z</time></trkpt><trkpt lat="44.66063557995997" lon="12.24732440414077"><ele>7.857142857142858</ele><time>2026-04-12T13:27:36Z</time></trkpt><trkpt lat="44.66065365713416" lon="12.247417509933221"><ele>7.2857142857142865</ele><time>2026-04-12T13:27:38Z</time></trkpt><trkpt lat="44.6606735748404" lon="12.247510767910848"><ele>6.714285714285715</ele><time>2026-04-12T13:27:40Z</time></trkpt><trkpt lat="44.660694889657016" lon="12.247602280781626"><ele>6.142857142857143</ele><time>2026-04-12T13:27:42Z</time></trkpt><trkpt lat="44.66071926681428" lon="12.24769477037747"><ele>5.571428571428571</ele><time>2026-04-12T13:27:44Z</time></trkpt><trkpt lat="44.660739627823894" lon="12.247781524837574"><ele>5.0</ele><time>2026-04-12T13:27:46Z</time></trkpt><trkpt lat="44.66078823758802" lon="12.24784418318969"><ele>5.0</ele><time>2026-04-12T13:27:48Z</time></trkpt><trkpt lat="44.660881164911046" lon="12.24785030452315"><ele>5.0</ele><time>2026-04-12T13:27:51Z</time></trkpt><trkpt lat="44.660945158539015" lon="12.247836648338785"><ele>5.0</ele><time>2026-04-12T13:27:53Z</time></trkpt><trkpt lat="44.661023746972255" lon="12.2478079233411"><ele>5.0</ele><time>2026-04-12T13:27:56Z</time></trkpt><trkpt lat="44.66108063773605" lon="12.24776769033151"><ele>5.0</ele><time>2026-04-12T13:27:59Z</time></trkpt><trkpt lat="44.661144575292745" lon="12.247715096723375"><ele>5.0</ele><time>2026-04-12T13:28:04Z</time></trkpt><trkpt lat="44.66118171977895" lon="12.247623815037604"><ele>4.833333333333334</ele><time>2026-04-12T13:28:08Z</time></trkpt><trkpt lat="44.6612660286826" lon="12.247612712571822"><ele>4.666666666666667</ele><time>2026-04-12T13:28:10Z</time></trkpt><trkpt lat="44.66135007753261" lon="12.247603693706797"><ele>4.5</ele><time>2026-04-12T13:28:12Z</time></trkpt><trkpt lat="44.66143716503673" lon="12.24758975030693"><ele>4.333333333333333</ele><time>2026-04-12T13:28:14Z</time></trkpt><trkpt lat="44.66151926899754" lon="12.24756919724033"><ele>4.166666666666666</ele><time>2026-04-12T13:28:16Z</time></trkpt><trkpt lat="44.6615964044392" lon="12.247550056393983"><ele>4.0</ele><time>2026-04-12T13:28:18Z</time></trkpt><trkpt lat="44.661668357412076" lon="12.247548692795235"><ele>4.0</ele><time>2026-04-12T13:28:20Z</time></trkpt><trkpt lat="44.66173888770471" lon="12.247541082570203"><ele>3.9999999999999996</ele><time>2026-04-12T13:28:22Z</time></trkpt><trkpt lat="44.661804641485844" lon="12.24752899627012"><ele>4.0</ele><time>2026-04-12T13:28:24Z</time></trkpt><trkpt lat="44.661874858237745" lon="12.247525588390927"><ele>4.0</ele><time>2026-04-12T13:28:26Z</time></trkpt><trkpt lat="44.661953115046686" lon="12.247510223248094"><ele>3.9999999999999996</ele><time>2026-04-12T13:28:28Z</time></trkpt><trkpt lat="44.66203025655586" lon="12.24747834621169"><ele>4.0</ele><time>2026-04-12T13:28:30Z</time></trkpt><trkpt lat="44.662103187494246" lon="12.24744260295154"><ele>4.0</ele><time>2026-04-12T13:28:32Z</time></trkpt><trkpt lat="44.66217631880928" lon="12.247439360084629"><ele>3.6666666666666665</ele><time>2026-04-12T13:28:34Z</time></trkpt><trkpt lat="44.66225848911073" lon="12.247428594887566"><ele>3.333333333333333</ele><time>2026-04-12T13:28:36Z</time></trkpt><trkpt lat="44.66233469924896" lon="12.247431114971858"><ele>3.0</ele><time>2026-04-12T13:28:38Z</time></trkpt><trkpt lat="44.66241300269142" lon="12.247435134442398"><ele>2.6666666666666665</ele><time>2026-04-12T13:28:40Z</time></trkpt><trkpt lat="44.66249155545034" lon="12.247441273816055"><ele>2.333333333333333</ele><time>2026-04-12T13:28:42Z</time></trkpt><trkpt lat="44.662573231392216" lon="12.247442035413062"><ele>2.0</ele><time>2026-04-12T13:28:44Z</time></trkpt><trkpt lat="44.66265479741332" lon="12.247427142302412"><ele>1.9999999999999998</ele><time>2026-04-12T13:28:46Z</time></trkpt><trkpt lat="44.662730352705424" lon="12.247405089945127"><ele>2.0</ele><time>2026-04-12T13:28:48Z</time></trkpt><trkpt lat="44.662813452974284" lon="12.247362526550575"><ele>2.0</ele><time>2026-04-12T13:28:50Z</time></trkpt><trkpt lat="44.66289508289999" lon="12.247332848218468"><ele>2.0</ele><time>2026-04-12T13:28:52Z</time></trkpt><trkpt lat="44.66297244039403" lon="12.247310499157042"><ele>1.9999999999999998</ele><time>2026-04-12T13:28:54Z</time></trkpt><trkpt lat="44.66305502840618" lon="12.247301029263257"><ele>2.0</ele><time>2026-04-12T13:28:56Z</time></trkpt><trkpt lat="44.663137097341775" lon="12.247293268113111"><ele>2.833333333333333</ele><time>2026-04-12T13:28:58Z</time></trkpt><trkpt lat="44.66322050057705" lon="12.247281325848302"><ele>3.666666666666667</ele><time>2026-04-12T13:29:00Z</time></trkpt><trkpt lat="44.66329325181543" lon="12.247261796106361"><ele>4.5</ele><time>2026-04-12T13:29:02Z</time></trkpt><trkpt lat="44.66337662607809" lon="12.247239240476516"><ele>5.333333333333334</ele><time>2026-04-12T13:29:04Z</time></trkpt><trkpt lat="44.66345690373866" lon="12.2472313917314"><ele>6.166666666666667</ele><time>2026-04-12T13:29:06Z</time></trkpt><trkpt lat="44.66353565776669" lon="12.247225422969189"><ele>7.0</ele><time>2026-04-12T13:29:08Z</time></trkpt><trkpt lat="44.66361204737678" lon="12.247219126738315"><ele>6.714285714285714</ele><time>2026-04-12T13:29:10Z</time></trkpt><trkpt lat="44.6636874813882" lon="12.247215029749414"><ele>6.428571428571429</ele><time>2026-04-12T13:29:12Z</time></trkpt><trkpt lat="44.66376288698623" lon="12.2472063550909"><ele>6.142857142857142</ele><time>2026-04-12T13:29:14Z</time></trkpt><trkpt lat="44.66384127542342" lon="12.247185707634449"><ele>5.857142857142858</ele><time>2026-04-12T13:29:16Z</time></trkpt><trkpt lat="44.663915926658" lon="12.247171540066608"><ele>5.571428571428571</ele><time>2026-04-12T13:29:18Z</time></trkpt><trkpt lat="44.66398885044087" lon="12.24716162514599"><ele>5.285714285714286</ele><time>2026-04-12T13:29:20Z</time></trkpt><trkpt lat="44.664055756487556" lon="12.247140707894413"><ele>5.0</ele><time>2026-04-12T13:29:22Z</time></trkpt><trkpt lat="44.6641255596866" lon="12.247123954074455"><ele>5.0</ele><time>2026-04-12T13:29:24Z</time></trkpt><trkpt lat="44.66419683236748" lon="12.247107499374438"><ele>5.0</ele><time>2026-04-12T13:29:26Z</time></trkpt><trkpt lat="44.66426911558446" lon="12.247087006729306"><ele>5.0</ele><time>2026-04-12T13:29:28Z</time></trkpt><trkpt lat="44.66434252707807" lon="12.247049706623526"><ele>5.0</ele><time>2026-04-12T13:29:30Z</time></trkpt><trkpt lat="44.66442060297043" lon="12.247013956717005"><ele>5.0</ele><time>2026-04-12T13:29:32Z</time></trkpt><trkpt lat="44.66450276582931" lon="12.24700441924454"><ele>5.0</ele><time>2026-04-12T13:29:34Z</time></trkpt><trkpt lat="44.66458679409761" lon="12.246986325533465"><ele>5.0</ele><time>2026-04-12T13:29:36Z</time></trkpt><trkpt lat="44.66467046999841" lon="12.2469689684336"><ele>5.0</ele><time>2026-04-12T13:29:38Z</time></trkpt><trkpt lat="44.66476169864374" lon="12.246950560378666"><ele>5.0</ele><time>2026-04-12T13:29:40Z</time></trkpt><trkpt lat="44.66484159997432" lon="12.246938341579643"><ele>5.0</ele><time>2026-04-12T13:29:42Z</time></trkpt><trkpt lat="44.66491427123802" lon="12.246930370336722"><ele>5.0</ele><time>2026-04-12T13:29:44Z</time></trkpt><trkpt lat="44.6649861343414" lon="12.246908116883032"><ele>5.0</ele><time>2026-04-12T13:29:46Z</time></trkpt><trkpt lat="44.665052686168444" lon="12.246891958081397"><ele>5.0</ele><time>2026-04-12T13:29:48Z</time></trkpt><trkpt lat="44.66516289728304" lon="12.246897607688469"><ele>5.0</ele><time>2026-04-12T13:29:51Z</time></trkpt><trkpt lat="44.665244863491495" lon="12.246871336070907"><ele>5.0</ele><time>2026-04-12T13:29:53Z</time></trkpt><trkpt lat="44.665316472238665" lon="12.246858377622878"><ele>5.0</ele><time>2026-04-12T13:29:55Z</time></trkpt><trkpt lat="44.665410192626545" lon="12.246838817850845"><ele>5.0</ele><time>2026-04-12T13:29:58Z</time></trkpt><trkpt lat="44.66548763061622" lon="12.246813679317126"><ele>5.0</ele><time>2026-04-12T13:30:00Z</time></trkpt><trkpt lat="44.66561117258427" lon="12.246796642043122"><ele>5.142857142857142</ele><time>2026-04-12T13:30:03Z</time></trkpt><trkpt lat="44.66568986555276" lon="12.246776003390274"><ele>5.285714285714286</ele><time>2026-04-12T13:30:05Z</time></trkpt><trkpt lat="44.66576148576307" lon="12.24674909706125"><ele>5.428571428571429</ele><time>2026-04-12T13:30:07Z</time></trkpt><trkpt lat="44.66583099243925" lon="12.24673638301815"><ele>5.571428571428571</ele><time>2026-04-12T13:30:09Z</time></trkpt><trkpt lat="44.6658984396051" lon="12.246714876398766"><ele>5.714285714285714</ele><time>2026-04-12T13:30:11Z</time></trkpt><trkpt lat="44.665962775449515" lon="12.246700982866617"><ele>5.857142857142857</ele><time>2026-04-12T13:30:13Z</time></trkpt><trkpt lat="44.66603632165599" lon="12.246687960859527"><ele>6.0</ele><time>2026-04-12T13:30:15Z</time></trkpt><trkpt lat="44.666116737802696" lon="12.246702010179467"><ele>6.0</ele><time>2026-04-12T13:30:17Z</time></trkpt><trkpt lat="44.66623440200714" lon="12.246718846377787"><ele>6.0</ele><time>2026-04-12T13:30:20Z</time></trkpt><trkpt lat="44.66632129724684" lon="12.246710006156365"><ele>6.0</ele><time>2026-04-12T13:30:22Z</time></trkpt><trkpt lat="44.66640775628272" lon="12.246690150756308"><ele>6.0</ele><time>2026-04-12T13:30:24Z</time></trkpt><trkpt lat="44.66648513797064" lon="12.246660548823685"><ele>6.0</ele><time>2026-04-12T13:30:26Z</time></trkpt><trkpt lat="44.66656700821608" lon="12.246653820605857"><ele>6.0</ele><time>2026-04-12T13:30:28Z</time></trkpt><trkpt lat="44.66673650421765" lon="12.246672994855675"><ele>6.0</ele><time>2026-04-12T13:30:32Z</time></trkpt><trkpt lat="44.6668080527289" lon="12.24667286886041"><ele>6.0</ele><time>2026-04-12T13:30:34Z</time></trkpt><trkpt lat="44.66691639380779" lon="12.246632864748465"><ele>6.0</ele><time>2026-04-12T13:30:36Z</time></trkpt><trkpt lat="44.66696584784539" lon="12.246750419658747"><ele>5.833333333333333</ele><time>2026-04-12T13:30:37Z</time></trkpt><trkpt lat="44.66705186561722" lon="12.246738826573571"><ele>5.666666666666667</ele><time>2026-04-12T13:30:39Z</time></trkpt><trkpt lat="44.667134457982726" lon="12.246727695130907"><ele>5.5</ele><time>2026-04-12T13:30:41Z</time></trkpt><trkpt lat="44.66720297391397" lon="12.246719495947529"><ele>5.333333333333334</ele><time>2026-04-12T13:30:43Z</time></trkpt><trkpt lat="44.66727490040775" lon="12.246714686489755"><ele>5.166666666666667</ele><time>2026-04-12T13:30:45Z</time></trkpt><trkpt lat="44.66735044211992" lon="12.246712554733378"><ele>5.0</ele><time>2026-04-12T13:30:47Z</time></trkpt><trkpt lat="44.66743795091038" lon="12.246528144932608"><ele>5.0</ele><time>2026-04-12T13:30:49Z</time></trkpt><trkpt lat="44.66752078830906" lon="12.246529811025159"><ele>5.0</ele><time>2026-04-12T13:30:51Z</time></trkpt><trkpt lat="44.667599586595784" lon="12.246526576089103"><ele>5.0</ele><time>2026-04-12T13:30:53Z</time></trkpt><trkpt lat="44.66767532389515" lon="12.246532054522081"><ele>5.0</ele><time>2026-04-12T13:30:55Z</time></trkpt><trkpt lat="44.667759783167234" lon="12.246529574347358"><ele>5.0</ele><time>2026-04-12T13:30:57Z</time></trkpt><trkpt lat="44.66783776966262" lon="12.246521016188801"><ele>5.0</ele><time>2026-04-12T13:30:59Z</time></trkpt><trkpt lat="44.667916389779876" lon="12.24651396018321"><ele>4.833333333333334</ele><time>2026-04-12T13:31:01Z</time></trkpt><trkpt lat="44.66800875305193" lon="12.246483721782404"><ele>4.666666666666667</ele><time>2026-04-12T13:31:03Z</time></trkpt><trkpt lat="44.668063311942475" lon="12.246588795291304"><ele>4.5</ele><time>2026-04-12T13:31:04Z</time></trkpt><trkpt lat="44.66813879809927" lon="12.246571536666297"><ele>4.333333333333333</ele><time>2026-04-12T13:31:06Z</time></trkpt><trkpt lat="44.66822278669334" lon="12.246553166204107"><ele>4.166666666666666</ele><time>2026-04-12T13:31:08Z</time></trkpt><trkpt lat="44.66831167650942" lon="12.246532611055594"><ele>4.0</ele><time>2026-04-12T13:31:10Z</time></trkpt><trkpt lat="44.66839891032103" lon="12.246514554254986"><ele>3.9999999999999996</ele><time>2026-04-12T13:31:12Z</time></trkpt><trkpt lat="44.668482551399826" lon="12.246497241114897"><ele>4.0</ele><time>2026-04-12T13:31:14Z</time></trkpt><trkpt lat="44.66851411292324" lon="12.246384467768365"><ele>4.0</ele><time>2026-04-12T13:31:15Z</time></trkpt><trkpt lat="44.668587062559986" lon="12.246362367065926"><ele>4.0</ele><time>2026-04-12T13:31:17Z</time></trkpt><trkpt lat="44.66865210876983" lon="12.246345803103205"><ele>3.9999999999999996</ele><time>2026-04-12T13:31:20Z</time></trkpt><trkpt lat="44.668748988316125" lon="12.246326690964604"><ele>4.0</ele><time>2026-04-12T13:31:23Z</time></trkpt><trkpt lat="44.66882481085889" lon="12.246456110097764"><ele>4.166666666666666</ele><time>2026-04-12T13:31:25Z</time></trkpt><trkpt lat="44.66890221114793" lon="12.246452668944272"><ele>4.333333333333333</ele><time>2026-04-12T13:31:27Z</time></trkpt><trkpt lat="44.66898876823503" lon="12.246448044073201"><ele>4.5</ele><time>2026-04-12T13:31:29Z</time></trkpt><trkpt lat="44.66907599637917" lon="12.246443047457547"><ele>4.666666666666667</ele><time>2026-04-12T13:31:31Z</time></trkpt><trkpt lat="44.669156835710275" lon="12.246437696863675"><ele>4.833333333333334</ele><time>2026-04-12T13:31:33Z</time></trkpt><trkpt lat="44.66923283698082" lon="12.24643249357559"><ele>5.0</ele><time>2026-04-12T13:31:35Z</time></trkpt><trkpt lat="44.669310035917675" lon="12.246427208303851"><ele>5.0</ele><time>2026-04-12T13:31:37Z</time></trkpt><trkpt lat="44.66938178928408" lon="12.246424069494342"><ele>5.0</ele><time>2026-04-12T13:31:39Z</time></trkpt><trkpt lat="44.669459822199926" lon="12.246419863187292"><ele>5.0</ele><time>2026-04-12T13:31:41Z</time></trkpt><trkpt lat="44.66954187002319" lon="12.246415440456861"><ele>5.0</ele><time>2026-04-12T13:31:43Z</time></trkpt><trkpt lat="44.669625031503436" lon="12.246409360936262"><ele>5.0</ele><time>2026-04-12T13:31:45Z</time></trkpt><trkpt lat="44.66970087599408" lon="12.246403055293047"><ele>5.0</ele><time>2026-04-12T13:31:47Z</time></trkpt><trkpt lat="44.66978390899813" lon="12.246390473453419"><ele>5.0</ele><time>2026-04-12T13:31:49Z</time></trkpt><trkpt lat="44.669850069329925" lon="12.246377168547934"><ele>5.0</ele><time>2026-04-12T13:31:51Z</time></trkpt><trkpt lat="44.66994570062873" lon="12.246354035082526"><ele>5.0</ele><time>2026-04-12T13:31:53Z</time></trkpt><trkpt lat="44.67002330677132" lon="12.246332569001678"><ele>5.0</ele><time>2026-04-12T13:31:55Z</time></trkpt><trkpt lat="44.67009057435423" lon="12.246311700095786"><ele>5.0</ele><time>2026-04-12T13:31:57Z</time></trkpt><trkpt lat="44.67016677176203" lon="12.24628806082327"><ele>5.0</ele><time>2026-04-12T13:31:59Z</time></trkpt><trkpt lat="44.670252886672706" lon="12.246261429444829"><ele>5.142857142857142</ele><time>2026-04-12T13:32:01Z</time></trkpt><trkpt lat="44.670332508312065" lon="12.24623469308849"><ele>5.285714285714286</ele><time>2026-04-12T13:32:03Z</time></trkpt><trkpt lat="44.6704071548071" lon="12.246209095290707"><ele>5.428571428571429</ele><time>2026-04-12T13:32:05Z</time></trkpt><trkpt lat="44.670477501242345" lon="12.246186261054032"><ele>5.571428571428571</ele><time>2026-04-12T13:32:07Z</time></trkpt><trkpt lat="44.67054543635574" lon="12.246164832851084"><ele>5.714285714285714</ele><time>2026-04-12T13:32:09Z</time></trkpt><trkpt lat="44.67061392230389" lon="12.246144132438642"><ele>5.857142857142857</ele><time>2026-04-12T13:32:11Z</time></trkpt><trkpt lat="44.67068854199009" lon="12.24612136827264"><ele>6.0</ele><time>2026-04-12T13:32:13Z</time></trkpt><trkpt lat="44.67077211075655" lon="12.246095698676996"><ele>6.0</ele><time>2026-04-12T13:32:15Z</time></trkpt><trkpt lat="44.670857173430676" lon="12.246069653430997"><ele>6.0</ele><time>2026-04-12T13:32:17Z</time></trkpt><trkpt lat="44.67092901341101" lon="12.246047108879178"><ele>6.0</ele><time>2026-04-12T13:32:19Z</time></trkpt><trkpt lat="44.6710050011298" lon="12.246023025870498"><ele>6.0</ele><time>2026-04-12T13:32:21Z</time></trkpt><trkpt lat="44.67108430349544" lon="12.245999834470494"><ele>6.0</ele><time>2026-04-12T13:32:23Z</time></trkpt><trkpt lat="44.67110543388935" lon="12.245883325433232"><ele>6.0</ele><time>2026-04-12T13:32:24Z</time></trkpt><trkpt lat="44.67118049475105" lon="12.245836620196927"><ele>6.0</ele><time>2026-04-12T13:32:27Z</time></trkpt><trkpt lat="44.671239484890776" lon="12.245802072671898"><ele>6.0</ele><time>2026-04-12T13:32:28Z</time></trkpt><trkpt lat="44.6713312591557" lon="12.245773245211772"><ele>6.0</ele><time>2026-04-12T13:32:30Z</time></trkpt><trkpt lat="44.67141045802882" lon="12.245755422328779"><ele>6.0</ele><time>2026-04-12T13:32:32Z</time></trkpt><trkpt lat="44.671475743057556" lon="12.245734305336091"><ele>6.0</ele><time>2026-04-12T13:32:34Z</time></trkpt><trkpt lat="44.6715441444858" lon="12.245763097592054"><ele>6.0</ele><time>2026-04-12T13:32:36Z</time></trkpt><trkpt lat="44.67162423824814" lon="12.245798151286957"><ele>6.0</ele><time>2026-04-12T13:32:38Z</time></trkpt><trkpt lat="44.67171522467979" lon="12.245817123498338"><ele>6.0</ele><time>2026-04-12T13:32:40Z</time></trkpt><trkpt lat="44.67180325055984" lon="12.245807871613975"><ele>6.0</ele><time>2026-04-12T13:32:42Z</time></trkpt><trkpt lat="44.67189125291636" lon="12.245794733986816"><ele>6.0</ele><time>2026-04-12T13:32:44Z</time></trkpt><trkpt lat="44.671970123538195" lon="12.245734214537448"><ele>6.0</ele><time>2026-04-12T13:32:46Z</time></trkpt><trkpt lat="44.67201881178554" lon="12.245657808041017"><ele>6.0</ele><time>2026-04-12T13:32:48Z</time></trkpt><trkpt lat="44.67208584091296" lon="12.245640047603036"><ele>5.833333333333333</ele><time>2026-04-12T13:32:50Z</time></trkpt><trkpt lat="44.67214084748825" lon="12.24571131289195"><ele>5.666666666666667</ele><time>2026-04-12T13:32:52Z</time></trkpt><trkpt lat="44.672198522099144" lon="12.245752111344625"><ele>5.5</ele><time>2026-04-12T13:32:54Z</time></trkpt><trkpt lat="44.672281164149226" lon="12.245771331774602"><ele>5.333333333333334</ele><time>2026-04-12T13:32:56Z</time></trkpt><trkpt lat="44.67234736433492" lon="12.245799031953734"><ele>5.166666666666667</ele><time>2026-04-12T13:32:58Z</time></trkpt><trkpt lat="44.67242542640198" lon="12.245782325112405"><ele>5.0</ele><time>2026-04-12T13:33:00Z</time></trkpt><trkpt lat="44.67250651807824" lon="12.245758615976452"><ele>5.0</ele><time>2026-04-12T13:33:02Z</time></trkpt><trkpt lat="44.67258074945801" lon="12.245744912630808"><ele>5.0</ele><time>2026-04-12T13:33:04Z</time></trkpt><trkpt lat="44.672649159125385" lon="12.245736315185882"><ele>5.0</ele><time>2026-04-12T13:33:06Z</time></trkpt><trkpt lat="44.672724474986005" lon="12.245721814009507"><ele>5.0</ele><time>2026-04-12T13:33:08Z</time></trkpt><trkpt lat="44.67278942092934" lon="12.245703366326977"><ele>5.0</ele><time>2026-04-12T13:33:10Z</time></trkpt><trkpt lat="44.67285603215486" lon="12.245680645345564"><ele>5.0</ele><time>2026-04-12T13:33:12Z</time></trkpt><trkpt lat="44.67292113251902" lon="12.245674547924494"><ele>5.0</ele><time>2026-04-12T13:33:14Z</time></trkpt><trkpt lat="44.67299107952406" lon="12.245659030052163"><ele>4.666666666666667</ele><time>2026-04-12T13:33:16Z</time></trkpt><trkpt lat="44.673059689978544" lon="12.245649709248365"><ele>4.333333333333334</ele><time>2026-04-12T13:33:18Z</time></trkpt><trkpt lat="44.67314911746702" lon="12.245636042194512"><ele>4.0</ele><time>2026-04-12T13:33:21Z</time></trkpt><trkpt lat="44.67321285050856" lon="12.245560449848497"><ele>3.666666666666667</ele><time>2026-04-12T13:33:24Z</time></trkpt><trkpt lat="44.6732233834217" lon="12.24545617348192"><ele>3.3333333333333335</ele><time>2026-04-12T13:33:27Z</time></trkpt><trkpt lat="44.673215317102624" lon="12.245347143196549"><ele>3.0</ele><time>2026-04-12T13:33:30Z</time></trkpt><trkpt lat="44.67321045840344" lon="12.245252811605681"><ele>3.666666666666667</ele><time>2026-04-12T13:33:32Z</time></trkpt><trkpt lat="44.67321474397509" lon="12.245150985470971"><ele>4.333333333333334</ele><time>2026-04-12T13:33:34Z</time></trkpt><trkpt lat="44.673213684472465" lon="12.245036852167555"><ele>5.0</ele><time>2026-04-12T13:33:36Z</time></trkpt><trkpt lat="44.67320693770037" lon="12.244922196084156"><ele>5.666666666666667</ele><time>2026-04-12T13:33:38Z</time></trkpt><trkpt lat="44.67320929280486" lon="12.244803586142009"><ele>6.333333333333334</ele><time>2026-04-12T13:33:40Z</time></trkpt><trkpt lat="44.673200891015334" lon="12.244685479445128"><ele>7.0</ele><time>2026-04-12T13:33:42Z</time></trkpt><trkpt lat="44.67320405325343" lon="12.244572346304034"><ele>7.142857142857142</ele><time>2026-04-12T13:33:43.999Z</time></trkpt><trkpt lat="44.67319973057119" lon="12.244472259641622"><ele>7.285714285714286</ele><time>2026-04-12T13:33:45.999Z</time></trkpt><trkpt lat="44.67321120910537" lon="12.244361689309954"><ele>7.428571428571429</ele><time>2026-04-12T13:33:47.999Z</time></trkpt><trkpt lat="44.673214321247954" lon="12.24425506099841"><ele>7.571428571428571</ele><time>2026-04-12T13:33:49.999Z</time></trkpt><trkpt lat="44.67321672320788" lon="12.24415481495311"><ele>7.7142857142857135</ele><time>2026-04-12T13:33:51.999Z</time></trkpt><trkpt lat="44.6732087909147" lon="12.244060596814796"><ele>7.857142857142857</ele><time>2026-04-12T13:33:53.999Z</time></trkpt><trkpt lat="44.67325034414331" lon="12.243991098268182"><ele>8.0</ele><time>2026-04-12T13:33:56Z</time></trkpt><trkpt lat="44.67342652577491" lon="12.243966809596447"><ele>7.666666666666666</ele><time>2026-04-12T13:34:02Z</time></trkpt><trkpt lat="44.67349793208122" lon="12.243958008471536"><ele>7.333333333333333</ele><time>2026-04-12T13:34:04Z</time></trkpt><trkpt lat="44.673585301712315" lon="12.243939739060542"><ele>7.0</ele><time>2026-04-12T13:34:06Z</time></trkpt><trkpt lat="44.67365447492147" lon="12.243919067185132"><ele>6.666666666666666</ele><time>2026-04-12T13:34:08Z</time></trkpt><trkpt lat="44.67372427217667" lon="12.243907675656892"><ele>6.333333333333333</ele><time>2026-04-12T13:34:10Z</time></trkpt><trkpt lat="44.673801733987595" lon="12.243898446252105"><ele>6.0</ele><time>2026-04-12T13:34:12Z</time></trkpt><trkpt lat="44.673884534953395" lon="12.243887162959341"><ele>5.666666666666667</ele><time>2026-04-12T13:34:14Z</time></trkpt><trkpt lat="44.67395994034649" lon="12.243880979282531"><ele>5.333333333333333</ele><time>2026-04-12T13:34:16Z</time></trkpt><trkpt lat="44.67404277407696" lon="12.243856734179182"><ele>5.0</ele><time>2026-04-12T13:34:18Z</time></trkpt><trkpt lat="44.6741120120522" lon="12.243841485288588"><ele>4.666666666666666</ele><time>2026-04-12T13:34:20Z</time></trkpt><trkpt lat="44.6741975433995" lon="12.243826141937133"><ele>4.333333333333333</ele><time>2026-04-12T13:34:22Z</time></trkpt><trkpt lat="44.67428465628201" lon="12.243812387666221"><ele>4.0</ele><time>2026-04-12T13:34:24Z</time></trkpt><trkpt lat="44.67437213907557" lon="12.24379528791749"><ele>3.833333333333333</ele><time>2026-04-12T13:34:26Z</time></trkpt><trkpt lat="44.67444110797294" lon="12.243801932415824"><ele>3.6666666666666665</ele><time>2026-04-12T13:34:28Z</time></trkpt><trkpt lat="44.67451571090881" lon="12.24376650853953"><ele>3.5</ele><time>2026-04-12T13:34:30Z</time></trkpt><trkpt lat="44.674602296909804" lon="12.24374970395571"><ele>3.333333333333333</ele><time>2026-04-12T13:34:32Z</time></trkpt><trkpt lat="44.67467536667448" lon="12.243735097320481"><ele>3.1666666666666665</ele><time>2026-04-12T13:34:34Z</time></trkpt><trkpt lat="44.674745048345926" lon="12.243738168298545"><ele>3.0</ele><time>2026-04-12T13:34:36Z</time></trkpt><trkpt lat="44.67481434359702" lon="12.243693318933834"><ele>2.9999999999999996</ele><time>2026-04-12T13:34:38Z</time></trkpt><trkpt lat="44.67487067960004" lon="12.243630427141388"><ele>3.0</ele><time>2026-04-12T13:34:40Z</time></trkpt><trkpt lat="44.674886437712175" lon="12.243530869602356"><ele>3.0</ele><time>2026-04-12T13:34:42Z</time></trkpt><trkpt lat="44.67488987348773" lon="12.24342797525232"><ele>3.0</ele><time>2026-04-12T13:34:44Z</time></trkpt><trkpt lat="44.6748818758686" lon="12.243330337440316"><ele>3.0</ele><time>2026-04-12T13:34:46Z</time></trkpt><trkpt lat="44.67486484698745" lon="12.243242615440257"><ele>2.9999999999999996</ele><time>2026-04-12T13:34:48Z</time></trkpt><trkpt lat="44.67484882980909" lon="12.24315372664319"><ele>3.0</ele><time>2026-04-12T13:34:50Z</time></trkpt><trkpt lat="44.67483361295527" lon="12.243026242188128"><ele>3.0</ele><time>2026-04-12T13:34:53Z</time></trkpt><trkpt lat="44.67481437910875" lon="12.242900972539116"><ele>3.0</ele><time>2026-04-12T13:34:56Z</time></trkpt><trkpt lat="44.67479987820001" lon="12.242775202711199"><ele>3.0</ele><time>2026-04-12T13:34:59Z</time></trkpt><trkpt lat="44.67476246803222" lon="12.242669832224783"><ele>3.0</ele><time>2026-04-12T13:35:02Z</time></trkpt><trkpt lat="44.67473663361409" lon="12.242574870714638"><ele>3.0</ele><time>2026-04-12T13:35:05Z</time></trkpt><trkpt lat="44.674741601386074" lon="12.242470482027105"><ele>3.0</ele><time>2026-04-12T13:35:09Z</time></trkpt><trkpt lat="44.67474617535111" lon="12.24238009186558"><ele>2.9999999999999996</ele><time>2026-04-12T13:35:13Z</time></trkpt><trkpt lat="44.67480908414997" lon="12.242370242147178"><ele>3.0</ele><time>2026-04-12T13:36:04Z</time></trkpt><trkpt lat="44.674882986145" lon="12.242362742835159"><ele>3.0</ele><time>2026-04-12T13:37:11Z</time></trkpt><trkpt lat="44.674940595332586" lon="12.242399363753943"><ele>3.0</ele><time>2026-04-12T13:37:22Z</time></trkpt><trkpt lat="44.675006906968925" lon="12.24239926851367"><ele>3.0</ele><time>2026-04-12T13:37:29Z</time></trkpt><trkpt lat="44.67506894797515" lon="12.242361939659125"><ele>2.9999999999999996</ele><time>2026-04-12T13:37:35.999Z</time></trkpt><trkpt lat="44.675124561697906" lon="12.242313410003295"><ele>3.0</ele><time>2026-04-12T13:37:41.999Z</time></trkpt><trkpt lat="44.67517907141159" lon="12.242267009168186"><ele>2.8571428571428568</ele><time>2026-04-12T13:37:47.999Z</time></trkpt><trkpt lat="44.67524903729524" lon="12.242243408729626"><ele>2.7142857142857144</ele><time>2026-04-12T13:37:54.999Z</time></trkpt><trkpt lat="44.67531231687142" lon="12.242252185720185"><ele>2.571428571428571</ele><time>2026-04-12T13:38:04.999Z</time></trkpt><trkpt lat="44.67537484475373" lon="12.242234006939043"><ele>2.4285714285714284</ele><time>2026-04-12T13:38:38Z</time></trkpt><trkpt lat="44.675438098792824" lon="12.242228872746612"><ele>2.2857142857142856</ele><time>2026-04-12T13:38:46Z</time></trkpt><trkpt lat="44.675442770192234" lon="12.24213869049402"><ele>2.142857142857143</ele><time>2026-04-12T13:38:53Z</time></trkpt><trkpt lat="44.67543793340101" lon="12.242041576504834"><ele>2.0</ele><time>2026-04-12T13:39:07Z</time></trkpt><trkpt lat="44.67542633036211" lon="12.241954260025793"><ele>2.0</ele><time>2026-04-12T13:39:14Z</time></trkpt><trkpt lat="44.67538531743268" lon="12.241882090502024"><ele>1.9999999999999998</ele><time>2026-04-12T13:39:22Z</time></trkpt><trkpt lat="44.67537560320737" lon="12.241784089492189"><ele>2.0</ele><time>2026-04-12T13:39:30Z</time></trkpt><trkpt lat="44.6754076349402" lon="12.241693164504891"><ele>2.0</ele><time>2026-04-12T13:40:00.999Z</time></trkpt><trkpt lat="44.67539477836888" lon="12.241590073831363"><ele>1.9999999999999998</ele><time>2026-04-12T13:40:04.999Z</time></trkpt><trkpt lat="44.6753825646982" lon="12.241483023177254"><ele>2.0</ele><time>2026-04-12T13:40:08.999Z</time></trkpt><trkpt lat="44.67537321276773" lon="12.24136512752973"><ele>2.0</ele><time>2026-04-12T13:40:13Z</time></trkpt><trkpt lat="44.67536133201817" lon="12.241251588423351"><ele>1.9999999999999998</ele><time>2026-04-12T13:40:16Z</time></trkpt><trkpt lat="44.675352540798286" lon="12.241149615822609"><ele>2.0</ele><time>2026-04-12T13:40:19Z</time></trkpt><trkpt lat="44.67533020921786" lon="12.24103192657322"><ele>2.0</ele><time>2026-04-12T13:40:22Z</time></trkpt><trkpt lat="44.67532502291698" lon="12.24091633427508"><ele>2.0</ele><time>2026-04-12T13:40:25Z</time></trkpt><trkpt lat="44.675310037483925" lon="12.24079387322423"><ele>1.9999999999999998</ele><time>2026-04-12T13:40:28Z</time></trkpt><trkpt lat="44.675299807996055" lon="12.240675544486106"><ele>2.0</ele><time>2026-04-12T13:40:30Z</time></trkpt><trkpt lat="44.67527826546174" lon="12.24055566616032"><ele>1.9999999999999998</ele><time>2026-04-12T13:40:32Z</time></trkpt><trkpt lat="44.67527254190761" lon="12.24043417030807"><ele>2.0</ele><time>2026-04-12T13:40:34Z</time></trkpt><trkpt lat="44.675255502877306" lon="12.240321400080308"><ele>2.0</ele><time>2026-04-12T13:40:36Z</time></trkpt><trkpt lat="44.675257500302415" lon="12.240203187624106"><ele>2.0</ele><time>2026-04-12T13:40:38Z</time></trkpt><trkpt lat="44.67522206176654" lon="12.240118935280712"><ele>1.9999999999999998</ele><time>2026-04-12T13:40:40Z</time></trkpt><trkpt lat="44.67524203890461" lon="12.239975545097188"><ele>2.0</ele><time>2026-04-12T13:40:42Z</time></trkpt><trkpt lat="44.67522309401764" lon="12.239881582424038"><ele>2.0</ele><time>2026-04-12T13:40:44Z</time></trkpt><trkpt lat="44.67522042333072" lon="12.239776125138649"><ele>1.9999999999999998</ele><time>2026-04-12T13:40:46Z</time></trkpt><trkpt lat="44.67521815459085" lon="12.239674353200542"><ele>2.0</ele><time>2026-04-12T13:40:48Z</time></trkpt><trkpt lat="44.67521743967566" lon="12.239570815753433"><ele>2.0</ele><time>2026-04-12T13:40:50Z</time></trkpt><trkpt lat="44.67522346964533" lon="12.239473465463645"><ele>1.9999999999999998</ele><time>2026-04-12T13:40:52Z</time></trkpt><trkpt lat="44.67521835863601" lon="12.239378793198794"><ele>2.0</ele><time>2026-04-12T13:40:54Z</time></trkpt><trkpt lat="44.67521481762451" lon="12.2392766744011"><ele>2.0</ele><time>2026-04-12T13:40:56Z</time></trkpt><trkpt lat="44.67522093823476" lon="12.239156242122199"><ele>1.9999999999999998</ele><time>2026-04-12T13:40:58Z</time></trkpt><trkpt lat="44.6752236473267" lon="12.239029750399448"><ele>2.0</ele><time>2026-04-12T13:41:00Z</time></trkpt><trkpt lat="44.67522929705644" lon="12.238911020584391"><ele>2.0</ele><time>2026-04-12T13:41:02Z</time></trkpt><trkpt lat="44.67523082138097" lon="12.238794069813702"><ele>2.0</ele><time>2026-04-12T13:41:04Z</time></trkpt><trkpt lat="44.67523189710201" lon="12.23867995095963"><ele>1.9999999999999998</ele><time>2026-04-12T13:41:06Z</time></trkpt><trkpt lat="44.6752310767017" lon="12.23856697677779"><ele>2.0</ele><time>2026-04-12T13:41:08Z</time></trkpt><trkpt lat="44.675234830357034" lon="12.238462105300178"><ele>1.9999999999999998</ele><time>2026-04-12T13:41:10Z</time></trkpt><trkpt lat="44.6752281750676" lon="12.238370041662165"><ele>2.0</ele><time>2026-04-12T13:41:12Z</time></trkpt><trkpt lat="44.67524481933164" lon="12.238244211680843"><ele>2.0</ele><time>2026-04-12T13:41:14Z</time></trkpt><trkpt lat="44.675246954173005" lon="12.238107326238957"><ele>2.0</ele><time>2026-04-12T13:41:16Z</time></trkpt><trkpt lat="44.67524393197445" lon="12.23796979430868"><ele>1.9999999999999998</ele><time>2026-04-12T13:41:18Z</time></trkpt><trkpt lat="44.675247348116685" lon="12.237839467521308"><ele>2.0</ele><time>2026-04-12T13:41:20Z</time></trkpt><trkpt lat="44.67525042773334" lon="12.237700402845439"><ele>1.9999999999999998</ele><time>2026-04-12T13:41:22Z</time></trkpt><trkpt lat="44.675258839664195" lon="12.237585110917697"><ele>2.0</ele><time>2026-04-12T13:41:24Z</time></trkpt><trkpt lat="44.675265435627495" lon="12.237466223146305"><ele>2.0</ele><time>2026-04-12T13:41:26Z</time></trkpt><trkpt lat="44.6752828723818" lon="12.237350193987925"><ele>2.0</ele><time>2026-04-12T13:41:28Z</time></trkpt><trkpt lat="44.675296392451656" lon="12.237242048189904"><ele>1.9999999999999998</ele><time>2026-04-12T13:41:29.999Z</time></trkpt><trkpt lat="44.67531771486216" lon="12.237130689959285"><ele>2.0</ele><time>2026-04-12T13:41:31.999Z</time></trkpt><trkpt lat="44.67534027811393" lon="12.237022774923497"><ele>2.333333333333333</ele><time>2026-04-12T13:41:33.999Z</time></trkpt><trkpt lat="44.67536380607378" lon="12.236901382488638"><ele>2.6666666666666665</ele><time>2026-04-12T13:41:35.999Z</time></trkpt><trkpt lat="44.675387574033415" lon="12.236812132332037"><ele>3.0</ele><time>2026-04-12T13:41:37.999Z</time></trkpt><trkpt lat="44.67541667223365" lon="12.23668895487677"><ele>3.333333333333333</ele><time>2026-04-12T13:41:39.999Z</time></trkpt><trkpt lat="44.67544336541183" lon="12.23655797383229"><ele>3.6666666666666665</ele><time>2026-04-12T13:41:41.999Z</time></trkpt><trkpt lat="44.675484941722914" lon="12.236462204073137"><ele>4.0</ele><time>2026-04-12T13:41:43.999Z</time></trkpt><trkpt lat="44.67550005545126" lon="12.236353847154158"><ele>3.9999999999999996</ele><time>2026-04-12T13:41:45.999Z</time></trkpt><trkpt lat="44.67552877877339" lon="12.236251449199314"><ele>4.0</ele><time>2026-04-12T13:41:47.999Z</time></trkpt><trkpt lat="44.67555523557554" lon="12.236148162849702"><ele>4.0</ele><time>2026-04-12T13:41:49.999Z</time></trkpt><trkpt lat="44.67559088739315" lon="12.23604807505575"><ele>4.0</ele><time>2026-04-12T13:41:51.999Z</time></trkpt><trkpt lat="44.67561821915352" lon="12.235937724232146"><ele>3.9999999999999996</ele><time>2026-04-12T13:41:53.999Z</time></trkpt><trkpt lat="44.6756426641913" lon="12.235817699302427"><ele>4.0</ele><time>2026-04-12T13:41:55.999Z</time></trkpt><trkpt lat="44.675665794174314" lon="12.235701939859437"><ele>3.8571428571428568</ele><time>2026-04-12T13:41:57.999Z</time></trkpt><trkpt lat="44.67569488156406" lon="12.235594800964686"><ele>3.714285714285714</ele><time>2026-04-12T13:41:59.999Z</time></trkpt><trkpt lat="44.67572536450493" lon="12.235507738123973"><ele>3.571428571428571</ele><time>2026-04-12T13:42:01.999Z</time></trkpt><trkpt lat="44.67575173311068" lon="12.235399322946279"><ele>3.4285714285714284</ele><time>2026-04-12T13:42:03.999Z</time></trkpt><trkpt lat="44.67576533372418" lon="12.235295793460285"><ele>3.2857142857142856</ele><time>2026-04-12T13:42:05.999Z</time></trkpt><trkpt lat="44.67578548679601" lon="12.235202180129836"><ele>3.1428571428571423</ele><time>2026-04-12T13:42:07.999Z</time></trkpt><trkpt lat="44.675806998758475" lon="12.235109500770784"><ele>3.0</ele><time>2026-04-12T13:42:09.999Z</time></trkpt><trkpt lat="44.6758171310563" lon="12.23501447633619"><ele>3.0</ele><time>2026-04-12T13:42:11.999Z</time></trkpt><trkpt lat="44.6758634264167" lon="12.234924096621581"><ele>3.0</ele><time>2026-04-12T13:42:13.999Z</time></trkpt><trkpt lat="44.67583867847085" lon="12.234820397814692"><ele>3.0</ele><time>2026-04-12T13:42:15.999Z</time></trkpt><trkpt lat="44.675851023336314" lon="12.23471462145955"><ele>3.0</ele><time>2026-04-12T13:42:18Z</time></trkpt><trkpt lat="44.67586066030338" lon="12.23458746162744"><ele>3.0</ele><time>2026-04-12T13:42:20Z</time></trkpt><trkpt lat="44.675859675529324" lon="12.234466958336814"><ele>3.0</ele><time>2026-04-12T13:42:22Z</time></trkpt><trkpt lat="44.67587072829149" lon="12.234354162486245"><ele>3.0</ele><time>2026-04-12T13:42:24Z</time></trkpt><trkpt lat="44.67588189267123" lon="12.23424312454579"><ele>3.0</ele><time>2026-04-12T13:42:26Z</time></trkpt><trkpt lat="44.675886101037996" lon="12.234134280233109"><ele>3.0</ele><time>2026-04-12T13:42:28Z</time></trkpt><trkpt lat="44.675905036133756" lon="12.234031883952253"><ele>3.0</ele><time>2026-04-12T13:42:30Z</time></trkpt><trkpt lat="44.67591994729327" lon="12.233918286021856"><ele>3.0</ele><time>2026-04-12T13:42:32Z</time></trkpt><trkpt lat="44.67593141475873" lon="12.233794457562473"><ele>3.0</ele><time>2026-04-12T13:42:34Z</time></trkpt><trkpt lat="44.675932555150496" lon="12.233660735894803"><ele>3.0</ele><time>2026-04-12T13:42:36Z</time></trkpt><trkpt lat="44.67594631896531" lon="12.233528994782715"><ele>3.0</ele><time>2026-04-12T13:42:38Z</time></trkpt><trkpt lat="44.67596152082772" lon="12.233411565187295"><ele>3.0</ele><time>2026-04-12T13:42:40Z</time></trkpt><trkpt lat="44.675967316133914" lon="12.233290984809392"><ele>3.0</ele><time>2026-04-12T13:42:42Z</time></trkpt><trkpt lat="44.67598314421211" lon="12.233170340421626"><ele>3.0</ele><time>2026-04-12T13:42:44Z</time></trkpt><trkpt lat="44.67600671456806" lon="12.233040352446318"><ele>3.0</ele><time>2026-04-12T13:42:46Z</time></trkpt><trkpt lat="44.676024959993775" lon="12.232909875020905"><ele>2.6</ele><time>2026-04-12T13:42:48Z</time></trkpt><trkpt lat="44.67603756575717" lon="12.232785768913143"><ele>2.1999999999999997</ele><time>2026-04-12T13:42:50Z</time></trkpt><trkpt lat="44.67605170765976" lon="12.23265118474335"><ele>1.8</ele><time>2026-04-12T13:42:52Z</time></trkpt><trkpt lat="44.67605979408026" lon="12.232520120265619"><ele>1.4</ele><time>2026-04-12T13:42:54Z</time></trkpt><trkpt lat="44.67607792825087" lon="12.232398472650411"><ele>1.0</ele><time>2026-04-12T13:42:56Z</time></trkpt><trkpt lat="44.67609500492614" lon="12.232281079164503"><ele>1.2000000000000002</ele><time>2026-04-12T13:42:58Z</time></trkpt><trkpt lat="44.67611047439625" lon="12.232154721230634"><ele>1.4000000000000001</ele><time>2026-04-12T13:43:00Z</time></trkpt><trkpt lat="44.67613212210827" lon="12.232026660917377"><ele>1.6</ele><time>2026-04-12T13:43:02Z</time></trkpt><trkpt lat="44.67614915058607" lon="12.23189197151666"><ele>1.8</ele><time>2026-04-12T13:43:04Z</time></trkpt><trkpt lat="44.67615946110747" lon="12.231756288540184"><ele>2.0</ele><time>2026-04-12T13:43:06Z</time></trkpt><trkpt lat="44.676176704451045" lon="12.231617224314485"><ele>2.0</ele><time>2026-04-12T13:43:08Z</time></trkpt><trkpt lat="44.67619012022974" lon="12.231475446768966"><ele>2.0</ele><time>2026-04-12T13:43:10Z</time></trkpt><trkpt lat="44.67620183688841" lon="12.231338444344559"><ele>2.0</ele><time>2026-04-12T13:43:12Z</time></trkpt><trkpt lat="44.67621255942748" lon="12.231208267948285"><ele>2.0</ele><time>2026-04-12T13:43:14Z</time></trkpt><trkpt lat="44.67622118139915" lon="12.231088798618364"><ele>2.0</ele><time>2026-04-12T13:43:16Z</time></trkpt><trkpt lat="44.676218544777605" lon="12.230965372090644"><ele>2.0</ele><time>2026-04-12T13:43:18Z</time></trkpt><trkpt lat="44.67621310144974" lon="12.230835016786788"><ele>2.0</ele><time>2026-04-12T13:43:20Z</time></trkpt><trkpt lat="44.676207685649445" lon="12.230700751043308"><ele>2.0</ele><time>2026-04-12T13:43:22Z</time></trkpt><trkpt lat="44.67618946278464" lon="12.23056970975975"><ele>2.0</ele><time>2026-04-12T13:43:24Z</time></trkpt><trkpt lat="44.6761736289151" lon="12.230432554625226"><ele>2.0</ele><time>2026-04-12T13:43:25.999Z</time></trkpt><trkpt lat="44.67616099395813" lon="12.230296852056044"><ele>2.0</ele><time>2026-04-12T13:43:27.999Z</time></trkpt><trkpt lat="44.67614644400945" lon="12.230160671955984"><ele>2.0</ele><time>2026-04-12T13:43:29.999Z</time></trkpt><trkpt lat="44.676130216063" lon="12.230040790232817"><ele>2.0</ele><time>2026-04-12T13:43:31.999Z</time></trkpt><trkpt lat="44.67610962555852" lon="12.229909193294151"><ele>2.0</ele><time>2026-04-12T13:43:33.999Z</time></trkpt><trkpt lat="44.67609891850068" lon="12.229779150669705"><ele>2.0</ele><time>2026-04-12T13:43:35.999Z</time></trkpt><trkpt lat="44.67608128401663" lon="12.22964627443757"><ele>2.0</ele><time>2026-04-12T13:43:37.999Z</time></trkpt><trkpt lat="44.676065446396386" lon="12.22951165370147"><ele>2.0</ele><time>2026-04-12T13:43:39.999Z</time></trkpt><trkpt lat="44.676054200823415" lon="12.22936955797113"><ele>2.0</ele><time>2026-04-12T13:43:41.999Z</time></trkpt><trkpt lat="44.67603528466684" lon="12.229229740880022"><ele>2.0</ele><time>2026-04-12T13:43:43.999Z</time></trkpt><trkpt lat="44.67602416085121" lon="12.229095479778588"><ele>2.0</ele><time>2026-04-12T13:43:45.999Z</time></trkpt><trkpt lat="44.676010401871984" lon="12.228964051536872"><ele>2.0</ele><time>2026-04-12T13:43:47.999Z</time></trkpt><trkpt lat="44.6759852859873" lon="12.22883596596192"><ele>2.0</ele><time>2026-04-12T13:43:49.999Z</time></trkpt><trkpt lat="44.67597950794067" lon="12.228701255785202"><ele>2.0</ele><time>2026-04-12T13:43:51.999Z</time></trkpt><trkpt lat="44.67596238013361" lon="12.228564692944941"><ele>2.0</ele><time>2026-04-12T13:43:53.999Z</time></trkpt><trkpt lat="44.67594189327997" lon="12.228424668086335"><ele>2.0</ele><time>2026-04-12T13:43:55.999Z</time></trkpt><trkpt lat="44.67592799217444" lon="12.228290409448203"><ele>1.9999999999999998</ele><time>2026-04-12T13:43:57.999Z</time></trkpt><trkpt lat="44.67591299560385" lon="12.228158480978784"><ele>2.0</ele><time>2026-04-12T13:43:59.999Z</time></trkpt><trkpt lat="44.67590002200944" lon="12.228034096056692"><ele>2.0</ele><time>2026-04-12T13:44:01.999Z</time></trkpt><trkpt lat="44.67588788660846" lon="12.227914769107818"><ele>2.0</ele><time>2026-04-12T13:44:03.999Z</time></trkpt><trkpt lat="44.67587806814469" lon="12.227794731559703"><ele>1.9999999999999998</ele><time>2026-04-12T13:44:05.999Z</time></trkpt><trkpt lat="44.67586123598114" lon="12.227666003437669"><ele>2.0</ele><time>2026-04-12T13:44:07.999Z</time></trkpt><trkpt lat="44.67584766189794" lon="12.227541650788112"><ele>2.0</ele><time>2026-04-12T13:44:09.999Z</time></trkpt><trkpt lat="44.67583891777746" lon="12.227446972103474"><ele>2.0</ele><time>2026-04-12T13:44:10.999Z</time></trkpt><trkpt lat="44.675819229139684" lon="12.22732946221106"><ele>2.0</ele><time>2026-04-12T13:44:12.999Z</time></trkpt><trkpt lat="44.67580110328247" lon="12.227191032604773"><ele>2.0</ele><time>2026-04-12T13:44:14.999Z</time></trkpt><trkpt lat="44.675793157350945" lon="12.227055452520814"><ele>2.0</ele><time>2026-04-12T13:44:16.999Z</time></trkpt><trkpt lat="44.67577428988454" lon="12.22690366568541"><ele>1.9999999999999998</ele><time>2026-04-12T13:44:18.999Z</time></trkpt><trkpt lat="44.67576921282776" lon="12.22676979242448"><ele>2.0</ele><time>2026-04-12T13:44:20.999Z</time></trkpt><trkpt lat="44.675776111127995" lon="12.226641460987977"><ele>2.0</ele><time>2026-04-12T13:44:22.999Z</time></trkpt><trkpt lat="44.67577146433041" lon="12.226512417618395"><ele>2.0</ele><time>2026-04-12T13:44:25Z</time></trkpt><trkpt lat="44.67582705150305" lon="12.226450658644634"><ele>1.9999999999999998</ele><time>2026-04-12T13:44:26Z</time></trkpt><trkpt lat="44.67583845171281" lon="12.226334770726925"><ele>2.0</ele><time>2026-04-12T13:44:28Z</time></trkpt><trkpt lat="44.675814814630186" lon="12.22622346644172"><ele>1.8333333333333333</ele><time>2026-04-12T13:44:30Z</time></trkpt><trkpt lat="44.67575351361692" lon="12.226161041152869"><ele>1.6666666666666665</ele><time>2026-04-12T13:44:32Z</time></trkpt><trkpt lat="44.67577759407693" lon="12.226071785876453"><ele>1.5</ele><time>2026-04-12T13:44:33Z</time></trkpt><trkpt lat="44.675781288003094" lon="12.22596359610043"><ele>1.3333333333333333</ele><time>2026-04-12T13:44:35Z</time></trkpt><trkpt lat="44.6758132102301" lon="12.225870133802257"><ele>1.1666666666666665</ele><time>2026-04-12T13:44:37Z</time></trkpt><trkpt lat="44.67581754753412" lon="12.22573444221818"><ele>1.0</ele><time>2026-04-12T13:44:40Z</time></trkpt><trkpt lat="44.67583559320197" lon="12.225623546809013"><ele>0.9999999999999999</ele><time>2026-04-12T13:44:43Z</time></trkpt><trkpt lat="44.67584111086977" lon="12.225485580850082"><ele>1.0</ele><time>2026-04-12T13:44:46Z</time></trkpt><trkpt lat="44.67584959202519" lon="12.225384717847062"><ele>1.0</ele><time>2026-04-12T13:44:48Z</time></trkpt><trkpt lat="44.67585725366469" lon="12.225277566805719"><ele>1.0</ele><time>2026-04-12T13:44:50Z</time></trkpt><trkpt lat="44.67587225664719" lon="12.225162781181542"><ele>0.9999999999999999</ele><time>2026-04-12T13:44:52Z</time></trkpt><trkpt lat="44.67588577043731" lon="12.225051345598418"><ele>1.0</ele><time>2026-04-12T13:44:54Z</time></trkpt><trkpt lat="44.67589741727436" lon="12.224945282884896"><ele>1.0</ele><time>2026-04-12T13:44:56Z</time></trkpt><trkpt lat="44.675906582552464" lon="12.224845353316432"><ele>0.9999999999999999</ele><time>2026-04-12T13:44:58Z</time></trkpt><trkpt lat="44.6759147251091" lon="12.224745178745875"><ele>1.0</ele><time>2026-04-12T13:45:00Z</time></trkpt><trkpt lat="44.67592596084173" lon="12.224652534281422"><ele>1.0</ele><time>2026-04-12T13:45:02Z</time></trkpt><trkpt lat="44.675934997870804" lon="12.224561317269599"><ele>0.9999999999999999</ele><time>2026-04-12T13:45:04Z</time></trkpt><trkpt lat="44.67594157721468" lon="12.22446603582341"><ele>1.0</ele><time>2026-04-12T13:45:06Z</time></trkpt><trkpt lat="44.67595594930256" lon="12.224356001662468"><ele>1.0</ele><time>2026-04-12T13:45:08Z</time></trkpt><trkpt lat="44.6759754129097" lon="12.224241708761946"><ele>0.9999999999999999</ele><time>2026-04-12T13:45:10Z</time></trkpt><trkpt lat="44.675980393376584" lon="12.224119506005026"><ele>1.0</ele><time>2026-04-12T13:45:12Z</time></trkpt><trkpt lat="44.67598359205831" lon="12.223996448005838"><ele>1.0</ele><time>2026-04-12T13:45:14Z</time></trkpt><trkpt lat="44.675996180054895" lon="12.223882870946635"><ele>1.0</ele><time>2026-04-12T13:45:16Z</time></trkpt><trkpt lat="44.6760169734776" lon="12.22375515258611"><ele>0.9999999999999999</ele><time>2026-04-12T13:45:18Z</time></trkpt><trkpt lat="44.67603308416759" lon="12.223621634520645"><ele>1.0</ele><time>2026-04-12T13:45:20Z</time></trkpt><trkpt lat="44.676046707609196" lon="12.223483060049285"><ele>1.0</ele><time>2026-04-12T13:45:22Z</time></trkpt><trkpt lat="44.67605762752372" lon="12.223353001098026"><ele>1.0</ele><time>2026-04-12T13:45:23.999Z</time></trkpt><trkpt lat="44.67606945731905" lon="12.22322762887114"><ele>1.0</ele><time>2026-04-12T13:45:25.999Z</time></trkpt><trkpt lat="44.67608560917825" lon="12.223101578395603"><ele>1.0</ele><time>2026-04-12T13:45:27.999Z</time></trkpt><trkpt lat="44.67610797757949" lon="12.222976238243517"><ele>1.0</ele><time>2026-04-12T13:45:29.999Z</time></trkpt><trkpt lat="44.67610965480662" lon="12.222839840335807"><ele>0.8333333333333333</ele><time>2026-04-12T13:45:31.999Z</time></trkpt><trkpt lat="44.676124082421914" lon="12.22272020610229"><ele>0.6666666666666666</ele><time>2026-04-12T13:45:33.999Z</time></trkpt><trkpt lat="44.676135758330055" lon="12.222605473606993"><ele>0.5</ele><time>2026-04-12T13:45:35.999Z</time></trkpt><trkpt lat="44.67614570978799" lon="12.222494252247195"><ele>0.3333333333333333</ele><time>2026-04-12T13:45:37.999Z</time></trkpt><trkpt lat="44.676157151129296" lon="12.222389708001344"><ele>0.16666666666666666</ele><time>2026-04-12T13:45:39.999Z</time></trkpt><trkpt lat="44.67616405146337" lon="12.222284730816343"><ele>0.0</ele><time>2026-04-12T13:45:41.999Z</time></trkpt><trkpt lat="44.676181462468854" lon="12.222178106760548"><ele>-0.6</ele><time>2026-04-12T13:45:43.999Z</time></trkpt><trkpt lat="44.67619433497128" lon="12.222054722481989"><ele>-1.2</ele><time>2026-04-12T13:45:45.999Z</time></trkpt><trkpt lat="44.676207231629206" lon="12.221930365595101"><ele>-1.7999999999999998</ele><time>2026-04-12T13:45:47.999Z</time></trkpt><trkpt lat="44.67622346751252" lon="12.221797150068532"><ele>-2.4</ele><time>2026-04-12T13:45:49.999Z</time></trkpt><trkpt lat="44.67624007339151" lon="12.221654878784323"><ele>-3.0</ele><time>2026-04-12T13:45:51.999Z</time></trkpt><trkpt lat="44.67625406706132" lon="12.221503308793494"><ele>-2.75</ele><time>2026-04-12T13:45:53.999Z</time></trkpt><trkpt lat="44.676271028020686" lon="12.221345102660484"><ele>-2.5</ele><time>2026-04-12T13:45:55.999Z</time></trkpt><trkpt lat="44.67628626118011" lon="12.221180421300051"><ele>-2.25</ele><time>2026-04-12T13:45:57.999Z</time></trkpt><trkpt lat="44.676302837618756" lon="12.221021161099022"><ele>-2.0</ele><time>2026-04-12T13:45:59.999Z</time></trkpt><trkpt lat="44.67632821825405" lon="12.220865429858344"><ele>-2.0</ele><time>2026-04-12T13:46:01.999Z</time></trkpt><trkpt lat="44.67636330875899" lon="12.22072012448014"><ele>-2.0</ele><time>2026-04-12T13:46:03.999Z</time></trkpt><trkpt lat="44.676342171579364" lon="12.220567453882335"><ele>-2.0</ele><time>2026-04-12T13:46:05.999Z</time></trkpt><trkpt lat="44.676355567759295" lon="12.22043559122673"><ele>-2.0</ele><time>2026-04-12T13:46:07.999Z</time></trkpt><trkpt lat="44.67636784859924" lon="12.220314707177655"><ele>-2.0</ele><time>2026-04-12T13:46:09.999Z</time></trkpt><trkpt lat="44.676380184926124" lon="12.22019327694977"><ele>-1.8333333333333333</ele><time>2026-04-12T13:46:11.999Z</time></trkpt><trkpt lat="44.676392009988014" lon="12.220076879329739"><ele>-1.6666666666666665</ele><time>2026-04-12T13:46:13.999Z</time></trkpt><trkpt lat="44.676402907152884" lon="12.219969615176577"><ele>-1.5</ele><time>2026-04-12T13:46:15.999Z</time></trkpt><trkpt lat="44.67641357597117" lon="12.219864598845396"><ele>-1.3333333333333333</ele><time>2026-04-12T13:46:17.999Z</time></trkpt><trkpt lat="44.676423391580784" lon="12.21976798076029"><ele>-1.1666666666666665</ele><time>2026-04-12T13:46:19.999Z</time></trkpt><trkpt lat="44.67643419854736" lon="12.219661604350051"><ele>-1.0</ele><time>2026-04-12T13:46:21.999Z</time></trkpt><trkpt lat="44.6764450012437" lon="12.21955527010387"><ele>-0.8333333333333333</ele><time>2026-04-12T13:46:23.999Z</time></trkpt><trkpt lat="44.67645668120125" lon="12.219440300777702"><ele>-0.6666666666666666</ele><time>2026-04-12T13:46:25.999Z</time></trkpt><trkpt lat="44.67646861585843" lon="12.219322824397597"><ele>-0.5</ele><time>2026-04-12T13:46:27.999Z</time></trkpt><trkpt lat="44.67648120724898" lon="12.219198883389797"><ele>-0.3333333333333333</ele><time>2026-04-12T13:46:30Z</time></trkpt><trkpt lat="44.67649420026126" lon="12.219070989152659"><ele>-0.16666666666666666</ele><time>2026-04-12T13:46:32Z</time></trkpt><trkpt lat="44.67650755487718" lon="12.218939535653123"><ele>0.0</ele><time>2026-04-12T13:46:34Z</time></trkpt><trkpt lat="44.67652094069871" lon="12.218808382234903"><ele>0.2</ele><time>2026-04-12T13:46:36Z</time></trkpt><trkpt lat="44.676534022197885" lon="12.218680229424766"><ele>0.4</ele><time>2026-04-12T13:46:38Z</time></trkpt><trkpt lat="44.67654686653066" lon="12.218554398437076"><ele>0.6000000000000001</ele><time>2026-04-12T13:46:40Z</time></trkpt><trkpt lat="44.676559992249445" lon="12.218425810941802"><ele>0.8</ele><time>2026-04-12T13:46:42Z</time></trkpt><trkpt lat="44.67657352455166" lon="12.21829324031222"><ele>1.0</ele><time>2026-04-12T13:46:44Z</time></trkpt><trkpt lat="44.67658752412517" lon="12.218156091751178"><ele>1.0</ele><time>2026-04-12T13:46:46Z</time></trkpt><trkpt lat="44.676601599431024" lon="12.218016741592715"><ele>1.0</ele><time>2026-04-12T13:46:48Z</time></trkpt><trkpt lat="44.67661544641858" lon="12.217879580605835"><ele>1.0</ele><time>2026-04-12T13:46:50Z</time></trkpt><trkpt lat="44.676629486676354" lon="12.21774050535027"><ele>1.0</ele><time>2026-04-12T13:46:52Z</time></trkpt><trkpt lat="44.67664291110813" lon="12.217607530278709"><ele>1.0</ele><time>2026-04-12T13:46:54Z</time></trkpt><trkpt lat="44.67665624683947" lon="12.217475433585962"><ele>1.0</ele><time>2026-04-12T13:46:56Z</time></trkpt><trkpt lat="44.6766688008073" lon="12.217351080484512"><ele>1.0</ele><time>2026-04-12T13:46:58Z</time></trkpt><trkpt lat="44.67668159058124" lon="12.217224392111456"><ele>1.0</ele><time>2026-04-12T13:47:00Z</time></trkpt><trkpt lat="44.676694679512124" lon="12.217094740066818"><ele>1.0</ele><time>2026-04-12T13:47:02Z</time></trkpt><trkpt lat="44.676708118673176" lon="12.216961619018694"><ele>1.0</ele><time>2026-04-12T13:47:04Z</time></trkpt><trkpt lat="44.676721713648966" lon="12.216826954184246"><ele>1.2000000000000002</ele><time>2026-04-12T13:47:06Z</time></trkpt><trkpt lat="44.6767354036765" lon="12.216692686769473"><ele>1.4000000000000001</ele><time>2026-04-12T13:47:08Z</time></trkpt><trkpt lat="44.676749204619604" lon="12.216557545624827"><ele>1.6</ele><time>2026-04-12T13:47:10Z</time></trkpt><trkpt lat="44.67676358050914" lon="12.216416774049515"><ele>1.8</ele><time>2026-04-12T13:47:12Z</time></trkpt><trkpt lat="44.67677790380718" lon="12.216276517813457"><ele>2.0</ele><time>2026-04-12T13:47:13.999Z</time></trkpt><trkpt lat="44.67679187922122" lon="12.216138374827691"><ele>2.0</ele><time>2026-04-12T13:47:15.999Z</time></trkpt><trkpt lat="44.67680553727593" lon="12.21600316017491"><ele>2.0</ele><time>2026-04-12T13:47:17.999Z</time></trkpt><trkpt lat="44.676818296557585" lon="12.215876843166857"><ele>2.0</ele><time>2026-04-12T13:47:19.999Z</time></trkpt><trkpt lat="44.67683062301152" lon="12.215755122198468"><ele>2.0</ele><time>2026-04-12T13:47:21.999Z</time></trkpt><trkpt lat="44.67684391564401" lon="12.215623998219145"><ele>2.0</ele><time>2026-04-12T13:47:23.999Z</time></trkpt><trkpt lat="44.676857276210754" lon="12.21549197640123"><ele>1.8333333333333333</ele><time>2026-04-12T13:47:25.999Z</time></trkpt><trkpt lat="44.67687034834029" lon="12.215362521829961"><ele>1.6666666666666665</ele><time>2026-04-12T13:47:27.999Z</time></trkpt><trkpt lat="44.676883509025295" lon="12.215232190316298"><ele>1.5</ele><time>2026-04-12T13:47:29.999Z</time></trkpt><trkpt lat="44.676896167054515" lon="12.215106836633565"><ele>1.3333333333333333</ele><time>2026-04-12T13:47:31.999Z</time></trkpt><trkpt lat="44.67690841537982" lon="12.21498554030759"><ele>1.1666666666666665</ele><time>2026-04-12T13:47:33.999Z</time></trkpt><trkpt lat="44.67691983849205" lon="12.214872416088578"><ele>1.0</ele><time>2026-04-12T13:47:35.999Z</time></trkpt><trkpt lat="44.67693177200394" lon="12.214754237300495"><ele>0.8333333333333333</ele><time>2026-04-12T13:47:37.999Z</time></trkpt><trkpt lat="44.676943985456035" lon="12.214633286218405"><ele>0.6666666666666666</ele><time>2026-04-12T13:47:39.999Z</time></trkpt><trkpt lat="44.676971874090945" lon="12.214511034526367"><ele>0.5</ele><time>2026-04-12T13:47:41.999Z</time></trkpt><trkpt lat="44.67698544542024" lon="12.214386135833028"><ele>0.3333333333333333</ele><time>2026-04-12T13:47:43.999Z</time></trkpt><trkpt lat="44.67699220500551" lon="12.21426044700572"><ele>0.16666666666666666</ele><time>2026-04-12T13:47:45.999Z</time></trkpt><trkpt lat="44.677008478502735" lon="12.214137165404422"><ele>0.0</ele><time>2026-04-12T13:47:47.999Z</time></trkpt><trkpt lat="44.677019667000984" lon="12.214011197605952"><ele>0.0</ele><time>2026-04-12T13:47:49.999Z</time></trkpt><trkpt lat="44.67703558461312" lon="12.213878708391945"><ele>0.0</ele><time>2026-04-12T13:47:51.999Z</time></trkpt><trkpt lat="44.67704446334585" lon="12.213746037036193"><ele>0.0</ele><time>2026-04-12T13:47:53.999Z</time></trkpt><trkpt lat="44.67705638809004" lon="12.213614559808047"><ele>0.0</ele><time>2026-04-12T13:47:55.999Z</time></trkpt><trkpt lat="44.6770694819524" lon="12.213482746937327"><ele>0.0</ele><time>2026-04-12T13:47:57.999Z</time></trkpt><trkpt lat="44.67708078773873" lon="12.213346369342062"><ele>0.0</ele><time>2026-04-12T13:47:59.999Z</time></trkpt><trkpt lat="44.67709453255785" lon="12.213205958885167"><ele>0.0</ele><time>2026-04-12T13:48:01.999Z</time></trkpt><trkpt lat="44.67710725847534" lon="12.213077637461058"><ele>0.0</ele><time>2026-04-12T13:48:03.999Z</time></trkpt><trkpt lat="44.677122763402984" lon="12.21296267101736"><ele>0.0</ele><time>2026-04-12T13:48:05.999Z</time></trkpt><trkpt lat="44.67713654401508" lon="12.212845618751302"><ele>0.0</ele><time>2026-04-12T13:48:07.999Z</time></trkpt><trkpt lat="44.6771424651577" lon="12.212736045214557"><ele>0.0</ele><time>2026-04-12T13:48:09.999Z</time></trkpt><trkpt lat="44.67715097480888" lon="12.212623414075352"><ele>0.0</ele><time>2026-04-12T13:48:11.999Z</time></trkpt><trkpt lat="44.67717015376233" lon="12.212503707593461"><ele>0.0</ele><time>2026-04-12T13:48:13.999Z</time></trkpt><trkpt lat="44.67718486119616" lon="12.212385461107424"><ele>0.0</ele><time>2026-04-12T13:48:15.999Z</time></trkpt><trkpt lat="44.67719446072107" lon="12.212261097844348"><ele>0.0</ele><time>2026-04-12T13:48:17.999Z</time></trkpt><trkpt lat="44.677206609473274" lon="12.212132314301453"><ele>0.0</ele><time>2026-04-12T13:48:19.999Z</time></trkpt><trkpt lat="44.677208663889914" lon="12.212001443399538"><ele>0.0</ele><time>2026-04-12T13:48:21.999Z</time></trkpt><trkpt lat="44.677253332087226" lon="12.211875652581895"><ele>0.0</ele><time>2026-04-12T13:48:23.999Z</time></trkpt><trkpt lat="44.67726435015825" lon="12.211744414849322"><ele>0.0</ele><time>2026-04-12T13:48:25.999Z</time></trkpt><trkpt lat="44.677272694355906" lon="12.211613064190797"><ele>0.0</ele><time>2026-04-12T13:48:27.999Z</time></trkpt><trkpt lat="44.67728530592751" lon="12.211480671048136"><ele>0.0</ele><time>2026-04-12T13:48:29.999Z</time></trkpt><trkpt lat="44.677293401096684" lon="12.211341980101787"><ele>0.0</ele><time>2026-04-12T13:48:31.999Z</time></trkpt><trkpt lat="44.67730236722399" lon="12.211199722356143"><ele>0.0</ele><time>2026-04-12T13:48:33.999Z</time></trkpt><trkpt lat="44.677318732180176" lon="12.211056946943808"><ele>0.0</ele><time>2026-04-12T13:48:36Z</time></trkpt><trkpt lat="44.67731714301269" lon="12.210909616226576"><ele>0.0</ele><time>2026-04-12T13:48:38Z</time></trkpt><trkpt lat="44.677331153255395" lon="12.210768525377983"><ele>0.0</ele><time>2026-04-12T13:48:40Z</time></trkpt><trkpt lat="44.677345805197305" lon="12.21062097222155"><ele>0.0</ele><time>2026-04-12T13:48:42Z</time></trkpt><trkpt lat="44.677360063888884" lon="12.210477379434062"><ele>-0.2</ele><time>2026-04-12T13:48:44Z</time></trkpt><trkpt lat="44.677374464163464" lon="12.210332360737931"><ele>-0.4</ele><time>2026-04-12T13:48:46Z</time></trkpt><trkpt lat="44.67738916843783" lon="12.210184280433062"><ele>-0.6000000000000001</ele><time>2026-04-12T13:48:48Z</time></trkpt><trkpt lat="44.677403762421164" lon="12.21003731110624"><ele>-0.8</ele><time>2026-04-12T13:48:50Z</time></trkpt><trkpt lat="44.677417556693555" lon="12.209898397214554"><ele>-1.0</ele><time>2026-04-12T13:48:52Z</time></trkpt><trkpt lat="44.67743154097243" lon="12.209759406336115"><ele>-1.6</ele><time>2026-04-12T13:48:54Z</time></trkpt><trkpt lat="44.67744565344465" lon="12.209618701679334"><ele>-2.2</ele><time>2026-04-12T13:48:56Z</time></trkpt><trkpt lat="44.6774591536682" lon="12.209484101730324"><ele>-2.8000000000000003</ele><time>2026-04-12T13:48:58Z</time></trkpt><trkpt lat="44.67747253595355" lon="12.20935067757178"><ele>-3.4000000000000004</ele><time>2026-04-12T13:49:00Z</time></trkpt><trkpt lat="44.677485559579985" lon="12.20922082967408"><ele>-4.0</ele><time>2026-04-12T13:49:02Z</time></trkpt><trkpt lat="44.677498721282156" lon="12.209089604889089"><ele>-4.2</ele><time>2026-04-12T13:49:04Z</time></trkpt><trkpt lat="44.677512134163514" lon="12.208955875916981"><ele>-4.4</ele><time>2026-04-12T13:49:06Z</time></trkpt><trkpt lat="44.6775257799621" lon="12.208819824469884"><ele>-4.6</ele><time>2026-04-12T13:49:08Z</time></trkpt><trkpt lat="44.67753977178414" lon="12.208680323401772"><ele>-4.8</ele><time>2026-04-12T13:49:09.999Z</time></trkpt><trkpt lat="44.677553626017065" lon="12.20854219404667"><ele>-5.0</ele><time>2026-04-12T13:49:11.999Z</time></trkpt><trkpt lat="44.67756643504105" lon="12.208414485395632"><ele>-5.0</ele><time>2026-04-12T13:49:13.999Z</time></trkpt><trkpt lat="44.677580898463546" lon="12.208270282229387"><ele>-5.0</ele><time>2026-04-12T13:49:15.999Z</time></trkpt><trkpt lat="44.67759478504145" lon="12.208131830398255"><ele>-5.0</ele><time>2026-04-12T13:49:17.999Z</time></trkpt><trkpt lat="44.67760843413178" lon="12.207995746832038"><ele>-5.0</ele><time>2026-04-12T13:49:19.999Z</time></trkpt><trkpt lat="44.67762186564247" lon="12.207861831933707"><ele>-5.0</ele><time>2026-04-12T13:49:21.999Z</time></trkpt><trkpt lat="44.677634903048215" lon="12.207731846547826"><ele>-5.0</ele><time>2026-04-12T13:49:23.999Z</time></trkpt><trkpt lat="44.67764831938106" lon="12.207598083005482"><ele>-5.0</ele><time>2026-04-12T13:49:25.999Z</time></trkpt><trkpt lat="44.67766148571612" lon="12.207466812020975"><ele>-5.0</ele><time>2026-04-12T13:49:27.999Z</time></trkpt><trkpt lat="44.677675261206424" lon="12.20732946771601"><ele>-5.0</ele><time>2026-04-12T13:49:29.999Z</time></trkpt><trkpt lat="44.67768889037654" lon="12.20719358216324"><ele>-5.0</ele><time>2026-04-12T13:49:31.999Z</time></trkpt><trkpt lat="44.677702694570556" lon="12.207056782703232"><ele>-5.0</ele><time>2026-04-12T13:49:33.999Z</time></trkpt><trkpt lat="44.67771696396253" lon="12.20691726826211"><ele>-5.0</ele><time>2026-04-12T13:49:35.999Z</time></trkpt><trkpt lat="44.67773152400964" lon="12.206774912018556"><ele>-5.0</ele><time>2026-04-12T13:49:37.999Z</time></trkpt><trkpt lat="44.67774631404744" lon="12.206630307158264"><ele>-5.0</ele><time>2026-04-12T13:49:39.999Z</time></trkpt><trkpt lat="44.67776103880004" lon="12.206486340506654"><ele>-5.0</ele><time>2026-04-12T13:49:41.999Z</time></trkpt><trkpt lat="44.67777581914437" lon="12.206341830419692"><ele>-4.6</ele><time>2026-04-12T13:49:43.999Z</time></trkpt><trkpt lat="44.677790985611054" lon="12.206193545067377"><ele>-4.2</ele><time>2026-04-12T13:49:45.999Z</time></trkpt><trkpt lat="44.67780528173356" lon="12.206053769274668"><ele>-3.8</ele><time>2026-04-12T13:49:47.999Z</time></trkpt><trkpt lat="44.67781996106443" lon="12.205910246810019"><ele>-3.4</ele><time>2026-04-12T13:49:49.999Z</time></trkpt><trkpt lat="44.67783563494513" lon="12.205761605862495"><ele>-3.0</ele><time>2026-04-12T13:49:51.999Z</time></trkpt><trkpt lat="44.67785218357413" lon="12.205611180768715"><ele>-3.0</ele><time>2026-04-12T13:49:53.999Z</time></trkpt><trkpt lat="44.6778724271696" lon="12.205454391849518"><ele>-3.0</ele><time>2026-04-12T13:49:55.999Z</time></trkpt><trkpt lat="44.677894503298596" lon="12.205300558865815"><ele>-3.0</ele><time>2026-04-12T13:49:57.999Z</time></trkpt><trkpt lat="44.67791977034322" lon="12.205149713906664"><ele>-3.0</ele><time>2026-04-12T13:49:59.999Z</time></trkpt><trkpt lat="44.677949712926996" lon="12.204996023218651"><ele>-3.0</ele><time>2026-04-12T13:50:01.999Z</time></trkpt><trkpt lat="44.67798392047554" lon="12.204839981026788"><ele>-3.2</ele><time>2026-04-12T13:50:03.999Z</time></trkpt><trkpt lat="44.678019847704" lon="12.204693555938386"><ele>-3.4</ele><time>2026-04-12T13:50:05.999Z</time></trkpt><trkpt lat="44.678058149645125" lon="12.204551882963779"><ele>-3.6000000000000005</ele><time>2026-04-12T13:50:07.999Z</time></trkpt><trkpt lat="44.67809996282857" lon="12.204410596701383"><ele>-3.8000000000000003</ele><time>2026-04-12T13:50:09.999Z</time></trkpt><trkpt lat="44.67814665185087" lon="12.204270106083243"><ele>-4.0</ele><time>2026-04-12T13:50:11.999Z</time></trkpt><trkpt lat="44.67818937339005" lon="12.204145209450532"><ele>-4.0</ele><time>2026-04-12T13:50:13.999Z</time></trkpt><trkpt lat="44.6782399483601" lon="12.204008388707479"><ele>-4.0</ele><time>2026-04-12T13:50:15.999Z</time></trkpt><trkpt lat="44.67829277404721" lon="12.20387235865507"><ele>-4.0</ele><time>2026-04-12T13:50:17.999Z</time></trkpt><trkpt lat="44.67834878268783" lon="12.20373906634048"><ele>-4.0</ele><time>2026-04-12T13:50:19.999Z</time></trkpt><trkpt lat="44.67840606548616" lon="12.203613445035524"><ele>-4.0</ele><time>2026-04-12T13:50:21.999Z</time></trkpt><trkpt lat="44.67846517418891" lon="12.203490155399807"><ele>-3.75</ele><time>2026-04-12T13:50:23.999Z</time></trkpt><trkpt lat="44.67853586403382" lon="12.203354339205777"><ele>-3.5</ele><time>2026-04-12T13:50:25.999Z</time></trkpt><trkpt lat="44.67860684075099" lon="12.203229241950433"><ele>-3.25</ele><time>2026-04-12T13:50:27.999Z</time></trkpt><trkpt lat="44.67867941092505" lon="12.20310987225197"><ele>-3.0</ele><time>2026-04-12T13:50:29.999Z</time></trkpt><trkpt lat="44.67876075327207" lon="12.202985191081618"><ele>-2.8</ele><time>2026-04-12T13:50:31.999Z</time></trkpt><trkpt lat="44.67883477310531" lon="12.202877121542741"><ele>-2.5999999999999996</ele><time>2026-04-12T13:50:33.999Z</time></trkpt><trkpt lat="44.67891262867455" lon="12.202769390202285"><ele>-2.4000000000000004</ele><time>2026-04-12T13:50:35.999Z</time></trkpt><trkpt lat="44.67899222144583" lon="12.202664051221351"><ele>-2.2</ele><time>2026-04-12T13:50:37.999Z</time></trkpt><trkpt lat="44.679069272435015" lon="12.202563552055942"><ele>-2.0</ele><time>2026-04-12T13:50:39.999Z</time></trkpt><trkpt lat="44.6791614243925" lon="12.202462173275789"><ele>-2.0</ele><time>2026-04-12T13:50:42Z</time></trkpt><trkpt lat="44.67924778722756" lon="12.202369449630618"><ele>-2.0</ele><time>2026-04-12T13:50:44Z</time></trkpt><trkpt lat="44.67933481154812" lon="12.202282628185799"><ele>-2.0</ele><time>2026-04-12T13:50:46Z</time></trkpt><trkpt lat="44.679421457445095" lon="12.202199564875311"><ele>-2.0</ele><time>2026-04-12T13:50:48Z</time></trkpt><trkpt lat="44.679507835602536" lon="12.202118782878728"><ele>-2.0</ele><time>2026-04-12T13:50:50Z</time></trkpt><trkpt lat="44.67959358987119" lon="12.202038584390177"><ele>-2.0</ele><time>2026-04-12T13:50:52Z</time></trkpt><trkpt lat="44.67968174620681" lon="12.201957765166537"><ele>-2.0</ele><time>2026-04-12T13:50:54Z</time></trkpt><trkpt lat="44.67977026114012" lon="12.201876671112716"><ele>-2.0</ele><time>2026-04-12T13:50:56Z</time></trkpt><trkpt lat="44.67985892014488" lon="12.201795445041837"><ele>-2.0</ele><time>2026-04-12T13:50:58Z</time></trkpt><trkpt lat="44.679945105554104" lon="12.201716485289385"><ele>-2.0</ele><time>2026-04-12T13:51:00Z</time></trkpt><trkpt lat="44.680031076723026" lon="12.20163772169645"><ele>-2.0</ele><time>2026-04-12T13:51:02Z</time></trkpt><trkpt lat="44.68011881401757" lon="12.201557340136098"><ele>-2.0</ele><time>2026-04-12T13:51:04Z</time></trkpt><trkpt lat="44.68020726425085" lon="12.201476305352992"><ele>-2.0</ele><time>2026-04-12T13:51:06Z</time></trkpt><trkpt lat="44.68029564965054" lon="12.201395330029607"><ele>-2.0</ele><time>2026-04-12T13:51:08Z</time></trkpt><trkpt lat="44.68038298611123" lon="12.201315315657725"><ele>-2.0</ele><time>2026-04-12T13:51:10Z</time></trkpt><trkpt lat="44.68047158072279" lon="12.20123414859225"><ele>-2.0</ele><time>2026-04-12T13:51:12Z</time></trkpt><trkpt lat="44.68055795179262" lon="12.201155739735409"><ele>-2.0</ele><time>2026-04-12T13:51:14Z</time></trkpt><trkpt lat="44.680642359972225" lon="12.201079112624297"><ele>-2.0</ele><time>2026-04-12T13:51:16Z</time></trkpt><trkpt lat="44.68072573676194" lon="12.2010034219234"><ele>-2.0</ele><time>2026-04-12T13:51:18Z</time></trkpt><trkpt lat="44.68081081940293" lon="12.200926182668056"><ele>-2.0</ele><time>2026-04-12T13:51:19.999Z</time></trkpt><trkpt lat="44.68089218235827" lon="12.20085099975691"><ele>-2.0</ele><time>2026-04-12T13:51:21.999Z</time></trkpt><trkpt lat="44.680975325279434" lon="12.200773596211398"><ele>-2.0</ele><time>2026-04-12T13:51:23.999Z</time></trkpt><trkpt lat="44.68105663352604" lon="12.200697900692704"><ele>-2.0</ele><time>2026-04-12T13:51:25.999Z</time></trkpt><trkpt lat="44.68113942203413" lon="12.20062082715772"><ele>-2.0</ele><time>2026-04-12T13:51:27.999Z</time></trkpt><trkpt lat="44.6812224331846" lon="12.200543546285454"><ele>-2.0</ele><time>2026-04-12T13:51:29.999Z</time></trkpt><trkpt lat="44.68130622011481" lon="12.200465543118558"><ele>-1.8</ele><time>2026-04-12T13:51:31.999Z</time></trkpt><trkpt lat="44.68139047552082" lon="12.200387636289376"><ele>-1.6</ele><time>2026-04-12T13:51:33.999Z</time></trkpt><trkpt lat="44.68147522520409" lon="12.20031076702309"><ele>-1.4000000000000001</ele><time>2026-04-12T13:51:35.999Z</time></trkpt><trkpt lat="44.681553869397405" lon="12.20023237600231"><ele>-1.2000000000000002</ele><time>2026-04-12T13:51:37.999Z</time></trkpt><trkpt lat="44.68163216456953" lon="12.200147380672611"><ele>-1.0</ele><time>2026-04-12T13:51:39.999Z</time></trkpt><trkpt lat="44.68170909772576" lon="12.200057758204478"><ele>-1.0</ele><time>2026-04-12T13:51:41.999Z</time></trkpt><trkpt lat="44.68178359036325" lon="12.199962171206353"><ele>-1.0</ele><time>2026-04-12T13:51:43.999Z</time></trkpt><trkpt lat="44.68185138932898" lon="12.19986414332065"><ele>-1.0</ele><time>2026-04-12T13:51:45.999Z</time></trkpt><trkpt lat="44.68192168624835" lon="12.199761118307402"><ele>-1.0</ele><time>2026-04-12T13:51:47.999Z</time></trkpt><trkpt lat="44.681992196166085" lon="12.19965962802214"><ele>-1.0</ele><time>2026-04-12T13:51:49.999Z</time></trkpt><trkpt lat="44.68206200001928" lon="12.199560548229284"><ele>-1.4</ele><time>2026-04-12T13:51:51.999Z</time></trkpt><trkpt lat="44.68213238122209" lon="12.199460649018862"><ele>-1.8</ele><time>2026-04-12T13:51:53.999Z</time></trkpt><trkpt lat="44.682201198215104" lon="12.199361160271394"><ele>-2.1999999999999997</ele><time>2026-04-12T13:51:55.999Z</time></trkpt><trkpt lat="44.682264974133744" lon="12.199268068947182"><ele>-2.6</ele><time>2026-04-12T13:51:57.999Z</time></trkpt><trkpt lat="44.682327391412926" lon="12.199176960792773"><ele>-3.0</ele><time>2026-04-12T13:51:59.999Z</time></trkpt><trkpt lat="44.68238730933073" lon="12.19908950092411"><ele>-3.0</ele><time>2026-04-12T13:52:01.999Z</time></trkpt><trkpt lat="44.68244517529899" lon="12.199005035831268"><ele>-3.0</ele><time>2026-04-12T13:52:03.999Z</time></trkpt><trkpt lat="44.68250210914373" lon="12.19892193208051"><ele>-3.0</ele><time>2026-04-12T13:52:05.999Z</time></trkpt><trkpt lat="44.682555045885614" lon="12.198844662159946"><ele>-3.0</ele><time>2026-04-12T13:52:07.999Z</time></trkpt><trkpt lat="44.6826064910123" lon="12.198769569790459"><ele>-3.0</ele><time>2026-04-12T13:52:09.999Z</time></trkpt><trkpt lat="44.68266070619994" lon="12.198690169321562"><ele>-3.0</ele><time>2026-04-12T13:52:11.999Z</time></trkpt><trkpt lat="44.68272062967276" lon="12.198602056367156"><ele>-3.0</ele><time>2026-04-12T13:52:13.999Z</time></trkpt><trkpt lat="44.68277895749208" lon="12.198516285221793"><ele>-3.0</ele><time>2026-04-12T13:52:15.999Z</time></trkpt><trkpt lat="44.682832583182574" lon="12.19843742852294"><ele>-3.0</ele><time>2026-04-12T13:52:17.999Z</time></trkpt><trkpt lat="44.68289282088612" lon="12.198348848907685"><ele>-3.0</ele><time>2026-04-12T13:52:19.999Z</time></trkpt><trkpt lat="44.682957393856334" lon="12.198253894359325"><ele>-3.0</ele><time>2026-04-12T13:52:21.999Z</time></trkpt><trkpt lat="44.68302254070078" lon="12.198158095812014"><ele>-3.0</ele><time>2026-04-12T13:52:23.999Z</time></trkpt><trkpt lat="44.6830836418313" lon="12.19806824650383"><ele>-2.8</ele><time>2026-04-12T13:52:25.999Z</time></trkpt><trkpt lat="44.68314370251093" lon="12.197979927140125"><ele>-2.5999999999999996</ele><time>2026-04-12T13:52:27.999Z</time></trkpt><trkpt lat="44.6832081890864" lon="12.197885099510863"><ele>-2.4000000000000004</ele><time>2026-04-12T13:52:29.999Z</time></trkpt><trkpt lat="44.683277319314904" lon="12.197783443474174"><ele>-2.2</ele><time>2026-04-12T13:52:31.999Z</time></trkpt><trkpt lat="44.68334970948167" lon="12.197676993601505"><ele>-2.0</ele><time>2026-04-12T13:52:33.999Z</time></trkpt><trkpt lat="44.68342274953928" lon="12.197569588044187"><ele>-2.0</ele><time>2026-04-12T13:52:35.999Z</time></trkpt><trkpt lat="44.68349222362138" lon="12.197467426355674"><ele>-2.0</ele><time>2026-04-12T13:52:37.999Z</time></trkpt><trkpt lat="44.683557415368256" lon="12.197371561730247"><ele>-2.0</ele><time>2026-04-12T13:52:39.999Z</time></trkpt><trkpt lat="44.68362444645377" lon="12.197272992466692"><ele>-2.0</ele><time>2026-04-12T13:52:41.999Z</time></trkpt><trkpt lat="44.68369309748281" lon="12.197172041147548"><ele>-2.0</ele><time>2026-04-12T13:52:43.999Z</time></trkpt><trkpt lat="44.683761856356" lon="12.19707093100806"><ele>-2.0</ele><time>2026-04-12T13:52:45.999Z</time></trkpt><trkpt lat="44.683826646435136" lon="12.196975657093235"><ele>-2.0</ele><time>2026-04-12T13:52:48Z</time></trkpt><trkpt lat="44.6838889548146" lon="12.196884032597252"><ele>-2.0</ele><time>2026-04-12T13:52:50Z</time></trkpt><trkpt lat="44.68395124189773" lon="12.196792439306973"><ele>-2.0</ele><time>2026-04-12T13:52:52Z</time></trkpt><trkpt lat="44.68401606785323" lon="12.196697112640747"><ele>-2.0</ele><time>2026-04-12T13:52:54Z</time></trkpt><trkpt lat="44.68408237228" lon="12.196600389776481"><ele>-2.0</ele><time>2026-04-12T13:52:56Z</time></trkpt><trkpt lat="44.68414666449542" lon="12.196508077286447"><ele>-2.0</ele><time>2026-04-12T13:52:58Z</time></trkpt><trkpt lat="44.68420810753936" lon="12.196419855668209"><ele>-2.0</ele><time>2026-04-12T13:53:00Z</time></trkpt><trkpt lat="44.68434730468078" lon="12.196462368631769"><ele>-2.0</ele><time>2026-04-12T13:53:02Z</time></trkpt><trkpt lat="44.68441540722649" lon="12.196441413923733"><ele>-2.0</ele><time>2026-04-12T13:53:04Z</time></trkpt><trkpt lat="44.68449371367669" lon="12.196442086588466"><ele>-1.5</ele><time>2026-04-12T13:53:07Z</time></trkpt><trkpt lat="44.68447534149761" lon="12.196241321048158"><ele>-1.0</ele><time>2026-04-12T13:53:08Z</time></trkpt><trkpt lat="44.68458884770073" lon="12.196406094945129"><ele>-0.5</ele><time>2026-04-12T13:53:09Z</time></trkpt><trkpt lat="44.684639705439714" lon="12.196471799241404"><ele>0.0</ele><time>2026-04-12T13:53:13Z</time></trkpt><trkpt lat="44.684698904563284" lon="12.196356257463714"><ele>0.0</ele><time>2026-04-12T13:53:16.999Z</time></trkpt><trkpt lat="44.68465148051708" lon="12.196275275248214"><ele>0.0</ele><time>2026-04-12T13:53:19.999Z</time></trkpt><trkpt lat="44.684612909739734" lon="12.196196314925487"><ele>0.0</ele><time>2026-04-12T13:53:22.999Z</time></trkpt><trkpt lat="44.684546827324674" lon="12.196173807835047"><ele>0.0</ele><time>2026-04-12T13:53:23.999Z</time></trkpt><trkpt lat="44.684526923913324" lon="12.196062395812184"><ele>0.0</ele><time>2026-04-12T13:53:25.999Z</time></trkpt><trkpt lat="44.684597539806035" lon="12.195852016590226"><ele>0.0</ele><time>2026-04-12T13:53:28.999Z</time></trkpt><trkpt lat="44.684652481155645" lon="12.195773108813043"><ele>0.0</ele><time>2026-04-12T13:53:31Z</time></trkpt><trkpt lat="44.68470536539783" lon="12.19569696458015"><ele>0.0</ele><time>2026-04-12T13:53:33Z</time></trkpt><trkpt lat="44.68475924465305" lon="12.195619362735853"><ele>0.0</ele><time>2026-04-12T13:53:35Z</time></trkpt><trkpt lat="44.684811281541506" lon="12.195544132084525"><ele>0.0</ele><time>2026-04-12T13:53:37Z</time></trkpt><trkpt lat="44.68485960568898" lon="12.195474269080893"><ele>0.0</ele><time>2026-04-12T13:53:39Z</time></trkpt><trkpt lat="44.68490653778456" lon="12.195406418478578"><ele>0.0</ele><time>2026-04-12T13:53:41Z</time></trkpt><trkpt lat="44.68495939401392" lon="12.19533000326991"><ele>0.0</ele><time>2026-04-12T13:53:43Z</time></trkpt><trkpt lat="44.685024389175105" lon="12.195236038642566"><ele>0.0</ele><time>2026-04-12T13:53:45Z</time></trkpt><trkpt lat="44.685101507483104" lon="12.195124547388795"><ele>0.0</ele><time>2026-04-12T13:53:47Z</time></trkpt><trkpt lat="44.68516418975988" lon="12.195033926491554"><ele>0.0</ele><time>2026-04-12T13:53:49Z</time></trkpt><trkpt lat="44.68522429133984" lon="12.194947036581654"><ele>0.0</ele><time>2026-04-12T13:53:51Z</time></trkpt><trkpt lat="44.685279275639076" lon="12.194867527553347"><ele>-0.2857142857142857</ele><time>2026-04-12T13:53:53Z</time></trkpt><trkpt lat="44.685329926545364" lon="12.194794207094725"><ele>-0.5714285714285714</ele><time>2026-04-12T13:53:55Z</time></trkpt><trkpt lat="44.68538160768844" lon="12.194719395276909"><ele>-0.8571428571428571</ele><time>2026-04-12T13:53:57Z</time></trkpt><trkpt lat="44.68543583455729" lon="12.194640898410395"><ele>-1.1428571428571428</ele><time>2026-04-12T13:53:59Z</time></trkpt><trkpt lat="44.68548852371395" lon="12.194564627431523"><ele>-1.4285714285714284</ele><time>2026-04-12T13:54:01Z</time></trkpt><trkpt lat="44.68553596566378" lon="12.194495969600572"><ele>-1.7142857142857142</ele><time>2026-04-12T13:54:03Z</time></trkpt><trkpt lat="44.68558223112957" lon="12.194429018653814"><ele>-2.0</ele><time>2026-04-12T13:54:05Z</time></trkpt><trkpt lat="44.685634308132705" lon="12.194353657687971"><ele>-1.9999999999999998</ele><time>2026-04-12T13:54:07Z</time></trkpt><trkpt lat="44.68570020073273" lon="12.194258304170237"><ele>-2.0</ele><time>2026-04-12T13:54:09Z</time></trkpt><trkpt lat="44.68576608734943" lon="12.194162959219495"><ele>-2.0</ele><time>2026-04-12T13:54:11Z</time></trkpt><trkpt lat="44.68582784749951" lon="12.1940735859084"><ele>-2.0</ele><time>2026-04-12T13:54:13Z</time></trkpt><trkpt lat="44.685883983658584" lon="12.193992350949738"><ele>-1.9999999999999998</ele><time>2026-04-12T13:54:15Z</time></trkpt><trkpt lat="44.68593310562643" lon="12.193921265979723"><ele>-2.0</ele><time>2026-04-12T13:54:17Z</time></trkpt><trkpt lat="44.685978942865376" lon="12.193854933110165"><ele>-2.1666666666666665</ele><time>2026-04-12T13:54:19Z</time></trkpt><trkpt lat="44.68602525883792" lon="12.193787050221149"><ele>-2.333333333333333</ele><time>2026-04-12T13:54:21Z</time></trkpt><trkpt lat="44.68607517716812" lon="12.193714371421155"><ele>-2.5</ele><time>2026-04-12T13:54:23Z</time></trkpt><trkpt lat="44.68613298816593" lon="12.193630279597528"><ele>-2.6666666666666665</ele><time>2026-04-12T13:54:25Z</time></trkpt><trkpt lat="44.68619310348487" lon="12.193542862395779"><ele>-2.8333333333333335</ele><time>2026-04-12T13:54:27Z</time></trkpt><trkpt lat="44.68624716806133" lon="12.193464244083534"><ele>-3.0</ele><time>2026-04-12T13:54:29Z</time></trkpt><trkpt lat="44.6862968339061" lon="12.193392021883533"><ele>-3.0</ele><time>2026-04-12T13:54:31Z</time></trkpt><trkpt lat="44.68634847389997" lon="12.193316928989287"><ele>-3.0</ele><time>2026-04-12T13:54:33Z</time></trkpt><trkpt lat="44.68640990805745" lon="12.19322759386877"><ele>-3.0</ele><time>2026-04-12T13:54:35Z</time></trkpt><trkpt lat="44.686465223298455" lon="12.193147156442045"><ele>-3.0</ele><time>2026-04-12T13:54:37Z</time></trkpt><trkpt lat="44.68652073816827" lon="12.19306643028808"><ele>-3.0</ele><time>2026-04-12T13:54:39Z</time></trkpt><trkpt lat="44.68658250003107" lon="12.192975955665675"><ele>-3.0</ele><time>2026-04-12T13:54:42Z</time></trkpt><trkpt lat="44.686637143758006" lon="12.192895969802343"><ele>-3.0</ele><time>2026-04-12T13:54:45Z</time></trkpt><trkpt lat="44.68669238039182" lon="12.192815115881906"><ele>-3.0</ele><time>2026-04-12T13:54:48Z</time></trkpt><trkpt lat="44.68674261928055" lon="12.19274157767033"><ele>-3.0</ele><time>2026-04-12T13:54:51Z</time></trkpt><trkpt lat="44.68679819902889" lon="12.192660221731403"><ele>-3.0</ele><time>2026-04-12T13:54:54.001Z</time></trkpt><trkpt lat="44.68685005197089" lon="12.19258432092716"><ele>-3.0</ele><time>2026-04-12T13:54:56.001Z</time></trkpt><trkpt lat="44.68690886440013" lon="12.192498232997327"><ele>-3.0</ele><time>2026-04-12T13:54:58.001Z</time></trkpt><trkpt lat="44.68696409031502" lon="12.192417395055529"><ele>-3.1666666666666665</ele><time>2026-04-12T13:55:00.001Z</time></trkpt><trkpt lat="44.687016072763384" lon="12.192341304538845"><ele>-3.333333333333333</ele><time>2026-04-12T13:55:02.001Z</time></trkpt><trkpt lat="44.687063136313924" lon="12.192272414279616"><ele>-3.5</ele><time>2026-04-12T13:55:04.001Z</time></trkpt><trkpt lat="44.68711938545067" lon="12.19219121649366"><ele>-3.6666666666666665</ele><time>2026-04-12T13:55:06Z</time></trkpt><trkpt lat="44.68717931825407" lon="12.192105032336624"><ele>-3.833333333333333</ele><time>2026-04-12T13:55:08Z</time></trkpt><trkpt lat="44.687235498686356" lon="12.19202424423913"><ele>-4.0</ele><time>2026-04-12T13:55:10Z</time></trkpt><trkpt lat="44.687284533286046" lon="12.191953731993973"><ele>-3.833333333333333</ele><time>2026-04-12T13:55:12Z</time></trkpt><trkpt lat="44.68732978886397" lon="12.191888653788961"><ele>-3.6666666666666665</ele><time>2026-04-12T13:55:14Z</time></trkpt><trkpt lat="44.687384489133855" lon="12.191809994322403"><ele>-3.5</ele><time>2026-04-12T13:55:16Z</time></trkpt><trkpt lat="44.68743578036023" lon="12.191736236973966"><ele>-3.333333333333333</ele><time>2026-04-12T13:55:18Z</time></trkpt><trkpt lat="44.68748831099562" lon="12.191660697268718"><ele>-3.1666666666666665</ele><time>2026-04-12T13:55:20Z</time></trkpt><trkpt lat="44.687552369989405" lon="12.191568579673746"><ele>-3.0</ele><time>2026-04-12T13:55:22Z</time></trkpt><trkpt lat="44.68761844847729" lon="12.191473199785218"><ele>-3.0</ele><time>2026-04-12T13:55:24Z</time></trkpt><trkpt lat="44.68768232912232" lon="12.191380574508912"><ele>-3.0</ele><time>2026-04-12T13:55:26Z</time></trkpt><trkpt lat="44.68774167808863" lon="12.191294520069311"><ele>-3.0</ele><time>2026-04-12T13:55:28Z</time></trkpt><trkpt lat="44.687798676444885" lon="12.19121187393104"><ele>-3.0</ele><time>2026-04-12T13:55:30Z</time></trkpt><trkpt lat="44.68785537903833" lon="12.191129656620888"><ele>-3.0</ele><time>2026-04-12T13:55:32Z</time></trkpt><trkpt lat="44.68791730725291" lon="12.191039862335865"><ele>-3.0</ele><time>2026-04-12T13:55:34Z</time></trkpt><trkpt lat="44.68797350368882" lon="12.190958378932905"><ele>-2.8333333333333335</ele><time>2026-04-12T13:55:36Z</time></trkpt><trkpt lat="44.688037041063964" lon="12.19086625137769"><ele>-2.6666666666666665</ele><time>2026-04-12T13:55:38Z</time></trkpt><trkpt lat="44.68809307748626" lon="12.19078500002083"><ele>-2.5</ele><time>2026-04-12T13:55:40Z</time></trkpt><trkpt lat="44.688147392708416" lon="12.190706244380845"><ele>-2.333333333333333</ele><time>2026-04-12T13:55:42Z</time></trkpt><trkpt lat="44.68819953561563" lon="12.190630638535994"><ele>-2.1666666666666665</ele><time>2026-04-12T13:55:44Z</time></trkpt><trkpt lat="44.68826006416654" lon="12.190542873699666"><ele>-2.0</ele><time>2026-04-12T13:55:46Z</time></trkpt><trkpt lat="44.68832281242814" lon="12.190451890336265"><ele>-1.6666666666666665</ele><time>2026-04-12T13:55:48Z</time></trkpt><trkpt lat="44.688381630810994" lon="12.190366302905007"><ele>-1.3333333333333333</ele><time>2026-04-12T13:55:50Z</time></trkpt><trkpt lat="44.68843759928048" lon="12.190284437617649"><ele>-1.0</ele><time>2026-04-12T13:55:52Z</time></trkpt><trkpt lat="44.688490888193535" lon="12.190206491720767"><ele>-0.6666666666666666</ele><time>2026-04-12T13:55:54Z</time></trkpt><trkpt lat="44.68854341214355" lon="12.190129664774917"><ele>-0.3333333333333333</ele><time>2026-04-12T13:55:56Z</time></trkpt><trkpt lat="44.68859263355578" lon="12.190057668449677"><ele>0.0</ele><time>2026-04-12T13:55:58Z</time></trkpt><trkpt lat="44.688657416063144" lon="12.190078241342674"><ele>0.0</ele><time>2026-04-12T13:55:59Z</time></trkpt><trkpt lat="44.68870257192246" lon="12.190007604701371"><ele>0.0</ele><time>2026-04-12T13:56:01Z</time></trkpt><trkpt lat="44.688770077083255" lon="12.189921624991207"><ele>0.0</ele><time>2026-04-12T13:56:04Z</time></trkpt><trkpt lat="44.68881510733742" lon="12.1898597017509"><ele>0.0</ele><time>2026-04-12T13:56:06Z</time></trkpt><trkpt lat="44.6888741210929" lon="12.189760658749538"><ele>0.0</ele><time>2026-04-12T13:56:09Z</time></trkpt><trkpt lat="44.68890100119167" lon="12.189648686446214"><ele>0.0</ele><time>2026-04-12T13:56:12Z</time></trkpt><trkpt lat="44.6889153956289" lon="12.189538848786006"><ele>-0.3333333333333333</ele><time>2026-04-12T13:56:15Z</time></trkpt><trkpt lat="44.68896090784102" lon="12.189469544070144"><ele>-0.6666666666666666</ele><time>2026-04-12T13:56:18Z</time></trkpt><trkpt lat="44.689016207509994" lon="12.189402729827467"><ele>-1.0</ele><time>2026-04-12T13:56:21Z</time></trkpt><trkpt lat="44.6890794595565" lon="12.189304297919252"><ele>-1.3333333333333333</ele><time>2026-04-12T13:56:24Z</time></trkpt><trkpt lat="44.68914141716572" lon="12.189215567818998"><ele>-1.6666666666666665</ele><time>2026-04-12T13:56:26Z</time></trkpt><trkpt lat="44.68920886138684" lon="12.18911657373146"><ele>-2.0</ele><time>2026-04-12T13:56:28Z</time></trkpt><trkpt lat="44.689280634713384" lon="12.189016315631973"><ele>-1.9999999999999998</ele><time>2026-04-12T13:56:30Z</time></trkpt><trkpt lat="44.68934451293617" lon="12.188914504134413"><ele>-2.0</ele><time>2026-04-12T13:56:32Z</time></trkpt><trkpt lat="44.68940247471979" lon="12.188818860594617"><ele>-2.0</ele><time>2026-04-12T13:56:34Z</time></trkpt><trkpt lat="44.68946063789994" lon="12.188729862382976"><ele>-2.0</ele><time>2026-04-12T13:56:36Z</time></trkpt><trkpt lat="44.68952117521998" lon="12.188647925545041"><ele>-1.9999999999999998</ele><time>2026-04-12T13:56:38Z</time></trkpt><trkpt lat="44.68957599525871" lon="12.188567166004152"><ele>-2.0</ele><time>2026-04-12T13:56:40Z</time></trkpt><trkpt lat="44.689632509517054" lon="12.188487754227973"><ele>-2.0</ele><time>2026-04-12T13:56:42Z</time></trkpt><trkpt lat="44.68968795223784" lon="12.188423700566632"><ele>-2.0</ele><time>2026-04-12T13:56:44Z</time></trkpt><trkpt lat="44.68978125578429" lon="12.188378952598155"><ele>-2.0</ele><time>2026-04-12T13:56:46Z</time></trkpt><trkpt lat="44.68985614848616" lon="12.188280641954153"><ele>-2.0</ele><time>2026-04-12T13:56:48Z</time></trkpt><trkpt lat="44.689922607196515" lon="12.188174812286027"><ele>-2.0</ele><time>2026-04-12T13:56:50Z</time></trkpt><trkpt lat="44.68998792010836" lon="12.188083066988504"><ele>-1.9999999999999998</ele><time>2026-04-12T13:56:52Z</time></trkpt><trkpt lat="44.69004843743985" lon="12.187990729168828"><ele>-2.0</ele><time>2026-04-12T13:56:54Z</time></trkpt><trkpt lat="44.690107243591" lon="12.187913887890348"><ele>-2.0</ele><time>2026-04-12T13:56:56Z</time></trkpt><trkpt lat="44.69016386637306" lon="12.187831089927537"><ele>-2.0</ele><time>2026-04-12T13:56:58Z</time></trkpt><trkpt lat="44.69020808947343" lon="12.187761642893857"><ele>-1.9999999999999998</ele><time>2026-04-12T13:57:00Z</time></trkpt><trkpt lat="44.69027669645754" lon="12.187787646497144"><ele>-2.0</ele><time>2026-04-12T13:57:03Z</time></trkpt><trkpt lat="44.69034027555948" lon="12.187812645396862"><ele>-1.857142857142857</ele><time>2026-04-12T13:57:05Z</time></trkpt><trkpt lat="44.690410561753644" lon="12.187838535244442"><ele>-1.714285714285714</ele><time>2026-04-12T13:57:07Z</time></trkpt><trkpt lat="44.690483072578594" lon="12.187843273738583"><ele>-1.5714285714285714</ele><time>2026-04-12T13:57:09Z</time></trkpt><trkpt lat="44.6905520586896" lon="12.187860658583302"><ele>-1.4285714285714284</ele><time>2026-04-12T13:57:11Z</time></trkpt><trkpt lat="44.690615744078585" lon="12.187880434806168"><ele>-1.2857142857142856</ele><time>2026-04-12T13:57:13Z</time></trkpt><trkpt lat="44.690707536744625" lon="12.187894858945771"><ele>-1.1428571428571428</ele><time>2026-04-12T13:57:16Z</time></trkpt><trkpt lat="44.69077331570775" lon="12.18791727060177"><ele>-1.0</ele><time>2026-04-12T13:57:18Z</time></trkpt><trkpt lat="44.69086152031656" lon="12.187941096199468"><ele>-1.0</ele><time>2026-04-12T13:57:21Z</time></trkpt><trkpt lat="44.69092996073905" lon="12.187957537794048"><ele>-0.9999999999999999</ele><time>2026-04-12T13:57:23Z</time></trkpt><trkpt lat="44.69100176078595" lon="12.187987320949393"><ele>-1.0</ele><time>2026-04-12T13:57:25Z</time></trkpt><trkpt lat="44.691082060788005" lon="12.187997409665439"><ele>-1.0</ele><time>2026-04-12T13:57:27Z</time></trkpt><trkpt lat="44.69114897470168" lon="12.18801334264798"><ele>-0.9999999999999999</ele><time>2026-04-12T13:57:29Z</time></trkpt><trkpt lat="44.69121053983927" lon="12.18803429117441"><ele>-1.0</ele><time>2026-04-12T13:57:31Z</time></trkpt><trkpt lat="44.691278205347416" lon="12.188056051468998"><ele>-1.0</ele><time>2026-04-12T13:57:33Z</time></trkpt><trkpt lat="44.691355096653936" lon="12.188065812514706"><ele>-0.9999999999999999</ele><time>2026-04-12T13:57:35Z</time></trkpt><trkpt lat="44.69142407693233" lon="12.188087548552144"><ele>-1.0</ele><time>2026-04-12T13:57:37Z</time></trkpt><trkpt lat="44.69151520438591" lon="12.1881137385556"><ele>-1.0</ele><time>2026-04-12T13:57:40Z</time></trkpt><trkpt lat="44.69157792784879" lon="12.188134234334548"><ele>-1.0</ele><time>2026-04-12T13:57:42Z</time></trkpt><trkpt lat="44.691656183381824" lon="12.188152472986769"><ele>-0.9999999999999999</ele><time>2026-04-12T13:57:44Z</time></trkpt><trkpt lat="44.69173872510418" lon="12.188160231091272"><ele>-1.0</ele><time>2026-04-12T13:57:46Z</time></trkpt><trkpt lat="44.69180968742464" lon="12.188193307971417"><ele>-1.0</ele><time>2026-04-12T13:57:48Z</time></trkpt><trkpt lat="44.69187432957561" lon="12.188206490824205"><ele>-0.9999999999999999</ele><time>2026-04-12T13:57:50Z</time></trkpt><trkpt lat="44.69194368930181" lon="12.18821738015909"><ele>-1.0</ele><time>2026-04-12T13:57:52Z</time></trkpt><trkpt lat="44.69203453899384" lon="12.188237531146909"><ele>-1.0</ele><time>2026-04-12T13:57:55Z</time></trkpt><trkpt lat="44.69210790460178" lon="12.188260912488698"><ele>-0.9999999999999999</ele><time>2026-04-12T13:57:58Z</time></trkpt><trkpt lat="44.69217138436151" lon="12.18827783029155"><ele>-1.0</ele><time>2026-04-12T13:58:01Z</time></trkpt><trkpt lat="44.692241084295155" lon="12.188299571059103"><ele>-1.0</ele><time>2026-04-12T13:58:05Z</time></trkpt><trkpt lat="44.69231085628911" lon="12.188261004007485"><ele>-1.0</ele><time>2026-04-12T13:58:09Z</time></trkpt><trkpt lat="44.692355302539745" lon="12.188191969671152"><ele>-0.9999999999999999</ele><time>2026-04-12T13:58:12Z</time></trkpt><trkpt lat="44.69240828301888" lon="12.188099999143567"><ele>-1.0</ele><time>2026-04-12T13:58:16Z</time></trkpt><trkpt lat="44.692429203118095" lon="12.18799945809575"><ele>-1.0</ele><time>2026-04-12T13:58:19Z</time></trkpt><trkpt lat="44.6924462915072" lon="12.187913278983185"><ele>-0.9999999999999999</ele><time>2026-04-12T13:58:22Z</time></trkpt><trkpt lat="44.69245602345725" lon="12.187820331343486"><ele>-1.0</ele><time>2026-04-12T13:58:25Z</time></trkpt><trkpt lat="44.692474065723516" lon="12.187710182036081"><ele>-1.0</ele><time>2026-04-12T13:58:28Z</time></trkpt><trkpt lat="44.692492104500666" lon="12.187583728370967"><ele>-0.7142857142857142</ele><time>2026-04-12T13:58:31Z</time></trkpt><trkpt lat="44.692501788478395" lon="12.187481413217192"><ele>-0.4285714285714285</ele><time>2026-04-12T13:58:34Z</time></trkpt><trkpt lat="44.69251607018156" lon="12.187372882476357"><ele>-0.14285714285714285</ele><time>2026-04-12T13:58:37Z</time></trkpt><trkpt lat="44.69257927634847" lon="12.18733551184477"><ele>0.14285714285714285</ele><time>2026-04-12T13:58:40Z</time></trkpt><trkpt lat="44.69264507560885" lon="12.187368032220862"><ele>0.4285714285714285</ele><time>2026-04-12T13:58:43Z</time></trkpt><trkpt lat="44.692715447044385" lon="12.187379627784221"><ele>0.7142857142857142</ele><time>2026-04-12T13:58:46Z</time></trkpt><trkpt lat="44.69278225010207" lon="12.187424128137405"><ele>1.0</ele><time>2026-04-12T13:58:50Z</time></trkpt><trkpt lat="44.692816394624096" lon="12.187520861340678"><ele>1.1666666666666665</ele><time>2026-04-12T13:58:54Z</time></trkpt><trkpt lat="44.6928127668943" lon="12.187635466945984"><ele>1.3333333333333333</ele><time>2026-04-12T13:58:58Z</time></trkpt><trkpt lat="44.69280637423834" lon="12.18772606193597"><ele>1.5</ele><time>2026-04-12T13:59:01Z</time></trkpt><trkpt lat="44.69280003182658" lon="12.187841539229186"><ele>1.6666666666666665</ele><time>2026-04-12T13:59:04Z</time></trkpt><trkpt lat="44.69278217391111" lon="12.187971995755538"><ele>1.8333333333333333</ele><time>2026-04-12T13:59:07Z</time></trkpt><trkpt lat="44.692779709798394" lon="12.18809597973433"><ele>2.0</ele><time>2026-04-12T13:59:10Z</time></trkpt><trkpt lat="44.692760551650046" lon="12.188208682723898"><ele>1.5714285714285714</ele><time>2026-04-12T13:59:54Z</time></trkpt><trkpt lat="44.69273962413884" lon="12.188300178193359"><ele>1.1428571428571428</ele><time>2026-04-12T13:59:57Z</time></trkpt><trkpt lat="44.69273108974326" lon="12.188400058833441"><ele>0.7142857142857142</ele><time>2026-04-12T14:00:01Z</time></trkpt><trkpt lat="44.692733930166675" lon="12.188514223119597"><ele>0.2857142857142857</ele><time>2026-04-12T14:00:05Z</time></trkpt><trkpt lat="44.692719011442335" lon="12.188603916243858"><ele>-0.1428571428571428</ele><time>2026-04-12T14:00:08Z</time></trkpt><trkpt lat="44.692716581719516" lon="12.188701823319482"><ele>-0.5714285714285714</ele><time>2026-04-12T14:00:11Z</time></trkpt><trkpt lat="44.69270757151539" lon="12.188820772398493"><ele>-1.0</ele><time>2026-04-12T14:00:14Z</time></trkpt><trkpt lat="44.692697738123925" lon="12.18895775749868"><ele>-0.8333333333333333</ele><time>2026-04-12T14:00:17Z</time></trkpt><trkpt lat="44.69268111816901" lon="12.18906180314799"><ele>-0.6666666666666666</ele><time>2026-04-12T14:00:20Z</time></trkpt><trkpt lat="44.69268165304278" lon="12.189172590343988"><ele>-0.5</ele><time>2026-04-12T14:00:23Z</time></trkpt><trkpt lat="44.69266433487145" lon="12.1892886492858"><ele>-0.3333333333333333</ele><time>2026-04-12T14:00:26Z</time></trkpt><trkpt lat="44.69266595347685" lon="12.189403229804519"><ele>-0.16666666666666666</ele><time>2026-04-12T14:00:29Z</time></trkpt><trkpt lat="44.692687113099076" lon="12.18949725564199"><ele>0.0</ele><time>2026-04-12T14:00:32Z</time></trkpt><trkpt lat="44.692752499638004" lon="12.189534018330718"><ele>0.0</ele><time>2026-04-12T14:00:35Z</time></trkpt><trkpt lat="44.69281938683985" lon="12.189558900807336"><ele>2.0</ele><time>2026-04-12T14:00:38Z</time></trkpt><trkpt lat="44.6928765280455" lon="12.189604182372822"><ele>2.0</ele><time>2026-04-12T14:00:41Z</time></trkpt><trkpt lat="44.69295363962119" lon="12.189629489782567"><ele>2.0</ele><time>2026-04-12T14:00:44Z</time></trkpt><trkpt lat="44.69302152919695" lon="12.18965799590334"><ele>2.0</ele><time>2026-04-12T14:00:47Z</time></trkpt><trkpt lat="44.69309770072448" lon="12.189675551749238"><ele>2.0</ele><time>2026-04-12T14:00:50Z</time></trkpt></trkseg></trk></gpx>